<?xml version='1.0' encoding='UTF-8'?><gpx version="1.1" creator="JPX - https://github.com/jenetics/jpx" xmlns="http://www.topografix.com/GPX/1/1"><trk><trkseg><trkpt lat="43.835932281844876" lon="11.96097679016151"><ele>490.00000000000006</ele><time>2026-04-14T06:34:18.025Z</time></trkpt><trkpt lat="43.83586712146124" lon="11.961064104444688"><ele>490.0</ele><time>2026-04-14T06:34:25.006Z</time></trkpt><trkpt lat="43.83577870558678" lon="11.961023773873364"><ele>490.0</ele><time>2026-04-14T06:34:27.006Z</time></trkpt><trkpt lat="43.83569472881486" lon="11.960967348527108"><ele>490.0</ele><time>2026-04-14T06:34:29.005Z</time></trkpt><trkpt lat="43.83561832303836" lon="11.96093602412678"><ele>490.00000000000006</ele><time>2026-04-14T06:34:31.004Z</time></trkpt><trkpt lat="43.83562085588409" lon="11.960820661613276"><ele>490.0</ele><time>2026-04-14T06:34:34.003Z</time></trkpt><trkpt lat="43.835653893767656" lon="11.960743321689018"><ele>490.0</ele><time>2026-04-14T06:34:36.003Z</time></trkpt><trkpt lat="43.83570984172011" lon="11.960683283923741"><ele>490.0</ele><time>2026-04-14T06:34:37.003Z</time></trkpt><trkpt lat="43.83573763069039" lon="11.960561744155653"><ele>490.0</ele><time>2026-04-14T06:34:39.002Z</time></trkpt><trkpt lat="43.83578040104427" lon="11.960407595249045"><ele>490.0</ele><time>2026-04-14T06:34:41.002Z</time></trkpt><trkpt lat="43.83581683529422" lon="11.960270024826094"><ele>490.0</ele><time>2026-04-14T06:34:43.002Z</time></trkpt><trkpt lat="43.83585977828409" lon="11.960163769266483"><ele>490.00000000000006</ele><time>2026-04-14T06:34:45.002Z</time></trkpt><trkpt lat="43.83590088332802" lon="11.960080365029315"><ele>490.0</ele><time>2026-04-14T06:34:48.001Z</time></trkpt><trkpt lat="43.83596831326435" lon="11.960149198280638"><ele>490.0</ele><time>2026-04-14T06:34:49.001Z</time></trkpt><trkpt lat="43.83605151828714" lon="11.960257280118274"><ele>490.0</ele><time>2026-04-14T06:34:51.001Z</time></trkpt><trkpt lat="43.83610693676441" lon="11.960314934532873"><ele>490.00000000000006</ele><time>2026-04-14T06:34:52.001Z</time></trkpt><trkpt lat="43.836175965300164" lon="11.960359420262"><ele>490.0</ele><time>2026-04-14T06:34:53.001Z</time></trkpt><trkpt lat="43.836236441359866" lon="11.96041797915746"><ele>489.83333333333337</ele><time>2026-04-14T06:34:54.001Z</time></trkpt><trkpt lat="43.83630328983821" lon="11.96048281995048"><ele>489.6666666666667</ele><time>2026-04-14T06:34:55.001Z</time></trkpt><trkpt lat="43.836366663157925" lon="11.960545913955174"><ele>489.5</ele><time>2026-04-14T06:34:56.001Z</time></trkpt><trkpt lat="43.83643526142653" lon="11.960628461450357"><ele>489.33333333333337</ele><time>2026-04-14T06:34:57.001Z</time></trkpt><trkpt lat="43.83650830544839" lon="11.960702545563443"><ele>489.1666666666667</ele><time>2026-04-14T06:34:58.001Z</time></trkpt><trkpt lat="43.83657891845349" lon="11.960769836387525"><ele>489.0</ele><time>2026-04-14T06:34:59Z</time></trkpt><trkpt lat="43.83665715394474" lon="11.960842522985002"><ele>488.8333333333333</ele><time>2026-04-14T06:35:00Z</time></trkpt><trkpt lat="43.83672959757656" lon="11.96091902112939"><ele>488.66666666666663</ele><time>2026-04-14T06:35:01Z</time></trkpt><trkpt lat="43.8367979535124" lon="11.96099083467509"><ele>488.5</ele><time>2026-04-14T06:35:02Z</time></trkpt><trkpt lat="43.83687430680814" lon="11.96105736129217"><ele>488.3333333333333</ele><time>2026-04-14T06:35:03Z</time></trkpt><trkpt lat="43.836930150524495" lon="11.96112329902062"><ele>488.16666666666663</ele><time>2026-04-14T06:35:04Z</time></trkpt><trkpt lat="43.836998544523084" lon="11.961200715635561"><ele>488.0</ele><time>2026-04-14T06:35:05Z</time></trkpt><trkpt lat="43.83705484531932" lon="11.961262976200983"><ele>487.99999999999994</ele><time>2026-04-14T06:35:06Z</time></trkpt><trkpt lat="43.837114236724375" lon="11.96129606897994"><ele>488.0</ele><time>2026-04-14T06:35:07Z</time></trkpt><trkpt lat="43.83712207416721" lon="11.961409066871763"><ele>488.0</ele><time>2026-04-14T06:35:08Z</time></trkpt><trkpt lat="43.83711547723089" lon="11.961590221946173"><ele>488.0</ele><time>2026-04-14T06:35:10Z</time></trkpt><trkpt lat="43.837119095271746" lon="11.961695623576308"><ele>487.99999999999994</ele><time>2026-04-14T06:35:11Z</time></trkpt><trkpt lat="43.837144661253824" lon="11.961786756640498"><ele>488.0</ele><time>2026-04-14T06:35:12Z</time></trkpt><trkpt lat="43.83719289808533" lon="11.961864255402366"><ele>487.79999999999995</ele><time>2026-04-14T06:35:13Z</time></trkpt><trkpt lat="43.83726347082762" lon="11.961918996158994"><ele>487.59999999999997</ele><time>2026-04-14T06:35:14Z</time></trkpt><trkpt lat="43.8373473331403" lon="11.961954340474248"><ele>487.40000000000003</ele><time>2026-04-14T06:35:15Z</time></trkpt><trkpt lat="43.83744257466163" lon="11.961979150672681"><ele>487.20000000000005</ele><time>2026-04-14T06:35:16Z</time></trkpt><trkpt lat="43.83754891310299" lon="11.962004359338682"><ele>487.0</ele><time>2026-04-14T06:35:17Z</time></trkpt><trkpt lat="43.837665548161254" lon="11.9620541030611"><ele>487.0</ele><time>2026-04-14T06:35:18Z</time></trkpt><trkpt lat="43.83778210613353" lon="11.962113598375923"><ele>487.0</ele><time>2026-04-14T06:35:19Z</time></trkpt><trkpt lat="43.83790067023717" lon="11.962180847632872"><ele>487.0</ele><time>2026-04-14T06:35:20Z</time></trkpt><trkpt lat="43.838010456096264" lon="11.962249592547968"><ele>487.0</ele><time>2026-04-14T06:35:21Z</time></trkpt><trkpt lat="43.838116845963945" lon="11.962321412768647"><ele>487.0</ele><time>2026-04-14T06:35:22Z</time></trkpt><trkpt lat="43.838219014514635" lon="11.962390647701733"><ele>487.0</ele><time>2026-04-14T06:35:23Z</time></trkpt><trkpt lat="43.83831778081472" lon="11.962465209375704"><ele>487.0</ele><time>2026-04-14T06:35:24Z</time></trkpt><trkpt lat="43.8384158595337" lon="11.962541710465056"><ele>487.0</ele><time>2026-04-14T06:35:25Z</time></trkpt><trkpt lat="43.838514166196866" lon="11.962620451559022"><ele>486.8</ele><time>2026-04-14T06:35:26Z</time></trkpt><trkpt lat="43.83860608153585" lon="11.96269966342519"><ele>486.6</ele><time>2026-04-14T06:35:27Z</time></trkpt><trkpt lat="43.83869968703731" lon="11.962781376985225"><ele>486.40000000000003</ele><time>2026-04-14T06:35:28Z</time></trkpt><trkpt lat="43.83878760639621" lon="11.962859833685535"><ele>486.20000000000005</ele><time>2026-04-14T06:35:29Z</time></trkpt><trkpt lat="43.838873893414814" lon="11.962937148513102"><ele>486.0</ele><time>2026-04-14T06:35:30Z</time></trkpt><trkpt lat="43.83895819603292" lon="11.963005999969313"><ele>486.0</ele><time>2026-04-14T06:35:31Z</time></trkpt><trkpt lat="43.83904688872967" lon="11.96307784608656"><ele>486.0</ele><time>2026-04-14T06:35:32Z</time></trkpt><trkpt lat="43.83914026195888" lon="11.963154243702029"><ele>486.0</ele><time>2026-04-14T06:35:33Z</time></trkpt><trkpt lat="43.83923660437841" lon="11.963233199042678"><ele>486.0</ele><time>2026-04-14T06:35:34Z</time></trkpt><trkpt lat="43.83934155892762" lon="11.963316927488114"><ele>486.0</ele><time>2026-04-14T06:35:35Z</time></trkpt><trkpt lat="43.83944648122268" lon="11.963406741650628"><ele>485.75</ele><time>2026-04-14T06:35:36Z</time></trkpt><trkpt lat="43.839555667808014" lon="11.963499786150333"><ele>485.5</ele><time>2026-04-14T06:35:37Z</time></trkpt><trkpt lat="43.83966457324782" lon="11.963589885684305"><ele>485.25</ele><time>2026-04-14T06:35:38Z</time></trkpt><trkpt lat="43.839781758943616" lon="11.963689227963787"><ele>485.0</ele><time>2026-04-14T06:35:39Z</time></trkpt><trkpt lat="43.839898098385426" lon="11.9637797165354"><ele>485.0</ele><time>2026-04-14T06:35:40Z</time></trkpt><trkpt lat="43.840005422386916" lon="11.96387575008635"><ele>485.0</ele><time>2026-04-14T06:35:41Z</time></trkpt><trkpt lat="43.84010777090164" lon="11.963962637687425"><ele>485.0</ele><time>2026-04-14T06:35:42Z</time></trkpt><trkpt lat="43.84020872555479" lon="11.964049287103355"><ele>485.0</ele><time>2026-04-14T06:35:43Z</time></trkpt><trkpt lat="43.840303610598546" lon="11.964130522915285"><ele>484.6</ele><time>2026-04-14T06:35:44Z</time></trkpt><trkpt lat="43.840395081927184" lon="11.964211313560448"><ele>484.2</ele><time>2026-04-14T06:35:45Z</time></trkpt><trkpt lat="43.84048396291524" lon="11.964296458636149"><ele>483.79999999999995</ele><time>2026-04-14T06:35:46Z</time></trkpt><trkpt lat="43.840574314293484" lon="11.96437822702313"><ele>483.4</ele><time>2026-04-14T06:35:47Z</time></trkpt><trkpt lat="43.84066492621332" lon="11.964452155225551"><ele>483.0</ele><time>2026-04-14T06:35:48Z</time></trkpt><trkpt lat="43.840744990284506" lon="11.964537319029754"><ele>483.0</ele><time>2026-04-14T06:35:49Z</time></trkpt><trkpt lat="43.840815440322736" lon="11.964626464489656"><ele>482.99999999999994</ele><time>2026-04-14T06:35:50Z</time></trkpt><trkpt lat="43.840874760253165" lon="11.964723453904607"><ele>482.99999999999994</ele><time>2026-04-14T06:35:51Z</time></trkpt><trkpt lat="43.840926895864946" lon="11.964841431176783"><ele>483.0</ele><time>2026-04-14T06:35:52Z</time></trkpt><trkpt lat="43.8409530723051" lon="11.96495628946824"><ele>483.0</ele><time>2026-04-14T06:35:53Z</time></trkpt><trkpt lat="43.840981309498375" lon="11.965069327685494"><ele>482.8333333333333</ele><time>2026-04-14T06:35:54Z</time></trkpt><trkpt lat="43.84103082294684" lon="11.965160834907056"><ele>482.66666666666663</ele><time>2026-04-14T06:35:55Z</time></trkpt><trkpt lat="43.84109498546064" lon="11.96523312882528"><ele>482.5</ele><time>2026-04-14T06:35:56Z</time></trkpt><trkpt lat="43.84117555032351" lon="11.965271709930057"><ele>482.3333333333333</ele><time>2026-04-14T06:35:57Z</time></trkpt><trkpt lat="43.84126073806254" lon="11.965305385957004"><ele>482.16666666666663</ele><time>2026-04-14T06:35:58Z</time></trkpt><trkpt lat="43.84134583171707" lon="11.965339898028029"><ele>482.0</ele><time>2026-04-14T06:35:59Z</time></trkpt><trkpt lat="43.84144631796007" lon="11.965346113108959"><ele>482.0</ele><time>2026-04-14T06:36:00Z</time></trkpt><trkpt lat="43.84153162804486" lon="11.96546058222418"><ele>482.0</ele><time>2026-04-14T06:36:01Z</time></trkpt><trkpt lat="43.84162263592824" lon="11.965551162336004"><ele>482.0</ele><time>2026-04-14T06:36:02Z</time></trkpt><trkpt lat="43.84171331034925" lon="11.965661079338409"><ele>482.0</ele><time>2026-04-14T06:36:03Z</time></trkpt><trkpt lat="43.84179801587324" lon="11.965784844174722"><ele>486.0</ele><time>2026-04-14T06:36:04Z</time></trkpt><trkpt lat="43.841885880002714" lon="11.965912822317536"><ele>490.0</ele><time>2026-04-14T06:36:05Z</time></trkpt><trkpt lat="43.84197356950379" lon="11.966053126739316"><ele>494.0</ele><time>2026-04-14T06:36:06Z</time></trkpt><trkpt lat="43.8420552472228" lon="11.966188431263246"><ele>498.0</ele><time>2026-04-14T06:36:07Z</time></trkpt><trkpt lat="43.842127401051904" lon="11.966319579834881"><ele>498.0</ele><time>2026-04-14T06:36:08Z</time></trkpt><trkpt lat="43.842205345024" lon="11.96646417165271"><ele>498.0</ele><time>2026-04-14T06:36:09Z</time></trkpt><trkpt lat="43.84227269824103" lon="11.966610656509125"><ele>498.0</ele><time>2026-04-14T06:36:10Z</time></trkpt><trkpt lat="43.84234349771327" lon="11.966757194516347"><ele>498.0</ele><time>2026-04-14T06:36:11Z</time></trkpt><trkpt lat="43.84240690521886" lon="11.96690802622039"><ele>496.75</ele><time>2026-04-14T06:36:12Z</time></trkpt><trkpt lat="43.8424694569177" lon="11.96706434502897"><ele>495.5</ele><time>2026-04-14T06:36:13Z</time></trkpt><trkpt lat="43.8425413890183" lon="11.967218144350149"><ele>494.25</ele><time>2026-04-14T06:36:14Z</time></trkpt><trkpt lat="43.842598148025466" lon="11.967376328589515"><ele>493.0</ele><time>2026-04-14T06:36:15Z</time></trkpt><trkpt lat="43.84265780857564" lon="11.967528076522623"><ele>493.0</ele><time>2026-04-14T06:36:16Z</time></trkpt><trkpt lat="43.842732002248624" lon="11.9676780930667"><ele>493.0</ele><time>2026-04-14T06:36:17Z</time></trkpt><trkpt lat="43.84280644735663" lon="11.967818663777763"><ele>493.0</ele><time>2026-04-14T06:36:18Z</time></trkpt><trkpt lat="43.8428912232086" lon="11.967955236644052"><ele>493.0</ele><time>2026-04-14T06:36:19Z</time></trkpt><trkpt lat="43.84298004592112" lon="11.968092648476041"><ele>493.0</ele><time>2026-04-14T06:36:20Z</time></trkpt><trkpt lat="43.84306916598271" lon="11.96822454055556"><ele>493.0</ele><time>2026-04-14T06:36:21Z</time></trkpt><trkpt lat="43.84315159958395" lon="11.96835614059289"><ele>493.0</ele><time>2026-04-14T06:36:22Z</time></trkpt><trkpt lat="43.843235402289295" lon="11.968478368836587"><ele>493.0</ele><time>2026-04-14T06:36:23Z</time></trkpt><trkpt lat="43.843316901783574" lon="11.968597089326657"><ele>491.0</ele><time>2026-04-14T06:36:24Z</time></trkpt><trkpt lat="43.84347699024927" lon="11.96882913304576"><ele>489.0</ele><time>2026-04-14T06:36:26Z</time></trkpt><trkpt lat="43.84356457909655" lon="11.968933270782252"><ele>487.0</ele><time>2026-04-14T06:36:27Z</time></trkpt><trkpt lat="43.84366031363806" lon="11.969027751093414"><ele>487.0</ele><time>2026-04-14T06:36:28Z</time></trkpt><trkpt lat="43.84377043993792" lon="11.969112969678584"><ele>487.0</ele><time>2026-04-14T06:36:29Z</time></trkpt><trkpt lat="43.84389093957897" lon="11.969182230863474"><ele>487.0</ele><time>2026-04-14T06:36:30Z</time></trkpt><trkpt lat="43.84400985049921" lon="11.969269405133495"><ele>487.0</ele><time>2026-04-14T06:36:31Z</time></trkpt><trkpt lat="43.844141579417546" lon="11.969339765503298"><ele>484.0</ele><time>2026-04-14T06:36:32Z</time></trkpt><trkpt lat="43.84427495397619" lon="11.969400313703844"><ele>481.0</ele><time>2026-04-14T06:36:33Z</time></trkpt><trkpt lat="43.84441412877214" lon="11.969472187170656"><ele>478.0</ele><time>2026-04-14T06:36:34Z</time></trkpt><trkpt lat="43.844554070395255" lon="11.969529103773194"><ele>475.0</ele><time>2026-04-14T06:36:35Z</time></trkpt><trkpt lat="43.84468880569336" lon="11.969583104543055"><ele>474.75</ele><time>2026-04-14T06:36:36Z</time></trkpt><trkpt lat="43.84482148750997" lon="11.969635517002168"><ele>474.5</ele><time>2026-04-14T06:36:37Z</time></trkpt><trkpt lat="43.84494721962896" lon="11.96968990465351"><ele>474.25</ele><time>2026-04-14T06:36:38Z</time></trkpt><trkpt lat="43.845063502741496" lon="11.969728568875958"><ele>474.0</ele><time>2026-04-14T06:36:39Z</time></trkpt><trkpt lat="43.84517523199722" lon="11.969772958090376"><ele>474.0</ele><time>2026-04-14T06:36:40Z</time></trkpt><trkpt lat="43.84528227709086" lon="11.969825812921643"><ele>474.0</ele><time>2026-04-14T06:36:41Z</time></trkpt><trkpt lat="43.84538175520248" lon="11.96988576895223"><ele>474.0</ele><time>2026-04-14T06:36:42Z</time></trkpt><trkpt lat="43.84547378817138" lon="11.969966487976443"><ele>474.0</ele><time>2026-04-14T06:36:43Z</time></trkpt><trkpt lat="43.845553440213166" lon="11.970052808012355"><ele>474.0</ele><time>2026-04-14T06:36:44Z</time></trkpt><trkpt lat="43.84562715266971" lon="11.970145252770116"><ele>473.6</ele><time>2026-04-14T06:36:45Z</time></trkpt><trkpt lat="43.84570802679189" lon="11.970198434109038"><ele>473.2</ele><time>2026-04-14T06:36:46Z</time></trkpt><trkpt lat="43.84576716696908" lon="11.970298434581482"><ele>472.80000000000007</ele><time>2026-04-14T06:36:47Z</time></trkpt><trkpt lat="43.845856155328896" lon="11.970313901674311"><ele>472.40000000000003</ele><time>2026-04-14T06:36:48Z</time></trkpt><trkpt lat="43.84595642662852" lon="11.97026651949964"><ele>472.0</ele><time>2026-04-14T06:36:49Z</time></trkpt><trkpt lat="43.846054071708515" lon="11.970239483203995"><ele>472.0</ele><time>2026-04-14T06:36:50Z</time></trkpt><trkpt lat="43.846159012838356" lon="11.970216870327569"><ele>472.0</ele><time>2026-04-14T06:36:51Z</time></trkpt><trkpt lat="43.84627601977627" lon="11.970218007181337"><ele>472.0</ele><time>2026-04-14T06:36:52Z</time></trkpt><trkpt lat="43.846399538099945" lon="11.97024100198232"><ele>472.0</ele><time>2026-04-14T06:36:53Z</time></trkpt><trkpt lat="43.84667054861825" lon="11.970330070467577"><ele>472.75</ele><time>2026-04-14T06:36:55Z</time></trkpt><trkpt lat="43.84680348212968" lon="11.97037448203755"><ele>473.5</ele><time>2026-04-14T06:36:56Z</time></trkpt><trkpt lat="43.846937258013966" lon="11.970430990457082"><ele>474.25</ele><time>2026-04-14T06:36:57Z</time></trkpt><trkpt lat="43.847066461628394" lon="11.970502119847826"><ele>475.0</ele><time>2026-04-14T06:36:58Z</time></trkpt><trkpt lat="43.847188197151006" lon="11.970588403221484"><ele>475.0</ele><time>2026-04-14T06:36:59Z</time></trkpt><trkpt lat="43.84730206137243" lon="11.970692103650583"><ele>475.0</ele><time>2026-04-14T06:37:00Z</time></trkpt><trkpt lat="43.84740758634908" lon="11.97081293556001"><ele>475.0</ele><time>2026-04-14T06:37:01Z</time></trkpt><trkpt lat="43.84751322290401" lon="11.970946285950449"><ele>475.0</ele><time>2026-04-14T06:37:02Z</time></trkpt><trkpt lat="43.84761896103015" lon="11.971082564602824"><ele>475.0</ele><time>2026-04-14T06:37:03Z</time></trkpt><trkpt lat="43.847723769263226" lon="11.971221066944445"><ele>475.0</ele><time>2026-04-14T06:37:04Z</time></trkpt><trkpt lat="43.84782978380291" lon="11.97135911899639"><ele>475.0</ele><time>2026-04-14T06:37:05Z</time></trkpt><trkpt lat="43.84793433501884" lon="11.971497690123645"><ele>475.0</ele><time>2026-04-14T06:37:06Z</time></trkpt><trkpt lat="43.84804416630876" lon="11.971640160877577"><ele>473.5</ele><time>2026-04-14T06:37:07Z</time></trkpt><trkpt lat="43.84815177148709" lon="11.971779455643597"><ele>472.0</ele><time>2026-04-14T06:37:08Z</time></trkpt><trkpt lat="43.848260346692015" lon="11.97191473382678"><ele>470.5</ele><time>2026-04-14T06:37:09Z</time></trkpt><trkpt lat="43.848376271215905" lon="11.972037779095896"><ele>469.0</ele><time>2026-04-14T06:37:10Z</time></trkpt><trkpt lat="43.84847971022156" lon="11.972169251991609"><ele>470.0</ele><time>2026-04-14T06:37:11Z</time></trkpt><trkpt lat="43.84858179954883" lon="11.97230367650504"><ele>471.0</ele><time>2026-04-14T06:37:12Z</time></trkpt><trkpt lat="43.84868385613692" lon="11.97243120162945"><ele>472.0</ele><time>2026-04-14T06:37:13Z</time></trkpt><trkpt lat="43.84889332690345" lon="11.972678300944338"><ele>472.0</ele><time>2026-04-14T06:37:15Z</time></trkpt><trkpt lat="43.848991491976996" lon="11.972799913342467"><ele>472.0</ele><time>2026-04-14T06:37:16Z</time></trkpt><trkpt lat="43.849094999539275" lon="11.97292736682938"><ele>472.0</ele><time>2026-04-14T06:37:17Z</time></trkpt><trkpt lat="43.84920201090526" lon="11.97305869134349"><ele>472.0</ele><time>2026-04-14T06:37:18Z</time></trkpt><trkpt lat="43.8493095995528" lon="11.973193656593185"><ele>472.75</ele><time>2026-04-14T06:37:19Z</time></trkpt><trkpt lat="43.84941810193671" lon="11.973327636090893"><ele>473.5</ele><time>2026-04-14T06:37:20Z</time></trkpt><trkpt lat="43.84952279028944" lon="11.973460764126411"><ele>474.25</ele><time>2026-04-14T06:37:21Z</time></trkpt><trkpt lat="43.84962216372357" lon="11.973587049721347"><ele>475.0</ele><time>2026-04-14T06:37:22Z</time></trkpt><trkpt lat="43.849718339498615" lon="11.97370604728812"><ele>475.0</ele><time>2026-04-14T06:37:23Z</time></trkpt><trkpt lat="43.84981643529378" lon="11.973819445821205"><ele>475.0</ele><time>2026-04-14T06:37:24Z</time></trkpt><trkpt lat="43.84990992943445" lon="11.973926581211993"><ele>475.0</ele><time>2026-04-14T06:37:25Z</time></trkpt><trkpt lat="43.85000312494626" lon="11.974041869542436"><ele>475.0</ele><time>2026-04-14T06:37:26Z</time></trkpt><trkpt lat="43.85009809826441" lon="11.974170030979451"><ele>473.5</ele><time>2026-04-14T06:37:27Z</time></trkpt><trkpt lat="43.85019606542482" lon="11.974306027564753"><ele>472.0</ele><time>2026-04-14T06:37:28Z</time></trkpt><trkpt lat="43.85030233485057" lon="11.974440257215674"><ele>470.5</ele><time>2026-04-14T06:37:29Z</time></trkpt><trkpt lat="43.85040104097061" lon="11.974567196611556"><ele>469.0</ele><time>2026-04-14T06:37:30Z</time></trkpt><trkpt lat="43.85049689563417" lon="11.974685553811405"><ele>469.0</ele><time>2026-04-14T06:37:31Z</time></trkpt><trkpt lat="43.85059395181249" lon="11.974802162029434"><ele>469.0</ele><time>2026-04-14T06:37:32Z</time></trkpt><trkpt lat="43.85068868045235" lon="11.974919100119337"><ele>469.0</ele><time>2026-04-14T06:37:33Z</time></trkpt><trkpt lat="43.85078383984192" lon="11.975030011332157"><ele>469.0</ele><time>2026-04-14T06:37:34Z</time></trkpt><trkpt lat="43.850877490405594" lon="11.975134862178347"><ele>468.0</ele><time>2026-04-14T06:37:35Z</time></trkpt><trkpt lat="43.85097611601706" lon="11.97522480639329"><ele>467.0</ele><time>2026-04-14T06:37:36Z</time></trkpt><trkpt lat="43.8510809805831" lon="11.975302575095315"><ele>466.0</ele><time>2026-04-14T06:37:37Z</time></trkpt><trkpt lat="43.8511904824337" lon="11.97536556464253"><ele>465.0</ele><time>2026-04-14T06:37:38Z</time></trkpt><trkpt lat="43.85130670288905" lon="11.9754153523888"><ele>465.0</ele><time>2026-04-14T06:37:39Z</time></trkpt><trkpt lat="43.85142690741164" lon="11.975456822069713"><ele>465.0</ele><time>2026-04-14T06:37:40Z</time></trkpt><trkpt lat="43.851546353250804" lon="11.97549209271438"><ele>465.0</ele><time>2026-04-14T06:37:41Z</time></trkpt><trkpt lat="43.85166582685358" lon="11.975526013948935"><ele>465.0</ele><time>2026-04-14T06:37:42Z</time></trkpt><trkpt lat="43.851787371660706" lon="11.975563512877144"><ele>465.75</ele><time>2026-04-14T06:37:43Z</time></trkpt><trkpt lat="43.851908825152364" lon="11.975602074162353"><ele>466.5</ele><time>2026-04-14T06:37:44Z</time></trkpt><trkpt lat="43.852028628189295" lon="11.97563503473546"><ele>467.25</ele><time>2026-04-14T06:37:45Z</time></trkpt><trkpt lat="43.85214893003382" lon="11.97566898697613"><ele>468.0</ele><time>2026-04-14T06:37:46Z</time></trkpt><trkpt lat="43.85226850990294" lon="11.975702757467282"><ele>468.0</ele><time>2026-04-14T06:37:47Z</time></trkpt><trkpt lat="43.85238920650291" lon="11.975736231287632"><ele>468.0</ele><time>2026-04-14T06:37:48Z</time></trkpt><trkpt lat="43.852508236606134" lon="11.975769849340807"><ele>468.0</ele><time>2026-04-14T06:37:49Z</time></trkpt><trkpt lat="43.852627222344395" lon="11.97580096983131"><ele>468.0</ele><time>2026-04-14T06:37:50Z</time></trkpt><trkpt lat="43.85274556231959" lon="11.9758245833464"><ele>466.75</ele><time>2026-04-14T06:37:51Z</time></trkpt><trkpt lat="43.852869094095716" lon="11.975857995989328"><ele>465.5</ele><time>2026-04-14T06:37:52Z</time></trkpt><trkpt lat="43.85299964499031" lon="11.975891336887452"><ele>464.25</ele><time>2026-04-14T06:37:53Z</time></trkpt><trkpt lat="43.85313350406483" lon="11.97592825720503"><ele>463.0</ele><time>2026-04-14T06:37:54Z</time></trkpt><trkpt lat="43.8532602361049" lon="11.97596129624797"><ele>463.0</ele><time>2026-04-14T06:37:55Z</time></trkpt><trkpt lat="43.85338500206989" lon="11.975996597952546"><ele>463.0</ele><time>2026-04-14T06:37:56Z</time></trkpt><trkpt lat="43.85350995258112" lon="11.97603179086363"><ele>463.0</ele><time>2026-04-14T06:37:57Z</time></trkpt><trkpt lat="43.85363483788249" lon="11.976073563300154"><ele>463.0</ele><time>2026-04-14T06:37:58Z</time></trkpt><trkpt lat="43.853755434685894" lon="11.9761037970155"><ele>463.0</ele><time>2026-04-14T06:37:59Z</time></trkpt><trkpt lat="43.853870050289046" lon="11.976137748064525"><ele>463.0</ele><time>2026-04-14T06:38:00Z</time></trkpt><trkpt lat="43.853993253477455" lon="11.976161784411024"><ele>463.0</ele><time>2026-04-14T06:38:01Z</time></trkpt><trkpt lat="43.85411197184889" lon="11.97619375890549"><ele>463.0</ele><time>2026-04-14T06:38:02Z</time></trkpt><trkpt lat="43.8542336907634" lon="11.976223329305554"><ele>463.75</ele><time>2026-04-14T06:38:03Z</time></trkpt><trkpt lat="43.854350893579024" lon="11.97626124899194"><ele>464.5</ele><time>2026-04-14T06:38:04Z</time></trkpt><trkpt lat="43.85446934108087" lon="11.976296814663055"><ele>465.25</ele><time>2026-04-14T06:38:05Z</time></trkpt><trkpt lat="43.85458684571599" lon="11.97633368133375"><ele>466.0</ele><time>2026-04-14T06:38:06Z</time></trkpt><trkpt lat="43.85469804072082" lon="11.976367359267515"><ele>466.0</ele><time>2026-04-14T06:38:07Z</time></trkpt><trkpt lat="43.85480687405285" lon="11.976394607762808"><ele>466.0</ele><time>2026-04-14T06:38:08Z</time></trkpt><trkpt lat="43.85491673437597" lon="11.976419022887574"><ele>466.0</ele><time>2026-04-14T06:38:09Z</time></trkpt><trkpt lat="43.85502695379099" lon="11.97644272877429"><ele>466.0</ele><time>2026-04-14T06:38:10Z</time></trkpt><trkpt lat="43.85513423572161" lon="11.976466602724004"><ele>466.0</ele><time>2026-04-14T06:38:11Z</time></trkpt><trkpt lat="43.855239047125366" lon="11.976497211514332"><ele>466.20000000000005</ele><time>2026-04-14T06:38:12Z</time></trkpt><trkpt lat="43.85534660649694" lon="11.976522442217533"><ele>466.40000000000003</ele><time>2026-04-14T06:38:13Z</time></trkpt><trkpt lat="43.85544890735418" lon="11.97655074932385"><ele>466.6</ele><time>2026-04-14T06:38:14Z</time></trkpt><trkpt lat="43.85554860667169" lon="11.976574945409418"><ele>466.8</ele><time>2026-04-14T06:38:15Z</time></trkpt><trkpt lat="43.855651124067606" lon="11.976603039528394"><ele>467.0</ele><time>2026-04-14T06:38:16Z</time></trkpt><trkpt lat="43.85575012919872" lon="11.976632204262515"><ele>467.0</ele><time>2026-04-14T06:38:17Z</time></trkpt><trkpt lat="43.855850809914806" lon="11.976664543153511"><ele>467.00000000000006</ele><time>2026-04-14T06:38:18Z</time></trkpt><trkpt lat="43.8559542957169" lon="11.976684738805176"><ele>467.00000000000006</ele><time>2026-04-14T06:38:19Z</time></trkpt><trkpt lat="43.85605122052265" lon="11.976706082571853"><ele>467.0</ele><time>2026-04-14T06:38:20Z</time></trkpt><trkpt lat="43.856147932282255" lon="11.976728729059944"><ele>467.0</ele><time>2026-04-14T06:38:21Z</time></trkpt><trkpt lat="43.85624383011768" lon="11.976752380406527"><ele>466.20000000000005</ele><time>2026-04-14T06:38:22Z</time></trkpt><trkpt lat="43.856338224237575" lon="11.976775371963235"><ele>465.40000000000003</ele><time>2026-04-14T06:38:23Z</time></trkpt><trkpt lat="43.85643041773862" lon="11.976799084951033"><ele>464.59999999999997</ele><time>2026-04-14T06:38:24Z</time></trkpt><trkpt lat="43.856522980501914" lon="11.976828719697442"><ele>463.79999999999995</ele><time>2026-04-14T06:38:25Z</time></trkpt><trkpt lat="43.85661041489611" lon="11.976849256747817"><ele>463.0</ele><time>2026-04-14T06:38:26Z</time></trkpt><trkpt lat="43.85670474637501" lon="11.97687877758455"><ele>463.59999999999997</ele><time>2026-04-14T06:38:27Z</time></trkpt><trkpt lat="43.85680006360612" lon="11.976901444438711"><ele>464.19999999999993</ele><time>2026-04-14T06:38:28Z</time></trkpt><trkpt lat="43.85689078252242" lon="11.976927264485475"><ele>464.8</ele><time>2026-04-14T06:38:29Z</time></trkpt><trkpt lat="43.85698054871931" lon="11.976954357455966"><ele>465.4</ele><time>2026-04-14T06:38:30Z</time></trkpt><trkpt lat="43.857066079046724" lon="11.9769781200185"><ele>466.0</ele><time>2026-04-14T06:38:31Z</time></trkpt><trkpt lat="43.857147837776054" lon="11.977001746965414"><ele>466.0</ele><time>2026-04-14T06:38:32Z</time></trkpt><trkpt lat="43.85722003096431" lon="11.977021075574193"><ele>466.0</ele><time>2026-04-14T06:38:33Z</time></trkpt><trkpt lat="43.857332752338124" lon="11.977055194231879"><ele>466.0</ele><time>2026-04-14T06:38:35Z</time></trkpt><trkpt lat="43.85743927468117" lon="11.977085610355184"><ele>466.0</ele><time>2026-04-14T06:38:37Z</time></trkpt><trkpt lat="43.85756198414003" lon="11.977115949315387"><ele>466.0</ele><time>2026-04-14T06:38:39Z</time></trkpt><trkpt lat="43.85763403503421" lon="11.977135239609753"><ele>466.0</ele><time>2026-04-14T06:38:40Z</time></trkpt><trkpt lat="43.8576995433937" lon="11.977144946224366"><ele>466.0</ele><time>2026-04-14T06:38:41Z</time></trkpt><trkpt lat="43.857795456659105" lon="11.977157411801722"><ele>466.0</ele><time>2026-04-14T06:38:43Z</time></trkpt><trkpt lat="43.857873074414144" lon="11.977182061036798"><ele>466.0</ele><time>2026-04-14T06:38:46Z</time></trkpt><trkpt lat="43.8579773292966" lon="11.977215554506396"><ele>466.0</ele><time>2026-04-14T06:38:49Z</time></trkpt><trkpt lat="43.85809496348789" lon="11.977247753424667"><ele>466.00000000000006</ele><time>2026-04-14T06:38:51Z</time></trkpt><trkpt lat="43.858234370964894" lon="11.977255304424425"><ele>466.0</ele><time>2026-04-14T06:38:53Z</time></trkpt><trkpt lat="43.858303773872" lon="11.977257162277706"><ele>466.0</ele><time>2026-04-14T06:38:54Z</time></trkpt><trkpt lat="43.85838127113952" lon="11.977246841469968"><ele>466.0</ele><time>2026-04-14T06:38:55Z</time></trkpt><trkpt lat="43.85845966457717" lon="11.977237439849468"><ele>466.00000000000006</ele><time>2026-04-14T06:38:56Z</time></trkpt><trkpt lat="43.85853327875596" lon="11.977257446106611"><ele>466.0</ele><time>2026-04-14T06:38:57Z</time></trkpt><trkpt lat="43.858603500491824" lon="11.977258367543142"><ele>465.6</ele><time>2026-04-14T06:38:58Z</time></trkpt><trkpt lat="43.85868036860135" lon="11.977259376190192"><ele>465.20000000000005</ele><time>2026-04-14T06:38:59Z</time></trkpt><trkpt lat="43.858763701580884" lon="11.977260469667568"><ele>464.79999999999995</ele><time>2026-04-14T06:39:00Z</time></trkpt><trkpt lat="43.858856429181905" lon="11.977261686414536"><ele>464.4</ele><time>2026-04-14T06:39:01Z</time></trkpt><trkpt lat="43.858956221503405" lon="11.97726249284024"><ele>464.0</ele><time>2026-04-14T06:39:02Z</time></trkpt><trkpt lat="43.85905622266895" lon="11.977245089212934"><ele>464.0</ele><time>2026-04-14T06:39:03Z</time></trkpt><trkpt lat="43.85914912694991" lon="11.977248363530595"><ele>464.0</ele><time>2026-04-14T06:39:04Z</time></trkpt><trkpt lat="43.859241210607614" lon="11.977255958148"><ele>464.0</ele><time>2026-04-14T06:39:05Z</time></trkpt><trkpt lat="43.859327952072604" lon="11.977258667265286"><ele>464.0</ele><time>2026-04-14T06:39:06Z</time></trkpt><trkpt lat="43.859401844516064" lon="11.977258883068844"><ele>464.0</ele><time>2026-04-14T06:39:07Z</time></trkpt><trkpt lat="43.859516939284994" lon="11.977259985219595"><ele>463.79999999999995</ele><time>2026-04-14T06:39:09Z</time></trkpt><trkpt lat="43.85962136887331" lon="11.97725642687126"><ele>463.59999999999997</ele><time>2026-04-14T06:39:11Z</time></trkpt><trkpt lat="43.85970966397191" lon="11.977256850907999"><ele>463.4</ele><time>2026-04-14T06:39:13Z</time></trkpt><trkpt lat="43.85981352286472" lon="11.9772625864811"><ele>463.2</ele><time>2026-04-14T06:39:15Z</time></trkpt><trkpt lat="43.85993926689337" lon="11.977265297967467"><ele>463.0</ele><time>2026-04-14T06:39:17Z</time></trkpt><trkpt lat="43.86001781616433" lon="11.977266752142597"><ele>463.00000000000006</ele><time>2026-04-14T06:39:18Z</time></trkpt><trkpt lat="43.86010520509861" lon="11.977274094355689"><ele>463.0</ele><time>2026-04-14T06:39:19Z</time></trkpt><trkpt lat="43.86018749477652" lon="11.97727778618267"><ele>463.0</ele><time>2026-04-14T06:39:20Z</time></trkpt><trkpt lat="43.86026839618881" lon="11.977281954314899"><ele>463.0</ele><time>2026-04-14T06:39:21Z</time></trkpt><trkpt lat="43.86034770292839" lon="11.977281660534116"><ele>463.00000000000006</ele><time>2026-04-14T06:39:22Z</time></trkpt><trkpt lat="43.86042730998851" lon="11.977284422941292"><ele>463.0</ele><time>2026-04-14T06:39:23Z</time></trkpt><trkpt lat="43.86050607859395" lon="11.977285269288197"><ele>463.1666666666667</ele><time>2026-04-14T06:39:24Z</time></trkpt><trkpt lat="43.86058532243369" lon="11.977288857293248"><ele>463.33333333333337</ele><time>2026-04-14T06:39:25Z</time></trkpt><trkpt lat="43.86066141214225" lon="11.977289705072687"><ele>463.5</ele><time>2026-04-14T06:39:26Z</time></trkpt><trkpt lat="43.86073611949163" lon="11.977286798555598"><ele>463.66666666666663</ele><time>2026-04-14T06:39:27Z</time></trkpt><trkpt lat="43.860813342152866" lon="11.977286089007011"><ele>463.8333333333333</ele><time>2026-04-14T06:39:28Z</time></trkpt><trkpt lat="43.86089208217391" lon="11.977285777252002"><ele>464.0</ele><time>2026-04-14T06:39:29Z</time></trkpt><trkpt lat="43.86097937540882" lon="11.977285046977505"><ele>463.16666666666663</ele><time>2026-04-14T06:39:30Z</time></trkpt><trkpt lat="43.86106566744832" lon="11.9772868346872"><ele>462.3333333333333</ele><time>2026-04-14T06:39:31Z</time></trkpt><trkpt lat="43.86114957215144" lon="11.977290174165834"><ele>461.5</ele><time>2026-04-14T06:39:32Z</time></trkpt><trkpt lat="43.861234585253726" lon="11.977297701871708"><ele>460.66666666666663</ele><time>2026-04-14T06:39:33Z</time></trkpt><trkpt lat="43.86131187299029" lon="11.977300053335968"><ele>459.8333333333333</ele><time>2026-04-14T06:39:34Z</time></trkpt><trkpt lat="43.8613812267203" lon="11.9773044410713"><ele>459.0</ele><time>2026-04-14T06:39:35Z</time></trkpt><trkpt lat="43.86144792212941" lon="11.9773048648156"><ele>459.0</ele><time>2026-04-14T06:39:36Z</time></trkpt><trkpt lat="43.86152176890971" lon="11.977310464836687"><ele>459.0</ele><time>2026-04-14T06:39:37Z</time></trkpt><trkpt lat="43.86160826129174" lon="11.977308863109847"><ele>459.0</ele><time>2026-04-14T06:39:38Z</time></trkpt><trkpt lat="43.86169739175591" lon="11.977303935894136"><ele>459.0</ele><time>2026-04-14T06:39:39Z</time></trkpt><trkpt lat="43.861790040039736" lon="11.977301477588089"><ele>459.0</ele><time>2026-04-14T06:39:40Z</time></trkpt><trkpt lat="43.86189122966124" lon="11.977299551589196"><ele>459.0</ele><time>2026-04-14T06:39:41Z</time></trkpt><trkpt lat="43.86199754091774" lon="11.977301691062666"><ele>459.4</ele><time>2026-04-14T06:39:42Z</time></trkpt><trkpt lat="43.862102492508" lon="11.977307340212963"><ele>459.79999999999995</ele><time>2026-04-14T06:39:43Z</time></trkpt><trkpt lat="43.86221191171162" lon="11.97731125734879"><ele>460.20000000000005</ele><time>2026-04-14T06:39:44Z</time></trkpt><trkpt lat="43.86232146947284" lon="11.977314932672197"><ele>460.6</ele><time>2026-04-14T06:39:45Z</time></trkpt><trkpt lat="43.862428879942726" lon="11.977316778248648"><ele>461.0</ele><time>2026-04-14T06:39:46Z</time></trkpt><trkpt lat="43.86253140446886" lon="11.977315272754145"><ele>461.0</ele><time>2026-04-14T06:39:47Z</time></trkpt><trkpt lat="43.86263926522827" lon="11.977315143516574"><ele>461.0</ele><time>2026-04-14T06:39:48Z</time></trkpt><trkpt lat="43.86275075994629" lon="11.977315077934175"><ele>461.0</ele><time>2026-04-14T06:39:49Z</time></trkpt><trkpt lat="43.86286907362555" lon="11.977319134232806"><ele>461.0</ele><time>2026-04-14T06:39:50Z</time></trkpt><trkpt lat="43.863004026067" lon="11.977311599618083"><ele>461.0</ele><time>2026-04-14T06:39:51Z</time></trkpt><trkpt lat="43.863152538112196" lon="11.977303926673073"><ele>461.0</ele><time>2026-04-14T06:39:52Z</time></trkpt><trkpt lat="43.863309592715" lon="11.977305109612239"><ele>461.0</ele><time>2026-04-14T06:39:53Z</time></trkpt><trkpt lat="43.86346816888302" lon="11.97731472017173"><ele>461.25</ele><time>2026-04-14T06:39:54Z</time></trkpt><trkpt lat="43.8636228496392" lon="11.977327411400548"><ele>461.5</ele><time>2026-04-14T06:39:55Z</time></trkpt><trkpt lat="43.86376577702095" lon="11.977333976609133"><ele>461.75</ele><time>2026-04-14T06:39:56Z</time></trkpt><trkpt lat="43.86390642479971" lon="11.977337198498057"><ele>462.0</ele><time>2026-04-14T06:39:57Z</time></trkpt><trkpt lat="43.86404153082984" lon="11.977337225012894"><ele>462.0</ele><time>2026-04-14T06:39:58Z</time></trkpt><trkpt lat="43.864171618941135" lon="11.977348972230462"><ele>462.0</ele><time>2026-04-14T06:39:59Z</time></trkpt><trkpt lat="43.86429273191002" lon="11.97734739690225"><ele>462.0</ele><time>2026-04-14T06:40:00Z</time></trkpt><trkpt lat="43.86441426324556" lon="11.977348846741316"><ele>462.0</ele><time>2026-04-14T06:40:01Z</time></trkpt><trkpt lat="43.86453766095462" lon="11.977349843092469"><ele>462.5</ele><time>2026-04-14T06:40:02Z</time></trkpt><trkpt lat="43.86465981874227" lon="11.97734993972975"><ele>463.0</ele><time>2026-04-14T06:40:03Z</time></trkpt><trkpt lat="43.86477420497823" lon="11.977355185188452"><ele>463.5</ele><time>2026-04-14T06:40:04Z</time></trkpt><trkpt lat="43.86488829099997" lon="11.977367434168164"><ele>464.0</ele><time>2026-04-14T06:40:05Z</time></trkpt><trkpt lat="43.86500149542653" lon="11.977379142976924"><ele>464.0</ele><time>2026-04-14T06:40:06Z</time></trkpt><trkpt lat="43.86510534464214" lon="11.97743692125441"><ele>464.0</ele><time>2026-04-14T06:40:07Z</time></trkpt><trkpt lat="43.8652035573097" lon="11.977502036726106"><ele>464.0</ele><time>2026-04-14T06:40:08Z</time></trkpt><trkpt lat="43.8653696824712" lon="11.977382794994387"><ele>464.0</ele><time>2026-04-14T06:40:09Z</time></trkpt><trkpt lat="43.865502185173405" lon="11.977371607489411"><ele>465.5</ele><time>2026-04-14T06:40:10Z</time></trkpt><trkpt lat="43.86563530296205" lon="11.977345763275247"><ele>467.0</ele><time>2026-04-14T06:40:11Z</time></trkpt><trkpt lat="43.86577051174105" lon="11.977302023378414"><ele>468.5</ele><time>2026-04-14T06:40:12Z</time></trkpt><trkpt lat="43.86590253141677" lon="11.97723661500784"><ele>470.0</ele><time>2026-04-14T06:40:13Z</time></trkpt><trkpt lat="43.86603450101767" lon="11.97715315824062"><ele>471.3333333333333</ele><time>2026-04-14T06:40:14Z</time></trkpt><trkpt lat="43.866168006544775" lon="11.977065001350493"><ele>472.66666666666663</ele><time>2026-04-14T06:40:15Z</time></trkpt><trkpt lat="43.86630487443523" lon="11.976969265403355"><ele>474.0</ele><time>2026-04-14T06:40:16Z</time></trkpt><trkpt lat="43.86644078034735" lon="11.976871803399401"><ele>474.0</ele><time>2026-04-14T06:40:17Z</time></trkpt><trkpt lat="43.86657597618811" lon="11.976780262314856"><ele>474.0</ele><time>2026-04-14T06:40:18Z</time></trkpt><trkpt lat="43.86671278003002" lon="11.976692420564083"><ele>474.0</ele><time>2026-04-14T06:40:19Z</time></trkpt><trkpt lat="43.86684876711094" lon="11.976602625633294"><ele>476.33333333333337</ele><time>2026-04-14T06:40:20Z</time></trkpt><trkpt lat="43.86698448880002" lon="11.97651186588943"><ele>478.6666666666667</ele><time>2026-04-14T06:40:21Z</time></trkpt><trkpt lat="43.867120714188914" lon="11.976421830313775"><ele>481.0</ele><time>2026-04-14T06:40:22Z</time></trkpt><trkpt lat="43.86726114632988" lon="11.976331951954371"><ele>481.0</ele><time>2026-04-14T06:40:23Z</time></trkpt><trkpt lat="43.867406163694696" lon="11.976238197745838"><ele>481.0</ele><time>2026-04-14T06:40:24Z</time></trkpt><trkpt lat="43.86755515992657" lon="11.976135562921042"><ele>481.0</ele><time>2026-04-14T06:40:25Z</time></trkpt><trkpt lat="43.86770560400741" lon="11.976035650010179"><ele>482.6666666666667</ele><time>2026-04-14T06:40:26Z</time></trkpt><trkpt lat="43.86785841773585" lon="11.975933152063801"><ele>484.33333333333337</ele><time>2026-04-14T06:40:27Z</time></trkpt><trkpt lat="43.86801223630655" lon="11.975831796165066"><ele>486.0</ele><time>2026-04-14T06:40:28Z</time></trkpt><trkpt lat="43.868162453835176" lon="11.975735306518157"><ele>488.0</ele><time>2026-04-14T06:40:29Z</time></trkpt><trkpt lat="43.86831151661702" lon="11.975638982223648"><ele>490.0</ele><time>2026-04-14T06:40:30Z</time></trkpt><trkpt lat="43.868455586180865" lon="11.975543989034335"><ele>492.0</ele><time>2026-04-14T06:40:31Z</time></trkpt><trkpt lat="43.86859994770596" lon="11.975440349476532"><ele>492.25</ele><time>2026-04-14T06:40:32Z</time></trkpt><trkpt lat="43.868740970761365" lon="11.975345146083074"><ele>492.5</ele><time>2026-04-14T06:40:33Z</time></trkpt><trkpt lat="43.868875994718344" lon="11.975256144348315"><ele>492.75</ele><time>2026-04-14T06:40:34Z</time></trkpt><trkpt lat="43.86900367925278" lon="11.975173056302618"><ele>493.0</ele><time>2026-04-14T06:40:35Z</time></trkpt><trkpt lat="43.8691318527696" lon="11.975090575531869"><ele>495.0</ele><time>2026-04-14T06:40:36Z</time></trkpt><trkpt lat="43.869259368006155" lon="11.975010552832753"><ele>497.0</ele><time>2026-04-14T06:40:37Z</time></trkpt><trkpt lat="43.86938742155323" lon="11.974928130839109"><ele>499.0</ele><time>2026-04-14T06:40:38Z</time></trkpt><trkpt lat="43.86950795079617" lon="11.974833907106797"><ele>501.0</ele><time>2026-04-14T06:40:39Z</time></trkpt><trkpt lat="43.86962198269708" lon="11.97471731773903"><ele>502.66666666666663</ele><time>2026-04-14T06:40:40Z</time></trkpt><trkpt lat="43.869724058140434" lon="11.974577903740284"><ele>504.3333333333333</ele><time>2026-04-14T06:40:41Z</time></trkpt><trkpt lat="43.86982445608935" lon="11.974406638054436"><ele>506.0</ele><time>2026-04-14T06:40:42Z</time></trkpt><trkpt lat="43.86992878234775" lon="11.974207404838543"><ele>507.3333333333333</ele><time>2026-04-14T06:40:43Z</time></trkpt><trkpt lat="43.870042035146724" lon="11.97398279274301"><ele>508.66666666666663</ele><time>2026-04-14T06:40:44Z</time></trkpt><trkpt lat="43.87016067261143" lon="11.973746016942478"><ele>510.0</ele><time>2026-04-14T06:40:45Z</time></trkpt><trkpt lat="43.87030740098042" lon="11.973519978700553"><ele>512.5</ele><time>2026-04-14T06:40:46Z</time></trkpt><trkpt lat="43.87045089688977" lon="11.973258196390612"><ele>515.0</ele><time>2026-04-14T06:40:47Z</time></trkpt><trkpt lat="43.87059065854842" lon="11.97299764248566"><ele>515.0</ele><time>2026-04-14T06:40:48Z</time></trkpt><trkpt lat="43.87071748938751" lon="11.972761193948646"><ele>515.0</ele><time>2026-04-14T06:40:49Z</time></trkpt><trkpt lat="43.87083000351855" lon="11.972524063115873"><ele>515.0</ele><time>2026-04-14T06:40:50Z</time></trkpt><trkpt lat="43.8709524048262" lon="11.972305083213937"><ele>517.0</ele><time>2026-04-14T06:40:51Z</time></trkpt><trkpt lat="43.871077517541174" lon="11.972091264827727"><ele>519.0</ele><time>2026-04-14T06:40:52Z</time></trkpt><trkpt lat="43.87120132216921" lon="11.97190532091723"><ele>521.0</ele><time>2026-04-14T06:40:53Z</time></trkpt><trkpt lat="43.871331653181244" lon="11.971751156870711"><ele>522.0</ele><time>2026-04-14T06:40:54Z</time></trkpt><trkpt lat="43.87147690341277" lon="11.971629552793491"><ele>523.0</ele><time>2026-04-14T06:40:55Z</time></trkpt><trkpt lat="43.8716355557152" lon="11.971515152564521"><ele>524.0</ele><time>2026-04-14T06:40:56Z</time></trkpt><trkpt lat="43.8718042280456" lon="11.971407550131698"><ele>525.0</ele><time>2026-04-14T06:40:57Z</time></trkpt><trkpt lat="43.87197186131485" lon="11.971295555402714"><ele>526.0</ele><time>2026-04-14T06:40:58Z</time></trkpt><trkpt lat="43.87213819238494" lon="11.971174802722574"><ele>527.0</ele><time>2026-04-14T06:40:59Z</time></trkpt><trkpt lat="43.87230731104908" lon="11.971053678907904"><ele>527.0</ele><time>2026-04-14T06:41:00Z</time></trkpt><trkpt lat="43.872479931131394" lon="11.970932132028215"><ele>527.0</ele><time>2026-04-14T06:41:01Z</time></trkpt><trkpt lat="43.87265645590631" lon="11.970812436913466"><ele>527.0</ele><time>2026-04-14T06:41:02Z</time></trkpt><trkpt lat="43.8728263852933" lon="11.970695773427181"><ele>530.6666666666666</ele><time>2026-04-14T06:41:03Z</time></trkpt><trkpt lat="43.87298153434696" lon="11.970592056559003"><ele>534.3333333333334</ele><time>2026-04-14T06:41:04Z</time></trkpt><trkpt lat="43.873124958376465" lon="11.970496191911122"><ele>538.0</ele><time>2026-04-14T06:41:05Z</time></trkpt><trkpt lat="43.87325472270204" lon="11.970405954076439"><ele>538.0</ele><time>2026-04-14T06:41:06Z</time></trkpt><trkpt lat="43.87337685651919" lon="11.970317878514859"><ele>538.0</ele><time>2026-04-14T06:41:07Z</time></trkpt><trkpt lat="43.873487150227184" lon="11.970229776082583"><ele>538.0</ele><time>2026-04-14T06:41:08Z</time></trkpt><trkpt lat="43.87358573030974" lon="11.970133015357566"><ele>538.0</ele><time>2026-04-14T06:41:09Z</time></trkpt><trkpt lat="43.87364173662003" lon="11.97001372571833"><ele>539.4</ele><time>2026-04-14T06:41:10Z</time></trkpt><trkpt lat="43.87368238481998" lon="11.969879698459987"><ele>540.8</ele><time>2026-04-14T06:41:11Z</time></trkpt><trkpt lat="43.873697772809045" lon="11.969741051894456"><ele>542.2</ele><time>2026-04-14T06:41:12Z</time></trkpt><trkpt lat="43.873685826437516" lon="11.969603859747465"><ele>543.6</ele><time>2026-04-14T06:41:13Z</time></trkpt><trkpt lat="43.87364188360458" lon="11.969478959252848"><ele>545.0</ele><time>2026-04-14T06:41:14Z</time></trkpt><trkpt lat="43.873567594551005" lon="11.969379027958178"><ele>545.0</ele><time>2026-04-14T06:41:15Z</time></trkpt><trkpt lat="43.873479981000045" lon="11.969293904364527"><ele>545.0</ele><time>2026-04-14T06:41:16Z</time></trkpt><trkpt lat="43.87337289233462" lon="11.969243183575813"><ele>545.0</ele><time>2026-04-14T06:41:17Z</time></trkpt><trkpt lat="43.873252450904744" lon="11.96921458212982"><ele>545.0</ele><time>2026-04-14T06:41:18Z</time></trkpt><trkpt lat="43.87312028133372" lon="11.969193575522295"><ele>546.75</ele><time>2026-04-14T06:41:19Z</time></trkpt><trkpt lat="43.87298985414373" lon="11.969165542329941"><ele>548.5</ele><time>2026-04-14T06:41:20Z</time></trkpt><trkpt lat="43.87285707733843" lon="11.969137634324975"><ele>550.25</ele><time>2026-04-14T06:41:21Z</time></trkpt><trkpt lat="43.87272743730011" lon="11.969114209477913"><ele>552.0</ele><time>2026-04-14T06:41:22Z</time></trkpt><trkpt lat="43.872606633358" lon="11.969097036280065"><ele>552.8333333333334</ele><time>2026-04-14T06:41:23Z</time></trkpt><trkpt lat="43.87250168006242" lon="11.969095681922422"><ele>553.6666666666666</ele><time>2026-04-14T06:41:24Z</time></trkpt><trkpt lat="43.872406786715224" lon="11.969104936648128"><ele>554.5</ele><time>2026-04-14T06:41:25Z</time></trkpt><trkpt lat="43.872326177828626" lon="11.969100169904836"><ele>555.3333333333333</ele><time>2026-04-14T06:41:26Z</time></trkpt><trkpt lat="43.872257723737945" lon="11.96907409833228"><ele>556.1666666666666</ele><time>2026-04-14T06:41:27Z</time></trkpt><trkpt lat="43.87221104306069" lon="11.969003734684035"><ele>557.0</ele><time>2026-04-14T06:41:28Z</time></trkpt><trkpt lat="43.87219673991457" lon="11.968912482441034"><ele>557.0</ele><time>2026-04-14T06:41:29Z</time></trkpt><trkpt lat="43.87223177674924" lon="11.96883051105066"><ele>557.0</ele><time>2026-04-14T06:41:30Z</time></trkpt><trkpt lat="43.87229875880956" lon="11.968772293999923"><ele>557.0</ele><time>2026-04-14T06:41:31Z</time></trkpt><trkpt lat="43.87238509109015" lon="11.968724506838251"><ele>557.0</ele><time>2026-04-14T06:41:32Z</time></trkpt><trkpt lat="43.87248753252734" lon="11.96866818636272"><ele>557.0</ele><time>2026-04-14T06:41:33Z</time></trkpt><trkpt lat="43.87260696161416" lon="11.968600611606472"><ele>555.3333333333333</ele><time>2026-04-14T06:41:34Z</time></trkpt><trkpt lat="43.87274691724767" lon="11.968522477556636"><ele>553.6666666666666</ele><time>2026-04-14T06:41:35Z</time></trkpt><trkpt lat="43.872889578192485" lon="11.968434901764876"><ele>552.0</ele><time>2026-04-14T06:41:36Z</time></trkpt><trkpt lat="43.87302987371511" lon="11.968357201792182"><ele>555.25</ele><time>2026-04-14T06:41:37Z</time></trkpt><trkpt lat="43.873166742204994" lon="11.968286851374746"><ele>558.5</ele><time>2026-04-14T06:41:38Z</time></trkpt><trkpt lat="43.87329714864738" lon="11.968221911048065"><ele>561.75</ele><time>2026-04-14T06:41:39Z</time></trkpt><trkpt lat="43.873415606976636" lon="11.968148166105156"><ele>565.0</ele><time>2026-04-14T06:41:40Z</time></trkpt><trkpt lat="43.87351581993009" lon="11.968043340022763"><ele>565.4</ele><time>2026-04-14T06:41:41Z</time></trkpt><trkpt lat="43.87359032332088" lon="11.967919891224604"><ele>565.8</ele><time>2026-04-14T06:41:42Z</time></trkpt><trkpt lat="43.87363249088913" lon="11.967783875953689"><ele>566.2</ele><time>2026-04-14T06:41:43Z</time></trkpt><trkpt lat="43.87363616314391" lon="11.967642921301646"><ele>566.6</ele><time>2026-04-14T06:41:44Z</time></trkpt><trkpt lat="43.87360588448291" lon="11.96750404695659"><ele>567.0</ele><time>2026-04-14T06:41:45Z</time></trkpt><trkpt lat="43.87354884207584" lon="11.967363110630655"><ele>569.0</ele><time>2026-04-14T06:41:46Z</time></trkpt><trkpt lat="43.87346568933478" lon="11.967233633623795"><ele>571.0</ele><time>2026-04-14T06:41:47Z</time></trkpt><trkpt lat="43.87337110370709" lon="11.96711619005243"><ele>573.0</ele><time>2026-04-14T06:41:48Z</time></trkpt><trkpt lat="43.87327619220693" lon="11.967005958956179"><ele>575.0</ele><time>2026-04-14T06:41:49Z</time></trkpt><trkpt lat="43.873200580711284" lon="11.966903588305192"><ele>575.0</ele><time>2026-04-14T06:41:50Z</time></trkpt><trkpt lat="43.873143656046956" lon="11.9668067258944"><ele>575.0</ele><time>2026-04-14T06:41:51Z</time></trkpt><trkpt lat="43.87313689607604" lon="11.966704073070686"><ele>575.0</ele><time>2026-04-14T06:41:52Z</time></trkpt><trkpt lat="43.873177253653694" lon="11.966628555883585"><ele>575.0</ele><time>2026-04-14T06:41:53Z</time></trkpt><trkpt lat="43.873236384357625" lon="11.966576282105057"><ele>575.0</ele><time>2026-04-14T06:41:54Z</time></trkpt><trkpt lat="43.87331668780652" lon="11.966573549022156"><ele>575.0</ele><time>2026-04-14T06:41:55Z</time></trkpt><trkpt lat="43.87340098107056" lon="11.966612008709463"><ele>576.6</ele><time>2026-04-14T06:41:56Z</time></trkpt><trkpt lat="43.87348615199462" lon="11.96667476126835"><ele>578.2</ele><time>2026-04-14T06:41:57Z</time></trkpt><trkpt lat="43.87357973634495" lon="11.96675424274865"><ele>579.8</ele><time>2026-04-14T06:41:58Z</time></trkpt><trkpt lat="43.87369190920783" lon="11.966802097362972"><ele>581.4</ele><time>2026-04-14T06:41:59Z</time></trkpt><trkpt lat="43.8738076741692" lon="11.966809504344686"><ele>583.0</ele><time>2026-04-14T06:42:00Z</time></trkpt><trkpt lat="43.87392822620437" lon="11.96677098584378"><ele>583.0</ele><time>2026-04-14T06:42:01Z</time></trkpt><trkpt lat="43.874060216018485" lon="11.966718178316045"><ele>583.0</ele><time>2026-04-14T06:42:02Z</time></trkpt><trkpt lat="43.87419563141093" lon="11.96665286958402"><ele>583.0</ele><time>2026-04-14T06:42:03Z</time></trkpt><trkpt lat="43.87431912589927" lon="11.966567527341548"><ele>583.0</ele><time>2026-04-14T06:42:04Z</time></trkpt><trkpt lat="43.87442101991345" lon="11.966466489502714"><ele>586.1999999999999</ele><time>2026-04-14T06:42:05Z</time></trkpt><trkpt lat="43.87449422598346" lon="11.966350222656068"><ele>589.4</ele><time>2026-04-14T06:42:06Z</time></trkpt><trkpt lat="43.87453777613287" lon="11.966218662197477"><ele>592.5999999999999</ele><time>2026-04-14T06:42:07Z</time></trkpt><trkpt lat="43.87454366869203" lon="11.966070739129592"><ele>595.8</ele><time>2026-04-14T06:42:08Z</time></trkpt><trkpt lat="43.874520445718645" lon="11.965908007367181"><ele>599.0</ele><time>2026-04-14T06:42:09Z</time></trkpt><trkpt lat="43.87450900006721" lon="11.965746874133847"><ele>600.0</ele><time>2026-04-14T06:42:10Z</time></trkpt><trkpt lat="43.874538649440304" lon="11.9656106275144"><ele>601.0</ele><time>2026-04-14T06:42:11Z</time></trkpt><trkpt lat="43.874604330343075" lon="11.965516357569367"><ele>602.0</ele><time>2026-04-14T06:42:12Z</time></trkpt><trkpt lat="43.874703233479345" lon="11.965486002013819"><ele>603.0</ele><time>2026-04-14T06:42:13Z</time></trkpt><trkpt lat="43.874804680697515" lon="11.965397504584553"><ele>604.0</ele><time>2026-04-14T06:42:14Z</time></trkpt><trkpt lat="43.87491059151781" lon="11.965321551719246"><ele>604.0</ele><time>2026-04-14T06:42:15Z</time></trkpt><trkpt lat="43.87499044939223" lon="11.96520707029402"><ele>604.0</ele><time>2026-04-14T06:42:16Z</time></trkpt><trkpt lat="43.87505831604569" lon="11.96508324636582"><ele>604.0</ele><time>2026-04-14T06:42:17Z</time></trkpt><trkpt lat="43.875128847205474" lon="11.964976151202588"><ele>604.0</ele><time>2026-04-14T06:42:18Z</time></trkpt><trkpt lat="43.87522276449009" lon="11.964928265977946"><ele>604.0</ele><time>2026-04-14T06:42:19Z</time></trkpt><trkpt lat="43.8753337044538" lon="11.964923303419445"><ele>607.2</ele><time>2026-04-14T06:42:20Z</time></trkpt><trkpt lat="43.87544247466528" lon="11.964909647367657"><ele>610.4</ele><time>2026-04-14T06:42:21Z</time></trkpt><trkpt lat="43.875535525571465" lon="11.964851187589629"><ele>613.6</ele><time>2026-04-14T06:42:22Z</time></trkpt><trkpt lat="43.875605160293844" lon="11.964748676585911"><ele>616.8</ele><time>2026-04-14T06:42:23Z</time></trkpt><trkpt lat="43.87566280482301" lon="11.964611153408605"><ele>620.0</ele><time>2026-04-14T06:42:24Z</time></trkpt><trkpt lat="43.87572521034291" lon="11.964463824985918"><ele>620.0</ele><time>2026-04-14T06:42:25Z</time></trkpt><trkpt lat="43.87581088245324" lon="11.96432118401816"><ele>620.0</ele><time>2026-04-14T06:42:26Z</time></trkpt><trkpt lat="43.87591824456285" lon="11.96416896984197"><ele>620.0</ele><time>2026-04-14T06:42:27Z</time></trkpt><trkpt lat="43.87601891777108" lon="11.964019333519563"><ele>620.0</ele><time>2026-04-14T06:42:28Z</time></trkpt><trkpt lat="43.87610543211937" lon="11.9638895042441"><ele>624.2</ele><time>2026-04-14T06:42:29Z</time></trkpt><trkpt lat="43.87618402560605" lon="11.963764134124474"><ele>628.4</ele><time>2026-04-14T06:42:30Z</time></trkpt><trkpt lat="43.87625551850056" lon="11.963655496507565"><ele>632.5999999999999</ele><time>2026-04-14T06:42:31Z</time></trkpt><trkpt lat="43.87632523296531" lon="11.963575384299988"><ele>636.8</ele><time>2026-04-14T06:42:32Z</time></trkpt><trkpt lat="43.87639321164443" lon="11.96354481618238"><ele>641.0</ele><time>2026-04-14T06:42:33Z</time></trkpt><trkpt lat="43.87646130986687" lon="11.96363599752768"><ele>641.0</ele><time>2026-04-14T06:42:35Z</time></trkpt><trkpt lat="43.876384415426124" lon="11.963757164680844"><ele>641.0</ele><time>2026-04-14T06:42:37Z</time></trkpt><trkpt lat="43.87631710249853" lon="11.963847665440792"><ele>641.0</ele><time>2026-04-14T06:42:38Z</time></trkpt><trkpt lat="43.87627748398534" lon="11.963942318787243"><ele>641.0</ele><time>2026-04-14T06:42:39Z</time></trkpt><trkpt lat="43.876270004618355" lon="11.964044861561144"><ele>641.0</ele><time>2026-04-14T06:42:40Z</time></trkpt><trkpt lat="43.87631480915728" lon="11.96413774425939"><ele>641.0</ele><time>2026-04-14T06:42:41Z</time></trkpt><trkpt lat="43.87640651380479" lon="11.964164566387986"><ele>641.0</ele><time>2026-04-14T06:42:42Z</time></trkpt><trkpt lat="43.87650701945186" lon="11.964193383379012"><ele>641.0</ele><time>2026-04-14T06:42:43Z</time></trkpt><trkpt lat="43.876624446197106" lon="11.96421808139426"><ele>641.0</ele><time>2026-04-14T06:42:44Z</time></trkpt><trkpt lat="43.8767592574982" lon="11.964243188484781"><ele>641.0</ele><time>2026-04-14T06:42:45Z</time></trkpt><trkpt lat="43.87688843121216" lon="11.964272418184924"><ele>642.4</ele><time>2026-04-14T06:42:46Z</time></trkpt><trkpt lat="43.87700450661862" lon="11.964302938418232"><ele>643.8</ele><time>2026-04-14T06:42:47Z</time></trkpt><trkpt lat="43.877108692143" lon="11.96431950249527"><ele>645.1999999999999</ele><time>2026-04-14T06:42:48Z</time></trkpt><trkpt lat="43.877203269392865" lon="11.964315439722458"><ele>646.5999999999999</ele><time>2026-04-14T06:42:49Z</time></trkpt><trkpt lat="43.8772801964861" lon="11.964269082049677"><ele>648.0</ele><time>2026-04-14T06:42:50Z</time></trkpt><trkpt lat="43.87731870152894" lon="11.964167737071874"><ele>648.0</ele><time>2026-04-14T06:42:51Z</time></trkpt><trkpt lat="43.877302722718376" lon="11.964030873051422"><ele>648.0</ele><time>2026-04-14T06:42:52Z</time></trkpt><trkpt lat="43.87726729318528" lon="11.963902381075084"><ele>648.0</ele><time>2026-04-14T06:42:53Z</time></trkpt><trkpt lat="43.877217354650014" lon="11.963756575617962"><ele>648.0</ele><time>2026-04-14T06:42:54Z</time></trkpt><trkpt lat="43.87717990481665" lon="11.963634021262916"><ele>648.0</ele><time>2026-04-14T06:42:55Z</time></trkpt><trkpt lat="43.87718261347278" lon="11.963533133165315"><ele>648.0</ele><time>2026-04-14T06:42:56Z</time></trkpt><trkpt lat="43.87727370839613" lon="11.963417201697402"><ele>648.0</ele><time>2026-04-14T06:42:58Z</time></trkpt><trkpt lat="43.877349215739414" lon="11.963440200388064"><ele>648.0</ele><time>2026-04-14T06:42:59Z</time></trkpt><trkpt lat="43.87742564743171" lon="11.96350392067273"><ele>648.0</ele><time>2026-04-14T06:43:00Z</time></trkpt><trkpt lat="43.877509894780445" lon="11.96358058171692"><ele>648.0</ele><time>2026-04-14T06:43:01Z</time></trkpt><trkpt lat="43.87760861464618" lon="11.963652752112308"><ele>646.75</ele><time>2026-04-14T06:43:02Z</time></trkpt><trkpt lat="43.87772447228277" lon="11.96368118839548"><ele>645.5</ele><time>2026-04-14T06:43:03Z</time></trkpt><trkpt lat="43.87785933692033" lon="11.963669676188484"><ele>644.25</ele><time>2026-04-14T06:43:04Z</time></trkpt><trkpt lat="43.87799741466412" lon="11.963615715458157"><ele>643.0</ele><time>2026-04-14T06:43:05Z</time></trkpt><trkpt lat="43.8781263330581" lon="11.963542183259191"><ele>643.0</ele><time>2026-04-14T06:43:06Z</time></trkpt><trkpt lat="43.87824994410514" lon="11.963477860370055"><ele>643.0</ele><time>2026-04-14T06:43:07Z</time></trkpt><trkpt lat="43.878359331388644" lon="11.96341177866973"><ele>643.0</ele><time>2026-04-14T06:43:08Z</time></trkpt><trkpt lat="43.87845307177262" lon="11.963318399044864"><ele>643.0</ele><time>2026-04-14T06:43:09Z</time></trkpt><trkpt lat="43.878527900023094" lon="11.963189993069205"><ele>647.0</ele><time>2026-04-14T06:43:10Z</time></trkpt><trkpt lat="43.878577373367335" lon="11.963043752139335"><ele>651.0</ele><time>2026-04-14T06:43:11Z</time></trkpt><trkpt lat="43.87861037680283" lon="11.962874584697586"><ele>655.0</ele><time>2026-04-14T06:43:12Z</time></trkpt><trkpt lat="43.878663493532265" lon="11.962731072419654"><ele>659.0</ele><time>2026-04-14T06:43:13Z</time></trkpt><trkpt lat="43.878746299791885" lon="11.962615167641054"><ele>659.0</ele><time>2026-04-14T06:43:14Z</time></trkpt><trkpt lat="43.878852179223514" lon="11.962545925098544"><ele>659.0</ele><time>2026-04-14T06:43:15Z</time></trkpt><trkpt lat="43.878974512525225" lon="11.9625143798045"><ele>659.0</ele><time>2026-04-14T06:43:16Z</time></trkpt><trkpt lat="43.879104898777484" lon="11.962476600512636"><ele>659.0</ele><time>2026-04-14T06:43:17Z</time></trkpt><trkpt lat="43.879232066148525" lon="11.962412127857021"><ele>660.0</ele><time>2026-04-14T06:43:18Z</time></trkpt><trkpt lat="43.87932231460643" lon="11.962312225654074"><ele>661.0</ele><time>2026-04-14T06:43:19Z</time></trkpt><trkpt lat="43.87938648619217" lon="11.96217660197776"><ele>662.0</ele><time>2026-04-14T06:43:20Z</time></trkpt><trkpt lat="43.879441448055445" lon="11.962015439520759"><ele>663.0</ele><time>2026-04-14T06:43:21Z</time></trkpt><trkpt lat="43.87949607803067" lon="11.96185350191718"><ele>663.0</ele><time>2026-04-14T06:43:22Z</time></trkpt><trkpt lat="43.879567733974326" lon="11.961733138516433"><ele>663.0</ele><time>2026-04-14T06:43:23Z</time></trkpt><trkpt lat="43.87966827975256" lon="11.961656461367202"><ele>663.0</ele><time>2026-04-14T06:43:24Z</time></trkpt><trkpt lat="43.879784882465806" lon="11.961630232961506"><ele>663.0</ele><time>2026-04-14T06:43:25Z</time></trkpt><trkpt lat="43.87990664819222" lon="11.961634929073533"><ele>666.75</ele><time>2026-04-14T06:43:26Z</time></trkpt><trkpt lat="43.88003170404207" lon="11.961619685178329"><ele>670.5</ele><time>2026-04-14T06:43:27Z</time></trkpt><trkpt lat="43.88014911098332" lon="11.961557697598304"><ele>674.25</ele><time>2026-04-14T06:43:28Z</time></trkpt><trkpt lat="43.88025327386542" lon="11.961460180209517"><ele>678.0</ele><time>2026-04-14T06:43:29Z</time></trkpt><trkpt lat="43.88034131805552" lon="11.961322358454252"><ele>678.0</ele><time>2026-04-14T06:43:30Z</time></trkpt><trkpt lat="43.880429310495096" lon="11.961184432841275"><ele>678.0</ele><time>2026-04-14T06:43:31Z</time></trkpt><trkpt lat="43.880543522181306" lon="11.961080143202473"><ele>678.0</ele><time>2026-04-14T06:43:32Z</time></trkpt><trkpt lat="43.8806771604276" lon="11.960987638339429"><ele>678.0</ele><time>2026-04-14T06:43:33Z</time></trkpt><trkpt lat="43.880813279168365" lon="11.960881378627139"><ele>682.25</ele><time>2026-04-14T06:43:34Z</time></trkpt><trkpt lat="43.880942816909794" lon="11.960763155204038"><ele>686.5</ele><time>2026-04-14T06:43:35Z</time></trkpt><trkpt lat="43.88106314948698" lon="11.960651444671544"><ele>690.75</ele><time>2026-04-14T06:43:36Z</time></trkpt><trkpt lat="43.88119364608331" lon="11.960590659275073"><ele>695.0</ele><time>2026-04-14T06:43:37Z</time></trkpt><trkpt lat="43.881330915767556" lon="11.960580820361752"><ele>695.0</ele><time>2026-04-14T06:43:38Z</time></trkpt><trkpt lat="43.88147936744029" lon="11.960572166843445"><ele>695.0</ele><time>2026-04-14T06:43:39Z</time></trkpt><trkpt lat="43.881624832403155" lon="11.960535992473249"><ele>695.0</ele><time>2026-04-14T06:43:40Z</time></trkpt><trkpt lat="43.88175373192703" lon="11.960456092426448"><ele>695.0</ele><time>2026-04-14T06:43:41Z</time></trkpt><trkpt lat="43.8818641986005" lon="11.960350061739042"><ele>696.75</ele><time>2026-04-14T06:43:42Z</time></trkpt><trkpt lat="43.88195356023057" lon="11.960224368971506"><ele>698.5</ele><time>2026-04-14T06:43:43Z</time></trkpt><trkpt lat="43.88202343571732" lon="11.960072204673706"><ele>700.25</ele><time>2026-04-14T06:43:44Z</time></trkpt><trkpt lat="43.88209045153016" lon="11.959939916780856"><ele>702.0</ele><time>2026-04-14T06:43:45Z</time></trkpt><trkpt lat="43.882177432918006" lon="11.959848560377413"><ele>704.5</ele><time>2026-04-14T06:43:46Z</time></trkpt><trkpt lat="43.88230009937795" lon="11.959841157849967"><ele>707.0</ele><time>2026-04-14T06:43:47Z</time></trkpt><trkpt lat="43.88243586517035" lon="11.959835981637367"><ele>709.5</ele><time>2026-04-14T06:43:48Z</time></trkpt><trkpt lat="43.88258719354687" lon="11.959820145553302"><ele>712.0</ele><time>2026-04-14T06:43:49Z</time></trkpt><trkpt lat="43.8827505855736" lon="11.959822914691529"><ele>715.3333333333334</ele><time>2026-04-14T06:43:50Z</time></trkpt><trkpt lat="43.882925247440326" lon="11.959818662914556"><ele>718.6666666666666</ele><time>2026-04-14T06:43:51Z</time></trkpt><trkpt lat="43.88308776902727" lon="11.959800191828897"><ele>722.0</ele><time>2026-04-14T06:43:52Z</time></trkpt><trkpt lat="43.883226067604774" lon="11.959786701999532"><ele>722.0</ele><time>2026-04-14T06:43:53Z</time></trkpt><trkpt lat="43.883350270755486" lon="11.959770730179486"><ele>722.0</ele><time>2026-04-14T06:43:54Z</time></trkpt><trkpt lat="43.88347307400271" lon="11.95978728176776"><ele>722.0</ele><time>2026-04-14T06:43:55Z</time></trkpt><trkpt lat="43.88359634645353" lon="11.959854706622236"><ele>722.0</ele><time>2026-04-14T06:43:56Z</time></trkpt><trkpt lat="43.88373162328776" lon="11.95990791060224"><ele>722.75</ele><time>2026-04-14T06:43:57Z</time></trkpt><trkpt lat="43.88387629240407" lon="11.959950848192328"><ele>723.5</ele><time>2026-04-14T06:43:58Z</time></trkpt><trkpt lat="43.884021343860326" lon="11.960006734045125"><ele>724.25</ele><time>2026-04-14T06:43:59Z</time></trkpt><trkpt lat="43.884152649551055" lon="11.960061840280966"><ele>725.0</ele><time>2026-04-14T06:44:00Z</time></trkpt><trkpt lat="43.884271396304825" lon="11.960126903025293"><ele>727.6</ele><time>2026-04-14T06:44:01Z</time></trkpt><trkpt lat="43.884370570732706" lon="11.960214998718717"><ele>730.2</ele><time>2026-04-14T06:44:02Z</time></trkpt><trkpt lat="43.884443212871446" lon="11.960344535973714"><ele>732.8</ele><time>2026-04-14T06:44:03Z</time></trkpt><trkpt lat="43.884482531296726" lon="11.960492311898836"><ele>735.4</ele><time>2026-04-14T06:44:04Z</time></trkpt><trkpt lat="43.88450551843361" lon="11.960626066180946"><ele>738.0</ele><time>2026-04-14T06:44:05Z</time></trkpt><trkpt lat="43.88453918560791" lon="11.960726051465354"><ele>738.0</ele><time>2026-04-14T06:44:06Z</time></trkpt><trkpt lat="43.88460708844507" lon="11.960789710028292"><ele>738.0</ele><time>2026-04-14T06:44:07Z</time></trkpt><trkpt lat="43.88468547364376" lon="11.96079959415241"><ele>738.0</ele><time>2026-04-14T06:44:08Z</time></trkpt><trkpt lat="43.884761356083494" lon="11.960768441578361"><ele>738.0</ele><time>2026-04-14T06:44:09Z</time></trkpt><trkpt lat="43.88483456984539" lon="11.960698261011935"><ele>738.0</ele><time>2026-04-14T06:44:10Z</time></trkpt><trkpt lat="43.88491427823678" lon="11.96059040546582"><ele>738.0</ele><time>2026-04-14T06:44:11Z</time></trkpt><trkpt lat="43.884997044124745" lon="11.960468456755898"><ele>738.0</ele><time>2026-04-14T06:44:12Z</time></trkpt><trkpt lat="43.885082461567954" lon="11.960349596751744"><ele>738.0</ele><time>2026-04-14T06:44:13Z</time></trkpt><trkpt lat="43.88514698468699" lon="11.960242401221993"><ele>738.0</ele><time>2026-04-14T06:44:14Z</time></trkpt><trkpt lat="43.885185417693855" lon="11.96012143977814"><ele>738.0</ele><time>2026-04-14T06:44:15Z</time></trkpt><trkpt lat="43.88518095533447" lon="11.959988991160179"><ele>738.0</ele><time>2026-04-14T06:44:16Z</time></trkpt><trkpt lat="43.885139605597544" lon="11.959855512021903"><ele>740.75</ele><time>2026-04-14T06:44:17Z</time></trkpt><trkpt lat="43.88507176846099" lon="11.959742496683093"><ele>743.5</ele><time>2026-04-14T06:44:18Z</time></trkpt><trkpt lat="43.884972836074496" lon="11.959627808242134"><ele>746.25</ele><time>2026-04-14T06:44:19Z</time></trkpt><trkpt lat="43.88485949039416" lon="11.959500359738225"><ele>749.0</ele><time>2026-04-14T06:44:20Z</time></trkpt><trkpt lat="43.88473346307534" lon="11.959353613284534"><ele>749.0</ele><time>2026-04-14T06:44:21Z</time></trkpt><trkpt lat="43.884638827855944" lon="11.959211194939211"><ele>749.0</ele><time>2026-04-14T06:44:22Z</time></trkpt><trkpt lat="43.88453529188561" lon="11.959098039251911"><ele>749.0</ele><time>2026-04-14T06:44:23Z</time></trkpt><trkpt lat="43.88444439158858" lon="11.958977097348555"><ele>749.0</ele><time>2026-04-14T06:44:24Z</time></trkpt><trkpt lat="43.88435901098274" lon="11.958836256197158"><ele>748.6666666666666</ele><time>2026-04-14T06:44:25Z</time></trkpt><trkpt lat="43.88428232799085" lon="11.958670507364525"><ele>748.3333333333334</ele><time>2026-04-14T06:44:26Z</time></trkpt><trkpt lat="43.88423732760475" lon="11.958465193979118"><ele>748.0</ele><time>2026-04-14T06:44:27Z</time></trkpt><trkpt lat="43.884182429915484" lon="11.95826174309765"><ele>750.0</ele><time>2026-04-14T06:44:28Z</time></trkpt><trkpt lat="43.884123194353094" lon="11.958102248231013"><ele>752.0</ele><time>2026-04-14T06:44:29Z</time></trkpt><trkpt lat="43.88409192251042" lon="11.957960562442594"><ele>754.0</ele><time>2026-04-14T06:44:30Z</time></trkpt><trkpt lat="43.88407882751103" lon="11.957833766394614"><ele>756.0</ele><time>2026-04-14T06:44:31Z</time></trkpt><trkpt lat="43.88410573363755" lon="11.957741709608111"><ele>758.0</ele><time>2026-04-14T06:44:32Z</time></trkpt><trkpt lat="43.8841603941111" lon="11.957669366847073"><ele>758.0</ele><time>2026-04-14T06:44:33Z</time></trkpt><trkpt lat="43.88424450177468" lon="11.9576370813224"><ele>758.0</ele><time>2026-04-14T06:44:34Z</time></trkpt><trkpt lat="43.884335291576434" lon="11.957662199543325"><ele>758.0</ele><time>2026-04-14T06:44:35Z</time></trkpt><trkpt lat="43.884404712990545" lon="11.957780578468189"><ele>758.0</ele><time>2026-04-14T06:44:36Z</time></trkpt><trkpt lat="43.88448377576112" lon="11.957897861701039"><ele>758.0</ele><time>2026-04-14T06:44:37Z</time></trkpt><trkpt lat="43.88458207710334" lon="11.958029912423488"><ele>758.6666666666666</ele><time>2026-04-14T06:44:38Z</time></trkpt><trkpt lat="43.88470657228857" lon="11.95820352722762"><ele>759.3333333333334</ele><time>2026-04-14T06:44:39Z</time></trkpt><trkpt lat="43.884837336496474" lon="11.958352304222458"><ele>760.0</ele><time>2026-04-14T06:44:40Z</time></trkpt><trkpt lat="43.88498004895463" lon="11.95848572577623"><ele>763.3333333333334</ele><time>2026-04-14T06:44:41Z</time></trkpt><trkpt lat="43.88511684259768" lon="11.958615248684918"><ele>766.6666666666667</ele><time>2026-04-14T06:44:42Z</time></trkpt><trkpt lat="43.885249625912216" lon="11.958741431391235"><ele>770.0</ele><time>2026-04-14T06:44:43Z</time></trkpt><trkpt lat="43.88537191789399" lon="11.958867470512521"><ele>770.0</ele><time>2026-04-14T06:44:44Z</time></trkpt><trkpt lat="43.885487767082424" lon="11.958984930007333"><ele>770.0</ele><time>2026-04-14T06:44:45Z</time></trkpt><trkpt lat="43.885596683115224" lon="11.959092794472014"><ele>770.0</ele><time>2026-04-14T06:44:46Z</time></trkpt><trkpt lat="43.885704170058524" lon="11.959193775950514"><ele>770.0</ele><time>2026-04-14T06:44:47Z</time></trkpt><trkpt lat="43.88581421485689" lon="11.959275674274503"><ele>772.75</ele><time>2026-04-14T06:44:48Z</time></trkpt><trkpt lat="43.88593282475227" lon="11.959318736942452"><ele>775.5</ele><time>2026-04-14T06:44:49Z</time></trkpt><trkpt lat="43.88605124196408" lon="11.959315925293344"><ele>778.25</ele><time>2026-04-14T06:44:50Z</time></trkpt><trkpt lat="43.886167412032876" lon="11.95927205983726"><ele>781.0</ele><time>2026-04-14T06:44:51Z</time></trkpt><trkpt lat="43.88626902130602" lon="11.959177892501014"><ele>781.0</ele><time>2026-04-14T06:44:52Z</time></trkpt><trkpt lat="43.88636711850634" lon="11.959051276426832"><ele>781.0</ele><time>2026-04-14T06:44:53Z</time></trkpt><trkpt lat="43.886464438094535" lon="11.958899855974101"><ele>781.0</ele><time>2026-04-14T06:44:54Z</time></trkpt><trkpt lat="43.886578714115096" lon="11.958776127969312"><ele>781.0</ele><time>2026-04-14T06:44:55Z</time></trkpt><trkpt lat="43.88670565014447" lon="11.958680820723679"><ele>783.75</ele><time>2026-04-14T06:44:56Z</time></trkpt><trkpt lat="43.886839942862906" lon="11.958601910527983"><ele>786.5</ele><time>2026-04-14T06:44:57Z</time></trkpt><trkpt lat="43.8869778976364" lon="11.95854183079833"><ele>789.25</ele><time>2026-04-14T06:44:58Z</time></trkpt><trkpt lat="43.88712166423234" lon="11.958507693828924"><ele>792.0</ele><time>2026-04-14T06:44:59Z</time></trkpt><trkpt lat="43.88727244089096" lon="11.958506879449118"><ele>792.0</ele><time>2026-04-14T06:45:00Z</time></trkpt><trkpt lat="43.8874181434607" lon="11.958537036804154"><ele>792.0</ele><time>2026-04-14T06:45:01Z</time></trkpt><trkpt lat="43.88756075458059" lon="11.958576513634208"><ele>792.0</ele><time>2026-04-14T06:45:02Z</time></trkpt><trkpt lat="43.8876965237285" lon="11.95860529458077"><ele>792.0</ele><time>2026-04-14T06:45:03Z</time></trkpt><trkpt lat="43.887820160313346" lon="11.958604647296587"><ele>791.25</ele><time>2026-04-14T06:45:04Z</time></trkpt><trkpt lat="43.887933834320165" lon="11.958569798547057"><ele>790.5</ele><time>2026-04-14T06:45:05Z</time></trkpt><trkpt lat="43.8880465061965" lon="11.958497552650776"><ele>789.75</ele><time>2026-04-14T06:45:06Z</time></trkpt><trkpt lat="43.88815754081124" lon="11.958391969933581"><ele>789.0</ele><time>2026-04-14T06:45:07Z</time></trkpt><trkpt lat="43.8882665636563" lon="11.958266112031929"><ele>789.0</ele><time>2026-04-14T06:45:08Z</time></trkpt><trkpt lat="43.88837288935925" lon="11.958129306379604"><ele>789.0</ele><time>2026-04-14T06:45:09Z</time></trkpt><trkpt lat="43.88847061600073" lon="11.957961617700736"><ele>789.0</ele><time>2026-04-14T06:45:10Z</time></trkpt><trkpt lat="43.88855773178125" lon="11.957786186996312"><ele>790.0</ele><time>2026-04-14T06:45:11Z</time></trkpt><trkpt lat="43.88862838899126" lon="11.957601341730614"><ele>791.0</ele><time>2026-04-14T06:45:12Z</time></trkpt><trkpt lat="43.88868714735351" lon="11.957410596759606"><ele>792.0</ele><time>2026-04-14T06:45:13Z</time></trkpt><trkpt lat="43.88873035051679" lon="11.957215955943829"><ele>793.0</ele><time>2026-04-14T06:45:14Z</time></trkpt><trkpt lat="43.88875861284309" lon="11.957023777646514"><ele>793.0</ele><time>2026-04-14T06:45:15Z</time></trkpt><trkpt lat="43.88878760854183" lon="11.956829711181173"><ele>793.0</ele><time>2026-04-14T06:45:16Z</time></trkpt><trkpt lat="43.888834811926735" lon="11.956641158510845"><ele>793.0</ele><time>2026-04-14T06:45:17Z</time></trkpt><trkpt lat="43.88889070570397" lon="11.956460670481974"><ele>793.0</ele><time>2026-04-14T06:45:18Z</time></trkpt><trkpt lat="43.88894117793647" lon="11.95628295109701"><ele>792.75</ele><time>2026-04-14T06:45:19Z</time></trkpt><trkpt lat="43.88899222189496" lon="11.95610861460118"><ele>792.5</ele><time>2026-04-14T06:45:20Z</time></trkpt><trkpt lat="43.889047624489535" lon="11.955960188321743"><ele>792.25</ele><time>2026-04-14T06:45:21Z</time></trkpt><trkpt lat="43.88911461988027" lon="11.95582564984796"><ele>792.0</ele><time>2026-04-14T06:45:22Z</time></trkpt><trkpt lat="43.88920182514184" lon="11.955716143659995"><ele>792.25</ele><time>2026-04-14T06:45:23Z</time></trkpt><trkpt lat="43.889312352593514" lon="11.955637486903392"><ele>792.5</ele><time>2026-04-14T06:45:24Z</time></trkpt><trkpt lat="43.88943791777144" lon="11.955594510596594"><ele>792.75</ele><time>2026-04-14T06:45:25Z</time></trkpt><trkpt lat="43.88957284309842" lon="11.95557344355021"><ele>793.0</ele><time>2026-04-14T06:45:26Z</time></trkpt><trkpt lat="43.88971551404367" lon="11.955562660736673"><ele>793.0</ele><time>2026-04-14T06:45:27Z</time></trkpt><trkpt lat="43.88986758561191" lon="11.955555708222258"><ele>793.0</ele><time>2026-04-14T06:45:28Z</time></trkpt><trkpt lat="43.89000852654765" lon="11.955544874415342"><ele>793.0</ele><time>2026-04-14T06:45:29Z</time></trkpt><trkpt lat="43.89014067156423" lon="11.955524565290276"><ele>793.0</ele><time>2026-04-14T06:45:30Z</time></trkpt><trkpt lat="43.89027353674066" lon="11.955496791068878"><ele>792.5</ele><time>2026-04-14T06:45:31Z</time></trkpt><trkpt lat="43.89039707208947" lon="11.955447646571495"><ele>792.0</ele><time>2026-04-14T06:45:32Z</time></trkpt><trkpt lat="43.89051306987622" lon="11.95537903748632"><ele>791.5</ele><time>2026-04-14T06:45:33Z</time></trkpt><trkpt lat="43.89062526106849" lon="11.955300981984236"><ele>791.0</ele><time>2026-04-14T06:45:34Z</time></trkpt><trkpt lat="43.89073654168201" lon="11.955244826593196"><ele>791.0</ele><time>2026-04-14T06:45:35Z</time></trkpt><trkpt lat="43.89086016591897" lon="11.955223877631251"><ele>791.0</ele><time>2026-04-14T06:45:36Z</time></trkpt><trkpt lat="43.89099125924868" lon="11.955223419682465"><ele>791.0</ele><time>2026-04-14T06:45:37Z</time></trkpt><trkpt lat="43.89113283538804" lon="11.955218807353127"><ele>791.0</ele><time>2026-04-14T06:45:38Z</time></trkpt><trkpt lat="43.891273982539445" lon="11.955199537689346"><ele>789.0</ele><time>2026-04-14T06:45:39Z</time></trkpt><trkpt lat="43.89141888386488" lon="11.955181908870374"><ele>787.0</ele><time>2026-04-14T06:45:40Z</time></trkpt><trkpt lat="43.8915685995961" lon="11.95517683461113"><ele>785.0</ele><time>2026-04-14T06:45:41Z</time></trkpt><trkpt lat="43.891715961285136" lon="11.955188439477773"><ele>783.0</ele><time>2026-04-14T06:45:42Z</time></trkpt><trkpt lat="43.89186086907983" lon="11.955208602262875"><ele>782.5</ele><time>2026-04-14T06:45:43Z</time></trkpt><trkpt lat="43.89199196000441" lon="11.95524396268544"><ele>782.0</ele><time>2026-04-14T06:45:44Z</time></trkpt><trkpt lat="43.892107892469255" lon="11.955297376671988"><ele>781.5</ele><time>2026-04-14T06:45:45Z</time></trkpt><trkpt lat="43.89221068979195" lon="11.955381905053743"><ele>781.0</ele><time>2026-04-14T06:45:46Z</time></trkpt><trkpt lat="43.89230121569907" lon="11.955460617698815"><ele>781.0</ele><time>2026-04-14T06:45:47Z</time></trkpt><trkpt lat="43.89238416908215" lon="11.955521493155464"><ele>781.0</ele><time>2026-04-14T06:45:48Z</time></trkpt><trkpt lat="43.892468981938435" lon="11.955555209384544"><ele>781.0</ele><time>2026-04-14T06:45:49Z</time></trkpt><trkpt lat="43.89255583042063" lon="11.955537378446362"><ele>781.0</ele><time>2026-04-14T06:45:50Z</time></trkpt><trkpt lat="43.89263250656885" lon="11.95546457040521"><ele>781.0</ele><time>2026-04-14T06:45:51Z</time></trkpt><trkpt lat="43.892691248661706" lon="11.955349164140403"><ele>782.4</ele><time>2026-04-14T06:45:52Z</time></trkpt><trkpt lat="43.892733793091374" lon="11.95520261904519"><ele>783.8</ele><time>2026-04-14T06:45:53Z</time></trkpt><trkpt lat="43.89276814507586" lon="11.955058580542698"><ele>785.1999999999999</ele><time>2026-04-14T06:45:54Z</time></trkpt><trkpt lat="43.892814619038454" lon="11.954920950400147"><ele>786.5999999999999</ele><time>2026-04-14T06:45:55Z</time></trkpt><trkpt lat="43.89288681704634" lon="11.95480365730128"><ele>788.0</ele><time>2026-04-14T06:45:56Z</time></trkpt><trkpt lat="43.892971525315595" lon="11.954704878950064"><ele>783.25</ele><time>2026-04-14T06:45:57Z</time></trkpt><trkpt lat="43.89307355677317" lon="11.954638682495343"><ele>778.5</ele><time>2026-04-14T06:45:58Z</time></trkpt><trkpt lat="43.89318211720604" lon="11.95461621763319"><ele>773.75</ele><time>2026-04-14T06:45:59Z</time></trkpt><trkpt lat="43.89329632324852" lon="11.95462856697432"><ele>769.0</ele><time>2026-04-14T06:46:00Z</time></trkpt><trkpt lat="43.893423351205" lon="11.95467641235121"><ele>769.75</ele><time>2026-04-14T06:46:01Z</time></trkpt><trkpt lat="43.89355050406576" lon="11.954743358677344"><ele>770.5</ele><time>2026-04-14T06:46:02Z</time></trkpt><trkpt lat="43.893667581776896" lon="11.954833408639901"><ele>771.25</ele><time>2026-04-14T06:46:03Z</time></trkpt><trkpt lat="43.893789303870406" lon="11.95492813809006"><ele>772.0</ele><time>2026-04-14T06:46:04Z</time></trkpt><trkpt lat="43.89390742882773" lon="11.955039772346334"><ele>772.0</ele><time>2026-04-14T06:46:05Z</time></trkpt><trkpt lat="43.89402776400996" lon="11.955158831835837"><ele>772.0</ele><time>2026-04-14T06:46:06Z</time></trkpt><trkpt lat="43.894149413929924" lon="11.95528301938723"><ele>772.0</ele><time>2026-04-14T06:46:07Z</time></trkpt><trkpt lat="43.89427147331292" lon="11.95541161123385"><ele>764.6666666666666</ele><time>2026-04-14T06:46:08Z</time></trkpt><trkpt lat="43.89439400953262" lon="11.955540534993583"><ele>757.3333333333333</ele><time>2026-04-14T06:46:09Z</time></trkpt><trkpt lat="43.89450938648495" lon="11.955672979672462"><ele>750.0</ele><time>2026-04-14T06:46:10Z</time></trkpt><trkpt lat="43.89461876669368" lon="11.955815011579444"><ele>753.5</ele><time>2026-04-14T06:46:11Z</time></trkpt><trkpt lat="43.89471099055743" lon="11.955968412144529"><ele>757.0</ele><time>2026-04-14T06:46:12Z</time></trkpt><trkpt lat="43.89478915545722" lon="11.956130262699581"><ele>760.5</ele><time>2026-04-14T06:46:13Z</time></trkpt><trkpt lat="43.89485527300632" lon="11.956287882852957"><ele>764.0</ele><time>2026-04-14T06:46:14Z</time></trkpt><trkpt lat="43.894923688364266" lon="11.956427383146854"><ele>764.0</ele><time>2026-04-14T06:46:15Z</time></trkpt><trkpt lat="43.894990661139815" lon="11.95653261971626"><ele>764.0</ele><time>2026-04-14T06:46:16Z</time></trkpt><trkpt lat="43.89506564681782" lon="11.956602022458759"><ele>764.0</ele><time>2026-04-14T06:46:17Z</time></trkpt><trkpt lat="43.89514802940558" lon="11.956629497152601"><ele>764.0</ele><time>2026-04-14T06:46:18Z</time></trkpt><trkpt lat="43.8952385404243" lon="11.956621477071874"><ele>764.0</ele><time>2026-04-14T06:46:19Z</time></trkpt><trkpt lat="43.89533843709367" lon="11.95660280484031"><ele>764.0</ele><time>2026-04-14T06:46:20Z</time></trkpt><trkpt lat="43.89545819436107" lon="11.95657537676199"><ele>764.0</ele><time>2026-04-14T06:46:21Z</time></trkpt><trkpt lat="43.89559021038042" lon="11.956539539156804"><ele>764.0</ele><time>2026-04-14T06:46:22Z</time></trkpt><trkpt lat="43.89573646564111" lon="11.956499323127682"><ele>764.0</ele><time>2026-04-14T06:46:23Z</time></trkpt><trkpt lat="43.89588913914782" lon="11.956452731290687"><ele>764.3333333333333</ele><time>2026-04-14T06:46:24Z</time></trkpt><trkpt lat="43.89604229181752" lon="11.9564049353072"><ele>764.6666666666666</ele><time>2026-04-14T06:46:25Z</time></trkpt><trkpt lat="43.89618923662478" lon="11.956364486408447"><ele>765.0</ele><time>2026-04-14T06:46:26Z</time></trkpt><trkpt lat="43.896330630491946" lon="11.956327297357058"><ele>765.0</ele><time>2026-04-14T06:46:27Z</time></trkpt><trkpt lat="43.89647046469654" lon="11.956300139685602"><ele>765.0</ele><time>2026-04-14T06:46:28Z</time></trkpt><trkpt lat="43.896604003293014" lon="11.956271151233391"><ele>765.0</ele><time>2026-04-14T06:46:29Z</time></trkpt><trkpt lat="43.896733731141246" lon="11.956250193324992"><ele>765.0</ele><time>2026-04-14T06:46:30Z</time></trkpt><trkpt lat="43.896860433264784" lon="11.956252843193889"><ele>762.8</ele><time>2026-04-14T06:46:31Z</time></trkpt><trkpt lat="43.896982924655454" lon="11.956286802384065"><ele>760.6</ele><time>2026-04-14T06:46:32Z</time></trkpt><trkpt lat="43.897102033585085" lon="11.956349676059737"><ele>758.4000000000001</ele><time>2026-04-14T06:46:33Z</time></trkpt><trkpt lat="43.897191071972806" lon="11.956427394061791"><ele>756.2</ele><time>2026-04-14T06:46:34Z</time></trkpt><trkpt lat="43.89725035967014" lon="11.956490716538067"><ele>754.0</ele><time>2026-04-14T06:46:35Z</time></trkpt><trkpt lat="43.8973399884398" lon="11.956581885230595"><ele>754.0</ele><time>2026-04-14T06:46:37Z</time></trkpt><trkpt lat="43.897399144190636" lon="11.956659616522085"><ele>754.0</ele><time>2026-04-14T06:46:39Z</time></trkpt><trkpt lat="43.897452740436556" lon="11.956708883525323"><ele>754.0</ele><time>2026-04-14T06:46:51Z</time></trkpt><trkpt lat="43.897482138175654" lon="11.956795872688865"><ele>754.0</ele><time>2026-04-14T06:46:57Z</time></trkpt><trkpt lat="43.89752234575551" lon="11.956885440954522"><ele>754.0</ele><time>2026-04-14T06:46:59Z</time></trkpt><trkpt lat="43.89759203804829" lon="11.95695504479835"><ele>754.0</ele><time>2026-04-14T06:47:01Z</time></trkpt><trkpt lat="43.89765947281786" lon="11.957008045243786"><ele>754.0</ele><time>2026-04-14T06:47:03Z</time></trkpt><trkpt lat="43.89772651565235" lon="11.957046295714164"><ele>754.0</ele><time>2026-04-14T06:47:06Z</time></trkpt><trkpt lat="43.89767465223418" lon="11.95698866053967"><ele>754.0</ele><time>2026-04-14T06:47:17Z</time></trkpt><trkpt lat="43.89756740430489" lon="11.956884194075636"><ele>754.0</ele><time>2026-04-14T06:47:19Z</time></trkpt><trkpt lat="43.8975015202003" lon="11.956796125651318"><ele>754.0</ele><time>2026-04-14T06:47:21Z</time></trkpt><trkpt lat="43.89742635784509" lon="11.956695375461122"><ele>754.0</ele><time>2026-04-14T06:48:02Z</time></trkpt><trkpt lat="43.89733023662499" lon="11.956526001735098"><ele>754.0</ele><time>2026-04-14T06:48:03Z</time></trkpt><trkpt lat="43.89723127608184" lon="11.956441562675641"><ele>754.0</ele><time>2026-04-14T06:48:04Z</time></trkpt><trkpt lat="43.89717804555401" lon="11.95638251341966"><ele>754.0</ele><time>2026-04-14T06:48:05Z</time></trkpt><trkpt lat="43.89714300665752" lon="11.956299491013475"><ele>754.0</ele><time>2026-04-14T06:48:07Z</time></trkpt><trkpt lat="43.8971080689309" lon="11.956395467597797"><ele>754.0</ele><time>2026-04-14T06:48:12Z</time></trkpt><trkpt lat="43.8971718988941" lon="11.956457766872415"><ele>754.0</ele><time>2026-04-14T06:48:13Z</time></trkpt><trkpt lat="43.8972603147489" lon="11.956500533467818"><ele>754.0</ele><time>2026-04-14T06:48:14Z</time></trkpt><trkpt lat="43.89733583727736" lon="11.956597828274022"><ele>754.0</ele><time>2026-04-14T06:48:15Z</time></trkpt><trkpt lat="43.89741962758011" lon="11.956707697515933"><ele>754.0</ele><time>2026-04-14T06:48:16Z</time></trkpt><trkpt lat="43.89749208631419" lon="11.956806129103851"><ele>755.8000000000001</ele><time>2026-04-14T06:48:17Z</time></trkpt><trkpt lat="43.89756930393568" lon="11.956894565841441"><ele>757.6</ele><time>2026-04-14T06:48:18Z</time></trkpt><trkpt lat="43.89765316837171" lon="11.95696725053821"><ele>759.4</ele><time>2026-04-14T06:48:19Z</time></trkpt><trkpt lat="43.897736395089055" lon="11.957005437804254"><ele>761.2</ele><time>2026-04-14T06:48:20Z</time></trkpt><trkpt lat="43.89781492108846" lon="11.95703511681318"><ele>763.0</ele><time>2026-04-14T06:48:21Z</time></trkpt><trkpt lat="43.89789837191329" lon="11.956995635214442"><ele>763.0</ele><time>2026-04-14T06:48:22Z</time></trkpt><trkpt lat="43.89797335844" lon="11.956947325790843"><ele>763.0</ele><time>2026-04-14T06:48:23Z</time></trkpt><trkpt lat="43.89803586276559" lon="11.956867195586844"><ele>763.0</ele><time>2026-04-14T06:48:24Z</time></trkpt><trkpt lat="43.8980944035645" lon="11.956772340253753"><ele>763.0</ele><time>2026-04-14T06:48:25Z</time></trkpt><trkpt lat="43.89815646370743" lon="11.956682421213074"><ele>763.0</ele><time>2026-04-14T06:48:26Z</time></trkpt><trkpt lat="43.89820489624146" lon="11.956583742992024"><ele>763.0</ele><time>2026-04-14T06:48:27Z</time></trkpt><trkpt lat="43.898270530482066" lon="11.956503879550963"><ele>760.2</ele><time>2026-04-14T06:48:28Z</time></trkpt><trkpt lat="43.89834480427704" lon="11.956423710084001"><ele>757.4</ele><time>2026-04-14T06:48:29Z</time></trkpt><trkpt lat="43.8984365611516" lon="11.956396669795714"><ele>754.6</ele><time>2026-04-14T06:48:30Z</time></trkpt><trkpt lat="43.898527705117" lon="11.956410060836797"><ele>751.8000000000001</ele><time>2026-04-14T06:48:31Z</time></trkpt><trkpt lat="43.89861343274466" lon="11.95644841206458"><ele>749.0</ele><time>2026-04-14T06:48:32Z</time></trkpt><trkpt lat="43.8986921560682" lon="11.95651558579427"><ele>747.6</ele><time>2026-04-14T06:48:33Z</time></trkpt><trkpt lat="43.89876621308646" lon="11.956596070585489"><ele>746.2</ele><time>2026-04-14T06:48:34Z</time></trkpt><trkpt lat="43.898851510280984" lon="11.956668197232183"><ele>744.8000000000001</ele><time>2026-04-14T06:48:35Z</time></trkpt><trkpt lat="43.89894583031657" lon="11.956718858163546"><ele>743.4000000000001</ele><time>2026-04-14T06:48:36Z</time></trkpt><trkpt lat="43.89905062737299" lon="11.956742118986103"><ele>742.0</ele><time>2026-04-14T06:48:37Z</time></trkpt><trkpt lat="43.899155877534845" lon="11.956764122127167"><ele>741.5</ele><time>2026-04-14T06:48:38Z</time></trkpt><trkpt lat="43.89926398381142" lon="11.956741896598686"><ele>741.0</ele><time>2026-04-14T06:48:39Z</time></trkpt><trkpt lat="43.8993700735595" lon="11.956695993771094"><ele>740.5</ele><time>2026-04-14T06:48:40Z</time></trkpt><trkpt lat="43.89946791256501" lon="11.95661854786569"><ele>740.0</ele><time>2026-04-14T06:48:41Z</time></trkpt><trkpt lat="43.899671117472906" lon="11.956513415960544"><ele>740.0</ele><time>2026-04-14T06:48:43Z</time></trkpt><trkpt lat="43.89977766790292" lon="11.956456983709316"><ele>740.0</ele><time>2026-04-14T06:48:44Z</time></trkpt><trkpt lat="43.89988315383901" lon="11.956408651529634"><ele>740.0</ele><time>2026-04-14T06:48:45Z</time></trkpt><trkpt lat="43.8999934673458" lon="11.956375016150112"><ele>740.0</ele><time>2026-04-14T06:48:46Z</time></trkpt><trkpt lat="43.90011119886741" lon="11.956364184004023"><ele>734.5</ele><time>2026-04-14T06:48:47Z</time></trkpt><trkpt lat="43.90022780029499" lon="11.956372239595346"><ele>729.0</ele><time>2026-04-14T06:48:48Z</time></trkpt><trkpt lat="43.90034606713799" lon="11.956408665370999"><ele>723.5</ele><time>2026-04-14T06:48:49Z</time></trkpt><trkpt lat="43.90046389303719" lon="11.956465716780126"><ele>718.0</ele><time>2026-04-14T06:48:50Z</time></trkpt><trkpt lat="43.90056958920548" lon="11.956555205044099"><ele>718.0</ele><time>2026-04-14T06:48:51Z</time></trkpt><trkpt lat="43.90065586353332" lon="11.956677327504663"><ele>718.0</ele><time>2026-04-14T06:48:52Z</time></trkpt><trkpt lat="43.90072198992138" lon="11.956830350831225"><ele>718.0</ele><time>2026-04-14T06:48:53Z</time></trkpt><trkpt lat="43.90077821129022" lon="11.956989828851595"><ele>718.0</ele><time>2026-04-14T06:48:54Z</time></trkpt><trkpt lat="43.90082941559907" lon="11.957150700625505"><ele>720.0</ele><time>2026-04-14T06:48:55Z</time></trkpt><trkpt lat="43.90087904990009" lon="11.957296274542252"><ele>722.0</ele><time>2026-04-14T06:48:56Z</time></trkpt><trkpt lat="43.900929233596855" lon="11.957415172941245"><ele>724.0</ele><time>2026-04-14T06:48:57Z</time></trkpt><trkpt lat="43.9009913218387" lon="11.957507232080905"><ele>726.0</ele><time>2026-04-14T06:48:58Z</time></trkpt><trkpt lat="43.901067940736716" lon="11.957561379082403"><ele>728.0</ele><time>2026-04-14T06:48:59Z</time></trkpt><trkpt lat="43.9011532320896" lon="11.957579240086307"><ele>728.0</ele><time>2026-04-14T06:49:00Z</time></trkpt><trkpt lat="43.90124046550268" lon="11.957542600133456"><ele>728.0</ele><time>2026-04-14T06:49:01Z</time></trkpt><trkpt lat="43.90132786136719" lon="11.957489281958292"><ele>728.0</ele><time>2026-04-14T06:49:02Z</time></trkpt><trkpt lat="43.901395025649144" lon="11.957366218389131"><ele>728.0</ele><time>2026-04-14T06:49:03Z</time></trkpt><trkpt lat="43.90141559367406" lon="11.957196070517856"><ele>728.0</ele><time>2026-04-14T06:49:04Z</time></trkpt><trkpt lat="43.90142559970846" lon="11.957022320179636"><ele>728.0</ele><time>2026-04-14T06:49:05Z</time></trkpt><trkpt lat="43.901417924290364" lon="11.956849381354868"><ele>728.0</ele><time>2026-04-14T06:49:06Z</time></trkpt><trkpt lat="43.90144011549772" lon="11.956687978599863"><ele>728.0</ele><time>2026-04-14T06:49:07Z</time></trkpt><trkpt lat="43.90144877211758" lon="11.956538068531394"><ele>728.0</ele><time>2026-04-14T06:49:08Z</time></trkpt><trkpt lat="43.901461350443356" lon="11.956408954539803"><ele>728.0</ele><time>2026-04-14T06:49:09Z</time></trkpt><trkpt lat="43.901481824096145" lon="11.956298163960026"><ele>724.5</ele><time>2026-04-14T06:49:10Z</time></trkpt><trkpt lat="43.90155078912513" lon="11.956228061189611"><ele>721.0</ele><time>2026-04-14T06:49:11Z</time></trkpt><trkpt lat="43.90163264169326" lon="11.956210595251218"><ele>717.5</ele><time>2026-04-14T06:49:12Z</time></trkpt><trkpt lat="43.90171171662294" lon="11.956260907740543"><ele>714.0</ele><time>2026-04-14T06:49:13Z</time></trkpt><trkpt lat="43.90176901933464" lon="11.956354620331647"><ele>710.5</ele><time>2026-04-14T06:49:14Z</time></trkpt><trkpt lat="43.90181129886976" lon="11.95646498692716"><ele>707.0</ele><time>2026-04-14T06:49:15Z</time></trkpt><trkpt lat="43.901857143598434" lon="11.956570221679486"><ele>704.75</ele><time>2026-04-14T06:49:16Z</time></trkpt><trkpt lat="43.9019260175137" lon="11.956672757666732"><ele>702.5</ele><time>2026-04-14T06:49:17Z</time></trkpt><trkpt lat="43.90201994208479" lon="11.956749410643846"><ele>700.25</ele><time>2026-04-14T06:49:18Z</time></trkpt><trkpt lat="43.90213126181242" lon="11.95677792194063"><ele>698.0</ele><time>2026-04-14T06:49:19Z</time></trkpt><trkpt lat="43.90225872821635" lon="11.956774066322529"><ele>696.5</ele><time>2026-04-14T06:49:20Z</time></trkpt><trkpt lat="43.90239722117273" lon="11.956753248376202"><ele>695.0</ele><time>2026-04-14T06:49:21Z</time></trkpt><trkpt lat="43.9025422837756" lon="11.95672714635583"><ele>693.5</ele><time>2026-04-14T06:49:22Z</time></trkpt><trkpt lat="43.90268620954278" lon="11.95670006665338"><ele>692.0</ele><time>2026-04-14T06:49:23Z</time></trkpt><trkpt lat="43.90282350559664" lon="11.95667292143021"><ele>692.0</ele><time>2026-04-14T06:49:24Z</time></trkpt><trkpt lat="43.90296332744153" lon="11.95663275151357"><ele>692.0</ele><time>2026-04-14T06:49:25Z</time></trkpt><trkpt lat="43.90308459109877" lon="11.95661041525443"><ele>692.0</ele><time>2026-04-14T06:49:26Z</time></trkpt><trkpt lat="43.903202129676075" lon="11.956567988563215"><ele>692.0</ele><time>2026-04-14T06:49:27Z</time></trkpt><trkpt lat="43.903323542210515" lon="11.956553073446946"><ele>690.0</ele><time>2026-04-14T06:49:28Z</time></trkpt><trkpt lat="43.9034593311388" lon="11.956540750043535"><ele>688.0</ele><time>2026-04-14T06:49:29Z</time></trkpt><trkpt lat="43.903594771464775" lon="11.956577973356882"><ele>686.0</ele><time>2026-04-14T06:49:30Z</time></trkpt><trkpt lat="43.90372818677476" lon="11.956621304720995"><ele>684.0</ele><time>2026-04-14T06:49:31Z</time></trkpt><trkpt lat="43.9038539070207" lon="11.956649513992774"><ele>684.0</ele><time>2026-04-14T06:49:32Z</time></trkpt><trkpt lat="43.90397929283449" lon="11.956632975165073"><ele>684.0</ele><time>2026-04-14T06:49:33Z</time></trkpt><trkpt lat="43.90408321771063" lon="11.956570359250707"><ele>684.0</ele><time>2026-04-14T06:49:34Z</time></trkpt><trkpt lat="43.90419626017397" lon="11.956480806010719"><ele>684.0</ele><time>2026-04-14T06:49:35Z</time></trkpt><trkpt lat="43.90428111278483" lon="11.956339694207651"><ele>684.25</ele><time>2026-04-14T06:49:36Z</time></trkpt><trkpt lat="43.90433213254329" lon="11.956160097687945"><ele>684.5</ele><time>2026-04-14T06:49:37Z</time></trkpt><trkpt lat="43.90435537411726" lon="11.955965166435808"><ele>684.75</ele><time>2026-04-14T06:49:38Z</time></trkpt><trkpt lat="43.90433222773034" lon="11.955759885029625"><ele>685.0</ele><time>2026-04-14T06:49:39Z</time></trkpt><trkpt lat="43.9043235093133" lon="11.95555555996089"><ele>683.75</ele><time>2026-04-14T06:49:40Z</time></trkpt><trkpt lat="43.90431625333214" lon="11.955349310333471"><ele>682.5</ele><time>2026-04-14T06:49:41Z</time></trkpt><trkpt lat="43.904319436855076" lon="11.955145426869189"><ele>681.25</ele><time>2026-04-14T06:49:42Z</time></trkpt><trkpt lat="43.904341501906146" lon="11.954945510867237"><ele>680.0</ele><time>2026-04-14T06:49:43Z</time></trkpt><trkpt lat="43.904385145442106" lon="11.954749828657803"><ele>677.6666666666666</ele><time>2026-04-14T06:49:44Z</time></trkpt><trkpt lat="43.9044385656516" lon="11.954552362513923"><ele>675.3333333333334</ele><time>2026-04-14T06:49:45Z</time></trkpt><trkpt lat="43.90451136377003" lon="11.954360969082915"><ele>673.0</ele><time>2026-04-14T06:49:46Z</time></trkpt><trkpt lat="43.90460613063856" lon="11.954176726483059"><ele>671.3333333333334</ele><time>2026-04-14T06:49:47Z</time></trkpt><trkpt lat="43.90469699318161" lon="11.95399658014583"><ele>669.6666666666666</ele><time>2026-04-14T06:49:48Z</time></trkpt><trkpt lat="43.90477285640049" lon="11.953804716384626"><ele>668.0</ele><time>2026-04-14T06:49:49Z</time></trkpt><trkpt lat="43.904824732513475" lon="11.953600053431174"><ele>668.0</ele><time>2026-04-14T06:49:50Z</time></trkpt><trkpt lat="43.904860104496706" lon="11.953386831989222"><ele>668.0</ele><time>2026-04-14T06:49:51Z</time></trkpt><trkpt lat="43.9048786778967" lon="11.95316312217602"><ele>668.0</ele><time>2026-04-14T06:49:52Z</time></trkpt><trkpt lat="43.9048861730237" lon="11.95293970678759"><ele>668.6666666666666</ele><time>2026-04-14T06:49:53Z</time></trkpt><trkpt lat="43.90489482844198" lon="11.952714415579191"><ele>669.3333333333334</ele><time>2026-04-14T06:49:54Z</time></trkpt><trkpt lat="43.904906403346686" lon="11.952485295871078"><ele>670.0</ele><time>2026-04-14T06:49:55Z</time></trkpt><trkpt lat="43.904921760033005" lon="11.952259594921"><ele>670.3333333333334</ele><time>2026-04-14T06:49:56Z</time></trkpt><trkpt lat="43.90495220271224" lon="11.952043137682322"><ele>670.6666666666666</ele><time>2026-04-14T06:49:57Z</time></trkpt><trkpt lat="43.904987119940834" lon="11.951822615698827"><ele>671.0</ele><time>2026-04-14T06:49:58Z</time></trkpt><trkpt lat="43.90501808743491" lon="11.951607357260505"><ele>669.25</ele><time>2026-04-14T06:49:59Z</time></trkpt><trkpt lat="43.905046517801125" lon="11.951397087905468"><ele>667.5</ele><time>2026-04-14T06:50:00Z</time></trkpt><trkpt lat="43.905090699994275" lon="11.951202479560264"><ele>665.75</ele><time>2026-04-14T06:50:01Z</time></trkpt><trkpt lat="43.905118292962754" lon="11.951020366463085"><ele>664.0</ele><time>2026-04-14T06:50:02Z</time></trkpt><trkpt lat="43.90514424000828" lon="11.950840040419829"><ele>668.25</ele><time>2026-04-14T06:50:03Z</time></trkpt><trkpt lat="43.905211502268045" lon="11.950674829008307"><ele>672.5</ele><time>2026-04-14T06:50:04Z</time></trkpt><trkpt lat="43.90530118398392" lon="11.950518159826135"><ele>676.75</ele><time>2026-04-14T06:50:05Z</time></trkpt><trkpt lat="43.905405511474505" lon="11.950372139133675"><ele>681.0</ele><time>2026-04-14T06:50:06Z</time></trkpt><trkpt lat="43.905516471874435" lon="11.95023211963443"><ele>681.0</ele><time>2026-04-14T06:50:07Z</time></trkpt><trkpt lat="43.90563282485149" lon="11.950088273215714"><ele>681.0</ele><time>2026-04-14T06:50:08Z</time></trkpt><trkpt lat="43.90575415251714" lon="11.949950432360394"><ele>681.0</ele><time>2026-04-14T06:50:09Z</time></trkpt><trkpt lat="43.90586959068709" lon="11.949809883406381"><ele>683.0</ele><time>2026-04-14T06:50:10Z</time></trkpt><trkpt lat="43.905978798369695" lon="11.949665092127578"><ele>685.0</ele><time>2026-04-14T06:50:11Z</time></trkpt><trkpt lat="43.90607874374357" lon="11.949513169635656"><ele>687.0</ele><time>2026-04-14T06:50:12Z</time></trkpt><trkpt lat="43.906166876711254" lon="11.949346772649864"><ele>689.0</ele><time>2026-04-14T06:50:13Z</time></trkpt><trkpt lat="43.906239185321525" lon="11.949165317645114"><ele>689.0</ele><time>2026-04-14T06:50:14Z</time></trkpt><trkpt lat="43.90630435694863" lon="11.948970964288343"><ele>689.0</ele><time>2026-04-14T06:50:15Z</time></trkpt><trkpt lat="43.906366910535986" lon="11.948768193219427"><ele>689.0</ele><time>2026-04-14T06:50:16Z</time></trkpt><trkpt lat="43.90643213028317" lon="11.948560569434882"><ele>687.3333333333333</ele><time>2026-04-14T06:50:17Z</time></trkpt><trkpt lat="43.9065054455355" lon="11.948353337585484"><ele>685.6666666666666</ele><time>2026-04-14T06:50:18Z</time></trkpt><trkpt lat="43.9065772196216" lon="11.94814538478844"><ele>684.0</ele><time>2026-04-14T06:50:19Z</time></trkpt><trkpt lat="43.90664530196875" lon="11.94793858006152"><ele>684.0</ele><time>2026-04-14T06:50:20Z</time></trkpt><trkpt lat="43.90671271241122" lon="11.94772904816741"><ele>684.0</ele><time>2026-04-14T06:50:21Z</time></trkpt><trkpt lat="43.906774637417335" lon="11.947528931734025"><ele>684.0</ele><time>2026-04-14T06:50:22Z</time></trkpt><trkpt lat="43.90683670230458" lon="11.947337269914268"><ele>690.3333333333334</ele><time>2026-04-14T06:50:23Z</time></trkpt><trkpt lat="43.906899832812805" lon="11.947144569351115"><ele>696.6666666666667</ele><time>2026-04-14T06:50:24Z</time></trkpt><trkpt lat="43.906961554551465" lon="11.946953705472174"><ele>703.0</ele><time>2026-04-14T06:50:25Z</time></trkpt><trkpt lat="43.907018567994186" lon="11.946759344941256"><ele>700.5</ele><time>2026-04-14T06:50:26Z</time></trkpt><trkpt lat="43.907066487254845" lon="11.946567406025215"><ele>698.0</ele><time>2026-04-14T06:50:27Z</time></trkpt><trkpt lat="43.907117391776325" lon="11.946376812686216"><ele>695.5</ele><time>2026-04-14T06:50:28Z</time></trkpt><trkpt lat="43.90716913621356" lon="11.946188383787426"><ele>693.0</ele><time>2026-04-14T06:50:29Z</time></trkpt><trkpt lat="43.90721848145467" lon="11.946000315741426"><ele>690.75</ele><time>2026-04-14T06:50:30Z</time></trkpt><trkpt lat="43.907276039020225" lon="11.945816544918912"><ele>688.5</ele><time>2026-04-14T06:50:31Z</time></trkpt><trkpt lat="43.907350215283586" lon="11.945653690594904"><ele>686.25</ele><time>2026-04-14T06:50:32Z</time></trkpt><trkpt lat="43.90744041494228" lon="11.945501943465786"><ele>684.0</ele><time>2026-04-14T06:50:33Z</time></trkpt><trkpt lat="43.907550920450866" lon="11.945379188954393"><ele>687.3333333333334</ele><time>2026-04-14T06:50:34Z</time></trkpt><trkpt lat="43.90767651957364" lon="11.945268476477898"><ele>690.6666666666667</ele><time>2026-04-14T06:50:35Z</time></trkpt><trkpt lat="43.90781226058627" lon="11.945176820263686"><ele>694.0</ele><time>2026-04-14T06:50:36Z</time></trkpt><trkpt lat="43.90796365028576" lon="11.94511404499808"><ele>694.0</ele><time>2026-04-14T06:50:37Z</time></trkpt><trkpt lat="43.90812020030495" lon="11.945075126230314"><ele>694.0</ele><time>2026-04-14T06:50:38Z</time></trkpt><trkpt lat="43.90827825656879" lon="11.945052584790682"><ele>694.0</ele><time>2026-04-14T06:50:39Z</time></trkpt><trkpt lat="43.90843146801091" lon="11.945029061119353"><ele>687.0</ele><time>2026-04-14T06:50:40Z</time></trkpt><trkpt lat="43.908580734519504" lon="11.945011375517268"><ele>680.0</ele><time>2026-04-14T06:50:41Z</time></trkpt><trkpt lat="43.90872734375761" lon="11.944972776440162"><ele>673.0</ele><time>2026-04-14T06:50:42Z</time></trkpt><trkpt lat="43.9088783822202" lon="11.944925228057011"><ele>673.0</ele><time>2026-04-14T06:50:43Z</time></trkpt><trkpt lat="43.9090232600632" lon="11.94484406234403"><ele>673.0</ele><time>2026-04-14T06:50:44Z</time></trkpt><trkpt lat="43.90916778620414" lon="11.94476042026076"><ele>673.0</ele><time>2026-04-14T06:50:45Z</time></trkpt><trkpt lat="43.90931459116257" lon="11.944670929167323"><ele>674.3333333333334</ele><time>2026-04-14T06:50:46Z</time></trkpt><trkpt lat="43.90945917760172" lon="11.944560921403141"><ele>675.6666666666666</ele><time>2026-04-14T06:50:47Z</time></trkpt><trkpt lat="43.90961038356871" lon="11.944478378692716"><ele>677.0</ele><time>2026-04-14T06:50:48Z</time></trkpt><trkpt lat="43.90975964384826" lon="11.944388054329943"><ele>677.0</ele><time>2026-04-14T06:50:49Z</time></trkpt><trkpt lat="43.909911090530535" lon="11.944299060623818"><ele>677.0</ele><time>2026-04-14T06:50:50Z</time></trkpt><trkpt lat="43.91006515162812" lon="11.944210572422602"><ele>677.0</ele><time>2026-04-14T06:50:51Z</time></trkpt><trkpt lat="43.910217056968214" lon="11.944122849414265"><ele>672.3333333333333</ele><time>2026-04-14T06:50:52Z</time></trkpt><trkpt lat="43.91036618380974" lon="11.94403348337528"><ele>667.6666666666666</ele><time>2026-04-14T06:50:53Z</time></trkpt><trkpt lat="43.910510318897224" lon="11.943950048331965"><ele>663.0</ele><time>2026-04-14T06:50:54Z</time></trkpt><trkpt lat="43.91065095895945" lon="11.943870238530844"><ele>663.0</ele><time>2026-04-14T06:50:55Z</time></trkpt><trkpt lat="43.91079019881622" lon="11.943789854193072"><ele>663.0</ele><time>2026-04-14T06:50:56Z</time></trkpt><trkpt lat="43.91092749587901" lon="11.943704268087755"><ele>663.0</ele><time>2026-04-14T06:50:57Z</time></trkpt><trkpt lat="43.91107055901558" lon="11.943616118724375"><ele>660.6666666666666</ele><time>2026-04-14T06:50:58Z</time></trkpt><trkpt lat="43.91121679617042" lon="11.943525588725073"><ele>658.3333333333333</ele><time>2026-04-14T06:50:59Z</time></trkpt><trkpt lat="43.91136533042597" lon="11.943441562168463"><ele>656.0</ele><time>2026-04-14T06:51:00Z</time></trkpt><trkpt lat="43.911505388123096" lon="11.943350775048495"><ele>656.0</ele><time>2026-04-14T06:51:01Z</time></trkpt><trkpt lat="43.91164369536189" lon="11.943266267832241"><ele>656.0</ele><time>2026-04-14T06:51:02Z</time></trkpt><trkpt lat="43.91175018674918" lon="11.943125773393099"><ele>656.0</ele><time>2026-04-14T06:51:03Z</time></trkpt><trkpt lat="43.911865163266" lon="11.942994410783118"><ele>656.0</ele><time>2026-04-14T06:51:04Z</time></trkpt><trkpt lat="43.911940154776914" lon="11.942804525793152"><ele>658.0</ele><time>2026-04-14T06:51:05Z</time></trkpt><trkpt lat="43.91201230325261" lon="11.942614321358914"><ele>660.0</ele><time>2026-04-14T06:51:06Z</time></trkpt><trkpt lat="43.912070291442106" lon="11.94240854985469"><ele>662.0</ele><time>2026-04-14T06:51:07Z</time></trkpt><trkpt lat="43.9121229436217" lon="11.942196467834796"><ele>662.0</ele><time>2026-04-14T06:51:08Z</time></trkpt><trkpt lat="43.91217196125268" lon="11.941996548862084"><ele>662.0</ele><time>2026-04-14T06:51:09Z</time></trkpt><trkpt lat="43.91222530073412" lon="11.941805323138988"><ele>662.0</ele><time>2026-04-14T06:51:10Z</time></trkpt><trkpt lat="43.912291086122934" lon="11.94162352931616"><ele>662.0</ele><time>2026-04-14T06:51:11Z</time></trkpt><trkpt lat="43.91237617425736" lon="11.941456180031535"><ele>659.3333333333333</ele><time>2026-04-14T06:51:12Z</time></trkpt><trkpt lat="43.912476148675886" lon="11.941306980868452"><ele>656.6666666666666</ele><time>2026-04-14T06:51:13Z</time></trkpt><trkpt lat="43.912593575309394" lon="11.941177321641952"><ele>654.0</ele><time>2026-04-14T06:51:14Z</time></trkpt><trkpt lat="43.9127294295005" lon="11.94107353822865"><ele>654.0</ele><time>2026-04-14T06:51:15Z</time></trkpt><trkpt lat="43.91288431432207" lon="11.94099414663931"><ele>654.0</ele><time>2026-04-14T06:51:16Z</time></trkpt><trkpt lat="43.91305118770723" lon="11.94093009800936"><ele>654.0</ele><time>2026-04-14T06:51:17Z</time></trkpt><trkpt lat="43.91322190401032" lon="11.940872920632447"><ele>651.3333333333334</ele><time>2026-04-14T06:51:18Z</time></trkpt><trkpt lat="43.9133823668385" lon="11.94081459337167"><ele>648.6666666666667</ele><time>2026-04-14T06:51:19Z</time></trkpt><trkpt lat="43.91353376805296" lon="11.940733171231894"><ele>646.0</ele><time>2026-04-14T06:51:20Z</time></trkpt><trkpt lat="43.91367543227662" lon="11.94063068255405"><ele>646.0</ele><time>2026-04-14T06:51:21Z</time></trkpt><trkpt lat="43.91380952550789" lon="11.94051269859942"><ele>646.0</ele><time>2026-04-14T06:51:22Z</time></trkpt><trkpt lat="43.91395152852652" lon="11.94040620716643"><ele>646.0</ele><time>2026-04-14T06:51:23Z</time></trkpt><trkpt lat="43.91407306099716" lon="11.940253241613972"><ele>646.0</ele><time>2026-04-14T06:51:24Z</time></trkpt><trkpt lat="43.914182831848414" lon="11.940082406165823"><ele>646.0</ele><time>2026-04-14T06:51:25Z</time></trkpt><trkpt lat="43.9142680038678" lon="11.939891928460122"><ele>646.0</ele><time>2026-04-14T06:51:26Z</time></trkpt><trkpt lat="43.91436219355507" lon="11.939719436567279"><ele>645.6666666666667</ele><time>2026-04-14T06:51:27Z</time></trkpt><trkpt lat="43.91446796699481" lon="11.939567287032018"><ele>645.3333333333334</ele><time>2026-04-14T06:51:28Z</time></trkpt><trkpt lat="43.914552748385596" lon="11.939393216918388"><ele>645.0</ele><time>2026-04-14T06:51:29Z</time></trkpt><trkpt lat="43.91465988615089" lon="11.939248841663867"><ele>643.0</ele><time>2026-04-14T06:51:30Z</time></trkpt><trkpt lat="43.914781476573516" lon="11.939129448051796"><ele>641.0</ele><time>2026-04-14T06:51:31Z</time></trkpt><trkpt lat="43.91491137864192" lon="11.939030023177468"><ele>639.0</ele><time>2026-04-14T06:51:32Z</time></trkpt><trkpt lat="43.915047191567524" lon="11.938940578447081"><ele>637.0</ele><time>2026-04-14T06:51:33Z</time></trkpt><trkpt lat="43.915183934795735" lon="11.938860613581241"><ele>637.0</ele><time>2026-04-14T06:51:34Z</time></trkpt><trkpt lat="43.91532103978686" lon="11.93878655175502"><ele>637.0</ele><time>2026-04-14T06:51:35Z</time></trkpt><trkpt lat="43.91545567327463" lon="11.938713093064523"><ele>637.0</ele><time>2026-04-14T06:51:36Z</time></trkpt><trkpt lat="43.91557487634635" lon="11.938642055503268"><ele>637.0</ele><time>2026-04-14T06:51:37Z</time></trkpt><trkpt lat="43.915680223032005" lon="11.938565453606358"><ele>637.0</ele><time>2026-04-14T06:51:38Z</time></trkpt><trkpt lat="43.91576688010547" lon="11.938460229159732"><ele>637.0</ele><time>2026-04-14T06:51:39Z</time></trkpt><trkpt lat="43.915832540553644" lon="11.938328024401644"><ele>637.0</ele><time>2026-04-14T06:51:40Z</time></trkpt><trkpt lat="43.91586215408564" lon="11.938174643958536"><ele>637.0</ele><time>2026-04-14T06:51:41Z</time></trkpt><trkpt lat="43.915854562524274" lon="11.93801202256547"><ele>634.5</ele><time>2026-04-14T06:51:42Z</time></trkpt><trkpt lat="43.915813048622205" lon="11.937852703812432"><ele>632.0</ele><time>2026-04-14T06:51:43Z</time></trkpt><trkpt lat="43.915739506726084" lon="11.937705432596832"><ele>629.5</ele><time>2026-04-14T06:51:44Z</time></trkpt><trkpt lat="43.91563804988652" lon="11.937570737911468"><ele>627.0</ele><time>2026-04-14T06:51:45Z</time></trkpt><trkpt lat="43.91553161810485" lon="11.937435703434621"><ele>625.75</ele><time>2026-04-14T06:51:46Z</time></trkpt><trkpt lat="43.91542700875861" lon="11.937291143601035"><ele>624.5</ele><time>2026-04-14T06:51:47Z</time></trkpt><trkpt lat="43.91532646375308" lon="11.937143036642885"><ele>623.25</ele><time>2026-04-14T06:51:48Z</time></trkpt><trkpt lat="43.91522402974181" lon="11.936996415710967"><ele>622.0</ele><time>2026-04-14T06:51:49Z</time></trkpt><trkpt lat="43.915118253369684" lon="11.936852197253012"><ele>619.3333333333334</ele><time>2026-04-14T06:51:50Z</time></trkpt><trkpt lat="43.91501443442901" lon="11.936704418713147"><ele>616.6666666666666</ele><time>2026-04-14T06:51:51Z</time></trkpt><trkpt lat="43.914920131568714" lon="11.936541673620686"><ele>614.0</ele><time>2026-04-14T06:51:52Z</time></trkpt><trkpt lat="43.9148394155094" lon="11.936362654116042"><ele>614.0</ele><time>2026-04-14T06:51:53Z</time></trkpt><trkpt lat="43.91477472211153" lon="11.936171172287656"><ele>614.0</ele><time>2026-04-14T06:51:54Z</time></trkpt><trkpt lat="43.914731723194954" lon="11.935967953755824"><ele>614.0</ele><time>2026-04-14T06:51:55Z</time></trkpt><trkpt lat="43.91471032021519" lon="11.93575731815572"><ele>613.0</ele><time>2026-04-14T06:51:56Z</time></trkpt><trkpt lat="43.9147180846035" lon="11.935553139066405"><ele>612.0</ele><time>2026-04-14T06:51:57Z</time></trkpt><trkpt lat="43.91473774140244" lon="11.935351919407946"><ele>611.0</ele><time>2026-04-14T06:51:58Z</time></trkpt><trkpt lat="43.91477217985368" lon="11.935155076490936"><ele>610.0</ele><time>2026-04-14T06:51:59Z</time></trkpt><trkpt lat="43.91484126743092" lon="11.934973626665247"><ele>607.3333333333334</ele><time>2026-04-14T06:52:00Z</time></trkpt><trkpt lat="43.91488915063173" lon="11.93477816874337"><ele>604.6666666666666</ele><time>2026-04-14T06:52:01Z</time></trkpt><trkpt lat="43.91495667594332" lon="11.934592546634416"><ele>602.0</ele><time>2026-04-14T06:52:02Z</time></trkpt><trkpt lat="43.91502542594352" lon="11.934405215435964"><ele>599.3333333333333</ele><time>2026-04-14T06:52:03Z</time></trkpt><trkpt lat="43.91509160323705" lon="11.934215144165407"><ele>596.6666666666666</ele><time>2026-04-14T06:52:04Z</time></trkpt><trkpt lat="43.91515039856385" lon="11.934020097722161"><ele>594.0</ele><time>2026-04-14T06:52:05Z</time></trkpt><trkpt lat="43.91519376200471" lon="11.933821041880051"><ele>594.0</ele><time>2026-04-14T06:52:06Z</time></trkpt><trkpt lat="43.91522271592661" lon="11.933614814323313"><ele>594.0</ele><time>2026-04-14T06:52:07Z</time></trkpt><trkpt lat="43.91524766175258" lon="11.933405445784441"><ele>594.0</ele><time>2026-04-14T06:52:08Z</time></trkpt><trkpt lat="43.91526860274543" lon="11.9331948792759"><ele>593.3333333333334</ele><time>2026-04-14T06:52:09Z</time></trkpt><trkpt lat="43.91528297858897" lon="11.932985356778925"><ele>592.6666666666667</ele><time>2026-04-14T06:52:10Z</time></trkpt><trkpt lat="43.91528353432769" lon="11.932772608240281"><ele>592.0</ele><time>2026-04-14T06:52:11Z</time></trkpt><trkpt lat="43.915259805588725" lon="11.932563054777905"><ele>590.6666666666667</ele><time>2026-04-14T06:52:12Z</time></trkpt><trkpt lat="43.915214242921515" lon="11.932362039105355"><ele>589.3333333333334</ele><time>2026-04-14T06:52:13Z</time></trkpt><trkpt lat="43.91514755235518" lon="11.932172233272203"><ele>588.0</ele><time>2026-04-14T06:52:14Z</time></trkpt><trkpt lat="43.9150626701955" lon="11.93199332430321"><ele>587.0</ele><time>2026-04-14T06:52:15Z</time></trkpt><trkpt lat="43.91496421267442" lon="11.931827775112096"><ele>586.0</ele><time>2026-04-14T06:52:16Z</time></trkpt><trkpt lat="43.91486491873375" lon="11.931663093486396"><ele>585.0</ele><time>2026-04-14T06:52:17Z</time></trkpt><trkpt lat="43.9147674153233" lon="11.931497328322587"><ele>583.3333333333334</ele><time>2026-04-14T06:52:18Z</time></trkpt><trkpt lat="43.91467091977514" lon="11.931327696035511"><ele>581.6666666666667</ele><time>2026-04-14T06:52:19Z</time></trkpt><trkpt lat="43.91457553118149" lon="11.93115671899085"><ele>580.0</ele><time>2026-04-14T06:52:20Z</time></trkpt><trkpt lat="43.91447901715885" lon="11.930988475461119"><ele>577.0</ele><time>2026-04-14T06:52:21Z</time></trkpt><trkpt lat="43.91438117735085" lon="11.930818412960807"><ele>574.0</ele><time>2026-04-14T06:52:22Z</time></trkpt><trkpt lat="43.9142850850772" lon="11.93064929677047"><ele>571.0</ele><time>2026-04-14T06:52:23Z</time></trkpt><trkpt lat="43.91419078430554" lon="11.93047631895158"><ele>571.0</ele><time>2026-04-14T06:52:24Z</time></trkpt><trkpt lat="43.9140982661594" lon="11.930293035305054"><ele>571.0</ele><time>2026-04-14T06:52:25Z</time></trkpt><trkpt lat="43.914016745391805" lon="11.930100409800218"><ele>571.0</ele><time>2026-04-14T06:52:26Z</time></trkpt><trkpt lat="43.913948333032415" lon="11.929896614552236"><ele>570.3333333333334</ele><time>2026-04-14T06:52:27Z</time></trkpt><trkpt lat="43.91390965965377" lon="11.92968067627342"><ele>569.6666666666666</ele><time>2026-04-14T06:52:28Z</time></trkpt><trkpt lat="43.913863242489754" lon="11.92946907959886"><ele>569.0</ele><time>2026-04-14T06:52:29Z</time></trkpt><trkpt lat="43.91382477541015" lon="11.92926209575279"><ele>567.3333333333333</ele><time>2026-04-14T06:52:30Z</time></trkpt><trkpt lat="43.913787230649945" lon="11.929055599569734"><ele>565.6666666666666</ele><time>2026-04-14T06:52:31Z</time></trkpt><trkpt lat="43.91375017790187" lon="11.92885180944273"><ele>564.0</ele><time>2026-04-14T06:52:32Z</time></trkpt><trkpt lat="43.91371313011947" lon="11.928650894413996"><ele>564.0</ele><time>2026-04-14T06:52:33Z</time></trkpt><trkpt lat="43.91367639384935" lon="11.928450712607239"><ele>564.0</ele><time>2026-04-14T06:52:34Z</time></trkpt><trkpt lat="43.913638200043515" lon="11.928242935374318"><ele>564.0</ele><time>2026-04-14T06:52:35Z</time></trkpt><trkpt lat="43.91360014882119" lon="11.928029973323458"><ele>562.0</ele><time>2026-04-14T06:52:36Z</time></trkpt><trkpt lat="43.91356341392702" lon="11.927812020941117"><ele>560.0</ele><time>2026-04-14T06:52:37Z</time></trkpt><trkpt lat="43.91353250322345" lon="11.927594460325684"><ele>558.0</ele><time>2026-04-14T06:52:38Z</time></trkpt><trkpt lat="43.91351308741047" lon="11.927374197823333"><ele>555.6666666666666</ele><time>2026-04-14T06:52:39Z</time></trkpt><trkpt lat="43.913511675792655" lon="11.927157614715968"><ele>553.3333333333333</ele><time>2026-04-14T06:52:40Z</time></trkpt><trkpt lat="43.91352507749162" lon="11.92693656503235"><ele>551.0</ele><time>2026-04-14T06:52:41Z</time></trkpt><trkpt lat="43.91355224292668" lon="11.926711876037382"><ele>550.3333333333333</ele><time>2026-04-14T06:52:42Z</time></trkpt><trkpt lat="43.913590005893695" lon="11.92648074062487"><ele>549.6666666666666</ele><time>2026-04-14T06:52:43Z</time></trkpt><trkpt lat="43.91363257623893" lon="11.926248800593656"><ele>549.0</ele><time>2026-04-14T06:52:44Z</time></trkpt><trkpt lat="43.913681986922875" lon="11.926017338866327"><ele>550.3333333333334</ele><time>2026-04-14T06:52:45Z</time></trkpt><trkpt lat="43.91374639281605" lon="11.925799863216644"><ele>551.6666666666667</ele><time>2026-04-14T06:52:46Z</time></trkpt><trkpt lat="43.913825701197574" lon="11.925591589973546"><ele>553.0</ele><time>2026-04-14T06:52:47Z</time></trkpt><trkpt lat="43.91390784907579" lon="11.925381898935287"><ele>553.0</ele><time>2026-04-14T06:52:48Z</time></trkpt><trkpt lat="43.913989452912375" lon="11.925174043264338"><ele>553.0</ele><time>2026-04-14T06:52:49Z</time></trkpt><trkpt lat="43.91407283355265" lon="11.924968109877048"><ele>553.0</ele><time>2026-04-14T06:52:50Z</time></trkpt><trkpt lat="43.914154423387835" lon="11.924760587819016"><ele>551.3333333333334</ele><time>2026-04-14T06:52:51Z</time></trkpt><trkpt lat="43.91423257581208" lon="11.92456043076268"><ele>549.6666666666666</ele><time>2026-04-14T06:52:52Z</time></trkpt><trkpt lat="43.91430998462471" lon="11.92436821235313"><ele>548.0</ele><time>2026-04-14T06:52:53Z</time></trkpt><trkpt lat="43.914391036529025" lon="11.924173010826394"><ele>550.5</ele><time>2026-04-14T06:52:54Z</time></trkpt><trkpt lat="43.914472141238114" lon="11.9240252329173"><ele>553.0</ele><time>2026-04-14T06:52:55Z</time></trkpt><trkpt lat="43.914582730220566" lon="11.923906881899365"><ele>555.5</ele><time>2026-04-14T06:52:56Z</time></trkpt><trkpt lat="43.91470867473168" lon="11.923816410151186"><ele>558.0</ele><time>2026-04-14T06:52:57Z</time></trkpt><trkpt lat="43.91483690264088" lon="11.923707202673219"><ele>558.0</ele><time>2026-04-14T06:52:58Z</time></trkpt><trkpt lat="43.91498588827261" lon="11.923640408287277"><ele>558.0</ele><time>2026-04-14T06:52:59Z</time></trkpt><trkpt lat="43.91513137603748" lon="11.923567996181141"><ele>558.0</ele><time>2026-04-14T06:53:00Z</time></trkpt><trkpt lat="43.915272573955924" lon="11.923483314154801"><ele>558.3333333333334</ele><time>2026-04-14T06:53:01Z</time></trkpt><trkpt lat="43.915413245497284" lon="11.9233641090674"><ele>558.6666666666667</ele><time>2026-04-14T06:53:02Z</time></trkpt><trkpt lat="43.91555995005702" lon="11.923233916056658"><ele>559.0</ele><time>2026-04-14T06:53:03Z</time></trkpt><trkpt lat="43.91569538284516" lon="11.923066371681124"><ele>559.0</ele><time>2026-04-14T06:53:04Z</time></trkpt><trkpt lat="43.915812426573154" lon="11.92286481048805"><ele>559.0</ele><time>2026-04-14T06:53:05Z</time></trkpt><trkpt lat="43.91594149318525" lon="11.922677324351223"><ele>559.0</ele><time>2026-04-14T06:53:06Z</time></trkpt><trkpt lat="43.916077196476" lon="11.922511522163672"><ele>557.0</ele><time>2026-04-14T06:53:07Z</time></trkpt><trkpt lat="43.91619616414604" lon="11.922338075241658"><ele>555.0</ele><time>2026-04-14T06:53:08Z</time></trkpt><trkpt lat="43.91631064467034" lon="11.92217117027881"><ele>553.0</ele><time>2026-04-14T06:53:09Z</time></trkpt><trkpt lat="43.916421916173384" lon="11.921996790492734"><ele>553.0</ele><time>2026-04-14T06:53:10Z</time></trkpt><trkpt lat="43.916522622926564" lon="11.921803789108056"><ele>553.0</ele><time>2026-04-14T06:53:11Z</time></trkpt><trkpt lat="43.91661135430925" lon="11.92159248566457"><ele>553.0</ele><time>2026-04-14T06:53:12Z</time></trkpt><trkpt lat="43.916694189971686" lon="11.92137607516745"><ele>552.0</ele><time>2026-04-14T06:53:13Z</time></trkpt><trkpt lat="43.91677258350209" lon="11.921162942853217"><ele>551.0</ele><time>2026-04-14T06:53:14Z</time></trkpt><trkpt lat="43.91685554691555" lon="11.92096501015273"><ele>550.0</ele><time>2026-04-14T06:53:15Z</time></trkpt><trkpt lat="43.91695565716753" lon="11.920787369959104"><ele>550.0</ele><time>2026-04-14T06:53:16Z</time></trkpt><trkpt lat="43.917063794278874" lon="11.920615556986192"><ele>550.0</ele><time>2026-04-14T06:53:17Z</time></trkpt><trkpt lat="43.917174851768415" lon="11.920442946594942"><ele>550.0</ele><time>2026-04-14T06:53:18Z</time></trkpt><trkpt lat="43.91728471951744" lon="11.920275160371583"><ele>550.0</ele><time>2026-04-14T06:53:19Z</time></trkpt><trkpt lat="43.917401470914015" lon="11.920116925871106"><ele>550.0</ele><time>2026-04-14T06:53:20Z</time></trkpt><trkpt lat="43.91753644772129" lon="11.919976259201409"><ele>550.0</ele><time>2026-04-14T06:53:21Z</time></trkpt><trkpt lat="43.91767941202843" lon="11.919845272953788"><ele>548.0</ele><time>2026-04-14T06:53:22Z</time></trkpt><trkpt lat="43.9178120373259" lon="11.919695859033535"><ele>546.0</ele><time>2026-04-14T06:53:23Z</time></trkpt><trkpt lat="43.91795882285784" lon="11.919586415955633"><ele>544.0</ele><time>2026-04-14T06:53:24Z</time></trkpt><trkpt lat="43.91809600157175" lon="11.919456258349285"><ele>544.0</ele><time>2026-04-14T06:53:25Z</time></trkpt><trkpt lat="43.91822253085146" lon="11.919315859257674"><ele>544.0</ele><time>2026-04-14T06:53:26Z</time></trkpt><trkpt lat="43.9183616588847" lon="11.919211948221832"><ele>544.0</ele><time>2026-04-14T06:53:27Z</time></trkpt><trkpt lat="43.918507657450924" lon="11.91913919796506"><ele>545.75</ele><time>2026-04-14T06:53:28Z</time></trkpt><trkpt lat="43.91865645899672" lon="11.919090115166028"><ele>547.5</ele><time>2026-04-14T06:53:29Z</time></trkpt><trkpt lat="43.918800716443826" lon="11.919041223585412"><ele>549.25</ele><time>2026-04-14T06:53:30Z</time></trkpt><trkpt lat="43.918944498585056" lon="11.91899475268379"><ele>551.0</ele><time>2026-04-14T06:53:31Z</time></trkpt><trkpt lat="43.919082333131364" lon="11.918940669827837"><ele>551.0</ele><time>2026-04-14T06:53:32Z</time></trkpt><trkpt lat="43.91920879940369" lon="11.918857874730373"><ele>551.0</ele><time>2026-04-14T06:53:33Z</time></trkpt><trkpt lat="43.91932030867019" lon="11.91873348017229"><ele>551.0</ele><time>2026-04-14T06:53:34Z</time></trkpt><trkpt lat="43.919415758404256" lon="11.918578612153182"><ele>551.0</ele><time>2026-04-14T06:53:35Z</time></trkpt><trkpt lat="43.91951668096697" lon="11.918417034017027"><ele>552.6666666666666</ele><time>2026-04-14T06:53:36Z</time></trkpt><trkpt lat="43.91958940001969" lon="11.918223444137734"><ele>554.3333333333334</ele><time>2026-04-14T06:53:37Z</time></trkpt><trkpt lat="43.91968056471107" lon="11.918058712384457"><ele>556.0</ele><time>2026-04-14T06:53:38Z</time></trkpt><trkpt lat="43.91978405788223" lon="11.917916715312504"><ele>556.0</ele><time>2026-04-14T06:53:39Z</time></trkpt><trkpt lat="43.91990174711238" lon="11.917798027083327"><ele>556.0</ele><time>2026-04-14T06:53:40Z</time></trkpt><trkpt lat="43.920034941109165" lon="11.917707363291969"><ele>556.0</ele><time>2026-04-14T06:53:41Z</time></trkpt><trkpt lat="43.92017828979379" lon="11.917639934558093"><ele>556.0</ele><time>2026-04-14T06:53:42Z</time></trkpt><trkpt lat="43.92032552194038" lon="11.917581687929099"><ele>554.6666666666667</ele><time>2026-04-14T06:53:43Z</time></trkpt><trkpt lat="43.920477938427005" lon="11.91752491399587"><ele>553.3333333333334</ele><time>2026-04-14T06:53:44Z</time></trkpt><trkpt lat="43.92063287535741" lon="11.917461212984481"><ele>552.0</ele><time>2026-04-14T06:53:45Z</time></trkpt><trkpt lat="43.92078733358847" lon="11.917402344956168"><ele>549.0</ele><time>2026-04-14T06:53:46Z</time></trkpt><trkpt lat="43.920937986447306" lon="11.917339468421613"><ele>546.0</ele><time>2026-04-14T06:53:47Z</time></trkpt><trkpt lat="43.92109005851248" lon="11.91727503744384"><ele>543.0</ele><time>2026-04-14T06:53:48Z</time></trkpt><trkpt lat="43.92124324842304" lon="11.917224223890488"><ele>543.0</ele><time>2026-04-14T06:53:49Z</time></trkpt><trkpt lat="43.92139188212846" lon="11.917154105904844"><ele>543.0</ele><time>2026-04-14T06:53:50Z</time></trkpt><trkpt lat="43.92153380876943" lon="11.917056759253317"><ele>543.0</ele><time>2026-04-14T06:53:51Z</time></trkpt><trkpt lat="43.92183279649105" lon="11.91691982319683"><ele>540.0</ele><time>2026-04-14T06:53:53Z</time></trkpt><trkpt lat="43.921977932004815" lon="11.916846986035171"><ele>537.0</ele><time>2026-04-14T06:53:54Z</time></trkpt><trkpt lat="43.9221247152163" lon="11.916779729953038"><ele>534.0</ele><time>2026-04-14T06:53:55Z</time></trkpt><trkpt lat="43.92225926941647" lon="11.916741080504309"><ele>531.0</ele><time>2026-04-14T06:53:56Z</time></trkpt><trkpt lat="43.92238527112239" lon="11.916742962259287"><ele>531.0</ele><time>2026-04-14T06:53:57Z</time></trkpt><trkpt lat="43.92251417794035" lon="11.916758847342107"><ele>531.0</ele><time>2026-04-14T06:53:58Z</time></trkpt><trkpt lat="43.92263522775326" lon="11.916748289265435"><ele>531.0</ele><time>2026-04-14T06:53:59Z</time></trkpt><trkpt lat="43.922750615440584" lon="11.916732261363835"><ele>531.0</ele><time>2026-04-14T06:54:00Z</time></trkpt><trkpt lat="43.92285069773125" lon="11.91662679905828"><ele>529.5</ele><time>2026-04-14T06:54:01Z</time></trkpt><trkpt lat="43.92294726856358" lon="11.916536754580335"><ele>528.0</ele><time>2026-04-14T06:54:02Z</time></trkpt><trkpt lat="43.92299996601874" lon="11.916390886351662"><ele>526.5</ele><time>2026-04-14T06:54:03Z</time></trkpt><trkpt lat="43.923054445139634" lon="11.916251194002456"><ele>525.0</ele><time>2026-04-14T06:54:04Z</time></trkpt><trkpt lat="43.92309824621959" lon="11.916102228894927"><ele>525.0</ele><time>2026-04-14T06:54:05Z</time></trkpt><trkpt lat="43.923133530021396" lon="11.91594529341926"><ele>525.0</ele><time>2026-04-14T06:54:06Z</time></trkpt><trkpt lat="43.92317063949465" lon="11.915787853752775"><ele>525.0</ele><time>2026-04-14T06:54:07Z</time></trkpt><trkpt lat="43.923217585557474" lon="11.915634616332698"><ele>525.0</ele><time>2026-04-14T06:54:08Z</time></trkpt><trkpt lat="43.92327630121434" lon="11.915483817467573"><ele>523.75</ele><time>2026-04-14T06:54:09Z</time></trkpt><trkpt lat="43.92335428798025" lon="11.9153569251164"><ele>522.5</ele><time>2026-04-14T06:54:10Z</time></trkpt><trkpt lat="43.92344413459836" lon="11.915252860717356"><ele>521.25</ele><time>2026-04-14T06:54:11Z</time></trkpt><trkpt lat="43.92355005775669" lon="11.915206919735274"><ele>520.0</ele><time>2026-04-14T06:54:12Z</time></trkpt><trkpt lat="43.923653315022236" lon="11.91519325279982"><ele>520.0</ele><time>2026-04-14T06:54:13Z</time></trkpt><trkpt lat="43.92375950457385" lon="11.915181091243474"><ele>520.0</ele><time>2026-04-14T06:54:14Z</time></trkpt><trkpt lat="43.923861770666676" lon="11.915187272695524"><ele>520.0</ele><time>2026-04-14T06:54:15Z</time></trkpt><trkpt lat="43.923963569998016" lon="11.915174579269909"><ele>520.0</ele><time>2026-04-14T06:54:16Z</time></trkpt><trkpt lat="43.92406153793003" lon="11.915134750943764"><ele>520.0</ele><time>2026-04-14T06:54:17Z</time></trkpt><trkpt lat="43.92414844989405" lon="11.915080548822255"><ele>521.6</ele><time>2026-04-14T06:54:18Z</time></trkpt><trkpt lat="43.924226615599785" lon="11.91499715987853"><ele>523.2</ele><time>2026-04-14T06:54:19Z</time></trkpt><trkpt lat="43.92429167584864" lon="11.914890527702495"><ele>524.8</ele><time>2026-04-14T06:54:20Z</time></trkpt><trkpt lat="43.924347527576494" lon="11.914783245412885"><ele>526.4</ele><time>2026-04-14T06:54:21Z</time></trkpt><trkpt lat="43.9244106463688" lon="11.9146801702741"><ele>528.0</ele><time>2026-04-14T06:54:22Z</time></trkpt><trkpt lat="43.924480529750795" lon="11.914582849910763"><ele>528.0</ele><time>2026-04-14T06:54:23Z</time></trkpt><trkpt lat="43.92456562035022" lon="11.914517232232267"><ele>528.0</ele><time>2026-04-14T06:54:24Z</time></trkpt><trkpt lat="43.924659101284306" lon="11.914476568192608"><ele>528.0</ele><time>2026-04-14T06:54:25Z</time></trkpt><trkpt lat="43.92475647820383" lon="11.914457265752501"><ele>528.0</ele><time>2026-04-14T06:54:26Z</time></trkpt><trkpt lat="43.92486378559198" lon="11.914453580135769"><ele>528.0</ele><time>2026-04-14T06:54:27Z</time></trkpt><trkpt lat="43.924976795731155" lon="11.914459254899622"><ele>527.5</ele><time>2026-04-14T06:54:28Z</time></trkpt><trkpt lat="43.92509174163002" lon="11.914464344183152"><ele>527.0</ele><time>2026-04-14T06:54:29Z</time></trkpt><trkpt lat="43.92520613175538" lon="11.914463145946298"><ele>526.5</ele><time>2026-04-14T06:54:30Z</time></trkpt><trkpt lat="43.92531652054614" lon="11.914437105444069"><ele>526.0</ele><time>2026-04-14T06:54:31Z</time></trkpt><trkpt lat="43.9254246209692" lon="11.914395289814298"><ele>526.0</ele><time>2026-04-14T06:54:32Z</time></trkpt><trkpt lat="43.92552725766678" lon="11.914347216369714"><ele>526.0</ele><time>2026-04-14T06:54:33Z</time></trkpt><trkpt lat="43.92562479015455" lon="11.914299451129235"><ele>526.0</ele><time>2026-04-14T06:54:34Z</time></trkpt><trkpt lat="43.925721076481665" lon="11.914245288074902"><ele>526.0</ele><time>2026-04-14T06:54:35Z</time></trkpt><trkpt lat="43.92583075768848" lon="11.914208672647039"><ele>526.0</ele><time>2026-04-14T06:54:36Z</time></trkpt><trkpt lat="43.925936796424224" lon="11.914167460157426"><ele>527.8</ele><time>2026-04-14T06:54:37Z</time></trkpt><trkpt lat="43.92603688418219" lon="11.914118055342598"><ele>529.6</ele><time>2026-04-14T06:54:38Z</time></trkpt><trkpt lat="43.926134346947265" lon="11.914062848045287"><ele>531.4</ele><time>2026-04-14T06:54:39Z</time></trkpt><trkpt lat="43.926226242908974" lon="11.913982551688726"><ele>533.2</ele><time>2026-04-14T06:54:40Z</time></trkpt><trkpt lat="43.92632214332806" lon="11.913863602088062"><ele>535.0</ele><time>2026-04-14T06:54:41Z</time></trkpt><trkpt lat="43.926411967343036" lon="11.91372105775124"><ele>535.0</ele><time>2026-04-14T06:54:42Z</time></trkpt><trkpt lat="43.92651273600768" lon="11.913557689117948"><ele>535.0</ele><time>2026-04-14T06:54:43Z</time></trkpt><trkpt lat="43.92661469233186" lon="11.91338293811603"><ele>535.0</ele><time>2026-04-14T06:54:44Z</time></trkpt><trkpt lat="43.92670697828507" lon="11.913206289263618"><ele>534.75</ele><time>2026-04-14T06:54:45Z</time></trkpt><trkpt lat="43.92680581855184" lon="11.913048423563282"><ele>534.5</ele><time>2026-04-14T06:54:46Z</time></trkpt><trkpt lat="43.9269162204175" lon="11.912913534541048"><ele>534.25</ele><time>2026-04-14T06:54:47Z</time></trkpt><trkpt lat="43.92703456836294" lon="11.912815995082937"><ele>534.0</ele><time>2026-04-14T06:54:48Z</time></trkpt><trkpt lat="43.92715158933833" lon="11.912746704745896"><ele>534.0</ele><time>2026-04-14T06:54:49Z</time></trkpt><trkpt lat="43.9272629308613" lon="11.91268092986615"><ele>534.0</ele><time>2026-04-14T06:54:50Z</time></trkpt><trkpt lat="43.927377946669566" lon="11.912606917824634"><ele>534.0</ele><time>2026-04-14T06:54:51Z</time></trkpt><trkpt lat="43.92750095670466" lon="11.912522849332408"><ele>534.0</ele><time>2026-04-14T06:54:52Z</time></trkpt><trkpt lat="43.927628361856925" lon="11.912442388363171"><ele>534.75</ele><time>2026-04-14T06:54:53Z</time></trkpt><trkpt lat="43.9277600481079" lon="11.912380434491107"><ele>535.5</ele><time>2026-04-14T06:54:54Z</time></trkpt><trkpt lat="43.92790187187191" lon="11.912352513366747"><ele>536.25</ele><time>2026-04-14T06:54:55Z</time></trkpt><trkpt lat="43.92804382945008" lon="11.912334280173061"><ele>537.0</ele><time>2026-04-14T06:54:56Z</time></trkpt><trkpt lat="43.9281923643722" lon="11.912316386934297"><ele>537.0</ele><time>2026-04-14T06:54:57Z</time></trkpt><trkpt lat="43.92834559142521" lon="11.912302917021146"><ele>537.0</ele><time>2026-04-14T06:54:58Z</time></trkpt><trkpt lat="43.92849546229005" lon="11.912285628121897"><ele>537.0</ele><time>2026-04-14T06:54:59Z</time></trkpt><trkpt lat="43.928642024605566" lon="11.91226742176431"><ele>534.25</ele><time>2026-04-14T06:55:00Z</time></trkpt><trkpt lat="43.92878885886255" lon="11.912247491129184"><ele>531.5</ele><time>2026-04-14T06:55:01Z</time></trkpt><trkpt lat="43.92893546283308" lon="11.912218168568957"><ele>528.75</ele><time>2026-04-14T06:55:02Z</time></trkpt><trkpt lat="43.92907210378794" lon="11.912177013803074"><ele>526.0</ele><time>2026-04-14T06:55:03Z</time></trkpt><trkpt lat="43.92919819449111" lon="11.912104194276083"><ele>525.0</ele><time>2026-04-14T06:55:04Z</time></trkpt><trkpt lat="43.92931114604476" lon="11.911992125794228"><ele>524.0</ele><time>2026-04-14T06:55:05Z</time></trkpt><trkpt lat="43.92942012587697" lon="11.911854613574407"><ele>523.0</ele><time>2026-04-14T06:55:06Z</time></trkpt><trkpt lat="43.92952337805506" lon="11.911706652964092"><ele>522.0</ele><time>2026-04-14T06:55:07Z</time></trkpt><trkpt lat="43.92962639162926" lon="11.911560102192563"><ele>522.0</ele><time>2026-04-14T06:55:08Z</time></trkpt><trkpt lat="43.929735257459406" lon="11.911425019443154"><ele>522.0</ele><time>2026-04-14T06:55:09Z</time></trkpt><trkpt lat="43.92985542413646" lon="11.911312783533498"><ele>522.0</ele><time>2026-04-14T06:55:10Z</time></trkpt><trkpt lat="43.929986645735845" lon="11.911237275089713"><ele>522.0</ele><time>2026-04-14T06:55:11Z</time></trkpt><trkpt lat="43.930130069450804" lon="11.911183553831146"><ele>517.0</ele><time>2026-04-14T06:55:12Z</time></trkpt><trkpt lat="43.930281831648784" lon="11.911151737583245"><ele>512.0</ele><time>2026-04-14T06:55:13Z</time></trkpt><trkpt lat="43.93043773187793" lon="11.9111108838949"><ele>507.0</ele><time>2026-04-14T06:55:14Z</time></trkpt><trkpt lat="43.9305894118198" lon="11.911070691559981"><ele>507.0</ele><time>2026-04-14T06:55:15Z</time></trkpt><trkpt lat="43.93074160152411" lon="11.911029895189284"><ele>507.0</ele><time>2026-04-14T06:55:16Z</time></trkpt><trkpt lat="43.9308945452577" lon="11.910989768259126"><ele>507.0</ele><time>2026-04-14T06:55:17Z</time></trkpt><trkpt lat="43.931045126226984" lon="11.91094885498338"><ele>508.25</ele><time>2026-04-14T06:55:18Z</time></trkpt><trkpt lat="43.93119328359963" lon="11.910906168157023"><ele>509.5</ele><time>2026-04-14T06:55:19Z</time></trkpt><trkpt lat="43.93133202540739" lon="11.910863424759723"><ele>510.75</ele><time>2026-04-14T06:55:20Z</time></trkpt><trkpt lat="43.93145534060603" lon="11.910815013870344"><ele>512.0</ele><time>2026-04-14T06:55:21Z</time></trkpt><trkpt lat="43.93156085100974" lon="11.910764904767168"><ele>511.99999999999994</ele><time>2026-04-14T06:55:22Z</time></trkpt><trkpt lat="43.931654052226364" lon="11.910747601720889"><ele>512.0</ele><time>2026-04-14T06:55:23Z</time></trkpt><trkpt lat="43.93173210822093" lon="11.91072208832387"><ele>512.0</ele><time>2026-04-14T06:55:24Z</time></trkpt><trkpt lat="43.93179866078079" lon="11.910707325739171"><ele>512.0</ele><time>2026-04-14T06:55:25Z</time></trkpt><trkpt lat="43.93188345129751" lon="11.910828631217093"><ele>511.99999999999994</ele><time>2026-04-14T06:55:27Z</time></trkpt><trkpt lat="43.93187079943651" lon="11.910924635442617"><ele>512.0</ele><time>2026-04-14T06:55:28Z</time></trkpt><trkpt lat="43.931819139214625" lon="11.91100608856478"><ele>510.6</ele><time>2026-04-14T06:55:29Z</time></trkpt><trkpt lat="43.93173975721748" lon="11.911064801197766"><ele>509.20000000000005</ele><time>2026-04-14T06:55:30Z</time></trkpt><trkpt lat="43.93164239806183" lon="11.911127848729423"><ele>507.8</ele><time>2026-04-14T06:55:31Z</time></trkpt><trkpt lat="43.93154090865979" lon="11.91119843366479"><ele>506.4</ele><time>2026-04-14T06:55:32Z</time></trkpt><trkpt lat="43.93142420571091" lon="11.91128202142901"><ele>505.0</ele><time>2026-04-14T06:55:33Z</time></trkpt><trkpt lat="43.93129431866446" lon="11.911373536398742"><ele>505.5</ele><time>2026-04-14T06:55:34Z</time></trkpt><trkpt lat="43.93117526001158" lon="11.911464129654696"><ele>506.0</ele><time>2026-04-14T06:55:35Z</time></trkpt><trkpt lat="43.93105357562374" lon="11.911549441236707"><ele>506.5</ele><time>2026-04-14T06:55:36Z</time></trkpt><trkpt lat="43.930932398062126" lon="11.911633044654513"><ele>507.0</ele><time>2026-04-14T06:55:37Z</time></trkpt><trkpt lat="43.930816764606746" lon="11.911724831385577"><ele>504.5</ele><time>2026-04-14T06:55:38Z</time></trkpt><trkpt lat="43.93072270553171" lon="11.91183103510963"><ele>502.0</ele><time>2026-04-14T06:55:39Z</time></trkpt><trkpt lat="43.93065694552821" lon="11.911960753342132"><ele>499.5</ele><time>2026-04-14T06:55:40Z</time></trkpt><trkpt lat="43.93060944066376" lon="11.912112857475478"><ele>497.0</ele><time>2026-04-14T06:55:41Z</time></trkpt><trkpt lat="43.93058369520752" lon="11.912280879867504"><ele>497.0</ele><time>2026-04-14T06:55:42Z</time></trkpt><trkpt lat="43.93055481842798" lon="11.912454233843732"><ele>497.0</ele><time>2026-04-14T06:55:43Z</time></trkpt><trkpt lat="43.93052126069333" lon="11.912626889687985"><ele>497.0</ele><time>2026-04-14T06:55:44Z</time></trkpt><trkpt lat="43.930479585465136" lon="11.912789559197954"><ele>497.0</ele><time>2026-04-14T06:55:45Z</time></trkpt><trkpt lat="43.93045432790694" lon="11.912924834674747"><ele>495.40000000000003</ele><time>2026-04-14T06:55:46Z</time></trkpt><trkpt lat="43.930430193798685" lon="11.91304190479962"><ele>493.80000000000007</ele><time>2026-04-14T06:55:47Z</time></trkpt><trkpt lat="43.93043137361523" lon="11.913138066677313"><ele>492.2</ele><time>2026-04-14T06:55:48Z</time></trkpt><trkpt lat="43.93049032018076" lon="11.913293308017272"><ele>490.6</ele><time>2026-04-14T06:55:50Z</time></trkpt><trkpt lat="43.93058771868361" lon="11.913280639033157"><ele>489.0</ele><time>2026-04-14T06:55:51Z</time></trkpt><trkpt lat="43.930663795934166" lon="11.91325297673115"><ele>489.0</ele><time>2026-04-14T06:55:52Z</time></trkpt><trkpt lat="43.93070790255108" lon="11.913133157130176"><ele>489.0</ele><time>2026-04-14T06:55:53Z</time></trkpt><trkpt lat="43.93073808508767" lon="11.913005212873859"><ele>489.0</ele><time>2026-04-14T06:55:54Z</time></trkpt><trkpt lat="43.93076161263839" lon="11.912848925120677"><ele>489.0</ele><time>2026-04-14T06:55:55Z</time></trkpt><trkpt lat="43.93080255243711" lon="11.912701882881239"><ele>489.0</ele><time>2026-04-14T06:55:56Z</time></trkpt><trkpt lat="43.93085425085865" lon="11.91256847788971"><ele>488.4</ele><time>2026-04-14T06:55:57Z</time></trkpt><trkpt lat="43.930920989776446" lon="11.912460690290526"><ele>487.79999999999995</ele><time>2026-04-14T06:55:58Z</time></trkpt><trkpt lat="43.931002098393634" lon="11.912367794062423"><ele>487.20000000000005</ele><time>2026-04-14T06:55:59Z</time></trkpt><trkpt lat="43.93110015035534" lon="11.912319909417198"><ele>486.6</ele><time>2026-04-14T06:56:00Z</time></trkpt><trkpt lat="43.93121002007487" lon="11.912299136404798"><ele>486.0</ele><time>2026-04-14T06:56:01Z</time></trkpt><trkpt lat="43.931328006985005" lon="11.912292372638523"><ele>486.0</ele><time>2026-04-14T06:56:02Z</time></trkpt><trkpt lat="43.931454797236604" lon="11.912288993235842"><ele>486.0</ele><time>2026-04-14T06:56:03Z</time></trkpt><trkpt lat="43.9315805632643" lon="11.91227629077373"><ele>486.0</ele><time>2026-04-14T06:56:04Z</time></trkpt><trkpt lat="43.93170266681801" lon="11.912270164033906"><ele>486.0</ele><time>2026-04-14T06:56:05Z</time></trkpt><trkpt lat="43.931820215421425" lon="11.912287507979421"><ele>487.0</ele><time>2026-04-14T06:56:06Z</time></trkpt><trkpt lat="43.93193236405017" lon="11.912352726733381"><ele>488.0</ele><time>2026-04-14T06:56:07Z</time></trkpt><trkpt lat="43.93204503054473" lon="11.912448268358139"><ele>489.0</ele><time>2026-04-14T06:56:08Z</time></trkpt><trkpt lat="43.93214912922757" lon="11.912574545998647"><ele>490.0</ele><time>2026-04-14T06:56:09Z</time></trkpt><trkpt lat="43.93225358345081" lon="11.912707555879448"><ele>489.0</ele><time>2026-04-14T06:56:10Z</time></trkpt><trkpt lat="43.93235045511476" lon="11.912842551307264"><ele>488.0</ele><time>2026-04-14T06:56:11Z</time></trkpt><trkpt lat="43.93243773352756" lon="11.913002572359368"><ele>487.0</ele><time>2026-04-14T06:56:12Z</time></trkpt><trkpt lat="43.932508466252365" lon="11.913168096074212"><ele>486.0</ele><time>2026-04-14T06:56:13Z</time></trkpt><trkpt lat="43.93256561340591" lon="11.913342099823769"><ele>482.0</ele><time>2026-04-14T06:56:14Z</time></trkpt><trkpt lat="43.93262599218937" lon="11.913501505936747"><ele>478.0</ele><time>2026-04-14T06:56:15Z</time></trkpt><trkpt lat="43.932693934463465" lon="11.913636653568908"><ele>474.0</ele><time>2026-04-14T06:56:16Z</time></trkpt><trkpt lat="43.932773121225274" lon="11.913751097127488"><ele>470.0</ele><time>2026-04-14T06:56:17Z</time></trkpt><trkpt lat="43.9328761055998" lon="11.913856612598794"><ele>470.0</ele><time>2026-04-14T06:56:18Z</time></trkpt><trkpt lat="43.93299866136979" lon="11.913951415329883"><ele>470.0</ele><time>2026-04-14T06:56:19Z</time></trkpt><trkpt lat="43.933123143976715" lon="11.914036526700025"><ele>470.0</ele><time>2026-04-14T06:56:20Z</time></trkpt><trkpt lat="43.93324390851112" lon="11.914116212340446"><ele>470.0</ele><time>2026-04-14T06:56:21Z</time></trkpt><trkpt lat="43.93336266609612" lon="11.914191132399566"><ele>464.0</ele><time>2026-04-14T06:56:22Z</time></trkpt><trkpt lat="43.93347615169372" lon="11.914265841082084"><ele>458.0</ele><time>2026-04-14T06:56:23Z</time></trkpt><trkpt lat="43.93358111676665" lon="11.914340912595371"><ele>452.0</ele><time>2026-04-14T06:56:24Z</time></trkpt><trkpt lat="43.93368095751924" lon="11.914400496234059"><ele>446.0</ele><time>2026-04-14T06:56:25Z</time></trkpt><trkpt lat="43.93378520213833" lon="11.91444218578973"><ele>446.0</ele><time>2026-04-14T06:56:26Z</time></trkpt><trkpt lat="43.93388817606159" lon="11.91443626971582"><ele>446.0</ele><time>2026-04-14T06:56:27Z</time></trkpt><trkpt lat="43.93399183935202" lon="11.914396147820064"><ele>446.0</ele><time>2026-04-14T06:56:28Z</time></trkpt><trkpt lat="43.93406138879833" lon="11.914274259974835"><ele>446.0</ele><time>2026-04-14T06:56:29Z</time></trkpt><trkpt lat="43.934128374109605" lon="11.914139849848608"><ele>446.0</ele><time>2026-04-14T06:56:30Z</time></trkpt><trkpt lat="43.93421225825792" lon="11.914002768683837"><ele>446.25</ele><time>2026-04-14T06:56:31Z</time></trkpt><trkpt lat="43.93428867974286" lon="11.913867465866582"><ele>446.5</ele><time>2026-04-14T06:56:32Z</time></trkpt><trkpt lat="43.93436369528434" lon="11.913742068951851"><ele>446.75</ele><time>2026-04-14T06:56:33Z</time></trkpt><trkpt lat="43.93447395734132" lon="11.913660577900309"><ele>447.0</ele><time>2026-04-14T06:56:34Z</time></trkpt><trkpt lat="43.934605341715454" lon="11.91359680451959"><ele>447.0</ele><time>2026-04-14T06:56:35Z</time></trkpt><trkpt lat="43.934746604065715" lon="11.913533733069938"><ele>447.0</ele><time>2026-04-14T06:56:36Z</time></trkpt><trkpt lat="43.934887324688205" lon="11.913498036946264"><ele>447.0</ele><time>2026-04-14T06:56:37Z</time></trkpt><trkpt lat="43.93502014746705" lon="11.913444035840934"><ele>447.0</ele><time>2026-04-14T06:56:38Z</time></trkpt><trkpt lat="43.93515061666603" lon="11.913400424105351"><ele>445.75</ele><time>2026-04-14T06:56:39Z</time></trkpt><trkpt lat="43.935282647715546" lon="11.913400100331677"><ele>444.5</ele><time>2026-04-14T06:56:40Z</time></trkpt><trkpt lat="43.93541314298975" lon="11.913437524673084"><ele>443.25</ele><time>2026-04-14T06:56:41Z</time></trkpt><trkpt lat="43.935549336249565" lon="11.913457074735714"><ele>442.0</ele><time>2026-04-14T06:56:42Z</time></trkpt><trkpt lat="43.935688760133736" lon="11.91348178786816"><ele>442.0</ele><time>2026-04-14T06:56:43Z</time></trkpt><trkpt lat="43.935834053352195" lon="11.913476703091433"><ele>442.0</ele><time>2026-04-14T06:56:44Z</time></trkpt><trkpt lat="43.93597739131991" lon="11.913459285845253"><ele>442.0</ele><time>2026-04-14T06:56:45Z</time></trkpt><trkpt lat="43.93611680200753" lon="11.91344903130949"><ele>442.0</ele><time>2026-04-14T06:56:46Z</time></trkpt><trkpt lat="43.93625536845203" lon="11.913465100020565"><ele>441.5</ele><time>2026-04-14T06:56:47Z</time></trkpt><trkpt lat="43.93638431931295" lon="11.913533384607545"><ele>441.0</ele><time>2026-04-14T06:56:48Z</time></trkpt><trkpt lat="43.93651947369937" lon="11.913580368711997"><ele>440.5</ele><time>2026-04-14T06:56:49Z</time></trkpt><trkpt lat="43.936640455427764" lon="11.913660945571454"><ele>440.0</ele><time>2026-04-14T06:56:50Z</time></trkpt><trkpt lat="43.93676340181305" lon="11.91372900522142"><ele>439.0</ele><time>2026-04-14T06:56:51Z</time></trkpt><trkpt lat="43.93688912841995" lon="11.913777514465663"><ele>438.0</ele><time>2026-04-14T06:56:52Z</time></trkpt><trkpt lat="43.93701984656953" lon="11.913802833497616"><ele>437.0</ele><time>2026-04-14T06:56:53Z</time></trkpt><trkpt lat="43.937159428068924" lon="11.913803095573725"><ele>436.0</ele><time>2026-04-14T06:56:54Z</time></trkpt><trkpt lat="43.937303141370776" lon="11.913777481018357"><ele>436.0</ele><time>2026-04-14T06:56:55Z</time></trkpt><trkpt lat="43.93744227645167" lon="11.913743026047328"><ele>436.0</ele><time>2026-04-14T06:56:56Z</time></trkpt><trkpt lat="43.93757319320255" lon="11.913709641099107"><ele>436.0</ele><time>2026-04-14T06:56:57Z</time></trkpt><trkpt lat="43.937700022140184" lon="11.913677408690946"><ele>436.0</ele><time>2026-04-14T06:56:58Z</time></trkpt><trkpt lat="43.93782605948895" lon="11.913650697446124"><ele>436.0</ele><time>2026-04-14T06:56:59Z</time></trkpt><trkpt lat="43.937935533612446" lon="11.913629627162381"><ele>436.0</ele><time>2026-04-14T06:57:00Z</time></trkpt><trkpt lat="43.9380258199256" lon="11.913602930707611"><ele>436.0</ele><time>2026-04-14T06:57:01Z</time></trkpt><trkpt lat="43.938103231807496" lon="11.91355741676754"><ele>436.0</ele><time>2026-04-14T06:57:02Z</time></trkpt><trkpt lat="43.93817549504132" lon="11.913506852583406"><ele>436.0</ele><time>2026-04-14T06:57:03Z</time></trkpt><trkpt lat="43.93821682523039" lon="11.913382052505137"><ele>438.5</ele><time>2026-04-14T06:57:04Z</time></trkpt><trkpt lat="43.9381970805017" lon="11.913234228659709"><ele>441.0</ele><time>2026-04-14T06:57:05Z</time></trkpt><trkpt lat="43.93816974766895" lon="11.913083553838186"><ele>443.5</ele><time>2026-04-14T06:57:06Z</time></trkpt><trkpt lat="43.93814739133113" lon="11.912916237965465"><ele>446.0</ele><time>2026-04-14T06:57:07Z</time></trkpt><trkpt lat="43.93810492967926" lon="11.912763874570926"><ele>446.0</ele><time>2026-04-14T06:57:08Z</time></trkpt><trkpt lat="43.93803878890857" lon="11.912630662690784"><ele>446.0</ele><time>2026-04-14T06:57:09Z</time></trkpt><trkpt lat="43.93799726303177" lon="11.912482028349253"><ele>446.0</ele><time>2026-04-14T06:57:10Z</time></trkpt><trkpt lat="43.93794333513971" lon="11.912339746130002"><ele>446.0</ele><time>2026-04-14T06:57:11Z</time></trkpt><trkpt lat="43.93788952338544" lon="11.91220125606317"><ele>443.8</ele><time>2026-04-14T06:57:12Z</time></trkpt><trkpt lat="43.93788454962527" lon="11.912045297084358"><ele>441.6</ele><time>2026-04-14T06:57:13Z</time></trkpt><trkpt lat="43.937894494574074" lon="11.911911327430191"><ele>439.4</ele><time>2026-04-14T06:57:14Z</time></trkpt><trkpt lat="43.93789630336655" lon="11.911785769116719"><ele>437.2</ele><time>2026-04-14T06:57:15Z</time></trkpt><trkpt lat="43.93786868539172" lon="11.91168461813663"><ele>435.0</ele><time>2026-04-14T06:57:16Z</time></trkpt><trkpt lat="43.93781305015" lon="11.911597752935856"><ele>434.8</ele><time>2026-04-14T06:57:17Z</time></trkpt><trkpt lat="43.9377222897194" lon="11.911561885791663"><ele>434.6</ele><time>2026-04-14T06:57:18Z</time></trkpt><trkpt lat="43.93761737445751" lon="11.91155652856713"><ele>434.4</ele><time>2026-04-14T06:57:19Z</time></trkpt><trkpt lat="43.93749987612989" lon="11.91154763031586"><ele>434.2</ele><time>2026-04-14T06:57:20Z</time></trkpt><trkpt lat="43.93736904664592" lon="11.911530634374472"><ele>434.0</ele><time>2026-04-14T06:57:21Z</time></trkpt><trkpt lat="43.937240636687974" lon="11.911498802596823"><ele>434.0</ele><time>2026-04-14T06:57:22Z</time></trkpt><trkpt lat="43.937108650889684" lon="11.911454158906981"><ele>434.0</ele><time>2026-04-14T06:57:23Z</time></trkpt><trkpt lat="43.93697970715653" lon="11.91139233261589"><ele>434.0</ele><time>2026-04-14T06:57:24Z</time></trkpt><trkpt lat="43.93685165520292" lon="11.911312359506242"><ele>434.0</ele><time>2026-04-14T06:57:25Z</time></trkpt><trkpt lat="43.93672575429272" lon="11.911222619168504"><ele>437.75</ele><time>2026-04-14T06:57:26Z</time></trkpt><trkpt lat="43.93660519812055" lon="11.911125279533941"><ele>441.5</ele><time>2026-04-14T06:57:27Z</time></trkpt><trkpt lat="43.936485998905624" lon="11.91102151391675"><ele>445.25</ele><time>2026-04-14T06:57:28.001Z</time></trkpt><trkpt lat="43.93636929029583" lon="11.910914513413031"><ele>449.0</ele><time>2026-04-14T06:57:29.001Z</time></trkpt><trkpt lat="43.936257849464944" lon="11.910813325462751"><ele>443.0</ele><time>2026-04-14T06:57:30.001Z</time></trkpt><trkpt lat="43.936168935212336" lon="11.910711916234067"><ele>437.0</ele><time>2026-04-14T06:57:31.001Z</time></trkpt><trkpt lat="43.936078330710615" lon="11.910641608519823"><ele>431.0</ele><time>2026-04-14T06:57:32.001Z</time></trkpt><trkpt lat="43.93600494290484" lon="11.910578032495168"><ele>425.0</ele><time>2026-04-14T06:57:33.001Z</time></trkpt><trkpt lat="43.93594788560272" lon="11.910524444236742"><ele>419.0</ele><time>2026-04-14T06:57:34.001Z</time></trkpt><trkpt lat="43.93589761966724" lon="11.910414186134204"><ele>418.99999999999994</ele><time>2026-04-14T06:57:36.001Z</time></trkpt><trkpt lat="43.93598261181812" lon="11.910348334640934"><ele>419.0</ele><time>2026-04-14T06:57:38Z</time></trkpt><trkpt lat="43.936050463288936" lon="11.910379083686403"><ele>419.0</ele><time>2026-04-14T06:57:39Z</time></trkpt><trkpt lat="43.936134524085745" lon="11.910411402928428"><ele>419.0</ele><time>2026-04-14T06:57:40Z</time></trkpt><trkpt lat="43.93622496212966" lon="11.910401737330153"><ele>418.99999999999994</ele><time>2026-04-14T06:57:41Z</time></trkpt><trkpt lat="43.93630670110257" lon="11.910376446002468"><ele>419.0</ele><time>2026-04-14T06:57:42Z</time></trkpt><trkpt lat="43.93638444297746" lon="11.9103209056143"><ele>418.99999999999994</ele><time>2026-04-14T06:57:43Z</time></trkpt><trkpt lat="43.93646340722518" lon="11.910266824833938"><ele>419.0</ele><time>2026-04-14T06:57:44Z</time></trkpt><trkpt lat="43.9365171764047" lon="11.910162103410954"><ele>419.0</ele><time>2026-04-14T06:57:45Z</time></trkpt><trkpt lat="43.936594150332986" lon="11.910113998442707"><ele>419.0</ele><time>2026-04-14T06:57:46Z</time></trkpt><trkpt lat="43.93667723993317" lon="11.910134252222619"><ele>418.99999999999994</ele><time>2026-04-14T06:57:47Z</time></trkpt><trkpt lat="43.93675576146022" lon="11.910198599902662"><ele>419.0</ele><time>2026-04-14T06:57:48Z</time></trkpt><trkpt lat="43.93683301203097" lon="11.910289271660504"><ele>416.2</ele><time>2026-04-14T06:57:49Z</time></trkpt><trkpt lat="43.936906147669596" lon="11.910371067577229"><ele>413.4</ele><time>2026-04-14T06:57:50Z</time></trkpt><trkpt lat="43.936973628860734" lon="11.91041978459731"><ele>410.6</ele><time>2026-04-14T06:57:51Z</time></trkpt><trkpt lat="43.93708805312235" lon="11.910405844596179"><ele>407.8</ele><time>2026-04-14T06:57:53Z</time></trkpt><trkpt lat="43.93714117245869" lon="11.910355581894489"><ele>405.0</ele><time>2026-04-14T06:57:54Z</time></trkpt><trkpt lat="43.93705138845962" lon="11.910145210008999"><ele>399.8</ele><time>2026-04-14T06:57:56Z</time></trkpt><trkpt lat="43.936991504375" lon="11.910032960859645"><ele>394.6</ele><time>2026-04-14T06:57:57Z</time></trkpt><trkpt lat="43.93692474764559" lon="11.90990520835539"><ele>389.4</ele><time>2026-04-14T06:57:58Z</time></trkpt><trkpt lat="43.93687074246446" lon="11.909767788109855"><ele>384.2</ele><time>2026-04-14T06:57:59Z</time></trkpt><trkpt lat="43.93683701986487" lon="11.909619561734688"><ele>379.0</ele><time>2026-04-14T06:58:00Z</time></trkpt><trkpt lat="43.93680812166973" lon="11.90947070563586"><ele>379.0</ele><time>2026-04-14T06:58:01Z</time></trkpt><trkpt lat="43.93677621271956" lon="11.90931952091961"><ele>379.0</ele><time>2026-04-14T06:58:02Z</time></trkpt><trkpt lat="43.93673220109478" lon="11.909170244563688"><ele>379.0</ele><time>2026-04-14T06:58:03Z</time></trkpt><trkpt lat="43.93664865537226" lon="11.909058540121878"><ele>379.0</ele><time>2026-04-14T06:58:04Z</time></trkpt><trkpt lat="43.936554331028006" lon="11.908970156009033"><ele>380.75</ele><time>2026-04-14T06:58:05Z</time></trkpt><trkpt lat="43.93643378470941" lon="11.908920585373773"><ele>382.5</ele><time>2026-04-14T06:58:06Z</time></trkpt><trkpt lat="43.9362992245619" lon="11.908894044029312"><ele>384.25</ele><time>2026-04-14T06:58:07Z</time></trkpt><trkpt lat="43.93614798165904" lon="11.908865260000216"><ele>386.0</ele><time>2026-04-14T06:58:08Z</time></trkpt><trkpt lat="43.93601000400134" lon="11.90883156261585"><ele>385.75</ele><time>2026-04-14T06:58:09Z</time></trkpt><trkpt lat="43.9358683769809" lon="11.908792338906279"><ele>385.5</ele><time>2026-04-14T06:58:10Z</time></trkpt><trkpt lat="43.935727342439336" lon="11.908758265139317"><ele>385.25</ele><time>2026-04-14T06:58:11Z</time></trkpt><trkpt lat="43.93560469709327" lon="11.908727602048621"><ele>385.0</ele><time>2026-04-14T06:58:12Z</time></trkpt><trkpt lat="43.93550051262714" lon="11.90869407422832"><ele>385.0</ele><time>2026-04-14T06:58:13Z</time></trkpt><trkpt lat="43.93540978782307" lon="11.90861608480872"><ele>385.0</ele><time>2026-04-14T06:58:14Z</time></trkpt><trkpt lat="43.9353340045029" lon="11.908502332123076"><ele>385.0</ele><time>2026-04-14T06:58:15Z</time></trkpt><trkpt lat="43.93529004856553" lon="11.908340875721159"><ele>385.0</ele><time>2026-04-14T06:58:16Z</time></trkpt><trkpt lat="43.93523969336189" lon="11.908172785508578"><ele>380.25</ele><time>2026-04-14T06:58:17Z</time></trkpt><trkpt lat="43.93519594496138" lon="11.907995512893073"><ele>375.5</ele><time>2026-04-14T06:58:18Z</time></trkpt><trkpt lat="43.93516434558422" lon="11.907817021630839"><ele>370.75</ele><time>2026-04-14T06:58:19Z</time></trkpt><trkpt lat="43.93514233047478" lon="11.907631854629537"><ele>366.0</ele><time>2026-04-14T06:58:20Z</time></trkpt><trkpt lat="43.93512526256296" lon="11.9074462963816"><ele>363.0</ele><time>2026-04-14T06:58:21Z</time></trkpt><trkpt lat="43.93509874228945" lon="11.907274535756166"><ele>360.0</ele><time>2026-04-14T06:58:22Z</time></trkpt><trkpt lat="43.93508975602019" lon="11.907123811184423"><ele>357.0</ele><time>2026-04-14T06:58:23Z</time></trkpt><trkpt lat="43.935075081779914" lon="11.90700576514034"><ele>354.0</ele><time>2026-04-14T06:58:24Z</time></trkpt><trkpt lat="43.93507650685988" lon="11.906911157234553"><ele>351.0</ele><time>2026-04-14T06:58:25Z</time></trkpt><trkpt lat="43.93507476934322" lon="11.90680464520357"><ele>351.0</ele><time>2026-04-14T06:58:27Z</time></trkpt><trkpt lat="43.935136346859586" lon="11.906737148445526"><ele>351.0</ele><time>2026-04-14T06:58:29Z</time></trkpt><trkpt lat="43.93523833598165" lon="11.906831748324716"><ele>351.0</ele><time>2026-04-14T06:58:31Z</time></trkpt><trkpt lat="43.93527331862644" lon="11.906964915590143"><ele>351.0</ele><time>2026-04-14T06:58:32Z</time></trkpt><trkpt lat="43.93531407444082" lon="11.907102712607383"><ele>351.0</ele><time>2026-04-14T06:58:33Z</time></trkpt><trkpt lat="43.935359362279335" lon="11.907223140179667"><ele>351.0</ele><time>2026-04-14T06:58:34Z</time></trkpt><trkpt lat="43.935416303675446" lon="11.907313902776002"><ele>351.0</ele><time>2026-04-14T06:58:35Z</time></trkpt><trkpt lat="43.935497799731586" lon="11.907360578703571"><ele>351.0</ele><time>2026-04-14T06:58:36Z</time></trkpt><trkpt lat="43.93558685408812" lon="11.907356532908164"><ele>351.0</ele><time>2026-04-14T06:58:37Z</time></trkpt><trkpt lat="43.93568133797156" lon="11.907301292302135"><ele>351.0</ele><time>2026-04-14T06:58:38Z</time></trkpt><trkpt lat="43.93576496990125" lon="11.907232277161642"><ele>351.0</ele><time>2026-04-14T06:58:39Z</time></trkpt><trkpt lat="43.93585812633063" lon="11.907196033901313"><ele>351.0</ele><time>2026-04-14T06:58:40Z</time></trkpt><trkpt lat="43.935967875967854" lon="11.90720825237783"><ele>351.0</ele><time>2026-04-14T06:58:41Z</time></trkpt><trkpt lat="43.936082337687786" lon="11.90726642353664"><ele>351.0</ele><time>2026-04-14T06:58:42Z</time></trkpt><trkpt lat="43.93619853560595" lon="11.907355593041983"><ele>354.0</ele><time>2026-04-14T06:58:43Z</time></trkpt><trkpt lat="43.93631401025069" lon="11.907458275439481"><ele>357.0</ele><time>2026-04-14T06:58:44Z</time></trkpt><trkpt lat="43.936427814416724" lon="11.90756120149758"><ele>360.0</ele><time>2026-04-14T06:58:45Z</time></trkpt><trkpt lat="43.936538896846365" lon="11.90767038877942"><ele>363.0</ele><time>2026-04-14T06:58:46Z</time></trkpt><trkpt lat="43.93664831283965" lon="11.907785534590952"><ele>355.75</ele><time>2026-04-14T06:58:47Z</time></trkpt><trkpt lat="43.93674922691123" lon="11.907899870536014"><ele>348.5</ele><time>2026-04-14T06:58:48Z</time></trkpt><trkpt lat="43.936846821118486" lon="11.908008839328707"><ele>341.25</ele><time>2026-04-14T06:58:49Z</time></trkpt><trkpt lat="43.93693911868777" lon="11.908114227370712"><ele>334.0</ele><time>2026-04-14T06:58:50Z</time></trkpt><trkpt lat="43.93700532165039" lon="11.908208351063314"><ele>334.0</ele><time>2026-04-14T06:58:51Z</time></trkpt><trkpt lat="43.937057481871605" lon="11.908283222714553"><ele>334.0</ele><time>2026-04-14T06:58:52Z</time></trkpt><trkpt lat="43.93715630419625" lon="11.908287904665627"><ele>334.0</ele><time>2026-04-14T06:58:54Z</time></trkpt><trkpt lat="43.937189062269056" lon="11.908141752505921"><ele>334.0</ele><time>2026-04-14T06:58:56Z</time></trkpt><trkpt lat="43.937146117540756" lon="11.908067017029747"><ele>334.0</ele><time>2026-04-14T06:58:57Z</time></trkpt><trkpt lat="43.93707461048191" lon="11.907995104924918"><ele>334.0</ele><time>2026-04-14T06:58:58Z</time></trkpt><trkpt lat="43.9369839226273" lon="11.907910702390346"><ele>334.0</ele><time>2026-04-14T06:58:59Z</time></trkpt><trkpt lat="43.93689429871487" lon="11.90779361882023"><ele>334.0</ele><time>2026-04-14T06:59:00Z</time></trkpt><trkpt lat="43.936802162419404" lon="11.907651904936978"><ele>334.0</ele><time>2026-04-14T06:59:01Z</time></trkpt><trkpt lat="43.936719213569965" lon="11.907510760701452"><ele>334.0</ele><time>2026-04-14T06:59:02Z</time></trkpt><trkpt lat="43.93664103136059" lon="11.907376282692834"><ele>334.79999999999995</ele><time>2026-04-14T06:59:03Z</time></trkpt><trkpt lat="43.93659585240157" lon="11.907257721304159"><ele>335.59999999999997</ele><time>2026-04-14T06:59:04Z</time></trkpt><trkpt lat="43.93654987890523" lon="11.907168399329766"><ele>336.4</ele><time>2026-04-14T06:59:05Z</time></trkpt><trkpt lat="43.93653129313697" lon="11.907053695137051"><ele>337.2</ele><time>2026-04-14T06:59:07Z</time></trkpt><trkpt lat="43.93660440606757" lon="11.907022983834976"><ele>338.0</ele><time>2026-04-14T06:59:09Z</time></trkpt><trkpt lat="43.936697373533924" lon="11.907183269107257"><ele>337.0</ele><time>2026-04-14T06:59:11Z</time></trkpt><trkpt lat="43.936762368590934" lon="11.907289351234803"><ele>336.0</ele><time>2026-04-14T06:59:12Z</time></trkpt><trkpt lat="43.93685567941688" lon="11.907397513164785"><ele>335.0</ele><time>2026-04-14T06:59:13Z</time></trkpt><trkpt lat="43.936973589164026" lon="11.907501370972508"><ele>334.0</ele><time>2026-04-14T06:59:14Z</time></trkpt><trkpt lat="43.93710809415935" lon="11.907604937000865"><ele>334.0</ele><time>2026-04-14T06:59:15Z</time></trkpt><trkpt lat="43.93724436106067" lon="11.907725288736739"><ele>334.0</ele><time>2026-04-14T06:59:16Z</time></trkpt><trkpt lat="43.93739202766238" lon="11.907828213066423"><ele>334.0</ele><time>2026-04-14T06:59:17Z</time></trkpt><trkpt lat="43.93754356614316" lon="11.907932842947753"><ele>328.3333333333333</ele><time>2026-04-14T06:59:18Z</time></trkpt><trkpt lat="43.937699228986034" lon="11.908017270957965"><ele>322.6666666666667</ele><time>2026-04-14T06:59:19Z</time></trkpt><trkpt lat="43.93784269182071" lon="11.908121582998701"><ele>317.0</ele><time>2026-04-14T06:59:20Z</time></trkpt><trkpt lat="43.93797368482164" lon="11.908248351277813"><ele>317.0</ele><time>2026-04-14T06:59:21Z</time></trkpt><trkpt lat="43.93811389773215" lon="11.908355780151021"><ele>317.0</ele><time>2026-04-14T06:59:22Z</time></trkpt><trkpt lat="43.93826003529002" lon="11.908444323435244"><ele>317.0</ele><time>2026-04-14T06:59:23Z</time></trkpt><trkpt lat="43.93839404220987" lon="11.90855716511349"><ele>316.0</ele><time>2026-04-14T06:59:24Z</time></trkpt><trkpt lat="43.93852263703341" lon="11.908675437279967"><ele>315.0</ele><time>2026-04-14T06:59:25Z</time></trkpt><trkpt lat="43.93865782073063" lon="11.908782404209681"><ele>314.0</ele><time>2026-04-14T06:59:26Z</time></trkpt><trkpt lat="43.938780495316976" lon="11.908910230578238"><ele>314.0</ele><time>2026-04-14T06:59:27Z</time></trkpt><trkpt lat="43.93891178830416" lon="11.90901504888073"><ele>314.0</ele><time>2026-04-14T06:59:28Z</time></trkpt><trkpt lat="43.93905406444272" lon="11.909106969708455"><ele>314.0</ele><time>2026-04-14T06:59:29Z</time></trkpt><trkpt lat="43.939198137113884" lon="11.909179825638272"><ele>314.25</ele><time>2026-04-14T06:59:30Z</time></trkpt><trkpt lat="43.93933994225344" lon="11.909233191301897"><ele>314.5</ele><time>2026-04-14T06:59:31Z</time></trkpt><trkpt lat="43.93948736666997" lon="11.909269637895234"><ele>314.75</ele><time>2026-04-14T06:59:32Z</time></trkpt><trkpt lat="43.9396354733413" lon="11.909283966438766"><ele>315.0</ele><time>2026-04-14T06:59:33Z</time></trkpt><trkpt lat="43.93978086050599" lon="11.909314915018186"><ele>315.0</ele><time>2026-04-14T06:59:34Z</time></trkpt><trkpt lat="43.939913989965184" lon="11.909368827144315"><ele>315.0</ele><time>2026-04-14T06:59:35Z</time></trkpt><trkpt lat="43.94004661731044" lon="11.90939958789286"><ele>315.0</ele><time>2026-04-14T06:59:36Z</time></trkpt><trkpt lat="43.94017461391072" lon="11.90942927467167"><ele>315.0</ele><time>2026-04-14T06:59:37Z</time></trkpt><trkpt lat="43.94030440620395" lon="11.909439322986797"><ele>310.75</ele><time>2026-04-14T06:59:38Z</time></trkpt><trkpt lat="43.94042714355583" lon="11.909468694983905"><ele>306.5</ele><time>2026-04-14T06:59:39Z</time></trkpt><trkpt lat="43.94054869664866" lon="11.909501645144669"><ele>302.25</ele><time>2026-04-14T06:59:40Z</time></trkpt><trkpt lat="43.94065943635266" lon="11.909530949549202"><ele>298.0</ele><time>2026-04-14T06:59:41Z</time></trkpt><trkpt lat="43.9407616705283" lon="11.909554247728655"><ele>298.0</ele><time>2026-04-14T06:59:42Z</time></trkpt><trkpt lat="43.94085957928327" lon="11.909559676402166"><ele>298.0</ele><time>2026-04-14T06:59:43Z</time></trkpt><trkpt lat="43.940966711531225" lon="11.909559956511643"><ele>298.0</ele><time>2026-04-14T06:59:44Z</time></trkpt><trkpt lat="43.94105976208147" lon="11.909475787016111"><ele>298.0</ele><time>2026-04-14T06:59:45Z</time></trkpt><trkpt lat="43.94114702697446" lon="11.909392476095942"><ele>298.0</ele><time>2026-04-14T06:59:46Z</time></trkpt><trkpt lat="43.94123076866465" lon="11.909289557355601"><ele>294.5</ele><time>2026-04-14T06:59:47Z</time></trkpt><trkpt lat="43.94131741180386" lon="11.909190794290097"><ele>291.0</ele><time>2026-04-14T06:59:48Z</time></trkpt><trkpt lat="43.94141417168656" lon="11.90910525704842"><ele>287.5</ele><time>2026-04-14T06:59:49Z</time></trkpt><trkpt lat="43.941500878217" lon="11.908986046409312"><ele>284.0</ele><time>2026-04-14T06:59:50Z</time></trkpt><trkpt lat="43.94159277376436" lon="11.908889026874522"><ele>284.0</ele><time>2026-04-14T06:59:51Z</time></trkpt><trkpt lat="43.941685281999604" lon="11.908792183361921"><ele>284.0</ele><time>2026-04-14T06:59:52Z</time></trkpt><trkpt lat="43.94177954496819" lon="11.908694015030566"><ele>284.0</ele><time>2026-04-14T06:59:53Z</time></trkpt><trkpt lat="43.94187327251762" lon="11.908595095283014"><ele>284.0</ele><time>2026-04-14T06:59:54Z</time></trkpt><trkpt lat="43.941962842322575" lon="11.908500419293652"><ele>282.59999999999997</ele><time>2026-04-14T06:59:55Z</time></trkpt><trkpt lat="43.94204786904464" lon="11.908421111337482"><ele>281.2</ele><time>2026-04-14T06:59:56Z</time></trkpt><trkpt lat="43.94213371250359" lon="11.908355518989774"><ele>279.79999999999995</ele><time>2026-04-14T06:59:57Z</time></trkpt><trkpt lat="43.942209388460576" lon="11.90831498304376"><ele>278.4</ele><time>2026-04-14T06:59:58Z</time></trkpt><trkpt lat="43.94230194198152" lon="11.908303785055711"><ele>277.0</ele><time>2026-04-14T06:59:59Z</time></trkpt><trkpt lat="43.94238820823001" lon="11.908330826854773"><ele>276.0</ele><time>2026-04-14T07:00:00Z</time></trkpt><trkpt lat="43.94247607678615" lon="11.908404941537183"><ele>275.0</ele><time>2026-04-14T07:00:01Z</time></trkpt><trkpt lat="43.942581067459585" lon="11.908492495044017"><ele>274.0</ele><time>2026-04-14T07:00:02Z</time></trkpt><trkpt lat="43.942684637964646" lon="11.908590010060319"><ele>273.0</ele><time>2026-04-14T07:00:03Z</time></trkpt><trkpt lat="43.94278300085937" lon="11.908681299208224"><ele>272.75</ele><time>2026-04-14T07:00:04Z</time></trkpt><trkpt lat="43.94288264546022" lon="11.908773635263888"><ele>272.5</ele><time>2026-04-14T07:00:05Z</time></trkpt><trkpt lat="43.94298107345756" lon="11.908865491040943"><ele>272.25</ele><time>2026-04-14T07:00:06Z</time></trkpt><trkpt lat="43.94307642148094" lon="11.908960565551924"><ele>272.0</ele><time>2026-04-14T07:00:07Z</time></trkpt><trkpt lat="43.94316950504693" lon="11.909062626250345"><ele>272.0</ele><time>2026-04-14T07:00:08Z</time></trkpt><trkpt lat="43.943266259413214" lon="11.909157994349588"><ele>272.0</ele><time>2026-04-14T07:00:09Z</time></trkpt><trkpt lat="43.943364736427924" lon="11.909250080834726"><ele>272.0</ele><time>2026-04-14T07:00:10Z</time></trkpt><trkpt lat="43.94346054159719" lon="11.909341282567764"><ele>272.0</ele><time>2026-04-14T07:00:11Z</time></trkpt><trkpt lat="43.94355529128704" lon="11.909433338154074"><ele>271.25</ele><time>2026-04-14T07:00:12Z</time></trkpt><trkpt lat="43.943647992216675" lon="11.909526868775048"><ele>270.5</ele><time>2026-04-14T07:00:13Z</time></trkpt><trkpt lat="43.943743115112305" lon="11.909617846461982"><ele>269.75</ele><time>2026-04-14T07:00:14Z</time></trkpt><trkpt lat="43.943839485645924" lon="11.909708931981378"><ele>269.0</ele><time>2026-04-14T07:00:15Z</time></trkpt><trkpt lat="43.94393588335101" lon="11.909803996530314"><ele>269.0</ele><time>2026-04-14T07:00:16Z</time></trkpt><trkpt lat="43.94403058967029" lon="11.909896922625919"><ele>269.0</ele><time>2026-04-14T07:00:17Z</time></trkpt><trkpt lat="43.94412706762576" lon="11.909989289544525"><ele>269.0</ele><time>2026-04-14T07:00:18Z</time></trkpt><trkpt lat="43.944219077083346" lon="11.910083818312506"><ele>269.0</ele><time>2026-04-14T07:00:19Z</time></trkpt><trkpt lat="43.944315360313325" lon="11.910168671168933"><ele>269.0</ele><time>2026-04-14T07:00:20Z</time></trkpt><trkpt lat="43.94441666866826" lon="11.910233991006269"><ele>269.0</ele><time>2026-04-14T07:00:21Z</time></trkpt><trkpt lat="43.94452804567616" lon="11.910266768863467"><ele>269.0</ele><time>2026-04-14T07:00:22Z</time></trkpt><trkpt lat="43.94463988190436" lon="11.910294867900854"><ele>269.0</ele><time>2026-04-14T07:00:23Z</time></trkpt><trkpt lat="43.94474973577651" lon="11.91032227038962"><ele>269.0</ele><time>2026-04-14T07:00:24Z</time></trkpt><trkpt lat="43.944861360203014" lon="11.910340575215429"><ele>269.0</ele><time>2026-04-14T07:00:25Z</time></trkpt><trkpt lat="43.944974286087685" lon="11.910362566408342"><ele>269.0</ele><time>2026-04-14T07:00:26Z</time></trkpt><trkpt lat="43.94508536965263" lon="11.910384447077007"><ele>269.0</ele><time>2026-04-14T07:00:27Z</time></trkpt><trkpt lat="43.94519777126867" lon="11.91040379180771"><ele>268.0</ele><time>2026-04-14T07:00:28Z</time></trkpt><trkpt lat="43.945311845107604" lon="11.910427157881513"><ele>267.0</ele><time>2026-04-14T07:00:29Z</time></trkpt><trkpt lat="43.94542432073829" lon="11.910449072191065"><ele>266.0</ele><time>2026-04-14T07:00:30Z</time></trkpt><trkpt lat="43.945537869253315" lon="11.910473799591609"><ele>265.0</ele><time>2026-04-14T07:00:31Z</time></trkpt><trkpt lat="43.945651850281884" lon="11.910492191595035"><ele>265.0</ele><time>2026-04-14T07:00:32Z</time></trkpt><trkpt lat="43.945757783104916" lon="11.910499874265586"><ele>265.0</ele><time>2026-04-14T07:00:33Z</time></trkpt><trkpt lat="43.945853601815976" lon="11.910491800490647"><ele>265.0</ele><time>2026-04-14T07:00:34Z</time></trkpt><trkpt lat="43.94594448280085" lon="11.910461261884128"><ele>265.0</ele><time>2026-04-14T07:00:35Z</time></trkpt><trkpt lat="43.94602152920788" lon="11.910396972319377"><ele>265.0</ele><time>2026-04-14T07:00:36Z</time></trkpt><trkpt lat="43.94609677334431" lon="11.910355170291643"><ele>265.16666666666663</ele><time>2026-04-14T07:00:37Z</time></trkpt><trkpt lat="43.94614964839162" lon="11.910303800099449"><ele>265.3333333333333</ele><time>2026-04-14T07:00:38Z</time></trkpt><trkpt lat="43.94622778023037" lon="11.910212011407975"><ele>265.5</ele><time>2026-04-14T07:00:40Z</time></trkpt><trkpt lat="43.9462894241604" lon="11.910143677174375"><ele>265.6666666666667</ele><time>2026-04-14T07:00:43Z</time></trkpt><trkpt lat="43.94636394507237" lon="11.910114580225098"><ele>265.83333333333337</ele><time>2026-04-14T07:01:13Z</time></trkpt><trkpt lat="43.9464250138278" lon="11.910077759385667"><ele>266.0</ele><time>2026-04-14T07:02:14Z</time></trkpt><trkpt lat="43.94648213271546" lon="11.910024690436245"><ele>265.2857142857143</ele><time>2026-04-14T07:02:23Z</time></trkpt><trkpt lat="43.946551775875456" lon="11.910021685977433"><ele>264.57142857142856</ele><time>2026-04-14T07:02:29Z</time></trkpt><trkpt lat="43.94660546795033" lon="11.90997430899178"><ele>263.8571428571429</ele><time>2026-04-14T07:02:35Z</time></trkpt><trkpt lat="43.946656929960355" lon="11.909923239342989"><ele>263.1428571428571</ele><time>2026-04-14T07:02:42Z</time></trkpt><trkpt lat="43.94671940748411" lon="11.909887450534866"><ele>262.42857142857144</ele><time>2026-04-14T07:02:52Z</time></trkpt><trkpt lat="43.94675006949157" lon="11.909808718311194"><ele>261.7142857142857</ele><time>2026-04-14T07:02:59Z</time></trkpt><trkpt lat="43.94676936615869" lon="11.909722423895813"><ele>261.0</ele><time>2026-04-14T07:03:05Z</time></trkpt><trkpt lat="43.94680197047648" lon="11.909643467344926"><ele>261.0</ele><time>2026-04-14T07:03:15Z</time></trkpt><trkpt lat="43.94682606124825" lon="11.909549326244738"><ele>261.0</ele><time>2026-04-14T07:03:20Z</time></trkpt><trkpt lat="43.94686335696883" lon="11.90946887798115"><ele>261.0</ele><time>2026-04-14T07:03:25Z</time></trkpt><trkpt lat="43.94684042352011" lon="11.909551945559839"><ele>261.0</ele><time>2026-04-14T07:04:26Z</time></trkpt><trkpt lat="43.946779468923154" lon="11.90961017380766"><ele>261.0</ele><time>2026-04-14T07:04:36Z</time></trkpt><trkpt lat="43.94671828462846" lon="11.909645245290006"><ele>261.0</ele><time>2026-04-14T07:04:43Z</time></trkpt><trkpt lat="43.94668670253818" lon="11.90973093940431"><ele>261.0</ele><time>2026-04-14T07:04:51Z</time></trkpt><trkpt lat="43.94663887303545" lon="11.909791568660552"><ele>261.0</ele><time>2026-04-14T07:04:57Z</time></trkpt><trkpt lat="43.94657935204998" lon="11.909826810446788"><ele>261.0</ele><time>2026-04-14T07:05:09Z</time></trkpt><trkpt lat="43.94655375549773" lon="11.909912572166686"><ele>261.0</ele><time>2026-04-14T07:05:15Z</time></trkpt><trkpt lat="43.946504696923995" lon="11.909969798709696"><ele>261.0</ele><time>2026-04-14T07:05:20Z</time></trkpt><trkpt lat="43.94645141397339" lon="11.910031867116325"><ele>261.0</ele><time>2026-04-14T07:05:26Z</time></trkpt><trkpt lat="43.94646287065413" lon="11.909925055596172"><ele>261.0</ele><time>2026-04-14T07:08:28.558Z</time></trkpt><trkpt lat="43.94643581597827" lon="11.910096838499596"><ele>261.0</ele><time>2026-04-14T07:10:00.999Z</time></trkpt><trkpt lat="43.94637624018643" lon="11.910059778889732"><ele>261.0</ele><time>2026-04-14T07:12:46Z</time></trkpt><trkpt lat="43.946407845789594" lon="11.909978812980661"><ele>261.0</ele><time>2026-04-14T07:12:50Z</time></trkpt><trkpt lat="43.94620875377222" lon="11.909891830778133"><ele>261.0</ele><time>2026-04-14T07:12:55Z</time></trkpt><trkpt lat="43.94614679611389" lon="11.9097945645497"><ele>261.0</ele><time>2026-04-14T07:12:56Z</time></trkpt><trkpt lat="43.94607803750472" lon="11.909716087467132"><ele>261.0</ele><time>2026-04-14T07:12:57Z</time></trkpt><trkpt lat="43.94600700168444" lon="11.909643368365515"><ele>261.0</ele><time>2026-04-14T07:12:58Z</time></trkpt><trkpt lat="43.945943263397695" lon="11.909567484540652"><ele>261.0</ele><time>2026-04-14T07:12:59Z</time></trkpt><trkpt lat="43.94588284644515" lon="11.909497217885692"><ele>261.0</ele><time>2026-04-14T07:13:00Z</time></trkpt><trkpt lat="43.9458266359869" lon="11.909433650330824"><ele>261.0</ele><time>2026-04-14T07:13:01Z</time></trkpt><trkpt lat="43.945777840399394" lon="11.909375440704968"><ele>261.0</ele><time>2026-04-14T07:13:02Z</time></trkpt><trkpt lat="43.94568180730756" lon="11.909268105704605"><ele>260.3333333333333</ele><time>2026-04-14T07:13:04Z</time></trkpt><trkpt lat="43.94558543811019" lon="11.909158459598268"><ele>259.6666666666667</ele><time>2026-04-14T07:13:06Z</time></trkpt><trkpt lat="43.94552954962352" lon="11.909095058944438"><ele>259.0</ele><time>2026-04-14T07:13:07Z</time></trkpt><trkpt lat="43.94547759213187" lon="11.90903287804009"><ele>258.33333333333337</ele><time>2026-04-14T07:13:08Z</time></trkpt><trkpt lat="43.94543041817778" lon="11.908972273880876"><ele>257.6666666666667</ele><time>2026-04-14T07:13:09Z</time></trkpt><trkpt lat="43.945382708618226" lon="11.908913318598389"><ele>257.0</ele><time>2026-04-14T07:13:10Z</time></trkpt><trkpt lat="43.94529299182681" lon="11.908808564074548"><ele>257.0</ele><time>2026-04-14T07:13:12Z</time></trkpt><trkpt lat="43.945232639550994" lon="11.90872403306636"><ele>257.0</ele><time>2026-04-14T07:13:14Z</time></trkpt><trkpt lat="43.945151355797414" lon="11.908622125341372"><ele>257.0</ele><time>2026-04-14T07:13:16Z</time></trkpt><trkpt lat="43.94507666690083" lon="11.908541130334612"><ele>257.0</ele><time>2026-04-14T07:13:18Z</time></trkpt><trkpt lat="43.945002797724634" lon="11.90847599488501"><ele>257.0</ele><time>2026-04-14T07:13:23Z</time></trkpt><trkpt lat="43.94493439125495" lon="11.908393279150127"><ele>257.0</ele><time>2026-04-14T07:13:25Z</time></trkpt><trkpt lat="43.94484775015966" lon="11.90829415766177"><ele>257.0</ele><time>2026-04-14T07:13:27Z</time></trkpt><trkpt lat="43.94476015188671" lon="11.9081882366091"><ele>257.0</ele><time>2026-04-14T07:13:29Z</time></trkpt><trkpt lat="43.94466566271746" lon="11.908070512538792"><ele>257.0</ele><time>2026-04-14T07:13:31Z</time></trkpt><trkpt lat="43.944604057512116" lon="11.90800177505739"><ele>257.0</ele><time>2026-04-14T07:13:32Z</time></trkpt><trkpt lat="43.944552674985616" lon="11.90793903287578"><ele>257.0</ele><time>2026-04-14T07:13:33Z</time></trkpt><trkpt lat="43.9445038525473" lon="11.907882687942731"><ele>257.0</ele><time>2026-04-14T07:13:34Z</time></trkpt><trkpt lat="43.94440564321439" lon="11.907769376550574"><ele>257.0</ele><time>2026-04-14T07:13:36Z</time></trkpt><trkpt lat="43.94435098511063" lon="11.907702813021412"><ele>257.0</ele><time>2026-04-14T07:13:37Z</time></trkpt><trkpt lat="43.9442838723538" lon="11.907622897293448"><ele>257.0</ele><time>2026-04-14T07:13:38Z</time></trkpt><trkpt lat="43.94420725237037" lon="11.907539399142355"><ele>257.4</ele><time>2026-04-14T07:13:39Z</time></trkpt><trkpt lat="43.94412915235196" lon="11.907443645149463"><ele>257.79999999999995</ele><time>2026-04-14T07:13:40Z</time></trkpt><trkpt lat="43.944048596379474" lon="11.90735153962979"><ele>258.2</ele><time>2026-04-14T07:13:41Z</time></trkpt><trkpt lat="43.94396962077783" lon="11.907256905561004"><ele>258.59999999999997</ele><time>2026-04-14T07:13:42Z</time></trkpt><trkpt lat="43.94389203739616" lon="11.9071631961825"><ele>259.0</ele><time>2026-04-14T07:13:43Z</time></trkpt><trkpt lat="43.943826830235444" lon="11.9070717942873"><ele>259.0</ele><time>2026-04-14T07:13:44Z</time></trkpt><trkpt lat="43.943775056222265" lon="11.906982686217932"><ele>259.0</ele><time>2026-04-14T07:13:45Z</time></trkpt><trkpt lat="43.94374716603692" lon="11.906900107132415"><ele>259.0</ele><time>2026-04-14T07:13:46Z</time></trkpt><trkpt lat="43.94375613467257" lon="11.906729991028321"><ele>259.0</ele><time>2026-04-14T07:13:48Z</time></trkpt><trkpt lat="43.94376999989339" lon="11.906634999147927"><ele>259.0</ele><time>2026-04-14T07:13:49Z</time></trkpt><trkpt lat="43.94378587876421" lon="11.906525151395254"><ele>259.0</ele><time>2026-04-14T07:13:50Z</time></trkpt><trkpt lat="43.94380305249784" lon="11.906407989590383"><ele>259.16666666666663</ele><time>2026-04-14T07:13:51Z</time></trkpt><trkpt lat="43.94382395631825" lon="11.906286733200377"><ele>259.3333333333333</ele><time>2026-04-14T07:13:52Z</time></trkpt><trkpt lat="43.943839748571875" lon="11.906168977737853"><ele>259.5</ele><time>2026-04-14T07:13:53Z</time></trkpt><trkpt lat="43.94384514331129" lon="11.90605428439336"><ele>259.6666666666667</ele><time>2026-04-14T07:13:54Z</time></trkpt><trkpt lat="43.943857349301325" lon="11.905945384133089"><ele>259.83333333333337</ele><time>2026-04-14T07:13:55Z</time></trkpt><trkpt lat="43.94384083766357" lon="11.90583523412329"><ele>260.0</ele><time>2026-04-14T07:13:56Z</time></trkpt><trkpt lat="43.943776063938266" lon="11.905750393468907"><ele>260.0</ele><time>2026-04-14T07:13:57Z</time></trkpt><trkpt lat="43.94370994494511" lon="11.905674737339798"><ele>260.0</ele><time>2026-04-14T07:13:58Z</time></trkpt><trkpt lat="43.94362545161291" lon="11.905612862594971"><ele>260.0</ele><time>2026-04-14T07:13:59Z</time></trkpt><trkpt lat="43.943526634677696" lon="11.905555760793488"><ele>260.0</ele><time>2026-04-14T07:14:00Z</time></trkpt><trkpt lat="43.94341693804956" lon="11.905491698168596"><ele>260.0</ele><time>2026-04-14T07:14:01Z</time></trkpt><trkpt lat="43.94329813236236" lon="11.905422338179193"><ele>259.75</ele><time>2026-04-14T07:14:02Z</time></trkpt><trkpt lat="43.94317586686972" lon="11.90535066748852"><ele>259.5</ele><time>2026-04-14T07:14:03Z</time></trkpt><trkpt lat="43.94305366239164" lon="11.905281595268956"><ele>259.25</ele><time>2026-04-14T07:14:04Z</time></trkpt><trkpt lat="43.94293498558968" lon="11.905212006619047"><ele>259.0</ele><time>2026-04-14T07:14:05Z</time></trkpt><trkpt lat="43.942824513876324" lon="11.905141544860092"><ele>260.5</ele><time>2026-04-14T07:14:06Z</time></trkpt><trkpt lat="43.94271991830744" lon="11.905072375719648"><ele>262.0</ele><time>2026-04-14T07:14:07Z</time></trkpt><trkpt lat="43.94261039481994" lon="11.904997390373929"><ele>263.5</ele><time>2026-04-14T07:14:08Z</time></trkpt><trkpt lat="43.942502471570414" lon="11.90491731020699"><ele>265.0</ele><time>2026-04-14T07:14:09Z</time></trkpt><trkpt lat="43.94239268894754" lon="11.904821335639847"><ele>265.0</ele><time>2026-04-14T07:14:10Z</time></trkpt><trkpt lat="43.942282097033626" lon="11.904714063019501"><ele>265.0</ele><time>2026-04-14T07:14:11Z</time></trkpt><trkpt lat="43.94216698959738" lon="11.904591412950108"><ele>265.0</ele><time>2026-04-14T07:14:12Z</time></trkpt><trkpt lat="43.94204575175575" lon="11.904457360920272"><ele>265.0</ele><time>2026-04-14T07:14:13Z</time></trkpt><trkpt lat="43.941922197119936" lon="11.904315519891384"><ele>267.0</ele><time>2026-04-14T07:14:14Z</time></trkpt><trkpt lat="43.94179582938552" lon="11.904174230936583"><ele>269.0</ele><time>2026-04-14T07:14:15Z</time></trkpt><trkpt lat="43.94167064905911" lon="11.904032996096626"><ele>271.0</ele><time>2026-04-14T07:14:16Z</time></trkpt><trkpt lat="43.94155066134807" lon="11.903892628616005"><ele>271.0</ele><time>2026-04-14T07:14:17Z</time></trkpt><trkpt lat="43.94142561185789" lon="11.90374910839286"><ele>271.0</ele><time>2026-04-14T07:14:18Z</time></trkpt><trkpt lat="43.94130179224559" lon="11.903606237424977"><ele>271.0</ele><time>2026-04-14T07:14:19Z</time></trkpt><trkpt lat="43.941179677157855" lon="11.903468004223022"><ele>272.3333333333333</ele><time>2026-04-14T07:14:20Z</time></trkpt><trkpt lat="43.94105979182082" lon="11.903332635347223"><ele>273.6666666666667</ele><time>2026-04-14T07:14:21Z</time></trkpt><trkpt lat="43.940937554091825" lon="11.903198759155245"><ele>275.0</ele><time>2026-04-14T07:14:22Z</time></trkpt><trkpt lat="43.940818647758825" lon="11.903065623953331"><ele>275.0</ele><time>2026-04-14T07:14:23Z</time></trkpt><trkpt lat="43.940698887473246" lon="11.902933447028891"><ele>275.0</ele><time>2026-04-14T07:14:24Z</time></trkpt><trkpt lat="43.9405789329694" lon="11.902796609053233"><ele>275.0</ele><time>2026-04-14T07:14:25Z</time></trkpt><trkpt lat="43.94045938758648" lon="11.902661040002911"><ele>276.0</ele><time>2026-04-14T07:14:26Z</time></trkpt><trkpt lat="43.940337128738754" lon="11.902524407728611"><ele>277.0</ele><time>2026-04-14T07:14:27Z</time></trkpt><trkpt lat="43.940215038329114" lon="11.902386790987515"><ele>278.0</ele><time>2026-04-14T07:14:28Z</time></trkpt><trkpt lat="43.940091110223975" lon="11.902249880234306"><ele>278.0</ele><time>2026-04-14T07:14:29Z</time></trkpt><trkpt lat="43.93996884623348" lon="11.902115338517506"><ele>278.0</ele><time>2026-04-14T07:14:30Z</time></trkpt><trkpt lat="43.93984640001621" lon="11.901977144833724"><ele>278.0</ele><time>2026-04-14T07:14:31Z</time></trkpt><trkpt lat="43.93972364250808" lon="11.901836343088402"><ele>279.0</ele><time>2026-04-14T07:14:32Z</time></trkpt><trkpt lat="43.93960126435648" lon="11.901696041399319"><ele>280.0</ele><time>2026-04-14T07:14:33Z</time></trkpt><trkpt lat="43.93947553370843" lon="11.901556485174863"><ele>281.0</ele><time>2026-04-14T07:14:34Z</time></trkpt><trkpt lat="43.939351459468504" lon="11.901409623340657"><ele>281.0</ele><time>2026-04-14T07:14:35Z</time></trkpt><trkpt lat="43.93922403589719" lon="11.901258050207066"><ele>281.0</ele><time>2026-04-14T07:14:36Z</time></trkpt><trkpt lat="43.93909276021335" lon="11.9011097654492"><ele>281.0</ele><time>2026-04-14T07:14:37Z</time></trkpt><trkpt lat="43.93896183084354" lon="11.900957609804324"><ele>281.6666666666667</ele><time>2026-04-14T07:14:38Z</time></trkpt><trkpt lat="43.93883662871396" lon="11.900798790322558"><ele>282.3333333333333</ele><time>2026-04-14T07:14:39Z</time></trkpt><trkpt lat="43.93872571431084" lon="11.900629470341528"><ele>283.0</ele><time>2026-04-14T07:14:40Z</time></trkpt><trkpt lat="43.938622486344926" lon="11.900453018511392"><ele>283.0</ele><time>2026-04-14T07:14:41Z</time></trkpt><trkpt lat="43.93852031542458" lon="11.900267629097653"><ele>283.0</ele><time>2026-04-14T07:14:42Z</time></trkpt><trkpt lat="43.93841967033107" lon="11.900079751303943"><ele>283.0</ele><time>2026-04-14T07:14:43Z</time></trkpt><trkpt lat="43.93831939410642" lon="11.899887649984656"><ele>283.66666666666663</ele><time>2026-04-14T07:14:44Z</time></trkpt><trkpt lat="43.93821986145673" lon="11.899692549755724"><ele>284.3333333333333</ele><time>2026-04-14T07:14:45Z</time></trkpt><trkpt lat="43.93812561391788" lon="11.89949408409657"><ele>285.0</ele><time>2026-04-14T07:14:46Z</time></trkpt><trkpt lat="43.93803728303071" lon="11.899293525495377"><ele>287.3333333333333</ele><time>2026-04-14T07:14:47Z</time></trkpt><trkpt lat="43.93795020052452" lon="11.89909553261699"><ele>289.66666666666663</ele><time>2026-04-14T07:14:48Z</time></trkpt><trkpt lat="43.93786867564467" lon="11.898906999039925"><ele>292.0</ele><time>2026-04-14T07:14:49Z</time></trkpt><trkpt lat="43.93778241540349" lon="11.898725266315617"><ele>292.0</ele><time>2026-04-14T07:14:50Z</time></trkpt><trkpt lat="43.937681249786024" lon="11.898565368642155"><ele>292.0</ele><time>2026-04-14T07:14:51Z</time></trkpt><trkpt lat="43.93756559282675" lon="11.898420157185656"><ele>292.0</ele><time>2026-04-14T07:14:52Z</time></trkpt><trkpt lat="43.93744305827533" lon="11.898284444082845"><ele>293.3333333333333</ele><time>2026-04-14T07:14:53Z</time></trkpt><trkpt lat="43.937316366802484" lon="11.8981522436411"><ele>294.6666666666667</ele><time>2026-04-14T07:14:54Z</time></trkpt><trkpt lat="43.93718438717701" lon="11.898018741984734"><ele>296.0</ele><time>2026-04-14T07:14:55Z</time></trkpt><trkpt lat="43.93704839747105" lon="11.89789434789952"><ele>296.0</ele><time>2026-04-14T07:14:56Z</time></trkpt><trkpt lat="43.93690756944238" lon="11.897790678810672"><ele>296.0</ele><time>2026-04-14T07:14:57Z</time></trkpt><trkpt lat="43.93676737361906" lon="11.897706980062795"><ele>296.0</ele><time>2026-04-14T07:14:58Z</time></trkpt><trkpt lat="43.936633486732184" lon="11.897657237242221"><ele>295.25</ele><time>2026-04-14T07:14:59Z</time></trkpt><trkpt lat="43.93649726196089" lon="11.8976420992333"><ele>294.5</ele><time>2026-04-14T07:15:00Z</time></trkpt><trkpt lat="43.93636847059727" lon="11.897657324528764"><ele>293.75</ele><time>2026-04-14T07:15:01Z</time></trkpt><trkpt lat="43.936235556164625" lon="11.897676888870034"><ele>293.0</ele><time>2026-04-14T07:15:02Z</time></trkpt><trkpt lat="43.936089320019796" lon="11.89766010940428"><ele>293.0</ele><time>2026-04-14T07:15:03Z</time></trkpt><trkpt lat="43.935960739399334" lon="11.897587486759646"><ele>293.0</ele><time>2026-04-14T07:15:04Z</time></trkpt><trkpt lat="43.93584320771253" lon="11.89748297722405"><ele>293.0</ele><time>2026-04-14T07:15:05Z</time></trkpt><trkpt lat="43.93572831853388" lon="11.897360746776432"><ele>293.0</ele><time>2026-04-14T07:15:06Z</time></trkpt><trkpt lat="43.935609086658445" lon="11.89722743761384"><ele>294.33333333333337</ele><time>2026-04-14T07:15:07Z</time></trkpt><trkpt lat="43.93548016682499" lon="11.897092831453868"><ele>295.6666666666667</ele><time>2026-04-14T07:15:08Z</time></trkpt><trkpt lat="43.93535045335393" lon="11.896959936180018"><ele>297.0</ele><time>2026-04-14T07:15:09Z</time></trkpt><trkpt lat="43.9352343922392" lon="11.896832737479574"><ele>298.0</ele><time>2026-04-14T07:15:10Z</time></trkpt><trkpt lat="43.93512786241882" lon="11.896708642820437"><ele>299.0</ele><time>2026-04-14T07:15:11Z</time></trkpt><trkpt lat="43.9350334342501" lon="11.896570300658057"><ele>300.0</ele><time>2026-04-14T07:15:12Z</time></trkpt><trkpt lat="43.934959009486455" lon="11.896413215688387"><ele>301.0</ele><time>2026-04-14T07:15:13Z</time></trkpt><trkpt lat="43.93489685726071" lon="11.896240865467632"><ele>301.0</ele><time>2026-04-14T07:15:14Z</time></trkpt><trkpt lat="43.934844591915585" lon="11.89606490711041"><ele>301.0</ele><time>2026-04-14T07:15:15Z</time></trkpt><trkpt lat="43.93480437995516" lon="11.895881341472771"><ele>301.0</ele><time>2026-04-14T07:15:16Z</time></trkpt><trkpt lat="43.93478223073054" lon="11.895685756942315"><ele>301.0</ele><time>2026-04-14T07:15:17Z</time></trkpt><trkpt lat="43.93477004067289" lon="11.895479597151136"><ele>302.75</ele><time>2026-04-14T07:15:18Z</time></trkpt><trkpt lat="43.93475820966461" lon="11.895276130564397"><ele>304.5</ele><time>2026-04-14T07:15:19Z</time></trkpt><trkpt lat="43.93475299869522" lon="11.895083217552658"><ele>306.25</ele><time>2026-04-14T07:15:20Z</time></trkpt><trkpt lat="43.934756210117634" lon="11.894899561947321"><ele>308.0</ele><time>2026-04-14T07:15:21Z</time></trkpt><trkpt lat="43.93477922881788" lon="11.894730403343033"><ele>308.2</ele><time>2026-04-14T07:15:22Z</time></trkpt><trkpt lat="43.93482236787822" lon="11.894579972902848"><ele>308.4</ele><time>2026-04-14T07:15:23Z</time></trkpt><trkpt lat="43.93485868307043" lon="11.894429931295084"><ele>308.59999999999997</ele><time>2026-04-14T07:15:24Z</time></trkpt><trkpt lat="43.93486834260971" lon="11.894276883121407"><ele>308.8</ele><time>2026-04-14T07:15:25Z</time></trkpt><trkpt lat="43.934844165222565" lon="11.89413237131077"><ele>309.0</ele><time>2026-04-14T07:15:26Z</time></trkpt><trkpt lat="43.934779514677345" lon="11.893998763606708"><ele>309.0</ele><time>2026-04-14T07:15:27Z</time></trkpt><trkpt lat="43.93469313457783" lon="11.893878883012684"><ele>309.0</ele><time>2026-04-14T07:15:28Z</time></trkpt><trkpt lat="43.93459177402175" lon="11.893764536882584"><ele>309.0</ele><time>2026-04-14T07:15:29Z</time></trkpt><trkpt lat="43.93447866899302" lon="11.89364726886005"><ele>309.0</ele><time>2026-04-14T07:15:30Z</time></trkpt><trkpt lat="43.934367098519274" lon="11.89352737430569"><ele>309.5</ele><time>2026-04-14T07:15:31Z</time></trkpt><trkpt lat="43.93427614352984" lon="11.893398777920813"><ele>310.0</ele><time>2026-04-14T07:15:32Z</time></trkpt><trkpt lat="43.93418129011959" lon="11.893289580212436"><ele>310.5</ele><time>2026-04-14T07:15:33Z</time></trkpt><trkpt lat="43.934081691160074" lon="11.893198294271379"><ele>311.0</ele><time>2026-04-14T07:15:34Z</time></trkpt><trkpt lat="43.93401146221053" lon="11.893070275518449"><ele>311.0</ele><time>2026-04-14T07:15:35Z</time></trkpt><trkpt lat="43.93395887262182" lon="11.892926089019745"><ele>311.0</ele><time>2026-04-14T07:15:36Z</time></trkpt><trkpt lat="43.93393774358055" lon="11.892766171786494"><ele>311.0</ele><time>2026-04-14T07:15:37Z</time></trkpt><trkpt lat="43.933933751163494" lon="11.892603710990489"><ele>311.0</ele><time>2026-04-14T07:15:38Z</time></trkpt><trkpt lat="43.93392135218412" lon="11.892437356193472"><ele>312.5</ele><time>2026-04-14T07:15:39Z</time></trkpt><trkpt lat="43.93389848065007" lon="11.89226923371531"><ele>314.0</ele><time>2026-04-14T07:15:40Z</time></trkpt><trkpt lat="43.933810806592895" lon="11.89214231562406"><ele>315.5</ele><time>2026-04-14T07:15:41Z</time></trkpt><trkpt lat="43.933719295167684" lon="11.892018180145733"><ele>317.0</ele><time>2026-04-14T07:15:42Z</time></trkpt><trkpt lat="43.9336195789108" lon="11.89189923925844"><ele>317.0</ele><time>2026-04-14T07:15:43Z</time></trkpt><trkpt lat="43.93353287890504" lon="11.891760487454624"><ele>317.0</ele><time>2026-04-14T07:15:44Z</time></trkpt><trkpt lat="43.93343542412367" lon="11.891634068312825"><ele>317.0</ele><time>2026-04-14T07:15:45Z</time></trkpt><trkpt lat="43.93332680364208" lon="11.89152100403552"><ele>317.0</ele><time>2026-04-14T07:15:46Z</time></trkpt><trkpt lat="43.933232743977946" lon="11.891392763630702"><ele>316.5</ele><time>2026-04-14T07:15:47Z</time></trkpt><trkpt lat="43.93314194258544" lon="11.891274958262573"><ele>316.0</ele><time>2026-04-14T07:15:48Z</time></trkpt><trkpt lat="43.93306044058544" lon="11.891147745752388"><ele>315.5</ele><time>2026-04-14T07:15:49Z</time></trkpt><trkpt lat="43.93293485780911" lon="11.891079336957223"><ele>315.0</ele><time>2026-04-14T07:15:50Z</time></trkpt><trkpt lat="43.932805544352796" lon="11.891003425802008"><ele>315.0</ele><time>2026-04-14T07:15:51Z</time></trkpt><trkpt lat="43.932668076601914" lon="11.89094164114282"><ele>315.0</ele><time>2026-04-14T07:15:52Z</time></trkpt><trkpt lat="43.93253013549037" lon="11.890882125246597"><ele>315.0</ele><time>2026-04-14T07:15:53Z</time></trkpt><trkpt lat="43.93239768607242" lon="11.890815315691611"><ele>315.0</ele><time>2026-04-14T07:15:54Z</time></trkpt><trkpt lat="43.93227301872939" lon="11.89072782074159"><ele>316.3333333333333</ele><time>2026-04-14T07:15:55Z</time></trkpt><trkpt lat="43.93215475265044" lon="11.890607370474436"><ele>317.66666666666663</ele><time>2026-04-14T07:15:56Z</time></trkpt><trkpt lat="43.93203951499751" lon="11.890472063000148"><ele>319.0</ele><time>2026-04-14T07:15:57Z</time></trkpt><trkpt lat="43.93191983495325" lon="11.890330201342968"><ele>319.0</ele><time>2026-04-14T07:15:58Z</time></trkpt><trkpt lat="43.93179487682368" lon="11.890180140526828"><ele>319.0</ele><time>2026-04-14T07:15:59Z</time></trkpt><trkpt lat="43.93166707008253" lon="11.89002979165682"><ele>319.0</ele><time>2026-04-14T07:16:00Z</time></trkpt><trkpt lat="43.931539827363316" lon="11.889879940416357"><ele>318.66666666666663</ele><time>2026-04-14T07:16:01Z</time></trkpt><trkpt lat="43.93141070660354" lon="11.889730717101035"><ele>318.3333333333333</ele><time>2026-04-14T07:16:02Z</time></trkpt><trkpt lat="43.93127600493794" lon="11.889584624173782"><ele>318.0</ele><time>2026-04-14T07:16:03Z</time></trkpt><trkpt lat="43.931132555520016" lon="11.88946086770962"><ele>318.0</ele><time>2026-04-14T07:16:04Z</time></trkpt><trkpt lat="43.930976253215846" lon="11.889362668422752"><ele>318.0</ele><time>2026-04-14T07:16:05Z</time></trkpt><trkpt lat="43.93081297058686" lon="11.889281745410996"><ele>318.0</ele><time>2026-04-14T07:16:06Z</time></trkpt><trkpt lat="43.93066523332986" lon="11.889185900754137"><ele>318.6666666666667</ele><time>2026-04-14T07:16:07Z</time></trkpt><trkpt lat="43.93052178324023" lon="11.889106682471406"><ele>319.33333333333337</ele><time>2026-04-14T07:16:08Z</time></trkpt><trkpt lat="43.93038387290877" lon="11.889020995971391"><ele>320.0</ele><time>2026-04-14T07:16:09Z</time></trkpt><trkpt lat="43.930256533427915" lon="11.8888882829517"><ele>320.0</ele><time>2026-04-14T07:16:10Z</time></trkpt><trkpt lat="43.930128594559186" lon="11.888743695033643"><ele>320.0</ele><time>2026-04-14T07:16:11Z</time></trkpt><trkpt lat="43.92999974236877" lon="11.88859384503234"><ele>320.0</ele><time>2026-04-14T07:16:12Z</time></trkpt><trkpt lat="43.92986849652968" lon="11.888435563661405"><ele>320.6666666666667</ele><time>2026-04-14T07:16:13Z</time></trkpt><trkpt lat="43.929734778350024" lon="11.888276078933014"><ele>321.3333333333333</ele><time>2026-04-14T07:16:14Z</time></trkpt><trkpt lat="43.9295986617483" lon="11.888116110325404"><ele>322.0</ele><time>2026-04-14T07:16:15Z</time></trkpt><trkpt lat="43.929461605405436" lon="11.887958366966041"><ele>322.0</ele><time>2026-04-14T07:16:16Z</time></trkpt><trkpt lat="43.92932752992313" lon="11.887804098370088"><ele>322.0</ele><time>2026-04-14T07:16:17Z</time></trkpt><trkpt lat="43.92919531828911" lon="11.887650434878314"><ele>322.0</ele><time>2026-04-14T07:16:18Z</time></trkpt><trkpt lat="43.929076752018204" lon="11.887483599763842"><ele>324.3333333333333</ele><time>2026-04-14T07:16:19Z</time></trkpt><trkpt lat="43.92895697792756" lon="11.887340202128108"><ele>326.6666666666667</ele><time>2026-04-14T07:16:20Z</time></trkpt><trkpt lat="43.928823367960874" lon="11.887216127768447"><ele>329.0</ele><time>2026-04-14T07:16:21Z</time></trkpt><trkpt lat="43.92871393873376" lon="11.887057979279213"><ele>329.0</ele><time>2026-04-14T07:16:22Z</time></trkpt><trkpt lat="43.92862751791314" lon="11.886881456725872"><ele>329.0</ele><time>2026-04-14T07:16:23Z</time></trkpt><trkpt lat="43.92855615537061" lon="11.886685327477483"><ele>329.0</ele><time>2026-04-14T07:16:24Z</time></trkpt><trkpt lat="43.92848991699004" lon="11.886477616780683"><ele>326.6666666666667</ele><time>2026-04-14T07:16:25Z</time></trkpt><trkpt lat="43.92843402721689" lon="11.886264002538045"><ele>324.3333333333333</ele><time>2026-04-14T07:16:26Z</time></trkpt><trkpt lat="43.92839026333723" lon="11.88603941974949"><ele>322.0</ele><time>2026-04-14T07:16:27Z</time></trkpt><trkpt lat="43.92835880786611" lon="11.885803931342904"><ele>322.0</ele><time>2026-04-14T07:16:28Z</time></trkpt><trkpt lat="43.928331803284365" lon="11.88556465967686"><ele>322.0</ele><time>2026-04-14T07:16:29Z</time></trkpt><trkpt lat="43.92829406638313" lon="11.885341871208269"><ele>322.0</ele><time>2026-04-14T07:16:30Z</time></trkpt><trkpt lat="43.92823481598896" lon="11.885127933824155"><ele>328.0</ele><time>2026-04-14T07:16:31Z</time></trkpt><trkpt lat="43.92815937958821" lon="11.884915023391471"><ele>334.0</ele><time>2026-04-14T07:16:32Z</time></trkpt><trkpt lat="43.928077202459214" lon="11.884700226377946"><ele>340.0</ele><time>2026-04-14T07:16:33Z</time></trkpt><trkpt lat="43.92799542651037" lon="11.884502652135588"><ele>340.0</ele><time>2026-04-14T07:16:34Z</time></trkpt><trkpt lat="43.927907840086625" lon="11.884315294063128"><ele>340.0</ele><time>2026-04-14T07:16:35Z</time></trkpt><trkpt lat="43.92779510426429" lon="11.88414992201098"><ele>340.0</ele><time>2026-04-14T07:16:36Z</time></trkpt><trkpt lat="43.92766509277833" lon="11.8839995559958"><ele>334.0</ele><time>2026-04-14T07:16:37Z</time></trkpt><trkpt lat="43.9275284655495" lon="11.883851654343085"><ele>328.0</ele><time>2026-04-14T07:16:38Z</time></trkpt><trkpt lat="43.92739301480444" lon="11.883694646454682"><ele>322.0</ele><time>2026-04-14T07:16:39Z</time></trkpt><trkpt lat="43.92725865557845" lon="11.88352062225093"><ele>329.3333333333333</ele><time>2026-04-14T07:16:40Z</time></trkpt><trkpt lat="43.927129288188624" lon="11.883346775456687"><ele>336.6666666666667</ele><time>2026-04-14T07:16:41Z</time></trkpt><trkpt lat="43.9270027512285" lon="11.883168632247928"><ele>344.0</ele><time>2026-04-14T07:16:42Z</time></trkpt><trkpt lat="43.92687844452131" lon="11.883004111535056"><ele>344.0</ele><time>2026-04-14T07:16:43Z</time></trkpt><trkpt lat="43.92675261905199" lon="11.882852419022207"><ele>344.0</ele><time>2026-04-14T07:16:44Z</time></trkpt><trkpt lat="43.926627040031775" lon="11.882704332299058"><ele>344.0</ele><time>2026-04-14T07:16:45Z</time></trkpt><trkpt lat="43.92650576353374" lon="11.882563329201218"><ele>341.6666666666667</ele><time>2026-04-14T07:16:46Z</time></trkpt><trkpt lat="43.92638468712871" lon="11.882413604495532"><ele>339.3333333333333</ele><time>2026-04-14T07:16:47Z</time></trkpt><trkpt lat="43.926269828451034" lon="11.882249000600558"><ele>337.0</ele><time>2026-04-14T07:16:48Z</time></trkpt><trkpt lat="43.92615855430615" lon="11.882077825024714"><ele>337.0</ele><time>2026-04-14T07:16:49Z</time></trkpt><trkpt lat="43.92604962066829" lon="11.88190035424565"><ele>337.0</ele><time>2026-04-14T07:16:50Z</time></trkpt><trkpt lat="43.92594619386838" lon="11.881720973060851"><ele>337.0</ele><time>2026-04-14T07:16:51Z</time></trkpt><trkpt lat="43.92584953050046" lon="11.881539020942897"><ele>339.3333333333333</ele><time>2026-04-14T07:16:52Z</time></trkpt><trkpt lat="43.92576836822347" lon="11.881341149778383"><ele>341.6666666666667</ele><time>2026-04-14T07:16:53Z</time></trkpt><trkpt lat="43.92569446824904" lon="11.881136837637738"><ele>344.0</ele><time>2026-04-14T07:16:54Z</time></trkpt><trkpt lat="43.92562001604835" lon="11.880931808115383"><ele>344.0</ele><time>2026-04-14T07:16:55Z</time></trkpt><trkpt lat="43.92554205579132" lon="11.880726062109183"><ele>344.0</ele><time>2026-04-14T07:16:56Z</time></trkpt><trkpt lat="43.925464828460655" lon="11.88051748487643"><ele>344.0</ele><time>2026-04-14T07:16:57Z</time></trkpt><trkpt lat="43.92538449407203" lon="11.880309567581937"><ele>344.0</ele><time>2026-04-14T07:16:58Z</time></trkpt><trkpt lat="43.9253049989559" lon="11.880102648824398"><ele>344.0</ele><time>2026-04-14T07:16:59Z</time></trkpt><trkpt lat="43.92523146441906" lon="11.879900866464139"><ele>344.0</ele><time>2026-04-14T07:17:00Z</time></trkpt><trkpt lat="43.92516696213815" lon="11.879703362007035"><ele>340.6666666666667</ele><time>2026-04-14T07:17:01Z</time></trkpt><trkpt lat="43.92510833178867" lon="11.87950068411632"><ele>337.3333333333333</ele><time>2026-04-14T07:17:02Z</time></trkpt><trkpt lat="43.92506266423197" lon="11.879302143825551"><ele>334.0</ele><time>2026-04-14T07:17:03Z</time></trkpt><trkpt lat="43.925031033610736" lon="11.879108329242714"><ele>334.0</ele><time>2026-04-14T07:17:04Z</time></trkpt><trkpt lat="43.92501072775496" lon="11.878924060442921"><ele>334.0</ele><time>2026-04-14T07:17:05Z</time></trkpt><trkpt lat="43.925012868715925" lon="11.878744329958948"><ele>334.0</ele><time>2026-04-14T07:17:06Z</time></trkpt><trkpt lat="43.92503571825881" lon="11.878561862668729"><ele>334.0</ele><time>2026-04-14T07:17:07Z</time></trkpt><trkpt lat="43.92508186798842" lon="11.878379406967614"><ele>342.0</ele><time>2026-04-14T07:17:08Z</time></trkpt><trkpt lat="43.92514038556328" lon="11.878190909687252"><ele>350.0</ele><time>2026-04-14T07:17:09Z</time></trkpt><trkpt lat="43.925191926718114" lon="11.878001683637587"><ele>358.0</ele><time>2026-04-14T07:17:10Z</time></trkpt><trkpt lat="43.92522660574959" lon="11.877806419584672"><ele>366.0</ele><time>2026-04-14T07:17:11Z</time></trkpt><trkpt lat="43.92524298081347" lon="11.877606895697372"><ele>368.0</ele><time>2026-04-14T07:17:12Z</time></trkpt><trkpt lat="43.9252451460691" lon="11.877408943934439"><ele>370.0</ele><time>2026-04-14T07:17:13Z</time></trkpt><trkpt lat="43.92523855003053" lon="11.877208172760298"><ele>372.0</ele><time>2026-04-14T07:17:14Z</time></trkpt><trkpt lat="43.9252259460762" lon="11.87700840491519"><ele>374.0</ele><time>2026-04-14T07:17:15Z</time></trkpt><trkpt lat="43.92520600858773" lon="11.87681524351277"><ele>374.0</ele><time>2026-04-14T07:17:16Z</time></trkpt><trkpt lat="43.92516872219599" lon="11.876629250767557"><ele>374.0</ele><time>2026-04-14T07:17:17Z</time></trkpt><trkpt lat="43.925121479557596" lon="11.876457525910368"><ele>374.0</ele><time>2026-04-14T07:17:18Z</time></trkpt><trkpt lat="43.92508303735597" lon="11.87628956150602"><ele>374.0</ele><time>2026-04-14T07:17:19Z</time></trkpt><trkpt lat="43.92507869285345" lon="11.87612325805583"><ele>374.0</ele><time>2026-04-14T07:17:20Z</time></trkpt><trkpt lat="43.925121857027406" lon="11.875975309724327"><ele>374.0</ele><time>2026-04-14T07:17:21Z</time></trkpt><trkpt lat="43.925187135847764" lon="11.875858434797877"><ele>374.0</ele><time>2026-04-14T07:17:22Z</time></trkpt><trkpt lat="43.92527224163046" lon="11.875781359979491"><ele>374.0</ele><time>2026-04-14T07:17:23Z</time></trkpt><trkpt lat="43.92536989071258" lon="11.875732478511337"><ele>374.0</ele><time>2026-04-14T07:17:24Z</time></trkpt><trkpt lat="43.92546086538016" lon="11.87566891153905"><ele>370.0</ele><time>2026-04-14T07:17:25Z</time></trkpt><trkpt lat="43.92552045104316" lon="11.8755718722848"><ele>366.0</ele><time>2026-04-14T07:17:26Z</time></trkpt><trkpt lat="43.92555338009223" lon="11.875442508214707"><ele>362.0</ele><time>2026-04-14T07:17:27Z</time></trkpt><trkpt lat="43.925577224819385" lon="11.875291347606488"><ele>358.0</ele><time>2026-04-14T07:17:28Z</time></trkpt><trkpt lat="43.925603544482584" lon="11.875127977066597"><ele>354.0</ele><time>2026-04-14T07:17:29Z</time></trkpt><trkpt lat="43.92562993437788" lon="11.874958673604645"><ele>353.75</ele><time>2026-04-14T07:17:30Z</time></trkpt><trkpt lat="43.925660286934416" lon="11.874780342618626"><ele>353.5</ele><time>2026-04-14T07:17:31Z</time></trkpt><trkpt lat="43.925691841820786" lon="11.87459721189849"><ele>353.25</ele><time>2026-04-14T07:17:32Z</time></trkpt><trkpt lat="43.925724502364446" lon="11.874414467238708"><ele>353.0</ele><time>2026-04-14T07:17:33Z</time></trkpt><trkpt lat="43.925770406198204" lon="11.874233432066847"><ele>352.75</ele><time>2026-04-14T07:17:34Z</time></trkpt><trkpt lat="43.92583170759794" lon="11.874060187665908"><ele>352.5</ele><time>2026-04-14T07:17:35Z</time></trkpt><trkpt lat="43.92590778593729" lon="11.873890456438708"><ele>352.25</ele><time>2026-04-14T07:17:36Z</time></trkpt><trkpt lat="43.925990591116175" lon="11.873722282629739"><ele>352.0</ele><time>2026-04-14T07:17:37Z</time></trkpt><trkpt lat="43.9260783908155" lon="11.873544648806794"><ele>360.66666666666663</ele><time>2026-04-14T07:17:38Z</time></trkpt><trkpt lat="43.9261669324891" lon="11.873360102635862"><ele>369.3333333333333</ele><time>2026-04-14T07:17:39Z</time></trkpt><trkpt lat="43.9262540926386" lon="11.873173609428724"><ele>378.0</ele><time>2026-04-14T07:17:40Z</time></trkpt><trkpt lat="43.92633864795894" lon="11.872987442219406"><ele>378.0</ele><time>2026-04-14T07:17:41Z</time></trkpt><trkpt lat="43.92642593192716" lon="11.872798160870556"><ele>378.0</ele><time>2026-04-14T07:17:42Z</time></trkpt><trkpt lat="43.926515007612544" lon="11.872620413650699"><ele>378.0</ele><time>2026-04-14T07:17:43Z</time></trkpt><trkpt lat="43.92661355227091" lon="11.872457332321943"><ele>381.66666666666663</ele><time>2026-04-14T07:17:44Z</time></trkpt><trkpt lat="43.92673193525829" lon="11.872315519138896"><ele>385.3333333333333</ele><time>2026-04-14T07:17:45Z</time></trkpt><trkpt lat="43.92686214163236" lon="11.872188194267805"><ele>389.0</ele><time>2026-04-14T07:17:46Z</time></trkpt><trkpt lat="43.926996685109984" lon="11.87206369696899"><ele>389.0</ele><time>2026-04-14T07:17:47Z</time></trkpt><trkpt lat="43.927132601647" lon="11.871932329384391"><ele>389.0</ele><time>2026-04-14T07:17:48Z</time></trkpt><trkpt lat="43.92727211808302" lon="11.87179888605678"><ele>389.0</ele><time>2026-04-14T07:17:49Z</time></trkpt><trkpt lat="43.92741339459551" lon="11.871664686357022"><ele>392.3333333333333</ele><time>2026-04-14T07:17:50Z</time></trkpt><trkpt lat="43.92755670964175" lon="11.871530993741896"><ele>395.66666666666663</ele><time>2026-04-14T07:17:51Z</time></trkpt><trkpt lat="43.92769729754509" lon="11.871389589595209"><ele>399.0</ele><time>2026-04-14T07:17:52Z</time></trkpt><trkpt lat="43.92783186208451" lon="11.871234609856202"><ele>399.0</ele><time>2026-04-14T07:17:53Z</time></trkpt><trkpt lat="43.92795634403348" lon="11.87108836748457"><ele>399.0</ele><time>2026-04-14T07:17:54Z</time></trkpt><trkpt lat="43.928074096556" lon="11.870943191984637"><ele>399.0</ele><time>2026-04-14T07:17:55Z</time></trkpt><trkpt lat="43.92818918728189" lon="11.87079853758804"><ele>402.5</ele><time>2026-04-14T07:17:56Z</time></trkpt><trkpt lat="43.9282977345807" lon="11.870665070985423"><ele>406.0</ele><time>2026-04-14T07:17:57Z</time></trkpt><trkpt lat="43.92839552703259" lon="11.87054117001362"><ele>409.5</ele><time>2026-04-14T07:17:58Z</time></trkpt><trkpt lat="43.928492259643555" lon="11.8704119708822"><ele>413.0</ele><time>2026-04-14T07:17:59Z</time></trkpt><trkpt lat="43.92859073419067" lon="11.870290104810078"><ele>413.0</ele><time>2026-04-14T07:18:00Z</time></trkpt><trkpt lat="43.92868523137092" lon="11.870163923516332"><ele>413.0</ele><time>2026-04-14T07:18:01Z</time></trkpt><trkpt lat="43.92878831603176" lon="11.870051413536176"><ele>413.0</ele><time>2026-04-14T07:18:02Z</time></trkpt><trkpt lat="43.928892787037455" lon="11.869945694449482"><ele>413.0</ele><time>2026-04-14T07:18:03Z</time></trkpt><trkpt lat="43.929005257988024" lon="11.869848465956748"><ele>414.0</ele><time>2026-04-14T07:18:04Z</time></trkpt><trkpt lat="43.92912022757392" lon="11.869747228433097"><ele>415.0</ele><time>2026-04-14T07:18:05Z</time></trkpt><trkpt lat="43.92923736925618" lon="11.869640644295567"><ele>416.0</ele><time>2026-04-14T07:18:06Z</time></trkpt><trkpt lat="43.929357552570494" lon="11.869529914898813"><ele>417.0</ele><time>2026-04-14T07:18:07Z</time></trkpt><trkpt lat="43.9294824164806" lon="11.869420955257365"><ele>417.0</ele><time>2026-04-14T07:18:08Z</time></trkpt><trkpt lat="43.929611507614915" lon="11.86931139969807"><ele>417.0</ele><time>2026-04-14T07:18:09Z</time></trkpt><trkpt lat="43.929738803769055" lon="11.869203722429948"><ele>417.0</ele><time>2026-04-14T07:18:10Z</time></trkpt><trkpt lat="43.92986483394774" lon="11.869098228341091"><ele>417.0</ele><time>2026-04-14T07:18:11Z</time></trkpt><trkpt lat="43.92998829052672" lon="11.86898480830547"><ele>418.25</ele><time>2026-04-14T07:18:12Z</time></trkpt><trkpt lat="43.930104423693194" lon="11.868861536926417"><ele>419.5</ele><time>2026-04-14T07:18:13Z</time></trkpt><trkpt lat="43.93020069111412" lon="11.868714402504223"><ele>420.75</ele><time>2026-04-14T07:18:14Z</time></trkpt><trkpt lat="43.93027076929245" lon="11.868554663379037"><ele>422.0</ele><time>2026-04-14T07:18:15Z</time></trkpt><trkpt lat="43.9303306172726" lon="11.868400857025657"><ele>415.75</ele><time>2026-04-14T07:18:16Z</time></trkpt><trkpt lat="43.93040573703905" lon="11.868271536711042"><ele>409.5</ele><time>2026-04-14T07:18:17Z</time></trkpt><trkpt lat="43.93050814363881" lon="11.868185259745859"><ele>403.25</ele><time>2026-04-14T07:18:18Z</time></trkpt><trkpt lat="43.93061612942164" lon="11.868101346448451"><ele>397.0</ele><time>2026-04-14T07:18:19Z</time></trkpt><trkpt lat="43.93071489203111" lon="11.868010192113264"><ele>397.0</ele><time>2026-04-14T07:18:20Z</time></trkpt><trkpt lat="43.9307850985855" lon="11.867901865845312"><ele>397.0</ele><time>2026-04-14T07:18:21Z</time></trkpt><trkpt lat="43.93085248320164" lon="11.867800275027296"><ele>397.0</ele><time>2026-04-14T07:18:22Z</time></trkpt><trkpt lat="43.93084406877243" lon="11.86763936800321"><ele>397.0</ele><time>2026-04-14T07:18:23Z</time></trkpt><trkpt lat="43.93084744876136" lon="11.867476853394303"><ele>397.0</ele><time>2026-04-14T07:18:24Z</time></trkpt><trkpt lat="43.930828830573795" lon="11.867313529918228"><ele>394.0</ele><time>2026-04-14T07:18:25Z</time></trkpt><trkpt lat="43.930800274178836" lon="11.867155621016648"><ele>391.0</ele><time>2026-04-14T07:18:26Z</time></trkpt><trkpt lat="43.93073666419775" lon="11.867015925960155"><ele>388.0</ele><time>2026-04-14T07:18:27Z</time></trkpt><trkpt lat="43.930646798383016" lon="11.866917189553265"><ele>385.0</ele><time>2026-04-14T07:18:28Z</time></trkpt><trkpt lat="43.93060692964777" lon="11.866792094347488"><ele>382.0</ele><time>2026-04-14T07:18:29Z</time></trkpt><trkpt lat="43.93058046598559" lon="11.866670597618985"><ele>382.0</ele><time>2026-04-14T07:18:30Z</time></trkpt><trkpt lat="43.930558645867265" lon="11.86652816447837"><ele>382.0</ele><time>2026-04-14T07:18:31Z</time></trkpt><trkpt lat="43.930557003816695" lon="11.86636895132637"><ele>382.0</ele><time>2026-04-14T07:18:32Z</time></trkpt><trkpt lat="43.9305469577223" lon="11.866201833110969"><ele>382.0</ele><time>2026-04-14T07:18:33Z</time></trkpt><trkpt lat="43.9305245105699" lon="11.866030927424369"><ele>383.75</ele><time>2026-04-14T07:18:34Z</time></trkpt><trkpt lat="43.93049241383" lon="11.865855288735684"><ele>385.5</ele><time>2026-04-14T07:18:35Z</time></trkpt><trkpt lat="43.930450965845594" lon="11.86567084105735"><ele>387.25</ele><time>2026-04-14T07:18:36Z</time></trkpt><trkpt lat="43.930396636295065" lon="11.865479905005662"><ele>389.0</ele><time>2026-04-14T07:18:37Z</time></trkpt><trkpt lat="43.93033363997542" lon="11.865295887754776"><ele>389.0</ele><time>2026-04-14T07:18:38Z</time></trkpt><trkpt lat="43.93026164014554" lon="11.865131484777756"><ele>389.0</ele><time>2026-04-14T07:18:39Z</time></trkpt><trkpt lat="43.930196779119875" lon="11.864992040899763"><ele>389.0</ele><time>2026-04-14T07:18:40Z</time></trkpt><trkpt lat="43.93017017508389" lon="11.864854535522069"><ele>389.0</ele><time>2026-04-14T07:18:41Z</time></trkpt><trkpt lat="43.93017535444675" lon="11.864702016496775"><ele>389.75</ele><time>2026-04-14T07:18:42Z</time></trkpt><trkpt lat="43.930206114760196" lon="11.864532875356877"><ele>390.5</ele><time>2026-04-14T07:18:43Z</time></trkpt><trkpt lat="43.93024424466635" lon="11.864356768506994"><ele>391.25</ele><time>2026-04-14T07:18:44Z</time></trkpt><trkpt lat="43.930280376908925" lon="11.864175072886813"><ele>392.0</ele><time>2026-04-14T07:18:45Z</time></trkpt><trkpt lat="43.93030310179973" lon="11.864002926621533"><ele>392.0</ele><time>2026-04-14T07:18:46Z</time></trkpt><trkpt lat="43.93029731512862" lon="11.863830054890542"><ele>392.0</ele><time>2026-04-14T07:18:47Z</time></trkpt><trkpt lat="43.930270175015735" lon="11.86367168808409"><ele>392.0</ele><time>2026-04-14T07:18:48Z</time></trkpt><trkpt lat="43.93021777874053" lon="11.863529343850097"><ele>392.0</ele><time>2026-04-14T07:18:49Z</time></trkpt><trkpt lat="43.930159690711925" lon="11.863398677174509"><ele>392.0</ele><time>2026-04-14T07:18:50Z</time></trkpt><trkpt lat="43.93012791516911" lon="11.863262180546899"><ele>392.0</ele><time>2026-04-14T07:18:51Z</time></trkpt><trkpt lat="43.93013903439293" lon="11.863120440493704"><ele>392.0</ele><time>2026-04-14T07:18:52Z</time></trkpt><trkpt lat="43.930168001416874" lon="11.862975040843063"><ele>392.0</ele><time>2026-04-14T07:18:53Z</time></trkpt><trkpt lat="43.93021391177721" lon="11.862823592359092"><ele>392.0</ele><time>2026-04-14T07:18:54Z</time></trkpt><trkpt lat="43.930258507421684" lon="11.86268126677639"><ele>390.40000000000003</ele><time>2026-04-14T07:18:55Z</time></trkpt><trkpt lat="43.9303104550737" lon="11.862555057897387"><ele>388.8</ele><time>2026-04-14T07:18:56Z</time></trkpt><trkpt lat="43.930382418485905" lon="11.862454484997853"><ele>387.2</ele><time>2026-04-14T07:18:57Z</time></trkpt><trkpt lat="43.93046185525953" lon="11.862372835753455"><ele>385.6</ele><time>2026-04-14T07:18:58Z</time></trkpt><trkpt lat="43.930546772638124" lon="11.862295482308108"><ele>384.0</ele><time>2026-04-14T07:18:59Z</time></trkpt><trkpt lat="43.930622092632355" lon="11.862190145414516"><ele>384.0</ele><time>2026-04-14T07:19:00Z</time></trkpt><trkpt lat="43.93068375561217" lon="11.862058809738423"><ele>384.0</ele><time>2026-04-14T07:19:01Z</time></trkpt><trkpt lat="43.93075435379593" lon="11.86192437976786"><ele>384.0</ele><time>2026-04-14T07:19:02Z</time></trkpt><trkpt lat="43.93084702907891" lon="11.861798881836181"><ele>384.0</ele><time>2026-04-14T07:19:03Z</time></trkpt><trkpt lat="43.93095816699234" lon="11.861682557472552"><ele>388.75</ele><time>2026-04-14T07:19:04Z</time></trkpt><trkpt lat="43.931078942260825" lon="11.861569340443994"><ele>393.5</ele><time>2026-04-14T07:19:05Z</time></trkpt><trkpt lat="43.931204132356484" lon="11.861451451642342"><ele>398.25</ele><time>2026-04-14T07:19:06Z</time></trkpt><trkpt lat="43.93131464101099" lon="11.861343548523472"><ele>403.0</ele><time>2026-04-14T07:19:07Z</time></trkpt><trkpt lat="43.93139852820257" lon="11.861255450914495"><ele>403.0</ele><time>2026-04-14T07:19:08Z</time></trkpt><trkpt lat="43.931466224179246" lon="11.861166306950944"><ele>403.0</ele><time>2026-04-14T07:19:09Z</time></trkpt><trkpt lat="43.93149860823828" lon="11.861016649975413"><ele>403.0</ele><time>2026-04-14T07:19:10Z</time></trkpt><trkpt lat="43.931486503244585" lon="11.860856825161889"><ele>403.0</ele><time>2026-04-14T07:19:11Z</time></trkpt><trkpt lat="43.93148938861036" lon="11.860692054041078"><ele>403.0</ele><time>2026-04-14T07:19:12Z</time></trkpt><trkpt lat="43.931491442005736" lon="11.860507076956115"><ele>396.75</ele><time>2026-04-14T07:19:13Z</time></trkpt><trkpt lat="43.93151285155461" lon="11.860316787301775"><ele>390.5</ele><time>2026-04-14T07:19:14Z</time></trkpt><trkpt lat="43.93155413521988" lon="11.860122449257215"><ele>384.25</ele><time>2026-04-14T07:19:15Z</time></trkpt><trkpt lat="43.931595457607706" lon="11.859917491557937"><ele>378.0</ele><time>2026-04-14T07:19:16Z</time></trkpt><trkpt lat="43.931644613627626" lon="11.85970393153191"><ele>376.6666666666667</ele><time>2026-04-14T07:19:17Z</time></trkpt><trkpt lat="43.93165160978014" lon="11.859479715123724"><ele>375.33333333333337</ele><time>2026-04-14T07:19:18Z</time></trkpt><trkpt lat="43.93167496691011" lon="11.859266196469358"><ele>374.0</ele><time>2026-04-14T07:19:19Z</time></trkpt><trkpt lat="43.93168498656858" lon="11.859058769253412"><ele>374.0</ele><time>2026-04-14T07:19:20Z</time></trkpt><trkpt lat="43.93166582605767" lon="11.858853194161881"><ele>374.0</ele><time>2026-04-14T07:19:21Z</time></trkpt><trkpt lat="43.93162712418748" lon="11.858645214388147"><ele>374.0</ele><time>2026-04-14T07:19:22Z</time></trkpt><trkpt lat="43.93158251110965" lon="11.85843239703517"><ele>376.6666666666667</ele><time>2026-04-14T07:19:23Z</time></trkpt><trkpt lat="43.93154086026248" lon="11.858216176562813"><ele>379.3333333333333</ele><time>2026-04-14T07:19:24Z</time></trkpt><trkpt lat="43.93149967206352" lon="11.858000343828271"><ele>382.0</ele><time>2026-04-14T07:19:25Z</time></trkpt><trkpt lat="43.931461470261624" lon="11.857778703993702"><ele>382.3333333333333</ele><time>2026-04-14T07:19:26Z</time></trkpt><trkpt lat="43.93142277167293" lon="11.85755347582337"><ele>382.6666666666667</ele><time>2026-04-14T07:19:27Z</time></trkpt><trkpt lat="43.93138596003568" lon="11.857321983310229"><ele>383.0</ele><time>2026-04-14T07:19:28Z</time></trkpt><trkpt lat="43.93135038584428" lon="11.857103323986086"><ele>383.0</ele><time>2026-04-14T07:19:29Z</time></trkpt><trkpt lat="43.93131340672958" lon="11.856894495346674"><ele>383.0</ele><time>2026-04-14T07:19:30Z</time></trkpt><trkpt lat="43.931267767831464" lon="11.856698145187448"><ele>383.0</ele><time>2026-04-14T07:19:31Z</time></trkpt><trkpt lat="43.931198275756486" lon="11.856513345759828"><ele>381.6666666666667</ele><time>2026-04-14T07:19:32Z</time></trkpt><trkpt lat="43.93110375912946" lon="11.856337352003441"><ele>380.3333333333333</ele><time>2026-04-14T07:19:33Z</time></trkpt><trkpt lat="43.93099632039635" lon="11.856163809978693"><ele>379.0</ele><time>2026-04-14T07:19:34Z</time></trkpt><trkpt lat="43.93088684333288" lon="11.855983515011083"><ele>376.0</ele><time>2026-04-14T07:19:35Z</time></trkpt><trkpt lat="43.93077909499766" lon="11.855805895716886"><ele>373.0</ele><time>2026-04-14T07:19:36Z</time></trkpt><trkpt lat="43.93067664482668" lon="11.8556354249263"><ele>370.0</ele><time>2026-04-14T07:19:37Z</time></trkpt><trkpt lat="43.93057832804489" lon="11.855470954841765"><ele>370.0</ele><time>2026-04-14T07:19:38Z</time></trkpt><trkpt lat="43.93048437180936" lon="11.855316242581338"><ele>370.0</ele><time>2026-04-14T07:19:39Z</time></trkpt><trkpt lat="43.930395345593965" lon="11.855157444848095"><ele>370.0</ele><time>2026-04-14T07:19:40Z</time></trkpt><trkpt lat="43.930316238846665" lon="11.854988587989638"><ele>370.0</ele><time>2026-04-14T07:19:41Z</time></trkpt><trkpt lat="43.93025234538462" lon="11.854807877188817"><ele>377.3333333333333</ele><time>2026-04-14T07:19:42Z</time></trkpt><trkpt lat="43.930213233123396" lon="11.854607265078503"><ele>384.66666666666663</ele><time>2026-04-14T07:19:43Z</time></trkpt><trkpt lat="43.930188140696536" lon="11.854398185867908"><ele>392.0</ele><time>2026-04-14T07:19:44Z</time></trkpt><trkpt lat="43.93017540671275" lon="11.854181436374152"><ele>395.0</ele><time>2026-04-14T07:19:45Z</time></trkpt><trkpt lat="43.930109383275266" lon="11.853978789780667"><ele>398.0</ele><time>2026-04-14T07:19:46Z</time></trkpt><trkpt lat="43.93004284643484" lon="11.853775570952116"><ele>401.0</ele><time>2026-04-14T07:19:47Z</time></trkpt><trkpt lat="43.92996524521407" lon="11.853574156040581"><ele>390.3333333333333</ele><time>2026-04-14T07:19:48Z</time></trkpt><trkpt lat="43.92990991532337" lon="11.853364864154027"><ele>379.66666666666663</ele><time>2026-04-14T07:19:49Z</time></trkpt><trkpt lat="43.92984332960545" lon="11.853170715092848"><ele>369.0</ele><time>2026-04-14T07:19:50Z</time></trkpt><trkpt lat="43.92978225938283" lon="11.852975055562887"><ele>369.0</ele><time>2026-04-14T07:19:51Z</time></trkpt><trkpt lat="43.92972459554088" lon="11.852784573687558"><ele>369.0</ele><time>2026-04-14T07:19:52Z</time></trkpt><trkpt lat="43.9297090125821" lon="11.852584394083827"><ele>369.0</ele><time>2026-04-14T07:19:53Z</time></trkpt><trkpt lat="43.929718351886365" lon="11.852382223090881"><ele>369.0</ele><time>2026-04-14T07:19:54Z</time></trkpt><trkpt lat="43.92974264052084" lon="11.852177749679417"><ele>370.25</ele><time>2026-04-14T07:19:55Z</time></trkpt><trkpt lat="43.92976926233145" lon="11.851973361500221"><ele>371.5</ele><time>2026-04-14T07:19:56Z</time></trkpt><trkpt lat="43.929791222219535" lon="11.851777059658671"><ele>372.75</ele><time>2026-04-14T07:19:57Z</time></trkpt><trkpt lat="43.9298061119113" lon="11.851588911570575"><ele>374.0</ele><time>2026-04-14T07:19:58Z</time></trkpt><trkpt lat="43.929843649017855" lon="11.85141628453056"><ele>374.2</ele><time>2026-04-14T07:19:59Z</time></trkpt><trkpt lat="43.929858738608445" lon="11.851255585290717"><ele>374.4</ele><time>2026-04-14T07:20:00Z</time></trkpt><trkpt lat="43.92991837299964" lon="11.851131419507297"><ele>374.6</ele><time>2026-04-14T07:20:01Z</time></trkpt><trkpt lat="43.92999309354476" lon="11.851029103395565"><ele>374.8</ele><time>2026-04-14T07:20:02Z</time></trkpt><trkpt lat="43.9300540609954" lon="11.850930697520592"><ele>375.0</ele><time>2026-04-14T07:20:03Z</time></trkpt><trkpt lat="43.93009246384096" lon="11.850819486503104"><ele>374.8</ele><time>2026-04-14T07:20:04Z</time></trkpt><trkpt lat="43.93009710907382" lon="11.85068017727031"><ele>374.6</ele><time>2026-04-14T07:20:05Z</time></trkpt><trkpt lat="43.93008630359147" lon="11.850531151508589"><ele>374.4</ele><time>2026-04-14T07:20:06Z</time></trkpt><trkpt lat="43.93005814968741" lon="11.850371939088191"><ele>374.2</ele><time>2026-04-14T07:20:07Z</time></trkpt><trkpt lat="43.93003934200341" lon="11.85022347592612"><ele>374.0</ele><time>2026-04-14T07:20:08Z</time></trkpt><trkpt lat="43.92997839619103" lon="11.850089143628255"><ele>374.0</ele><time>2026-04-14T07:20:09Z</time></trkpt><trkpt lat="43.92986933261262" lon="11.85002211991615"><ele>374.0</ele><time>2026-04-14T07:20:10Z</time></trkpt><trkpt lat="43.9297676672655" lon="11.849952301752012"><ele>374.0</ele><time>2026-04-14T07:20:11Z</time></trkpt><trkpt lat="43.929656212218504" lon="11.849885637335776"><ele>374.0</ele><time>2026-04-14T07:20:12Z</time></trkpt><trkpt lat="43.929534080237396" lon="11.849812276779152"><ele>374.0</ele><time>2026-04-14T07:20:13Z</time></trkpt><trkpt lat="43.92940356742269" lon="11.849736296042378"><ele>374.0</ele><time>2026-04-14T07:20:14Z</time></trkpt><trkpt lat="43.92926314391459" lon="11.84966253575012"><ele>374.0</ele><time>2026-04-14T07:20:15Z</time></trkpt><trkpt lat="43.92910669707527" lon="11.84958889247568"><ele>371.6666666666667</ele><time>2026-04-14T07:20:16Z</time></trkpt><trkpt lat="43.928943278007004" lon="11.849513252980481"><ele>369.3333333333333</ele><time>2026-04-14T07:20:17Z</time></trkpt><trkpt lat="43.92877731675155" lon="11.849445303662733"><ele>367.0</ele><time>2026-04-14T07:20:18Z</time></trkpt><trkpt lat="43.928609638677564" lon="11.849383855564813"><ele>367.0</ele><time>2026-04-14T07:20:19Z</time></trkpt><trkpt lat="43.928441558681286" lon="11.849329394529397"><ele>367.0</ele><time>2026-04-14T07:20:20Z</time></trkpt><trkpt lat="43.92827225750753" lon="11.849280741652198"><ele>367.0</ele><time>2026-04-14T07:20:21Z</time></trkpt><trkpt lat="43.92810137601318" lon="11.849248321327302"><ele>371.0</ele><time>2026-04-14T07:20:22Z</time></trkpt><trkpt lat="43.92793433191109" lon="11.84922482962404"><ele>375.0</ele><time>2026-04-14T07:20:23Z</time></trkpt><trkpt lat="43.92777294393514" lon="11.849196907084131"><ele>379.0</ele><time>2026-04-14T07:20:24Z</time></trkpt><trkpt lat="43.927613190706715" lon="11.84915059838187"><ele>377.3333333333333</ele><time>2026-04-14T07:20:25Z</time></trkpt><trkpt lat="43.92745654844358" lon="11.84908698697543"><ele>375.6666666666667</ele><time>2026-04-14T07:20:26Z</time></trkpt><trkpt lat="43.927302431062905" lon="11.849014888940594"><ele>374.0</ele><time>2026-04-14T07:20:27Z</time></trkpt><trkpt lat="43.927155239626074" lon="11.848939412119698"><ele>374.0</ele><time>2026-04-14T07:20:28Z</time></trkpt><trkpt lat="43.927021110962315" lon="11.848857598506639"><ele>374.0</ele><time>2026-04-14T07:20:29Z</time></trkpt><trkpt lat="43.9268880805193" lon="11.848758249264801"><ele>374.0</ele><time>2026-04-14T07:20:30Z</time></trkpt><trkpt lat="43.92676197602516" lon="11.848640181356712"><ele>374.6666666666667</ele><time>2026-04-14T07:20:31Z</time></trkpt><trkpt lat="43.92664069608426" lon="11.848495363758168"><ele>375.3333333333333</ele><time>2026-04-14T07:20:32Z</time></trkpt><trkpt lat="43.926525620459" lon="11.84835098400802"><ele>376.0</ele><time>2026-04-14T07:20:33Z</time></trkpt><trkpt lat="43.926409515927084" lon="11.84821272197498"><ele>376.0</ele><time>2026-04-14T07:20:34Z</time></trkpt><trkpt lat="43.926279949061424" lon="11.848099571260502"><ele>376.0</ele><time>2026-04-14T07:20:35Z</time></trkpt><trkpt lat="43.92613595832574" lon="11.848012929676747"><ele>376.0</ele><time>2026-04-14T07:20:36Z</time></trkpt><trkpt lat="43.92598612951959" lon="11.847935807911826"><ele>372.3333333333333</ele><time>2026-04-14T07:20:37Z</time></trkpt><trkpt lat="43.92582930371801" lon="11.847876364368215"><ele>368.6666666666667</ele><time>2026-04-14T07:20:38Z</time></trkpt><trkpt lat="43.925665494318295" lon="11.847827021611819"><ele>365.0</ele><time>2026-04-14T07:20:39Z</time></trkpt><trkpt lat="43.925508561919195" lon="11.847813968169522"><ele>365.0</ele><time>2026-04-14T07:20:40Z</time></trkpt><trkpt lat="43.92533860040027" lon="11.847818195757078"><ele>365.0</ele><time>2026-04-14T07:20:41Z</time></trkpt><trkpt lat="43.92516689015105" lon="11.847835875025348"><ele>365.0</ele><time>2026-04-14T07:20:42Z</time></trkpt><trkpt lat="43.924994409673545" lon="11.847868803849208"><ele>365.33333333333337</ele><time>2026-04-14T07:20:43Z</time></trkpt><trkpt lat="43.924820537968436" lon="11.847919315766939"><ele>365.6666666666667</ele><time>2026-04-14T07:20:44Z</time></trkpt><trkpt lat="43.92464907862867" lon="11.847975480494966"><ele>366.0</ele><time>2026-04-14T07:20:45Z</time></trkpt><trkpt lat="43.924478003732894" lon="11.848022863197778"><ele>366.0</ele><time>2026-04-14T07:20:46Z</time></trkpt><trkpt lat="43.92430635797084" lon="11.848062517092242"><ele>366.0</ele><time>2026-04-14T07:20:47Z</time></trkpt><trkpt lat="43.92413057816183" lon="11.848098594292571"><ele>366.0</ele><time>2026-04-14T07:20:48Z</time></trkpt><trkpt lat="43.92395141160288" lon="11.848132081075567"><ele>370.3333333333333</ele><time>2026-04-14T07:20:49Z</time></trkpt><trkpt lat="43.923774385444894" lon="11.84816622546972"><ele>374.66666666666663</ele><time>2026-04-14T07:20:50Z</time></trkpt><trkpt lat="43.923604509370904" lon="11.848198407695048"><ele>379.0</ele><time>2026-04-14T07:20:51Z</time></trkpt><trkpt lat="43.923440479700574" lon="11.848234896121015"><ele>380.3333333333333</ele><time>2026-04-14T07:20:52Z</time></trkpt><trkpt lat="43.923283606007146" lon="11.848271226950297"><ele>381.6666666666667</ele><time>2026-04-14T07:20:53Z</time></trkpt><trkpt lat="43.923136461222114" lon="11.84830404830261"><ele>383.0</ele><time>2026-04-14T07:20:54Z</time></trkpt><trkpt lat="43.922996430200236" lon="11.848334367469507"><ele>383.0</ele><time>2026-04-14T07:20:55Z</time></trkpt><trkpt lat="43.92286854893663" lon="11.848358124271243"><ele>383.0</ele><time>2026-04-14T07:20:56Z</time></trkpt><trkpt lat="43.92275804958912" lon="11.848360880110448"><ele>383.0</ele><time>2026-04-14T07:20:57Z</time></trkpt><trkpt lat="43.92266068688511" lon="11.84833214205796"><ele>383.0</ele><time>2026-04-14T07:20:58Z</time></trkpt><trkpt lat="43.92258626623877" lon="11.848272793681204"><ele>383.0</ele><time>2026-04-14T07:20:59Z</time></trkpt><trkpt lat="43.92254283225126" lon="11.848175974985491"><ele>383.0</ele><time>2026-04-14T07:21:00Z</time></trkpt><trkpt lat="43.922529912560265" lon="11.848061734132454"><ele>383.0</ele><time>2026-04-14T07:21:01Z</time></trkpt><trkpt lat="43.922559242387194" lon="11.847937407772836"><ele>383.0</ele><time>2026-04-14T07:21:02Z</time></trkpt><trkpt lat="43.92262186299221" lon="11.847822159172324"><ele>383.0</ele><time>2026-04-14T07:21:03Z</time></trkpt><trkpt lat="43.92269886724642" lon="11.847703655665068"><ele>383.0</ele><time>2026-04-14T07:21:04Z</time></trkpt><trkpt lat="43.92279404262975" lon="11.847572121126849"><ele>388.0</ele><time>2026-04-14T07:21:05Z</time></trkpt><trkpt lat="43.92290000208561" lon="11.847417804837926"><ele>393.0</ele><time>2026-04-14T07:21:06Z</time></trkpt><trkpt lat="43.92299979030355" lon="11.847246700791526"><ele>398.0</ele><time>2026-04-14T07:21:07Z</time></trkpt><trkpt lat="43.92307989795109" lon="11.84706592153111"><ele>398.0</ele><time>2026-04-14T07:21:08Z</time></trkpt><trkpt lat="43.92314801003167" lon="11.846894136951528"><ele>398.0</ele><time>2026-04-14T07:21:09Z</time></trkpt><trkpt lat="43.92323678909022" lon="11.846744172529807"><ele>398.0</ele><time>2026-04-14T07:21:10Z</time></trkpt><trkpt lat="43.9233497749712" lon="11.846626512381862"><ele>398.0</ele><time>2026-04-14T07:21:11Z</time></trkpt><trkpt lat="43.92346932543152" lon="11.846509529129062"><ele>408.66666666666663</ele><time>2026-04-14T07:21:12Z</time></trkpt><trkpt lat="43.92358022675866" lon="11.846362711288194"><ele>419.33333333333337</ele><time>2026-04-14T07:21:13Z</time></trkpt><trkpt lat="43.923674427228384" lon="11.846179189606428"><ele>430.0</ele><time>2026-04-14T07:21:14Z</time></trkpt><trkpt lat="43.92375917397099" lon="11.845996728510585"><ele>427.0</ele><time>2026-04-14T07:21:15Z</time></trkpt><trkpt lat="43.92383410026213" lon="11.84582028979837"><ele>424.0</ele><time>2026-04-14T07:21:16Z</time></trkpt><trkpt lat="43.92388549673046" lon="11.845627895611477"><ele>421.0</ele><time>2026-04-14T07:21:17Z</time></trkpt><trkpt lat="43.923914401121486" lon="11.845420231858979"><ele>418.0</ele><time>2026-04-14T07:21:18Z</time></trkpt><trkpt lat="43.92392006152732" lon="11.845202650052997"><ele>417.33333333333337</ele><time>2026-04-14T07:21:19Z</time></trkpt><trkpt lat="43.92390817871303" lon="11.844983116756973"><ele>416.66666666666663</ele><time>2026-04-14T07:21:20Z</time></trkpt><trkpt lat="43.92387861505985" lon="11.844768018124945"><ele>416.0</ele><time>2026-04-14T07:21:21Z</time></trkpt><trkpt lat="43.92383335744489" lon="11.844570993330144"><ele>416.0</ele><time>2026-04-14T07:21:22Z</time></trkpt><trkpt lat="43.923777626857685" lon="11.844388244297633"><ele>416.0</ele><time>2026-04-14T07:21:23Z</time></trkpt><trkpt lat="43.92370270041792" lon="11.844222877913342"><ele>416.0</ele><time>2026-04-14T07:21:24Z</time></trkpt><trkpt lat="43.92360063777225" lon="11.844083621929334"><ele>416.0</ele><time>2026-04-14T07:21:25Z</time></trkpt><trkpt lat="43.92348370194554" lon="11.843959432149546"><ele>408.25</ele><time>2026-04-14T07:21:26Z</time></trkpt><trkpt lat="43.92336721540932" lon="11.84385443811581"><ele>400.5</ele><time>2026-04-14T07:21:27Z</time></trkpt><trkpt lat="43.923237492281274" lon="11.8437803142269"><ele>392.75</ele><time>2026-04-14T07:21:28Z</time></trkpt><trkpt lat="43.923094006414324" lon="11.843729504036942"><ele>385.0</ele><time>2026-04-14T07:21:29Z</time></trkpt><trkpt lat="43.9229378018358" lon="11.843712433916846"><ele>385.0</ele><time>2026-04-14T07:21:30Z</time></trkpt><trkpt lat="43.92278112788219" lon="11.843723753836407"><ele>385.0</ele><time>2026-04-14T07:21:31Z</time></trkpt><trkpt lat="43.92262990809633" lon="11.84376167071335"><ele>385.0</ele><time>2026-04-14T07:21:32Z</time></trkpt><trkpt lat="43.92248176492198" lon="11.843823048648586"><ele>384.75</ele><time>2026-04-14T07:21:33Z</time></trkpt><trkpt lat="43.92234258426016" lon="11.84390256151909"><ele>384.5</ele><time>2026-04-14T07:21:34Z</time></trkpt><trkpt lat="43.92221481801278" lon="11.843985171537916"><ele>384.25</ele><time>2026-04-14T07:21:35Z</time></trkpt><trkpt lat="43.92209162140847" lon="11.844059357721815"><ele>384.0</ele><time>2026-04-14T07:21:36Z</time></trkpt><trkpt lat="43.921968844563416" lon="11.844108218801942"><ele>384.0</ele><time>2026-04-14T07:21:37Z</time></trkpt><trkpt lat="43.921839848641675" lon="11.844104437522669"><ele>384.0</ele><time>2026-04-14T07:21:38Z</time></trkpt><trkpt lat="43.921715901608685" lon="11.844071889169918"><ele>384.0</ele><time>2026-04-14T07:21:39Z</time></trkpt><trkpt lat="43.92159704952755" lon="11.844010575909575"><ele>384.0</ele><time>2026-04-14T07:21:40Z</time></trkpt><trkpt lat="43.921477167620814" lon="11.843975931871729"><ele>386.5</ele><time>2026-04-14T07:21:41Z</time></trkpt><trkpt lat="43.92135894054973" lon="11.843992379009235"><ele>389.0</ele><time>2026-04-14T07:21:42Z</time></trkpt><trkpt lat="43.921243260330414" lon="11.844053190876684"><ele>391.5</ele><time>2026-04-14T07:21:43Z</time></trkpt><trkpt lat="43.92112706423277" lon="11.844139852325407"><ele>394.0</ele><time>2026-04-14T07:21:44Z</time></trkpt><trkpt lat="43.92101663143055" lon="11.844225681763508"><ele>394.0</ele><time>2026-04-14T07:21:45Z</time></trkpt><trkpt lat="43.920916926001" lon="11.844284279962016"><ele>394.0</ele><time>2026-04-14T07:21:46Z</time></trkpt><trkpt lat="43.92082844408646" lon="11.84429121071088"><ele>394.0</ele><time>2026-04-14T07:21:47Z</time></trkpt><trkpt lat="43.92074703260843" lon="11.844250176647241"><ele>394.0</ele><time>2026-04-14T07:21:48Z</time></trkpt><trkpt lat="43.92067672510422" lon="11.844158112044893"><ele>394.0</ele><time>2026-04-14T07:21:49Z</time></trkpt><trkpt lat="43.920622281871466" lon="11.844036811283985"><ele>395.75</ele><time>2026-04-14T07:21:50Z</time></trkpt><trkpt lat="43.92057151531146" lon="11.84388971222377"><ele>397.5</ele><time>2026-04-14T07:21:51Z</time></trkpt><trkpt lat="43.92050310153523" lon="11.843744247690232"><ele>399.25</ele><time>2026-04-14T07:21:52Z</time></trkpt><trkpt lat="43.92041351605454" lon="11.84362322869872"><ele>401.0</ele><time>2026-04-14T07:21:53Z</time></trkpt><trkpt lat="43.920301116825435" lon="11.843540340736553"><ele>401.0</ele><time>2026-04-14T07:21:54Z</time></trkpt><trkpt lat="43.92017291219887" lon="11.843486945402201"><ele>401.0</ele><time>2026-04-14T07:21:55Z</time></trkpt><trkpt lat="43.9200332073891" lon="11.843445466065802"><ele>401.0</ele><time>2026-04-14T07:21:56Z</time></trkpt><trkpt lat="43.91990030724777" lon="11.843384842904474"><ele>401.0</ele><time>2026-04-14T07:21:57Z</time></trkpt><trkpt lat="43.91978055942542" lon="11.84328913294319"><ele>402.25</ele><time>2026-04-14T07:21:58Z</time></trkpt><trkpt lat="43.91966656105115" lon="11.84316781110407"><ele>403.5</ele><time>2026-04-14T07:21:59Z</time></trkpt><trkpt lat="43.91955529144314" lon="11.843058113053436"><ele>404.75</ele><time>2026-04-14T07:22:00Z</time></trkpt><trkpt lat="43.91943796478481" lon="11.84298832386597"><ele>406.0</ele><time>2026-04-14T07:22:01Z</time></trkpt><trkpt lat="43.91933199917422" lon="11.84294605140792"><ele>406.0</ele><time>2026-04-14T07:22:02Z</time></trkpt><trkpt lat="43.919251290660554" lon="11.842887676559414"><ele>406.0</ele><time>2026-04-14T07:22:03Z</time></trkpt><trkpt lat="43.9191958545507" lon="11.84278107300602"><ele>406.0</ele><time>2026-04-14T07:22:04Z</time></trkpt><trkpt lat="43.91917461440055" lon="11.8426515164691"><ele>406.0</ele><time>2026-04-14T07:22:05Z</time></trkpt><trkpt lat="43.91917440413012" lon="11.842490963001332"><ele>406.0</ele><time>2026-04-14T07:22:06Z</time></trkpt><trkpt lat="43.919176223102745" lon="11.842308151718708"><ele>406.33333333333337</ele><time>2026-04-14T07:22:07Z</time></trkpt><trkpt lat="43.91917552225192" lon="11.842093744188068"><ele>406.66666666666663</ele><time>2026-04-14T07:22:08Z</time></trkpt><trkpt lat="43.919166098687214" lon="11.841867266554242"><ele>407.0</ele><time>2026-04-14T07:22:09Z</time></trkpt><trkpt lat="43.91914116044007" lon="11.841623729664857"><ele>408.3333333333333</ele><time>2026-04-14T07:22:10Z</time></trkpt><trkpt lat="43.91910656068001" lon="11.841371995181666"><ele>409.66666666666663</ele><time>2026-04-14T07:22:11Z</time></trkpt><trkpt lat="43.91907474594728" lon="11.841123527939915"><ele>411.0</ele><time>2026-04-14T07:22:12Z</time></trkpt><trkpt lat="43.919047685965054" lon="11.84089144191037"><ele>412.0</ele><time>2026-04-14T07:22:13Z</time></trkpt><trkpt lat="43.91901870023826" lon="11.84065631235744"><ele>413.0</ele><time>2026-04-14T07:22:14Z</time></trkpt><trkpt lat="43.91897841255803" lon="11.840425117718677"><ele>414.0</ele><time>2026-04-14T07:22:15Z</time></trkpt><trkpt lat="43.9189221076923" lon="11.840198203410287"><ele>410.33333333333337</ele><time>2026-04-14T07:22:16Z</time></trkpt><trkpt lat="43.91885397589912" lon="11.83997572307912"><ele>406.6666666666667</ele><time>2026-04-14T07:22:17Z</time></trkpt><trkpt lat="43.91878667255903" lon="11.839758068610909"><ele>403.0</ele><time>2026-04-14T07:22:18Z</time></trkpt><trkpt lat="43.91872254613306" lon="11.83955041339753"><ele>403.0</ele><time>2026-04-14T07:22:19Z</time></trkpt><trkpt lat="43.91867090157466" lon="11.839346170684916"><ele>403.0</ele><time>2026-04-14T07:22:20Z</time></trkpt><trkpt lat="43.9186303877621" lon="11.83914202914822"><ele>403.0</ele><time>2026-04-14T07:22:21Z</time></trkpt><trkpt lat="43.9186036045152" lon="11.838942788167822"><ele>404.75</ele><time>2026-04-14T07:22:22Z</time></trkpt><trkpt lat="43.918568555668" lon="11.838755656141096"><ele>406.5</ele><time>2026-04-14T07:22:23Z</time></trkpt><trkpt lat="43.918499752789" lon="11.83859784456739"><ele>408.25</ele><time>2026-04-14T07:22:24Z</time></trkpt><trkpt lat="43.918404690031274" lon="11.838454489485429"><ele>410.0</ele><time>2026-04-14T07:22:25Z</time></trkpt><trkpt lat="43.91828539052833" lon="11.838332441840233"><ele>410.0</ele><time>2026-04-14T07:22:26Z</time></trkpt><trkpt lat="43.918151738727566" lon="11.838228738291962"><ele>410.0</ele><time>2026-04-14T07:22:27Z</time></trkpt><trkpt lat="43.91800365246639" lon="11.838148068705248"><ele>410.0</ele><time>2026-04-14T07:22:28Z</time></trkpt><trkpt lat="43.91784153030755" lon="11.838089136732426"><ele>410.0</ele><time>2026-04-14T07:22:29Z</time></trkpt><trkpt lat="43.91767102851672" lon="11.838035310494869"><ele>410.0</ele><time>2026-04-14T07:22:30Z</time></trkpt><trkpt lat="43.91750291817862" lon="11.837968915774367"><ele>410.0</ele><time>2026-04-14T07:22:31Z</time></trkpt><trkpt lat="43.91733366356283" lon="11.837901840902417"><ele>406.0</ele><time>2026-04-14T07:22:32Z</time></trkpt><trkpt lat="43.91716361361055" lon="11.837839093625135"><ele>402.0</ele><time>2026-04-14T07:22:33Z</time></trkpt><trkpt lat="43.91700258410862" lon="11.837777498987451"><ele>398.0</ele><time>2026-04-14T07:22:34Z</time></trkpt><trkpt lat="43.91684729083451" lon="11.83772138656049"><ele>397.66666666666663</ele><time>2026-04-14T07:22:35Z</time></trkpt><trkpt lat="43.91669784097367" lon="11.837665001412772"><ele>397.33333333333337</ele><time>2026-04-14T07:22:36Z</time></trkpt><trkpt lat="43.91656198688695" lon="11.837577633099109"><ele>397.0</ele><time>2026-04-14T07:22:37Z</time></trkpt><trkpt lat="43.91643927584117" lon="11.837452647852572"><ele>400.0</ele><time>2026-04-14T07:22:38Z</time></trkpt><trkpt lat="43.916320320512646" lon="11.837312677174765"><ele>403.0</ele><time>2026-04-14T07:22:39Z</time></trkpt><trkpt lat="43.916187684096414" lon="11.83718908052193"><ele>406.0</ele><time>2026-04-14T07:22:40Z</time></trkpt><trkpt lat="43.916035421095216" lon="11.837091615790175"><ele>403.33333333333337</ele><time>2026-04-14T07:22:41Z</time></trkpt><trkpt lat="43.91587279809706" lon="11.83700894194317"><ele>400.66666666666663</ele><time>2026-04-14T07:22:42Z</time></trkpt><trkpt lat="43.91570971113217" lon="11.836925801443435"><ele>398.0</ele><time>2026-04-14T07:22:43Z</time></trkpt><trkpt lat="43.915555162959464" lon="11.83684526817122"><ele>400.25</ele><time>2026-04-14T07:22:44Z</time></trkpt><trkpt lat="43.915410011264875" lon="11.836769822618503"><ele>402.5</ele><time>2026-04-14T07:22:45Z</time></trkpt><trkpt lat="43.91526789306015" lon="11.83669982955445"><ele>404.75</ele><time>2026-04-14T07:22:46Z</time></trkpt><trkpt lat="43.915134931454105" lon="11.836626714661291"><ele>407.0</ele><time>2026-04-14T07:22:47Z</time></trkpt><trkpt lat="43.915005898586486" lon="11.836553943402045"><ele>407.0</ele><time>2026-04-14T07:22:48Z</time></trkpt><trkpt lat="43.91487899985645" lon="11.836492186069746"><ele>407.0</ele><time>2026-04-14T07:22:49Z</time></trkpt><trkpt lat="43.914747179448234" lon="11.836460891218286"><ele>407.0</ele><time>2026-04-14T07:22:50Z</time></trkpt><trkpt lat="43.91460903826449" lon="11.83647818828538"><ele>407.0</ele><time>2026-04-14T07:22:51Z</time></trkpt><trkpt lat="43.914469770873595" lon="11.836527097219"><ele>407.0</ele><time>2026-04-14T07:22:52Z</time></trkpt><trkpt lat="43.91432774354203" lon="11.836585264996137"><ele>407.0</ele><time>2026-04-14T07:22:53Z</time></trkpt><trkpt lat="43.91419304440479" lon="11.836635524729383"><ele>407.0</ele><time>2026-04-14T07:22:54Z</time></trkpt><trkpt lat="43.9140629778089" lon="11.836665872944389"><ele>407.0</ele><time>2026-04-14T07:22:55Z</time></trkpt><trkpt lat="43.91393055266876" lon="11.836672887044685"><ele>407.25</ele><time>2026-04-14T07:22:56Z</time></trkpt><trkpt lat="43.913795092495896" lon="11.836648595304773"><ele>407.5</ele><time>2026-04-14T07:22:57Z</time></trkpt><trkpt lat="43.91365861452484" lon="11.83659292146556"><ele>407.75</ele><time>2026-04-14T07:22:58Z</time></trkpt><trkpt lat="43.91352012038321" lon="11.836525809345783"><ele>408.0</ele><time>2026-04-14T07:22:59Z</time></trkpt><trkpt lat="43.9133773006225" lon="11.836464335303365"><ele>406.66666666666663</ele><time>2026-04-14T07:23:00Z</time></trkpt><trkpt lat="43.91323464975515" lon="11.836417091936516"><ele>405.3333333333333</ele><time>2026-04-14T07:23:01Z</time></trkpt><trkpt lat="43.9130826931516" lon="11.836389390719365"><ele>404.0</ele><time>2026-04-14T07:23:02Z</time></trkpt><trkpt lat="43.91292749688668" lon="11.836381660832604"><ele>404.0</ele><time>2026-04-14T07:23:03Z</time></trkpt><trkpt lat="43.91277091076126" lon="11.836379666448229"><ele>404.0</ele><time>2026-04-14T07:23:04Z</time></trkpt><trkpt lat="43.91261247850682" lon="11.83637581489447"><ele>404.0</ele><time>2026-04-14T07:23:05Z</time></trkpt><trkpt lat="43.912455989038236" lon="11.836363499189934"><ele>403.66666666666663</ele><time>2026-04-14T07:23:06Z</time></trkpt><trkpt lat="43.91230216693354" lon="11.836345214949201"><ele>403.33333333333337</ele><time>2026-04-14T07:23:07Z</time></trkpt><trkpt lat="43.91215397142801" lon="11.83631918975848"><ele>403.0</ele><time>2026-04-14T07:23:08Z</time></trkpt><trkpt lat="43.91200709541076" lon="11.836286990768501"><ele>403.0</ele><time>2026-04-14T07:23:09Z</time></trkpt><trkpt lat="43.91186584955724" lon="11.836236127336054"><ele>403.0</ele><time>2026-04-14T07:23:10Z</time></trkpt><trkpt lat="43.91173628663298" lon="11.836160931418688"><ele>403.0</ele><time>2026-04-14T07:23:11Z</time></trkpt><trkpt lat="43.91160896507451" lon="11.836065536550029"><ele>403.0</ele><time>2026-04-14T07:23:12Z</time></trkpt><trkpt lat="43.91147836792259" lon="11.83596371285219"><ele>406.0</ele><time>2026-04-14T07:23:13Z</time></trkpt><trkpt lat="43.911345332357904" lon="11.835863512467984"><ele>409.0</ele><time>2026-04-14T07:23:14Z</time></trkpt><trkpt lat="43.91120862511244" lon="11.835766028119927"><ele>412.0</ele><time>2026-04-14T07:23:15Z</time></trkpt><trkpt lat="43.911069753683144" lon="11.83567102650269"><ele>412.0</ele><time>2026-04-14T07:23:16Z</time></trkpt><trkpt lat="43.91092780979746" lon="11.835579085870098"><ele>412.0</ele><time>2026-04-14T07:23:17Z</time></trkpt><trkpt lat="43.91078486917205" lon="11.83547801928073"><ele>412.0</ele><time>2026-04-14T07:23:18Z</time></trkpt><trkpt lat="43.91064662390603" lon="11.835379377654526"><ele>410.75</ele><time>2026-04-14T07:23:19Z</time></trkpt><trkpt lat="43.91051642751392" lon="11.835286602294577"><ele>409.5</ele><time>2026-04-14T07:23:20Z</time></trkpt><trkpt lat="43.91038913023375" lon="11.835195784933763"><ele>408.25</ele><time>2026-04-14T07:23:21Z</time></trkpt><trkpt lat="43.910269136591005" lon="11.83510799842057"><ele>407.0</ele><time>2026-04-14T07:23:22Z</time></trkpt><trkpt lat="43.91015703117013" lon="11.835016018349629"><ele>407.75</ele><time>2026-04-14T07:23:23Z</time></trkpt><trkpt lat="43.9100804573821" lon="11.834902929113888"><ele>408.5</ele><time>2026-04-14T07:23:24Z</time></trkpt><trkpt lat="43.910033406531056" lon="11.834760820646705"><ele>409.25</ele><time>2026-04-14T07:23:25Z</time></trkpt><trkpt lat="43.91000880823541" lon="11.834607117099942"><ele>410.0</ele><time>2026-04-14T07:23:26Z</time></trkpt><trkpt lat="43.90999171457389" lon="11.834443284728946"><ele>411.25</ele><time>2026-04-14T07:23:27Z</time></trkpt><trkpt lat="43.909966861929234" lon="11.834271292015256"><ele>412.5</ele><time>2026-04-14T07:23:28Z</time></trkpt><trkpt lat="43.9099330796759" lon="11.834100424529783"><ele>413.75</ele><time>2026-04-14T07:23:29Z</time></trkpt><trkpt lat="43.90989671221829" lon="11.833927080552156"><ele>415.0</ele><time>2026-04-14T07:23:30Z</time></trkpt><trkpt lat="43.9098607137443" lon="11.833743275118117"><ele>415.0</ele><time>2026-04-14T07:23:31Z</time></trkpt><trkpt lat="43.90980945440868" lon="11.833559371248231"><ele>415.0</ele><time>2026-04-14T07:23:32Z</time></trkpt><trkpt lat="43.909747484622955" lon="11.833378358788883"><ele>415.0</ele><time>2026-04-14T07:23:33Z</time></trkpt><trkpt lat="43.909679324495045" lon="11.83320585355338"><ele>415.0</ele><time>2026-04-14T07:23:34Z</time></trkpt><trkpt lat="43.90962679508822" lon="11.833022524389204"><ele>416.6666666666667</ele><time>2026-04-14T07:23:35Z</time></trkpt><trkpt lat="43.90959173746686" lon="11.832822465787256"><ele>418.33333333333337</ele><time>2026-04-14T07:23:36Z</time></trkpt><trkpt lat="43.909573705667945" lon="11.832609603100757"><ele>420.0</ele><time>2026-04-14T07:23:37Z</time></trkpt><trkpt lat="43.90956754235565" lon="11.832391761286244"><ele>423.33333333333337</ele><time>2026-04-14T07:23:38Z</time></trkpt><trkpt lat="43.90955764273239" lon="11.832173253864095"><ele>426.6666666666667</ele><time>2026-04-14T07:23:39Z</time></trkpt><trkpt lat="43.90953070960789" lon="11.831966400776446"><ele>430.0</ele><time>2026-04-14T07:23:40Z</time></trkpt><trkpt lat="43.90948162547298" lon="11.831755195971004"><ele>432.33333333333337</ele><time>2026-04-14T07:23:41Z</time></trkpt><trkpt lat="43.90941689969333" lon="11.831543379405048"><ele>434.66666666666663</ele><time>2026-04-14T07:23:42Z</time></trkpt><trkpt lat="43.90934339110628" lon="11.831333352405368"><ele>437.0</ele><time>2026-04-14T07:23:43Z</time></trkpt><trkpt lat="43.90926392143252" lon="11.831121172035596"><ele>431.0</ele><time>2026-04-14T07:23:44Z</time></trkpt><trkpt lat="43.90918832634494" lon="11.83092107194572"><ele>425.0</ele><time>2026-04-14T07:23:45Z</time></trkpt><trkpt lat="43.90911843254355" lon="11.830734217306372"><ele>419.0</ele><time>2026-04-14T07:23:46Z</time></trkpt><trkpt lat="43.909053538042095" lon="11.83054820271579"><ele>419.0</ele><time>2026-04-14T07:23:47Z</time></trkpt><trkpt lat="43.908994990035644" lon="11.830365031477482"><ele>419.0</ele><time>2026-04-14T07:23:48Z</time></trkpt><trkpt lat="43.90895742860017" lon="11.830171342839394"><ele>419.0</ele><time>2026-04-14T07:23:49Z</time></trkpt><trkpt lat="43.908942843430474" lon="11.829962945646738"><ele>419.0</ele><time>2026-04-14T07:23:50Z</time></trkpt><trkpt lat="43.908947042658134" lon="11.829747208231252"><ele>420.66666666666663</ele><time>2026-04-14T07:23:51Z</time></trkpt><trkpt lat="43.9089635532571" lon="11.829522036323532"><ele>422.33333333333337</ele><time>2026-04-14T07:23:52Z</time></trkpt><trkpt lat="43.90898241396385" lon="11.829292483033383"><ele>424.0</ele><time>2026-04-14T07:23:53Z</time></trkpt><trkpt lat="43.90900383802187" lon="11.829053516588065"><ele>424.0</ele><time>2026-04-14T07:23:54Z</time></trkpt><trkpt lat="43.90902667475158" lon="11.828809472039088"><ele>424.0</ele><time>2026-04-14T07:23:55Z</time></trkpt><trkpt lat="43.90904964785113" lon="11.828563050693601"><ele>424.0</ele><time>2026-04-14T07:23:56Z</time></trkpt><trkpt lat="43.90906910785476" lon="11.828320618036853"><ele>424.6666666666667</ele><time>2026-04-14T07:23:57Z</time></trkpt><trkpt lat="43.909087172314784" lon="11.8280893896946"><ele>425.33333333333337</ele><time>2026-04-14T07:23:58Z</time></trkpt><trkpt lat="43.90910599401197" lon="11.827853926926979"><ele>426.0</ele><time>2026-04-14T07:23:59Z</time></trkpt><trkpt lat="43.90911887934884" lon="11.82761920362056"><ele>426.0</ele><time>2026-04-14T07:24:00Z</time></trkpt><trkpt lat="43.909126778745154" lon="11.827382983968707"><ele>426.0</ele><time>2026-04-14T07:24:01Z</time></trkpt><trkpt lat="43.90912779291701" lon="11.827147719452782"><ele>426.0</ele><time>2026-04-14T07:24:02Z</time></trkpt><trkpt lat="43.909120429154235" lon="11.826924602261844"><ele>428.0</ele><time>2026-04-14T07:24:03Z</time></trkpt><trkpt lat="43.909113081515606" lon="11.826710026503667"><ele>430.0</ele><time>2026-04-14T07:24:04Z</time></trkpt><trkpt lat="43.90910625791561" lon="11.826498801360534"><ele>432.0</ele><time>2026-04-14T07:24:05Z</time></trkpt><trkpt lat="43.909104186900215" lon="11.826288706614864"><ele>432.0</ele><time>2026-04-14T07:24:06Z</time></trkpt><trkpt lat="43.90909828028978" lon="11.826085407138937"><ele>432.0</ele><time>2026-04-14T07:24:07Z</time></trkpt><trkpt lat="43.90908464642972" lon="11.825889616232383"><ele>432.0</ele><time>2026-04-14T07:24:08Z</time></trkpt><trkpt lat="43.90905023730342" lon="11.825701142345064"><ele>432.0</ele><time>2026-04-14T07:24:09Z</time></trkpt><trkpt lat="43.908982268074794" lon="11.825526913811442"><ele>434.0</ele><time>2026-04-14T07:24:10Z</time></trkpt><trkpt lat="43.90889683147333" lon="11.825361966143793"><ele>436.0</ele><time>2026-04-14T07:24:11Z</time></trkpt><trkpt lat="43.90878833406362" lon="11.82521126670612"><ele>438.0</ele><time>2026-04-14T07:24:12Z</time></trkpt><trkpt lat="43.908662089390454" lon="11.825093645594167"><ele>435.0</ele><time>2026-04-14T07:24:13Z</time></trkpt><trkpt lat="43.908520028343005" lon="11.825011753654415"><ele>432.0</ele><time>2026-04-14T07:24:14Z</time></trkpt><trkpt lat="43.908368991188" lon="11.824947718631076"><ele>429.0</ele><time>2026-04-14T07:24:15Z</time></trkpt><trkpt lat="43.90822311453189" lon="11.824866776699212"><ele>429.0</ele><time>2026-04-14T07:24:16Z</time></trkpt><trkpt lat="43.90808004370219" lon="11.824771245782495"><ele>429.0</ele><time>2026-04-14T07:24:17Z</time></trkpt><trkpt lat="43.907940508963854" lon="11.824670640823262"><ele>429.0</ele><time>2026-04-14T07:24:18Z</time></trkpt><trkpt lat="43.90780664314855" lon="11.824569706830811"><ele>429.0</ele><time>2026-04-14T07:24:19Z</time></trkpt><trkpt lat="43.907683136681584" lon="11.824474507523034"><ele>429.0</ele><time>2026-04-14T07:24:20Z</time></trkpt><trkpt lat="43.90756652231416" lon="11.824381918271278"><ele>429.0</ele><time>2026-04-14T07:24:21Z</time></trkpt><trkpt lat="43.90745727059576" lon="11.82429311201003"><ele>429.0</ele><time>2026-04-14T07:24:22Z</time></trkpt><trkpt lat="43.90737584882929" lon="11.824205401118888"><ele>430.4</ele><time>2026-04-14T07:24:23Z</time></trkpt><trkpt lat="43.90732869673415" lon="11.82410452681672"><ele>431.79999999999995</ele><time>2026-04-14T07:24:24Z</time></trkpt><trkpt lat="43.9073071621955" lon="11.823977752191198"><ele>433.20000000000005</ele><time>2026-04-14T07:24:25Z</time></trkpt><trkpt lat="43.907305282569034" lon="11.823830932072088"><ele>434.6</ele><time>2026-04-14T07:24:26Z</time></trkpt><trkpt lat="43.90730883671931" lon="11.823667026038473"><ele>436.0</ele><time>2026-04-14T07:24:27Z</time></trkpt><trkpt lat="43.9072975051834" lon="11.823498052543327"><ele>439.0</ele><time>2026-04-14T07:24:28Z</time></trkpt><trkpt lat="43.907283748612706" lon="11.823314409271449"><ele>442.0</ele><time>2026-04-14T07:24:29Z</time></trkpt><trkpt lat="43.907303402239215" lon="11.82313572492215"><ele>445.0</ele><time>2026-04-14T07:24:30Z</time></trkpt><trkpt lat="43.907349490689114" lon="11.822958555939826"><ele>448.0</ele><time>2026-04-14T07:24:31Z</time></trkpt><trkpt lat="43.907401132507566" lon="11.822770572789638"><ele>447.33333333333337</ele><time>2026-04-14T07:24:32Z</time></trkpt><trkpt lat="43.90745598493746" lon="11.822571173859036"><ele>446.66666666666663</ele><time>2026-04-14T07:24:33Z</time></trkpt><trkpt lat="43.9075098085747" lon="11.822365065705055"><ele>446.0</ele><time>2026-04-14T07:24:34Z</time></trkpt><trkpt lat="43.907576018766164" lon="11.822157524292203"><ele>457.0</ele><time>2026-04-14T07:24:35Z</time></trkpt><trkpt lat="43.90765157549822" lon="11.821956152022084"><ele>468.0</ele><time>2026-04-14T07:24:36Z</time></trkpt><trkpt lat="43.907732225209706" lon="11.821749202850755"><ele>479.0</ele><time>2026-04-14T07:24:37Z</time></trkpt><trkpt lat="43.907791928302736" lon="11.821529358212358"><ele>479.0</ele><time>2026-04-14T07:24:38Z</time></trkpt><trkpt lat="43.907837803883716" lon="11.821298029580674"><ele>479.0</ele><time>2026-04-14T07:24:39Z</time></trkpt><trkpt lat="43.9078797299143" lon="11.821065216085383"><ele>479.0</ele><time>2026-04-14T07:24:40Z</time></trkpt><trkpt lat="43.907923337854534" lon="11.820835507050173"><ele>475.66666666666663</ele><time>2026-04-14T07:24:41Z</time></trkpt><trkpt lat="43.90797286725581" lon="11.820620427841288"><ele>472.33333333333337</ele><time>2026-04-14T07:24:42Z</time></trkpt><trkpt lat="43.90802319454683" lon="11.820423466361408"><ele>469.0</ele><time>2026-04-14T07:24:43Z</time></trkpt><trkpt lat="43.9080758967607" lon="11.820238698149575"><ele>468.25</ele><time>2026-04-14T07:24:44Z</time></trkpt><trkpt lat="43.90811662078784" lon="11.820066117917719"><ele>467.5</ele><time>2026-04-14T07:24:45Z</time></trkpt><trkpt lat="43.90813620990453" lon="11.819898334559163"><ele>466.75</ele><time>2026-04-14T07:24:46Z</time></trkpt><trkpt lat="43.908134782471194" lon="11.819731405737999"><ele>466.0</ele><time>2026-04-14T07:24:47Z</time></trkpt><trkpt lat="43.90811822676704" lon="11.819576617847186"><ele>466.0</ele><time>2026-04-14T07:24:48Z</time></trkpt><trkpt lat="43.908079305143" lon="11.819447687636263"><ele>466.0</ele><time>2026-04-14T07:24:49Z</time></trkpt><trkpt lat="43.90801162177605" lon="11.819336423889803"><ele>466.0</ele><time>2026-04-14T07:24:50Z</time></trkpt><trkpt lat="43.90793093808322" lon="11.819249348806794"><ele>466.0</ele><time>2026-04-14T07:24:51Z</time></trkpt><trkpt lat="43.90783793049103" lon="11.819172786551817"><ele>466.0</ele><time>2026-04-14T07:24:52Z</time></trkpt><trkpt lat="43.90773858616836" lon="11.819093317633243"><ele>469.0</ele><time>2026-04-14T07:24:53Z</time></trkpt><trkpt lat="43.9076402179375" lon="11.819005672166199"><ele>472.0</ele><time>2026-04-14T07:24:54Z</time></trkpt><trkpt lat="43.9075426874426" lon="11.818917911765103"><ele>475.0</ele><time>2026-04-14T07:24:55Z</time></trkpt><trkpt lat="43.907445568321236" lon="11.818837814266265"><ele>478.0</ele><time>2026-04-14T07:24:56Z</time></trkpt><trkpt lat="43.90735215950373" lon="11.818766533763268"><ele>477.79999999999995</ele><time>2026-04-14T07:24:57Z</time></trkpt><trkpt lat="43.90726436830293" lon="11.818703921472254"><ele>477.59999999999997</ele><time>2026-04-14T07:24:58Z</time></trkpt><trkpt lat="43.907182766810074" lon="11.818646375828786"><ele>477.40000000000003</ele><time>2026-04-14T07:24:59Z</time></trkpt><trkpt lat="43.90710211034727" lon="11.818596413341664"><ele>477.20000000000005</ele><time>2026-04-14T07:25:00Z</time></trkpt><trkpt lat="43.907020720377965" lon="11.818535583931943"><ele>477.0</ele><time>2026-04-14T07:25:01Z</time></trkpt><trkpt lat="43.906947579480104" lon="11.818464131439173"><ele>477.0</ele><time>2026-04-14T07:25:02Z</time></trkpt><trkpt lat="43.906889893391636" lon="11.818396530708698"><ele>476.99999999999994</ele><time>2026-04-14T07:25:03Z</time></trkpt><trkpt lat="43.90683608596916" lon="11.818342652612868"><ele>477.0</ele><time>2026-04-14T07:25:04Z</time></trkpt><trkpt lat="43.9067842452124" lon="11.818293032479975"><ele>477.0</ele><time>2026-04-14T07:25:05Z</time></trkpt><trkpt lat="43.90670969291666" lon="11.818220430709912"><ele>476.99999999999994</ele><time>2026-04-14T07:25:07Z</time></trkpt><trkpt lat="43.90665660532569" lon="11.818164121068293"><ele>477.0</ele><time>2026-04-14T07:25:09Z</time></trkpt><trkpt lat="43.90660085645715" lon="11.81808775639817"><ele>477.0</ele><time>2026-04-14T07:25:11Z</time></trkpt><trkpt lat="43.90653099737134" lon="11.817980734267103"><ele>479.0</ele><time>2026-04-14T07:25:13Z</time></trkpt><trkpt lat="43.90649197308641" lon="11.817895446888395"><ele>481.00000000000006</ele><time>2026-04-14T07:25:14Z</time></trkpt><trkpt lat="43.90643497678171" lon="11.817809372217319"><ele>483.00000000000006</ele><time>2026-04-14T07:25:15Z</time></trkpt><trkpt lat="43.906355250697786" lon="11.817734433218435"><ele>485.0</ele><time>2026-04-14T07:25:16Z</time></trkpt><trkpt lat="43.90626599030485" lon="11.817668694157193"><ele>487.0</ele><time>2026-04-14T07:25:17Z</time></trkpt><trkpt lat="43.90616402881745" lon="11.817611450184753"><ele>487.0</ele><time>2026-04-14T07:25:18Z</time></trkpt><trkpt lat="43.90605226729197" lon="11.817559663835922"><ele>487.00000000000006</ele><time>2026-04-14T07:25:19Z</time></trkpt><trkpt lat="43.905940607140444" lon="11.817513366711367"><ele>487.00000000000006</ele><time>2026-04-14T07:25:20Z</time></trkpt><trkpt lat="43.905836694475326" lon="11.81747250141333"><ele>487.0</ele><time>2026-04-14T07:25:21Z</time></trkpt><trkpt lat="43.90574149743735" lon="11.817433254065872"><ele>487.0</ele><time>2026-04-14T07:25:22Z</time></trkpt><trkpt lat="43.90565222351009" lon="11.817396395421026"><ele>484.1666666666667</ele><time>2026-04-14T07:25:23Z</time></trkpt><trkpt lat="43.90556367004759" lon="11.817352087700844"><ele>481.33333333333337</ele><time>2026-04-14T07:25:24Z</time></trkpt><trkpt lat="43.90548629465766" lon="11.817295597972304"><ele>478.5</ele><time>2026-04-14T07:25:25Z</time></trkpt><trkpt lat="43.90543021309766" lon="11.81721828606014"><ele>475.66666666666663</ele><time>2026-04-14T07:25:26Z</time></trkpt><trkpt lat="43.90538998261873" lon="11.817114330806634"><ele>472.8333333333333</ele><time>2026-04-14T07:25:27Z</time></trkpt><trkpt lat="43.905392949056754" lon="11.816975134049539"><ele>470.0</ele><time>2026-04-14T07:25:28Z</time></trkpt><trkpt lat="43.905418673880654" lon="11.816837628019755"><ele>475.0</ele><time>2026-04-14T07:25:29Z</time></trkpt><trkpt lat="43.90544524413801" lon="11.816682064980043"><ele>480.0</ele><time>2026-04-14T07:25:30Z</time></trkpt><trkpt lat="43.90545558940466" lon="11.816510664650425"><ele>485.0</ele><time>2026-04-14T07:25:31Z</time></trkpt><trkpt lat="43.9054678603352" lon="11.816346648655662"><ele>490.0</ele><time>2026-04-14T07:25:32Z</time></trkpt><trkpt lat="43.90546436392512" lon="11.816195936870997"><ele>490.0</ele><time>2026-04-14T07:25:33Z</time></trkpt><trkpt lat="43.90542726011456" lon="11.816046747584306"><ele>490.0</ele><time>2026-04-14T07:25:34Z</time></trkpt><trkpt lat="43.90537143173495" lon="11.815898164779789"><ele>490.0</ele><time>2026-04-14T07:25:35Z</time></trkpt><trkpt lat="43.905297702694696" lon="11.815756796402612"><ele>490.0</ele><time>2026-04-14T07:25:36Z</time></trkpt><trkpt lat="43.905225937167764" lon="11.815622146462598"><ele>489.6</ele><time>2026-04-14T07:25:37Z</time></trkpt><trkpt lat="43.90515809658691" lon="11.815480029731873"><ele>489.2</ele><time>2026-04-14T07:25:38Z</time></trkpt><trkpt lat="43.90509717957972" lon="11.815351785103868"><ele>488.79999999999995</ele><time>2026-04-14T07:25:39Z</time></trkpt><trkpt lat="43.90504050021814" lon="11.81524186262391"><ele>488.4</ele><time>2026-04-14T07:25:40Z</time></trkpt><trkpt lat="43.904968314634154" lon="11.81515716201578"><ele>488.0</ele><time>2026-04-14T07:25:41Z</time></trkpt><trkpt lat="43.90487811086519" lon="11.815095976710946"><ele>488.0</ele><time>2026-04-14T07:25:42Z</time></trkpt><trkpt lat="43.9047733184563" lon="11.815124734010233"><ele>487.99999999999994</ele><time>2026-04-14T07:25:43Z</time></trkpt><trkpt lat="43.904671001787605" lon="11.815136472841841"><ele>487.99999999999994</ele><time>2026-04-14T07:25:44Z</time></trkpt><trkpt lat="43.904578326841616" lon="11.815101534795632"><ele>488.0</ele><time>2026-04-14T07:25:45Z</time></trkpt><trkpt lat="43.90450104901235" lon="11.815010926634326"><ele>488.0</ele><time>2026-04-14T07:25:46Z</time></trkpt><trkpt lat="43.904456902161975" lon="11.81489268991661"><ele>488.0</ele><time>2026-04-14T07:25:47Z</time></trkpt><trkpt lat="43.90445487640674" lon="11.814757150048568"><ele>487.99999999999994</ele><time>2026-04-14T07:25:48Z</time></trkpt><trkpt lat="43.90448855210533" lon="11.814630866717868"><ele>487.99999999999994</ele><time>2026-04-14T07:25:49Z</time></trkpt><trkpt lat="43.90454755680121" lon="11.814505329070085"><ele>488.0</ele><time>2026-04-14T07:25:50Z</time></trkpt><trkpt lat="43.90462529469749" lon="11.814393623825577"><ele>488.0</ele><time>2026-04-14T07:25:51Z</time></trkpt><trkpt lat="43.90472668457333" lon="11.81431286528442"><ele>489.75</ele><time>2026-04-14T07:25:52Z</time></trkpt><trkpt lat="43.90485006848778" lon="11.814255179400067"><ele>491.5</ele><time>2026-04-14T07:25:53Z</time></trkpt><trkpt lat="43.904976580732345" lon="11.814200949028443"><ele>493.25</ele><time>2026-04-14T07:25:54Z</time></trkpt><trkpt lat="43.90509615258212" lon="11.814146202822462"><ele>495.0</ele><time>2026-04-14T07:25:55Z</time></trkpt><trkpt lat="43.905199685113956" lon="11.814085513618313"><ele>500.4</ele><time>2026-04-14T07:25:56Z</time></trkpt><trkpt lat="43.90528406788867" lon="11.814002618997378"><ele>505.8</ele><time>2026-04-14T07:25:57Z</time></trkpt><trkpt lat="43.9053401656406" lon="11.81390089701835"><ele>511.20000000000005</ele><time>2026-04-14T07:25:58Z</time></trkpt><trkpt lat="43.90537940512341" lon="11.813804171707568"><ele>516.6</ele><time>2026-04-14T07:25:59Z</time></trkpt><trkpt lat="43.90534135932698" lon="11.813667267455378"><ele>522.0</ele><time>2026-04-14T07:26:00Z</time></trkpt><trkpt lat="43.90530279061296" lon="11.813549158031794"><ele>519.75</ele><time>2026-04-14T07:26:01Z</time></trkpt><trkpt lat="43.90525373878361" lon="11.813422754626888"><ele>517.5</ele><time>2026-04-14T07:26:02Z</time></trkpt><trkpt lat="43.905135040675916" lon="11.813368587956163"><ele>515.25</ele><time>2026-04-14T07:26:03Z</time></trkpt><trkpt lat="43.90502827106019" lon="11.813300380196845"><ele>513.0</ele><time>2026-04-14T07:26:04Z</time></trkpt><trkpt lat="43.904930805195605" lon="11.813197914528212"><ele>510.2</ele><time>2026-04-14T07:26:05Z</time></trkpt><trkpt lat="43.90483934497501" lon="11.813084116469595"><ele>507.4</ele><time>2026-04-14T07:26:06Z</time></trkpt><trkpt lat="43.90476311159091" lon="11.812980966372706"><ele>504.59999999999997</ele><time>2026-04-14T07:26:07Z</time></trkpt><trkpt lat="43.9046885806067" lon="11.812897371964102"><ele>501.79999999999995</ele><time>2026-04-14T07:26:08Z</time></trkpt><trkpt lat="43.90464497311305" lon="11.812790434140618"><ele>499.0</ele><time>2026-04-14T07:26:09Z</time></trkpt><trkpt lat="43.90462984317007" lon="11.812663772604878"><ele>501.75</ele><time>2026-04-14T07:26:10Z</time></trkpt><trkpt lat="43.904645982801476" lon="11.812522031858668"><ele>504.5</ele><time>2026-04-14T07:26:11Z</time></trkpt><trkpt lat="43.904679423677756" lon="11.81236604927513"><ele>507.25</ele><time>2026-04-14T07:26:12Z</time></trkpt><trkpt lat="43.90472242446256" lon="11.812186881817006"><ele>510.0</ele><time>2026-04-14T07:26:13Z</time></trkpt><trkpt lat="43.90476873159235" lon="11.811989398537625"><ele>511.33333333333337</ele><time>2026-04-14T07:26:14Z</time></trkpt><trkpt lat="43.904818611079065" lon="11.811783769503084"><ele>512.6666666666667</ele><time>2026-04-14T07:26:15Z</time></trkpt><trkpt lat="43.90486826592348" lon="11.81157450289197"><ele>514.0</ele><time>2026-04-14T07:26:16Z</time></trkpt><trkpt lat="43.90491493129243" lon="11.811374159833415"><ele>514.0</ele><time>2026-04-14T07:26:17Z</time></trkpt><trkpt lat="43.90495651614919" lon="11.8111734267251"><ele>514.0</ele><time>2026-04-14T07:26:18Z</time></trkpt><trkpt lat="43.904979977623064" lon="11.810966719253237"><ele>514.0</ele><time>2026-04-14T07:26:19Z</time></trkpt><trkpt lat="43.904987113857764" lon="11.810760196487735"><ele>513.3333333333334</ele><time>2026-04-14T07:26:20Z</time></trkpt><trkpt lat="43.90498869019303" lon="11.810552150043176"><ele>512.6666666666666</ele><time>2026-04-14T07:26:21Z</time></trkpt><trkpt lat="43.90499304301712" lon="11.810337895788104"><ele>512.0</ele><time>2026-04-14T07:26:22Z</time></trkpt><trkpt lat="43.90500093063723" lon="11.810114147313348"><ele>513.0</ele><time>2026-04-14T07:26:23Z</time></trkpt><trkpt lat="43.90501009446594" lon="11.80988904333542"><ele>514.0</ele><time>2026-04-14T07:26:24Z</time></trkpt><trkpt lat="43.90501408064473" lon="11.809681692858096"><ele>515.0</ele><time>2026-04-14T07:26:25Z</time></trkpt><trkpt lat="43.905018715314355" lon="11.80949082173736"><ele>516.0</ele><time>2026-04-14T07:26:26Z</time></trkpt><trkpt lat="43.90502043896991" lon="11.809312213156113"><ele>517.6</ele><time>2026-04-14T07:26:27Z</time></trkpt><trkpt lat="43.90500840708261" lon="11.809148615364986"><ele>519.2</ele><time>2026-04-14T07:26:28Z</time></trkpt><trkpt lat="43.90497240348578" lon="11.80900621046531"><ele>520.8</ele><time>2026-04-14T07:26:29Z</time></trkpt><trkpt lat="43.904918300648944" lon="11.808892065330008"><ele>522.4</ele><time>2026-04-14T07:26:30Z</time></trkpt><trkpt lat="43.90484131985111" lon="11.808814833452416"><ele>524.0</ele><time>2026-04-14T07:26:31Z</time></trkpt><trkpt lat="43.904743188943435" lon="11.808755584394152"><ele>524.0</ele><time>2026-04-14T07:26:32Z</time></trkpt><trkpt lat="43.90463115042467" lon="11.808703916465603"><ele>524.0</ele><time>2026-04-14T07:26:33Z</time></trkpt><trkpt lat="43.90451501485315" lon="11.808637550104951"><ele>524.0</ele><time>2026-04-14T07:26:34Z</time></trkpt><trkpt lat="43.90440839180068" lon="11.80855964941788"><ele>524.0</ele><time>2026-04-14T07:26:35Z</time></trkpt><trkpt lat="43.90432376821083" lon="11.80846093433941"><ele>522.0</ele><time>2026-04-14T07:26:36Z</time></trkpt><trkpt lat="43.90425896712955" lon="11.808333987988478"><ele>520.0</ele><time>2026-04-14T07:26:37Z</time></trkpt><trkpt lat="43.9042309849366" lon="11.808183183876427"><ele>518.0</ele><time>2026-04-14T07:26:38Z</time></trkpt><trkpt lat="43.90424059699344" lon="11.808025270448486"><ele>516.0</ele><time>2026-04-14T07:26:39Z</time></trkpt><trkpt lat="43.90428217334022" lon="11.80785930558778"><ele>524.25</ele><time>2026-04-14T07:26:40Z</time></trkpt><trkpt lat="43.90431553515846" lon="11.807688119449105"><ele>532.5</ele><time>2026-04-14T07:26:41Z</time></trkpt><trkpt lat="43.904342000025636" lon="11.807500399770655"><ele>540.75</ele><time>2026-04-14T07:26:42Z</time></trkpt><trkpt lat="43.904380511172356" lon="11.80730492365663"><ele>549.0</ele><time>2026-04-14T07:26:43Z</time></trkpt><trkpt lat="43.90443662480509" lon="11.80710577302689"><ele>552.0</ele><time>2026-04-14T07:26:44Z</time></trkpt><trkpt lat="43.90450515697141" lon="11.80690919793252"><ele>555.0</ele><time>2026-04-14T07:26:45Z</time></trkpt><trkpt lat="43.90456816668166" lon="11.806710209805"><ele>558.0</ele><time>2026-04-14T07:26:46Z</time></trkpt><trkpt lat="43.90460611437444" lon="11.806509550750295"><ele>558.0</ele><time>2026-04-14T07:26:47Z</time></trkpt><trkpt lat="43.90462861098699" lon="11.806298811755498"><ele>558.0</ele><time>2026-04-14T07:26:48Z</time></trkpt><trkpt lat="43.90463912702516" lon="11.806084402588874"><ele>558.0</ele><time>2026-04-14T07:26:49Z</time></trkpt><trkpt lat="43.90464671641164" lon="11.805893347694507"><ele>558.0</ele><time>2026-04-14T07:26:50Z</time></trkpt><trkpt lat="43.90465615188728" lon="11.805708762960045"><ele>559.5</ele><time>2026-04-14T07:26:51Z</time></trkpt><trkpt lat="43.90465484464979" lon="11.805536411216737"><ele>561.0</ele><time>2026-04-14T07:26:52Z</time></trkpt><trkpt lat="43.90465245392812" lon="11.805370883179542"><ele>562.5</ele><time>2026-04-14T07:26:53Z</time></trkpt><trkpt lat="43.90456647474249" lon="11.805235710699066"><ele>564.0</ele><time>2026-04-14T07:26:54Z</time></trkpt><trkpt lat="43.90448292083126" lon="11.805097540743889"><ele>567.0</ele><time>2026-04-14T07:26:55Z</time></trkpt><trkpt lat="43.90439226283587" lon="11.804958898389097"><ele>570.0</ele><time>2026-04-14T07:26:56Z</time></trkpt><trkpt lat="43.90429680541829" lon="11.804811383500486"><ele>573.0</ele><time>2026-04-14T07:26:57Z</time></trkpt><trkpt lat="43.9042006271386" lon="11.80465585208701"><ele>576.0</ele><time>2026-04-14T07:26:58Z</time></trkpt><trkpt lat="43.90410386486501" lon="11.804506367163079"><ele>570.25</ele><time>2026-04-14T07:26:59Z</time></trkpt><trkpt lat="43.90401258904268" lon="11.804374987558141"><ele>564.5</ele><time>2026-04-14T07:27:00Z</time></trkpt><trkpt lat="43.90392620136054" lon="11.80424895062855"><ele>558.75</ele><time>2026-04-14T07:27:01Z</time></trkpt><trkpt lat="43.903847192015" lon="11.804130850187322"><ele>553.0</ele><time>2026-04-14T07:27:02Z</time></trkpt><trkpt lat="43.903796016211025" lon="11.804012089626275"><ele>553.0</ele><time>2026-04-14T07:27:03Z</time></trkpt><trkpt lat="43.90376892241824" lon="11.803879839970604"><ele>553.0</ele><time>2026-04-14T07:27:04Z</time></trkpt><trkpt lat="43.903778028816276" lon="11.803746798341452"><ele>553.0</ele><time>2026-04-14T07:27:05Z</time></trkpt><trkpt lat="43.90381292579841" lon="11.803609303664189"><ele>553.0</ele><time>2026-04-14T07:27:06Z</time></trkpt><trkpt lat="43.90387226081468" lon="11.80346878291424"><ele>553.0</ele><time>2026-04-14T07:27:07Z</time></trkpt><trkpt lat="43.9039169031065" lon="11.803314570548933"><ele>554.5</ele><time>2026-04-14T07:27:08Z</time></trkpt><trkpt lat="43.90395439405938" lon="11.80314567961408"><ele>556.0</ele><time>2026-04-14T07:27:09Z</time></trkpt><trkpt lat="43.90398713218809" lon="11.80297098682053"><ele>557.5</ele><time>2026-04-14T07:27:10Z</time></trkpt><trkpt lat="43.9040067487643" lon="11.802777930692574"><ele>559.0</ele><time>2026-04-14T07:27:11Z</time></trkpt><trkpt lat="43.9040111428611" lon="11.802577730005474"><ele>559.0</ele><time>2026-04-14T07:27:12Z</time></trkpt><trkpt lat="43.90401070873184" lon="11.802376611537413"><ele>559.0</ele><time>2026-04-14T07:27:13Z</time></trkpt><trkpt lat="43.9040138345796" lon="11.802181462632019"><ele>559.0</ele><time>2026-04-14T07:27:14Z</time></trkpt><trkpt lat="43.9040138323465" lon="11.801991975522414"><ele>559.0</ele><time>2026-04-14T07:27:15Z</time></trkpt><trkpt lat="43.90401364950406" lon="11.801806215726673"><ele>559.0</ele><time>2026-04-14T07:27:16Z</time></trkpt><trkpt lat="43.90402134415647" lon="11.801622346959924"><ele>559.0</ele><time>2026-04-14T07:27:17Z</time></trkpt><trkpt lat="43.90402002121043" lon="11.801446234222615"><ele>559.0</ele><time>2026-04-14T07:27:18Z</time></trkpt><trkpt lat="43.90401957557363" lon="11.801278437919478"><ele>559.0</ele><time>2026-04-14T07:27:19Z</time></trkpt><trkpt lat="43.90404327793538" lon="11.801119640114399"><ele>557.5</ele><time>2026-04-14T07:27:20Z</time></trkpt><trkpt lat="43.904094851882185" lon="11.800972808959898"><ele>556.0</ele><time>2026-04-14T07:27:21Z</time></trkpt><trkpt lat="43.90417158420464" lon="11.800840221539085"><ele>554.5</ele><time>2026-04-14T07:27:22Z</time></trkpt><trkpt lat="43.90426655734503" lon="11.800717498809217"><ele>553.0</ele><time>2026-04-14T07:27:23Z</time></trkpt><trkpt lat="43.90436858483309" lon="11.800591561381896"><ele>554.75</ele><time>2026-04-14T07:27:24Z</time></trkpt><trkpt lat="43.90446570466561" lon="11.800467032064335"><ele>556.5</ele><time>2026-04-14T07:27:25Z</time></trkpt><trkpt lat="43.90455449217975" lon="11.800345839134863"><ele>558.25</ele><time>2026-04-14T07:27:26Z</time></trkpt><trkpt lat="43.904645595782846" lon="11.80022515453868"><ele>560.0</ele><time>2026-04-14T07:27:27Z</time></trkpt><trkpt lat="43.90473608178982" lon="11.800101734212678"><ele>560.0</ele><time>2026-04-14T07:27:28Z</time></trkpt><trkpt lat="43.9048247995416" lon="11.799967065460352"><ele>560.0</ele><time>2026-04-14T07:27:29Z</time></trkpt><trkpt lat="43.90490717636904" lon="11.799817968867773"><ele>560.0</ele><time>2026-04-14T07:27:30Z</time></trkpt><trkpt lat="43.90498577836667" lon="11.799654968987856"><ele>560.0</ele><time>2026-04-14T07:27:31Z</time></trkpt><trkpt lat="43.90505740686198" lon="11.799493111684411"><ele>559.8</ele><time>2026-04-14T07:27:32Z</time></trkpt><trkpt lat="43.905122715482925" lon="11.799337945507478"><ele>559.6</ele><time>2026-04-14T07:27:33Z</time></trkpt><trkpt lat="43.90518538065534" lon="11.799188867034443"><ele>559.4</ele><time>2026-04-14T07:27:34Z</time></trkpt><trkpt lat="43.90524668973314" lon="11.799055268070491"><ele>559.2</ele><time>2026-04-14T07:27:35Z</time></trkpt><trkpt lat="43.905299213472986" lon="11.798970806522208"><ele>559.0</ele><time>2026-04-14T07:27:36Z</time></trkpt><trkpt lat="43.90536708781337" lon="11.798925796878372"><ele>559.0</ele><time>2026-04-14T07:27:37Z</time></trkpt><trkpt lat="43.90544425504608" lon="11.798930616632648"><ele>559.0</ele><time>2026-04-14T07:27:38Z</time></trkpt><trkpt lat="43.90553139203572" lon="11.798969347624237"><ele>559.0</ele><time>2026-04-14T07:27:39Z</time></trkpt><trkpt lat="43.90563428189295" lon="11.799020038768896"><ele>559.0</ele><time>2026-04-14T07:27:40Z</time></trkpt><trkpt lat="43.90575124604312" lon="11.799076425793327"><ele>559.0</ele><time>2026-04-14T07:27:41Z</time></trkpt><trkpt lat="43.9058578514088" lon="11.799129292168516"><ele>561.8</ele><time>2026-04-14T07:27:42Z</time></trkpt><trkpt lat="43.905956574693754" lon="11.79918033036573"><ele>564.5999999999999</ele><time>2026-04-14T07:27:43Z</time></trkpt><trkpt lat="43.90604265893031" lon="11.799211622476264"><ele>567.4</ele><time>2026-04-14T07:27:44Z</time></trkpt><trkpt lat="43.90612999949547" lon="11.799200574454781"><ele>570.1999999999999</ele><time>2026-04-14T07:27:45Z</time></trkpt><trkpt lat="43.90620714340795" lon="11.799140696169115"><ele>573.0</ele><time>2026-04-14T07:27:46Z</time></trkpt><trkpt lat="43.90626537137819" lon="11.79904250369445"><ele>573.0</ele><time>2026-04-14T07:27:47Z</time></trkpt><trkpt lat="43.906304203755745" lon="11.798928602682164"><ele>573.0</ele><time>2026-04-14T07:27:48Z</time></trkpt><trkpt lat="43.90633177014089" lon="11.798818796075553"><ele>573.0</ele><time>2026-04-14T07:27:49Z</time></trkpt><trkpt lat="43.906312980700676" lon="11.79869405378279"><ele>573.0</ele><time>2026-04-14T07:27:50Z</time></trkpt><trkpt lat="43.90624572999517" lon="11.798590229919544"><ele>573.0</ele><time>2026-04-14T07:27:51Z</time></trkpt><trkpt lat="43.9061802226587" lon="11.79848764469334"><ele>576.75</ele><time>2026-04-14T07:27:52Z</time></trkpt><trkpt lat="43.90610487560362" lon="11.798373446557743"><ele>580.5</ele><time>2026-04-14T07:27:53Z</time></trkpt><trkpt lat="43.906025282734" lon="11.798242033313535"><ele>584.25</ele><time>2026-04-14T07:27:54Z</time></trkpt><trkpt lat="43.905943944620844" lon="11.798108023612501"><ele>588.0</ele><time>2026-04-14T07:27:55Z</time></trkpt><trkpt lat="43.905870792240876" lon="11.79798012863196"><ele>582.6</ele><time>2026-04-14T07:27:56Z</time></trkpt><trkpt lat="43.90580804832626" lon="11.797852057293072"><ele>577.1999999999999</ele><time>2026-04-14T07:27:57Z</time></trkpt><trkpt lat="43.905760357866995" lon="11.797723099475276"><ele>571.8</ele><time>2026-04-14T07:27:58Z</time></trkpt><trkpt lat="43.90571887795234" lon="11.797597819746292"><ele>566.4</ele><time>2026-04-14T07:27:59Z</time></trkpt><trkpt lat="43.90567814442704" lon="11.797481731420708"><ele>561.0</ele><time>2026-04-14T07:28:00Z</time></trkpt><trkpt lat="43.90563684068279" lon="11.79737158918706"><ele>561.0</ele><time>2026-04-14T07:28:01Z</time></trkpt><trkpt lat="43.90559789230609" lon="11.797267134610404"><ele>561.0</ele><time>2026-04-14T07:28:02Z</time></trkpt><trkpt lat="43.905571897162716" lon="11.797162196771046"><ele>561.0</ele><time>2026-04-14T07:28:03Z</time></trkpt><trkpt lat="43.905574484924756" lon="11.797054831238995"><ele>561.0</ele><time>2026-04-14T07:28:04Z</time></trkpt><trkpt lat="43.905606501774216" lon="11.79696298045706"><ele>561.0</ele><time>2026-04-14T07:28:05Z</time></trkpt><trkpt lat="43.905659160271405" lon="11.79688540059725"><ele>561.0</ele><time>2026-04-14T07:28:06Z</time></trkpt><trkpt lat="43.90572442286524" lon="11.796827843370485"><ele>561.1666666666666</ele><time>2026-04-14T07:28:07Z</time></trkpt><trkpt lat="43.905789619663665" lon="11.79678927151438"><ele>561.3333333333334</ele><time>2026-04-14T07:28:08Z</time></trkpt><trkpt lat="43.905837106353175" lon="11.796720641281118"><ele>561.5</ele><time>2026-04-14T07:28:09Z</time></trkpt><trkpt lat="43.90590825593731" lon="11.796649490920196"><ele>561.6666666666667</ele><time>2026-04-14T07:28:10Z</time></trkpt><trkpt lat="43.90595245656995" lon="11.796541404400157"><ele>561.8333333333334</ele><time>2026-04-14T07:28:11Z</time></trkpt><trkpt lat="43.9059906740786" lon="11.796416540189956"><ele>562.0</ele><time>2026-04-14T07:28:12Z</time></trkpt><trkpt lat="43.90603350864746" lon="11.796285620669591"><ele>566.0</ele><time>2026-04-14T07:28:13Z</time></trkpt><trkpt lat="43.906088065642116" lon="11.796145518743476"><ele>570.0</ele><time>2026-04-14T07:28:14Z</time></trkpt><trkpt lat="43.90614586337567" lon="11.796015737909595"><ele>574.0</ele><time>2026-04-14T07:28:15Z</time></trkpt><trkpt lat="43.90620542713041" lon="11.795890927656602"><ele>578.0</ele><time>2026-04-14T07:28:16Z</time></trkpt><trkpt lat="43.90626836674039" lon="11.795769882006894"><ele>582.0</ele><time>2026-04-14T07:28:17Z</time></trkpt><trkpt lat="43.90633559030313" lon="11.795658423402623"><ele>582.0</ele><time>2026-04-14T07:28:18Z</time></trkpt><trkpt lat="43.90640927673071" lon="11.79555492996252"><ele>582.0</ele><time>2026-04-14T07:28:19Z</time></trkpt><trkpt lat="43.90648932416395" lon="11.795458323368686"><ele>582.0</ele><time>2026-04-14T07:28:20Z</time></trkpt><trkpt lat="43.90656904386497" lon="11.795358922403205"><ele>582.0</ele><time>2026-04-14T07:28:21Z</time></trkpt><trkpt lat="43.90665006651958" lon="11.795259062185984"><ele>582.0</ele><time>2026-04-14T07:28:22Z</time></trkpt><trkpt lat="43.906730152815335" lon="11.795161941160895"><ele>584.6</ele><time>2026-04-14T07:28:23Z</time></trkpt><trkpt lat="43.906809062645294" lon="11.795069874027533"><ele>587.2</ele><time>2026-04-14T07:28:24Z</time></trkpt><trkpt lat="43.90688865546134" lon="11.79498012190266"><ele>589.8</ele><time>2026-04-14T07:28:25Z</time></trkpt><trkpt lat="43.90696787040255" lon="11.794891164807465"><ele>592.4</ele><time>2026-04-14T07:28:26Z</time></trkpt><trkpt lat="43.90703636465447" lon="11.79481015751407"><ele>595.0</ele><time>2026-04-14T07:28:27Z</time></trkpt><trkpt lat="43.907086447528634" lon="11.794719610010981"><ele>595.0</ele><time>2026-04-14T07:28:28Z</time></trkpt><trkpt lat="43.90712023148455" lon="11.794619276690396"><ele>595.0</ele><time>2026-04-14T07:28:29Z</time></trkpt><trkpt lat="43.90714070180311" lon="11.794519773875011"><ele>595.0</ele><time>2026-04-14T07:28:30Z</time></trkpt><trkpt lat="43.90715235017474" lon="11.79443032831608"><ele>595.0</ele><time>2026-04-14T07:28:31Z</time></trkpt><trkpt lat="43.907200754004585" lon="11.794306472076919"><ele>595.0</ele><time>2026-04-14T07:28:33Z</time></trkpt><trkpt lat="43.90725327369036" lon="11.794247621400553"><ele>595.0</ele><time>2026-04-14T07:28:34Z</time></trkpt><trkpt lat="43.90732512885037" lon="11.794207572265115"><ele>596.0</ele><time>2026-04-14T07:28:35Z</time></trkpt><trkpt lat="43.90740767340227" lon="11.794167449444279"><ele>597.0</ele><time>2026-04-14T07:28:36Z</time></trkpt><trkpt lat="43.907492666422144" lon="11.794113582732132"><ele>598.0</ele><time>2026-04-14T07:28:37Z</time></trkpt><trkpt lat="43.90758427649819" lon="11.794038329415155"><ele>599.0</ele><time>2026-04-14T07:28:38Z</time></trkpt><trkpt lat="43.90767411928497" lon="11.793945515716056"><ele>600.0</ele><time>2026-04-14T07:28:39Z</time></trkpt><trkpt lat="43.90776257887203" lon="11.793840833059631"><ele>600.0</ele><time>2026-04-14T07:28:40Z</time></trkpt><trkpt lat="43.907843407660565" lon="11.793730835869221"><ele>600.0</ele><time>2026-04-14T07:28:41Z</time></trkpt><trkpt lat="43.90792583549828" lon="11.793620605439253"><ele>600.0</ele><time>2026-04-14T07:28:42Z</time></trkpt><trkpt lat="43.90800913239489" lon="11.793507483016274"><ele>600.0</ele><time>2026-04-14T07:28:43Z</time></trkpt><trkpt lat="43.908094028032416" lon="11.793396986439678"><ele>601.2</ele><time>2026-04-14T07:28:44Z</time></trkpt><trkpt lat="43.908180496206676" lon="11.79329178726461"><ele>602.4</ele><time>2026-04-14T07:28:45Z</time></trkpt><trkpt lat="43.90825993283264" lon="11.793188546039746"><ele>603.6</ele><time>2026-04-14T07:28:46Z</time></trkpt><trkpt lat="43.90834134194058" lon="11.793108614496445"><ele>604.8</ele><time>2026-04-14T07:28:47Z</time></trkpt><trkpt lat="43.90842831378129" lon="11.793057350130573"><ele>606.0</ele><time>2026-04-14T07:28:48Z</time></trkpt><trkpt lat="43.908524574418884" lon="11.793035611557308"><ele>606.0</ele><time>2026-04-14T07:28:49Z</time></trkpt><trkpt lat="43.90862613814513" lon="11.793031839818848"><ele>606.0</ele><time>2026-04-14T07:28:50Z</time></trkpt><trkpt lat="43.90874016341218" lon="11.793027068120285"><ele>606.0</ele><time>2026-04-14T07:28:51Z</time></trkpt><trkpt lat="43.908861301500444" lon="11.793014042225595"><ele>606.0</ele><time>2026-04-14T07:28:52Z</time></trkpt><trkpt lat="43.90898674029364" lon="11.792997431800051"><ele>606.0</ele><time>2026-04-14T07:28:53Z</time></trkpt><trkpt lat="43.909111914441155" lon="11.792963369896238"><ele>606.0</ele><time>2026-04-14T07:28:54Z</time></trkpt><trkpt lat="43.90923179243709" lon="11.792918617591672"><ele>606.0</ele><time>2026-04-14T07:28:55Z</time></trkpt><trkpt lat="43.909347640044565" lon="11.792876121515757"><ele>606.0</ele><time>2026-04-14T07:28:56Z</time></trkpt><trkpt lat="43.90945820299724" lon="11.792856027226197"><ele>606.75</ele><time>2026-04-14T07:28:57Z</time></trkpt><trkpt lat="43.9095674422981" lon="11.792878186982099"><ele>607.5</ele><time>2026-04-14T07:28:58Z</time></trkpt><trkpt lat="43.9096677268782" lon="11.792945527275684"><ele>608.25</ele><time>2026-04-14T07:28:59Z</time></trkpt><trkpt lat="43.90978749471555" lon="11.793004749934616"><ele>609.0</ele><time>2026-04-14T07:29:00Z</time></trkpt><trkpt lat="43.9099082908003" lon="11.793076237276884"><ele>609.0</ele><time>2026-04-14T07:29:01Z</time></trkpt><trkpt lat="43.910021288594166" lon="11.793142386803728"><ele>609.0</ele><time>2026-04-14T07:29:02Z</time></trkpt><trkpt lat="43.91011214983553" lon="11.79323151357589"><ele>609.0</ele><time>2026-04-14T07:29:03Z</time></trkpt><trkpt lat="43.91018821017588" lon="11.7933466680671"><ele>609.0</ele><time>2026-04-14T07:29:04Z</time></trkpt><trkpt lat="43.91026307105236" lon="11.793466799303513"><ele>613.75</ele><time>2026-04-14T07:29:05Z</time></trkpt><trkpt lat="43.910353157121456" lon="11.793574858616894"><ele>618.5</ele><time>2026-04-14T07:29:06Z</time></trkpt><trkpt lat="43.91046747910998" lon="11.793655197461854"><ele>623.25</ele><time>2026-04-14T07:29:07Z</time></trkpt><trkpt lat="43.910596796590376" lon="11.793705148604106"><ele>628.0</ele><time>2026-04-14T07:29:08Z</time></trkpt><trkpt lat="43.910732198128144" lon="11.793734364319338"><ele>628.0</ele><time>2026-04-14T07:29:09Z</time></trkpt><trkpt lat="43.91086422808792" lon="11.793742630934187"><ele>628.0</ele><time>2026-04-14T07:29:10Z</time></trkpt><trkpt lat="43.910981881166855" lon="11.793785834239987"><ele>628.0</ele><time>2026-04-14T07:29:11Z</time></trkpt><trkpt lat="43.91109806835125" lon="11.793833190340795"><ele>628.0</ele><time>2026-04-14T07:29:12Z</time></trkpt><trkpt lat="43.91121731291836" lon="11.793871784584839"><ele>626.1999999999999</ele><time>2026-04-14T07:29:13Z</time></trkpt><trkpt lat="43.9113257778041" lon="11.7939333153157"><ele>624.4</ele><time>2026-04-14T07:29:14Z</time></trkpt><trkpt lat="43.91142594888081" lon="11.793992317303914"><ele>622.5999999999999</ele><time>2026-04-14T07:29:15Z</time></trkpt><trkpt lat="43.91151826192712" lon="11.794068188269511"><ele>620.8</ele><time>2026-04-14T07:29:16Z</time></trkpt><trkpt lat="43.911602393943845" lon="11.794144262550226"><ele>619.0</ele><time>2026-04-14T07:29:17Z</time></trkpt><trkpt lat="43.911680388911265" lon="11.79420659573802"><ele>619.8333333333334</ele><time>2026-04-14T07:29:18Z</time></trkpt><trkpt lat="43.91175677462405" lon="11.794242497835887"><ele>620.6666666666667</ele><time>2026-04-14T07:29:19Z</time></trkpt><trkpt lat="43.91183347310303" lon="11.794232597430419"><ele>621.5</ele><time>2026-04-14T07:29:20Z</time></trkpt><trkpt lat="43.91191052688161" lon="11.794178324086566"><ele>622.3333333333334</ele><time>2026-04-14T07:29:21Z</time></trkpt><trkpt lat="43.911962652758895" lon="11.794093585386003"><ele>623.1666666666666</ele><time>2026-04-14T07:29:22Z</time></trkpt><trkpt lat="43.9119835069915" lon="11.793995406210222"><ele>624.0</ele><time>2026-04-14T07:29:23Z</time></trkpt><trkpt lat="43.91198465618438" lon="11.79387905258659"><ele>624.0</ele><time>2026-04-14T07:29:24Z</time></trkpt><trkpt lat="43.91197132870849" lon="11.793741263834484"><ele>624.0</ele><time>2026-04-14T07:29:25Z</time></trkpt><trkpt lat="43.91195106884382" lon="11.793597930010069"><ele>624.0</ele><time>2026-04-14T07:29:26Z</time></trkpt><trkpt lat="43.91192717625365" lon="11.793443358403056"><ele>624.0</ele><time>2026-04-14T07:29:27Z</time></trkpt><trkpt lat="43.911927252631635" lon="11.793277461756544"><ele>624.0</ele><time>2026-04-14T07:29:28Z</time></trkpt><trkpt lat="43.91189401223128" lon="11.793125771571935"><ele>625.75</ele><time>2026-04-14T07:29:29Z</time></trkpt><trkpt lat="43.91186667600768" lon="11.7929850140478"><ele>627.5</ele><time>2026-04-14T07:29:30Z</time></trkpt><trkpt lat="43.91182434639222" lon="11.792840983584949"><ele>629.25</ele><time>2026-04-14T07:29:31Z</time></trkpt><trkpt lat="43.911736978781846" lon="11.792722144518299"><ele>631.0</ele><time>2026-04-14T07:29:32Z</time></trkpt><trkpt lat="43.911617913836594" lon="11.792669468285196"><ele>627.2</ele><time>2026-04-14T07:29:33Z</time></trkpt><trkpt lat="43.9115134969146" lon="11.792583985541425"><ele>623.4000000000001</ele><time>2026-04-14T07:29:34Z</time></trkpt><trkpt lat="43.91141333366285" lon="11.792528627143591"><ele>619.6</ele><time>2026-04-14T07:29:35Z</time></trkpt><trkpt lat="43.91132209520767" lon="11.79246867639208"><ele>615.8000000000001</ele><time>2026-04-14T07:29:36Z</time></trkpt><trkpt lat="43.91123148852414" lon="11.792408002419386"><ele>612.0</ele><time>2026-04-14T07:29:37Z</time></trkpt><trkpt lat="43.91116929377527" lon="11.7922929534135"><ele>612.0</ele><time>2026-04-14T07:29:38Z</time></trkpt><trkpt lat="43.91113138653955" lon="11.79216074896616"><ele>612.0</ele><time>2026-04-14T07:29:39Z</time></trkpt><trkpt lat="43.911119691402334" lon="11.792030139439847"><ele>612.0</ele><time>2026-04-14T07:29:40Z</time></trkpt><trkpt lat="43.9111372521809" lon="11.791907337287295"><ele>612.0</ele><time>2026-04-14T07:29:41Z</time></trkpt><trkpt lat="43.911171749626504" lon="11.791785717939575"><ele>612.0</ele><time>2026-04-14T07:29:42Z</time></trkpt><trkpt lat="43.91123258274722" lon="11.791664897924399"><ele>613.0</ele><time>2026-04-14T07:29:43Z</time></trkpt><trkpt lat="43.91129927531551" lon="11.791540486812016"><ele>614.0</ele><time>2026-04-14T07:29:44Z</time></trkpt><trkpt lat="43.911374405740034" lon="11.791417073933154"><ele>615.0</ele><time>2026-04-14T07:29:45Z</time></trkpt><trkpt lat="43.91146124001946" lon="11.791291631425304"><ele>616.0</ele><time>2026-04-14T07:29:46Z</time></trkpt><trkpt lat="43.91155644108155" lon="11.791164250393885"><ele>616.0</ele><time>2026-04-14T07:29:47Z</time></trkpt><trkpt lat="43.91166533821202" lon="11.791030087504824"><ele>616.0</ele><time>2026-04-14T07:29:48Z</time></trkpt><trkpt lat="43.91177759077163" lon="11.790889759034537"><ele>616.0</ele><time>2026-04-14T07:29:49Z</time></trkpt><trkpt lat="43.911893042004344" lon="11.790751556373827"><ele>616.0</ele><time>2026-04-14T07:29:50Z</time></trkpt><trkpt lat="43.91200465498395" lon="11.790613139064087"><ele>619.0</ele><time>2026-04-14T07:29:51Z</time></trkpt><trkpt lat="43.91211968850724" lon="11.79047386597237"><ele>622.0</ele><time>2026-04-14T07:29:52Z</time></trkpt><trkpt lat="43.91223535700327" lon="11.790330693731752"><ele>625.0</ele><time>2026-04-14T07:29:53Z</time></trkpt><trkpt lat="43.91235678662913" lon="11.790184027477402"><ele>626.6666666666667</ele><time>2026-04-14T07:29:54Z</time></trkpt><trkpt lat="43.91248753812813" lon="11.790056999034"><ele>628.3333333333334</ele><time>2026-04-14T07:29:55Z</time></trkpt><trkpt lat="43.9125886730321" lon="11.78990397470803"><ele>630.0</ele><time>2026-04-14T07:29:56Z</time></trkpt><trkpt lat="43.912697126184284" lon="11.78977494437648"><ele>630.0</ele><time>2026-04-14T07:29:57Z</time></trkpt><trkpt lat="43.912794393323985" lon="11.789652335117303"><ele>630.0</ele><time>2026-04-14T07:29:58Z</time></trkpt><trkpt lat="43.91289030679133" lon="11.789542409168469"><ele>630.0</ele><time>2026-04-14T07:29:59Z</time></trkpt><trkpt lat="43.912990575551675" lon="11.78946047950687"><ele>630.0</ele><time>2026-04-14T07:30:00Z</time></trkpt><trkpt lat="43.91309973242548" lon="11.789415609946255"><ele>630.0</ele><time>2026-04-14T07:30:01Z</time></trkpt><trkpt lat="43.913206753189016" lon="11.78942212510381"><ele>630.0</ele><time>2026-04-14T07:30:02Z</time></trkpt><trkpt lat="43.91330865118463" lon="11.789418578816793"><ele>630.0</ele><time>2026-04-14T07:30:03Z</time></trkpt><trkpt lat="43.9134114384899" lon="11.78950493534937"><ele>630.0</ele><time>2026-04-14T07:30:04Z</time></trkpt><trkpt lat="43.91352004424157" lon="11.789572161052652"><ele>630.0</ele><time>2026-04-14T07:30:05Z</time></trkpt><trkpt lat="43.91363370239484" lon="11.789646726823602"><ele>631.75</ele><time>2026-04-14T07:30:06Z</time></trkpt><trkpt lat="43.91374776084181" lon="11.78971635643427"><ele>633.5</ele><time>2026-04-14T07:30:07Z</time></trkpt><trkpt lat="43.913865851184156" lon="11.789765963667426"><ele>635.25</ele><time>2026-04-14T07:30:08Z</time></trkpt><trkpt lat="43.9139903189771" lon="11.78977728918338"><ele>637.0</ele><time>2026-04-14T07:30:09Z</time></trkpt><trkpt lat="43.914122049279726" lon="11.789756539040432"><ele>638.5</ele><time>2026-04-14T07:30:10Z</time></trkpt><trkpt lat="43.9142583520438" lon="11.789758158003123"><ele>640.0</ele><time>2026-04-14T07:30:11Z</time></trkpt><trkpt lat="43.914386227316186" lon="11.789729636997503"><ele>641.5</ele><time>2026-04-14T07:30:12Z</time></trkpt><trkpt lat="43.91450780983689" lon="11.789794752808834"><ele>643.0</ele><time>2026-04-14T07:30:13Z</time></trkpt><trkpt lat="43.914641751581804" lon="11.789843526192872"><ele>643.0</ele><time>2026-04-14T07:30:14Z</time></trkpt><trkpt lat="43.91477585515843" lon="11.789914805871241"><ele>643.0</ele><time>2026-04-14T07:30:15Z</time></trkpt><trkpt lat="43.914912939166314" lon="11.789945911093717"><ele>643.0</ele><time>2026-04-14T07:30:16Z</time></trkpt><trkpt lat="43.915048102658346" lon="11.789935178722226"><ele>643.0</ele><time>2026-04-14T07:30:17Z</time></trkpt><trkpt lat="43.915179803112935" lon="11.789887827692674"><ele>646.5</ele><time>2026-04-14T07:30:18Z</time></trkpt><trkpt lat="43.91529588902202" lon="11.78982857913039"><ele>650.0</ele><time>2026-04-14T07:30:19Z</time></trkpt><trkpt lat="43.91540678836987" lon="11.789772059255345"><ele>653.5</ele><time>2026-04-14T07:30:20Z</time></trkpt><trkpt lat="43.91551714528692" lon="11.78971848109287"><ele>657.0</ele><time>2026-04-14T07:30:21Z</time></trkpt><trkpt lat="43.915629469029994" lon="11.789674699912778"><ele>657.0</ele><time>2026-04-14T07:30:22Z</time></trkpt><trkpt lat="43.91573158015307" lon="11.789634590866193"><ele>657.0</ele><time>2026-04-14T07:30:23Z</time></trkpt><trkpt lat="43.91584096175485" lon="11.789596533917383"><ele>657.0</ele><time>2026-04-14T07:30:24Z</time></trkpt><trkpt lat="43.91594262506052" lon="11.789555008956485"><ele>657.0</ele><time>2026-04-14T07:30:25Z</time></trkpt><trkpt lat="43.916034458347035" lon="11.78951562957275"><ele>657.0</ele><time>2026-04-14T07:30:26Z</time></trkpt><trkpt lat="43.91612688317588" lon="11.78948121689126"><ele>659.6</ele><time>2026-04-14T07:30:27Z</time></trkpt><trkpt lat="43.91623578440084" lon="11.789461542031866"><ele>662.2</ele><time>2026-04-14T07:30:28Z</time></trkpt><trkpt lat="43.916341562807155" lon="11.789497197555956"><ele>664.8</ele><time>2026-04-14T07:30:29Z</time></trkpt><trkpt lat="43.91644987565389" lon="11.789535133494281"><ele>667.4</ele><time>2026-04-14T07:30:30Z</time></trkpt><trkpt lat="43.91656410470042" lon="11.789578234331731"><ele>670.0</ele><time>2026-04-14T07:30:31Z</time></trkpt><trkpt lat="43.91668227526673" lon="11.789625383919974"><ele>667.0</ele><time>2026-04-14T07:30:32Z</time></trkpt><trkpt lat="43.9168033329341" lon="11.789662487505455"><ele>664.0</ele><time>2026-04-14T07:30:33Z</time></trkpt><trkpt lat="43.91691155898849" lon="11.789713915462942"><ele>661.0</ele><time>2026-04-14T07:30:34Z</time></trkpt><trkpt lat="43.917014386712545" lon="11.789753278142786"><ele>658.0</ele><time>2026-04-14T07:30:35Z</time></trkpt><trkpt lat="43.91711137882336" lon="11.78980236775064"><ele>655.0</ele><time>2026-04-14T07:30:36Z</time></trkpt><trkpt lat="43.917171673310996" lon="11.789899973355501"><ele>655.0</ele><time>2026-04-14T07:30:37Z</time></trkpt><trkpt lat="43.91721061902718" lon="11.790006606008994"><ele>655.0</ele><time>2026-04-14T07:30:38Z</time></trkpt><trkpt lat="43.917236834694265" lon="11.790128795009851"><ele>655.0</ele><time>2026-04-14T07:30:39Z</time></trkpt><trkpt lat="43.917285430453596" lon="11.790231176956766"><ele>655.0</ele><time>2026-04-14T07:30:40Z</time></trkpt><trkpt lat="43.91732201232329" lon="11.790324687698966"><ele>655.0</ele><time>2026-04-14T07:30:41Z</time></trkpt><trkpt lat="43.917385450134496" lon="11.790397835882926"><ele>655.0</ele><time>2026-04-14T07:30:42Z</time></trkpt><trkpt lat="43.91746541662562" lon="11.7904347820359"><ele>655.1666666666667</ele><time>2026-04-14T07:30:43Z</time></trkpt><trkpt lat="43.91755123247803" lon="11.790429866850593"><ele>655.3333333333334</ele><time>2026-04-14T07:30:44Z</time></trkpt><trkpt lat="43.91763073857473" lon="11.790392310234367"><ele>655.5</ele><time>2026-04-14T07:30:45Z</time></trkpt><trkpt lat="43.9176959373011" lon="11.790313412321415"><ele>655.6666666666666</ele><time>2026-04-14T07:30:46Z</time></trkpt><trkpt lat="43.91774677766542" lon="11.790202924290664"><ele>655.8333333333333</ele><time>2026-04-14T07:30:47Z</time></trkpt><trkpt lat="43.91779392926293" lon="11.790085138260288"><ele>656.0</ele><time>2026-04-14T07:30:48Z</time></trkpt><trkpt lat="43.91784239132372" lon="11.789979316053634"><ele>656.0</ele><time>2026-04-14T07:30:49Z</time></trkpt><trkpt lat="43.917907980362465" lon="11.78991489835533"><ele>656.0</ele><time>2026-04-14T07:30:50Z</time></trkpt><trkpt lat="43.91797818180687" lon="11.789918839929861"><ele>656.0</ele><time>2026-04-14T07:30:51Z</time></trkpt><trkpt lat="43.91804160779005" lon="11.789966098688033"><ele>656.0</ele><time>2026-04-14T07:30:52Z</time></trkpt><trkpt lat="43.918094784420205" lon="11.790065053982323"><ele>656.0</ele><time>2026-04-14T07:30:53Z</time></trkpt><trkpt lat="43.91816893797063" lon="11.79016389194891"><ele>656.0</ele><time>2026-04-14T07:30:54Z</time></trkpt><trkpt lat="43.91826665503278" lon="11.790262041759851"><ele>662.5</ele><time>2026-04-14T07:30:55Z</time></trkpt><trkpt lat="43.91837120436489" lon="11.79037571523215"><ele>669.0</ele><time>2026-04-14T07:30:56Z</time></trkpt><trkpt lat="43.91847925254048" lon="11.79045409636388"><ele>675.5</ele><time>2026-04-14T07:30:57Z</time></trkpt><trkpt lat="43.918594763192374" lon="11.790495499405797"><ele>682.0</ele><time>2026-04-14T07:30:58Z</time></trkpt><trkpt lat="43.91871694866651" lon="11.790516684238584"><ele>682.0</ele><time>2026-04-14T07:30:59Z</time></trkpt><trkpt lat="43.91882714904729" lon="11.790552802430817"><ele>682.0</ele><time>2026-04-14T07:31:00Z</time></trkpt><trkpt lat="43.91893066817456" lon="11.790619256608771"><ele>682.0</ele><time>2026-04-14T07:31:01Z</time></trkpt><trkpt lat="43.91904454537305" lon="11.79071995858969"><ele>682.0</ele><time>2026-04-14T07:31:02Z</time></trkpt><trkpt lat="43.919177877170185" lon="11.790783260956424"><ele>680.25</ele><time>2026-04-14T07:31:03Z</time></trkpt><trkpt lat="43.9193106438639" lon="11.79086819120032"><ele>678.5</ele><time>2026-04-14T07:31:04Z</time></trkpt><trkpt lat="43.91942927217857" lon="11.790936093016391"><ele>676.75</ele><time>2026-04-14T07:31:05Z</time></trkpt><trkpt lat="43.9195312205145" lon="11.79101436720737"><ele>675.0</ele><time>2026-04-14T07:31:06Z</time></trkpt><trkpt lat="43.9196134903599" lon="11.791109391066678"><ele>679.4</ele><time>2026-04-14T07:31:07Z</time></trkpt><trkpt lat="43.91968249548349" lon="11.791210882171818"><ele>683.8</ele><time>2026-04-14T07:31:08Z</time></trkpt><trkpt lat="43.91972353345368" lon="11.79132465051622"><ele>688.2</ele><time>2026-04-14T07:31:09Z</time></trkpt><trkpt lat="43.9197279276145" lon="11.791462347027434"><ele>692.6</ele><time>2026-04-14T07:31:10Z</time></trkpt><trkpt lat="43.919757203834436" lon="11.791599365280554"><ele>697.0</ele><time>2026-04-14T07:31:11Z</time></trkpt><trkpt lat="43.91976261270691" lon="11.791714025963387"><ele>697.0</ele><time>2026-04-14T07:31:12Z</time></trkpt><trkpt lat="43.91982099232639" lon="11.791776028482978"><ele>697.0</ele><time>2026-04-14T07:31:13Z</time></trkpt><trkpt lat="43.919941502267136" lon="11.791838210888638"><ele>697.0</ele><time>2026-04-14T07:31:15Z</time></trkpt><trkpt lat="43.92001628818688" lon="11.791804468905248"><ele>697.0</ele><time>2026-04-14T07:31:16Z</time></trkpt><trkpt lat="43.92008998918543" lon="11.791699488395057"><ele>697.0</ele><time>2026-04-14T07:31:17Z</time></trkpt><trkpt lat="43.920195133688985" lon="11.791631772441807"><ele>698.75</ele><time>2026-04-14T07:31:18Z</time></trkpt><trkpt lat="43.920308984519835" lon="11.791594382842082"><ele>700.5</ele><time>2026-04-14T07:31:19Z</time></trkpt><trkpt lat="43.92043433009663" lon="11.791548213135133"><ele>702.25</ele><time>2026-04-14T07:31:20Z</time></trkpt><trkpt lat="43.92053989177066" lon="11.79148369947696"><ele>704.0</ele><time>2026-04-14T07:31:21Z</time></trkpt><trkpt lat="43.92062113906588" lon="11.791388783612264"><ele>704.0</ele><time>2026-04-14T07:31:22Z</time></trkpt><trkpt lat="43.920719709878135" lon="11.791342470600867"><ele>704.0</ele><time>2026-04-14T07:31:23Z</time></trkpt><trkpt lat="43.920800101574414" lon="11.79127538679517"><ele>704.0</ele><time>2026-04-14T07:31:24Z</time></trkpt><trkpt lat="43.920896378043885" lon="11.7912886270615"><ele>704.0</ele><time>2026-04-14T07:31:25Z</time></trkpt><trkpt lat="43.92098519945315" lon="11.791340837387429"><ele>704.0</ele><time>2026-04-14T07:31:26Z</time></trkpt><trkpt lat="43.92106913105113" lon="11.791415436731928"><ele>703.25</ele><time>2026-04-14T07:31:27Z</time></trkpt><trkpt lat="43.92115790253131" lon="11.791512899053322"><ele>702.5</ele><time>2026-04-14T07:31:28Z</time></trkpt><trkpt lat="43.921259020008414" lon="11.791610818452822"><ele>701.75</ele><time>2026-04-14T07:31:29Z</time></trkpt><trkpt lat="43.92137868329818" lon="11.791684007132211"><ele>701.0</ele><time>2026-04-14T07:31:30Z</time></trkpt><trkpt lat="43.92149192144998" lon="11.791746494869177"><ele>701.0</ele><time>2026-04-14T07:31:31Z</time></trkpt><trkpt lat="43.92159318194677" lon="11.791822139047783"><ele>701.0</ele><time>2026-04-14T07:31:32Z</time></trkpt><trkpt lat="43.92168414984428" lon="11.791913251386042"><ele>701.0</ele><time>2026-04-14T07:31:33Z</time></trkpt><trkpt lat="43.921778466111746" lon="11.792012514685467"><ele>701.0</ele><time>2026-04-14T07:31:34Z</time></trkpt><trkpt lat="43.921867900346335" lon="11.792109375765296"><ele>703.4</ele><time>2026-04-14T07:31:35Z</time></trkpt><trkpt lat="43.92195723770484" lon="11.792205962050812"><ele>705.8</ele><time>2026-04-14T07:31:36Z</time></trkpt><trkpt lat="43.92205677687728" lon="11.792297387538298"><ele>708.1999999999999</ele><time>2026-04-14T07:31:37Z</time></trkpt><trkpt lat="43.92214603406997" lon="11.792373511198198"><ele>710.5999999999999</ele><time>2026-04-14T07:31:38Z</time></trkpt><trkpt lat="43.92223299185324" lon="11.792418043382122"><ele>713.0</ele><time>2026-04-14T07:31:39Z</time></trkpt><trkpt lat="43.922316044385425" lon="11.79243057430405"><ele>713.0</ele><time>2026-04-14T07:31:40Z</time></trkpt><trkpt lat="43.92239277813485" lon="11.792434117258233"><ele>713.0</ele><time>2026-04-14T07:31:41Z</time></trkpt><trkpt lat="43.92248172127969" lon="11.792468947075653"><ele>713.0</ele><time>2026-04-14T07:31:42Z</time></trkpt><trkpt lat="43.922586823342556" lon="11.7924800859192"><ele>713.0</ele><time>2026-04-14T07:31:43Z</time></trkpt><trkpt lat="43.92268842288746" lon="11.792504482476385"><ele>713.0</ele><time>2026-04-14T07:31:44Z</time></trkpt><trkpt lat="43.922800593840165" lon="11.792526784274436"><ele>713.2</ele><time>2026-04-14T07:31:45Z</time></trkpt><trkpt lat="43.9229121926057" lon="11.792557818081056"><ele>713.4</ele><time>2026-04-14T07:31:46Z</time></trkpt><trkpt lat="43.923006365621795" lon="11.792588729888429"><ele>713.6</ele><time>2026-04-14T07:31:47Z</time></trkpt><trkpt lat="43.923096245759815" lon="11.792627877073295"><ele>713.8000000000001</ele><time>2026-04-14T07:31:48Z</time></trkpt><trkpt lat="43.92319363764108" lon="11.79264144186115"><ele>714.0</ele><time>2026-04-14T07:31:49Z</time></trkpt><trkpt lat="43.923297497788795" lon="11.792651100728225"><ele>717.4000000000001</ele><time>2026-04-14T07:31:50Z</time></trkpt><trkpt lat="43.923401024188365" lon="11.792673981937671"><ele>720.8</ele><time>2026-04-14T07:31:51Z</time></trkpt><trkpt lat="43.92348912291902" lon="11.792729687522236"><ele>724.2</ele><time>2026-04-14T07:31:52Z</time></trkpt><trkpt lat="43.92357399959912" lon="11.79281471127647"><ele>727.5999999999999</ele><time>2026-04-14T07:31:53Z</time></trkpt><trkpt lat="43.923657327629975" lon="11.792924217855731"><ele>731.0</ele><time>2026-04-14T07:31:54Z</time></trkpt><trkpt lat="43.92375512100868" lon="11.793046206626245"><ele>731.0</ele><time>2026-04-14T07:31:55Z</time></trkpt><trkpt lat="43.923855790748235" lon="11.79318000660104"><ele>731.0</ele><time>2026-04-14T07:31:56Z</time></trkpt><trkpt lat="43.92395711935292" lon="11.79329801470474"><ele>731.0</ele><time>2026-04-14T07:31:57Z</time></trkpt><trkpt lat="43.924047662597594" lon="11.793411520731754"><ele>731.0</ele><time>2026-04-14T07:31:58Z</time></trkpt><trkpt lat="43.92414297001214" lon="11.793510672471372"><ele>734.1999999999999</ele><time>2026-04-14T07:31:59Z</time></trkpt><trkpt lat="43.92424954177418" lon="11.79359716874854"><ele>737.4</ele><time>2026-04-14T07:32:00Z</time></trkpt><trkpt lat="43.92435359003278" lon="11.793663512151442"><ele>740.6</ele><time>2026-04-14T07:32:01Z</time></trkpt><trkpt lat="43.92445055637559" lon="11.793722261785971"><ele>743.8</ele><time>2026-04-14T07:32:02Z</time></trkpt><trkpt lat="43.924534646007686" lon="11.79379241594589"><ele>747.0</ele><time>2026-04-14T07:32:03Z</time></trkpt><trkpt lat="43.924603167142024" lon="11.793879645933918"><ele>747.0</ele><time>2026-04-14T07:32:04Z</time></trkpt><trkpt lat="43.924657554558856" lon="11.793965139433604"><ele>747.0</ele><time>2026-04-14T07:32:05Z</time></trkpt><trkpt lat="43.924716197074474" lon="11.794018625696207"><ele>747.0</ele><time>2026-04-14T07:32:06Z</time></trkpt><trkpt lat="43.924791216004245" lon="11.794039926100245"><ele>747.0</ele><time>2026-04-14T07:32:07Z</time></trkpt><trkpt lat="43.92487272969364" lon="11.794028238600383"><ele>747.0</ele><time>2026-04-14T07:32:08Z</time></trkpt><trkpt lat="43.92496748195996" lon="11.794010845117025"><ele>747.0</ele><time>2026-04-14T07:32:09Z</time></trkpt><trkpt lat="43.925075786153734" lon="11.793977059655603"><ele>749.0</ele><time>2026-04-14T07:32:10Z</time></trkpt><trkpt lat="43.92519021130285" lon="11.793937821827246"><ele>751.0</ele><time>2026-04-14T07:32:11Z</time></trkpt><trkpt lat="43.92531038481471" lon="11.79389863067771"><ele>753.0</ele><time>2026-04-14T07:32:12Z</time></trkpt><trkpt lat="43.92540383296665" lon="11.79381627992672"><ele>755.0</ele><time>2026-04-14T07:32:13Z</time></trkpt><trkpt lat="43.92549012021604" lon="11.793754920551788"><ele>757.0</ele><time>2026-04-14T07:32:14Z</time></trkpt><trkpt lat="43.9255824501568" lon="11.793707607587782"><ele>757.0</ele><time>2026-04-14T07:32:15Z</time></trkpt><trkpt lat="43.92566892431803" lon="11.793642379372475"><ele>757.0</ele><time>2026-04-14T07:32:16Z</time></trkpt><trkpt lat="43.92576203341005" lon="11.793590056529426"><ele>757.0</ele><time>2026-04-14T07:32:17Z</time></trkpt><trkpt lat="43.92584405497223" lon="11.793490853842034"><ele>757.0</ele><time>2026-04-14T07:32:18Z</time></trkpt><trkpt lat="43.92589895436844" lon="11.793344739827123"><ele>757.0</ele><time>2026-04-14T07:32:19Z</time></trkpt><trkpt lat="43.92593451494562" lon="11.79319476508537"><ele>758.1666666666667</ele><time>2026-04-14T07:32:20Z</time></trkpt><trkpt lat="43.9259973343412" lon="11.793083220994905"><ele>759.3333333333334</ele><time>2026-04-14T07:32:21Z</time></trkpt><trkpt lat="43.92603767736921" lon="11.792971250195057"><ele>760.5</ele><time>2026-04-14T07:32:22Z</time></trkpt><trkpt lat="43.92606960591415" lon="11.792866691971374"><ele>761.6666666666666</ele><time>2026-04-14T07:32:23Z</time></trkpt><trkpt lat="43.92608124811539" lon="11.792753452273312"><ele>762.8333333333333</ele><time>2026-04-14T07:32:24Z</time></trkpt><trkpt lat="43.926063742711285" lon="11.79265645163626"><ele>764.0</ele><time>2026-04-14T07:32:25Z</time></trkpt><trkpt lat="43.926015456890894" lon="11.792563117961691"><ele>762.8333333333333</ele><time>2026-04-14T07:32:26Z</time></trkpt><trkpt lat="43.92593274165635" lon="11.79249762767558"><ele>761.6666666666666</ele><time>2026-04-14T07:32:27Z</time></trkpt><trkpt lat="43.92585152577226" lon="11.79247168851746"><ele>760.5</ele><time>2026-04-14T07:32:28Z</time></trkpt><trkpt lat="43.92576775432811" lon="11.792460638042334"><ele>759.3333333333334</ele><time>2026-04-14T07:32:29Z</time></trkpt><trkpt lat="43.92569153329271" lon="11.792489614299631"><ele>758.1666666666667</ele><time>2026-04-14T07:32:30Z</time></trkpt><trkpt lat="43.92562469123863" lon="11.792514194180427"><ele>757.0</ele><time>2026-04-14T07:32:31Z</time></trkpt><trkpt lat="43.92555926958947" lon="11.792552071603424"><ele>757.0</ele><time>2026-04-14T07:32:32Z</time></trkpt><trkpt lat="43.92550833017108" lon="11.792628690517173"><ele>757.0</ele><time>2026-04-14T07:32:33Z</time></trkpt><trkpt lat="43.92546694303659" lon="11.792743817952973"><ele>757.0</ele><time>2026-04-14T07:32:34Z</time></trkpt><trkpt lat="43.92541949074967" lon="11.79284343824619"><ele>757.0</ele><time>2026-04-14T07:32:35Z</time></trkpt><trkpt lat="43.92536525668232" lon="11.792914090601759"><ele>757.0</ele><time>2026-04-14T07:32:36Z</time></trkpt><trkpt lat="43.92529709435947" lon="11.79296073769486"><ele>757.0</ele><time>2026-04-14T07:32:37Z</time></trkpt><trkpt lat="43.925226602174156" lon="11.792952988766647"><ele>755.1666666666667</ele><time>2026-04-14T07:32:38Z</time></trkpt><trkpt lat="43.925171066363745" lon="11.792888124514244"><ele>753.3333333333334</ele><time>2026-04-14T07:32:39Z</time></trkpt><trkpt lat="43.925120481136204" lon="11.79279753957046"><ele>751.5</ele><time>2026-04-14T07:32:40Z</time></trkpt><trkpt lat="43.92505062155305" lon="11.792698504968937"><ele>749.6666666666666</ele><time>2026-04-14T07:32:41Z</time></trkpt><trkpt lat="43.92501688562618" lon="11.792590112279372"><ele>747.8333333333333</ele><time>2026-04-14T07:32:42Z</time></trkpt><trkpt lat="43.92500411987484" lon="11.792479017144833"><ele>746.0</ele><time>2026-04-14T07:32:43Z</time></trkpt><trkpt lat="43.92502111216195" lon="11.792367719727302"><ele>748.1999999999999</ele><time>2026-04-14T07:32:44Z</time></trkpt><trkpt lat="43.92508364610862" lon="11.792272375769103"><ele>750.4</ele><time>2026-04-14T07:32:45Z</time></trkpt><trkpt lat="43.925142614711326" lon="11.792149166571374"><ele>752.6</ele><time>2026-04-14T07:32:46Z</time></trkpt><trkpt lat="43.925205862958435" lon="11.792015465780521"><ele>754.8</ele><time>2026-04-14T07:32:47Z</time></trkpt><trkpt lat="43.925266839898626" lon="11.791864622260835"><ele>757.0</ele><time>2026-04-14T07:32:48Z</time></trkpt><trkpt lat="43.92531394656593" lon="11.791689295436825"><ele>761.2</ele><time>2026-04-14T07:32:49Z</time></trkpt><trkpt lat="43.92533458762088" lon="11.791519822085219"><ele>765.4000000000001</ele><time>2026-04-14T07:32:50Z</time></trkpt><trkpt lat="43.92536019002083" lon="11.79137918889585"><ele>769.5999999999999</ele><time>2026-04-14T07:32:51Z</time></trkpt><trkpt lat="43.92537370790129" lon="11.79123550454089"><ele>773.8</ele><time>2026-04-14T07:32:52Z</time></trkpt><trkpt lat="43.92539661091825" lon="11.791094818826018"><ele>778.0</ele><time>2026-04-14T07:32:53Z</time></trkpt><trkpt lat="43.92536674439798" lon="11.790954403807502"><ele>780.2</ele><time>2026-04-14T07:32:54Z</time></trkpt><trkpt lat="43.925297869789105" lon="11.790841333763726"><ele>782.4</ele><time>2026-04-14T07:32:55Z</time></trkpt><trkpt lat="43.925239015897006" lon="11.790726333131303"><ele>784.6</ele><time>2026-04-14T07:32:56Z</time></trkpt><trkpt lat="43.92519055721379" lon="11.790622670739108"><ele>786.8000000000001</ele><time>2026-04-14T07:32:57Z</time></trkpt><trkpt lat="43.925189283341346" lon="11.790518478534313"><ele>789.0</ele><time>2026-04-14T07:32:58Z</time></trkpt><trkpt lat="43.92524119099058" lon="11.790362529123156"><ele>789.0</ele><time>2026-04-14T07:33:00Z</time></trkpt><trkpt lat="43.92532029476765" lon="11.790303013174041"><ele>789.0</ele><time>2026-04-14T07:33:01Z</time></trkpt><trkpt lat="43.92541957950082" lon="11.79023967058029"><ele>789.0</ele><time>2026-04-14T07:33:02Z</time></trkpt><trkpt lat="43.92551138343578" lon="11.790177340313468"><ele>789.0</ele><time>2026-04-14T07:33:03Z</time></trkpt><trkpt lat="43.92558102453689" lon="11.790064517455617"><ele>789.0</ele><time>2026-04-14T07:33:04Z</time></trkpt><trkpt lat="43.925605684102415" lon="11.789913021289019"><ele>787.6</ele><time>2026-04-14T07:33:05Z</time></trkpt><trkpt lat="43.92563175830032" lon="11.789767989934465"><ele>786.2</ele><time>2026-04-14T07:33:06Z</time></trkpt><trkpt lat="43.92564506652237" lon="11.789632242011505"><ele>784.8000000000001</ele><time>2026-04-14T07:33:07Z</time></trkpt><trkpt lat="43.92567751798667" lon="11.78950099758754"><ele>783.4000000000001</ele><time>2026-04-14T07:33:08Z</time></trkpt><trkpt lat="43.925738214753" lon="11.789387072555668"><ele>782.0</ele><time>2026-04-14T07:33:09Z</time></trkpt><trkpt lat="43.925815482175636" lon="11.78928027639087"><ele>779.8</ele><time>2026-04-14T07:33:10Z</time></trkpt><trkpt lat="43.92589375543846" lon="11.789180489672825"><ele>777.6</ele><time>2026-04-14T07:33:11Z</time></trkpt><trkpt lat="43.92597963367697" lon="11.78909751946585"><ele>775.4</ele><time>2026-04-14T07:33:12Z</time></trkpt><trkpt lat="43.92607086424929" lon="11.78902812633883"><ele>773.1999999999999</ele><time>2026-04-14T07:33:13Z</time></trkpt><trkpt lat="43.92616634279088" lon="11.788972367846194"><ele>771.0</ele><time>2026-04-14T07:33:14Z</time></trkpt><trkpt lat="43.92627621614206" lon="11.788920026489224"><ele>777.75</ele><time>2026-04-14T07:33:15Z</time></trkpt><trkpt lat="43.92640567664209" lon="11.78886392691446"><ele>784.5</ele><time>2026-04-14T07:33:16Z</time></trkpt><trkpt lat="43.92654330772067" lon="11.788795669502091"><ele>791.25</ele><time>2026-04-14T07:33:17Z</time></trkpt><trkpt lat="43.92668523412421" lon="11.788718576065918"><ele>798.0</ele><time>2026-04-14T07:33:18Z</time></trkpt><trkpt lat="43.92682037388595" lon="11.788638227360094"><ele>798.5</ele><time>2026-04-14T07:33:19Z</time></trkpt><trkpt lat="43.926943201942656" lon="11.788544305608086"><ele>799.0</ele><time>2026-04-14T07:33:20Z</time></trkpt><trkpt lat="43.9270586275073" lon="11.788444809194885"><ele>799.5</ele><time>2026-04-14T07:33:21Z</time></trkpt><trkpt lat="43.92717177306749" lon="11.788343796439166"><ele>800.0</ele><time>2026-04-14T07:33:22Z</time></trkpt><trkpt lat="43.92728025467684" lon="11.788246237795434"><ele>800.0000000000001</ele><time>2026-04-14T07:33:23Z</time></trkpt><trkpt lat="43.927378530927434" lon="11.788152095721815"><ele>800.0</ele><time>2026-04-14T07:33:24Z</time></trkpt><trkpt lat="43.92745265809677" lon="11.788063609998895"><ele>800.0</ele><time>2026-04-14T07:33:25Z</time></trkpt><trkpt lat="43.92750960817929" lon="11.787983033406723"><ele>800.0</ele><time>2026-04-14T07:33:26Z</time></trkpt><trkpt lat="43.92755112555576" lon="11.78790013151282"><ele>800.0000000000001</ele><time>2026-04-14T07:33:27Z</time></trkpt><trkpt lat="43.92758642409005" lon="11.787819607334018"><ele>800.0</ele><time>2026-04-14T07:33:28Z</time></trkpt><trkpt lat="43.927587677419005" lon="11.787724300438985"><ele>799.6666666666667</ele><time>2026-04-14T07:33:29Z</time></trkpt><trkpt lat="43.927541451697905" lon="11.787647620343893"><ele>799.3333333333334</ele><time>2026-04-14T07:33:30Z</time></trkpt><trkpt lat="43.927512204618964" lon="11.787563552851088"><ele>799.0</ele><time>2026-04-14T07:33:31Z</time></trkpt><trkpt lat="43.927439982975315" lon="11.787507592497736"><ele>798.6666666666667</ele><time>2026-04-14T07:33:32Z</time></trkpt><trkpt lat="43.927348058958515" lon="11.787517423411302"><ele>798.3333333333334</ele><time>2026-04-14T07:33:33Z</time></trkpt><trkpt lat="43.927255795609184" lon="11.78751434079286"><ele>798.0</ele><time>2026-04-14T07:33:34Z</time></trkpt><trkpt lat="43.92716443403332" lon="11.787490626073609"><ele>798.0</ele><time>2026-04-14T07:33:35Z</time></trkpt><trkpt lat="43.927074640722594" lon="11.787401375821982"><ele>798.0</ele><time>2026-04-14T07:33:36Z</time></trkpt><trkpt lat="43.92696574390769" lon="11.78730948237616"><ele>798.0</ele><time>2026-04-14T07:33:37Z</time></trkpt><trkpt lat="43.92686257138016" lon="11.787216797267607"><ele>798.0</ele><time>2026-04-14T07:33:38Z</time></trkpt><trkpt lat="43.92677528185643" lon="11.787130905072392"><ele>799.5</ele><time>2026-04-14T07:33:39Z</time></trkpt><trkpt lat="43.92670221230249" lon="11.787023149055146"><ele>801.0</ele><time>2026-04-14T07:33:40Z</time></trkpt><trkpt lat="43.926633439549924" lon="11.786885279758836"><ele>802.5</ele><time>2026-04-14T07:33:41Z</time></trkpt><trkpt lat="43.926554515302556" lon="11.78673707105284"><ele>804.0</ele><time>2026-04-14T07:33:42Z</time></trkpt><trkpt lat="43.92649209804045" lon="11.78658601832826"><ele>804.0</ele><time>2026-04-14T07:33:43Z</time></trkpt><trkpt lat="43.92643925901655" lon="11.786454732111785"><ele>804.0</ele><time>2026-04-14T07:33:44Z</time></trkpt><trkpt lat="43.926379767148276" lon="11.786343969684564"><ele>804.0</ele><time>2026-04-14T07:33:45Z</time></trkpt><trkpt lat="43.926316894291645" lon="11.78624266353848"><ele>804.0</ele><time>2026-04-14T07:33:46Z</time></trkpt><trkpt lat="43.926237038950035" lon="11.786170246526613"><ele>804.0</ele><time>2026-04-14T07:33:47Z</time></trkpt><trkpt lat="43.92614467779666" lon="11.786128906314783"><ele>804.0</ele><time>2026-04-14T07:33:48Z</time></trkpt><trkpt lat="43.92604818985093" lon="11.786135298407974"><ele>804.0</ele><time>2026-04-14T07:33:49Z</time></trkpt><trkpt lat="43.92595629012451" lon="11.786175365736888"><ele>804.0</ele><time>2026-04-14T07:33:50Z</time></trkpt><trkpt lat="43.925857247823856" lon="11.786218000859053"><ele>804.0</ele><time>2026-04-14T07:33:51Z</time></trkpt><trkpt lat="43.92578920953163" lon="11.786218530675027"><ele>804.0</ele><time>2026-04-14T07:33:52Z</time></trkpt><trkpt lat="43.925708617102885" lon="11.786180371148582"><ele>802.8000000000001</ele><time>2026-04-14T07:33:53Z</time></trkpt><trkpt lat="43.925631712494486" lon="11.786115490766788"><ele>801.6</ele><time>2026-04-14T07:33:54Z</time></trkpt><trkpt lat="43.92555694994209" lon="11.78600439108125"><ele>800.4</ele><time>2026-04-14T07:33:55Z</time></trkpt><trkpt lat="43.92546679958125" lon="11.785911273249381"><ele>799.2</ele><time>2026-04-14T07:33:56Z</time></trkpt><trkpt lat="43.92540448423715" lon="11.785791445705268"><ele>798.0</ele><time>2026-04-14T07:33:57Z</time></trkpt><trkpt lat="43.925357147788155" lon="11.78568372661485"><ele>801.0</ele><time>2026-04-14T07:33:58Z</time></trkpt><trkpt lat="43.92532199018522" lon="11.785576937668816"><ele>804.0</ele><time>2026-04-14T07:33:59Z</time></trkpt><trkpt lat="43.92523465907444" lon="11.78552722545782"><ele>807.0</ele><time>2026-04-14T07:34:00Z</time></trkpt><trkpt lat="43.92513151997512" lon="11.785532890016691"><ele>810.0</ele><time>2026-04-14T07:34:01Z</time></trkpt><trkpt lat="43.925020181115855" lon="11.785532605950634"><ele>813.0</ele><time>2026-04-14T07:34:02Z</time></trkpt><trkpt lat="43.9249007830015" lon="11.785532114666946"><ele>813.0</ele><time>2026-04-14T07:34:03Z</time></trkpt><trkpt lat="43.924774201247665" lon="11.785510544352256"><ele>813.0</ele><time>2026-04-14T07:34:04Z</time></trkpt><trkpt lat="43.92465432336974" lon="11.78547312895855"><ele>813.0</ele><time>2026-04-14T07:34:05Z</time></trkpt><trkpt lat="43.924542594395454" lon="11.785502772358656"><ele>813.0</ele><time>2026-04-14T07:34:06Z</time></trkpt><trkpt lat="43.924428173529506" lon="11.78550277938528"><ele>813.0</ele><time>2026-04-14T07:34:07Z</time></trkpt><trkpt lat="43.924316983886804" lon="11.785572652448034"><ele>813.0</ele><time>2026-04-14T07:34:08Z</time></trkpt><trkpt lat="43.92419866218904" lon="11.785623662283074"><ele>813.0</ele><time>2026-04-14T07:34:09Z</time></trkpt><trkpt lat="43.92408629028003" lon="11.785651424294098"><ele>813.0</ele><time>2026-04-14T07:34:10Z</time></trkpt><trkpt lat="43.92399100216259" lon="11.785657488310175"><ele>815.2</ele><time>2026-04-14T07:34:11Z</time></trkpt><trkpt lat="43.92390443810765" lon="11.785679461184325"><ele>817.4</ele><time>2026-04-14T07:34:12Z</time></trkpt><trkpt lat="43.92383126603808" lon="11.785732849131156"><ele>819.6</ele><time>2026-04-14T07:34:13Z</time></trkpt><trkpt lat="43.92377020530042" lon="11.785825035674979"><ele>821.8000000000001</ele><time>2026-04-14T07:34:14Z</time></trkpt><trkpt lat="43.92371528221626" lon="11.785940861943095"><ele>824.0</ele><time>2026-04-14T07:34:15Z</time></trkpt><trkpt lat="43.92364743359634" lon="11.786064961960639"><ele>823.2</ele><time>2026-04-14T07:34:16Z</time></trkpt><trkpt lat="43.9235572855621" lon="11.786174288089338"><ele>822.4000000000001</ele><time>2026-04-14T07:34:17Z</time></trkpt><trkpt lat="43.92347791029796" lon="11.78627123456003"><ele>821.6</ele><time>2026-04-14T07:34:18Z</time></trkpt><trkpt lat="43.923408816275874" lon="11.786343622229317"><ele>820.8</ele><time>2026-04-14T07:34:19Z</time></trkpt><trkpt lat="43.92333021381589" lon="11.78639090772816"><ele>820.0</ele><time>2026-04-14T07:34:20Z</time></trkpt><trkpt lat="43.92323867452319" lon="11.786403428947802"><ele>819.9999999999999</ele><time>2026-04-14T07:34:21Z</time></trkpt><trkpt lat="43.92315014666015" lon="11.786386009121777"><ele>820.0</ele><time>2026-04-14T07:34:22Z</time></trkpt><trkpt lat="43.923056841634036" lon="11.786364830242688"><ele>820.0</ele><time>2026-04-14T07:34:23Z</time></trkpt><trkpt lat="43.922963209744296" lon="11.786336666328742"><ele>820.0</ele><time>2026-04-14T07:34:24Z</time></trkpt><trkpt lat="43.92289218079192" lon="11.786288060594808"><ele>819.9999999999999</ele><time>2026-04-14T07:34:25Z</time></trkpt><trkpt lat="43.922841664185896" lon="11.78622427171267"><ele>820.0</ele><time>2026-04-14T07:34:26Z</time></trkpt><trkpt lat="43.922809473662646" lon="11.78613142569004"><ele>819.9999999999999</ele><time>2026-04-14T07:34:27Z</time></trkpt><trkpt lat="43.92280501955066" lon="11.786036511852352"><ele>820.0</ele><time>2026-04-14T07:34:28Z</time></trkpt><trkpt lat="43.92282992988995" lon="11.78594579720493"><ele>820.0</ele><time>2026-04-14T07:34:29Z</time></trkpt><trkpt lat="43.922900187153644" lon="11.785886377333092"><ele>820.0</ele><time>2026-04-14T07:34:30Z</time></trkpt><trkpt lat="43.92297365813091" lon="11.785815872698484"><ele>819.9999999999999</ele><time>2026-04-14T07:34:31Z</time></trkpt><trkpt lat="43.923050705029716" lon="11.785731849846766"><ele>820.0</ele><time>2026-04-14T07:34:32Z</time></trkpt><trkpt lat="43.92309061823967" lon="11.785613120120086"><ele>823.8333333333333</ele><time>2026-04-14T07:34:33Z</time></trkpt><trkpt lat="43.92307540026453" lon="11.785484030304268"><ele>827.6666666666666</ele><time>2026-04-14T07:34:34Z</time></trkpt><trkpt lat="43.92306468945596" lon="11.785368470049189"><ele>831.5</ele><time>2026-04-14T07:34:35Z</time></trkpt><trkpt lat="43.92306985317858" lon="11.785258944035935"><ele>835.3333333333333</ele><time>2026-04-14T07:34:36Z</time></trkpt><trkpt lat="43.92312600819211" lon="11.785172382707504"><ele>839.1666666666666</ele><time>2026-04-14T07:34:37Z</time></trkpt><trkpt lat="43.92318971238153" lon="11.785081618441584"><ele>843.0</ele><time>2026-04-14T07:34:38Z</time></trkpt><trkpt lat="43.92326002783261" lon="11.784964876690136"><ele>843.0</ele><time>2026-04-14T07:34:39Z</time></trkpt><trkpt lat="43.923364525156096" lon="11.784870664329617"><ele>843.0</ele><time>2026-04-14T07:34:40Z</time></trkpt><trkpt lat="43.923482560407365" lon="11.784788762659685"><ele>843.0</ele><time>2026-04-14T07:34:41Z</time></trkpt><trkpt lat="43.92361311239028" lon="11.784747641134363"><ele>843.0</ele><time>2026-04-14T07:34:42Z</time></trkpt><trkpt lat="43.9237371341027" lon="11.78469699586268"><ele>845.5</ele><time>2026-04-14T07:34:43Z</time></trkpt><trkpt lat="43.923859379733095" lon="11.784630309570485"><ele>848.0</ele><time>2026-04-14T07:34:44Z</time></trkpt><trkpt lat="43.92398421557117" lon="11.78460080289618"><ele>850.5</ele><time>2026-04-14T07:34:45Z</time></trkpt><trkpt lat="43.924102593087994" lon="11.784599407777876"><ele>853.0</ele><time>2026-04-14T07:34:46Z</time></trkpt><trkpt lat="43.92421207993916" lon="11.784614635424658"><ele>852.1666666666666</ele><time>2026-04-14T07:34:47Z</time></trkpt><trkpt lat="43.924309747001566" lon="11.784644701704734"><ele>851.3333333333333</ele><time>2026-04-14T07:34:48Z</time></trkpt><trkpt lat="43.92439015832542" lon="11.784700640552938"><ele>850.5</ele><time>2026-04-14T07:34:49Z</time></trkpt><trkpt lat="43.924455317139184" lon="11.78478237090465"><ele>849.6666666666667</ele><time>2026-04-14T07:34:50Z</time></trkpt><trkpt lat="43.92451918227806" lon="11.784869196209039"><ele>848.8333333333334</ele><time>2026-04-14T07:34:51Z</time></trkpt><trkpt lat="43.92458842240655" lon="11.784913056864024"><ele>848.0</ele><time>2026-04-14T07:34:52Z</time></trkpt><trkpt lat="43.92466091678021" lon="11.78492068982098"><ele>848.0000000000001</ele><time>2026-04-14T07:34:53Z</time></trkpt><trkpt lat="43.924728704445414" lon="11.784896646933964"><ele>848.0</ele><time>2026-04-14T07:34:54Z</time></trkpt><trkpt lat="43.92479796678606" lon="11.784842030386999"><ele>848.0</ele><time>2026-04-14T07:34:55Z</time></trkpt><trkpt lat="43.92486974762019" lon="11.784764330426402"><ele>848.0</ele><time>2026-04-14T07:34:56Z</time></trkpt><trkpt lat="43.92494619381741" lon="11.784673376929739"><ele>848.0000000000001</ele><time>2026-04-14T07:34:57Z</time></trkpt><trkpt lat="43.92502882222233" lon="11.784580374297883"><ele>848.0</ele><time>2026-04-14T07:34:58Z</time></trkpt><trkpt lat="43.92511252450603" lon="11.784493087998504"><ele>851.0</ele><time>2026-04-14T07:34:59Z</time></trkpt><trkpt lat="43.92519384335582" lon="11.784398695772909"><ele>854.0</ele><time>2026-04-14T07:35:00Z</time></trkpt><trkpt lat="43.925272779643976" lon="11.784286042661295"><ele>857.0</ele><time>2026-04-14T07:35:01Z</time></trkpt><trkpt lat="43.92534639774489" lon="11.784160324240004"><ele>860.0</ele><time>2026-04-14T07:35:02Z</time></trkpt><trkpt lat="43.92542441099336" lon="11.784040483885935"><ele>864.4</ele><time>2026-04-14T07:35:03Z</time></trkpt><trkpt lat="43.92550943503313" lon="11.783927452021361"><ele>868.8</ele><time>2026-04-14T07:35:04Z</time></trkpt><trkpt lat="43.92558353869117" lon="11.783832604472094"><ele>873.2</ele><time>2026-04-14T07:35:05Z</time></trkpt><trkpt lat="43.92564824557635" lon="11.783743911678137"><ele>877.6</ele><time>2026-04-14T07:35:06Z</time></trkpt><trkpt lat="43.92569801680093" lon="11.783651625354487"><ele>882.0</ele><time>2026-04-14T07:35:07Z</time></trkpt><trkpt lat="43.92572601792705" lon="11.78355783786128"><ele>882.8333333333334</ele><time>2026-04-14T07:35:08Z</time></trkpt><trkpt lat="43.925734395491396" lon="11.78345218359204"><ele>883.6666666666667</ele><time>2026-04-14T07:35:09Z</time></trkpt><trkpt lat="43.9257176591915" lon="11.783343416585637"><ele>884.5</ele><time>2026-04-14T07:35:10Z</time></trkpt><trkpt lat="43.92568968987437" lon="11.783217250560885"><ele>885.3333333333334</ele><time>2026-04-14T07:35:11Z</time></trkpt><trkpt lat="43.92567273703546" lon="11.783089060519458"><ele>886.1666666666667</ele><time>2026-04-14T07:35:12Z</time></trkpt><trkpt lat="43.92562088494126" lon="11.78297818565374"><ele>887.0</ele><time>2026-04-14T07:35:13Z</time></trkpt><trkpt lat="43.92553372012493" lon="11.782900929777336"><ele>887.0</ele><time>2026-04-14T07:35:14Z</time></trkpt><trkpt lat="43.92543826779289" lon="11.782829601087577"><ele>887.0</ele><time>2026-04-14T07:35:15Z</time></trkpt><trkpt lat="43.92533000110909" lon="11.782749381221336"><ele>887.0</ele><time>2026-04-14T07:35:16Z</time></trkpt><trkpt lat="43.9252277687428" lon="11.782683684889069"><ele>887.0</ele><time>2026-04-14T07:35:17Z</time></trkpt><trkpt lat="43.92512637302104" lon="11.782646472548095"><ele>887.0</ele><time>2026-04-14T07:35:18Z</time></trkpt><trkpt lat="43.925017922435174" lon="11.782696149105318"><ele>887.1666666666667</ele><time>2026-04-14T07:35:19Z</time></trkpt><trkpt lat="43.92492596439498" lon="11.782716965416693"><ele>887.3333333333334</ele><time>2026-04-14T07:35:20Z</time></trkpt><trkpt lat="43.924849715689746" lon="11.78270226316398"><ele>887.5</ele><time>2026-04-14T07:35:21Z</time></trkpt><trkpt lat="43.924800504940194" lon="11.782647318265951"><ele>887.6666666666667</ele><time>2026-04-14T07:35:22Z</time></trkpt><trkpt lat="43.924773679678765" lon="11.782562598023867"><ele>887.8333333333334</ele><time>2026-04-14T07:35:23Z</time></trkpt><trkpt lat="43.92477333387546" lon="11.782445257035828"><ele>888.0</ele><time>2026-04-14T07:35:24Z</time></trkpt><trkpt lat="43.92479329345455" lon="11.782292254258962"><ele>888.0</ele><time>2026-04-14T07:35:25Z</time></trkpt><trkpt lat="43.924805851447644" lon="11.78210818158514"><ele>888.0</ele><time>2026-04-14T07:35:26Z</time></trkpt><trkpt lat="43.92479545630332" lon="11.781949697348038"><ele>888.0</ele><time>2026-04-14T07:35:27Z</time></trkpt><trkpt lat="43.924781942751814" lon="11.78180331482749"><ele>888.0</ele><time>2026-04-14T07:35:28Z</time></trkpt><trkpt lat="43.92472756783234" lon="11.781674093531983"><ele>893.5</ele><time>2026-04-14T07:35:29Z</time></trkpt><trkpt lat="43.92464461063644" lon="11.781557207075533"><ele>899.0</ele><time>2026-04-14T07:35:30Z</time></trkpt><trkpt lat="43.92452635858541" lon="11.781472068102973"><ele>904.5</ele><time>2026-04-14T07:35:31Z</time></trkpt><trkpt lat="43.92441393474133" lon="11.781366020983787"><ele>910.0</ele><time>2026-04-14T07:35:32Z</time></trkpt><trkpt lat="43.92431354258806" lon="11.781245659427555"><ele>909.4</ele><time>2026-04-14T07:35:33Z</time></trkpt><trkpt lat="43.92422856664951" lon="11.781127405911977"><ele>908.8</ele><time>2026-04-14T07:35:34Z</time></trkpt><trkpt lat="43.924146530524766" lon="11.78102669286464"><ele>908.2</ele><time>2026-04-14T07:35:35Z</time></trkpt><trkpt lat="43.92406574431726" lon="11.780927690372298"><ele>907.6</ele><time>2026-04-14T07:35:36Z</time></trkpt><trkpt lat="43.923960235988154" lon="11.780898055845132"><ele>907.0</ele><time>2026-04-14T07:35:37Z</time></trkpt><trkpt lat="43.92388232252855" lon="11.78084724323402"><ele>906.9999999999999</ele><time>2026-04-14T07:35:38Z</time></trkpt><trkpt lat="43.92382030382724" lon="11.78077975320923"><ele>907.0</ele><time>2026-04-14T07:35:39Z</time></trkpt><trkpt lat="43.92377627747623" lon="11.780687941692443"><ele>907.0</ele><time>2026-04-14T07:35:40Z</time></trkpt><trkpt lat="43.92376877267892" lon="11.780580055931752"><ele>907.0</ele><time>2026-04-14T07:35:41Z</time></trkpt><trkpt lat="43.92378787475452" lon="11.780466735762186"><ele>906.9999999999999</ele><time>2026-04-14T07:35:42Z</time></trkpt><trkpt lat="43.92383892174384" lon="11.780367717953027"><ele>907.0</ele><time>2026-04-14T07:35:43Z</time></trkpt><trkpt lat="43.92392104774464" lon="11.780301290416077"><ele>907.0</ele><time>2026-04-14T07:35:44Z</time></trkpt><trkpt lat="43.92399840820123" lon="11.780190429186796"><ele>907.0</ele><time>2026-04-14T07:35:45Z</time></trkpt><trkpt lat="43.924084838976775" lon="11.780086297416137"><ele>907.0</ele><time>2026-04-14T07:35:46Z</time></trkpt><trkpt lat="43.92414115545753" lon="11.779979055326097"><ele>907.0</ele><time>2026-04-14T07:35:47Z</time></trkpt><trkpt lat="43.92417177160679" lon="11.779870889268585"><ele>907.0</ele><time>2026-04-14T07:35:48Z</time></trkpt><trkpt lat="43.924174418338346" lon="11.779760215534338"><ele>908.8</ele><time>2026-04-14T07:35:49Z</time></trkpt><trkpt lat="43.92416307838327" lon="11.779639195094031"><ele>910.6</ele><time>2026-04-14T07:35:50Z</time></trkpt><trkpt lat="43.92411007589114" lon="11.779524497399828"><ele>912.3999999999999</ele><time>2026-04-14T07:35:51Z</time></trkpt><trkpt lat="43.9240063582434" lon="11.779440520684972"><ele>914.1999999999999</ele><time>2026-04-14T07:35:52Z</time></trkpt><trkpt lat="43.92392744898611" lon="11.779328438979539"><ele>916.0</ele><time>2026-04-14T07:35:53Z</time></trkpt><trkpt lat="43.92386953832468" lon="11.779199231635085"><ele>918.1999999999999</ele><time>2026-04-14T07:35:54Z</time></trkpt><trkpt lat="43.92383129483479" lon="11.779081965315548"><ele>920.3999999999999</ele><time>2026-04-14T07:35:55Z</time></trkpt><trkpt lat="43.923806708682456" lon="11.77896219174017"><ele>922.6</ele><time>2026-04-14T07:35:56Z</time></trkpt><trkpt lat="43.92380643024083" lon="11.77883466619663"><ele>924.8</ele><time>2026-04-14T07:35:57Z</time></trkpt><trkpt lat="43.923833514022384" lon="11.778711519223501"><ele>927.0</ele><time>2026-04-14T07:35:58Z</time></trkpt><trkpt lat="43.92388338515681" lon="11.778587148255076"><ele>929.75</ele><time>2026-04-14T07:35:59Z</time></trkpt><trkpt lat="43.92391314692945" lon="11.77844602849762"><ele>932.5</ele><time>2026-04-14T07:36:00Z</time></trkpt><trkpt lat="43.92392204300687" lon="11.778300710632195"><ele>935.25</ele><time>2026-04-14T07:36:01Z</time></trkpt><trkpt lat="43.92391597441676" lon="11.778138886872929"><ele>938.0</ele><time>2026-04-14T07:36:02Z</time></trkpt><trkpt lat="43.923908327924956" lon="11.77795568644353"><ele>938.0</ele><time>2026-04-14T07:36:03Z</time></trkpt><trkpt lat="43.92389309256088" lon="11.777764729142222"><ele>938.0</ele><time>2026-04-14T07:36:04Z</time></trkpt><trkpt lat="43.923867792656445" lon="11.777578626015378"><ele>938.0</ele><time>2026-04-14T07:36:05Z</time></trkpt><trkpt lat="43.92384059180446" lon="11.777410844832879"><ele>938.0</ele><time>2026-04-14T07:36:06Z</time></trkpt><trkpt lat="43.92383383940974" lon="11.777255264491435"><ele>941.25</ele><time>2026-04-14T07:36:07Z</time></trkpt><trkpt lat="43.92385128863003" lon="11.777090960355576"><ele>944.5</ele><time>2026-04-14T07:36:08Z</time></trkpt><trkpt lat="43.92386123120356" lon="11.776915291061163"><ele>947.75</ele><time>2026-04-14T07:36:09Z</time></trkpt><trkpt lat="43.92385297345586" lon="11.776750301579675"><ele>951.0</ele><time>2026-04-14T07:36:10Z</time></trkpt><trkpt lat="43.923848075807655" lon="11.776600323863642"><ele>954.0</ele><time>2026-04-14T07:36:11Z</time></trkpt><trkpt lat="43.92380408512369" lon="11.77645664965042"><ele>956.9999999999999</ele><time>2026-04-14T07:36:12Z</time></trkpt><trkpt lat="43.92374646356685" lon="11.77632551824909"><ele>959.9999999999999</ele><time>2026-04-14T07:36:13Z</time></trkpt><trkpt lat="43.923693441085675" lon="11.776192824477002"><ele>963.0</ele><time>2026-04-14T07:36:14Z</time></trkpt><trkpt lat="43.92365974848441" lon="11.77606154667692"><ele>966.0</ele><time>2026-04-14T07:36:15Z</time></trkpt><trkpt lat="43.923630818303394" lon="11.775915243301606"><ele>970.0</ele><time>2026-04-14T07:36:16Z</time></trkpt><trkpt lat="43.923563308975616" lon="11.77578108098081"><ele>974.0</ele><time>2026-04-14T07:36:17Z</time></trkpt><trkpt lat="43.92345360167135" lon="11.775680819631257"><ele>978.0</ele><time>2026-04-14T07:36:18Z</time></trkpt><trkpt lat="43.923349114380414" lon="11.775601202835789"><ele>982.0</ele><time>2026-04-14T07:36:19Z</time></trkpt><trkpt lat="43.92324996409496" lon="11.77553947983949"><ele>976.4999999999999</ele><time>2026-04-14T07:36:20Z</time></trkpt><trkpt lat="43.923152612401935" lon="11.775501947016812"><ele>971.0</ele><time>2026-04-14T07:36:21Z</time></trkpt><trkpt lat="43.92304916859535" lon="11.775513003440093"><ele>965.5</ele><time>2026-04-14T07:36:22Z</time></trkpt><trkpt lat="43.922977261182886" lon="11.77551466177712"><ele>960.0</ele><time>2026-04-14T07:36:23Z</time></trkpt><trkpt lat="43.92291292388179" lon="11.775501701046474"><ele>954.4999999999999</ele><time>2026-04-14T07:36:24Z</time></trkpt><trkpt lat="43.92284702333798" lon="11.775461804312156"><ele>949.0</ele><time>2026-04-14T07:36:25Z</time></trkpt><trkpt lat="43.92279890714816" lon="11.77537025061452"><ele>948.9999999999999</ele><time>2026-04-14T07:36:26Z</time></trkpt><trkpt lat="43.92277113708088" lon="11.775275252985628"><ele>949.0</ele><time>2026-04-14T07:36:27Z</time></trkpt><trkpt lat="43.92274948493241" lon="11.775164703307935"><ele>949.0</ele><time>2026-04-14T07:36:28Z</time></trkpt><trkpt lat="43.92272882903658" lon="11.77505052558998"><ele>949.0</ele><time>2026-04-14T07:36:29Z</time></trkpt><trkpt lat="43.922705617628964" lon="11.77494185672156"><ele>948.9999999999999</ele><time>2026-04-14T07:36:30Z</time></trkpt><trkpt lat="43.92267980756654" lon="11.77484482391969"><ele>949.0</ele><time>2026-04-14T07:36:31Z</time></trkpt><trkpt lat="43.92265545714197" lon="11.774761875646956"><ele>951.3333333333333</ele><time>2026-04-14T07:36:32Z</time></trkpt><trkpt lat="43.922629113231565" lon="11.774637658853056"><ele>953.6666666666666</ele><time>2026-04-14T07:36:34Z</time></trkpt><trkpt lat="43.92263534754546" lon="11.774524096699265"><ele>956.0</ele><time>2026-04-14T07:36:37Z</time></trkpt><trkpt lat="43.92268524050237" lon="11.774446379913657"><ele>958.3333333333333</ele><time>2026-04-14T07:36:42Z</time></trkpt><trkpt lat="43.92273411982321" lon="11.774389915413709"><ele>960.6666666666666</ele><time>2026-04-14T07:38:02Z</time></trkpt><trkpt lat="43.922639716488746" lon="11.774402897342526"><ele>963.0</ele><time>2026-04-14T07:40:43Z</time></trkpt><trkpt lat="43.92270948953895" lon="11.77438794459921"><ele>963.0</ele><time>2026-04-14T07:47:19Z</time></trkpt><trkpt lat="43.92278952925625" lon="11.774417008533877"><ele>963.0</ele><time>2026-04-14T07:47:21Z</time></trkpt><trkpt lat="43.922887503308424" lon="11.774473733268012"><ele>963.0</ele><time>2026-04-14T07:47:23Z</time></trkpt><trkpt lat="43.92299522922006" lon="11.77454404694074"><ele>963.0</ele><time>2026-04-14T07:47:25Z</time></trkpt><trkpt lat="43.92308974201462" lon="11.774617372036454"><ele>963.0</ele><time>2026-04-14T07:47:27Z</time></trkpt><trkpt lat="43.923184696678184" lon="11.774695574084792"><ele>963.0</ele><time>2026-04-14T07:47:29Z</time></trkpt><trkpt lat="43.92325054872565" lon="11.774712924468188"><ele>963.0</ele><time>2026-04-14T07:47:30Z</time></trkpt><trkpt lat="43.92337133609334" lon="11.774713542286966"><ele>963.0</ele><time>2026-04-14T07:47:32Z</time></trkpt><trkpt lat="43.92343599147462" lon="11.774704488744797"><ele>963.0</ele><time>2026-04-14T07:47:33Z</time></trkpt><trkpt lat="43.92356396256386" lon="11.77467749350489"><ele>963.0</ele><time>2026-04-14T07:47:35Z</time></trkpt><trkpt lat="43.92363215949733" lon="11.7746597093948"><ele>964.0</ele><time>2026-04-14T07:47:36Z</time></trkpt><trkpt lat="43.92370751007212" lon="11.774634943003553"><ele>965.0</ele><time>2026-04-14T07:47:37Z</time></trkpt><trkpt lat="43.92378277720705" lon="11.77460749985872"><ele>966.0</ele><time>2026-04-14T07:47:38Z</time></trkpt><trkpt lat="43.923864913967776" lon="11.774577082340482"><ele>967.0</ele><time>2026-04-14T07:47:39Z</time></trkpt><trkpt lat="43.92393824344851" lon="11.77455100066156"><ele>968.0</ele><time>2026-04-14T07:47:40Z</time></trkpt><trkpt lat="43.924010316028756" lon="11.774511427477574"><ele>969.0</ele><time>2026-04-14T07:47:41Z</time></trkpt><trkpt lat="43.924085750294154" lon="11.774491985333107"><ele>968.9999999999999</ele><time>2026-04-14T07:47:42Z</time></trkpt><trkpt lat="43.92415701107964" lon="11.77447481063977"><ele>969.0</ele><time>2026-04-14T07:47:43Z</time></trkpt><trkpt lat="43.924231168821" lon="11.774478263161482"><ele>968.9999999999999</ele><time>2026-04-14T07:47:44Z</time></trkpt><trkpt lat="43.92430242989513" lon="11.774444842952766"><ele>968.9999999999999</ele><time>2026-04-14T07:47:45Z</time></trkpt><trkpt lat="43.92437632093008" lon="11.774435828349846"><ele>969.0</ele><time>2026-04-14T07:47:46Z</time></trkpt><trkpt lat="43.92445216000703" lon="11.774452593029412"><ele>968.9999999999999</ele><time>2026-04-14T07:47:47Z</time></trkpt><trkpt lat="43.92452084154429" lon="11.774489661151378"><ele>968.9999999999999</ele><time>2026-04-14T07:47:48Z</time></trkpt><trkpt lat="43.924582474158996" lon="11.77455073983432"><ele>965.8333333333334</ele><time>2026-04-14T07:47:49Z</time></trkpt><trkpt lat="43.924636898531794" lon="11.774628442284092"><ele>962.6666666666667</ele><time>2026-04-14T07:47:50Z</time></trkpt><trkpt lat="43.924690015110194" lon="11.774715281625223"><ele>959.5</ele><time>2026-04-14T07:47:51Z</time></trkpt><trkpt lat="43.92476002875802" lon="11.774781791638027"><ele>956.3333333333334</ele><time>2026-04-14T07:47:51.999Z</time></trkpt><trkpt lat="43.9248256885723" lon="11.774848044317109"><ele>953.1666666666667</ele><time>2026-04-14T07:47:52.999Z</time></trkpt><trkpt lat="43.92490622560179" lon="11.774875103176615"><ele>950.0</ele><time>2026-04-14T07:47:53.999Z</time></trkpt><trkpt lat="43.924993068827604" lon="11.774869289611145"><ele>949.5000000000001</ele><time>2026-04-14T07:47:54.999Z</time></trkpt><trkpt lat="43.92507467411974" lon="11.774877131986326"><ele>949.0</ele><time>2026-04-14T07:47:55.999Z</time></trkpt><trkpt lat="43.925152913985194" lon="11.774893909080465"><ele>948.5</ele><time>2026-04-14T07:47:56.999Z</time></trkpt><trkpt lat="43.92524213121405" lon="11.774873094537863"><ele>948.0</ele><time>2026-04-14T07:47:57.999Z</time></trkpt><trkpt lat="43.925326788719154" lon="11.774843026049995"><ele>947.5000000000001</ele><time>2026-04-14T07:47:58.999Z</time></trkpt><trkpt lat="43.92541191896507" lon="11.774802481408793"><ele>947.0</ele><time>2026-04-14T07:47:59.999Z</time></trkpt><trkpt lat="43.92549307452046" lon="11.774760860300361"><ele>947.0</ele><time>2026-04-14T07:48:00.999Z</time></trkpt><trkpt lat="43.92558387772237" lon="11.774710483754847"><ele>947.0</ele><time>2026-04-14T07:48:01.999Z</time></trkpt><trkpt lat="43.925672555658785" lon="11.774650621880898"><ele>947.0</ele><time>2026-04-14T07:48:02.999Z</time></trkpt><trkpt lat="43.925761350226146" lon="11.774573062981062"><ele>947.0</ele><time>2026-04-14T07:48:03.999Z</time></trkpt><trkpt lat="43.925852061207856" lon="11.774489829643416"><ele>947.0</ele><time>2026-04-14T07:48:04.999Z</time></trkpt><trkpt lat="43.9259403188033" lon="11.774406944524648"><ele>944.2</ele><time>2026-04-14T07:48:05.999Z</time></trkpt><trkpt lat="43.926015604292004" lon="11.774314154569469"><ele>941.4000000000001</ele><time>2026-04-14T07:48:06.999Z</time></trkpt><trkpt lat="43.92609818841956" lon="11.774246080814706"><ele>938.5999999999999</ele><time>2026-04-14T07:48:07.999Z</time></trkpt><trkpt lat="43.9261797439576" lon="11.774177398235485"><ele>935.8</ele><time>2026-04-14T07:48:08.999Z</time></trkpt><trkpt lat="43.92626318036496" lon="11.774112727418146"><ele>933.0</ele><time>2026-04-14T07:48:09.999Z</time></trkpt><trkpt lat="43.926338649324116" lon="11.774057895427768"><ele>933.0</ele><time>2026-04-14T07:48:10.999Z</time></trkpt><trkpt lat="43.92641362323342" lon="11.774031023341072"><ele>933.0</ele><time>2026-04-14T07:48:11.999Z</time></trkpt><trkpt lat="43.92647277168753" lon="11.773970975568556"><ele>933.0</ele><time>2026-04-14T07:48:12.999Z</time></trkpt><trkpt lat="43.92653945817389" lon="11.773938933340743"><ele>933.0</ele><time>2026-04-14T07:48:13.999Z</time></trkpt><trkpt lat="43.92659994113599" lon="11.773856560836817"><ele>933.0</ele><time>2026-04-14T07:48:14.999Z</time></trkpt><trkpt lat="43.92663425889611" lon="11.773747316812088"><ele>933.0</ele><time>2026-04-14T07:48:16Z</time></trkpt><trkpt lat="43.92663864764267" lon="11.773629366247572"><ele>930.3333333333334</ele><time>2026-04-14T07:48:17Z</time></trkpt><trkpt lat="43.926612167769996" lon="11.77352105338323"><ele>927.6666666666667</ele><time>2026-04-14T07:48:18Z</time></trkpt><trkpt lat="43.92660206171642" lon="11.773422859444043"><ele>925.0</ele><time>2026-04-14T07:48:19Z</time></trkpt><trkpt lat="43.926560733932675" lon="11.773343037106025"><ele>922.3333333333334</ele><time>2026-04-14T07:48:20Z</time></trkpt><trkpt lat="43.926484066026944" lon="11.773290582223584"><ele>919.6666666666667</ele><time>2026-04-14T07:48:21Z</time></trkpt><trkpt lat="43.92639533189405" lon="11.773324219988039"><ele>917.0</ele><time>2026-04-14T07:48:22Z</time></trkpt><trkpt lat="43.92631378668241" lon="11.773350558885658"><ele>917.0</ele><time>2026-04-14T07:48:23Z</time></trkpt><trkpt lat="43.92621325333232" lon="11.773362377516117"><ele>917.0</ele><time>2026-04-14T07:48:24Z</time></trkpt><trkpt lat="43.92611706081741" lon="11.773390306354473"><ele>917.0</ele><time>2026-04-14T07:48:25Z</time></trkpt><trkpt lat="43.926025277852446" lon="11.773438797020106"><ele>917.0</ele><time>2026-04-14T07:48:26Z</time></trkpt><trkpt lat="43.925921853139144" lon="11.773458600342536"><ele>917.0</ele><time>2026-04-14T07:48:27Z</time></trkpt><trkpt lat="43.92582027980064" lon="11.77347883035329"><ele>918.8</ele><time>2026-04-14T07:48:28Z</time></trkpt><trkpt lat="43.925723383274835" lon="11.773512213111609"><ele>920.6</ele><time>2026-04-14T07:48:29Z</time></trkpt><trkpt lat="43.92562416338671" lon="11.773545991700082"><ele>922.3999999999999</ele><time>2026-04-14T07:48:30Z</time></trkpt><trkpt lat="43.92551889393559" lon="11.773572797507718"><ele>924.1999999999999</ele><time>2026-04-14T07:48:31Z</time></trkpt><trkpt lat="43.92542113769527" lon="11.773597983529433"><ele>926.0</ele><time>2026-04-14T07:48:32Z</time></trkpt><trkpt lat="43.925320485767436" lon="11.773630088467385"><ele>926.0000000000001</ele><time>2026-04-14T07:48:33Z</time></trkpt><trkpt lat="43.925211176885725" lon="11.773652106837387"><ele>926.0</ele><time>2026-04-14T07:48:34Z</time></trkpt><trkpt lat="43.92511890551205" lon="11.773684454251324"><ele>926.0</ele><time>2026-04-14T07:48:35Z</time></trkpt><trkpt lat="43.92504009503197" lon="11.773691204333414"><ele>926.0</ele><time>2026-04-14T07:48:36Z</time></trkpt><trkpt lat="43.92497009243128" lon="11.773698549000699"><ele>926.0000000000001</ele><time>2026-04-14T07:48:37Z</time></trkpt><trkpt lat="43.92489958092684" lon="11.773689584580747"><ele>926.0</ele><time>2026-04-14T07:48:38Z</time></trkpt><trkpt lat="43.92479588258065" lon="11.773601775522947"><ele>922.8333333333334</ele><time>2026-04-14T07:48:40Z</time></trkpt><trkpt lat="43.92477049865008" lon="11.77352124921075"><ele>919.6666666666667</ele><time>2026-04-14T07:48:41Z</time></trkpt><trkpt lat="43.924797195883265" lon="11.77334520951783"><ele>916.5</ele><time>2026-04-14T07:48:43Z</time></trkpt><trkpt lat="43.924849398513565" lon="11.773271050791752"><ele>913.3333333333333</ele><time>2026-04-14T07:48:44Z</time></trkpt><trkpt lat="43.92490780851389" lon="11.773191125530065"><ele>910.1666666666666</ele><time>2026-04-14T07:48:45Z</time></trkpt><trkpt lat="43.924981398338545" lon="11.773110883736562"><ele>907.0</ele><time>2026-04-14T07:48:46Z</time></trkpt><trkpt lat="43.92506578462085" lon="11.773040115362534"><ele>907.0</ele><time>2026-04-14T07:48:47Z</time></trkpt><trkpt lat="43.92514384620606" lon="11.77293837726089"><ele>907.0</ele><time>2026-04-14T07:48:48Z</time></trkpt><trkpt lat="43.925233254298284" lon="11.77286319816577"><ele>907.0</ele><time>2026-04-14T07:48:49Z</time></trkpt><trkpt lat="43.92532605627142" lon="11.77278628639117"><ele>907.0</ele><time>2026-04-14T07:48:50Z</time></trkpt><trkpt lat="43.92542066795187" lon="11.772711882482263"><ele>907.0</ele><time>2026-04-14T07:48:51Z</time></trkpt><trkpt lat="43.92550885861534" lon="11.772632200496027"><ele>905.6</ele><time>2026-04-14T07:48:52Z</time></trkpt><trkpt lat="43.925601798432915" lon="11.772554472335049"><ele>904.2</ele><time>2026-04-14T07:48:53Z</time></trkpt><trkpt lat="43.92569339281068" lon="11.77246738756058"><ele>902.8</ele><time>2026-04-14T07:48:54Z</time></trkpt><trkpt lat="43.925786887989254" lon="11.772378279401211"><ele>901.4</ele><time>2026-04-14T07:48:55Z</time></trkpt><trkpt lat="43.925880190625776" lon="11.772286313414044"><ele>900.0</ele><time>2026-04-14T07:48:56Z</time></trkpt><trkpt lat="43.9259802486575" lon="11.772208132061463"><ele>900.0</ele><time>2026-04-14T07:48:57Z</time></trkpt><trkpt lat="43.92606880851043" lon="11.77210528810435"><ele>900.0</ele><time>2026-04-14T07:48:58Z</time></trkpt><trkpt lat="43.92614547793032" lon="11.772005651634753"><ele>900.0</ele><time>2026-04-14T07:48:59Z</time></trkpt><trkpt lat="43.92620751514298" lon="11.771890945061338"><ele>900.0</ele><time>2026-04-14T07:49:00Z</time></trkpt><trkpt lat="43.92628335631616" lon="11.771811530579514"><ele>900.0</ele><time>2026-04-14T07:49:01Z</time></trkpt><trkpt lat="43.92634400846702" lon="11.771723480612328"><ele>898.0</ele><time>2026-04-14T07:49:02Z</time></trkpt><trkpt lat="43.92640583580631" lon="11.771637549820362"><ele>896.0</ele><time>2026-04-14T07:49:03Z</time></trkpt><trkpt lat="43.926466699059304" lon="11.771555926486224"><ele>894.0</ele><time>2026-04-14T07:49:04Z</time></trkpt><trkpt lat="43.92652555938299" lon="11.77147172618282"><ele>892.0</ele><time>2026-04-14T07:49:05Z</time></trkpt><trkpt lat="43.92658054469131" lon="11.771382944881353"><ele>890.0</ele><time>2026-04-14T07:49:06Z</time></trkpt><trkpt lat="43.92662155002503" lon="11.771286497975662"><ele>888.0</ele><time>2026-04-14T07:49:07Z</time></trkpt><trkpt lat="43.926666144599565" lon="11.771186002891556"><ele>888.0</ele><time>2026-04-14T07:49:08Z</time></trkpt><trkpt lat="43.92665738190725" lon="11.771058417299704"><ele>888.0</ele><time>2026-04-14T07:49:09Z</time></trkpt><trkpt lat="43.9266410082525" lon="11.770943088602253"><ele>888.0</ele><time>2026-04-14T07:49:10Z</time></trkpt><trkpt lat="43.92660962401853" lon="11.77083608829436"><ele>888.0</ele><time>2026-04-14T07:49:11Z</time></trkpt><trkpt lat="43.92655880154275" lon="11.770742114202148"><ele>888.0</ele><time>2026-04-14T07:49:12Z</time></trkpt><trkpt lat="43.92648996434064" lon="11.770666165795845"><ele>888.0</ele><time>2026-04-14T07:49:13Z</time></trkpt><trkpt lat="43.92641426244384" lon="11.770608149457148"><ele>885.0</ele><time>2026-04-14T07:49:14Z</time></trkpt><trkpt lat="43.92632842588285" lon="11.770565921453452"><ele>882.0</ele><time>2026-04-14T07:49:15Z</time></trkpt><trkpt lat="43.926240501560976" lon="11.770531767608068"><ele>879.0</ele><time>2026-04-14T07:49:16Z</time></trkpt><trkpt lat="43.92615048718278" lon="11.77049992367828"><ele>876.0</ele><time>2026-04-14T07:49:17Z</time></trkpt><trkpt lat="43.926059489195744" lon="11.770475424052252"><ele>873.0</ele><time>2026-04-14T07:49:18Z</time></trkpt><trkpt lat="43.92597421686837" lon="11.770468911973463"><ele>872.8333333333334</ele><time>2026-04-14T07:49:19Z</time></trkpt><trkpt lat="43.92589023070753" lon="11.770482676251202"><ele>872.6666666666667</ele><time>2026-04-14T07:49:20Z</time></trkpt><trkpt lat="43.92580422322398" lon="11.77049311801293"><ele>872.5</ele><time>2026-04-14T07:49:21Z</time></trkpt><trkpt lat="43.925729910262454" lon="11.770571904065333"><ele>872.3333333333334</ele><time>2026-04-14T07:49:22Z</time></trkpt><trkpt lat="43.92567392063659" lon="11.770671730425883"><ele>872.1666666666667</ele><time>2026-04-14T07:49:23Z</time></trkpt><trkpt lat="43.925624981368735" lon="11.7707638926987"><ele>872.0</ele><time>2026-04-14T07:49:24Z</time></trkpt><trkpt lat="43.925571959874944" lon="11.770858316506752"><ele>872.0000000000001</ele><time>2026-04-14T07:49:25Z</time></trkpt><trkpt lat="43.92551593168403" lon="11.77093330027251"><ele>872.0</ele><time>2026-04-14T07:49:26Z</time></trkpt><trkpt lat="43.925443099330735" lon="11.770992928802833"><ele>872.0</ele><time>2026-04-14T07:49:27Z</time></trkpt><trkpt lat="43.9253655009139" lon="11.771036311751352"><ele>872.0</ele><time>2026-04-14T07:49:28Z</time></trkpt><trkpt lat="43.92528154123405" lon="11.771064231588435"><ele>872.0000000000001</ele><time>2026-04-14T07:49:29Z</time></trkpt><trkpt lat="43.92519777966238" lon="11.771084053808956"><ele>872.0</ele><time>2026-04-14T07:49:30Z</time></trkpt><trkpt lat="43.92512283807106" lon="11.77112442346795"><ele>872.1666666666667</ele><time>2026-04-14T07:49:31Z</time></trkpt><trkpt lat="43.92504062586329" lon="11.771119206433461"><ele>872.3333333333334</ele><time>2026-04-14T07:49:32Z</time></trkpt><trkpt lat="43.92496059120124" lon="11.771141028267344"><ele>872.5</ele><time>2026-04-14T07:49:33Z</time></trkpt><trkpt lat="43.92486757231028" lon="11.771178000552764"><ele>872.6666666666667</ele><time>2026-04-14T07:49:34Z</time></trkpt><trkpt lat="43.924782547632844" lon="11.771228306221616"><ele>872.8333333333334</ele><time>2026-04-14T07:49:35Z</time></trkpt><trkpt lat="43.92470548186737" lon="11.771298124625615"><ele>873.0</ele><time>2026-04-14T07:49:36Z</time></trkpt><trkpt lat="43.92464366830873" lon="11.771355897209894"><ele>873.0</ele><time>2026-04-14T07:49:37Z</time></trkpt><trkpt lat="43.92455309175821" lon="11.77142631114179"><ele>873.0</ele><time>2026-04-14T07:49:39Z</time></trkpt><trkpt lat="43.924475384235805" lon="11.771381845917036"><ele>873.0</ele><time>2026-04-14T07:49:41Z</time></trkpt><trkpt lat="43.924482370915094" lon="11.771287100177098"><ele>873.0</ele><time>2026-04-14T07:49:42Z</time></trkpt><trkpt lat="43.92457322118858" lon="11.77116187368009"><ele>873.0</ele><time>2026-04-14T07:49:44Z</time></trkpt><trkpt lat="43.9246414043605" lon="11.771112004716606"><ele>873.0</ele><time>2026-04-14T07:49:45Z</time></trkpt><trkpt lat="43.92472436554904" lon="11.77105194168029"><ele>873.0</ele><time>2026-04-14T07:49:46Z</time></trkpt><trkpt lat="43.924808091492814" lon="11.770973370273817"><ele>873.0</ele><time>2026-04-14T07:49:47Z</time></trkpt><trkpt lat="43.924885644167034" lon="11.770913240962168"><ele>873.0</ele><time>2026-04-14T07:49:48Z</time></trkpt><trkpt lat="43.92496345439229" lon="11.770852832191167"><ele>873.0</ele><time>2026-04-14T07:49:49Z</time></trkpt><trkpt lat="43.92503981464509" lon="11.770797580500343"><ele>872.8333333333334</ele><time>2026-04-14T07:49:50Z</time></trkpt><trkpt lat="43.925115447055155" lon="11.770731898189247"><ele>872.6666666666667</ele><time>2026-04-14T07:49:51Z</time></trkpt><trkpt lat="43.92518899211881" lon="11.77066247193486"><ele>872.5</ele><time>2026-04-14T07:49:52Z</time></trkpt><trkpt lat="43.92525428280257" lon="11.770585640962976"><ele>872.3333333333334</ele><time>2026-04-14T07:49:53Z</time></trkpt><trkpt lat="43.92531025801419" lon="11.770493810853353"><ele>872.1666666666667</ele><time>2026-04-14T07:49:54Z</time></trkpt><trkpt lat="43.92534184449727" lon="11.770379676272908"><ele>872.0</ele><time>2026-04-14T07:49:55Z</time></trkpt><trkpt lat="43.9253753361541" lon="11.770261802932875"><ele>868.6</ele><time>2026-04-14T07:49:56Z</time></trkpt><trkpt lat="43.92540317030842" lon="11.770134933823334"><ele>865.2</ele><time>2026-04-14T07:49:57Z</time></trkpt><trkpt lat="43.925434303883286" lon="11.770005668219271"><ele>861.8</ele><time>2026-04-14T07:49:58Z</time></trkpt><trkpt lat="43.92546964122389" lon="11.769877307579328"><ele>858.4</ele><time>2026-04-14T07:49:59Z</time></trkpt><trkpt lat="43.92550226538226" lon="11.769740695754189"><ele>855.0</ele><time>2026-04-14T07:50:00Z</time></trkpt><trkpt lat="43.92553258367302" lon="11.769603748441787"><ele>855.0</ele><time>2026-04-14T07:50:01Z</time></trkpt><trkpt lat="43.92557732666164" lon="11.769481969267678"><ele>855.0</ele><time>2026-04-14T07:50:02Z</time></trkpt><trkpt lat="43.92564727873476" lon="11.769388909533536"><ele>855.0</ele><time>2026-04-14T07:50:03Z</time></trkpt><trkpt lat="43.92573407656776" lon="11.769324850750992"><ele>855.0</ele><time>2026-04-14T07:50:04Z</time></trkpt><trkpt lat="43.92582683148126" lon="11.769276920514697"><ele>855.0</ele><time>2026-04-14T07:50:05Z</time></trkpt><trkpt lat="43.925913096781336" lon="11.769238515161913"><ele>853.8</ele><time>2026-04-14T07:50:06Z</time></trkpt><trkpt lat="43.92599938022924" lon="11.769216603032834"><ele>852.6</ele><time>2026-04-14T07:50:07Z</time></trkpt><trkpt lat="43.92609059920238" lon="11.76922125238393"><ele>851.4000000000001</ele><time>2026-04-14T07:50:08Z</time></trkpt><trkpt lat="43.92618236188495" lon="11.769269412663371"><ele>850.2</ele><time>2026-04-14T07:50:09Z</time></trkpt><trkpt lat="43.92626299584891" lon="11.76934704856181"><ele>849.0</ele><time>2026-04-14T07:50:10Z</time></trkpt><trkpt lat="43.92634255596637" lon="11.769439991544024"><ele>849.0</ele><time>2026-04-14T07:50:11Z</time></trkpt><trkpt lat="43.926426696204075" lon="11.769526570225512"><ele>849.0</ele><time>2026-04-14T07:50:12Z</time></trkpt><trkpt lat="43.9265075391336" lon="11.769615695639137"><ele>849.0</ele><time>2026-04-14T07:50:13Z</time></trkpt><trkpt lat="43.92658705262906" lon="11.769689020480186"><ele>849.0</ele><time>2026-04-14T07:50:14Z</time></trkpt><trkpt lat="43.92666849067863" lon="11.76976570386879"><ele>849.0</ele><time>2026-04-14T07:50:15Z</time></trkpt><trkpt lat="43.92677991274401" lon="11.769768737704895"><ele>845.6</ele><time>2026-04-14T07:50:16Z</time></trkpt><trkpt lat="43.926885035309056" lon="11.769758821066718"><ele>842.2</ele><time>2026-04-14T07:50:17Z</time></trkpt><trkpt lat="43.926988872042976" lon="11.769722119118496"><ele>838.8000000000001</ele><time>2026-04-14T07:50:18Z</time></trkpt><trkpt lat="43.92708911568358" lon="11.769688512431536"><ele>835.4000000000001</ele><time>2026-04-14T07:50:19Z</time></trkpt><trkpt lat="43.92718484794471" lon="11.769675102250288"><ele>832.0</ele><time>2026-04-14T07:50:20Z</time></trkpt><trkpt lat="43.92727850884589" lon="11.769687735022739"><ele>832.0</ele><time>2026-04-14T07:50:21Z</time></trkpt><trkpt lat="43.92737217708051" lon="11.769730171579573"><ele>832.0</ele><time>2026-04-14T07:50:22Z</time></trkpt><trkpt lat="43.92747007129225" lon="11.769774455781523"><ele>832.0</ele><time>2026-04-14T07:50:23Z</time></trkpt><trkpt lat="43.92756786443575" lon="11.769828390888673"><ele>832.0</ele><time>2026-04-14T07:50:24Z</time></trkpt><trkpt lat="43.92767271540914" lon="11.769887967307266"><ele>832.0</ele><time>2026-04-14T07:50:25Z</time></trkpt><trkpt lat="43.92777021663118" lon="11.76993624515602"><ele>829.0</ele><time>2026-04-14T07:50:26Z</time></trkpt><trkpt lat="43.92786135033483" lon="11.769984860447625"><ele>826.0</ele><time>2026-04-14T07:50:27Z</time></trkpt><trkpt lat="43.9279536096793" lon="11.7700244444552"><ele>823.0</ele><time>2026-04-14T07:50:28Z</time></trkpt><trkpt lat="43.928046181788886" lon="11.770046435484748"><ele>820.0</ele><time>2026-04-14T07:50:29Z</time></trkpt><trkpt lat="43.9281379163619" lon="11.770081018400681"><ele>817.0</ele><time>2026-04-14T07:50:30Z</time></trkpt><trkpt lat="43.92824551127844" lon="11.770043924205675"><ele>817.0</ele><time>2026-04-14T07:50:31Z</time></trkpt><trkpt lat="43.92834873964738" lon="11.770014245496451"><ele>817.0</ele><time>2026-04-14T07:50:32Z</time></trkpt><trkpt lat="43.92844667078943" lon="11.769969662194141"><ele>817.0</ele><time>2026-04-14T07:50:33Z</time></trkpt><trkpt lat="43.928550418889564" lon="11.769946724000876"><ele>817.0</ele><time>2026-04-14T07:50:34Z</time></trkpt><trkpt lat="43.92865223208644" lon="11.769899886806607"><ele>817.0</ele><time>2026-04-14T07:50:35Z</time></trkpt><trkpt lat="43.92875363201121" lon="11.769851991822284"><ele>815.0</ele><time>2026-04-14T07:50:36Z</time></trkpt><trkpt lat="43.928854094125754" lon="11.769789732691649"><ele>813.0</ele><time>2026-04-14T07:50:37Z</time></trkpt><trkpt lat="43.92896288205781" lon="11.769743782324285"><ele>811.0</ele><time>2026-04-14T07:50:38Z</time></trkpt><trkpt lat="43.92906912127249" lon="11.769687400901391"><ele>809.0</ele><time>2026-04-14T07:50:39Z</time></trkpt><trkpt lat="43.92917579786428" lon="11.76963301157414"><ele>804.8000000000001</ele><time>2026-04-14T07:50:40Z</time></trkpt><trkpt lat="43.92927651639468" lon="11.769584094215134"><ele>800.6</ele><time>2026-04-14T07:50:41Z</time></trkpt><trkpt lat="43.92937064191226" lon="11.769544897732946"><ele>796.4</ele><time>2026-04-14T07:50:42Z</time></trkpt><trkpt lat="43.92946025586552" lon="11.769529453337233"><ele>792.2</ele><time>2026-04-14T07:50:43Z</time></trkpt><trkpt lat="43.92954263724548" lon="11.769527923190848"><ele>788.0</ele><time>2026-04-14T07:50:44Z</time></trkpt><trkpt lat="43.929616819295454" lon="11.769543569527736"><ele>788.0</ele><time>2026-04-14T07:50:45Z</time></trkpt><trkpt lat="43.92968554855651" lon="11.769564155341914"><ele>788.0</ele><time>2026-04-14T07:50:46Z</time></trkpt><trkpt lat="43.92979619825251" lon="11.769740018778155"><ele>788.0</ele><time>2026-04-14T07:50:48Z</time></trkpt><trkpt lat="43.92984452307997" lon="11.76982729410093"><ele>788.0</ele><time>2026-04-14T07:50:49Z</time></trkpt><trkpt lat="43.92989744384669" lon="11.769910419968221"><ele>788.0</ele><time>2026-04-14T07:50:50Z</time></trkpt><trkpt lat="43.929948099971014" lon="11.769993332106273"><ele>788.0000000000001</ele><time>2026-04-14T07:50:51Z</time></trkpt><trkpt lat="43.930002840125276" lon="11.77007879494625"><ele>788.0</ele><time>2026-04-14T07:50:52Z</time></trkpt><trkpt lat="43.93005639152202" lon="11.770165776134586"><ele>788.0</ele><time>2026-04-14T07:50:53Z</time></trkpt><trkpt lat="43.93010320231759" lon="11.770264050549262"><ele>788.0</ele><time>2026-04-14T07:50:54Z</time></trkpt><trkpt lat="43.930143316658636" lon="11.77037367826564"><ele>788.0000000000001</ele><time>2026-04-14T07:50:55Z</time></trkpt><trkpt lat="43.93017330710398" lon="11.770497587284419"><ele>788.0</ele><time>2026-04-14T07:50:56Z</time></trkpt><trkpt lat="43.93019549944967" lon="11.77063460316308"><ele>785.4</ele><time>2026-04-14T07:50:57Z</time></trkpt><trkpt lat="43.93020729170658" lon="11.770772989322307"><ele>782.8</ele><time>2026-04-14T07:50:58Z</time></trkpt><trkpt lat="43.93021279887888" lon="11.770906287051947"><ele>780.2</ele><time>2026-04-14T07:50:59Z</time></trkpt><trkpt lat="43.93022146761045" lon="11.771035343964908"><ele>777.6</ele><time>2026-04-14T07:51:00Z</time></trkpt><trkpt lat="43.93023135455782" lon="11.77115866961357"><ele>775.0</ele><time>2026-04-14T07:51:01Z</time></trkpt><trkpt lat="43.930245372381854" lon="11.771259332040731"><ele>774.9999999999999</ele><time>2026-04-14T07:51:02Z</time></trkpt><trkpt lat="43.930292710272035" lon="11.771414770155015"><ele>775.0</ele><time>2026-04-14T07:51:04Z</time></trkpt><trkpt lat="43.93033635654659" lon="11.771497722111308"><ele>775.0</ele><time>2026-04-14T07:51:05Z</time></trkpt><trkpt lat="43.93039068818845" lon="11.771565230502704"><ele>775.0</ele><time>2026-04-14T07:51:06Z</time></trkpt><trkpt lat="43.93044566655034" lon="11.771624970692198"><ele>774.9999999999999</ele><time>2026-04-14T07:51:07Z</time></trkpt><trkpt lat="43.93051199411684" lon="11.771672123035598"><ele>775.0</ele><time>2026-04-14T07:51:08Z</time></trkpt><trkpt lat="43.93059455542112" lon="11.771709503581473"><ele>775.0</ele><time>2026-04-14T07:51:09Z</time></trkpt><trkpt lat="43.930685926270314" lon="11.771744954692421"><ele>775.0</ele><time>2026-04-14T07:51:10Z</time></trkpt><trkpt lat="43.93078002978295" lon="11.771772040823109"><ele>775.0</ele><time>2026-04-14T07:51:11Z</time></trkpt><trkpt lat="43.93088592056601" lon="11.77180124201894"><ele>775.0</ele><time>2026-04-14T07:51:12Z</time></trkpt><trkpt lat="43.93099196196164" lon="11.77183314488254"><ele>775.0</ele><time>2026-04-14T07:51:13Z</time></trkpt><trkpt lat="43.931099757952154" lon="11.771868330775172"><ele>774.6</ele><time>2026-04-14T07:51:14Z</time></trkpt><trkpt lat="43.931201788806135" lon="11.771904757450187"><ele>774.2</ele><time>2026-04-14T07:51:15Z</time></trkpt><trkpt lat="43.93129725248572" lon="11.771943650721331"><ele>773.8</ele><time>2026-04-14T07:51:16Z</time></trkpt><trkpt lat="43.93138574744876" lon="11.771972922205531"><ele>773.4</ele><time>2026-04-14T07:51:17Z</time></trkpt><trkpt lat="43.93147029769138" lon="11.772004355100409"><ele>773.0</ele><time>2026-04-14T07:51:18Z</time></trkpt><trkpt lat="43.93154711068797" lon="11.772044507524955"><ele>773.0000000000001</ele><time>2026-04-14T07:51:19Z</time></trkpt><trkpt lat="43.931619667691734" lon="11.772117533381229"><ele>773.0</ele><time>2026-04-14T07:51:20Z</time></trkpt><trkpt lat="43.93166900052869" lon="11.772214869427652"><ele>773.0</ele><time>2026-04-14T07:51:21Z</time></trkpt><trkpt lat="43.93171248836568" lon="11.772312513564541"><ele>773.0</ele><time>2026-04-14T07:51:22Z</time></trkpt><trkpt lat="43.93175433277718" lon="11.772406028654046"><ele>773.0000000000001</ele><time>2026-04-14T07:51:23Z</time></trkpt><trkpt lat="43.931796035222916" lon="11.772500426780626"><ele>773.0</ele><time>2026-04-14T07:51:24Z</time></trkpt><trkpt lat="43.931846670634826" lon="11.772590834102788"><ele>771.0000000000001</ele><time>2026-04-14T07:51:25Z</time></trkpt><trkpt lat="43.93189488885654" lon="11.772679841576906"><ele>769.0</ele><time>2026-04-14T07:51:26Z</time></trkpt><trkpt lat="43.93193575362527" lon="11.772781391231886"><ele>767.0</ele><time>2026-04-14T07:51:27Z</time></trkpt><trkpt lat="43.93198055133131" lon="11.772872496034338"><ele>765.0</ele><time>2026-04-14T07:51:28Z</time></trkpt><trkpt lat="43.932027051293005" lon="11.77296415010597"><ele>763.0</ele><time>2026-04-14T07:51:29Z</time></trkpt><trkpt lat="43.93207797401515" lon="11.773055761097163"><ele>761.0</ele><time>2026-04-14T07:51:30Z</time></trkpt><trkpt lat="43.93214455616979" lon="11.77314108291618"><ele>761.0</ele><time>2026-04-14T07:51:31Z</time></trkpt><trkpt lat="43.93221259684515" lon="11.77321846605929"><ele>761.0</ele><time>2026-04-14T07:51:32Z</time></trkpt><trkpt lat="43.93228193739374" lon="11.773288497858879"><ele>761.0</ele><time>2026-04-14T07:51:33Z</time></trkpt><trkpt lat="43.93235395312568" lon="11.77335576838542"><ele>761.0</ele><time>2026-04-14T07:51:34Z</time></trkpt><trkpt lat="43.93242398887505" lon="11.77341987008113"><ele>761.0</ele><time>2026-04-14T07:51:35Z</time></trkpt><trkpt lat="43.93249693194126" lon="11.773473230110197"><ele>761.0</ele><time>2026-04-14T07:51:36Z</time></trkpt><trkpt lat="43.93257209519277" lon="11.773496206684829"><ele>759.3333333333333</ele><time>2026-04-14T07:51:37Z</time></trkpt><trkpt lat="43.932649583810466" lon="11.773492658177236"><ele>757.6666666666666</ele><time>2026-04-14T07:51:38Z</time></trkpt><trkpt lat="43.93272537595979" lon="11.77347911108385"><ele>756.0</ele><time>2026-04-14T07:51:39Z</time></trkpt><trkpt lat="43.93280227675874" lon="11.773456522011355"><ele>754.3333333333334</ele><time>2026-04-14T07:51:40Z</time></trkpt><trkpt lat="43.93288083077541" lon="11.773425545669268"><ele>752.6666666666667</ele><time>2026-04-14T07:51:41Z</time></trkpt><trkpt lat="43.93295372840805" lon="11.773389266806383"><ele>751.0</ele><time>2026-04-14T07:51:42Z</time></trkpt><trkpt lat="43.93302424997984" lon="11.77334942504289"><ele>751.0000000000001</ele><time>2026-04-14T07:51:43Z</time></trkpt><trkpt lat="43.933081467091974" lon="11.773283688040586"><ele>751.0</ele><time>2026-04-14T07:51:44Z</time></trkpt><trkpt lat="43.93312109519045" lon="11.773204174911733"><ele>751.0</ele><time>2026-04-14T07:51:45Z</time></trkpt><trkpt lat="43.93313792347118" lon="11.773107369477996"><ele>751.0</ele><time>2026-04-14T07:51:46Z</time></trkpt><trkpt lat="43.93313553456961" lon="11.773008951396735"><ele>751.0</ele><time>2026-04-14T07:51:47Z</time></trkpt><trkpt lat="43.93310669321696" lon="11.772916264471286"><ele>751.0000000000001</ele><time>2026-04-14T07:51:48Z</time></trkpt><trkpt lat="43.933059897997474" lon="11.772822265753023"><ele>751.0</ele><time>2026-04-14T07:51:49Z</time></trkpt><trkpt lat="43.932995163400626" lon="11.772724014807851"><ele>751.1999999999999</ele><time>2026-04-14T07:51:50Z</time></trkpt><trkpt lat="43.932929097103894" lon="11.772620850633837"><ele>751.4</ele><time>2026-04-14T07:51:51Z</time></trkpt><trkpt lat="43.93287576574565" lon="11.772506046853367"><ele>751.6</ele><time>2026-04-14T07:51:52Z</time></trkpt><trkpt lat="43.932831296481915" lon="11.772376998463212"><ele>751.8</ele><time>2026-04-14T07:51:53Z</time></trkpt><trkpt lat="43.93279971101561" lon="11.772232306643907"><ele>752.0</ele><time>2026-04-14T07:51:54Z</time></trkpt><trkpt lat="43.932785982048564" lon="11.77208018620598"><ele>752.0</ele><time>2026-04-14T07:51:55Z</time></trkpt><trkpt lat="43.93277264067784" lon="11.77193093306564"><ele>752.0</ele><time>2026-04-14T07:51:56Z</time></trkpt><trkpt lat="43.93276225528137" lon="11.771776635899034"><ele>752.0</ele><time>2026-04-14T07:51:57.001Z</time></trkpt><trkpt lat="43.932744427738825" lon="11.771624792357946"><ele>752.0</ele><time>2026-04-14T07:51:58.001Z</time></trkpt><trkpt lat="43.93273024673978" lon="11.771466266810862"><ele>752.0</ele><time>2026-04-14T07:51:59.001Z</time></trkpt><trkpt lat="43.93271642638644" lon="11.771317186201154"><ele>751.5</ele><time>2026-04-14T07:52:00.001Z</time></trkpt><trkpt lat="43.93270725404557" lon="11.771189283493962"><ele>751.0</ele><time>2026-04-14T07:52:01.001Z</time></trkpt><trkpt lat="43.932689927542285" lon="11.771077224704491"><ele>750.5</ele><time>2026-04-14T07:52:02.001Z</time></trkpt><trkpt lat="43.932667556143464" lon="11.770972522835157"><ele>750.0</ele><time>2026-04-14T07:52:03.001Z</time></trkpt><trkpt lat="43.93262884231837" lon="11.770875439416535"><ele>749.5</ele><time>2026-04-14T07:52:04.001Z</time></trkpt><trkpt lat="43.93257691974721" lon="11.770783847301994"><ele>749.0</ele><time>2026-04-14T07:52:05.001Z</time></trkpt><trkpt lat="43.93251173529865" lon="11.770731852710236"><ele>749.0</ele><time>2026-04-14T07:52:06.001Z</time></trkpt><trkpt lat="43.93243853749095" lon="11.770705315949051"><ele>749.0</ele><time>2026-04-14T07:52:07.001Z</time></trkpt><trkpt lat="43.932374965709265" lon="11.770690520318757"><ele>749.0</ele><time>2026-04-14T07:52:08.001Z</time></trkpt><trkpt lat="43.93231178043407" lon="11.77065506542363"><ele>749.0</ele><time>2026-04-14T07:52:09.001Z</time></trkpt><trkpt lat="43.93225793832003" lon="11.770591678952917"><ele>749.0</ele><time>2026-04-14T07:52:10.001Z</time></trkpt><trkpt lat="43.93222728387763" lon="11.770500679728087"><ele>749.0</ele><time>2026-04-14T07:52:11.001Z</time></trkpt><trkpt lat="43.93221140806886" lon="11.770388362993376"><ele>749.0</ele><time>2026-04-14T07:52:12.001Z</time></trkpt><trkpt lat="43.93220013106121" lon="11.770259662115857"><ele>750.8333333333333</ele><time>2026-04-14T07:52:13.001Z</time></trkpt><trkpt lat="43.9321918322917" lon="11.770121924419396"><ele>752.6666666666666</ele><time>2026-04-14T07:52:14.001Z</time></trkpt><trkpt lat="43.932183566130824" lon="11.7700017175809"><ele>754.5</ele><time>2026-04-14T07:52:15.001Z</time></trkpt><trkpt lat="43.93217689624008" lon="11.769884721870648"><ele>756.3333333333334</ele><time>2026-04-14T07:52:16.001Z</time></trkpt><trkpt lat="43.93216126519198" lon="11.769777858608926"><ele>758.1666666666667</ele><time>2026-04-14T07:52:17.001Z</time></trkpt><trkpt lat="43.9321242587176" lon="11.76966362714102"><ele>760.0</ele><time>2026-04-14T07:52:18.001Z</time></trkpt><trkpt lat="43.932065873285566" lon="11.769558945530868"><ele>760.0</ele><time>2026-04-14T07:52:19.001Z</time></trkpt><trkpt lat="43.931993594688784" lon="11.769468811407242"><ele>760.0</ele><time>2026-04-14T07:52:20.001Z</time></trkpt><trkpt lat="43.931898521446136" lon="11.76940482691093"><ele>760.0</ele><time>2026-04-14T07:52:21.001Z</time></trkpt><trkpt lat="43.93179456433659" lon="11.769355825443272"><ele>760.0</ele><time>2026-04-14T07:52:22.001Z</time></trkpt><trkpt lat="43.931687612063016" lon="11.769306549035843"><ele>760.0</ele><time>2026-04-14T07:52:23.001Z</time></trkpt><trkpt lat="43.93158484078476" lon="11.769259836520977"><ele>758.8</ele><time>2026-04-14T07:52:24.001Z</time></trkpt><trkpt lat="43.93149043126535" lon="11.76919369085555"><ele>757.6</ele><time>2026-04-14T07:52:25.001Z</time></trkpt><trkpt lat="43.93140027149255" lon="11.769119703906146"><ele>756.4000000000001</ele><time>2026-04-14T07:52:26.001Z</time></trkpt><trkpt lat="43.93131904456856" lon="11.769041696217966"><ele>755.2</ele><time>2026-04-14T07:52:27.001Z</time></trkpt><trkpt lat="43.93124777264474" lon="11.768949092702533"><ele>754.0</ele><time>2026-04-14T07:52:28.001Z</time></trkpt><trkpt lat="43.93118718852874" lon="11.76884829406297"><ele>754.0</ele><time>2026-04-14T07:52:29.001Z</time></trkpt><trkpt lat="43.93114537261422" lon="11.768727999209268"><ele>754.0</ele><time>2026-04-14T07:52:30.001Z</time></trkpt><trkpt lat="43.93111910245019" lon="11.768595125242618"><ele>754.0</ele><time>2026-04-14T07:52:31.001Z</time></trkpt><trkpt lat="43.931102128766966" lon="11.768448915023306"><ele>754.0</ele><time>2026-04-14T07:52:32.001Z</time></trkpt><trkpt lat="43.93108177018253" lon="11.768290794856911"><ele>754.0</ele><time>2026-04-14T07:52:33.001Z</time></trkpt><trkpt lat="43.93104630059934" lon="11.768129513634507"><ele>752.5</ele><time>2026-04-14T07:52:34.001Z</time></trkpt><trkpt lat="43.93099993151699" lon="11.767969945791066"><ele>751.0</ele><time>2026-04-14T07:52:35.001Z</time></trkpt><trkpt lat="43.930947162848305" lon="11.767823429820387"><ele>749.5</ele><time>2026-04-14T07:52:36.001Z</time></trkpt><trkpt lat="43.93089778098295" lon="11.76767725833546"><ele>748.0</ele><time>2026-04-14T07:52:37.001Z</time></trkpt><trkpt lat="43.93084956000862" lon="11.767535690724255"><ele>748.0</ele><time>2026-04-14T07:52:38.001Z</time></trkpt><trkpt lat="43.930809888865625" lon="11.767400365671627"><ele>748.0</ele><time>2026-04-14T07:52:39.001Z</time></trkpt><trkpt lat="43.9307630830444" lon="11.767252161762263"><ele>748.0</ele><time>2026-04-14T07:52:40.001Z</time></trkpt><trkpt lat="43.930703287427995" lon="11.767119268420384"><ele>748.0</ele><time>2026-04-14T07:52:41.001Z</time></trkpt><trkpt lat="43.9306362074162" lon="11.767007671924341"><ele>748.0</ele><time>2026-04-14T07:52:42Z</time></trkpt><trkpt lat="43.930564555114955" lon="11.766912377485678"><ele>750.1666666666667</ele><time>2026-04-14T07:52:43Z</time></trkpt><trkpt lat="43.93048275051063" lon="11.766831608583098"><ele>752.3333333333334</ele><time>2026-04-14T07:52:44Z</time></trkpt><trkpt lat="43.93040495027802" lon="11.766763544061911"><ele>754.5</ele><time>2026-04-14T07:52:45Z</time></trkpt><trkpt lat="43.93033143533301" lon="11.766698015877052"><ele>756.6666666666666</ele><time>2026-04-14T07:52:46Z</time></trkpt><trkpt lat="43.93027899850521" lon="11.766611384347797"><ele>758.8333333333333</ele><time>2026-04-14T07:52:47Z</time></trkpt><trkpt lat="43.930248514565726" lon="11.766507653518454"><ele>761.0</ele><time>2026-04-14T07:52:48Z</time></trkpt><trkpt lat="43.93024840658795" lon="11.766402166164681"><ele>761.0</ele><time>2026-04-14T07:52:49Z</time></trkpt><trkpt lat="43.930267182999266" lon="11.766285430391498"><ele>761.0</ele><time>2026-04-14T07:52:50Z</time></trkpt><trkpt lat="43.930294865251724" lon="11.766164558016435"><ele>761.0</ele><time>2026-04-14T07:52:51Z</time></trkpt><trkpt lat="43.930336956725704" lon="11.766027143493668"><ele>761.0</ele><time>2026-04-14T07:52:52Z</time></trkpt><trkpt lat="43.93038332606511" lon="11.7658862594653"><ele>761.0</ele><time>2026-04-14T07:52:53Z</time></trkpt><trkpt lat="43.93042654531722" lon="11.76575271392725"><ele>760.8</ele><time>2026-04-14T07:52:54Z</time></trkpt><trkpt lat="43.93046574398731" lon="11.765621256524872"><ele>760.5999999999999</ele><time>2026-04-14T07:52:55Z</time></trkpt><trkpt lat="43.93050854801855" lon="11.765487149326457"><ele>760.4</ele><time>2026-04-14T07:52:56Z</time></trkpt><trkpt lat="43.93055455258737" lon="11.765347479463248"><ele>760.2</ele><time>2026-04-14T07:52:57Z</time></trkpt><trkpt lat="43.93059355452478" lon="11.765210482343914"><ele>760.0</ele><time>2026-04-14T07:52:58Z</time></trkpt><trkpt lat="43.930629374607314" lon="11.765076162964585"><ele>758.6</ele><time>2026-04-14T07:52:59Z</time></trkpt><trkpt lat="43.93065445392755" lon="11.764942797508766"><ele>757.2</ele><time>2026-04-14T07:53:00Z</time></trkpt><trkpt lat="43.930661897891476" lon="11.764807510855285"><ele>755.8</ele><time>2026-04-14T07:53:01Z</time></trkpt><trkpt lat="43.93065740820709" lon="11.764660945152968"><ele>754.4</ele><time>2026-04-14T07:53:02Z</time></trkpt><trkpt lat="43.93065215422479" lon="11.764510375499906"><ele>753.0</ele><time>2026-04-14T07:53:03Z</time></trkpt><trkpt lat="43.93064254516418" lon="11.764373356961972"><ele>752.2</ele><time>2026-04-14T07:53:04Z</time></trkpt><trkpt lat="43.93062505695517" lon="11.764236275260622"><ele>751.4</ele><time>2026-04-14T07:53:05Z</time></trkpt><trkpt lat="43.93061936816681" lon="11.764106512223831"><ele>750.6</ele><time>2026-04-14T07:53:06Z</time></trkpt><trkpt lat="43.93063252451479" lon="11.763974700400139"><ele>749.8000000000001</ele><time>2026-04-14T07:53:07.001Z</time></trkpt><trkpt lat="43.930665736048375" lon="11.763838129937342"><ele>749.0</ele><time>2026-04-14T07:53:08.001Z</time></trkpt><trkpt lat="43.93071131982134" lon="11.763703331900983"><ele>749.0</ele><time>2026-04-14T07:53:09.001Z</time></trkpt><trkpt lat="43.930745484795644" lon="11.763567739009977"><ele>749.0</ele><time>2026-04-14T07:53:10.001Z</time></trkpt><trkpt lat="43.93077703960044" lon="11.76343028053394"><ele>749.0</ele><time>2026-04-14T07:53:11.001Z</time></trkpt><trkpt lat="43.93079691759819" lon="11.763290828978587"><ele>749.0</ele><time>2026-04-14T07:53:12.001Z</time></trkpt><trkpt lat="43.93080299166026" lon="11.763145904829004"><ele>749.0</ele><time>2026-04-14T07:53:13.001Z</time></trkpt><trkpt lat="43.93080962527297" lon="11.76299984619235"><ele>747.6</ele><time>2026-04-14T07:53:14.001Z</time></trkpt><trkpt lat="43.93082197634453" lon="11.762859282852462"><ele>746.2</ele><time>2026-04-14T07:53:15.001Z</time></trkpt><trkpt lat="43.93084407778813" lon="11.762714878892941"><ele>744.8000000000001</ele><time>2026-04-14T07:53:16.001Z</time></trkpt><trkpt lat="43.93086938762423" lon="11.762563177429337"><ele>743.4000000000001</ele><time>2026-04-14T07:53:17.001Z</time></trkpt><trkpt lat="43.93089620874057" lon="11.762411849881799"><ele>742.0</ele><time>2026-04-14T07:53:18.001Z</time></trkpt><trkpt lat="43.93092028486671" lon="11.762257205217479"><ele>744.75</ele><time>2026-04-14T07:53:19.001Z</time></trkpt><trkpt lat="43.930937987250644" lon="11.762099344030663"><ele>747.5</ele><time>2026-04-14T07:53:20.001Z</time></trkpt><trkpt lat="43.930958898860354" lon="11.761941630957509"><ele>750.25</ele><time>2026-04-14T07:53:21.001Z</time></trkpt><trkpt lat="43.93097870733123" lon="11.76178433352151"><ele>753.0</ele><time>2026-04-14T07:53:22.001Z</time></trkpt><trkpt lat="43.931000826332216" lon="11.76162570022172"><ele>753.0</ele><time>2026-04-14T07:53:23.001Z</time></trkpt><trkpt lat="43.931023033132846" lon="11.761475151340662"><ele>753.0</ele><time>2026-04-14T07:53:24.001Z</time></trkpt><trkpt lat="43.931044256801954" lon="11.761333351428691"><ele>753.0</ele><time>2026-04-14T07:53:25.001Z</time></trkpt><trkpt lat="43.931068412341865" lon="11.761202238674768"><ele>753.0</ele><time>2026-04-14T07:53:26.001Z</time></trkpt><trkpt lat="43.93110751604077" lon="11.76108438443719"><ele>753.0</ele><time>2026-04-14T07:53:27.001Z</time></trkpt><trkpt lat="43.9311607403123" lon="11.760982422408334"><ele>750.1666666666666</ele><time>2026-04-14T07:53:28.001Z</time></trkpt><trkpt lat="43.9312232010989" lon="11.760892456421466"><ele>747.3333333333334</ele><time>2026-04-14T07:53:29.001Z</time></trkpt><trkpt lat="43.931286973008305" lon="11.760812476656183"><ele>744.5</ele><time>2026-04-14T07:53:30.001Z</time></trkpt><trkpt lat="43.93134049870709" lon="11.760730636063844"><ele>741.6666666666667</ele><time>2026-04-14T07:53:31.001Z</time></trkpt><trkpt lat="43.93136872225285" lon="11.760618524133156"><ele>738.8333333333334</ele><time>2026-04-14T07:53:32.001Z</time></trkpt><trkpt lat="43.93137938165984" lon="11.760506052741885"><ele>736.0</ele><time>2026-04-14T07:53:33.001Z</time></trkpt><trkpt lat="43.93137862539575" lon="11.76039300694348"><ele>736.0</ele><time>2026-04-14T07:53:34.001Z</time></trkpt><trkpt lat="43.93136920263492" lon="11.7602882706115"><ele>736.0</ele><time>2026-04-14T07:53:35.001Z</time></trkpt><trkpt lat="43.93136079263098" lon="11.760179971517104"><ele>736.0</ele><time>2026-04-14T07:53:36.001Z</time></trkpt><trkpt lat="43.93134189688805" lon="11.76006284694338"><ele>736.0</ele><time>2026-04-14T07:53:37.001Z</time></trkpt><trkpt lat="43.93132837533683" lon="11.75993772845667"><ele>736.0</ele><time>2026-04-14T07:53:38.001Z</time></trkpt><trkpt lat="43.9313339147832" lon="11.75981062245376"><ele>736.0</ele><time>2026-04-14T07:53:39.001Z</time></trkpt><trkpt lat="43.93135855537769" lon="11.75968392146011"><ele>733.4</ele><time>2026-04-14T07:53:40.001Z</time></trkpt><trkpt lat="43.93139652068682" lon="11.759561554901191"><ele>730.8</ele><time>2026-04-14T07:53:41.001Z</time></trkpt><trkpt lat="43.93144107522924" lon="11.759440396601088"><ele>728.1999999999999</ele><time>2026-04-14T07:53:42.001Z</time></trkpt><trkpt lat="43.931487707586406" lon="11.759314436510508"><ele>725.5999999999999</ele><time>2026-04-14T07:53:43.001Z</time></trkpt><trkpt lat="43.9315253328846" lon="11.75918213031165"><ele>723.0</ele><time>2026-04-14T07:53:44.001Z</time></trkpt><trkpt lat="43.93155773320917" lon="11.759041717049602"><ele>723.8</ele><time>2026-04-14T07:53:45.001Z</time></trkpt><trkpt lat="43.93159637289703" lon="11.758904729421811"><ele>724.5999999999999</ele><time>2026-04-14T07:53:46.001Z</time></trkpt><trkpt lat="43.93162152754394" lon="11.758763393390042"><ele>725.4000000000001</ele><time>2026-04-14T07:53:47.001Z</time></trkpt><trkpt lat="43.93165721192018" lon="11.758624746719425"><ele>726.2</ele><time>2026-04-14T07:53:48.001Z</time></trkpt><trkpt lat="43.931695049745265" lon="11.758482639526203"><ele>727.0</ele><time>2026-04-14T07:53:49.001Z</time></trkpt><trkpt lat="43.93173678932388" lon="11.758343316295308"><ele>727.0</ele><time>2026-04-14T07:53:50.001Z</time></trkpt><trkpt lat="43.93178222356483" lon="11.758198230652164"><ele>727.0</ele><time>2026-04-14T07:53:51.001Z</time></trkpt><trkpt lat="43.93181840732232" lon="11.758050294014623"><ele>727.0</ele><time>2026-04-14T07:53:52.001Z</time></trkpt><trkpt lat="43.93184634887845" lon="11.757899073885213"><ele>727.0</ele><time>2026-04-14T07:53:53.001Z</time></trkpt><trkpt lat="43.931874236527264" lon="11.757746996415369"><ele>724.25</ele><time>2026-04-14T07:53:54.001Z</time></trkpt><trkpt lat="43.93189821124744" lon="11.757589809857182"><ele>721.5</ele><time>2026-04-14T07:53:55.001Z</time></trkpt><trkpt lat="43.931923233489684" lon="11.757433842006225"><ele>718.75</ele><time>2026-04-14T07:53:56.001Z</time></trkpt><trkpt lat="43.93194672402728" lon="11.757281631393106"><ele>716.0</ele><time>2026-04-14T07:53:57.001Z</time></trkpt><trkpt lat="43.931968403478564" lon="11.757127591725013"><ele>716.0</ele><time>2026-04-14T07:53:58.001Z</time></trkpt><trkpt lat="43.93199464878524" lon="11.756973255054453"><ele>716.0</ele><time>2026-04-14T07:53:59.001Z</time></trkpt><trkpt lat="43.932021590506764" lon="11.756823039696526"><ele>716.0</ele><time>2026-04-14T07:54:00.001Z</time></trkpt><trkpt lat="43.932046861958" lon="11.756668051675447"><ele>716.0</ele><time>2026-04-14T07:54:01.001Z</time></trkpt><trkpt lat="43.93207410393436" lon="11.756512446561466"><ele>713.5</ele><time>2026-04-14T07:54:02.001Z</time></trkpt><trkpt lat="43.932102647213526" lon="11.756358215231895"><ele>711.0</ele><time>2026-04-14T07:54:03.001Z</time></trkpt><trkpt lat="43.932132282256624" lon="11.756205425286662"><ele>708.5</ele><time>2026-04-14T07:54:04.001Z</time></trkpt><trkpt lat="43.93216241827069" lon="11.756050826119964"><ele>706.0</ele><time>2026-04-14T07:54:05.001Z</time></trkpt><trkpt lat="43.93219499593006" lon="11.755899719213787"><ele>704.1999999999999</ele><time>2026-04-14T07:54:06.001Z</time></trkpt><trkpt lat="43.93222540637583" lon="11.755745673506679"><ele>702.4</ele><time>2026-04-14T07:54:07.001Z</time></trkpt><trkpt lat="43.93225264279857" lon="11.755593217821808"><ele>700.6</ele><time>2026-04-14T07:54:08.001Z</time></trkpt><trkpt lat="43.93228139870134" lon="11.755448602398102"><ele>698.8</ele><time>2026-04-14T07:54:09.001Z</time></trkpt><trkpt lat="43.93230655243835" lon="11.755319027965246"><ele>697.0</ele><time>2026-04-14T07:54:10.001Z</time></trkpt><trkpt lat="43.93234069820212" lon="11.755198739353947"><ele>694.8333333333334</ele><time>2026-04-14T07:54:11.001Z</time></trkpt><trkpt lat="43.93240023484756" lon="11.755097331347105"><ele>692.6666666666667</ele><time>2026-04-14T07:54:12.001Z</time></trkpt><trkpt lat="43.93246626597542" lon="11.755014989228957"><ele>690.5</ele><time>2026-04-14T07:54:13.001Z</time></trkpt><trkpt lat="43.93254499294003" lon="11.754958973613839"><ele>688.3333333333334</ele><time>2026-04-14T07:54:14.001Z</time></trkpt><trkpt lat="43.93261906576023" lon="11.754905594864622"><ele>686.1666666666666</ele><time>2026-04-14T07:54:15.001Z</time></trkpt><trkpt lat="43.93269421432041" lon="11.754841869116254"><ele>684.0</ele><time>2026-04-14T07:54:16.001Z</time></trkpt><trkpt lat="43.932755371093265" lon="11.754766296096575"><ele>684.0</ele><time>2026-04-14T07:54:17.001Z</time></trkpt><trkpt lat="43.932802130262786" lon="11.754662535727293"><ele>684.0</ele><time>2026-04-14T07:54:18.001Z</time></trkpt><trkpt lat="43.932850049605044" lon="11.754566114193212"><ele>684.0</ele><time>2026-04-14T07:54:19.001Z</time></trkpt><trkpt lat="43.93290587724063" lon="11.754480344614068"><ele>684.0</ele><time>2026-04-14T07:54:20.001Z</time></trkpt><trkpt lat="43.932975501593795" lon="11.754421296099252"><ele>684.0</ele><time>2026-04-14T07:54:21.001Z</time></trkpt><trkpt lat="43.93305328938139" lon="11.754386850455186"><ele>684.0</ele><time>2026-04-14T07:54:22.001Z</time></trkpt><trkpt lat="43.93313416400199" lon="11.754391045346198"><ele>684.0</ele><time>2026-04-14T07:54:23.001Z</time></trkpt><trkpt lat="43.93321778572094" lon="11.754405123292377"><ele>684.0</ele><time>2026-04-14T07:54:24.001Z</time></trkpt><trkpt lat="43.93330802718176" lon="11.754427199150928"><ele>684.0</ele><time>2026-04-14T07:54:25.001Z</time></trkpt><trkpt lat="43.93339923807155" lon="11.75445193493535"><ele>684.0</ele><time>2026-04-14T07:54:26.001Z</time></trkpt><trkpt lat="43.93349203336089" lon="11.754465858583202"><ele>684.0</ele><time>2026-04-14T07:54:27.001Z</time></trkpt><trkpt lat="43.933582279679" lon="11.754470000049455"><ele>683.0</ele><time>2026-04-14T07:54:28.001Z</time></trkpt><trkpt lat="43.933679352639686" lon="11.754475599904293"><ele>682.0</ele><time>2026-04-14T07:54:29.001Z</time></trkpt><trkpt lat="43.93377495801512" lon="11.754472018931839"><ele>681.0</ele><time>2026-04-14T07:54:30.001Z</time></trkpt><trkpt lat="43.933878185127355" lon="11.754456100623589"><ele>680.0</ele><time>2026-04-14T07:54:31.001Z</time></trkpt><trkpt lat="43.93398648517685" lon="11.754445724035161"><ele>679.0</ele><time>2026-04-14T07:54:32.001Z</time></trkpt><trkpt lat="43.934091511017385" lon="11.754446290155467"><ele>679.0</ele><time>2026-04-14T07:54:33.001Z</time></trkpt><trkpt lat="43.93419484718065" lon="11.754449842988324"><ele>679.0</ele><time>2026-04-14T07:54:34.001Z</time></trkpt><trkpt lat="43.93429964561003" lon="11.75447112118564"><ele>679.0</ele><time>2026-04-14T07:54:35.001Z</time></trkpt><trkpt lat="43.93440433266583" lon="11.754517666437847"><ele>679.0</ele><time>2026-04-14T07:54:36.001Z</time></trkpt><trkpt lat="43.93449921557075" lon="11.754553453438866"><ele>679.0</ele><time>2026-04-14T07:54:37.001Z</time></trkpt><trkpt lat="43.93459014348193" lon="11.754582229076032"><ele>679.6</ele><time>2026-04-14T07:54:38.001Z</time></trkpt><trkpt lat="43.93468009926037" lon="11.75459499253347"><ele>680.2</ele><time>2026-04-14T07:54:39.001Z</time></trkpt><trkpt lat="43.934769899694885" lon="11.754577174099884"><ele>680.8000000000001</ele><time>2026-04-14T07:54:40.001Z</time></trkpt><trkpt lat="43.93486136634054" lon="11.754535383916394"><ele>681.4000000000001</ele><time>2026-04-14T07:54:41.001Z</time></trkpt><trkpt lat="43.934945919790735" lon="11.754470744821912"><ele>682.0</ele><time>2026-04-14T07:54:42.001Z</time></trkpt><trkpt lat="43.9350262450237" lon="11.754394891455298"><ele>678.6</ele><time>2026-04-14T07:54:43.001Z</time></trkpt><trkpt lat="43.93510162725474" lon="11.754306190293576"><ele>675.2</ele><time>2026-04-14T07:54:44.001Z</time></trkpt><trkpt lat="43.93517714289457" lon="11.754213984783604"><ele>671.8</ele><time>2026-04-14T07:54:45.001Z</time></trkpt><trkpt lat="43.93525572462241" lon="11.754127126018904"><ele>668.4</ele><time>2026-04-14T07:54:46.001Z</time></trkpt><trkpt lat="43.93533596008349" lon="11.754039501258458"><ele>665.0</ele><time>2026-04-14T07:54:47.001Z</time></trkpt><trkpt lat="43.93542013242192" lon="11.753948733785215"><ele>665.0</ele><time>2026-04-14T07:54:48.001Z</time></trkpt><trkpt lat="43.93550449438676" lon="11.753860417431332"><ele>665.0</ele><time>2026-04-14T07:54:49.001Z</time></trkpt><trkpt lat="43.93558995519987" lon="11.753771201208068"><ele>665.0</ele><time>2026-04-14T07:54:50.001Z</time></trkpt><trkpt lat="43.93567136631172" lon="11.753681105167967"><ele>665.0</ele><time>2026-04-14T07:54:51.001Z</time></trkpt><trkpt lat="43.93574168224146" lon="11.753591195538155"><ele>665.0</ele><time>2026-04-14T07:54:52.001Z</time></trkpt><trkpt lat="43.935791718242236" lon="11.753495316045822"><ele>664.8333333333333</ele><time>2026-04-14T07:54:53.001Z</time></trkpt><trkpt lat="43.93582202061555" lon="11.753391548173644"><ele>664.6666666666666</ele><time>2026-04-14T07:54:54.001Z</time></trkpt><trkpt lat="43.93584221601721" lon="11.753277001108648"><ele>664.5</ele><time>2026-04-14T07:54:55Z</time></trkpt><trkpt lat="43.935865253956315" lon="11.753168915495934"><ele>664.3333333333334</ele><time>2026-04-14T07:54:56Z</time></trkpt><trkpt lat="43.935905278560455" lon="11.753082054951202"><ele>664.1666666666667</ele><time>2026-04-14T07:54:57Z</time></trkpt><trkpt lat="43.935965554425145" lon="11.753016686839112"><ele>664.0</ele><time>2026-04-14T07:54:58Z</time></trkpt><trkpt lat="43.93605128737754" lon="11.752970260873443"><ele>664.0</ele><time>2026-04-14T07:54:59Z</time></trkpt><trkpt lat="43.93614610841438" lon="11.752928858263095"><ele>664.0</ele><time>2026-04-14T07:55:00Z</time></trkpt><trkpt lat="43.93625235210012" lon="11.752894052577076"><ele>664.0</ele><time>2026-04-14T07:55:01Z</time></trkpt><trkpt lat="43.936363549713036" lon="11.752840201762554"><ele>664.0</ele><time>2026-04-14T07:55:02Z</time></trkpt><trkpt lat="43.93647335861396" lon="11.752761910477712"><ele>664.75</ele><time>2026-04-14T07:55:03Z</time></trkpt><trkpt lat="43.936583562427515" lon="11.752668498845807"><ele>665.5</ele><time>2026-04-14T07:55:04Z</time></trkpt><trkpt lat="43.936682328487436" lon="11.752574446095696"><ele>666.25</ele><time>2026-04-14T07:55:05Z</time></trkpt><trkpt lat="43.93677744030159" lon="11.752483380690743"><ele>667.0</ele><time>2026-04-14T07:55:06Z</time></trkpt><trkpt lat="43.936869476064345" lon="11.752392457517216"><ele>667.0</ele><time>2026-04-14T07:55:07Z</time></trkpt><trkpt lat="43.93695857291098" lon="11.752300043369948"><ele>667.0</ele><time>2026-04-14T07:55:08Z</time></trkpt><trkpt lat="43.937046479593086" lon="11.752212374693977"><ele>667.0</ele><time>2026-04-14T07:55:09Z</time></trkpt><trkpt lat="43.93713415080205" lon="11.752131119481282"><ele>667.0</ele><time>2026-04-14T07:55:10Z</time></trkpt><trkpt lat="43.93721491205007" lon="11.752064445623946"><ele>667.0</ele><time>2026-04-14T07:55:11Z</time></trkpt><trkpt lat="43.93727868986628" lon="11.752008382322625"><ele>667.0</ele><time>2026-04-14T07:55:12Z</time></trkpt><trkpt lat="43.93733112854041" lon="11.751954019771118"><ele>667.0</ele><time>2026-04-14T07:55:13Z</time></trkpt><trkpt lat="43.93736893076895" lon="11.751879997945988"><ele>667.0</ele><time>2026-04-14T07:55:14Z</time></trkpt><trkpt lat="43.93739306815581" lon="11.751710358146145"><ele>667.0</ele><time>2026-04-14T07:55:16Z</time></trkpt><trkpt lat="43.93737774969959" lon="11.7516219158854"><ele>667.0</ele><time>2026-04-14T07:55:17Z</time></trkpt><trkpt lat="43.937336551071326" lon="11.751541818569331"><ele>667.0</ele><time>2026-04-14T07:55:18Z</time></trkpt><trkpt lat="43.93727183980499" lon="11.751487103380011"><ele>663.8</ele><time>2026-04-14T07:55:19Z</time></trkpt><trkpt lat="43.93719889420688" lon="11.751469242798791"><ele>660.6</ele><time>2026-04-14T07:55:20Z</time></trkpt><trkpt lat="43.93711664930514" lon="11.751495608376604"><ele>657.4</ele><time>2026-04-14T07:55:21Z</time></trkpt><trkpt lat="43.93702728650985" lon="11.751545902455684"><ele>654.1999999999999</ele><time>2026-04-14T07:55:22Z</time></trkpt><trkpt lat="43.93692717334179" lon="11.75161465403927"><ele>651.0</ele><time>2026-04-14T07:55:23Z</time></trkpt><trkpt lat="43.936819820102414" lon="11.751675968004745"><ele>650.5</ele><time>2026-04-14T07:55:24Z</time></trkpt><trkpt lat="43.936711722261364" lon="11.751734786896446"><ele>650.0</ele><time>2026-04-14T07:55:25Z</time></trkpt><trkpt lat="43.93660553767633" lon="11.751793995421446"><ele>649.5</ele><time>2026-04-14T07:55:26Z</time></trkpt><trkpt lat="43.936496884836664" lon="11.751853385505354"><ele>649.0</ele><time>2026-04-14T07:55:27Z</time></trkpt><trkpt lat="43.936389261101596" lon="11.75190881436635"><ele>649.0</ele><time>2026-04-14T07:55:28Z</time></trkpt><trkpt lat="43.936283146006005" lon="11.751961877035416"><ele>649.0</ele><time>2026-04-14T07:55:29Z</time></trkpt><trkpt lat="43.93617519536833" lon="11.752012579522352"><ele>649.0</ele><time>2026-04-14T07:55:30Z</time></trkpt><trkpt lat="43.936069473633204" lon="11.752067767151098"><ele>649.0</ele><time>2026-04-14T07:55:31Z</time></trkpt><trkpt lat="43.93596222603447" lon="11.75212450716665"><ele>647.2</ele><time>2026-04-14T07:55:32Z</time></trkpt><trkpt lat="43.93585666064902" lon="11.752182787020994"><ele>645.4000000000001</ele><time>2026-04-14T07:55:33Z</time></trkpt><trkpt lat="43.935751684072855" lon="11.752245260934686"><ele>643.6</ele><time>2026-04-14T07:55:34Z</time></trkpt><trkpt lat="43.93565083065162" lon="11.7523083578334"><ele>641.8</ele><time>2026-04-14T07:55:35Z</time></trkpt><trkpt lat="43.93556642362675" lon="11.75236095269185"><ele>640.0</ele><time>2026-04-14T07:55:36Z</time></trkpt><trkpt lat="43.93548991593073" lon="11.752399200529455"><ele>640.0</ele><time>2026-04-14T07:55:37Z</time></trkpt><trkpt lat="43.93540744675173" lon="11.7524098345379"><ele>640.0</ele><time>2026-04-14T07:55:38Z</time></trkpt><trkpt lat="43.93533912811905" lon="11.75237569889406"><ele>640.0</ele><time>2026-04-14T07:55:39Z</time></trkpt><trkpt lat="43.93529502451678" lon="11.7523067460313"><ele>640.0</ele><time>2026-04-14T07:55:40Z</time></trkpt><trkpt lat="43.93527423958886" lon="11.752210119752064"><ele>640.0</ele><time>2026-04-14T07:55:41Z</time></trkpt><trkpt lat="43.935296859094436" lon="11.75209538611852"><ele>640.0</ele><time>2026-04-14T07:55:42Z</time></trkpt><trkpt lat="43.93533654172023" lon="11.752009724020828"><ele>640.0</ele><time>2026-04-14T07:55:43Z</time></trkpt><trkpt lat="43.935409081606174" lon="11.751967020765493"><ele>640.0</ele><time>2026-04-14T07:55:44Z</time></trkpt><trkpt lat="43.935495755174706" lon="11.751936320366658"><ele>640.0</ele><time>2026-04-14T07:55:45Z</time></trkpt><trkpt lat="43.93560380139871" lon="11.751899682158825"><ele>640.0</ele><time>2026-04-14T07:55:46Z</time></trkpt><trkpt lat="43.93572146273602" lon="11.751855929567775"><ele>640.0</ele><time>2026-04-14T07:55:47Z</time></trkpt><trkpt lat="43.935828094853775" lon="11.751809919137001"><ele>638.5</ele><time>2026-04-14T07:55:48Z</time></trkpt><trkpt lat="43.935934032538285" lon="11.751759418644607"><ele>637.0</ele><time>2026-04-14T07:55:49Z</time></trkpt><trkpt lat="43.93603678232899" lon="11.751688644464025"><ele>635.5</ele><time>2026-04-14T07:55:50Z</time></trkpt><trkpt lat="43.936135231992104" lon="11.751603851797658"><ele>634.0</ele><time>2026-04-14T07:55:51Z</time></trkpt><trkpt lat="43.93622207496667" lon="11.75150579119632"><ele>634.0</ele><time>2026-04-14T07:55:52Z</time></trkpt><trkpt lat="43.936296094433786" lon="11.75138998316931"><ele>634.0</ele><time>2026-04-14T07:55:53Z</time></trkpt><trkpt lat="43.936366553704914" lon="11.751264657740881"><ele>634.0</ele><time>2026-04-14T07:55:54Z</time></trkpt><trkpt lat="43.93643415252584" lon="11.751134571180243"><ele>634.0</ele><time>2026-04-14T07:55:55Z</time></trkpt><trkpt lat="43.93649212630751" lon="11.750997570439555"><ele>629.75</ele><time>2026-04-14T07:55:56Z</time></trkpt><trkpt lat="43.93654078314814" lon="11.75085558786733"><ele>625.5</ele><time>2026-04-14T07:55:57Z</time></trkpt><trkpt lat="43.93658349451866" lon="11.75070968750888"><ele>621.25</ele><time>2026-04-14T07:55:58Z</time></trkpt><trkpt lat="43.93662056760602" lon="11.750561525213527"><ele>617.0</ele><time>2026-04-14T07:55:59Z</time></trkpt><trkpt lat="43.93665551314759" lon="11.750415379941055"><ele>617.0</ele><time>2026-04-14T07:56:00Z</time></trkpt><trkpt lat="43.93668998497488" lon="11.750273649226973"><ele>617.0</ele><time>2026-04-14T07:56:01Z</time></trkpt><trkpt lat="43.936724769629166" lon="11.750136188243609"><ele>617.0</ele><time>2026-04-14T07:56:02Z</time></trkpt><trkpt lat="43.93675998494791" lon="11.750002033262772"><ele>617.0</ele><time>2026-04-14T07:56:03Z</time></trkpt><trkpt lat="43.9367996167055" lon="11.749880267989992"><ele>617.0</ele><time>2026-04-14T07:56:04Z</time></trkpt><trkpt lat="43.93685167641696" lon="11.74978263451523"><ele>614.8000000000001</ele><time>2026-04-14T07:56:05Z</time></trkpt><trkpt lat="43.93691483735783" lon="11.749706381932041"><ele>612.6</ele><time>2026-04-14T07:56:06Z</time></trkpt><trkpt lat="43.93699340211499" lon="11.749648956634791"><ele>610.4000000000001</ele><time>2026-04-14T07:56:07Z</time></trkpt><trkpt lat="43.93708170242479" lon="11.749604345617147"><ele>608.2</ele><time>2026-04-14T07:56:08Z</time></trkpt><trkpt lat="43.93717776523109" lon="11.749569325982064"><ele>606.0</ele><time>2026-04-14T07:56:09Z</time></trkpt><trkpt lat="43.93726670203554" lon="11.749539685832145"><ele>606.0</ele><time>2026-04-14T07:56:10Z</time></trkpt><trkpt lat="43.93735430738242" lon="11.749507563535433"><ele>606.0</ele><time>2026-04-14T07:56:11Z</time></trkpt><trkpt lat="43.93744535251844" lon="11.749474332861656"><ele>606.0</ele><time>2026-04-14T07:56:12Z</time></trkpt><trkpt lat="43.93753853771312" lon="11.749441923099816"><ele>606.0</ele><time>2026-04-14T07:56:13Z</time></trkpt><trkpt lat="43.93763358626968" lon="11.749421275886775"><ele>606.0</ele><time>2026-04-14T07:56:14Z</time></trkpt><trkpt lat="43.93774261232429" lon="11.749410238040355"><ele>607.0</ele><time>2026-04-14T07:56:15Z</time></trkpt><trkpt lat="43.9378445531635" lon="11.749411367920299"><ele>608.0</ele><time>2026-04-14T07:56:16.001Z</time></trkpt><trkpt lat="43.93795037465333" lon="11.749433938722959"><ele>609.0</ele><time>2026-04-14T07:56:17.001Z</time></trkpt><trkpt lat="43.93805542280927" lon="11.749456154113448"><ele>610.0</ele><time>2026-04-14T07:56:18.001Z</time></trkpt><trkpt lat="43.93815917331957" lon="11.749468102153829"><ele>611.0</ele><time>2026-04-14T07:56:19.001Z</time></trkpt><trkpt lat="43.9382540090338" lon="11.749477436747496"><ele>611.0</ele><time>2026-04-14T07:56:20.001Z</time></trkpt><trkpt lat="43.93834625653604" lon="11.749476760160922"><ele>611.0</ele><time>2026-04-14T07:56:21.001Z</time></trkpt><trkpt lat="43.938436691938826" lon="11.749458883943076"><ele>611.0</ele><time>2026-04-14T07:56:22.001Z</time></trkpt><trkpt lat="43.93851976912941" lon="11.749418470520926"><ele>611.0</ele><time>2026-04-14T07:56:23.001Z</time></trkpt><trkpt lat="43.93859766024449" lon="11.749348115715518"><ele>611.0</ele><time>2026-04-14T07:56:24.001Z</time></trkpt><trkpt lat="43.93866505387161" lon="11.749265835950624"><ele>611.0</ele><time>2026-04-14T07:56:25.001Z</time></trkpt><trkpt lat="43.93872800636339" lon="11.749167741278637"><ele>611.0</ele><time>2026-04-14T07:56:26.001Z</time></trkpt><trkpt lat="43.938789976784555" lon="11.749066962962136"><ele>611.0</ele><time>2026-04-14T07:56:27.001Z</time></trkpt><trkpt lat="43.93885752587083" lon="11.74896484143097"><ele>611.0</ele><time>2026-04-14T07:56:28.001Z</time></trkpt><trkpt lat="43.93891864325525" lon="11.748870621911776"><ele>611.0</ele><time>2026-04-14T07:56:29.001Z</time></trkpt><trkpt lat="43.93898751610184" lon="11.748781509617118"><ele>611.0</ele><time>2026-04-14T07:56:30.001Z</time></trkpt><trkpt lat="43.93907106903296" lon="11.74870527594239"><ele>611.0</ele><time>2026-04-14T07:56:31.001Z</time></trkpt><trkpt lat="43.93915998911677" lon="11.748660950956664"><ele>611.0</ele><time>2026-04-14T07:56:32.001Z</time></trkpt><trkpt lat="43.9392486790749" lon="11.748651754795837"><ele>611.0</ele><time>2026-04-14T07:56:33.001Z</time></trkpt><trkpt lat="43.939337015755804" lon="11.748680737766405"><ele>611.0</ele><time>2026-04-14T07:56:34.001Z</time></trkpt><trkpt lat="43.93942630557261" lon="11.748737449452287"><ele>611.2</ele><time>2026-04-14T07:56:35.001Z</time></trkpt><trkpt lat="43.93950889351827" lon="11.748814100882806"><ele>611.4000000000001</ele><time>2026-04-14T07:56:36.001Z</time></trkpt><trkpt lat="43.93959836622713" lon="11.748883359952035"><ele>611.6</ele><time>2026-04-14T07:56:37.001Z</time></trkpt><trkpt lat="43.93969420896617" lon="11.748943125872593"><ele>611.8000000000001</ele><time>2026-04-14T07:56:38Z</time></trkpt><trkpt lat="43.93980735644387" lon="11.748985485564567"><ele>612.0</ele><time>2026-04-14T07:56:39Z</time></trkpt><trkpt lat="43.939937772338645" lon="11.749005506083549"><ele>611.25</ele><time>2026-04-14T07:56:40Z</time></trkpt><trkpt lat="43.9400677534657" lon="11.749012790288191"><ele>610.5</ele><time>2026-04-14T07:56:41Z</time></trkpt><trkpt lat="43.940194896138706" lon="11.749014426555906"><ele>609.75</ele><time>2026-04-14T07:56:42Z</time></trkpt><trkpt lat="43.94032150327815" lon="11.749013977578425"><ele>609.0</ele><time>2026-04-14T07:56:43Z</time></trkpt><trkpt lat="43.940446049071866" lon="11.74900843965237"><ele>609.0</ele><time>2026-04-14T07:56:44Z</time></trkpt><trkpt lat="43.94057142681585" lon="11.74898079425905"><ele>609.0</ele><time>2026-04-14T07:56:45Z</time></trkpt><trkpt lat="43.940698662375745" lon="11.748923962549132"><ele>609.0</ele><time>2026-04-14T07:56:46Z</time></trkpt><trkpt lat="43.94083119053964" lon="11.748850074864514"><ele>609.0</ele><time>2026-04-14T07:56:47Z</time></trkpt><trkpt lat="43.94097010757184" lon="11.748764290142164"><ele>608.6666666666666</ele><time>2026-04-14T07:56:48Z</time></trkpt><trkpt lat="43.94111613902391" lon="11.748681540836094"><ele>608.3333333333333</ele><time>2026-04-14T07:56:49Z</time></trkpt><trkpt lat="43.94126018121292" lon="11.748601364290485"><ele>608.0</ele><time>2026-04-14T07:56:50Z</time></trkpt><trkpt lat="43.94139887313187" lon="11.748519830452903"><ele>608.0</ele><time>2026-04-14T07:56:51Z</time></trkpt><trkpt lat="43.94153429118553" lon="11.74843375219072"><ele>608.0</ele><time>2026-04-14T07:56:52Z</time></trkpt><trkpt lat="43.941668241281675" lon="11.74835332651739"><ele>608.0</ele><time>2026-04-14T07:56:53Z</time></trkpt><trkpt lat="43.941801454794884" lon="11.748294882893864"><ele>608.0</ele><time>2026-04-14T07:56:54Z</time></trkpt><trkpt lat="43.94193545902352" lon="11.748261825216142"><ele>607.0</ele><time>2026-04-14T07:56:55Z</time></trkpt><trkpt lat="43.942067169314036" lon="11.748264312975824"><ele>606.0</ele><time>2026-04-14T07:56:56Z</time></trkpt><trkpt lat="43.94219356869322" lon="11.748288391155038"><ele>605.0</ele><time>2026-04-14T07:56:57Z</time></trkpt><trkpt lat="43.94231563323805" lon="11.748320053693147"><ele>604.0</ele><time>2026-04-14T07:56:58Z</time></trkpt><trkpt lat="43.94243389830238" lon="11.74834617392553"><ele>604.0</ele><time>2026-04-14T07:56:59Z</time></trkpt><trkpt lat="43.94254067897605" lon="11.748364538604827"><ele>604.0</ele><time>2026-04-14T07:57:00Z</time></trkpt><trkpt lat="43.942632714875394" lon="11.74836520424349"><ele>604.0</ele><time>2026-04-14T07:57:01Z</time></trkpt><trkpt lat="43.94272076062162" lon="11.748330795714729"><ele>604.0</ele><time>2026-04-14T07:57:02Z</time></trkpt><trkpt lat="43.94279495444625" lon="11.748245865238134"><ele>604.0</ele><time>2026-04-14T07:57:03Z</time></trkpt><trkpt lat="43.94286485289737" lon="11.748140547023443"><ele>603.2</ele><time>2026-04-14T07:57:04Z</time></trkpt><trkpt lat="43.94290736011478" lon="11.748006889957406"><ele>602.4</ele><time>2026-04-14T07:57:05Z</time></trkpt><trkpt lat="43.942933088161695" lon="11.747860483378249"><ele>601.6</ele><time>2026-04-14T07:57:06Z</time></trkpt><trkpt lat="43.94294675405261" lon="11.74770507194908"><ele>600.8</ele><time>2026-04-14T07:57:07Z</time></trkpt><trkpt lat="43.94296585466641" lon="11.74755531452633"><ele>600.0</ele><time>2026-04-14T07:57:08Z</time></trkpt><trkpt lat="43.94300430320152" lon="11.747425899259573"><ele>599.0</ele><time>2026-04-14T07:57:09Z</time></trkpt><trkpt lat="43.943049780575805" lon="11.747289074654944"><ele>598.0</ele><time>2026-04-14T07:57:10Z</time></trkpt><trkpt lat="43.943110836524006" lon="11.747167354114843"><ele>597.0</ele><time>2026-04-14T07:57:11Z</time></trkpt><trkpt lat="43.943188402657455" lon="11.74706697828197"><ele>596.0</ele><time>2026-04-14T07:57:12Z</time></trkpt><trkpt lat="43.943279145838865" lon="11.746992732079791"><ele>595.0</ele><time>2026-04-14T07:57:13Z</time></trkpt><trkpt lat="43.943361616968126" lon="11.74694111683749"><ele>595.4</ele><time>2026-04-14T07:57:14Z</time></trkpt><trkpt lat="43.94344686137599" lon="11.746927857445169"><ele>595.8</ele><time>2026-04-14T07:57:15Z</time></trkpt><trkpt lat="43.94352829713739" lon="11.74695666919852"><ele>596.2</ele><time>2026-04-14T07:57:16Z</time></trkpt><trkpt lat="43.94359648787054" lon="11.74702759528941"><ele>596.6</ele><time>2026-04-14T07:57:17Z</time></trkpt><trkpt lat="43.94366656756648" lon="11.747127493790984"><ele>597.0</ele><time>2026-04-14T07:57:18Z</time></trkpt><trkpt lat="43.943740588078235" lon="11.747245905672433"><ele>597.0</ele><time>2026-04-14T07:57:19Z</time></trkpt><trkpt lat="43.943822130099235" lon="11.74736321710628"><ele>597.0</ele><time>2026-04-14T07:57:20Z</time></trkpt><trkpt lat="43.94389998982903" lon="11.747473829530428"><ele>597.0</ele><time>2026-04-14T07:57:21Z</time></trkpt><trkpt lat="43.94397702104077" lon="11.74756904593117"><ele>597.0</ele><time>2026-04-14T07:57:22Z</time></trkpt><trkpt lat="43.94404611695756" lon="11.74767461511407"><ele>597.0</ele><time>2026-04-14T07:57:23Z</time></trkpt><trkpt lat="43.94411149726119" lon="11.747782869658531"><ele>595.6</ele><time>2026-04-14T07:57:24Z</time></trkpt><trkpt lat="43.944176064675126" lon="11.747889287581344"><ele>594.2</ele><time>2026-04-14T07:57:25Z</time></trkpt><trkpt lat="43.94424195057894" lon="11.747994904095828"><ele>592.8</ele><time>2026-04-14T07:57:26Z</time></trkpt><trkpt lat="43.944306141097165" lon="11.7480873481432"><ele>591.4</ele><time>2026-04-14T07:57:27Z</time></trkpt><trkpt lat="43.944367627509116" lon="11.748160917175458"><ele>590.0</ele><time>2026-04-14T07:57:28Z</time></trkpt><trkpt lat="43.94443959228167" lon="11.7482058372144"><ele>589.8</ele><time>2026-04-14T07:57:29Z</time></trkpt><trkpt lat="43.94451928461402" lon="11.748201080912915"><ele>589.6</ele><time>2026-04-14T07:57:30Z</time></trkpt><trkpt lat="43.944589532433845" lon="11.748148471889833"><ele>589.4</ele><time>2026-04-14T07:57:31Z</time></trkpt><trkpt lat="43.94465225941571" lon="11.748064347272576"><ele>589.2</ele><time>2026-04-14T07:57:32Z</time></trkpt><trkpt lat="43.9447097450864" lon="11.747950785718778"><ele>589.0</ele><time>2026-04-14T07:57:33Z</time></trkpt><trkpt lat="43.94477174744723" lon="11.747836139886983"><ele>589.0</ele><time>2026-04-14T07:57:34Z</time></trkpt><trkpt lat="43.94484689143902" lon="11.74773089780789"><ele>589.0</ele><time>2026-04-14T07:57:35Z</time></trkpt><trkpt lat="43.944927086983434" lon="11.74763038273396"><ele>589.0</ele><time>2026-04-14T07:57:36Z</time></trkpt><trkpt lat="43.94500393676571" lon="11.747524273023673"><ele>589.0</ele><time>2026-04-14T07:57:37Z</time></trkpt><trkpt lat="43.94506602258865" lon="11.747401466282172"><ele>589.0</ele><time>2026-04-14T07:57:38Z</time></trkpt><trkpt lat="43.945126129818334" lon="11.747274414625561"><ele>589.4</ele><time>2026-04-14T07:57:39Z</time></trkpt><trkpt lat="43.94519317314353" lon="11.747153230178975"><ele>589.8</ele><time>2026-04-14T07:57:40Z</time></trkpt><trkpt lat="43.945271448634365" lon="11.747068535187461"><ele>590.2</ele><time>2026-04-14T07:57:41Z</time></trkpt><trkpt lat="43.94535678621722" lon="11.747042596342247"><ele>590.6</ele><time>2026-04-14T07:57:42Z</time></trkpt><trkpt lat="43.94544177900814" lon="11.747061740343312"><ele>591.0</ele><time>2026-04-14T07:57:43Z</time></trkpt><trkpt lat="43.945519337260016" lon="11.747123969865026"><ele>591.0</ele><time>2026-04-14T07:57:44Z</time></trkpt><trkpt lat="43.945591063237885" lon="11.747205325471656"><ele>591.0</ele><time>2026-04-14T07:57:45Z</time></trkpt><trkpt lat="43.945654671761844" lon="11.747322061560759"><ele>591.0</ele><time>2026-04-14T07:57:46Z</time></trkpt><trkpt lat="43.945725018811" lon="11.747448259933439"><ele>591.0</ele><time>2026-04-14T07:57:47Z</time></trkpt><trkpt lat="43.94580701699522" lon="11.747572597693823"><ele>591.0</ele><time>2026-04-14T07:57:48Z</time></trkpt><trkpt lat="43.945885881003555" lon="11.747682260343632"><ele>591.4</ele><time>2026-04-14T07:57:49Z</time></trkpt><trkpt lat="43.945959042514595" lon="11.747778714458736"><ele>591.8</ele><time>2026-04-14T07:57:50Z</time></trkpt><trkpt lat="43.94603509224903" lon="11.74785238311823"><ele>592.1999999999999</ele><time>2026-04-14T07:57:51Z</time></trkpt><trkpt lat="43.946127832385415" lon="11.74789973811613"><ele>592.6</ele><time>2026-04-14T07:57:52Z</time></trkpt><trkpt lat="43.94621467095764" lon="11.747924279815996"><ele>593.0</ele><time>2026-04-14T07:57:53Z</time></trkpt><trkpt lat="43.946309787242875" lon="11.747918753536492"><ele>593.0</ele><time>2026-04-14T07:57:54Z</time></trkpt><trkpt lat="43.946411421986284" lon="11.747872813031611"><ele>593.0</ele><time>2026-04-14T07:57:55Z</time></trkpt><trkpt lat="43.94651424938786" lon="11.747796306415216"><ele>593.0</ele><time>2026-04-14T07:57:56Z</time></trkpt><trkpt lat="43.9466300372017" lon="11.747704244879413"><ele>593.0</ele><time>2026-04-14T07:57:57Z</time></trkpt><trkpt lat="43.94674279719893" lon="11.74760450079654"><ele>591.25</ele><time>2026-04-14T07:57:58Z</time></trkpt><trkpt lat="43.94684797709147" lon="11.74750861551329"><ele>589.5</ele><time>2026-04-14T07:57:59Z</time></trkpt><trkpt lat="43.946952269005976" lon="11.74741777074779"><ele>587.75</ele><time>2026-04-14T07:58:00Z</time></trkpt><trkpt lat="43.94705605540348" lon="11.747328000822204"><ele>586.0</ele><time>2026-04-14T07:58:01Z</time></trkpt><trkpt lat="43.947168191532796" lon="11.747270570161218"><ele>586.0</ele><time>2026-04-14T07:58:02Z</time></trkpt><trkpt lat="43.94727971702794" lon="11.74725010774688"><ele>586.0</ele><time>2026-04-14T07:58:03Z</time></trkpt><trkpt lat="43.947395385432806" lon="11.747251702654392"><ele>586.0</ele><time>2026-04-14T07:58:04Z</time></trkpt><trkpt lat="43.947505723788424" lon="11.74728293903004"><ele>586.0</ele><time>2026-04-14T07:58:05Z</time></trkpt><trkpt lat="43.94761921506476" lon="11.747346794480347"><ele>585.8</ele><time>2026-04-14T07:58:06Z</time></trkpt><trkpt lat="43.9477250893598" lon="11.747427856927835"><ele>585.6</ele><time>2026-04-14T07:58:07Z</time></trkpt><trkpt lat="43.947813038424016" lon="11.747523601653263"><ele>585.4</ele><time>2026-04-14T07:58:08Z</time></trkpt><trkpt lat="43.947885426935436" lon="11.74763050012853"><ele>585.2</ele><time>2026-04-14T07:58:09Z</time></trkpt><trkpt lat="43.947963120403855" lon="11.747714579510568"><ele>585.0</ele><time>2026-04-14T07:58:10Z</time></trkpt><trkpt lat="43.948045855729475" lon="11.747774669235705"><ele>584.4</ele><time>2026-04-14T07:58:11Z</time></trkpt><trkpt lat="43.94813118074164" lon="11.74780919605628"><ele>583.8</ele><time>2026-04-14T07:58:12Z</time></trkpt><trkpt lat="43.948223952224595" lon="11.747801918357613"><ele>583.2</ele><time>2026-04-14T07:58:13Z</time></trkpt><trkpt lat="43.948307949790994" lon="11.747752110117846"><ele>582.6</ele><time>2026-04-14T07:58:14Z</time></trkpt><trkpt lat="43.94837761507407" lon="11.74765233206298"><ele>582.0</ele><time>2026-04-14T07:58:15Z</time></trkpt><trkpt lat="43.94844667235343" lon="11.74752818939667"><ele>578.75</ele><time>2026-04-14T07:58:16Z</time></trkpt><trkpt lat="43.94852786277936" lon="11.747398896082707"><ele>575.5</ele><time>2026-04-14T07:58:17Z</time></trkpt><trkpt lat="43.94861863100215" lon="11.74728169465156"><ele>572.25</ele><time>2026-04-14T07:58:18Z</time></trkpt><trkpt lat="43.94871084970823" lon="11.747177972418067"><ele>569.0</ele><time>2026-04-14T07:58:19Z</time></trkpt><trkpt lat="43.94879918569063" lon="11.74706350786738"><ele>569.0</ele><time>2026-04-14T07:58:20Z</time></trkpt><trkpt lat="43.94888795771337" lon="11.746960156269422"><ele>569.0</ele><time>2026-04-14T07:58:21Z</time></trkpt><trkpt lat="43.948982766816556" lon="11.746885476260202"><ele>569.0</ele><time>2026-04-14T07:58:22Z</time></trkpt><trkpt lat="43.949082382848665" lon="11.746851760289452"><ele>569.0</ele><time>2026-04-14T07:58:23Z</time></trkpt><trkpt lat="43.949184463816806" lon="11.74685640818767"><ele>569.0</ele><time>2026-04-14T07:58:24Z</time></trkpt><trkpt lat="43.94926779543297" lon="11.746909694439879"><ele>568.6</ele><time>2026-04-14T07:58:25Z</time></trkpt><trkpt lat="43.94934113153106" lon="11.747002567448035"><ele>568.2</ele><time>2026-04-14T07:58:26Z</time></trkpt><trkpt lat="43.94941876502078" lon="11.747072551349216"><ele>567.8000000000001</ele><time>2026-04-14T07:58:27Z</time></trkpt><trkpt lat="43.949501071841" lon="11.747109167272516"><ele>567.4</ele><time>2026-04-14T07:58:28Z</time></trkpt><trkpt lat="43.94959608561168" lon="11.747104593793594"><ele>567.0</ele><time>2026-04-14T07:58:29Z</time></trkpt><trkpt lat="43.94970282762519" lon="11.747086826305026"><ele>567.0</ele><time>2026-04-14T07:58:30Z</time></trkpt><trkpt lat="43.9498146279615" lon="11.747066267932231"><ele>567.0</ele><time>2026-04-14T07:58:31Z</time></trkpt><trkpt lat="43.949920367993194" lon="11.7470448583633"><ele>567.0</ele><time>2026-04-14T07:58:32Z</time></trkpt><trkpt lat="43.95001890362287" lon="11.747030840901365"><ele>567.0</ele><time>2026-04-14T07:58:33Z</time></trkpt><trkpt lat="43.95011984154045" lon="11.747012416881484"><ele>567.0</ele><time>2026-04-14T07:58:34Z</time></trkpt><trkpt lat="43.95021253455178" lon="11.746981974315883"><ele>566.6</ele><time>2026-04-14T07:58:35Z</time></trkpt><trkpt lat="43.95028830517636" lon="11.746921591378502"><ele>566.2</ele><time>2026-04-14T07:58:36Z</time></trkpt><trkpt lat="43.950350921526336" lon="11.746838814360524"><ele>565.8</ele><time>2026-04-14T07:58:37Z</time></trkpt><trkpt lat="43.95039357370859" lon="11.746731937907088"><ele>565.4</ele><time>2026-04-14T07:58:38Z</time></trkpt><trkpt lat="43.950431531831335" lon="11.746603238734014"><ele>565.0</ele><time>2026-04-14T07:58:39Z</time></trkpt><trkpt lat="43.95046478665461" lon="11.746470040359473"><ele>564.8</ele><time>2026-04-14T07:58:40Z</time></trkpt><trkpt lat="43.950514702222634" lon="11.746347686048225"><ele>564.6</ele><time>2026-04-14T07:58:41Z</time></trkpt><trkpt lat="43.95058125001729" lon="11.746237553988257"><ele>564.4</ele><time>2026-04-14T07:58:42Z</time></trkpt><trkpt lat="43.950664275493956" lon="11.74614521744023"><ele>564.2</ele><time>2026-04-14T07:58:43Z</time></trkpt><trkpt lat="43.95075565176758" lon="11.746075504286257"><ele>564.0</ele><time>2026-04-14T07:58:44Z</time></trkpt><trkpt lat="43.9508549601004" lon="11.746033966565028"><ele>562.25</ele><time>2026-04-14T07:58:45Z</time></trkpt><trkpt lat="43.9509674986716" lon="11.746028967086627"><ele>560.5</ele><time>2026-04-14T07:58:46Z</time></trkpt><trkpt lat="43.951085693201975" lon="11.746059557770845"><ele>558.75</ele><time>2026-04-14T07:58:47Z</time></trkpt><trkpt lat="43.95119815105832" lon="11.746115830905623"><ele>557.0</ele><time>2026-04-14T07:58:48Z</time></trkpt><trkpt lat="43.95129852141037" lon="11.746195275026505"><ele>556.0</ele><time>2026-04-14T07:58:49Z</time></trkpt><trkpt lat="43.951399612176075" lon="11.746300583838424"><ele>555.0</ele><time>2026-04-14T07:58:50Z</time></trkpt><trkpt lat="43.95148772406532" lon="11.746417932857396"><ele>554.0</ele><time>2026-04-14T07:58:51Z</time></trkpt><trkpt lat="43.95156820592235" lon="11.746549817715874"><ele>553.0</ele><time>2026-04-14T07:58:52Z</time></trkpt><trkpt lat="43.951656613308074" lon="11.746669919165601"><ele>553.0</ele><time>2026-04-14T07:58:53Z</time></trkpt><trkpt lat="43.95174523313851" lon="11.746779286947394"><ele>553.0</ele><time>2026-04-14T07:58:54Z</time></trkpt><trkpt lat="43.951838478063074" lon="11.746876342600263"><ele>553.0</ele><time>2026-04-14T07:58:55Z</time></trkpt><trkpt lat="43.952053051247304" lon="11.747000843667774"><ele>551.8</ele><time>2026-04-14T07:58:57Z</time></trkpt><trkpt lat="43.95216505896696" lon="11.747031258464979"><ele>550.5999999999999</ele><time>2026-04-14T07:58:58Z</time></trkpt><trkpt lat="43.95227026913339" lon="11.747056827370102"><ele>549.4000000000001</ele><time>2026-04-14T07:58:59Z</time></trkpt><trkpt lat="43.952377676290105" lon="11.747086108888974"><ele>548.2</ele><time>2026-04-14T07:59:00Z</time></trkpt><trkpt lat="43.95247881566909" lon="11.747114059503485"><ele>547.0</ele><time>2026-04-14T07:59:01Z</time></trkpt><trkpt lat="43.952570174553784" lon="11.747143048599488"><ele>550.5</ele><time>2026-04-14T07:59:02Z</time></trkpt><trkpt lat="43.952646860076435" lon="11.747165515689876"><ele>554.0</ele><time>2026-04-14T07:59:03Z</time></trkpt><trkpt lat="43.95274884296227" lon="11.747198238984083"><ele>557.5</ele><time>2026-04-14T07:59:05Z</time></trkpt><trkpt lat="43.9528192764821" lon="11.74714214473808"><ele>561.0</ele><time>2026-04-14T07:59:08Z</time></trkpt><trkpt lat="43.9527920244012" lon="11.74700574583817"><ele>564.5</ele><time>2026-04-14T07:59:10Z</time></trkpt><trkpt lat="43.95274532781198" lon="11.746920346885739"><ele>568.0</ele><time>2026-04-14T07:59:11Z</time></trkpt><trkpt lat="43.952701374752294" lon="11.746812285300509"><ele>565.0</ele><time>2026-04-14T07:59:12Z</time></trkpt><trkpt lat="43.952660918639" lon="11.746685577174937"><ele>562.0</ele><time>2026-04-14T07:59:13Z</time></trkpt><trkpt lat="43.95262428173365" lon="11.746546825124177"><ele>559.0</ele><time>2026-04-14T07:59:14Z</time></trkpt><trkpt lat="43.95258925761953" lon="11.746394040227603"><ele>556.0</ele><time>2026-04-14T07:59:15Z</time></trkpt><trkpt lat="43.952550078480336" lon="11.746229721930664"><ele>553.0</ele><time>2026-04-14T07:59:16Z</time></trkpt><trkpt lat="43.952493794779365" lon="11.746065874379068"><ele>558.75</ele><time>2026-04-14T07:59:17Z</time></trkpt><trkpt lat="43.95242393213749" lon="11.745923559757045"><ele>564.5</ele><time>2026-04-14T07:59:18Z</time></trkpt><trkpt lat="43.95233980421199" lon="11.745800719097694"><ele>570.25</ele><time>2026-04-14T07:59:19Z</time></trkpt><trkpt lat="43.9522482702589" lon="11.745673204130513"><ele>576.0</ele><time>2026-04-14T07:59:20Z</time></trkpt><trkpt lat="43.95216194639261" lon="11.745560622965762"><ele>576.0</ele><time>2026-04-14T07:59:21Z</time></trkpt><trkpt lat="43.952085124142414" lon="11.745447074149391"><ele>576.0</ele><time>2026-04-14T07:59:22Z</time></trkpt><trkpt lat="43.9520219986011" lon="11.745322331640933"><ele>576.0</ele><time>2026-04-14T07:59:23Z</time></trkpt><trkpt lat="43.951991620923486" lon="11.745178910984386"><ele>576.0</ele><time>2026-04-14T07:59:24Z</time></trkpt><trkpt lat="43.95200671378844" lon="11.74503150122339"><ele>576.0</ele><time>2026-04-14T07:59:25Z</time></trkpt><trkpt lat="43.952056923864035" lon="11.744910868783105"><ele>576.4</ele><time>2026-04-14T07:59:26Z</time></trkpt><trkpt lat="43.95213348994641" lon="11.744812116983116"><ele>576.8</ele><time>2026-04-14T07:59:27Z</time></trkpt><trkpt lat="43.95222012815352" lon="11.744753427498303"><ele>577.1999999999999</ele><time>2026-04-14T07:59:28Z</time></trkpt><trkpt lat="43.95230656253017" lon="11.744741313065482"><ele>577.6</ele><time>2026-04-14T07:59:29Z</time></trkpt><trkpt lat="43.95239791211616" lon="11.744743947258584"><ele>578.0</ele><time>2026-04-14T07:59:30Z</time></trkpt><trkpt lat="43.95249825996622" lon="11.74469138370421"><ele>585.8</ele><time>2026-04-14T07:59:31Z</time></trkpt><trkpt lat="43.952596627984114" lon="11.744601755558005"><ele>593.5999999999999</ele><time>2026-04-14T07:59:32Z</time></trkpt><trkpt lat="43.952675750330876" lon="11.744487799627983"><ele>601.4000000000001</ele><time>2026-04-14T07:59:33Z</time></trkpt><trkpt lat="43.952734807104605" lon="11.744370431016073"><ele>609.2</ele><time>2026-04-14T07:59:34Z</time></trkpt><trkpt lat="43.952761573795385" lon="11.744221758074728"><ele>617.0</ele><time>2026-04-14T07:59:35Z</time></trkpt><trkpt lat="43.95276974047718" lon="11.74406011814957"><ele>617.0</ele><time>2026-04-14T07:59:36Z</time></trkpt><trkpt lat="43.95276896302909" lon="11.74390232844725"><ele>617.0</ele><time>2026-04-14T07:59:37Z</time></trkpt><trkpt lat="43.95275376058199" lon="11.743757392719447"><ele>617.0</ele><time>2026-04-14T07:59:38Z</time></trkpt><trkpt lat="43.95270742232175" lon="11.74362331827388"><ele>617.0</ele><time>2026-04-14T07:59:39Z</time></trkpt><trkpt lat="43.95263529068172" lon="11.743501507080563"><ele>617.0</ele><time>2026-04-14T07:59:40Z</time></trkpt><trkpt lat="43.95253844796013" lon="11.743397625035682"><ele>605.0</ele><time>2026-04-14T07:59:41Z</time></trkpt><trkpt lat="43.95243085799549" lon="11.743307864779874"><ele>593.0</ele><time>2026-04-14T07:59:42Z</time></trkpt><trkpt lat="43.952315193473865" lon="11.743215607618719"><ele>581.0</ele><time>2026-04-14T07:59:43Z</time></trkpt><trkpt lat="43.95220452955426" lon="11.74311630514282"><ele>569.0</ele><time>2026-04-14T07:59:44Z</time></trkpt><trkpt lat="43.952098108703545" lon="11.7430030504864"><ele>569.0</ele><time>2026-04-14T07:59:45Z</time></trkpt><trkpt lat="43.95198775274779" lon="11.742884638607462"><ele>569.0</ele><time>2026-04-14T07:59:46Z</time></trkpt><trkpt lat="43.95189029617147" lon="11.74277940043554"><ele>569.0</ele><time>2026-04-14T07:59:47Z</time></trkpt><trkpt lat="43.95182443839798" lon="11.742654283300354"><ele>569.0</ele><time>2026-04-14T07:59:48Z</time></trkpt><trkpt lat="43.95176004388278" lon="11.742507262491953"><ele>570.0</ele><time>2026-04-14T07:59:49Z</time></trkpt><trkpt lat="43.95170635233787" lon="11.742330929713"><ele>571.0</ele><time>2026-04-14T07:59:50Z</time></trkpt><trkpt lat="43.951665300361505" lon="11.742152031186219"><ele>572.0</ele><time>2026-04-14T07:59:51Z</time></trkpt><trkpt lat="43.951633525386036" lon="11.74196343122347"><ele>573.0</ele><time>2026-04-14T07:59:52Z</time></trkpt><trkpt lat="43.95162818457652" lon="11.741786672197618"><ele>573.75</ele><time>2026-04-14T07:59:53Z</time></trkpt><trkpt lat="43.951640952574465" lon="11.741608017913803"><ele>574.5</ele><time>2026-04-14T07:59:54Z</time></trkpt><trkpt lat="43.95167828569576" lon="11.741430408046647"><ele>575.25</ele><time>2026-04-14T07:59:55Z</time></trkpt><trkpt lat="43.95173475346823" lon="11.741259328341126"><ele>576.0</ele><time>2026-04-14T07:59:56Z</time></trkpt><trkpt lat="43.95179386005318" lon="11.741101958297506"><ele>586.0</ele><time>2026-04-14T07:59:57Z</time></trkpt><trkpt lat="43.95184658591473" lon="11.740957799574392"><ele>596.0</ele><time>2026-04-14T07:59:58Z</time></trkpt><trkpt lat="43.951884047439904" lon="11.740819091456322"><ele>606.0</ele><time>2026-04-14T07:59:59Z</time></trkpt><trkpt lat="43.95189226969059" lon="11.740662445931044"><ele>616.0</ele><time>2026-04-14T08:00:00Z</time></trkpt><trkpt lat="43.95186756727489" lon="11.740487537648471"><ele>616.0</ele><time>2026-04-14T08:00:01Z</time></trkpt><trkpt lat="43.9518312848314" lon="11.740311915606092"><ele>616.0</ele><time>2026-04-14T08:00:02Z</time></trkpt><trkpt lat="43.95178564538324" lon="11.740125104385685"><ele>616.0</ele><time>2026-04-14T08:00:03Z</time></trkpt><trkpt lat="43.95174729478479" lon="11.739934303231786"><ele>616.0</ele><time>2026-04-14T08:00:04Z</time></trkpt><trkpt lat="43.951711144995784" lon="11.739725550166144"><ele>604.6666666666667</ele><time>2026-04-14T08:00:05Z</time></trkpt><trkpt lat="43.95166954036822" lon="11.739503101743423"><ele>593.3333333333334</ele><time>2026-04-14T08:00:06Z</time></trkpt><trkpt lat="43.95162288284533" lon="11.739266393062094"><ele>582.0</ele><time>2026-04-14T08:00:07Z</time></trkpt><trkpt lat="43.95157052396932" lon="11.739024315951095"><ele>582.0</ele><time>2026-04-14T08:00:08Z</time></trkpt><trkpt lat="43.951522162616264" lon="11.73878971039762"><ele>582.0</ele><time>2026-04-14T08:00:09Z</time></trkpt><trkpt lat="43.95147333661561" lon="11.738566272986418"><ele>582.0</ele><time>2026-04-14T08:00:10Z</time></trkpt><trkpt lat="43.95143228496009" lon="11.738335419515451"><ele>584.0</ele><time>2026-04-14T08:00:11Z</time></trkpt><trkpt lat="43.951386330046454" lon="11.738108164198445"><ele>586.0</ele><time>2026-04-14T08:00:12Z</time></trkpt><trkpt lat="43.95133552662484" lon="11.737879588393788"><ele>588.0</ele><time>2026-04-14T08:00:13Z</time></trkpt><trkpt lat="43.95129393322396" lon="11.737646407883574"><ele>594.6666666666666</ele><time>2026-04-14T08:00:14Z</time></trkpt><trkpt lat="43.95125348330618" lon="11.737430451994381"><ele>601.3333333333333</ele><time>2026-04-14T08:00:15Z</time></trkpt><trkpt lat="43.95121582571866" lon="11.737218797051739"><ele>608.0</ele><time>2026-04-14T08:00:16Z</time></trkpt><trkpt lat="43.951163890416154" lon="11.73701529640044"><ele>614.0</ele><time>2026-04-14T08:00:17Z</time></trkpt><trkpt lat="43.95108347581576" lon="11.736825585525919"><ele>620.0</ele><time>2026-04-14T08:00:18Z</time></trkpt><trkpt lat="43.950992629636325" lon="11.736636784482453"><ele>626.0</ele><time>2026-04-14T08:00:19Z</time></trkpt><trkpt lat="43.950905525332146" lon="11.736440939391501"><ele>618.25</ele><time>2026-04-14T08:00:20Z</time></trkpt><trkpt lat="43.95083389103251" lon="11.73626095018754"><ele>610.5</ele><time>2026-04-14T08:00:21Z</time></trkpt><trkpt lat="43.950758284941344" lon="11.73610411540291"><ele>602.75</ele><time>2026-04-14T08:00:22Z</time></trkpt><trkpt lat="43.95070372820504" lon="11.735949064014113"><ele>595.0</ele><time>2026-04-14T08:00:23Z</time></trkpt><trkpt lat="43.950673965961386" lon="11.735781715780774"><ele>595.0</ele><time>2026-04-14T08:00:24Z</time></trkpt><trkpt lat="43.95067179939685" lon="11.735599033134951"><ele>595.0</ele><time>2026-04-14T08:00:25Z</time></trkpt><trkpt lat="43.95068536008606" lon="11.735401730983194"><ele>595.0</ele><time>2026-04-14T08:00:26Z</time></trkpt><trkpt lat="43.95070571454741" lon="11.73519224768309"><ele>595.0</ele><time>2026-04-14T08:00:27Z</time></trkpt><trkpt lat="43.95072447466708" lon="11.734979023554937"><ele>597.5</ele><time>2026-04-14T08:00:28Z</time></trkpt><trkpt lat="43.95074237487015" lon="11.734786137939427"><ele>600.0</ele><time>2026-04-14T08:00:29Z</time></trkpt><trkpt lat="43.950750701474306" lon="11.734600569147238"><ele>602.5</ele><time>2026-04-14T08:00:30Z</time></trkpt><trkpt lat="43.950750608665395" lon="11.734413707898353"><ele>605.0</ele><time>2026-04-14T08:00:31Z</time></trkpt><trkpt lat="43.95072408422924" lon="11.734229788573991"><ele>605.75</ele><time>2026-04-14T08:00:32Z</time></trkpt><trkpt lat="43.95067675135652" lon="11.734046815371482"><ele>606.5</ele><time>2026-04-14T08:00:33Z</time></trkpt><trkpt lat="43.950617420283045" lon="11.733884552400763"><ele>607.25</ele><time>2026-04-14T08:00:34Z</time></trkpt><trkpt lat="43.95056751219998" lon="11.733737442437349"><ele>608.0</ele><time>2026-04-14T08:00:35Z</time></trkpt><trkpt lat="43.950541350028196" lon="11.733602295833334"><ele>607.0</ele><time>2026-04-14T08:00:36Z</time></trkpt><trkpt lat="43.95055919506017" lon="11.733473885026179"><ele>606.0</ele><time>2026-04-14T08:00:37Z</time></trkpt><trkpt lat="43.95061615193941" lon="11.733379609246807"><ele>605.0</ele><time>2026-04-14T08:00:38Z</time></trkpt><trkpt lat="43.95069207249949" lon="11.733344385948286"><ele>604.0</ele><time>2026-04-14T08:00:39Z</time></trkpt><trkpt lat="43.95077909354967" lon="11.733358472336242"><ele>603.0</ele><time>2026-04-14T08:00:40Z</time></trkpt><trkpt lat="43.950879185500064" lon="11.73340089715773"><ele>606.6</ele><time>2026-04-14T08:00:41Z</time></trkpt><trkpt lat="43.95099117723026" lon="11.733450154555292"><ele>610.1999999999999</ele><time>2026-04-14T08:00:42Z</time></trkpt><trkpt lat="43.9511105921826" lon="11.73347075649082"><ele>613.8</ele><time>2026-04-14T08:00:43Z</time></trkpt><trkpt lat="43.951220610186496" lon="11.733466712716709"><ele>617.4</ele><time>2026-04-14T08:00:44Z</time></trkpt><trkpt lat="43.95131546491774" lon="11.73345081616693"><ele>621.0</ele><time>2026-04-14T08:00:45Z</time></trkpt><trkpt lat="43.951395552438406" lon="11.733418597983293"><ele>621.0</ele><time>2026-04-14T08:00:46Z</time></trkpt><trkpt lat="43.95145080582741" lon="11.733351491726332"><ele>621.0</ele><time>2026-04-14T08:00:47Z</time></trkpt><trkpt lat="43.9514772972356" lon="11.733266673951256"><ele>621.0</ele><time>2026-04-14T08:00:48Z</time></trkpt><trkpt lat="43.95146857063513" lon="11.733153359395875"><ele>621.0</ele><time>2026-04-14T08:00:49Z</time></trkpt><trkpt lat="43.95144909616772" lon="11.733027745264174"><ele>621.0</ele><time>2026-04-14T08:00:50Z</time></trkpt><trkpt lat="43.95141270596781" lon="11.732880446952509"><ele>621.0</ele><time>2026-04-14T08:00:51Z</time></trkpt><trkpt lat="43.951375919374065" lon="11.732719021924932"><ele>619.0</ele><time>2026-04-14T08:00:52Z</time></trkpt><trkpt lat="43.95133283328737" lon="11.732548180571682"><ele>617.0</ele><time>2026-04-14T08:00:53Z</time></trkpt><trkpt lat="43.951290136627215" lon="11.732381461915448"><ele>615.0</ele><time>2026-04-14T08:00:54Z</time></trkpt><trkpt lat="43.95123775998524" lon="11.732222527952944"><ele>613.0</ele><time>2026-04-14T08:00:55Z</time></trkpt><trkpt lat="43.95115276136141" lon="11.73209280491412"><ele>613.0</ele><time>2026-04-14T08:00:56Z</time></trkpt><trkpt lat="43.95104780845813" lon="11.731980758064944"><ele>613.0</ele><time>2026-04-14T08:00:57Z</time></trkpt><trkpt lat="43.950926254060896" lon="11.731894301453131"><ele>613.0</ele><time>2026-04-14T08:00:58Z</time></trkpt><trkpt lat="43.950793546701775" lon="11.731820120398947"><ele>613.0</ele><time>2026-04-14T08:00:59Z</time></trkpt><trkpt lat="43.950662478468" lon="11.73175434457426"><ele>618.0</ele><time>2026-04-14T08:01:00Z</time></trkpt><trkpt lat="43.95054528310332" lon="11.73169335060551"><ele>623.0</ele><time>2026-04-14T08:01:01Z</time></trkpt><trkpt lat="43.95043888102707" lon="11.731650182460298"><ele>628.0</ele><time>2026-04-14T08:01:02Z</time></trkpt><trkpt lat="43.95033138489727" lon="11.731656306487935"><ele>633.0</ele><time>2026-04-14T08:01:03Z</time></trkpt><trkpt lat="43.95022752816628" lon="11.73170676834702"><ele>633.0</ele><time>2026-04-14T08:01:04Z</time></trkpt><trkpt lat="43.950132419567474" lon="11.731785925059556"><ele>633.0</ele><time>2026-04-14T08:01:05Z</time></trkpt><trkpt lat="43.95004966374533" lon="11.731880963157247"><ele>633.0</ele><time>2026-04-14T08:01:06Z</time></trkpt><trkpt lat="43.949967174664565" lon="11.731938825302105"><ele>633.0</ele><time>2026-04-14T08:01:07Z</time></trkpt><trkpt lat="43.94987314183449" lon="11.731954445931033"><ele>633.0</ele><time>2026-04-14T08:01:08Z</time></trkpt><trkpt lat="43.94977842266937" lon="11.73190831134567"><ele>631.8</ele><time>2026-04-14T08:01:09Z</time></trkpt><trkpt lat="43.949682448576894" lon="11.731828447738042"><ele>630.5999999999999</ele><time>2026-04-14T08:01:10Z</time></trkpt><trkpt lat="43.949602717137914" lon="11.731752281441818"><ele>629.4000000000001</ele><time>2026-04-14T08:01:11Z</time></trkpt><trkpt lat="43.949545506823625" lon="11.731648547297524"><ele>628.2</ele><time>2026-04-14T08:01:12Z</time></trkpt><trkpt lat="43.94952231301324" lon="11.731513844929399"><ele>627.0</ele><time>2026-04-14T08:01:13Z</time></trkpt><trkpt lat="43.949535093319284" lon="11.73137116797965"><ele>627.0</ele><time>2026-04-14T08:01:14Z</time></trkpt><trkpt lat="43.94957626342013" lon="11.731225299301693"><ele>627.0</ele><time>2026-04-14T08:01:15Z</time></trkpt><trkpt lat="43.94963241797172" lon="11.73107167244471"><ele>627.0</ele><time>2026-04-14T08:01:16Z</time></trkpt><trkpt lat="43.94968619839792" lon="11.73091700971342"><ele>627.0</ele><time>2026-04-14T08:01:17Z</time></trkpt><trkpt lat="43.94973121297906" lon="11.730789931403393"><ele>631.75</ele><time>2026-04-14T08:01:18Z</time></trkpt><trkpt lat="43.94975511769721" lon="11.73065411020382"><ele>636.5</ele><time>2026-04-14T08:01:19Z</time></trkpt><trkpt lat="43.94974998338748" lon="11.730498829069992"><ele>641.25</ele><time>2026-04-14T08:01:20Z</time></trkpt><trkpt lat="43.94971385308235" lon="11.73034115762148"><ele>646.0</ele><time>2026-04-14T08:01:21Z</time></trkpt><trkpt lat="43.949648357636086" lon="11.73018326922509"><ele>648.25</ele><time>2026-04-14T08:01:22Z</time></trkpt><trkpt lat="43.94956557444762" lon="11.730025272746573"><ele>650.5</ele><time>2026-04-14T08:01:23Z</time></trkpt><trkpt lat="43.94947270419292" lon="11.729854600159376"><ele>652.75</ele><time>2026-04-14T08:01:24Z</time></trkpt><trkpt lat="43.94939609985235" lon="11.729702519009154"><ele>655.0</ele><time>2026-04-14T08:01:25Z</time></trkpt><trkpt lat="43.94932012156154" lon="11.729577212402722"><ele>655.0</ele><time>2026-04-14T08:01:26Z</time></trkpt><trkpt lat="43.94922675015455" lon="11.729496165707337"><ele>655.0</ele><time>2026-04-14T08:01:27Z</time></trkpt><trkpt lat="43.949120539959786" lon="11.729463290787306"><ele>655.0</ele><time>2026-04-14T08:01:28Z</time></trkpt><trkpt lat="43.949003347677625" lon="11.729452508127885"><ele>655.0</ele><time>2026-04-14T08:01:29Z</time></trkpt><trkpt lat="43.948894491893476" lon="11.72947239735221"><ele>655.0</ele><time>2026-04-14T08:01:30Z</time></trkpt><trkpt lat="43.94879982447037" lon="11.729466810810846"><ele>655.4</ele><time>2026-04-14T08:01:31Z</time></trkpt><trkpt lat="43.94870376287309" lon="11.729425494847963"><ele>655.8</ele><time>2026-04-14T08:01:32Z</time></trkpt><trkpt lat="43.94861330133054" lon="11.729339738366905"><ele>656.2</ele><time>2026-04-14T08:01:33Z</time></trkpt><trkpt lat="43.94853797404476" lon="11.729221619611446"><ele>656.6</ele><time>2026-04-14T08:01:34Z</time></trkpt><trkpt lat="43.94850107459261" lon="11.729059745190455"><ele>657.0</ele><time>2026-04-14T08:01:35Z</time></trkpt><trkpt lat="43.948473057175235" lon="11.728891077441016"><ele>657.0</ele><time>2026-04-14T08:01:36Z</time></trkpt><trkpt lat="43.94845784431427" lon="11.728695977248085"><ele>657.0</ele><time>2026-04-14T08:01:37Z</time></trkpt><trkpt lat="43.94843604726472" lon="11.728487271907113"><ele>657.0</ele><time>2026-04-14T08:01:38Z</time></trkpt><trkpt lat="43.948394557697505" lon="11.728293165472"><ele>657.0</ele><time>2026-04-14T08:01:39Z</time></trkpt><trkpt lat="43.9483381564036" lon="11.72813038826506"><ele>656.0</ele><time>2026-04-14T08:01:40Z</time></trkpt><trkpt lat="43.94829987303204" lon="11.727970459642696"><ele>655.0</ele><time>2026-04-14T08:01:41Z</time></trkpt><trkpt lat="43.94831960912149" lon="11.727809984924674"><ele>654.0</ele><time>2026-04-14T08:01:42Z</time></trkpt><trkpt lat="43.948360854149186" lon="11.727647129536791"><ele>653.0</ele><time>2026-04-14T08:01:43Z</time></trkpt><trkpt lat="43.94838424329344" lon="11.727471019132446"><ele>653.0</ele><time>2026-04-14T08:01:44Z</time></trkpt><trkpt lat="43.94837636116656" lon="11.72729517218669"><ele>653.0</ele><time>2026-04-14T08:01:45Z</time></trkpt><trkpt lat="43.94836238110275" lon="11.727133648826195"><ele>653.0</ele><time>2026-04-14T08:01:46Z</time></trkpt><trkpt lat="43.94836798575311" lon="11.726990378885642"><ele>653.0</ele><time>2026-04-14T08:01:47Z</time></trkpt><trkpt lat="43.94837311264574" lon="11.726857987744356"><ele>653.0</ele><time>2026-04-14T08:01:48Z</time></trkpt><trkpt lat="43.94835303113851" lon="11.7267475022812"><ele>654.2</ele><time>2026-04-14T08:01:49Z</time></trkpt><trkpt lat="43.948304433950234" lon="11.726653708887483"><ele>655.4</ele><time>2026-04-14T08:01:50Z</time></trkpt><trkpt lat="43.948225495940356" lon="11.726582888922918"><ele>656.6</ele><time>2026-04-14T08:01:51Z</time></trkpt><trkpt lat="43.948131850811976" lon="11.72654026840187"><ele>657.8000000000001</ele><time>2026-04-14T08:01:52Z</time></trkpt><trkpt lat="43.948057331360296" lon="11.726468740033283"><ele>659.0</ele><time>2026-04-14T08:01:53Z</time></trkpt><trkpt lat="43.947991939427006" lon="11.7263423758891"><ele>659.0</ele><time>2026-04-14T08:01:54Z</time></trkpt><trkpt lat="43.94794870173146" lon="11.726202410515201"><ele>659.0</ele><time>2026-04-14T08:01:55Z</time></trkpt><trkpt lat="43.94793312839713" lon="11.726067850916483"><ele>659.0</ele><time>2026-04-14T08:01:56Z</time></trkpt><trkpt lat="43.947945346951684" lon="11.725925003855183"><ele>659.0</ele><time>2026-04-14T08:01:57Z</time></trkpt><trkpt lat="43.94799341359813" lon="11.72577594125717"><ele>659.0</ele><time>2026-04-14T08:01:58Z</time></trkpt><trkpt lat="43.94805553349696" lon="11.7256267957336"><ele>660.5</ele><time>2026-04-14T08:01:59Z</time></trkpt><trkpt lat="43.948105526610746" lon="11.725487470527286"><ele>662.0</ele><time>2026-04-14T08:02:00Z</time></trkpt><trkpt lat="43.94813412840623" lon="11.725336222228918"><ele>663.5</ele><time>2026-04-14T08:02:01Z</time></trkpt><trkpt lat="43.94813213867698" lon="11.725166551469302"><ele>665.0</ele><time>2026-04-14T08:02:02Z</time></trkpt><trkpt lat="43.948110811247886" lon="11.725006834367754"><ele>665.0</ele><time>2026-04-14T08:02:03Z</time></trkpt><trkpt lat="43.94808230154104" lon="11.724850386393081"><ele>665.0</ele><time>2026-04-14T08:02:04Z</time></trkpt><trkpt lat="43.94807703103417" lon="11.724697089980726"><ele>665.0</ele><time>2026-04-14T08:02:05Z</time></trkpt><trkpt lat="43.94810971120687" lon="11.72454107126521"><ele>665.0</ele><time>2026-04-14T08:02:06Z</time></trkpt><trkpt lat="43.94815866122463" lon="11.72438901394421"><ele>664.25</ele><time>2026-04-14T08:02:07Z</time></trkpt><trkpt lat="43.9482003975924" lon="11.7242268198161"><ele>663.5</ele><time>2026-04-14T08:02:08Z</time></trkpt><trkpt lat="43.94820919635416" lon="11.724048062476372"><ele>662.75</ele><time>2026-04-14T08:02:09Z</time></trkpt><trkpt lat="43.94819762586643" lon="11.723850900004527"><ele>662.0</ele><time>2026-04-14T08:02:10Z</time></trkpt><trkpt lat="43.94819505703325" lon="11.72364331183991"><ele>661.5</ele><time>2026-04-14T08:02:11Z</time></trkpt><trkpt lat="43.94820857112809" lon="11.723431150286999"><ele>661.0</ele><time>2026-04-14T08:02:12Z</time></trkpt><trkpt lat="43.94821965400805" lon="11.723230011289859"><ele>660.5</ele><time>2026-04-14T08:02:13Z</time></trkpt><trkpt lat="43.94822686799842" lon="11.723040258830292"><ele>660.0</ele><time>2026-04-14T08:02:14Z</time></trkpt><trkpt lat="43.948234510195086" lon="11.722862719651541"><ele>659.8</ele><time>2026-04-14T08:02:15Z</time></trkpt><trkpt lat="43.9482617119873" lon="11.72270193682637"><ele>659.6</ele><time>2026-04-14T08:02:16Z</time></trkpt><trkpt lat="43.9483080265569" lon="11.722564022285066"><ele>659.4000000000001</ele><time>2026-04-14T08:02:17Z</time></trkpt><trkpt lat="43.94835744070884" lon="11.72243893491957"><ele>659.2</ele><time>2026-04-14T08:02:18Z</time></trkpt><trkpt lat="43.94838986794015" lon="11.72231910152828"><ele>659.0</ele><time>2026-04-14T08:02:19Z</time></trkpt><trkpt lat="43.948386330949035" lon="11.72219629670709"><ele>659.0</ele><time>2026-04-14T08:02:20Z</time></trkpt><trkpt lat="43.94835511899663" lon="11.722064665116429"><ele>659.0</ele><time>2026-04-14T08:02:21Z</time></trkpt><trkpt lat="43.948283360932614" lon="11.721954438865513"><ele>659.0</ele><time>2026-04-14T08:02:22Z</time></trkpt><trkpt lat="43.94819248458845" lon="11.721866736623701"><ele>659.0</ele><time>2026-04-14T08:02:23Z</time></trkpt><trkpt lat="43.94808196343705" lon="11.72179146943978"><ele>659.0</ele><time>2026-04-14T08:02:24Z</time></trkpt><trkpt lat="43.947983228203924" lon="11.721731764920357"><ele>659.0</ele><time>2026-04-14T08:02:25Z</time></trkpt><trkpt lat="43.94788487769361" lon="11.721699249257508"><ele>659.0</ele><time>2026-04-14T08:02:26Z</time></trkpt><trkpt lat="43.94777811426895" lon="11.72171948729951"><ele>659.0</ele><time>2026-04-14T08:02:27Z</time></trkpt><trkpt lat="43.94766735659096" lon="11.721783150363317"><ele>659.0</ele><time>2026-04-14T08:02:28Z</time></trkpt><trkpt lat="43.94756670015914" lon="11.721883121922712"><ele>659.5</ele><time>2026-04-14T08:02:29Z</time></trkpt><trkpt lat="43.94747106458082" lon="11.722007487040836"><ele>660.0</ele><time>2026-04-14T08:02:30Z</time></trkpt><trkpt lat="43.94737167215009" lon="11.722130539263734"><ele>660.5</ele><time>2026-04-14T08:02:31Z</time></trkpt><trkpt lat="43.94728054502066" lon="11.722232476052996"><ele>661.0</ele><time>2026-04-14T08:02:32Z</time></trkpt><trkpt lat="43.94720367166691" lon="11.722338606435425"><ele>661.0</ele><time>2026-04-14T08:02:33Z</time></trkpt><trkpt lat="43.94715326032286" lon="11.722448364302142"><ele>661.0</ele><time>2026-04-14T08:02:34Z</time></trkpt><trkpt lat="43.947143820701896" lon="11.722572051474499"><ele>661.0</ele><time>2026-04-14T08:02:35Z</time></trkpt><trkpt lat="43.947160573570365" lon="11.722693794980092"><ele>661.0</ele><time>2026-04-14T08:02:36Z</time></trkpt><trkpt lat="43.94719585373531" lon="11.72282377985865"><ele>661.0</ele><time>2026-04-14T08:02:37Z</time></trkpt><trkpt lat="43.94723556392232" lon="11.722941232366825"><ele>658.5999999999999</ele><time>2026-04-14T08:02:38Z</time></trkpt><trkpt lat="43.94725770214854" lon="11.72306617400235"><ele>656.2</ele><time>2026-04-14T08:02:39Z</time></trkpt><trkpt lat="43.947246392214424" lon="11.723200936284089"><ele>653.8</ele><time>2026-04-14T08:02:40Z</time></trkpt><trkpt lat="43.9472031888023" lon="11.723325110209638"><ele>651.4000000000001</ele><time>2026-04-14T08:02:41Z</time></trkpt><trkpt lat="43.94711644224923" lon="11.723420188105305"><ele>649.0</ele><time>2026-04-14T08:02:42Z</time></trkpt><trkpt lat="43.94701322264929" lon="11.723514078191654"><ele>646.0</ele><time>2026-04-14T08:02:43Z</time></trkpt><trkpt lat="43.94690871574942" lon="11.723625330900331"><ele>643.0</ele><time>2026-04-14T08:02:44Z</time></trkpt><trkpt lat="43.946809554514104" lon="11.723751809774177"><ele>640.0</ele><time>2026-04-14T08:02:45Z</time></trkpt><trkpt lat="43.94671352669711" lon="11.723865313440562"><ele>637.0</ele><time>2026-04-14T08:02:46Z</time></trkpt><trkpt lat="43.946628889612356" lon="11.723973255994714"><ele>639.5</ele><time>2026-04-14T08:02:47Z</time></trkpt><trkpt lat="43.946558258744645" lon="11.724116730268916"><ele>642.0</ele><time>2026-04-14T08:02:48Z</time></trkpt><trkpt lat="43.94650687518009" lon="11.724282066337473"><ele>644.5</ele><time>2026-04-14T08:02:49Z</time></trkpt><trkpt lat="43.946472310804076" lon="11.724456438493263"><ele>647.0</ele><time>2026-04-14T08:02:50Z</time></trkpt><trkpt lat="43.94644496505449" lon="11.724613659616766"><ele>647.0</ele><time>2026-04-14T08:02:51Z</time></trkpt><trkpt lat="43.94640170678578" lon="11.724759294353618"><ele>647.0</ele><time>2026-04-14T08:02:52Z</time></trkpt><trkpt lat="43.94633370805866" lon="11.724887831143711"><ele>647.0</ele><time>2026-04-14T08:02:53Z</time></trkpt><trkpt lat="43.94623506685949" lon="11.724991636080503"><ele>647.0</ele><time>2026-04-14T08:02:54Z</time></trkpt><trkpt lat="43.946131970872784" lon="11.725077720961364"><ele>647.0</ele><time>2026-04-14T08:02:55Z</time></trkpt><trkpt lat="43.94603763811168" lon="11.72514338438924"><ele>647.0</ele><time>2026-04-14T08:02:56Z</time></trkpt><trkpt lat="43.945943789030096" lon="11.725179452073796"><ele>647.0</ele><time>2026-04-14T08:02:57Z</time></trkpt><trkpt lat="43.94585142997171" lon="11.725163282282338"><ele>647.0</ele><time>2026-04-14T08:02:58Z</time></trkpt><trkpt lat="43.945748446652615" lon="11.72510507811598"><ele>647.0</ele><time>2026-04-14T08:02:59Z</time></trkpt><trkpt lat="43.945636010181985" lon="11.725029971157438"><ele>656.75</ele><time>2026-04-14T08:03:00Z</time></trkpt><trkpt lat="43.9455327999439" lon="11.724974656894329"><ele>666.5</ele><time>2026-04-14T08:03:01Z</time></trkpt><trkpt lat="43.94544491816801" lon="11.724889552590302"><ele>676.25</ele><time>2026-04-14T08:03:02Z</time></trkpt><trkpt lat="43.945373577612344" lon="11.724762516952072"><ele>686.0</ele><time>2026-04-14T08:03:03Z</time></trkpt><trkpt lat="43.94532798042465" lon="11.724612784218316"><ele>686.0</ele><time>2026-04-14T08:03:04Z</time></trkpt><trkpt lat="43.945299597576806" lon="11.724479692514667"><ele>686.0</ele><time>2026-04-14T08:03:05Z</time></trkpt><trkpt lat="43.94525672521794" lon="11.724372447022843"><ele>686.0</ele><time>2026-04-14T08:03:06Z</time></trkpt><trkpt lat="43.94519839438529" lon="11.724301409712917"><ele>686.0</ele><time>2026-04-14T08:03:07Z</time></trkpt><trkpt lat="43.945119679368574" lon="11.72426518628882"><ele>686.0</ele><time>2026-04-14T08:03:08Z</time></trkpt><trkpt lat="43.94503038285848" lon="11.72427620930352"><ele>686.0</ele><time>2026-04-14T08:03:09Z</time></trkpt><trkpt lat="43.94493931276456" lon="11.724329381981716"><ele>682.25</ele><time>2026-04-14T08:03:10Z</time></trkpt><trkpt lat="43.94484149725902" lon="11.724398344923804"><ele>678.5</ele><time>2026-04-14T08:03:11Z</time></trkpt><trkpt lat="43.94473149957815" lon="11.724432536902707"><ele>674.75</ele><time>2026-04-14T08:03:12Z</time></trkpt><trkpt lat="43.94461012436017" lon="11.72441938856699"><ele>671.0</ele><time>2026-04-14T08:03:13Z</time></trkpt><trkpt lat="43.944488709260554" lon="11.724399666471445"><ele>672.1999999999999</ele><time>2026-04-14T08:03:14Z</time></trkpt><trkpt lat="43.94438079584282" lon="11.72437464488977"><ele>673.4</ele><time>2026-04-14T08:03:15Z</time></trkpt><trkpt lat="43.944279811719404" lon="11.724393703304521"><ele>674.6</ele><time>2026-04-14T08:03:16Z</time></trkpt><trkpt lat="43.94417680751246" lon="11.72447254602409"><ele>675.8</ele><time>2026-04-14T08:03:17Z</time></trkpt><trkpt lat="43.9440926312479" lon="11.724576693082447"><ele>677.0</ele><time>2026-04-14T08:03:18Z</time></trkpt><trkpt lat="43.94402096264795" lon="11.724666135300414"><ele>677.0</ele><time>2026-04-14T08:03:19Z</time></trkpt><trkpt lat="43.943950116419515" lon="11.724699847137165"><ele>677.0</ele><time>2026-04-14T08:03:20Z</time></trkpt><trkpt lat="43.9438691435665" lon="11.724678076117488"><ele>677.0</ele><time>2026-04-14T08:03:21Z</time></trkpt><trkpt lat="43.94382474420134" lon="11.724596024445082"><ele>677.0</ele><time>2026-04-14T08:03:22Z</time></trkpt><trkpt lat="43.943808895531916" lon="11.724497067164624"><ele>677.0</ele><time>2026-04-14T08:03:23Z</time></trkpt><trkpt lat="43.94383568537563" lon="11.724380405733225"><ele>677.0</ele><time>2026-04-14T08:03:24Z</time></trkpt><trkpt lat="43.943872088088234" lon="11.72427165904037"><ele>682.6</ele><time>2026-04-14T08:03:25Z</time></trkpt><trkpt lat="43.94391012704559" lon="11.724145125098104"><ele>688.2</ele><time>2026-04-14T08:03:26Z</time></trkpt><trkpt lat="43.94397139159458" lon="11.724008148128341"><ele>693.8</ele><time>2026-04-14T08:03:27Z</time></trkpt><trkpt lat="43.94400268543572" lon="11.72386788555141"><ele>699.4</ele><time>2026-04-14T08:03:28Z</time></trkpt><trkpt lat="43.94401598461821" lon="11.723735387146148"><ele>705.0</ele><time>2026-04-14T08:03:29Z</time></trkpt><trkpt lat="43.94400450669453" lon="11.723599945570305"><ele>710.25</ele><time>2026-04-14T08:03:30Z</time></trkpt><trkpt lat="43.943959896547774" lon="11.72345931557219"><ele>715.5</ele><time>2026-04-14T08:03:31Z</time></trkpt><trkpt lat="43.943907798989464" lon="11.723311422328313"><ele>720.75</ele><time>2026-04-14T08:03:32Z</time></trkpt><trkpt lat="43.94387063785057" lon="11.723136651840544"><ele>726.0</ele><time>2026-04-14T08:03:33Z</time></trkpt><trkpt lat="43.943850156205535" lon="11.722945890903599"><ele>726.0</ele><time>2026-04-14T08:03:34Z</time></trkpt><trkpt lat="43.9438265460851" lon="11.722746669987755"><ele>726.0</ele><time>2026-04-14T08:03:35Z</time></trkpt><trkpt lat="43.94379655251779" lon="11.722544026694631"><ele>726.0</ele><time>2026-04-14T08:03:36Z</time></trkpt><trkpt lat="43.94375223926197" lon="11.722335381383514"><ele>730.5</ele><time>2026-04-14T08:03:37Z</time></trkpt><trkpt lat="43.943696647330896" lon="11.722140204272213"><ele>735.0</ele><time>2026-04-14T08:03:38Z</time></trkpt><trkpt lat="43.94363413967814" lon="11.721963836030822"><ele>739.5</ele><time>2026-04-14T08:03:39Z</time></trkpt><trkpt lat="43.94359157392241" lon="11.721784450904204"><ele>744.0</ele><time>2026-04-14T08:03:40Z</time></trkpt><trkpt lat="43.943583179653274" lon="11.721609004477394"><ele>751.0</ele><time>2026-04-14T08:03:41Z</time></trkpt><trkpt lat="43.9435729829214" lon="11.721454599920184"><ele>758.0</ele><time>2026-04-14T08:03:42Z</time></trkpt><trkpt lat="43.9435221100362" lon="11.72132355557062"><ele>765.0</ele><time>2026-04-14T08:03:43Z</time></trkpt><trkpt lat="43.943443191020165" lon="11.721208579348836"><ele>772.0</ele><time>2026-04-14T08:03:44Z</time></trkpt><trkpt lat="43.94336705020677" lon="11.721080406443532"><ele>760.75</ele><time>2026-04-14T08:03:45Z</time></trkpt><trkpt lat="43.943321750955505" lon="11.720912654599173"><ele>749.5</ele><time>2026-04-14T08:03:46Z</time></trkpt><trkpt lat="43.94327944742744" lon="11.720729114957416"><ele>738.25</ele><time>2026-04-14T08:03:47Z</time></trkpt><trkpt lat="43.9432236806956" lon="11.720541357280243"><ele>727.0</ele><time>2026-04-14T08:03:48Z</time></trkpt><trkpt lat="43.94316039336732" lon="11.720348859463233"><ele>733.3333333333334</ele><time>2026-04-14T08:03:49Z</time></trkpt><trkpt lat="43.94309740867692" lon="11.720153840679425"><ele>739.6666666666666</ele><time>2026-04-14T08:03:50Z</time></trkpt><trkpt lat="43.94303638442488" lon="11.719960283711456"><ele>746.0</ele><time>2026-04-14T08:03:51Z</time></trkpt><trkpt lat="43.942978388821345" lon="11.719772804729581"><ele>746.0</ele><time>2026-04-14T08:03:52Z</time></trkpt><trkpt lat="43.94292569905548" lon="11.719582160576998"><ele>746.0</ele><time>2026-04-14T08:03:53Z</time></trkpt><trkpt lat="43.942888169883815" lon="11.71938559204894"><ele>746.0</ele><time>2026-04-14T08:03:54Z</time></trkpt><trkpt lat="43.94286976246644" lon="11.719187599997763"><ele>746.0</ele><time>2026-04-14T08:03:55Z</time></trkpt><trkpt lat="43.942871342055625" lon="11.718982494870803"><ele>746.0</ele><time>2026-04-14T08:03:56Z</time></trkpt><trkpt lat="43.94287635054593" lon="11.718777774940717"><ele>746.0</ele><time>2026-04-14T08:03:57Z</time></trkpt><trkpt lat="43.94288157800222" lon="11.71857394633341"><ele>746.0</ele><time>2026-04-14T08:03:58Z</time></trkpt><trkpt lat="43.942881776277446" lon="11.718366994958433"><ele>746.0</ele><time>2026-04-14T08:03:59Z</time></trkpt><trkpt lat="43.942881324085135" lon="11.718174451762595"><ele>744.8</ele><time>2026-04-14T08:04:00Z</time></trkpt><trkpt lat="43.94288379968628" lon="11.717997653053716"><ele>743.5999999999999</ele><time>2026-04-14T08:04:01Z</time></trkpt><trkpt lat="43.94288517281239" lon="11.717838100502481"><ele>742.4</ele><time>2026-04-14T08:04:02Z</time></trkpt><trkpt lat="43.94288788649944" lon="11.717695493332773"><ele>741.2</ele><time>2026-04-14T08:04:03Z</time></trkpt><trkpt lat="43.94291670847788" lon="11.717567358881972"><ele>740.0</ele><time>2026-04-14T08:04:04Z</time></trkpt><trkpt lat="43.94297115590794" lon="11.717457898853677"><ele>739.75</ele><time>2026-04-14T08:04:05Z</time></trkpt><trkpt lat="43.94304571350698" lon="11.717354840024717"><ele>739.5</ele><time>2026-04-14T08:04:06Z</time></trkpt><trkpt lat="43.943136802445686" lon="11.717254507728013"><ele>739.25</ele><time>2026-04-14T08:04:07Z</time></trkpt><trkpt lat="43.943238157997165" lon="11.717148844078928"><ele>739.0</ele><time>2026-04-14T08:04:08Z</time></trkpt><trkpt lat="43.94335183154359" lon="11.717034190416296"><ele>739.5</ele><time>2026-04-14T08:04:09Z</time></trkpt><trkpt lat="43.94346771860531" lon="11.71691070978998"><ele>740.0</ele><time>2026-04-14T08:04:10Z</time></trkpt><trkpt lat="43.943576661421226" lon="11.716793687963925"><ele>740.5</ele><time>2026-04-14T08:04:11Z</time></trkpt><trkpt lat="43.943677236046014" lon="11.716682593675847"><ele>741.0</ele><time>2026-04-14T08:04:12Z</time></trkpt><trkpt lat="43.94377855123123" lon="11.716575742175849"><ele>741.0</ele><time>2026-04-14T08:04:13Z</time></trkpt><trkpt lat="43.9438778175851" lon="11.716468131465945"><ele>741.0</ele><time>2026-04-14T08:04:14Z</time></trkpt><trkpt lat="43.94397245909349" lon="11.716373036210262"><ele>741.0</ele><time>2026-04-14T08:04:15Z</time></trkpt><trkpt lat="43.94405707317091" lon="11.71627994182863"><ele>741.0</ele><time>2026-04-14T08:04:16Z</time></trkpt><trkpt lat="43.94412745120099" lon="11.71617528414398"><ele>741.0</ele><time>2026-04-14T08:04:17Z</time></trkpt><trkpt lat="43.94417135494111" lon="11.716048845737918"><ele>741.0</ele><time>2026-04-14T08:04:18Z</time></trkpt><trkpt lat="43.94418945419742" lon="11.715905945730512"><ele>741.0</ele><time>2026-04-14T08:04:19Z</time></trkpt><trkpt lat="43.94417122292309" lon="11.715747850928484"><ele>741.0</ele><time>2026-04-14T08:04:20Z</time></trkpt><trkpt lat="43.94413719594572" lon="11.715587379343441"><ele>741.0</ele><time>2026-04-14T08:04:21Z</time></trkpt><trkpt lat="43.944103453379554" lon="11.715435349853605"><ele>741.0</ele><time>2026-04-14T08:04:22Z</time></trkpt><trkpt lat="43.94408868278553" lon="11.715291919327791"><ele>741.0</ele><time>2026-04-14T08:04:23Z</time></trkpt><trkpt lat="43.944101474749814" lon="11.715142266216496"><ele>741.0</ele><time>2026-04-14T08:04:24Z</time></trkpt><trkpt lat="43.9441435088373" lon="11.71498847229312"><ele>741.0</ele><time>2026-04-14T08:04:25Z</time></trkpt><trkpt lat="43.94421322836283" lon="11.714838112472503"><ele>748.25</ele><time>2026-04-14T08:04:26Z</time></trkpt><trkpt lat="43.94429307560173" lon="11.714681235787445"><ele>755.5</ele><time>2026-04-14T08:04:27Z</time></trkpt><trkpt lat="43.9443765958627" lon="11.714513910120013"><ele>762.75</ele><time>2026-04-14T08:04:28Z</time></trkpt><trkpt lat="43.944451051842954" lon="11.714348102494524"><ele>770.0</ele><time>2026-04-14T08:04:29Z</time></trkpt><trkpt lat="43.94452192252993" lon="11.714194005886602"><ele>770.0</ele><time>2026-04-14T08:04:30Z</time></trkpt><trkpt lat="43.944589997552015" lon="11.714039730860717"><ele>770.0</ele><time>2026-04-14T08:04:31Z</time></trkpt><trkpt lat="43.94465244193308" lon="11.713891904354625"><ele>770.0</ele><time>2026-04-14T08:04:32Z</time></trkpt><trkpt lat="43.94468689305285" lon="11.71372790712702"><ele>770.0</ele><time>2026-04-14T08:04:33Z</time></trkpt><trkpt lat="43.94470160712698" lon="11.713556846970725"><ele>768.0</ele><time>2026-04-14T08:04:34Z</time></trkpt><trkpt lat="43.944695953483844" lon="11.713388643848086"><ele>766.0</ele><time>2026-04-14T08:04:35Z</time></trkpt><trkpt lat="43.94468304521458" lon="11.713232548545832"><ele>764.0</ele><time>2026-04-14T08:04:36Z</time></trkpt><trkpt lat="43.94468603283873" lon="11.71307922241246"><ele>762.0</ele><time>2026-04-14T08:04:37Z</time></trkpt><trkpt lat="43.94472141025251" lon="11.712930659010262"><ele>762.0</ele><time>2026-04-14T08:04:38Z</time></trkpt><trkpt lat="43.94479033219939" lon="11.712800736804724"><ele>762.0</ele><time>2026-04-14T08:04:39Z</time></trkpt><trkpt lat="43.94486960488207" lon="11.712669950697256"><ele>762.0</ele><time>2026-04-14T08:04:40Z</time></trkpt><trkpt lat="43.944949744478095" lon="11.712540585856079"><ele>762.0</ele><time>2026-04-14T08:04:41Z</time></trkpt><trkpt lat="43.94502307505272" lon="11.712419712563825"><ele>760.6</ele><time>2026-04-14T08:04:42Z</time></trkpt><trkpt lat="43.945078422189304" lon="11.712299806899658"><ele>759.2</ele><time>2026-04-14T08:04:43Z</time></trkpt><trkpt lat="43.94509793815429" lon="11.712166997257055"><ele>757.8</ele><time>2026-04-14T08:04:44Z</time></trkpt><trkpt lat="43.945084974246264" lon="11.712020993406993"><ele>756.4</ele><time>2026-04-14T08:04:45Z</time></trkpt><trkpt lat="43.945038493003956" lon="11.71186621426777"><ele>755.0</ele><time>2026-04-14T08:04:46Z</time></trkpt><trkpt lat="43.944986339133294" lon="11.71171087313877"><ele>755.0</ele><time>2026-04-14T08:04:47Z</time></trkpt><trkpt lat="43.94492679396262" lon="11.711535030576187"><ele>755.0</ele><time>2026-04-14T08:04:48Z</time></trkpt><trkpt lat="43.94486614497986" lon="11.711350209419829"><ele>755.0</ele><time>2026-04-14T08:04:49Z</time></trkpt><trkpt lat="43.94480565636225" lon="11.711154090313977"><ele>755.0</ele><time>2026-04-14T08:04:50Z</time></trkpt><trkpt lat="43.94474252087805" lon="11.710963471597323"><ele>757.75</ele><time>2026-04-14T08:04:51Z</time></trkpt><trkpt lat="43.94468525248009" lon="11.710783906126204"><ele>760.5</ele><time>2026-04-14T08:04:52Z</time></trkpt><trkpt lat="43.94462720986849" lon="11.710615427158594"><ele>763.25</ele><time>2026-04-14T08:04:53Z</time></trkpt><trkpt lat="43.94456658739622" lon="11.710458597430668"><ele>766.0</ele><time>2026-04-14T08:04:54Z</time></trkpt><trkpt lat="43.94452799239615" lon="11.710306284233814"><ele>768.25</ele><time>2026-04-14T08:04:55Z</time></trkpt><trkpt lat="43.94451506837236" lon="11.710157892338938"><ele>770.5</ele><time>2026-04-14T08:04:56Z</time></trkpt><trkpt lat="43.944547572435575" lon="11.710009875096661"><ele>772.75</ele><time>2026-04-14T08:04:57Z</time></trkpt><trkpt lat="43.94460270424688" lon="11.709863950837219"><ele>775.0</ele><time>2026-04-14T08:04:58Z</time></trkpt><trkpt lat="43.94466715527702" lon="11.709712074527076"><ele>775.0</ele><time>2026-04-14T08:04:59Z</time></trkpt><trkpt lat="43.94473628417044" lon="11.709564850648873"><ele>775.0</ele><time>2026-04-14T08:05:00Z</time></trkpt><trkpt lat="43.94479024171088" lon="11.709430027109041"><ele>775.0</ele><time>2026-04-14T08:05:01Z</time></trkpt><trkpt lat="43.944841412733886" lon="11.709305763736378"><ele>775.0</ele><time>2026-04-14T08:05:02Z</time></trkpt><trkpt lat="43.944885635806735" lon="11.709187564139"><ele>775.0</ele><time>2026-04-14T08:05:03Z</time></trkpt><trkpt lat="43.944908546874906" lon="11.709064630392675"><ele>775.4</ele><time>2026-04-14T08:05:04Z</time></trkpt><trkpt lat="43.94489397128133" lon="11.708933820002954"><ele>775.8</ele><time>2026-04-14T08:05:05Z</time></trkpt><trkpt lat="43.9448514551812" lon="11.708810294120804"><ele>776.2</ele><time>2026-04-14T08:05:06Z</time></trkpt><trkpt lat="43.94477688924044" lon="11.70869451147403"><ele>776.6</ele><time>2026-04-14T08:05:07Z</time></trkpt><trkpt lat="43.944684850507485" lon="11.708569792897192"><ele>777.0</ele><time>2026-04-14T08:05:08Z</time></trkpt><trkpt lat="43.944581534183285" lon="11.708445448760118"><ele>772.75</ele><time>2026-04-14T08:05:09Z</time></trkpt><trkpt lat="43.94446067692478" lon="11.70833719337535"><ele>768.5</ele><time>2026-04-14T08:05:10Z</time></trkpt><trkpt lat="43.944321034692976" lon="11.708249999282616"><ele>764.25</ele><time>2026-04-14T08:05:11Z</time></trkpt><trkpt lat="43.94418217041595" lon="11.708189724040684"><ele>760.0</ele><time>2026-04-14T08:05:12Z</time></trkpt><trkpt lat="43.94405657960231" lon="11.708139643329387"><ele>760.0</ele><time>2026-04-14T08:05:13Z</time></trkpt><trkpt lat="43.94394817809423" lon="11.708089278096734"><ele>760.0</ele><time>2026-04-14T08:05:14Z</time></trkpt><trkpt lat="43.943871483096565" lon="11.708029167499586"><ele>760.0</ele><time>2026-04-14T08:05:15Z</time></trkpt><trkpt lat="43.943822098729854" lon="11.707941167459607"><ele>760.0</ele><time>2026-04-14T08:05:16Z</time></trkpt><trkpt lat="43.94380483269452" lon="11.707825352591744"><ele>760.0</ele><time>2026-04-14T08:05:17Z</time></trkpt><trkpt lat="43.94380869932845" lon="11.707697553941793"><ele>765.25</ele><time>2026-04-14T08:05:18Z</time></trkpt><trkpt lat="43.94385411085307" lon="11.707565952348434"><ele>770.5</ele><time>2026-04-14T08:05:19Z</time></trkpt><trkpt lat="43.943910093351775" lon="11.707422444880995"><ele>775.75</ele><time>2026-04-14T08:05:20Z</time></trkpt><trkpt lat="43.94398167167724" lon="11.707251254160472"><ele>781.0</ele><time>2026-04-14T08:05:21Z</time></trkpt><trkpt lat="43.944038966080804" lon="11.707086738057978"><ele>781.0</ele><time>2026-04-14T08:05:22Z</time></trkpt><trkpt lat="43.94408599551506" lon="11.706952014326685"><ele>781.0</ele><time>2026-04-14T08:05:23Z</time></trkpt><trkpt lat="43.94411869790122" lon="11.706836048436225"><ele>781.0</ele><time>2026-04-14T08:05:24Z</time></trkpt><trkpt lat="43.944119547397825" lon="11.706714684390102"><ele>781.0</ele><time>2026-04-14T08:05:25Z</time></trkpt><trkpt lat="43.94408697441054" lon="11.706605533351782"><ele>781.0</ele><time>2026-04-14T08:05:26Z</time></trkpt><trkpt lat="43.944014764903386" lon="11.706532017151252"><ele>781.5999999999999</ele><time>2026-04-14T08:05:27Z</time></trkpt><trkpt lat="43.94393157943813" lon="11.706491288385198"><ele>782.2</ele><time>2026-04-14T08:05:28Z</time></trkpt><trkpt lat="43.9438351430606" lon="11.706498021324636"><ele>782.8</ele><time>2026-04-14T08:05:29Z</time></trkpt><trkpt lat="43.943731774018765" lon="11.70654410791416"><ele>783.4000000000001</ele><time>2026-04-14T08:05:30Z</time></trkpt><trkpt lat="43.94362598216459" lon="11.70659379227136"><ele>784.0</ele><time>2026-04-14T08:05:31Z</time></trkpt><trkpt lat="43.94354154562409" lon="11.706610523749136"><ele>784.0</ele><time>2026-04-14T08:05:32Z</time></trkpt><trkpt lat="43.94346181842044" lon="11.706587447196746"><ele>784.0</ele><time>2026-04-14T08:05:33Z</time></trkpt><trkpt lat="43.94339694239297" lon="11.706508964272073"><ele>784.0</ele><time>2026-04-14T08:05:34Z</time></trkpt><trkpt lat="43.943357068124655" lon="11.70639303773273"><ele>784.0</ele><time>2026-04-14T08:05:35Z</time></trkpt><trkpt lat="43.94335585235826" lon="11.706252145949836"><ele>784.0</ele><time>2026-04-14T08:05:36Z</time></trkpt><trkpt lat="43.94337952897024" lon="11.706104588140837"><ele>784.0</ele><time>2026-04-14T08:05:37Z</time></trkpt><trkpt lat="43.943371055703075" lon="11.705948722412538"><ele>784.0</ele><time>2026-04-14T08:05:38Z</time></trkpt><trkpt lat="43.94332707015134" lon="11.70577698629435"><ele>784.0</ele><time>2026-04-14T08:05:39Z</time></trkpt><trkpt lat="43.943272711893975" lon="11.70562985274776"><ele>784.0</ele><time>2026-04-14T08:05:40Z</time></trkpt><trkpt lat="43.94322303605885" lon="11.705500843291203"><ele>784.0</ele><time>2026-04-14T08:05:41Z</time></trkpt><trkpt lat="43.94316007668551" lon="11.705384916619565"><ele>784.0</ele><time>2026-04-14T08:05:42Z</time></trkpt><trkpt lat="43.943064121323374" lon="11.705299643971385"><ele>784.0</ele><time>2026-04-14T08:05:43Z</time></trkpt><trkpt lat="43.942944627729574" lon="11.705236017063703"><ele>784.0</ele><time>2026-04-14T08:05:44Z</time></trkpt><trkpt lat="43.94281657228969" lon="11.705175627151695"><ele>784.25</ele><time>2026-04-14T08:05:45Z</time></trkpt><trkpt lat="43.94268277990165" lon="11.705110627040533"><ele>784.5</ele><time>2026-04-14T08:05:46Z</time></trkpt><trkpt lat="43.94255476368331" lon="11.705050710749823"><ele>784.75</ele><time>2026-04-14T08:05:47Z</time></trkpt><trkpt lat="43.942430449033054" lon="11.704998592308497"><ele>785.0</ele><time>2026-04-14T08:05:48Z</time></trkpt><trkpt lat="43.9423132826907" lon="11.70494644552425"><ele>785.0</ele><time>2026-04-14T08:05:49Z</time></trkpt><trkpt lat="43.942206023324474" lon="11.704905112822615"><ele>785.0</ele><time>2026-04-14T08:05:50Z</time></trkpt><trkpt lat="43.94211232846857" lon="11.704849380254407"><ele>785.0</ele><time>2026-04-14T08:05:51Z</time></trkpt><trkpt lat="43.94204614420449" lon="11.704749024364187"><ele>785.0</ele><time>2026-04-14T08:05:52Z</time></trkpt><trkpt lat="43.94200863906068" lon="11.704621904000517"><ele>785.0</ele><time>2026-04-14T08:05:53Z</time></trkpt><trkpt lat="43.94200139579753" lon="11.704469801510909"><ele>789.0</ele><time>2026-04-14T08:05:54Z</time></trkpt><trkpt lat="43.942006683150424" lon="11.704312905611195"><ele>793.0</ele><time>2026-04-14T08:05:55Z</time></trkpt><trkpt lat="43.94200365034264" lon="11.704169345171758"><ele>797.0</ele><time>2026-04-14T08:05:56Z</time></trkpt><trkpt lat="43.94201675864035" lon="11.704037752381808"><ele>801.0</ele><time>2026-04-14T08:05:57Z</time></trkpt><trkpt lat="43.94205715524779" lon="11.703926827023045"><ele>805.0</ele><time>2026-04-14T08:05:58Z</time></trkpt><trkpt lat="43.94213430074908" lon="11.70386903330558"><ele>804.9999999999999</ele><time>2026-04-14T08:05:59Z</time></trkpt><trkpt lat="43.94221812687728" lon="11.70384600843163"><ele>805.0</ele><time>2026-04-14T08:06:00Z</time></trkpt><trkpt lat="43.942293356303026" lon="11.703827671681088"><ele>805.0</ele><time>2026-04-14T08:06:01Z</time></trkpt><trkpt lat="43.94234977640354" lon="11.703733019505137"><ele>805.0</ele><time>2026-04-14T08:06:02Z</time></trkpt><trkpt lat="43.94238980765626" lon="11.703611962086253"><ele>804.9999999999999</ele><time>2026-04-14T08:06:03Z</time></trkpt><trkpt lat="43.94242246274569" lon="11.70348634484703"><ele>805.0</ele><time>2026-04-14T08:06:04Z</time></trkpt><trkpt lat="43.94242287208547" lon="11.70337052105064"><ele>803.6</ele><time>2026-04-14T08:06:05Z</time></trkpt><trkpt lat="43.94239774065001" lon="11.703272926698807"><ele>802.2</ele><time>2026-04-14T08:06:06Z</time></trkpt><trkpt lat="43.94234221606168" lon="11.703191902898544"><ele>800.8</ele><time>2026-04-14T08:06:07Z</time></trkpt><trkpt lat="43.94226112497193" lon="11.703136011151953"><ele>799.4</ele><time>2026-04-14T08:06:08Z</time></trkpt><trkpt lat="43.942152360449136" lon="11.703100462454497"><ele>798.0</ele><time>2026-04-14T08:06:09Z</time></trkpt><trkpt lat="43.94203957619687" lon="11.703074374242368"><ele>798.0</ele><time>2026-04-14T08:06:10Z</time></trkpt><trkpt lat="43.941926558421216" lon="11.703039555578245"><ele>798.0</ele><time>2026-04-14T08:06:11Z</time></trkpt><trkpt lat="43.94183109587437" lon="11.703010631167135"><ele>798.0</ele><time>2026-04-14T08:06:12Z</time></trkpt><trkpt lat="43.94175427666833" lon="11.703000134781432"><ele>798.0</ele><time>2026-04-14T08:06:13Z</time></trkpt><trkpt lat="43.941685860896264" lon="11.703005182546592"><ele>798.0</ele><time>2026-04-14T08:06:14Z</time></trkpt><trkpt lat="43.941577565124305" lon="11.703097680972231"><ele>796.4</ele><time>2026-04-14T08:06:16Z</time></trkpt><trkpt lat="43.94153643407082" lon="11.703192120071664"><ele>794.8</ele><time>2026-04-14T08:06:17Z</time></trkpt><trkpt lat="43.94149099484255" lon="11.70329830999701"><ele>793.2</ele><time>2026-04-14T08:06:18Z</time></trkpt><trkpt lat="43.941457633138455" lon="11.703441560012159"><ele>791.6</ele><time>2026-04-14T08:06:19Z</time></trkpt><trkpt lat="43.941415751692126" lon="11.703580390809751"><ele>790.0</ele><time>2026-04-14T08:06:20Z</time></trkpt><trkpt lat="43.94137098639172" lon="11.703710769423997"><ele>788.4999999999999</ele><time>2026-04-14T08:06:21Z</time></trkpt><trkpt lat="43.941322197960055" lon="11.70383009284201"><ele>787.0</ele><time>2026-04-14T08:06:22Z</time></trkpt><trkpt lat="43.941270162867475" lon="11.703934961471356"><ele>785.5</ele><time>2026-04-14T08:06:23Z</time></trkpt><trkpt lat="43.94122029048304" lon="11.704031254254334"><ele>784.0</ele><time>2026-04-14T08:06:24Z</time></trkpt><trkpt lat="43.94116842840478" lon="11.704113344662051"><ele>782.4999999999999</ele><time>2026-04-14T08:06:25Z</time></trkpt><trkpt lat="43.94108459111426" lon="11.704167225558376"><ele>781.0</ele><time>2026-04-14T08:06:26Z</time></trkpt><trkpt lat="43.94099550299279" lon="11.704202501328261"><ele>781.0</ele><time>2026-04-14T08:06:27Z</time></trkpt><trkpt lat="43.94089608882267" lon="11.704202284332785"><ele>781.0</ele><time>2026-04-14T08:06:28Z</time></trkpt><trkpt lat="43.940776960436956" lon="11.704171265924103"><ele>781.0</ele><time>2026-04-14T08:06:29Z</time></trkpt><trkpt lat="43.94066263294976" lon="11.704122284417611"><ele>781.0</ele><time>2026-04-14T08:06:30Z</time></trkpt><trkpt lat="43.94056653687336" lon="11.704070972731678"><ele>781.0</ele><time>2026-04-14T08:06:31Z</time></trkpt><trkpt lat="43.94048308407695" lon="11.703983136309045"><ele>783.1999999999999</ele><time>2026-04-14T08:06:32Z</time></trkpt><trkpt lat="43.940432378379825" lon="11.703850322139628"><ele>785.4</ele><time>2026-04-14T08:06:33Z</time></trkpt><trkpt lat="43.94039622652246" lon="11.703723462618271"><ele>787.6</ele><time>2026-04-14T08:06:34Z</time></trkpt><trkpt lat="43.9403879037714" lon="11.703585420650922"><ele>789.8</ele><time>2026-04-14T08:06:35Z</time></trkpt><trkpt lat="43.940387546776954" lon="11.70343125382659"><ele>792.0</ele><time>2026-04-14T08:06:36Z</time></trkpt><trkpt lat="43.94037662890278" lon="11.703264109989217"><ele>799.25</ele><time>2026-04-14T08:06:37Z</time></trkpt><trkpt lat="43.94034518258245" lon="11.703084723771969"><ele>806.5</ele><time>2026-04-14T08:06:38Z</time></trkpt><trkpt lat="43.940301085650454" lon="11.702917854279837"><ele>813.75</ele><time>2026-04-14T08:06:39Z</time></trkpt><trkpt lat="43.940255057590036" lon="11.702771783517615"><ele>821.0</ele><time>2026-04-14T08:06:40Z</time></trkpt><trkpt lat="43.94018898998514" lon="11.70264952975341"><ele>819.0</ele><time>2026-04-14T08:06:41Z</time></trkpt><trkpt lat="43.94009268369907" lon="11.702540786659123"><ele>817.0</ele><time>2026-04-14T08:06:42Z</time></trkpt><trkpt lat="43.93998087297496" lon="11.702460964154879"><ele>815.0</ele><time>2026-04-14T08:06:43Z</time></trkpt><trkpt lat="43.939857100975786" lon="11.702406367959957"><ele>813.0</ele><time>2026-04-14T08:06:44Z</time></trkpt><trkpt lat="43.93974980831835" lon="11.702351021606773"><ele>813.0</ele><time>2026-04-14T08:06:45Z</time></trkpt><trkpt lat="43.93966391193085" lon="11.702256139148085"><ele>813.0</ele><time>2026-04-14T08:06:46Z</time></trkpt><trkpt lat="43.939585277212444" lon="11.702130783188194"><ele>813.0</ele><time>2026-04-14T08:06:47Z</time></trkpt><trkpt lat="43.93952019458292" lon="11.701973880146857"><ele>813.0</ele><time>2026-04-14T08:06:48Z</time></trkpt><trkpt lat="43.939455091079736" lon="11.701802757963737"><ele>810.75</ele><time>2026-04-14T08:06:49Z</time></trkpt><trkpt lat="43.939393497411835" lon="11.701636425757771"><ele>808.5</ele><time>2026-04-14T08:06:50Z</time></trkpt><trkpt lat="43.93933796662913" lon="11.701484311731871"><ele>806.25</ele><time>2026-04-14T08:06:51Z</time></trkpt><trkpt lat="43.93927861182677" lon="11.701347691235096"><ele>804.0</ele><time>2026-04-14T08:06:52Z</time></trkpt><trkpt lat="43.93919752175134" lon="11.701246651376492"><ele>804.0</ele><time>2026-04-14T08:06:53Z</time></trkpt><trkpt lat="43.93911205541673" lon="11.701189613615218"><ele>804.0</ele><time>2026-04-14T08:06:54Z</time></trkpt><trkpt lat="43.93900586741935" lon="11.701154410222715"><ele>804.0</ele><time>2026-04-14T08:06:55Z</time></trkpt><trkpt lat="43.9388969431163" lon="11.701126672624438"><ele>804.0</ele><time>2026-04-14T08:06:56Z</time></trkpt><trkpt lat="43.93880716150193" lon="11.701059342248898"><ele>804.0</ele><time>2026-04-14T08:06:57Z</time></trkpt><trkpt lat="43.938728743193806" lon="11.70094793780396"><ele>809.8000000000001</ele><time>2026-04-14T08:06:58Z</time></trkpt><trkpt lat="43.93867587790796" lon="11.700805719823691"><ele>815.6</ele><time>2026-04-14T08:06:59Z</time></trkpt><trkpt lat="43.938661178404395" lon="11.700659059203975"><ele>821.4</ele><time>2026-04-14T08:07:00Z</time></trkpt><trkpt lat="43.93867795503841" lon="11.700520723686177"><ele>827.2</ele><time>2026-04-14T08:07:01Z</time></trkpt><trkpt lat="43.93871420696024" lon="11.700405874321447"><ele>833.0</ele><time>2026-04-14T08:07:02Z</time></trkpt><trkpt lat="43.93870574313222" lon="11.700303487659067"><ele>832.3333333333334</ele><time>2026-04-14T08:07:03Z</time></trkpt><trkpt lat="43.938685520202135" lon="11.700204493582715"><ele>831.6666666666667</ele><time>2026-04-14T08:07:04Z</time></trkpt><trkpt lat="43.938638716327496" lon="11.700105441080218"><ele>831.0</ele><time>2026-04-14T08:07:05Z</time></trkpt><trkpt lat="43.93857155771865" lon="11.700033778361954"><ele>830.3333333333333</ele><time>2026-04-14T08:07:06Z</time></trkpt><trkpt lat="43.938490139416835" lon="11.69998765639083"><ele>829.6666666666666</ele><time>2026-04-14T08:07:07Z</time></trkpt><trkpt lat="43.93839281776053" lon="11.699961988718822"><ele>829.0</ele><time>2026-04-14T08:07:08Z</time></trkpt><trkpt lat="43.938280103214844" lon="11.6999530929521"><ele>829.0</ele><time>2026-04-14T08:07:09Z</time></trkpt><trkpt lat="43.93815945811704" lon="11.699951394481245"><ele>829.0</ele><time>2026-04-14T08:07:10Z</time></trkpt><trkpt lat="43.93804880718774" lon="11.699928462367252"><ele>829.0</ele><time>2026-04-14T08:07:11Z</time></trkpt><trkpt lat="43.937940518864885" lon="11.6998642598173"><ele>829.0</ele><time>2026-04-14T08:07:12Z</time></trkpt><trkpt lat="43.93782538703167" lon="11.69979379324223"><ele>829.0</ele><time>2026-04-14T08:07:13Z</time></trkpt><trkpt lat="43.93770488640725" lon="11.699745545322882"><ele>829.0</ele><time>2026-04-14T08:07:14Z</time></trkpt><trkpt lat="43.93759100872394" lon="11.699730471858652"><ele>829.0</ele><time>2026-04-14T08:07:15Z</time></trkpt><trkpt lat="43.93749507457732" lon="11.699682439856282"><ele>829.0</ele><time>2026-04-14T08:07:16Z</time></trkpt><trkpt lat="43.93742029389629" lon="11.699590121873706"><ele>829.0</ele><time>2026-04-14T08:07:17Z</time></trkpt><trkpt lat="43.93736240816977" lon="11.699458976555864"><ele>829.8000000000001</ele><time>2026-04-14T08:07:18Z</time></trkpt><trkpt lat="43.937327386304574" lon="11.699320642230932"><ele>830.6</ele><time>2026-04-14T08:07:19Z</time></trkpt><trkpt lat="43.93728665910887" lon="11.699198245781185"><ele>831.4</ele><time>2026-04-14T08:07:20Z</time></trkpt><trkpt lat="43.93722008827953" lon="11.69911335308439"><ele>832.2</ele><time>2026-04-14T08:07:21Z</time></trkpt><trkpt lat="43.93713285670371" lon="11.699054862354552"><ele>833.0</ele><time>2026-04-14T08:07:22Z</time></trkpt><trkpt lat="43.9370243900424" lon="11.69903969641458"><ele>833.0</ele><time>2026-04-14T08:07:23Z</time></trkpt><trkpt lat="43.936912124373364" lon="11.699032102707564"><ele>833.0</ele><time>2026-04-14T08:07:24Z</time></trkpt><trkpt lat="43.936811667665815" lon="11.69899168099369"><ele>833.0</ele><time>2026-04-14T08:07:25Z</time></trkpt><trkpt lat="43.936721741924714" lon="11.698906433754356"><ele>833.0</ele><time>2026-04-14T08:07:26Z</time></trkpt><trkpt lat="43.936643719708556" lon="11.698787811538292"><ele>833.0</ele><time>2026-04-14T08:07:27Z</time></trkpt><trkpt lat="43.93658793074736" lon="11.69864358723595"><ele>833.5</ele><time>2026-04-14T08:07:28Z</time></trkpt><trkpt lat="43.93655576454635" lon="11.698471657772346"><ele>834.0</ele><time>2026-04-14T08:07:29Z</time></trkpt><trkpt lat="43.93653387674629" lon="11.698292657581238"><ele>834.5</ele><time>2026-04-14T08:07:30Z</time></trkpt><trkpt lat="43.936514525112635" lon="11.698119764888238"><ele>835.0</ele><time>2026-04-14T08:07:31Z</time></trkpt><trkpt lat="43.93647813558643" lon="11.697975784199487"><ele>835.0</ele><time>2026-04-14T08:07:32Z</time></trkpt><trkpt lat="43.936432233398754" lon="11.697848095431992"><ele>835.0</ele><time>2026-04-14T08:07:33Z</time></trkpt><trkpt lat="43.936398793312605" lon="11.697716799016087"><ele>835.0</ele><time>2026-04-14T08:07:34Z</time></trkpt><trkpt lat="43.936404105643966" lon="11.697589865605384"><ele>835.0</ele><time>2026-04-14T08:07:35Z</time></trkpt><trkpt lat="43.93642456351373" lon="11.697490300581556"><ele>835.0</ele><time>2026-04-14T08:07:36Z</time></trkpt><trkpt lat="43.93640309078316" lon="11.697326128328525"><ele>838.8</ele><time>2026-04-14T08:07:38Z</time></trkpt><trkpt lat="43.93635764492633" lon="11.697249510991298"><ele>842.6</ele><time>2026-04-14T08:07:39Z</time></trkpt><trkpt lat="43.93628410782938" lon="11.697189401976173"><ele>846.4000000000001</ele><time>2026-04-14T08:07:40Z</time></trkpt><trkpt lat="43.9361920578394" lon="11.697147072506194"><ele>850.2</ele><time>2026-04-14T08:07:41Z</time></trkpt><trkpt lat="43.93608961651319" lon="11.697092238587441"><ele>854.0</ele><time>2026-04-14T08:07:42Z</time></trkpt><trkpt lat="43.93598726284088" lon="11.697006913152373"><ele>853.2</ele><time>2026-04-14T08:07:43Z</time></trkpt><trkpt lat="43.93587983049291" lon="11.696939668072531"><ele>852.4000000000001</ele><time>2026-04-14T08:07:44Z</time></trkpt><trkpt lat="43.935767253290415" lon="11.696891209143464"><ele>851.6</ele><time>2026-04-14T08:07:45Z</time></trkpt><trkpt lat="43.935666150540484" lon="11.696842173287628"><ele>850.8</ele><time>2026-04-14T08:07:46Z</time></trkpt><trkpt lat="43.935579655683846" lon="11.696775111796782"><ele>850.0</ele><time>2026-04-14T08:07:47Z</time></trkpt><trkpt lat="43.93551138115621" lon="11.69665658343209"><ele>850.0</ele><time>2026-04-14T08:07:48Z</time></trkpt><trkpt lat="43.935457383844366" lon="11.696508987477658"><ele>850.0</ele><time>2026-04-14T08:07:49Z</time></trkpt><trkpt lat="43.93541810235497" lon="11.696342112056122"><ele>850.0</ele><time>2026-04-14T08:07:50Z</time></trkpt><trkpt lat="43.93537311524844" lon="11.696183942444012"><ele>850.0</ele><time>2026-04-14T08:07:51Z</time></trkpt><trkpt lat="43.93530376459273" lon="11.696043784237451"><ele>847.75</ele><time>2026-04-14T08:07:52Z</time></trkpt><trkpt lat="43.9352046036063" lon="11.695929015838406"><ele>845.5</ele><time>2026-04-14T08:07:53Z</time></trkpt><trkpt lat="43.93508315764069" lon="11.69582715033482"><ele>843.25</ele><time>2026-04-14T08:07:54Z</time></trkpt><trkpt lat="43.93498259934147" lon="11.695737090706963"><ele>841.0</ele><time>2026-04-14T08:07:55Z</time></trkpt><trkpt lat="43.934890252419216" lon="11.69564345404252"><ele>841.0</ele><time>2026-04-14T08:07:56Z</time></trkpt><trkpt lat="43.93481516099598" lon="11.695533367717083"><ele>841.0</ele><time>2026-04-14T08:07:57Z</time></trkpt><trkpt lat="43.93476266492612" lon="11.695398270314971"><ele>841.0</ele><time>2026-04-14T08:07:58Z</time></trkpt><trkpt lat="43.93475312595267" lon="11.695255867205722"><ele>841.0</ele><time>2026-04-14T08:07:59Z</time></trkpt><trkpt lat="43.934779146579295" lon="11.695129928002281"><ele>841.0</ele><time>2026-04-14T08:08:00Z</time></trkpt><trkpt lat="43.93483426908487" lon="11.695027487215773"><ele>842.0</ele><time>2026-04-14T08:08:01Z</time></trkpt><trkpt lat="43.93491549878884" lon="11.69495834664258"><ele>843.0</ele><time>2026-04-14T08:08:02Z</time></trkpt><trkpt lat="43.93501426606421" lon="11.694908093964623"><ele>844.0</ele><time>2026-04-14T08:08:03Z</time></trkpt><trkpt lat="43.93512784645676" lon="11.69484049101372"><ele>845.0</ele><time>2026-04-14T08:08:04Z</time></trkpt><trkpt lat="43.93522431047144" lon="11.694731186723457"><ele>846.0</ele><time>2026-04-14T08:08:05Z</time></trkpt><trkpt lat="43.9352928552924" lon="11.694611504023388"><ele>849.5</ele><time>2026-04-14T08:08:06Z</time></trkpt><trkpt lat="43.93536579816893" lon="11.694500027168065"><ele>853.0</ele><time>2026-04-14T08:08:07Z</time></trkpt><trkpt lat="43.93545758785161" lon="11.694413786048976"><ele>856.5</ele><time>2026-04-14T08:08:08Z</time></trkpt><trkpt lat="43.93556490310444" lon="11.694366211125317"><ele>860.0</ele><time>2026-04-14T08:08:09Z</time></trkpt><trkpt lat="43.93568131330069" lon="11.6943317517793"><ele>860.0</ele><time>2026-04-14T08:08:10Z</time></trkpt><trkpt lat="43.9358003339161" lon="11.694275398597393"><ele>860.0</ele><time>2026-04-14T08:08:11Z</time></trkpt><trkpt lat="43.93590152647147" lon="11.694210580481451"><ele>860.0</ele><time>2026-04-14T08:08:12Z</time></trkpt><trkpt lat="43.935988244053476" lon="11.69414125182084"><ele>860.0</ele><time>2026-04-14T08:08:13Z</time></trkpt><trkpt lat="43.93607291121001" lon="11.694078035584537"><ele>860.0</ele><time>2026-04-14T08:08:14Z</time></trkpt><trkpt lat="43.936148596687474" lon="11.69402365917389"><ele>861.7142857142857</ele><time>2026-04-14T08:08:15Z</time></trkpt><trkpt lat="43.93621769315727" lon="11.69396452037936"><ele>863.4285714285714</ele><time>2026-04-14T08:08:16Z</time></trkpt><trkpt lat="43.936263372649" lon="11.69387047225349"><ele>865.1428571428571</ele><time>2026-04-14T08:08:17Z</time></trkpt><trkpt lat="43.93628118668401" lon="11.693766223289105"><ele>866.8571428571429</ele><time>2026-04-14T08:08:18Z</time></trkpt><trkpt lat="43.93627097698536" lon="11.69367888784213"><ele>868.5714285714287</ele><time>2026-04-14T08:08:19Z</time></trkpt><trkpt lat="43.93623613661661" lon="11.693603823014625"><ele>870.2857142857143</ele><time>2026-04-14T08:08:20Z</time></trkpt><trkpt lat="43.93618259402066" lon="11.69355409711055"><ele>872.0</ele><time>2026-04-14T08:08:21Z</time></trkpt><trkpt lat="43.9361093248202" lon="11.693534427170638"><ele>872.0000000000001</ele><time>2026-04-14T08:08:22Z</time></trkpt><trkpt lat="43.936037887915326" lon="11.693525105207742"><ele>872.0</ele><time>2026-04-14T08:08:23Z</time></trkpt><trkpt lat="43.9359628213557" lon="11.693554608735415"><ele>872.0</ele><time>2026-04-14T08:08:24Z</time></trkpt><trkpt lat="43.935887907139275" lon="11.693613518725687"><ele>872.0</ele><time>2026-04-14T08:08:25Z</time></trkpt><trkpt lat="43.93580063585532" lon="11.69369929725013"><ele>872.0000000000001</ele><time>2026-04-14T08:08:26Z</time></trkpt><trkpt lat="43.93571669919695" lon="11.693742713371327"><ele>872.0</ele><time>2026-04-14T08:08:27Z</time></trkpt><trkpt lat="43.93560887004736" lon="11.693746203095579"><ele>870.8</ele><time>2026-04-14T08:08:28Z</time></trkpt><trkpt lat="43.935505643575475" lon="11.693713537274657"><ele>869.6</ele><time>2026-04-14T08:08:29Z</time></trkpt><trkpt lat="43.9354322158731" lon="11.693631830238969"><ele>868.3999999999999</ele><time>2026-04-14T08:08:30Z</time></trkpt><trkpt lat="43.93538903679981" lon="11.693525710931869"><ele>867.1999999999999</ele><time>2026-04-14T08:08:31Z</time></trkpt><trkpt lat="43.93527494346327" lon="11.693447501595173"><ele>866.0</ele><time>2026-04-14T08:08:33Z</time></trkpt><trkpt lat="43.93519743300919" lon="11.693460277273722"><ele>866.0</ele><time>2026-04-14T08:08:34Z</time></trkpt><trkpt lat="43.93511264279417" lon="11.69350745116091"><ele>865.9999999999999</ele><time>2026-04-14T08:08:35Z</time></trkpt><trkpt lat="43.935022164728025" lon="11.693586692088584"><ele>865.9999999999999</ele><time>2026-04-14T08:08:36Z</time></trkpt><trkpt lat="43.93492316624174" lon="11.693687398698849"><ele>866.0</ele><time>2026-04-14T08:08:37Z</time></trkpt><trkpt lat="43.93482728868752" lon="11.693769164858518"><ele>866.0</ele><time>2026-04-14T08:08:38Z</time></trkpt><trkpt lat="43.934718706769516" lon="11.693798502747324"><ele>862.1999999999999</ele><time>2026-04-14T08:08:39Z</time></trkpt><trkpt lat="43.934598727972826" lon="11.693808984384628"><ele>858.3999999999999</ele><time>2026-04-14T08:08:40Z</time></trkpt><trkpt lat="43.93449717606276" lon="11.693826973962373"><ele>854.6</ele><time>2026-04-14T08:08:41Z</time></trkpt><trkpt lat="43.93440575586631" lon="11.693881522824194"><ele>850.8</ele><time>2026-04-14T08:08:42Z</time></trkpt><trkpt lat="43.934330285585744" lon="11.693971138743578"><ele>847.0</ele><time>2026-04-14T08:08:43Z</time></trkpt><trkpt lat="43.934268721889694" lon="11.694072982841536"><ele>848.6</ele><time>2026-04-14T08:08:44Z</time></trkpt><trkpt lat="43.93419932759152" lon="11.694133248353053"><ele>850.2</ele><time>2026-04-14T08:08:45Z</time></trkpt><trkpt lat="43.93411401576258" lon="11.694155221389217"><ele>851.8</ele><time>2026-04-14T08:08:46Z</time></trkpt><trkpt lat="43.93401267440506" lon="11.694126530599384"><ele>853.4</ele><time>2026-04-14T08:08:47Z</time></trkpt><trkpt lat="43.933907007961054" lon="11.694056228387598"><ele>855.0</ele><time>2026-04-14T08:08:48Z</time></trkpt><trkpt lat="43.93380006834184" lon="11.693971914456851"><ele>855.0</ele><time>2026-04-14T08:08:49Z</time></trkpt><trkpt lat="43.93371150626595" lon="11.69388569404174"><ele>855.0</ele><time>2026-04-14T08:08:50Z</time></trkpt><trkpt lat="43.93364086250737" lon="11.693792591591956"><ele>855.0</ele><time>2026-04-14T08:08:51Z</time></trkpt><trkpt lat="43.93359368073485" lon="11.69367303408746"><ele>855.0</ele><time>2026-04-14T08:08:52Z</time></trkpt><trkpt lat="43.93358360232076" lon="11.69353971706777"><ele>855.0</ele><time>2026-04-14T08:08:53Z</time></trkpt><trkpt lat="43.93361036879483" lon="11.69339713853988"><ele>861.0</ele><time>2026-04-14T08:08:54Z</time></trkpt><trkpt lat="43.933644806550134" lon="11.69324320815085"><ele>867.0</ele><time>2026-04-14T08:08:55Z</time></trkpt><trkpt lat="43.93367095314378" lon="11.69306932682965"><ele>873.0</ele><time>2026-04-14T08:08:56Z</time></trkpt><trkpt lat="43.93369747180876" lon="11.692881351488907"><ele>879.0</ele><time>2026-04-14T08:08:57Z</time></trkpt><trkpt lat="43.933727264549695" lon="11.692687452693312"><ele>881.75</ele><time>2026-04-14T08:08:58Z</time></trkpt><trkpt lat="43.933758113322085" lon="11.692499801657444"><ele>884.5</ele><time>2026-04-14T08:08:59Z</time></trkpt><trkpt lat="43.93378049953343" lon="11.692324890156023"><ele>887.25</ele><time>2026-04-14T08:09:00Z</time></trkpt><trkpt lat="43.93380902033267" lon="11.692162963500182"><ele>890.0</ele><time>2026-04-14T08:09:01Z</time></trkpt><trkpt lat="43.93384643176599" lon="11.692013704820292"><ele>890.4</ele><time>2026-04-14T08:09:02Z</time></trkpt><trkpt lat="43.933905654242075" lon="11.691890210682548"><ele>890.8</ele><time>2026-04-14T08:09:03Z</time></trkpt><trkpt lat="43.93397210051129" lon="11.691790938437071"><ele>891.2</ele><time>2026-04-14T08:09:04Z</time></trkpt><trkpt lat="43.93402310894553" lon="11.691690270090515"><ele>891.6</ele><time>2026-04-14T08:09:05Z</time></trkpt><trkpt lat="43.934048906354654" lon="11.691576240464483"><ele>892.0</ele><time>2026-04-14T08:09:06Z</time></trkpt><trkpt lat="43.934040571378524" lon="11.691464235673251"><ele>891.9999999999999</ele><time>2026-04-14T08:09:07Z</time></trkpt><trkpt lat="43.934001235568736" lon="11.69137063409428"><ele>892.0</ele><time>2026-04-14T08:09:08Z</time></trkpt><trkpt lat="43.93393840484902" lon="11.691313877835933"><ele>892.0</ele><time>2026-04-14T08:09:09Z</time></trkpt><trkpt lat="43.933857712509294" lon="11.691273540006573"><ele>892.0</ele><time>2026-04-14T08:09:10Z</time></trkpt><trkpt lat="43.93377082802457" lon="11.691248246046118"><ele>891.9999999999999</ele><time>2026-04-14T08:09:11Z</time></trkpt><trkpt lat="43.933700401320976" lon="11.691207282333338"><ele>892.0</ele><time>2026-04-14T08:09:12Z</time></trkpt><trkpt lat="43.933643683079666" lon="11.691119638569756"><ele>894.0</ele><time>2026-04-14T08:09:13Z</time></trkpt><trkpt lat="43.933604639185226" lon="11.690999942996264"><ele>896.0</ele><time>2026-04-14T08:09:14Z</time></trkpt><trkpt lat="43.93357874307388" lon="11.6908551856371"><ele>898.0</ele><time>2026-04-14T08:09:15Z</time></trkpt><trkpt lat="43.93356400922739" lon="11.690670676302826"><ele>900.0</ele><time>2026-04-14T08:09:16Z</time></trkpt><trkpt lat="43.93356262268768" lon="11.690494984839512"><ele>900.0</ele><time>2026-04-14T08:09:17Z</time></trkpt><trkpt lat="43.93356360456674" lon="11.690320373111474"><ele>900.0</ele><time>2026-04-14T08:09:18Z</time></trkpt><trkpt lat="43.93359443133703" lon="11.690134698629954"><ele>900.0</ele><time>2026-04-14T08:09:19Z</time></trkpt><trkpt lat="43.933644254002864" lon="11.689931177683833"><ele>900.0</ele><time>2026-04-14T08:09:20Z</time></trkpt><trkpt lat="43.93370673323646" lon="11.68971399481424"><ele>900.3333333333333</ele><time>2026-04-14T08:09:21Z</time></trkpt><trkpt lat="43.93377566581958" lon="11.689493608630713"><ele>900.6666666666666</ele><time>2026-04-14T08:09:22Z</time></trkpt><trkpt lat="43.933842417534414" lon="11.68930218723448"><ele>901.0</ele><time>2026-04-14T08:09:23Z</time></trkpt><trkpt lat="43.93390479213384" lon="11.689118031619296"><ele>898.75</ele><time>2026-04-14T08:09:24Z</time></trkpt><trkpt lat="43.93394456407085" lon="11.688934718661205"><ele>896.5</ele><time>2026-04-14T08:09:25Z</time></trkpt><trkpt lat="43.93396116350966" lon="11.688757731117853"><ele>894.25</ele><time>2026-04-14T08:09:26Z</time></trkpt><trkpt lat="43.93394861385553" lon="11.688582873818115"><ele>892.0</ele><time>2026-04-14T08:09:27Z</time></trkpt><trkpt lat="43.93394024741632" lon="11.688426035866932"><ele>889.4000000000001</ele><time>2026-04-14T08:09:28Z</time></trkpt><trkpt lat="43.933955357590214" lon="11.6882883208255"><ele>886.8000000000001</ele><time>2026-04-14T08:09:29Z</time></trkpt><trkpt lat="43.934000649771136" lon="11.68816671814614"><ele>884.2</ele><time>2026-04-14T08:09:30Z</time></trkpt><trkpt lat="43.93408477402043" lon="11.688074466771246"><ele>881.6</ele><time>2026-04-14T08:09:31Z</time></trkpt><trkpt lat="43.93418544439467" lon="11.687991328148804"><ele>879.0</ele><time>2026-04-14T08:09:32Z</time></trkpt><trkpt lat="43.934287876360706" lon="11.687907338716757"><ele>884.4000000000001</ele><time>2026-04-14T08:09:33Z</time></trkpt><trkpt lat="43.93437594767513" lon="11.687831945971611"><ele>889.8000000000001</ele><time>2026-04-14T08:09:34Z</time></trkpt><trkpt lat="43.93444951889508" lon="11.687745620496464"><ele>895.1999999999999</ele><time>2026-04-14T08:09:35Z</time></trkpt><trkpt lat="43.93449951932718" lon="11.687637998622241"><ele>900.5999999999999</ele><time>2026-04-14T08:09:36Z</time></trkpt><trkpt lat="43.93452579752004" lon="11.68750838445521"><ele>906.0</ele><time>2026-04-14T08:09:37Z</time></trkpt><trkpt lat="43.9345143026163" lon="11.687383034028135"><ele>906.0</ele><time>2026-04-14T08:09:38Z</time></trkpt><trkpt lat="43.93447382503605" lon="11.687273279907195"><ele>905.9999999999999</ele><time>2026-04-14T08:09:39Z</time></trkpt><trkpt lat="43.934431874293466" lon="11.687163366770346"><ele>905.9999999999999</ele><time>2026-04-14T08:09:40Z</time></trkpt><trkpt lat="43.934425286189516" lon="11.687043374958096"><ele>906.0</ele><time>2026-04-14T08:09:41Z</time></trkpt><trkpt lat="43.934462635640045" lon="11.686929073168873"><ele>906.0</ele><time>2026-04-14T08:09:42Z</time></trkpt><trkpt lat="43.93452746457105" lon="11.686834273290046"><ele>905.5</ele><time>2026-04-14T08:09:43Z</time></trkpt><trkpt lat="43.93461687735264" lon="11.686747741931521"><ele>905.0</ele><time>2026-04-14T08:09:44Z</time></trkpt><trkpt lat="43.93472020731959" lon="11.686655568701347"><ele>904.5</ele><time>2026-04-14T08:09:45Z</time></trkpt><trkpt lat="43.93481610089628" lon="11.686563478707257"><ele>904.0</ele><time>2026-04-14T08:09:46Z</time></trkpt><trkpt lat="43.934899298809285" lon="11.686473636662038"><ele>903.9999999999999</ele><time>2026-04-14T08:09:47Z</time></trkpt><trkpt lat="43.93496712850017" lon="11.686385148880081"><ele>904.0</ele><time>2026-04-14T08:09:48Z</time></trkpt><trkpt lat="43.93500786911395" lon="11.686278942107823"><ele>904.0</ele><time>2026-04-14T08:09:49Z</time></trkpt><trkpt lat="43.93501573104096" lon="11.686160052158222"><ele>904.0</ele><time>2026-04-14T08:09:50Z</time></trkpt><trkpt lat="43.934977962871216" lon="11.68605702265973"><ele>903.9999999999999</ele><time>2026-04-14T08:09:51Z</time></trkpt><trkpt lat="43.93491108166" lon="11.685972359855999"><ele>904.0</ele><time>2026-04-14T08:09:52Z</time></trkpt><trkpt lat="43.934822052476875" lon="11.685893175299952"><ele>902.0</ele><time>2026-04-14T08:09:53Z</time></trkpt><trkpt lat="43.93472530647162" lon="11.685817371758105"><ele>900.0000000000001</ele><time>2026-04-14T08:09:54Z</time></trkpt><trkpt lat="43.93462589326847" lon="11.685740343621518"><ele>898.0000000000001</ele><time>2026-04-14T08:09:55Z</time></trkpt><trkpt lat="43.93453859674096" lon="11.685665098626755"><ele>896.0</ele><time>2026-04-14T08:09:56Z</time></trkpt><trkpt lat="43.93444155935711" lon="11.685607126456704"><ele>894.0</ele><time>2026-04-14T08:09:57Z</time></trkpt><trkpt lat="43.9343362167261" lon="11.68557680438361"><ele>894.0</ele><time>2026-04-14T08:09:58Z</time></trkpt><trkpt lat="43.93422445100601" lon="11.685586219336344"><ele>894.0</ele><time>2026-04-14T08:09:59Z</time></trkpt><trkpt lat="43.93410640518662" lon="11.68563466246453"><ele>894.0</ele><time>2026-04-14T08:10:00Z</time></trkpt><trkpt lat="43.933978673615194" lon="11.685701213830422"><ele>894.0</ele><time>2026-04-14T08:10:01Z</time></trkpt><trkpt lat="43.933843857303565" lon="11.68577371772296"><ele>893.75</ele><time>2026-04-14T08:10:02Z</time></trkpt><trkpt lat="43.93372194945069" lon="11.685837533050117"><ele>893.5</ele><time>2026-04-14T08:10:03Z</time></trkpt><trkpt lat="43.9336107021492" lon="11.68589644425187"><ele>893.25</ele><time>2026-04-14T08:10:04Z</time></trkpt><trkpt lat="43.93351272200934" lon="11.685969126551027"><ele>893.0</ele><time>2026-04-14T08:10:05Z</time></trkpt><trkpt lat="43.93343214256629" lon="11.68606823682346"><ele>896.0</ele><time>2026-04-14T08:10:06Z</time></trkpt><trkpt lat="43.933377361500305" lon="11.686204496678759"><ele>899.0</ele><time>2026-04-14T08:10:07Z</time></trkpt><trkpt lat="43.93335412971818" lon="11.68635447898815"><ele>902.0</ele><time>2026-04-14T08:10:08Z</time></trkpt><trkpt lat="43.933359326728386" lon="11.686515980503282"><ele>905.0</ele><time>2026-04-14T08:10:09Z</time></trkpt><trkpt lat="43.93338003266194" lon="11.686675023268752"><ele>902.0</ele><time>2026-04-14T08:10:10Z</time></trkpt><trkpt lat="43.93338954235446" lon="11.686816006669796"><ele>899.0</ele><time>2026-04-14T08:10:11Z</time></trkpt><trkpt lat="43.933363175339856" lon="11.686958851676563"><ele>896.0</ele><time>2026-04-14T08:10:12Z</time></trkpt><trkpt lat="43.933303885199706" lon="11.687091114262342"><ele>893.0</ele><time>2026-04-14T08:10:13Z</time></trkpt><trkpt lat="43.93321297706566" lon="11.68719899292689"><ele>890.0</ele><time>2026-04-14T08:10:14Z</time></trkpt><trkpt lat="43.933100616932144" lon="11.687308179329616"><ele>890.0</ele><time>2026-04-14T08:10:15Z</time></trkpt><trkpt lat="43.93301251681179" lon="11.687457155333156"><ele>890.0</ele><time>2026-04-14T08:10:16Z</time></trkpt><trkpt lat="43.93294339014363" lon="11.687615135800915"><ele>890.0</ele><time>2026-04-14T08:10:17Z</time></trkpt><trkpt lat="43.932864709705925" lon="11.68777458722678"><ele>890.0</ele><time>2026-04-14T08:10:18Z</time></trkpt><trkpt lat="43.93276472254423" lon="11.687927624618807"><ele>892.75</ele><time>2026-04-14T08:10:19Z</time></trkpt><trkpt lat="43.93265315526896" lon="11.68805851768265"><ele>895.5</ele><time>2026-04-14T08:10:20Z</time></trkpt><trkpt lat="43.93253937052672" lon="11.688155991419128"><ele>898.25</ele><time>2026-04-14T08:10:21Z</time></trkpt><trkpt lat="43.93242955829182" lon="11.6882290879243"><ele>901.0</ele><time>2026-04-14T08:10:22Z</time></trkpt><trkpt lat="43.932327673772896" lon="11.688289069473665"><ele>901.0</ele><time>2026-04-14T08:10:23Z</time></trkpt><trkpt lat="43.93224487794959" lon="11.688336435879274"><ele>900.9999999999999</ele><time>2026-04-14T08:10:24Z</time></trkpt><trkpt lat="43.932162127007544" lon="11.688342752535396"><ele>900.9999999999999</ele><time>2026-04-14T08:10:25Z</time></trkpt><trkpt lat="43.93208623634504" lon="11.688284701409371"><ele>901.0</ele><time>2026-04-14T08:10:26Z</time></trkpt><trkpt lat="43.932026481465876" lon="11.688178128894648"><ele>901.0</ele><time>2026-04-14T08:10:27Z</time></trkpt><trkpt lat="43.931972108835915" lon="11.68804967397281"><ele>901.0</ele><time>2026-04-14T08:10:28Z</time></trkpt><trkpt lat="43.931920810400065" lon="11.687895157464771"><ele>901.0</ele><time>2026-04-14T08:10:29Z</time></trkpt><trkpt lat="43.93188428709275" lon="11.687715933571699"><ele>901.0</ele><time>2026-04-14T08:10:30Z</time></trkpt><trkpt lat="43.931859560077505" lon="11.687521704320078"><ele>901.0</ele><time>2026-04-14T08:10:31Z</time></trkpt><trkpt lat="43.93184011580408" lon="11.687310791312825"><ele>903.0</ele><time>2026-04-14T08:10:32Z</time></trkpt><trkpt lat="43.93179805385126" lon="11.687115926898704"><ele>905.0</ele><time>2026-04-14T08:10:33Z</time></trkpt><trkpt lat="43.931750555497" lon="11.686932866987334"><ele>907.0</ele><time>2026-04-14T08:10:34Z</time></trkpt><trkpt lat="43.931719817797244" lon="11.686744981150726"><ele>909.0</ele><time>2026-04-14T08:10:35Z</time></trkpt><trkpt lat="43.93172691700338" lon="11.686552864352642"><ele>915.5</ele><time>2026-04-14T08:10:36Z</time></trkpt><trkpt lat="43.93174866317411" lon="11.686363204491443"><ele>922.0</ele><time>2026-04-14T08:10:37Z</time></trkpt><trkpt lat="43.93176806129164" lon="11.686172379633108"><ele>928.5</ele><time>2026-04-14T08:10:38Z</time></trkpt><trkpt lat="43.931786937386796" lon="11.68597599565436"><ele>935.0</ele><time>2026-04-14T08:10:39Z</time></trkpt><trkpt lat="43.93180621337936" lon="11.685780528675352"><ele>936.0</ele><time>2026-04-14T08:10:40Z</time></trkpt><trkpt lat="43.93182726050629" lon="11.685591950392547"><ele>937.0</ele><time>2026-04-14T08:10:41Z</time></trkpt><trkpt lat="43.931854381849966" lon="11.685419263118911"><ele>938.0</ele><time>2026-04-14T08:10:42Z</time></trkpt><trkpt lat="43.93186031558018" lon="11.68525709004946"><ele>939.0</ele><time>2026-04-14T08:10:43Z</time></trkpt><trkpt lat="43.93183638999806" lon="11.68508822323066"><ele>942.0</ele><time>2026-04-14T08:10:44Z</time></trkpt><trkpt lat="43.931785078828945" lon="11.684923243332817"><ele>945.0</ele><time>2026-04-14T08:10:45Z</time></trkpt><trkpt lat="43.9317182472063" lon="11.684777673563817"><ele>948.0</ele><time>2026-04-14T08:10:46Z</time></trkpt><trkpt lat="43.931635282684994" lon="11.684674052877535"><ele>951.0</ele><time>2026-04-14T08:10:47Z</time></trkpt><trkpt lat="43.93153122326044" lon="11.684606625564387"><ele>948.5999999999999</ele><time>2026-04-14T08:10:48Z</time></trkpt><trkpt lat="43.931424131716696" lon="11.684552408637986"><ele>946.1999999999999</ele><time>2026-04-14T08:10:49Z</time></trkpt><trkpt lat="43.93134007202364" lon="11.684462373901992"><ele>943.8000000000001</ele><time>2026-04-14T08:10:50Z</time></trkpt><trkpt lat="43.93128628111371" lon="11.684335990355482"><ele>941.4000000000001</ele><time>2026-04-14T08:10:51Z</time></trkpt><trkpt lat="43.931253884599485" lon="11.684178167122095"><ele>939.0</ele><time>2026-04-14T08:10:52Z</time></trkpt><trkpt lat="43.931253820465884" lon="11.68400733112371"><ele>939.0</ele><time>2026-04-14T08:10:53Z</time></trkpt><trkpt lat="43.93128504430601" lon="11.683863332291086"><ele>939.0000000000001</ele><time>2026-04-14T08:10:54Z</time></trkpt><trkpt lat="43.93130103674702" lon="11.683718205791404"><ele>939.0000000000001</ele><time>2026-04-14T08:10:55Z</time></trkpt><trkpt lat="43.93128729923509" lon="11.683568028268047"><ele>939.0</ele><time>2026-04-14T08:10:56Z</time></trkpt><trkpt lat="43.93124789708656" lon="11.683410661971212"><ele>939.0</ele><time>2026-04-14T08:10:57Z</time></trkpt><trkpt lat="43.93119794686401" lon="11.683248937023535"><ele>937.5</ele><time>2026-04-14T08:10:58Z</time></trkpt><trkpt lat="43.93113224719939" lon="11.683079882102275"><ele>936.0</ele><time>2026-04-14T08:10:59Z</time></trkpt><trkpt lat="43.93105045916348" lon="11.682916954045528"><ele>934.5</ele><time>2026-04-14T08:11:00Z</time></trkpt><trkpt lat="43.930955721658535" lon="11.68275997776408"><ele>933.0</ele><time>2026-04-14T08:11:01Z</time></trkpt><trkpt lat="43.930868806939436" lon="11.682593106140592"><ele>933.0</ele><time>2026-04-14T08:11:02Z</time></trkpt><trkpt lat="43.93078990810746" lon="11.682410428612775"><ele>933.0</ele><time>2026-04-14T08:11:03Z</time></trkpt><trkpt lat="43.93072978965242" lon="11.682219647695604"><ele>933.0</ele><time>2026-04-14T08:11:04Z</time></trkpt><trkpt lat="43.9306885889095" lon="11.68201815416822"><ele>934.75</ele><time>2026-04-14T08:11:05Z</time></trkpt><trkpt lat="43.930666901209655" lon="11.681820208722952"><ele>936.5</ele><time>2026-04-14T08:11:06Z</time></trkpt><trkpt lat="43.93065317793787" lon="11.681635022232202"><ele>938.25</ele><time>2026-04-14T08:11:07Z</time></trkpt><trkpt lat="43.93065792938396" lon="11.681446724416373"><ele>940.0</ele><time>2026-04-14T08:11:08Z</time></trkpt><trkpt lat="43.93069478454149" lon="11.681258947056742"><ele>941.0</ele><time>2026-04-14T08:11:09Z</time></trkpt><trkpt lat="43.93075305862313" lon="11.681073498775946"><ele>942.0</ele><time>2026-04-14T08:11:10Z</time></trkpt><trkpt lat="43.93081449163019" lon="11.680882693818576"><ele>943.0</ele><time>2026-04-14T08:11:11Z</time></trkpt><trkpt lat="43.93086840471501" lon="11.680685313704757"><ele>944.0</ele><time>2026-04-14T08:11:12Z</time></trkpt><trkpt lat="43.9309140193793" lon="11.680479291793798"><ele>954.3333333333334</ele><time>2026-04-14T08:11:13Z</time></trkpt><trkpt lat="43.930949272070166" lon="11.680263105746969"><ele>964.6666666666667</ele><time>2026-04-14T08:11:14Z</time></trkpt><trkpt lat="43.93096698046851" lon="11.680032377135648"><ele>975.0</ele><time>2026-04-14T08:11:15Z</time></trkpt><trkpt lat="43.93098343763011" lon="11.679798078206028"><ele>975.0</ele><time>2026-04-14T08:11:16Z</time></trkpt><trkpt lat="43.93100560714508" lon="11.679557191266422"><ele>975.0</ele><time>2026-04-14T08:11:17Z</time></trkpt><trkpt lat="43.931036043143706" lon="11.679323152958723"><ele>975.0</ele><time>2026-04-14T08:11:18Z</time></trkpt><trkpt lat="43.93107360119321" lon="11.679099285002772"><ele>974.0</ele><time>2026-04-14T08:11:19Z</time></trkpt><trkpt lat="43.93112624678492" lon="11.678896505968797"><ele>973.0</ele><time>2026-04-14T08:11:20Z</time></trkpt><trkpt lat="43.93117746943811" lon="11.678707545028487"><ele>972.0</ele><time>2026-04-14T08:11:21Z</time></trkpt><trkpt lat="43.931223501258785" lon="11.678535878342837"><ele>971.0</ele><time>2026-04-14T08:11:22Z</time></trkpt><trkpt lat="43.93126827151413" lon="11.678369721154258"><ele>970.25</ele><time>2026-04-14T08:11:23Z</time></trkpt><trkpt lat="43.93130262953177" lon="11.678208273299695"><ele>969.5</ele><time>2026-04-14T08:11:24Z</time></trkpt><trkpt lat="43.93132097133729" lon="11.678050861551107"><ele>968.75</ele><time>2026-04-14T08:11:25Z</time></trkpt><trkpt lat="43.93129179564288" lon="11.677902783741693"><ele>968.0</ele><time>2026-04-14T08:11:26Z</time></trkpt><trkpt lat="43.931229694477835" lon="11.677766994733918"><ele>970.25</ele><time>2026-04-14T08:11:27Z</time></trkpt><trkpt lat="43.93114922110888" lon="11.677625099289646"><ele>972.5</ele><time>2026-04-14T08:11:28Z</time></trkpt><trkpt lat="43.93107557977075" lon="11.677473970742348"><ele>974.75</ele><time>2026-04-14T08:11:29Z</time></trkpt><trkpt lat="43.93104346259421" lon="11.677311936922525"><ele>977.0</ele><time>2026-04-14T08:11:30Z</time></trkpt><trkpt lat="43.93104488533393" lon="11.677141650897278"><ele>977.0</ele><time>2026-04-14T08:11:31Z</time></trkpt><trkpt lat="43.93107145429756" lon="11.67697854504361"><ele>977.0</ele><time>2026-04-14T08:11:32Z</time></trkpt><trkpt lat="43.93110357285238" lon="11.676835456296685"><ele>977.0</ele><time>2026-04-14T08:11:33Z</time></trkpt><trkpt lat="43.93112604661528" lon="11.676714335793458"><ele>977.0</ele><time>2026-04-14T08:11:34Z</time></trkpt><trkpt lat="43.93111911754245" lon="11.676601474159792"><ele>977.0</ele><time>2026-04-14T08:11:35Z</time></trkpt><trkpt lat="43.931076260993876" lon="11.676497451677442"><ele>977.6666666666667</ele><time>2026-04-14T08:11:36Z</time></trkpt><trkpt lat="43.93100312307743" lon="11.67643165643295"><ele>978.3333333333334</ele><time>2026-04-14T08:11:37Z</time></trkpt><trkpt lat="43.9309157002586" lon="11.676417063518107"><ele>979.0</ele><time>2026-04-14T08:11:38Z</time></trkpt><trkpt lat="43.930838925347594" lon="11.676459727951908"><ele>979.6666666666667</ele><time>2026-04-14T08:11:39Z</time></trkpt><trkpt lat="43.93077387212223" lon="11.676523788317619"><ele>980.3333333333334</ele><time>2026-04-14T08:11:40Z</time></trkpt><trkpt lat="43.93069438252629" lon="11.676566999252762"><ele>981.0</ele><time>2026-04-14T08:11:41Z</time></trkpt><trkpt lat="43.93060683754333" lon="11.676532604630285"><ele>977.1999999999999</ele><time>2026-04-14T08:11:42Z</time></trkpt><trkpt lat="43.93052816866204" lon="11.676453157991757"><ele>973.3999999999999</ele><time>2026-04-14T08:11:43Z</time></trkpt><trkpt lat="43.930451423387254" lon="11.676354619302115"><ele>969.6</ele><time>2026-04-14T08:11:44Z</time></trkpt><trkpt lat="43.93037193470017" lon="11.676285053572649"><ele>965.8</ele><time>2026-04-14T08:11:45Z</time></trkpt><trkpt lat="43.93028851697737" lon="11.676248177175665"><ele>962.0</ele><time>2026-04-14T08:11:46Z</time></trkpt><trkpt lat="43.93020082833471" lon="11.676251775027954"><ele>962.0000000000001</ele><time>2026-04-14T08:11:47Z</time></trkpt><trkpt lat="43.930120535641116" lon="11.676310811749131"><ele>962.0</ele><time>2026-04-14T08:11:48Z</time></trkpt><trkpt lat="43.930062232851974" lon="11.676401025595526"><ele>962.0</ele><time>2026-04-14T08:11:49Z</time></trkpt><trkpt lat="43.93003523331145" lon="11.676511676514124"><ele>962.0</ele><time>2026-04-14T08:11:50Z</time></trkpt><trkpt lat="43.9300382981341" lon="11.676629116306438"><ele>962.0000000000001</ele><time>2026-04-14T08:11:51Z</time></trkpt><trkpt lat="43.93007045839424" lon="11.67675324557519"><ele>962.0</ele><time>2026-04-14T08:11:52Z</time></trkpt><trkpt lat="43.9301162774345" lon="11.676884852097421"><ele>961.0</ele><time>2026-04-14T08:11:53Z</time></trkpt><trkpt lat="43.93016958521739" lon="11.677038210196912"><ele>960.0</ele><time>2026-04-14T08:11:54Z</time></trkpt><trkpt lat="43.93021688057546" lon="11.677217311085872"><ele>959.0</ele><time>2026-04-14T08:11:55Z</time></trkpt><trkpt lat="43.93025454211017" lon="11.677415181957649"><ele>958.0</ele><time>2026-04-14T08:11:56Z</time></trkpt><trkpt lat="43.930285203063725" lon="11.677596888265752"><ele>958.0</ele><time>2026-04-14T08:11:57Z</time></trkpt><trkpt lat="43.930309506384745" lon="11.677755507121862"><ele>958.0</ele><time>2026-04-14T08:11:58Z</time></trkpt><trkpt lat="43.930332588037395" lon="11.677906259656714"><ele>958.0</ele><time>2026-04-14T08:11:59Z</time></trkpt><trkpt lat="43.930353990351286" lon="11.678048477841166"><ele>958.0</ele><time>2026-04-14T08:12:00Z</time></trkpt><trkpt lat="43.930363782358754" lon="11.678180805506427"><ele>958.0</ele><time>2026-04-14T08:12:01Z</time></trkpt><trkpt lat="43.930338044817205" lon="11.678303611703985"><ele>957.5999999999999</ele><time>2026-04-14T08:12:02Z</time></trkpt><trkpt lat="43.93027186900566" lon="11.678387139362156"><ele>957.1999999999999</ele><time>2026-04-14T08:12:03Z</time></trkpt><trkpt lat="43.93018586397126" lon="11.678434467498752"><ele>956.8</ele><time>2026-04-14T08:12:04Z</time></trkpt><trkpt lat="43.93009052736209" lon="11.678449253099405"><ele>956.4</ele><time>2026-04-14T08:12:05Z</time></trkpt><trkpt lat="43.9300052866493" lon="11.678481307009534"><ele>956.0</ele><time>2026-04-14T08:12:06Z</time></trkpt><trkpt lat="43.92993428363195" lon="11.678551722669853"><ele>956.8333333333334</ele><time>2026-04-14T08:12:07Z</time></trkpt><trkpt lat="43.92988441040828" lon="11.678650425518553"><ele>957.6666666666667</ele><time>2026-04-14T08:12:08Z</time></trkpt><trkpt lat="43.92987014088741" lon="11.6787778526417"><ele>958.5</ele><time>2026-04-14T08:12:09Z</time></trkpt><trkpt lat="43.929866060887605" lon="11.678909518950354"><ele>959.3333333333333</ele><time>2026-04-14T08:12:10Z</time></trkpt><trkpt lat="43.929839892840704" lon="11.679011831772174"><ele>960.1666666666666</ele><time>2026-04-14T08:12:11Z</time></trkpt><trkpt lat="43.929775875008445" lon="11.679075809281887"><ele>961.0</ele><time>2026-04-14T08:12:12Z</time></trkpt><trkpt lat="43.929694736115984" lon="11.679095382564753"><ele>961.0</ele><time>2026-04-14T08:12:13Z</time></trkpt><trkpt lat="43.92958955571999" lon="11.679079766112334"><ele>961.0</ele><time>2026-04-14T08:12:14Z</time></trkpt><trkpt lat="43.929478025412664" lon="11.679033873034298"><ele>961.0</ele><time>2026-04-14T08:12:15Z</time></trkpt><trkpt lat="43.9293664499071" lon="11.678955140997028"><ele>961.0</ele><time>2026-04-14T08:12:16Z</time></trkpt><trkpt lat="43.929263352136196" lon="11.678854157100991"><ele>963.6666666666666</ele><time>2026-04-14T08:12:17Z</time></trkpt><trkpt lat="43.92908626795086" lon="11.678626863431727"><ele>966.3333333333333</ele><time>2026-04-14T08:12:19Z</time></trkpt><trkpt lat="43.928994457122236" lon="11.678543178949926"><ele>969.0</ele><time>2026-04-14T08:12:20Z</time></trkpt><trkpt lat="43.928894227432544" lon="11.678501550548908"><ele>976.75</ele><time>2026-04-14T08:12:21Z</time></trkpt><trkpt lat="43.92878771501758" lon="11.678510161316268"><ele>984.5</ele><time>2026-04-14T08:12:22Z</time></trkpt><trkpt lat="43.928673798635" lon="11.678527230324962"><ele>992.25</ele><time>2026-04-14T08:12:23Z</time></trkpt><trkpt lat="43.928554971807046" lon="11.678523272306357"><ele>1000.0</ele><time>2026-04-14T08:12:24Z</time></trkpt><trkpt lat="43.928447047657315" lon="11.678473629487945"><ele>998.4</ele><time>2026-04-14T08:12:25Z</time></trkpt><trkpt lat="43.9283437031553" lon="11.678412579658172"><ele>996.8</ele><time>2026-04-14T08:12:26Z</time></trkpt><trkpt lat="43.92824514722514" lon="11.678360845419943"><ele>995.2</ele><time>2026-04-14T08:12:27Z</time></trkpt><trkpt lat="43.92815700250167" lon="11.678313462972996"><ele>993.6</ele><time>2026-04-14T08:12:28Z</time></trkpt><trkpt lat="43.928078881395486" lon="11.678273711680218"><ele>992.0</ele><time>2026-04-14T08:12:29Z</time></trkpt><trkpt lat="43.92801398273429" lon="11.678245177823781"><ele>992.0</ele><time>2026-04-14T08:12:30Z</time></trkpt><trkpt lat="43.9279277088282" lon="11.678207638618927"><ele>992.0000000000001</ele><time>2026-04-14T08:12:32Z</time></trkpt><trkpt lat="43.92786243824277" lon="11.6782024976529"><ele>992.0</ele><time>2026-04-14T08:14:16Z</time></trkpt><trkpt lat="43.9277936458855" lon="11.678203907282011"><ele>992.0</ele><time>2026-04-14T08:14:22Z</time></trkpt><trkpt lat="43.92772501577222" lon="11.678195959712333"><ele>992.0000000000001</ele><time>2026-04-14T08:14:28Z</time></trkpt><trkpt lat="43.927656107930794" lon="11.678210775242857"><ele>992.0</ele><time>2026-04-14T08:14:35Z</time></trkpt><trkpt lat="43.92761553937299" lon="11.678136281144575"><ele>992.0</ele><time>2026-04-14T08:14:47Z</time></trkpt><trkpt lat="43.92756348658104" lon="11.678073034800194"><ele>992.0000000000001</ele><time>2026-04-14T08:14:55Z</time></trkpt><trkpt lat="43.9275003149057" lon="11.678042397096174"><ele>992.0</ele><time>2026-04-14T08:15:02Z</time></trkpt><trkpt lat="43.92765647134133" lon="11.678099590276515"><ele>992.0</ele><time>2026-04-14T08:15:56Z</time></trkpt><trkpt lat="43.92771762905699" lon="11.678135977426233"><ele>992.0</ele><time>2026-04-14T08:16:06Z</time></trkpt><trkpt lat="43.92778591311801" lon="11.678153300696698"><ele>992.0000000000001</ele><time>2026-04-14T08:16:20Z</time></trkpt><trkpt lat="43.92784516650504" lon="11.678187350060034"><ele>992.0</ele><time>2026-04-14T08:16:37Z</time></trkpt><trkpt lat="43.92774632858354" lon="11.678158265412474"><ele>992.0</ele><time>2026-04-14T08:18:57Z</time></trkpt><trkpt lat="43.92767670324345" lon="11.678122815381913"><ele>992.0000000000001</ele><time>2026-04-14T08:18:58Z</time></trkpt><trkpt lat="43.92761247771793" lon="11.678093626231332"><ele>992.0</ele><time>2026-04-14T08:18:59Z</time></trkpt><trkpt lat="43.92754999983796" lon="11.678079685387225"><ele>992.0</ele><time>2026-04-14T08:19:00Z</time></trkpt><trkpt lat="43.92748218826504" lon="11.67806992417542"><ele>992.0000000000001</ele><time>2026-04-14T08:19:01Z</time></trkpt><trkpt lat="43.92740049931142" lon="11.678086545266876"><ele>992.0</ele><time>2026-04-14T08:19:02Z</time></trkpt><trkpt lat="43.927311357598924" lon="11.678126544658811"><ele>992.0</ele><time>2026-04-14T08:19:03Z</time></trkpt><trkpt lat="43.92721902883399" lon="11.678195433118063"><ele>990.6</ele><time>2026-04-14T08:19:04Z</time></trkpt><trkpt lat="43.92712513043167" lon="11.67827093179837"><ele>989.2</ele><time>2026-04-14T08:19:05Z</time></trkpt><trkpt lat="43.92702476537045" lon="11.678348613725559"><ele>987.8</ele><time>2026-04-14T08:19:06Z</time></trkpt><trkpt lat="43.92692821280161" lon="11.67842457532694"><ele>986.4</ele><time>2026-04-14T08:19:07Z</time></trkpt><trkpt lat="43.926826418473844" lon="11.678495151925885"><ele>985.0</ele><time>2026-04-14T08:19:08Z</time></trkpt><trkpt lat="43.92672630640209" lon="11.678566202359569"><ele>986.0</ele><time>2026-04-14T08:19:09Z</time></trkpt><trkpt lat="43.926626863274116" lon="11.67864269339385"><ele>987.0</ele><time>2026-04-14T08:19:10Z</time></trkpt><trkpt lat="43.92653060121053" lon="11.678724358653247"><ele>988.0</ele><time>2026-04-14T08:19:11Z</time></trkpt><trkpt lat="43.92644050507602" lon="11.678817646220782"><ele>989.0</ele><time>2026-04-14T08:19:12Z</time></trkpt><trkpt lat="43.92635810861703" lon="11.678926408631712"><ele>989.0</ele><time>2026-04-14T08:19:13Z</time></trkpt><trkpt lat="43.92628199635469" lon="11.67904688276164"><ele>989.0</ele><time>2026-04-14T08:19:14Z</time></trkpt><trkpt lat="43.92620770150134" lon="11.679166830919641"><ele>989.0</ele><time>2026-04-14T08:19:15Z</time></trkpt><trkpt lat="43.92612915243616" lon="11.679282695276525"><ele>989.0</ele><time>2026-04-14T08:19:16Z</time></trkpt><trkpt lat="43.92604761340121" lon="11.67939239456099"><ele>987.4000000000001</ele><time>2026-04-14T08:19:17Z</time></trkpt><trkpt lat="43.92596111737864" lon="11.679496683324185"><ele>985.8000000000001</ele><time>2026-04-14T08:19:18Z</time></trkpt><trkpt lat="43.92587150012986" lon="11.679594104816893"><ele>984.1999999999999</ele><time>2026-04-14T08:19:19Z</time></trkpt><trkpt lat="43.92577836134125" lon="11.67968456202758"><ele>982.5999999999999</ele><time>2026-04-14T08:19:20Z</time></trkpt><trkpt lat="43.92569156705898" lon="11.679769908606886"><ele>981.0</ele><time>2026-04-14T08:19:21Z</time></trkpt><trkpt lat="43.92561620165921" lon="11.679840632242621"><ele>981.0</ele><time>2026-04-14T08:19:22Z</time></trkpt><trkpt lat="43.92555007612941" lon="11.679898765344413"><ele>981.0</ele><time>2026-04-14T08:19:23Z</time></trkpt><trkpt lat="43.92547615553827" lon="11.67992952056459"><ele>981.0</ele><time>2026-04-14T08:19:24Z</time></trkpt><trkpt lat="43.92540511021085" lon="11.679897429134918"><ele>981.0</ele><time>2026-04-14T08:19:25Z</time></trkpt><trkpt lat="43.92535435343904" lon="11.679821476929082"><ele>981.0</ele><time>2026-04-14T08:19:26Z</time></trkpt><trkpt lat="43.92534990788572" lon="11.679717117521234"><ele>981.0</ele><time>2026-04-14T08:19:27Z</time></trkpt><trkpt lat="43.925377871173076" lon="11.679629514154446"><ele>981.0</ele><time>2026-04-14T08:19:28Z</time></trkpt><trkpt lat="43.92543123144504" lon="11.679554285497566"><ele>981.0</ele><time>2026-04-14T08:19:29Z</time></trkpt><trkpt lat="43.925509605230594" lon="11.679481513850764"><ele>980.9999999999999</ele><time>2026-04-14T08:19:30Z</time></trkpt><trkpt lat="43.925599051918944" lon="11.679392836806592"><ele>980.9999999999999</ele><time>2026-04-14T08:19:31Z</time></trkpt><trkpt lat="43.92567496860781" lon="11.679280039950152"><ele>981.0</ele><time>2026-04-14T08:19:32Z</time></trkpt><trkpt lat="43.92573636922642" lon="11.679149386366369"><ele>981.0</ele><time>2026-04-14T08:19:33Z</time></trkpt><trkpt lat="43.925780906287045" lon="11.679006662735949"><ele>979.25</ele><time>2026-04-14T08:19:34Z</time></trkpt><trkpt lat="43.92581677754716" lon="11.678857361493808"><ele>977.5</ele><time>2026-04-14T08:19:35Z</time></trkpt><trkpt lat="43.92584617330478" lon="11.67870453642145"><ele>975.75</ele><time>2026-04-14T08:19:36Z</time></trkpt><trkpt lat="43.925866397528075" lon="11.67854766711203"><ele>974.0</ele><time>2026-04-14T08:19:37Z</time></trkpt><trkpt lat="43.92590154158318" lon="11.678394023338415"><ele>974.0</ele><time>2026-04-14T08:19:38Z</time></trkpt><trkpt lat="43.92595993646772" lon="11.678228973263092"><ele>974.0</ele><time>2026-04-14T08:19:39Z</time></trkpt><trkpt lat="43.92602293290297" lon="11.6780416086393"><ele>974.0</ele><time>2026-04-14T08:19:40Z</time></trkpt><trkpt lat="43.926097326491764" lon="11.67784501979278"><ele>974.0</ele><time>2026-04-14T08:19:41Z</time></trkpt><trkpt lat="43.92617069782413" lon="11.677636664789839"><ele>970.0</ele><time>2026-04-14T08:19:42Z</time></trkpt><trkpt lat="43.9262458338971" lon="11.67743959186089"><ele>966.0</ele><time>2026-04-14T08:19:43Z</time></trkpt><trkpt lat="43.926327906667915" lon="11.677248059269713"><ele>962.0</ele><time>2026-04-14T08:19:44Z</time></trkpt><trkpt lat="43.926406806720934" lon="11.6770539133232"><ele>957.6666666666667</ele><time>2026-04-14T08:19:45Z</time></trkpt><trkpt lat="43.92649454143773" lon="11.676869273756852"><ele>953.3333333333333</ele><time>2026-04-14T08:19:46Z</time></trkpt><trkpt lat="43.92659102210998" lon="11.676693769604897"><ele>949.0</ele><time>2026-04-14T08:19:47Z</time></trkpt><trkpt lat="43.926687719394096" lon="11.676521758133774"><ele>951.5</ele><time>2026-04-14T08:19:48Z</time></trkpt><trkpt lat="43.92676346903832" lon="11.67634518479366"><ele>954.0</ele><time>2026-04-14T08:19:49Z</time></trkpt><trkpt lat="43.926819218259865" lon="11.6761601669223"><ele>956.5</ele><time>2026-04-14T08:19:50Z</time></trkpt><trkpt lat="43.926859985272266" lon="11.675965275276718"><ele>959.0</ele><time>2026-04-14T08:19:51Z</time></trkpt><trkpt lat="43.92690272258147" lon="11.675775638270437"><ele>959.0</ele><time>2026-04-14T08:19:52Z</time></trkpt><trkpt lat="43.9269464845464" lon="11.675604059045668"><ele>959.0</ele><time>2026-04-14T08:19:53Z</time></trkpt><trkpt lat="43.92698518949018" lon="11.675435665097991"><ele>959.0</ele><time>2026-04-14T08:19:54Z</time></trkpt><trkpt lat="43.92702413513129" lon="11.675276433299077"><ele>959.0</ele><time>2026-04-14T08:19:55Z</time></trkpt><trkpt lat="43.92705255809115" lon="11.675115939035146"><ele>956.25</ele><time>2026-04-14T08:19:56Z</time></trkpt><trkpt lat="43.92706202160049" lon="11.674952641967094"><ele>953.5</ele><time>2026-04-14T08:19:57Z</time></trkpt><trkpt lat="43.92705897641768" lon="11.674791305100278"><ele>950.75</ele><time>2026-04-14T08:19:58Z</time></trkpt><trkpt lat="43.92705112461863" lon="11.67463248786101"><ele>948.0</ele><time>2026-04-14T08:19:59Z</time></trkpt><trkpt lat="43.92704400965486" lon="11.674475909648566"><ele>947.0</ele><time>2026-04-14T08:20:00Z</time></trkpt><trkpt lat="43.92704154720249" lon="11.67431925861719"><ele>946.0</ele><time>2026-04-14T08:20:01Z</time></trkpt><trkpt lat="43.92703799774434" lon="11.674172727018428"><ele>945.0</ele><time>2026-04-14T08:20:02Z</time></trkpt><trkpt lat="43.92703483055609" lon="11.674067736133123"><ele>944.0</ele><time>2026-04-14T08:20:03Z</time></trkpt><trkpt lat="43.92702713285968" lon="11.673962780218236"><ele>943.0</ele><time>2026-04-14T08:20:04Z</time></trkpt><trkpt lat="43.926995269630794" lon="11.673859866706417"><ele>943.0</ele><time>2026-04-14T08:20:05Z</time></trkpt><trkpt lat="43.92693781190115" lon="11.673780811682546"><ele>943.0</ele><time>2026-04-14T08:20:06Z</time></trkpt><trkpt lat="43.926863846633395" lon="11.673732769486042"><ele>943.0</ele><time>2026-04-14T08:20:07Z</time></trkpt><trkpt lat="43.92677024842077" lon="11.673722453126214"><ele>943.0</ele><time>2026-04-14T08:20:08Z</time></trkpt><trkpt lat="43.92666717461631" lon="11.673745155027438"><ele>943.0</ele><time>2026-04-14T08:20:09Z</time></trkpt><trkpt lat="43.926561183600015" lon="11.673783989766713"><ele>939.0</ele><time>2026-04-14T08:20:10Z</time></trkpt><trkpt lat="43.926449938017484" lon="11.673825775458615"><ele>935.0</ele><time>2026-04-14T08:20:11Z</time></trkpt><trkpt lat="43.926334111515054" lon="11.673862859258477"><ele>931.0</ele><time>2026-04-14T08:20:12Z</time></trkpt><trkpt lat="43.9262184060807" lon="11.67388226856128"><ele>927.0</ele><time>2026-04-14T08:20:13Z</time></trkpt><trkpt lat="43.926094916411614" lon="11.673875304418583"><ele>927.0</ele><time>2026-04-14T08:20:14Z</time></trkpt><trkpt lat="43.92597148250272" lon="11.673851889543181"><ele>927.0</ele><time>2026-04-14T08:20:15Z</time></trkpt><trkpt lat="43.92585288899" lon="11.673813668426682"><ele>927.0</ele><time>2026-04-14T08:20:16Z</time></trkpt><trkpt lat="43.92573678753343" lon="11.67375569197544"><ele>927.0</ele><time>2026-04-14T08:20:17Z</time></trkpt><trkpt lat="43.925629850725656" lon="11.673680376995023"><ele>927.2</ele><time>2026-04-14T08:20:18Z</time></trkpt><trkpt lat="43.925532995316495" lon="11.67359435146354"><ele>927.4000000000001</ele><time>2026-04-14T08:20:19Z</time></trkpt><trkpt lat="43.92545808464855" lon="11.673487068893968"><ele>927.5999999999999</ele><time>2026-04-14T08:20:20Z</time></trkpt><trkpt lat="43.925419883006356" lon="11.673343616656098"><ele>927.8</ele><time>2026-04-14T08:20:21Z</time></trkpt><trkpt lat="43.92539988559909" lon="11.67318577046893"><ele>928.0</ele><time>2026-04-14T08:20:22Z</time></trkpt><trkpt lat="43.92538168242306" lon="11.673016985121409"><ele>928.0</ele><time>2026-04-14T08:20:23Z</time></trkpt><trkpt lat="43.92536042680111" lon="11.672850018540151"><ele>928.0</ele><time>2026-04-14T08:20:24Z</time></trkpt><trkpt lat="43.92534996861018" lon="11.672694604631438"><ele>928.0</ele><time>2026-04-14T08:20:25Z</time></trkpt><trkpt lat="43.925370777845735" lon="11.672546836034549"><ele>928.0</ele><time>2026-04-14T08:20:26Z</time></trkpt><trkpt lat="43.92542997698594" lon="11.672421607683862"><ele>928.2</ele><time>2026-04-14T08:20:27Z</time></trkpt><trkpt lat="43.925516465055466" lon="11.672325754463724"><ele>928.4</ele><time>2026-04-14T08:20:28Z</time></trkpt><trkpt lat="43.925605672561275" lon="11.672240119663511"><ele>928.6000000000001</ele><time>2026-04-14T08:20:29Z</time></trkpt><trkpt lat="43.925689336009604" lon="11.672159855210587"><ele>928.8000000000001</ele><time>2026-04-14T08:20:30Z</time></trkpt><trkpt lat="43.92575330530923" lon="11.672070535423153"><ele>929.0</ele><time>2026-04-14T08:20:31Z</time></trkpt><trkpt lat="43.9257813937961" lon="11.671954543215099"><ele>928.6</ele><time>2026-04-14T08:20:32Z</time></trkpt><trkpt lat="43.925773125712816" lon="11.671824600816079"><ele>928.2</ele><time>2026-04-14T08:20:33Z</time></trkpt><trkpt lat="43.92572126011008" lon="11.671703140925139"><ele>927.8000000000001</ele><time>2026-04-14T08:20:34Z</time></trkpt><trkpt lat="43.925652159556854" lon="11.671585575382249"><ele>927.4000000000001</ele><time>2026-04-14T08:20:35Z</time></trkpt><trkpt lat="43.92557715463717" lon="11.671460706848245"><ele>927.0</ele><time>2026-04-14T08:20:36Z</time></trkpt><trkpt lat="43.92551149196365" lon="11.671334829946764"><ele>927.0</ele><time>2026-04-14T08:20:37Z</time></trkpt><trkpt lat="43.92545217228236" lon="11.671200419374792"><ele>927.0</ele><time>2026-04-14T08:20:38Z</time></trkpt><trkpt lat="43.92541552223598" lon="11.671048598678146"><ele>927.0</ele><time>2026-04-14T08:20:39Z</time></trkpt><trkpt lat="43.92540759886152" lon="11.6708794318842"><ele>927.0</ele><time>2026-04-14T08:20:40Z</time></trkpt><trkpt lat="43.925425401430815" lon="11.67069936362514"><ele>927.75</ele><time>2026-04-14T08:20:41Z</time></trkpt><trkpt lat="43.92545155286412" lon="11.670518546684011"><ele>928.5</ele><time>2026-04-14T08:20:42Z</time></trkpt><trkpt lat="43.92547761903178" lon="11.670340489544445"><ele>929.25</ele><time>2026-04-14T08:20:43Z</time></trkpt><trkpt lat="43.92549973308933" lon="11.670169918733569"><ele>930.0</ele><time>2026-04-14T08:20:44Z</time></trkpt><trkpt lat="43.925533970121954" lon="11.67001158692473"><ele>929.0</ele><time>2026-04-14T08:20:45Z</time></trkpt><trkpt lat="43.92560326889943" lon="11.669876648073837"><ele>928.0</ele><time>2026-04-14T08:20:46Z</time></trkpt><trkpt lat="43.925698633392" lon="11.66977342115646"><ele>927.0</ele><time>2026-04-14T08:20:47Z</time></trkpt><trkpt lat="43.92580367263329" lon="11.669703513143363"><ele>926.0</ele><time>2026-04-14T08:20:48Z</time></trkpt><trkpt lat="43.92592025000617" lon="11.669687086015394"><ele>926.0</ele><time>2026-04-14T08:20:49Z</time></trkpt><trkpt lat="43.92603041643607" lon="11.66970744274636"><ele>925.9999999999999</ele><time>2026-04-14T08:20:50Z</time></trkpt><trkpt lat="43.92614397904895" lon="11.669714934967054"><ele>925.9999999999999</ele><time>2026-04-14T08:20:51Z</time></trkpt><trkpt lat="43.92624809246036" lon="11.669665582850534"><ele>926.0</ele><time>2026-04-14T08:20:52Z</time></trkpt><trkpt lat="43.92633172977083" lon="11.669563324525631"><ele>926.0</ele><time>2026-04-14T08:20:53Z</time></trkpt><trkpt lat="43.92639472571342" lon="11.669422898558652"><ele>920.0</ele><time>2026-04-14T08:20:54Z</time></trkpt><trkpt lat="43.926453604067255" lon="11.669272799980705"><ele>914.0</ele><time>2026-04-14T08:20:55Z</time></trkpt><trkpt lat="43.92651624431074" lon="11.669134221266582"><ele>908.0</ele><time>2026-04-14T08:20:56Z</time></trkpt><trkpt lat="43.92658084362491" lon="11.66900265688162"><ele>902.0</ele><time>2026-04-14T08:20:57Z</time></trkpt><trkpt lat="43.926643862242024" lon="11.668871803512639"><ele>902.0</ele><time>2026-04-14T08:20:58Z</time></trkpt><trkpt lat="43.9267100209811" lon="11.668744755271979"><ele>902.0</ele><time>2026-04-14T08:20:59Z</time></trkpt><trkpt lat="43.92679549924346" lon="11.668639902805808"><ele>902.0</ele><time>2026-04-14T08:21:00Z</time></trkpt><trkpt lat="43.9269043310092" lon="11.668590307868921"><ele>902.0</ele><time>2026-04-14T08:21:01Z</time></trkpt><trkpt lat="43.92702075589125" lon="11.668589193119637"><ele>905.75</ele><time>2026-04-14T08:21:02Z</time></trkpt><trkpt lat="43.92713311094564" lon="11.668622034708067"><ele>909.5</ele><time>2026-04-14T08:21:03Z</time></trkpt><trkpt lat="43.92724850733924" lon="11.668676088374601"><ele>913.25</ele><time>2026-04-14T08:21:04Z</time></trkpt><trkpt lat="43.92735744240822" lon="11.668722669006355"><ele>917.0</ele><time>2026-04-14T08:21:05Z</time></trkpt><trkpt lat="43.92746868541995" lon="11.668733076775593"><ele>916.25</ele><time>2026-04-14T08:21:06Z</time></trkpt><trkpt lat="43.92757908858341" lon="11.668698260166007"><ele>915.5</ele><time>2026-04-14T08:21:07Z</time></trkpt><trkpt lat="43.92768655318532" lon="11.66862061142411"><ele>914.75</ele><time>2026-04-14T08:21:08Z</time></trkpt><trkpt lat="43.92778685960569" lon="11.668503247685655"><ele>914.0</ele><time>2026-04-14T08:21:09Z</time></trkpt><trkpt lat="43.92788214626677" lon="11.668376895118229"><ele>914.0</ele><time>2026-04-14T08:21:10Z</time></trkpt><trkpt lat="43.927973309163356" lon="11.668251242256453"><ele>914.0</ele><time>2026-04-14T08:21:11Z</time></trkpt><trkpt lat="43.92806463945995" lon="11.668128035526216"><ele>914.0</ele><time>2026-04-14T08:21:12Z</time></trkpt><trkpt lat="43.92815792634231" lon="11.668009086844092"><ele>914.0</ele><time>2026-04-14T08:21:13Z</time></trkpt><trkpt lat="43.928251002559065" lon="11.66789106595377"><ele>916.2</ele><time>2026-04-14T08:21:14Z</time></trkpt><trkpt lat="43.928343631831254" lon="11.667776394529163"><ele>918.4000000000001</ele><time>2026-04-14T08:21:15Z</time></trkpt><trkpt lat="43.92843807816981" lon="11.667663859874345"><ele>920.6</ele><time>2026-04-14T08:21:16Z</time></trkpt><trkpt lat="43.928514273760406" lon="11.66756439182412"><ele>922.8</ele><time>2026-04-14T08:21:17Z</time></trkpt><trkpt lat="43.92856245582439" lon="11.667452488970007"><ele>925.0</ele><time>2026-04-14T08:21:18Z</time></trkpt><trkpt lat="43.928567321801474" lon="11.66731463399758"><ele>925.0</ele><time>2026-04-14T08:21:19Z</time></trkpt><trkpt lat="43.92853067815805" lon="11.667184929771732"><ele>925.0</ele><time>2026-04-14T08:21:20Z</time></trkpt><trkpt lat="43.92846788151248" lon="11.667062384711993"><ele>925.0</ele><time>2026-04-14T08:21:21Z</time></trkpt><trkpt lat="43.92839800389734" lon="11.66693899610082"><ele>925.0</ele><time>2026-04-14T08:21:22Z</time></trkpt><trkpt lat="43.928366668300384" lon="11.66679606292439"><ele>925.0</ele><time>2026-04-14T08:21:23Z</time></trkpt><trkpt lat="43.928373187049544" lon="11.666648225338"><ele>920.6</ele><time>2026-04-14T08:21:24Z</time></trkpt><trkpt lat="43.928388892146764" lon="11.666507538827972"><ele>916.2</ele><time>2026-04-14T08:21:25Z</time></trkpt><trkpt lat="43.92836316691304" lon="11.666371055356716"><ele>911.8</ele><time>2026-04-14T08:21:26Z</time></trkpt><trkpt lat="43.92830419347895" lon="11.666254461001772"><ele>907.4</ele><time>2026-04-14T08:21:27Z</time></trkpt><trkpt lat="43.928219606865134" lon="11.666171321747854"><ele>903.0</ele><time>2026-04-14T08:21:28Z</time></trkpt><trkpt lat="43.928144013062166" lon="11.666077803940192"><ele>903.0</ele><time>2026-04-14T08:21:29Z</time></trkpt><trkpt lat="43.928096222052744" lon="11.66595026910737"><ele>903.0</ele><time>2026-04-14T08:21:30Z</time></trkpt><trkpt lat="43.92806975387204" lon="11.665815967543415"><ele>903.0</ele><time>2026-04-14T08:21:31Z</time></trkpt><trkpt lat="43.92805517391191" lon="11.66570360973597"><ele>903.0</ele><time>2026-04-14T08:21:32Z</time></trkpt><trkpt lat="43.92801115460141" lon="11.66561565351611"><ele>903.0</ele><time>2026-04-14T08:21:33Z</time></trkpt><trkpt lat="43.927941754743316" lon="11.665570760885185"><ele>903.0</ele><time>2026-04-14T08:21:34Z</time></trkpt><trkpt lat="43.92786436914882" lon="11.66558410246883"><ele>903.0</ele><time>2026-04-14T08:21:35Z</time></trkpt><trkpt lat="43.92778662745271" lon="11.665643417818568"><ele>903.0</ele><time>2026-04-14T08:21:36Z</time></trkpt><trkpt lat="43.92770704619045" lon="11.665736278140768"><ele>903.0</ele><time>2026-04-14T08:21:37Z</time></trkpt><trkpt lat="43.92763723388515" lon="11.665821712760948"><ele>903.0</ele><time>2026-04-14T08:21:38Z</time></trkpt><trkpt lat="43.927575052423386" lon="11.665908823130366"><ele>903.0</ele><time>2026-04-14T08:21:39Z</time></trkpt><trkpt lat="43.92750532942994" lon="11.665976016021268"><ele>897.2</ele><time>2026-04-14T08:21:40Z</time></trkpt><trkpt lat="43.927425343204426" lon="11.666001933316242"><ele>891.4</ele><time>2026-04-14T08:21:41Z</time></trkpt><trkpt lat="43.92734192213215" lon="11.665974836332653"><ele>885.6000000000001</ele><time>2026-04-14T08:21:42Z</time></trkpt><trkpt lat="43.9272690063168" lon="11.66589641556814"><ele>879.8000000000001</ele><time>2026-04-14T08:21:43Z</time></trkpt><trkpt lat="43.92719596292876" lon="11.665776562305714"><ele>874.0</ele><time>2026-04-14T08:21:44Z</time></trkpt><trkpt lat="43.92715402938401" lon="11.66562920119705"><ele>874.0</ele><time>2026-04-14T08:21:45Z</time></trkpt><trkpt lat="43.9271433456112" lon="11.665478097263815"><ele>874.0000000000001</ele><time>2026-04-14T08:21:46Z</time></trkpt><trkpt lat="43.92713607919938" lon="11.665329919885071"><ele>874.0000000000001</ele><time>2026-04-14T08:21:47Z</time></trkpt><trkpt lat="43.92711057540979" lon="11.665183320647165"><ele>874.0</ele><time>2026-04-14T08:21:48Z</time></trkpt><trkpt lat="43.927059018389784" lon="11.665052094142414"><ele>874.0</ele><time>2026-04-14T08:21:49Z</time></trkpt><trkpt lat="43.92698674350291" lon="11.664935819498675"><ele>880.25</ele><time>2026-04-14T08:21:50Z</time></trkpt><trkpt lat="43.926902808067524" lon="11.664836831276627"><ele>886.5</ele><time>2026-04-14T08:21:51Z</time></trkpt><trkpt lat="43.92683502779819" lon="11.664716783953383"><ele>892.75</ele><time>2026-04-14T08:21:52Z</time></trkpt><trkpt lat="43.926797794265255" lon="11.6645679671325"><ele>899.0</ele><time>2026-04-14T08:21:53Z</time></trkpt><trkpt lat="43.926780706199686" lon="11.664397295640265"><ele>903.5</ele><time>2026-04-14T08:21:54Z</time></trkpt><trkpt lat="43.92676286415131" lon="11.66422642529809"><ele>908.0</ele><time>2026-04-14T08:21:55Z</time></trkpt><trkpt lat="43.92674073591027" lon="11.664057874167172"><ele>912.5</ele><time>2026-04-14T08:21:56Z</time></trkpt><trkpt lat="43.926727675356624" lon="11.663894390484726"><ele>917.0</ele><time>2026-04-14T08:21:57Z</time></trkpt><trkpt lat="43.92674515121672" lon="11.663732190787812"><ele>917.0</ele><time>2026-04-14T08:21:58Z</time></trkpt><trkpt lat="43.92677192925625" lon="11.66358190360194"><ele>917.0</ele><time>2026-04-14T08:21:59Z</time></trkpt><trkpt lat="43.92676904343123" lon="11.663428431502375"><ele>917.0</ele><time>2026-04-14T08:22:00Z</time></trkpt><trkpt lat="43.92672731969082" lon="11.66327324506235"><ele>917.0</ele><time>2026-04-14T08:22:01Z</time></trkpt><trkpt lat="43.926645579088856" lon="11.663131554730299"><ele>906.5</ele><time>2026-04-14T08:22:02Z</time></trkpt><trkpt lat="43.92656387269178" lon="11.662997907558319"><ele>896.0</ele><time>2026-04-14T08:22:03Z</time></trkpt><trkpt lat="43.92649368230111" lon="11.662866907630528"><ele>885.5</ele><time>2026-04-14T08:22:04Z</time></trkpt><trkpt lat="43.9264372630052" lon="11.66272794951253"><ele>875.0</ele><time>2026-04-14T08:22:05Z</time></trkpt><trkpt lat="43.92639442623165" lon="11.662583693411783"><ele>875.0</ele><time>2026-04-14T08:22:06Z</time></trkpt><trkpt lat="43.926362669601964" lon="11.662433068527992"><ele>875.0</ele><time>2026-04-14T08:22:07Z</time></trkpt><trkpt lat="43.92631749562281" lon="11.662304763667457"><ele>875.0</ele><time>2026-04-14T08:22:08Z</time></trkpt><trkpt lat="43.926246969727416" lon="11.662213072092312"><ele>875.0</ele><time>2026-04-14T08:22:09Z</time></trkpt><trkpt lat="43.9261469410207" lon="11.662178179729802"><ele>875.0</ele><time>2026-04-14T08:22:10Z</time></trkpt><trkpt lat="43.926033973431856" lon="11.662189777093339"><ele>875.0</ele><time>2026-04-14T08:22:11Z</time></trkpt><trkpt lat="43.92592818749812" lon="11.662216041642827"><ele>875.0</ele><time>2026-04-14T08:22:12Z</time></trkpt><trkpt lat="43.92580881244169" lon="11.66221848844445"><ele>875.0</ele><time>2026-04-14T08:22:13Z</time></trkpt><trkpt lat="43.92569272746976" lon="11.6621861667648"><ele>875.0</ele><time>2026-04-14T08:22:14Z</time></trkpt><trkpt lat="43.92558152041688" lon="11.662153850528355"><ele>867.75</ele><time>2026-04-14T08:22:15Z</time></trkpt><trkpt lat="43.9254676299036" lon="11.662159215835075"><ele>860.5</ele><time>2026-04-14T08:22:16Z</time></trkpt><trkpt lat="43.92535855276266" lon="11.662203114053883"><ele>853.25</ele><time>2026-04-14T08:22:17Z</time></trkpt><trkpt lat="43.92525121196473" lon="11.662254090130492"><ele>846.0</ele><time>2026-04-14T08:22:18Z</time></trkpt><trkpt lat="43.92513706151605" lon="11.662262167425176"><ele>843.25</ele><time>2026-04-14T08:22:19Z</time></trkpt><trkpt lat="43.925015221349405" lon="11.662222810166485"><ele>840.5</ele><time>2026-04-14T08:22:20Z</time></trkpt><trkpt lat="43.92488822484103" lon="11.662162213566358"><ele>837.75</ele><time>2026-04-14T08:22:21Z</time></trkpt><trkpt lat="43.924758778167195" lon="11.662116160523547"><ele>835.0</ele><time>2026-04-14T08:22:22Z</time></trkpt><trkpt lat="43.924624857631635" lon="11.662089154862787"><ele>835.0</ele><time>2026-04-14T08:22:23Z</time></trkpt><trkpt lat="43.92449028809208" lon="11.66207916315989"><ele>835.0</ele><time>2026-04-14T08:22:24Z</time></trkpt><trkpt lat="43.92435663082649" lon="11.662063284729768"><ele>835.0</ele><time>2026-04-14T08:22:25Z</time></trkpt><trkpt lat="43.92422427260998" lon="11.662034012433049"><ele>835.0</ele><time>2026-04-14T08:22:26Z</time></trkpt><trkpt lat="43.924100393085595" lon="11.662001837946105"><ele>834.8</ele><time>2026-04-14T08:22:27Z</time></trkpt><trkpt lat="43.92399261634411" lon="11.661972580619965"><ele>834.6</ele><time>2026-04-14T08:22:28Z</time></trkpt><trkpt lat="43.92389465021933" lon="11.661952756872385"><ele>834.4000000000001</ele><time>2026-04-14T08:22:29Z</time></trkpt><trkpt lat="43.92381754528496" lon="11.661920259690948"><ele>834.2</ele><time>2026-04-14T08:22:30Z</time></trkpt><trkpt lat="43.92376453456729" lon="11.661842217079336"><ele>834.0</ele><time>2026-04-14T08:22:31Z</time></trkpt><trkpt lat="43.92374230092002" lon="11.661731170919927"><ele>834.0</ele><time>2026-04-14T08:22:32Z</time></trkpt><trkpt lat="43.923770087482495" lon="11.661615945950022"><ele>834.0</ele><time>2026-04-14T08:22:33Z</time></trkpt><trkpt lat="43.923844388299536" lon="11.661556327943812"><ele>834.0</ele><time>2026-04-14T08:22:34Z</time></trkpt><trkpt lat="43.92392630035293" lon="11.661557621688894"><ele>834.0</ele><time>2026-04-14T08:22:35Z</time></trkpt><trkpt lat="43.92401341216615" lon="11.661586533822454"><ele>834.0</ele><time>2026-04-14T08:22:36Z</time></trkpt><trkpt lat="43.9241178449522" lon="11.661606152479052"><ele>834.25</ele><time>2026-04-14T08:22:37Z</time></trkpt><trkpt lat="43.9242333886595" lon="11.66160827262365"><ele>834.5</ele><time>2026-04-14T08:22:38Z</time></trkpt><trkpt lat="43.92435164827894" lon="11.661587052649745"><ele>834.75</ele><time>2026-04-14T08:22:39Z</time></trkpt><trkpt lat="43.9244665729832" lon="11.661529038410263"><ele>835.0</ele><time>2026-04-14T08:22:40Z</time></trkpt><trkpt lat="43.92456952660371" lon="11.661447786561677"><ele>835.0</ele><time>2026-04-14T08:22:41Z</time></trkpt><trkpt lat="43.92467474620655" lon="11.661377918396525"><ele>835.0</ele><time>2026-04-14T08:22:42Z</time></trkpt><trkpt lat="43.92478472206428" lon="11.661338946202637"><ele>835.0</ele><time>2026-04-14T08:22:43Z</time></trkpt><trkpt lat="43.92489661185505" lon="11.661341444483716"><ele>835.0</ele><time>2026-04-14T08:22:44Z</time></trkpt><trkpt lat="43.92500411935505" lon="11.661382626384931"><ele>836.8</ele><time>2026-04-14T08:22:45Z</time></trkpt><trkpt lat="43.92510243730863" lon="11.661451574012146"><ele>838.6</ele><time>2026-04-14T08:22:46Z</time></trkpt><trkpt lat="43.92519609048785" lon="11.661530222428254"><ele>840.4000000000001</ele><time>2026-04-14T08:22:47Z</time></trkpt><trkpt lat="43.925298728044815" lon="11.661576469839545"><ele>842.2</ele><time>2026-04-14T08:22:48Z</time></trkpt><trkpt lat="43.92540819994052" lon="11.66157191978036"><ele>844.0</ele><time>2026-04-14T08:22:49Z</time></trkpt><trkpt lat="43.92551922097527" lon="11.661515702750577"><ele>844.0</ele><time>2026-04-14T08:22:50Z</time></trkpt><trkpt lat="43.92561671993188" lon="11.661415662892706"><ele>844.0</ele><time>2026-04-14T08:22:51Z</time></trkpt><trkpt lat="43.92570780781885" lon="11.661292616564806"><ele>844.0</ele><time>2026-04-14T08:22:52Z</time></trkpt><trkpt lat="43.92580155018288" lon="11.661164360578914"><ele>844.0</ele><time>2026-04-14T08:22:53Z</time></trkpt><trkpt lat="43.92591467904739" lon="11.661058495107792"><ele>842.0</ele><time>2026-04-14T08:22:54Z</time></trkpt><trkpt lat="43.926042803568016" lon="11.660977781449855"><ele>840.0</ele><time>2026-04-14T08:22:55Z</time></trkpt><trkpt lat="43.926173054684384" lon="11.66091572664761"><ele>838.0</ele><time>2026-04-14T08:22:56Z</time></trkpt><trkpt lat="43.92630342060086" lon="11.660866767969138"><ele>836.0</ele><time>2026-04-14T08:22:57Z</time></trkpt><trkpt lat="43.92642735781542" lon="11.660821287671197"><ele>836.0</ele><time>2026-04-14T08:22:58Z</time></trkpt><trkpt lat="43.926538071903956" lon="11.660755939675724"><ele>836.0</ele><time>2026-04-14T08:22:59Z</time></trkpt><trkpt lat="43.92663413636699" lon="11.660659074528331"><ele>836.0</ele><time>2026-04-14T08:23:00Z</time></trkpt><trkpt lat="43.92671762668066" lon="11.66052082256839"><ele>836.0</ele><time>2026-04-14T08:23:01Z</time></trkpt><trkpt lat="43.92679325456941" lon="11.660368236965876"><ele>834.25</ele><time>2026-04-14T08:23:02Z</time></trkpt><trkpt lat="43.92686602813517" lon="11.66022191261565"><ele>832.5</ele><time>2026-04-14T08:23:03Z</time></trkpt><trkpt lat="43.92694203953303" lon="11.660088170368542"><ele>830.75</ele><time>2026-04-14T08:23:04Z</time></trkpt><trkpt lat="43.9270282708552" lon="11.659969823627963"><ele>829.0</ele><time>2026-04-14T08:23:05Z</time></trkpt><trkpt lat="43.92712860768155" lon="11.659862406768273"><ele>829.0</ele><time>2026-04-14T08:23:06Z</time></trkpt><trkpt lat="43.927242541323935" lon="11.659773641337807"><ele>829.0</ele><time>2026-04-14T08:23:07Z</time></trkpt><trkpt lat="43.92735722480376" lon="11.659694715793924"><ele>829.0</ele><time>2026-04-14T08:23:08Z</time></trkpt><trkpt lat="43.92747097906424" lon="11.65962474658914"><ele>829.0</ele><time>2026-04-14T08:23:09Z</time></trkpt><trkpt lat="43.92759024921703" lon="11.659561886980955"><ele>833.25</ele><time>2026-04-14T08:23:10Z</time></trkpt><trkpt lat="43.92771532417437" lon="11.659516941614696"><ele>837.5</ele><time>2026-04-14T08:23:11Z</time></trkpt><trkpt lat="43.927843165258366" lon="11.65949278979676"><ele>841.75</ele><time>2026-04-14T08:23:12Z</time></trkpt><trkpt lat="43.92797257364479" lon="11.65947981354174"><ele>846.0</ele><time>2026-04-14T08:23:13Z</time></trkpt><trkpt lat="43.92809333154633" lon="11.65945651891904"><ele>842.5</ele><time>2026-04-14T08:23:14Z</time></trkpt><trkpt lat="43.928211891870866" lon="11.65941641808027"><ele>839.0</ele><time>2026-04-14T08:23:15Z</time></trkpt><trkpt lat="43.92832776132261" lon="11.65933667434666"><ele>835.5</ele><time>2026-04-14T08:23:16Z</time></trkpt><trkpt lat="43.928439715462154" lon="11.659231891527142"><ele>832.0</ele><time>2026-04-14T08:23:17Z</time></trkpt><trkpt lat="43.92854546586128" lon="11.659114360256373"><ele>832.0</ele><time>2026-04-14T08:23:18Z</time></trkpt><trkpt lat="43.9286485538392" lon="11.659000301558073"><ele>832.0</ele><time>2026-04-14T08:23:19Z</time></trkpt><trkpt lat="43.928753147529115" lon="11.658893606550743"><ele>832.0</ele><time>2026-04-14T08:23:20Z</time></trkpt><trkpt lat="43.928854438255065" lon="11.65878396207306"><ele>832.0</ele><time>2026-04-14T08:23:21Z</time></trkpt><trkpt lat="43.928951644688915" lon="11.65866913217562"><ele>826.75</ele><time>2026-04-14T08:23:22Z</time></trkpt><trkpt lat="43.9290348427856" lon="11.658539129138179"><ele>821.5</ele><time>2026-04-14T08:23:23Z</time></trkpt><trkpt lat="43.929096650535776" lon="11.658383875391493"><ele>816.25</ele><time>2026-04-14T08:23:24Z</time></trkpt><trkpt lat="43.92914107179668" lon="11.658209729808652"><ele>811.0</ele><time>2026-04-14T08:23:25Z</time></trkpt><trkpt lat="43.92918949652945" lon="11.658035700357601"><ele>817.75</ele><time>2026-04-14T08:23:26Z</time></trkpt><trkpt lat="43.92923596222029" lon="11.657852941500071"><ele>824.5</ele><time>2026-04-14T08:23:27Z</time></trkpt><trkpt lat="43.92926572287148" lon="11.65766253155891"><ele>831.25</ele><time>2026-04-14T08:23:28Z</time></trkpt><trkpt lat="43.9292765032613" lon="11.657464574338253"><ele>838.0</ele><time>2026-04-14T08:23:29Z</time></trkpt><trkpt lat="43.92927543561604" lon="11.657264689669347"><ele>838.0</ele><time>2026-04-14T08:23:30Z</time></trkpt><trkpt lat="43.9292770499641" lon="11.657067229847442"><ele>838.0</ele><time>2026-04-14T08:23:31Z</time></trkpt><trkpt lat="43.929278771628084" lon="11.656870421964003"><ele>838.0</ele><time>2026-04-14T08:23:32Z</time></trkpt><trkpt lat="43.92928823927438" lon="11.656679135031416"><ele>838.0</ele><time>2026-04-14T08:23:33Z</time></trkpt><trkpt lat="43.92931196625989" lon="11.65648712853103"><ele>833.5</ele><time>2026-04-14T08:23:34Z</time></trkpt><trkpt lat="43.929345212208226" lon="11.656298605582023"><ele>829.0</ele><time>2026-04-14T08:23:35Z</time></trkpt><trkpt lat="43.929381706702735" lon="11.65610197093993"><ele>824.5</ele><time>2026-04-14T08:23:36Z</time></trkpt><trkpt lat="43.92941934227079" lon="11.655904326798378"><ele>820.0</ele><time>2026-04-14T08:23:37Z</time></trkpt><trkpt lat="43.92946012759853" lon="11.65571475772201"><ele>818.75</ele><time>2026-04-14T08:23:38Z</time></trkpt><trkpt lat="43.929498293005125" lon="11.65552352375836"><ele>817.5</ele><time>2026-04-14T08:23:39Z</time></trkpt><trkpt lat="43.92953449860689" lon="11.65534194258351"><ele>816.25</ele><time>2026-04-14T08:23:40Z</time></trkpt><trkpt lat="43.92956392025915" lon="11.655166789769506"><ele>815.0</ele><time>2026-04-14T08:23:41Z</time></trkpt><trkpt lat="43.92958826740982" lon="11.6550088332086"><ele>815.0</ele><time>2026-04-14T08:23:42Z</time></trkpt><trkpt lat="43.92957726741829" lon="11.654857418019308"><ele>815.0</ele><time>2026-04-14T08:23:43Z</time></trkpt><trkpt lat="43.92953082712396" lon="11.654722664626659"><ele>815.0</ele><time>2026-04-14T08:23:44Z</time></trkpt><trkpt lat="43.92944375334189" lon="11.654616769236661"><ele>815.0</ele><time>2026-04-14T08:23:45Z</time></trkpt><trkpt lat="43.92933922262454" lon="11.654529471970122"><ele>808.5</ele><time>2026-04-14T08:23:46Z</time></trkpt><trkpt lat="43.92922453599369" lon="11.654446060181435"><ele>802.0</ele><time>2026-04-14T08:23:47Z</time></trkpt><trkpt lat="43.92910676655137" lon="11.654356598821272"><ele>795.5</ele><time>2026-04-14T08:23:48Z</time></trkpt><trkpt lat="43.9289913637456" lon="11.654278091571818"><ele>789.0</ele><time>2026-04-14T08:23:49Z</time></trkpt><trkpt lat="43.928881779847075" lon="11.654203520595757"><ele>789.0</ele><time>2026-04-14T08:23:50Z</time></trkpt><trkpt lat="43.928777680621344" lon="11.654138151794642"><ele>789.0</ele><time>2026-04-14T08:23:51Z</time></trkpt><trkpt lat="43.92867737363651" lon="11.654077494771537"><ele>789.0</ele><time>2026-04-14T08:23:52Z</time></trkpt><trkpt lat="43.928591266698554" lon="11.653995065065935"><ele>789.0</ele><time>2026-04-14T08:23:53Z</time></trkpt><trkpt lat="43.92851669865888" lon="11.653921838605738"><ele>789.0</ele><time>2026-04-14T08:23:54Z</time></trkpt><trkpt lat="43.92848017379585" lon="11.653812213327228"><ele>789.0</ele><time>2026-04-14T08:23:55Z</time></trkpt><trkpt lat="43.92848647127309" lon="11.653675830706494"><ele>789.0</ele><time>2026-04-14T08:23:56Z</time></trkpt><trkpt lat="43.928517935058615" lon="11.653530319786435"><ele>789.0</ele><time>2026-04-14T08:23:57Z</time></trkpt><trkpt lat="43.9285639504414" lon="11.653372885976092"><ele>789.0</ele><time>2026-04-14T08:23:58Z</time></trkpt><trkpt lat="43.928616353429376" lon="11.653205353885808"><ele>787.75</ele><time>2026-04-14T08:23:59Z</time></trkpt><trkpt lat="43.92868706505588" lon="11.653053659026217"><ele>786.5</ele><time>2026-04-14T08:24:00Z</time></trkpt><trkpt lat="43.92877614499583" lon="11.65292385607426"><ele>785.25</ele><time>2026-04-14T08:24:01Z</time></trkpt><trkpt lat="43.928858606019524" lon="11.652798141192978"><ele>784.0</ele><time>2026-04-14T08:24:02Z</time></trkpt><trkpt lat="43.92892346576807" lon="11.652670235348358"><ele>784.0</ele><time>2026-04-14T08:24:03Z</time></trkpt><trkpt lat="43.92895271120371" lon="11.652516864866262"><ele>784.0</ele><time>2026-04-14T08:24:04Z</time></trkpt><trkpt lat="43.92894404340864" lon="11.652365460142255"><ele>784.0</ele><time>2026-04-14T08:24:05Z</time></trkpt><trkpt lat="43.92890412647801" lon="11.652220929571497"><ele>784.0</ele><time>2026-04-14T08:24:06Z</time></trkpt><trkpt lat="43.92889366276287" lon="11.652068545022392"><ele>784.0</ele><time>2026-04-14T08:24:07Z</time></trkpt><trkpt lat="43.92893656225198" lon="11.65192545908115"><ele>780.0</ele><time>2026-04-14T08:24:08Z</time></trkpt><trkpt lat="43.929018816523914" lon="11.651814527417157"><ele>776.0</ele><time>2026-04-14T08:24:09Z</time></trkpt><trkpt lat="43.929119903472724" lon="11.651742408420565"><ele>772.0</ele><time>2026-04-14T08:24:10Z</time></trkpt><trkpt lat="43.929221754000416" lon="11.651674117307746"><ele>768.0</ele><time>2026-04-14T08:24:11Z</time></trkpt><trkpt lat="43.929285331123474" lon="11.651549901533995"><ele>772.0</ele><time>2026-04-14T08:24:12Z</time></trkpt><trkpt lat="43.92932759641619" lon="11.65140041293613"><ele>776.0</ele><time>2026-04-14T08:24:13Z</time></trkpt><trkpt lat="43.9293717825923" lon="11.651238140904889"><ele>780.0</ele><time>2026-04-14T08:24:14Z</time></trkpt><trkpt lat="43.92941872193556" lon="11.651074582074791"><ele>784.0</ele><time>2026-04-14T08:24:15Z</time></trkpt><trkpt lat="43.92946281745609" lon="11.650922817486014"><ele>784.0</ele><time>2026-04-14T08:24:16Z</time></trkpt><trkpt lat="43.92950129166157" lon="11.650762348594847"><ele>784.0</ele><time>2026-04-14T08:24:17Z</time></trkpt><trkpt lat="43.929534242920106" lon="11.650596182654336"><ele>784.0</ele><time>2026-04-14T08:24:18Z</time></trkpt><trkpt lat="43.92956002488378" lon="11.650432420664835"><ele>784.0</ele><time>2026-04-14T08:24:19Z</time></trkpt><trkpt lat="43.92958456876968" lon="11.650272695527638"><ele>778.75</ele><time>2026-04-14T08:24:20Z</time></trkpt><trkpt lat="43.92961667920596" lon="11.650115036695684"><ele>773.5</ele><time>2026-04-14T08:24:21Z</time></trkpt><trkpt lat="43.92967439779544" lon="11.649970328864702"><ele>768.25</ele><time>2026-04-14T08:24:22Z</time></trkpt><trkpt lat="43.92975642185481" lon="11.649855823111537"><ele>763.0</ele><time>2026-04-14T08:24:23Z</time></trkpt><trkpt lat="43.92986621087729" lon="11.649790621828371"><ele>763.0</ele><time>2026-04-14T08:24:24Z</time></trkpt><trkpt lat="43.92999444949103" lon="11.649750420269534"><ele>763.0</ele><time>2026-04-14T08:24:25Z</time></trkpt><trkpt lat="43.930101884614885" lon="11.649683940007803"><ele>763.0</ele><time>2026-04-14T08:24:26Z</time></trkpt><trkpt lat="43.93018981222659" lon="11.649582251905365"><ele>763.0</ele><time>2026-04-14T08:24:27Z</time></trkpt><trkpt lat="43.930253041520324" lon="11.649436992340558"><ele>760.25</ele><time>2026-04-14T08:24:28Z</time></trkpt><trkpt lat="43.930318842045786" lon="11.649282215738342"><ele>757.5</ele><time>2026-04-14T08:24:29Z</time></trkpt><trkpt lat="43.93039836205126" lon="11.649139225175222"><ele>754.75</ele><time>2026-04-14T08:24:30Z</time></trkpt><trkpt lat="43.93048587460176" lon="11.649015703612468"><ele>752.0</ele><time>2026-04-14T08:24:31Z</time></trkpt><trkpt lat="43.930570170226154" lon="11.648901847008016"><ele>752.0</ele><time>2026-04-14T08:24:32Z</time></trkpt><trkpt lat="43.93065565220332" lon="11.648789380032092"><ele>752.0</ele><time>2026-04-14T08:24:33Z</time></trkpt><trkpt lat="43.930757246700466" lon="11.648715455965812"><ele>752.0</ele><time>2026-04-14T08:24:34Z</time></trkpt><trkpt lat="43.93087551064504" lon="11.64870759237441"><ele>752.0</ele><time>2026-04-14T08:24:35Z</time></trkpt><trkpt lat="43.93097635470681" lon="11.648776849158509"><ele>747.75</ele><time>2026-04-14T08:24:36Z</time></trkpt><trkpt lat="43.93108621907283" lon="11.648839080047132"><ele>743.5</ele><time>2026-04-14T08:24:37Z</time></trkpt><trkpt lat="43.93119333400753" lon="11.648919084618518"><ele>739.25</ele><time>2026-04-14T08:24:38Z</time></trkpt><trkpt lat="43.931299413932855" lon="11.648988054150623"><ele>735.0</ele><time>2026-04-14T08:24:39Z</time></trkpt><trkpt lat="43.931402040711475" lon="11.649061408362083"><ele>735.0</ele><time>2026-04-14T08:24:40Z</time></trkpt><trkpt lat="43.93149463296897" lon="11.649156105446284"><ele>735.0</ele><time>2026-04-14T08:24:41Z</time></trkpt><trkpt lat="43.93156570044301" lon="11.649277560429516"><ele>735.0</ele><time>2026-04-14T08:24:42Z</time></trkpt><trkpt lat="43.931610060590145" lon="11.64942009329186"><ele>735.0</ele><time>2026-04-14T08:24:43Z</time></trkpt><trkpt lat="43.93162895860405" lon="11.64955654112759"><ele>735.0</ele><time>2026-04-14T08:24:44Z</time></trkpt><trkpt lat="43.9316582246816" lon="11.64966057291973"><ele>737.6</ele><time>2026-04-14T08:24:45Z</time></trkpt><trkpt lat="43.9317166022773" lon="11.649737989060718"><ele>740.2</ele><time>2026-04-14T08:24:46Z</time></trkpt><trkpt lat="43.9317982055984" lon="11.649781930049397"><ele>742.8</ele><time>2026-04-14T08:24:47Z</time></trkpt><trkpt lat="43.931892757230905" lon="11.649780054000823"><ele>745.4</ele><time>2026-04-14T08:24:48Z</time></trkpt><trkpt lat="43.931979708358334" lon="11.649721347185329"><ele>748.0</ele><time>2026-04-14T08:24:49Z</time></trkpt><trkpt lat="43.93205632137034" lon="11.649621991404183"><ele>748.0</ele><time>2026-04-14T08:24:50Z</time></trkpt><trkpt lat="43.93214174274096" lon="11.649514766760555"><ele>748.0</ele><time>2026-04-14T08:24:51Z</time></trkpt><trkpt lat="43.932231666313044" lon="11.649409783037196"><ele>748.0</ele><time>2026-04-14T08:24:52Z</time></trkpt><trkpt lat="43.932314742050806" lon="11.649316569050457"><ele>748.0</ele><time>2026-04-14T08:24:53Z</time></trkpt><trkpt lat="43.93238992585307" lon="11.649223611140982"><ele>748.0</ele><time>2026-04-14T08:24:54Z</time></trkpt><trkpt lat="43.93246437931144" lon="11.649137263463464"><ele>747.5999999999999</ele><time>2026-04-14T08:24:55Z</time></trkpt><trkpt lat="43.93252248712048" lon="11.649046117219049"><ele>747.1999999999999</ele><time>2026-04-14T08:24:56Z</time></trkpt><trkpt lat="43.93254919935681" lon="11.648925954734572"><ele>746.8</ele><time>2026-04-14T08:24:57Z</time></trkpt><trkpt lat="43.93253484774215" lon="11.648804148183682"><ele>746.4</ele><time>2026-04-14T08:24:58Z</time></trkpt><trkpt lat="43.932480962398984" lon="11.648683159276542"><ele>746.0</ele><time>2026-04-14T08:24:59Z</time></trkpt><trkpt lat="43.93242052525286" lon="11.64855329301329"><ele>746.0</ele><time>2026-04-14T08:25:00Z</time></trkpt><trkpt lat="43.93235983500141" lon="11.648423939951481"><ele>746.0</ele><time>2026-04-14T08:25:01Z</time></trkpt><trkpt lat="43.93229667165679" lon="11.64830213681633"><ele>746.0</ele><time>2026-04-14T08:25:02Z</time></trkpt><trkpt lat="43.93222063002103" lon="11.648212345981717"><ele>746.0</ele><time>2026-04-14T08:25:03Z</time></trkpt><trkpt lat="43.93212873338731" lon="11.648164792121738"><ele>746.0</ele><time>2026-04-14T08:25:04Z</time></trkpt><trkpt lat="43.932024059346205" lon="11.648133130912345"><ele>746.0</ele><time>2026-04-14T08:25:05Z</time></trkpt><trkpt lat="43.93193358028336" lon="11.648057888533552"><ele>746.0</ele><time>2026-04-14T08:25:06Z</time></trkpt><trkpt lat="43.931866155212965" lon="11.647931347628734"><ele>746.0</ele><time>2026-04-14T08:25:07Z</time></trkpt><trkpt lat="43.9317990681371" lon="11.64778647638717"><ele>746.0</ele><time>2026-04-14T08:25:08Z</time></trkpt><trkpt lat="43.93173152839143" lon="11.64763042337119"><ele>743.0</ele><time>2026-04-14T08:25:09Z</time></trkpt><trkpt lat="43.931688956742036" lon="11.647458585504348"><ele>740.0</ele><time>2026-04-14T08:25:10Z</time></trkpt><trkpt lat="43.93166837047571" lon="11.647286029024203"><ele>737.0</ele><time>2026-04-14T08:25:11Z</time></trkpt><trkpt lat="43.931675822654356" lon="11.647131172190987"><ele>734.0</ele><time>2026-04-14T08:25:12Z</time></trkpt><trkpt lat="43.93172089333905" lon="11.647013286967573"><ele>740.0</ele><time>2026-04-14T08:25:13Z</time></trkpt><trkpt lat="43.931798852254396" lon="11.646917746160518"><ele>746.0</ele><time>2026-04-14T08:25:14Z</time></trkpt><trkpt lat="43.93186825147689" lon="11.64681850201036"><ele>752.0</ele><time>2026-04-14T08:25:15Z</time></trkpt><trkpt lat="43.93191718653711" lon="11.64671624623251"><ele>758.0</ele><time>2026-04-14T08:25:16Z</time></trkpt><trkpt lat="43.93193442559165" lon="11.646603488521173"><ele>764.0</ele><time>2026-04-14T08:25:17Z</time></trkpt><trkpt lat="43.93190539105356" lon="11.646493440809504"><ele>764.0</ele><time>2026-04-14T08:25:18Z</time></trkpt><trkpt lat="43.931834023886424" lon="11.646391627066203"><ele>764.0</ele><time>2026-04-14T08:25:19Z</time></trkpt><trkpt lat="43.931737582740155" lon="11.646302399827382"><ele>764.0</ele><time>2026-04-14T08:25:20Z</time></trkpt><trkpt lat="43.931638083064755" lon="11.646222970888964"><ele>764.0</ele><time>2026-04-14T08:25:21Z</time></trkpt><trkpt lat="43.93153443985858" lon="11.646189286589216"><ele>764.0</ele><time>2026-04-14T08:25:22Z</time></trkpt><trkpt lat="43.9314206838606" lon="11.646183539656132"><ele>762.0</ele><time>2026-04-14T08:25:23Z</time></trkpt><trkpt lat="43.93130649847416" lon="11.64618453992484"><ele>760.0</ele><time>2026-04-14T08:25:24Z</time></trkpt><trkpt lat="43.931203907120945" lon="11.646150240865733"><ele>758.0</ele><time>2026-04-14T08:25:25Z</time></trkpt><trkpt lat="43.93114002765769" lon="11.646063654126843"><ele>756.0</ele><time>2026-04-14T08:25:26Z</time></trkpt><trkpt lat="43.931103379384766" lon="11.64594163800252"><ele>754.0</ele><time>2026-04-14T08:25:27Z</time></trkpt><trkpt lat="43.93110170671141" lon="11.64579080678239"><ele>754.0</ele><time>2026-04-14T08:25:28Z</time></trkpt><trkpt lat="43.93112623280187" lon="11.645628265799703"><ele>754.0</ele><time>2026-04-14T08:25:29Z</time></trkpt><trkpt lat="43.931156161312884" lon="11.645467941436294"><ele>754.0</ele><time>2026-04-14T08:25:30Z</time></trkpt><trkpt lat="43.9311817032643" lon="11.645321228177016"><ele>754.0</ele><time>2026-04-14T08:25:31Z</time></trkpt><trkpt lat="43.93118872860486" lon="11.645178279171086"><ele>754.4000000000001</ele><time>2026-04-14T08:25:32Z</time></trkpt><trkpt lat="43.93115524310566" lon="11.645041731204744"><ele>754.8</ele><time>2026-04-14T08:25:33Z</time></trkpt><trkpt lat="43.93110398715101" lon="11.644911701473866"><ele>755.2</ele><time>2026-04-14T08:25:34Z</time></trkpt><trkpt lat="43.93107126635081" lon="11.64478385805101"><ele>755.5999999999999</ele><time>2026-04-14T08:25:35Z</time></trkpt><trkpt lat="43.93106960518719" lon="11.644647452585499"><ele>756.0</ele><time>2026-04-14T08:25:36Z</time></trkpt><trkpt lat="43.93111396702722" lon="11.644527764336159"><ele>751.8</ele><time>2026-04-14T08:25:37Z</time></trkpt><trkpt lat="43.93118616740933" lon="11.644439825173588"><ele>747.5999999999999</ele><time>2026-04-14T08:25:38Z</time></trkpt><trkpt lat="43.931291191999165" lon="11.644395332357389"><ele>743.4</ele><time>2026-04-14T08:25:39Z</time></trkpt><trkpt lat="43.931400068436965" lon="11.644366329097664"><ele>739.2</ele><time>2026-04-14T08:25:40Z</time></trkpt><trkpt lat="43.93150578324984" lon="11.644358540101912"><ele>735.0</ele><time>2026-04-14T08:25:41Z</time></trkpt><trkpt lat="43.93160711387699" lon="11.644362778298824"><ele>735.0</ele><time>2026-04-14T08:25:42Z</time></trkpt><trkpt lat="43.931703753360836" lon="11.644359257187174"><ele>735.0</ele><time>2026-04-14T08:25:43Z</time></trkpt><trkpt lat="43.93178929696965" lon="11.644299991705562"><ele>735.0</ele><time>2026-04-14T08:25:44Z</time></trkpt><trkpt lat="43.93183874193532" lon="11.644181513914374"><ele>735.0</ele><time>2026-04-14T08:25:45Z</time></trkpt><trkpt lat="43.931871606367274" lon="11.644037668261364"><ele>735.0</ele><time>2026-04-14T08:25:46Z</time></trkpt><trkpt lat="43.93191101942575" lon="11.643883464809441"><ele>742.2</ele><time>2026-04-14T08:25:47Z</time></trkpt><trkpt lat="43.9319550724837" lon="11.643738102837883"><ele>749.4</ele><time>2026-04-14T08:25:48Z</time></trkpt><trkpt lat="43.9319964557853" lon="11.643608174127046"><ele>756.5999999999999</ele><time>2026-04-14T08:25:49Z</time></trkpt><trkpt lat="43.932025122859244" lon="11.643489599178913"><ele>763.8</ele><time>2026-04-14T08:25:50Z</time></trkpt><trkpt lat="43.93201552073662" lon="11.643375928068888"><ele>771.0</ele><time>2026-04-14T08:25:51Z</time></trkpt><trkpt lat="43.93197173157834" lon="11.64327059877026"><ele>771.0</ele><time>2026-04-14T08:25:52Z</time></trkpt><trkpt lat="43.931906406745426" lon="11.643185525980075"><ele>771.0</ele><time>2026-04-14T08:25:53Z</time></trkpt><trkpt lat="43.93185214910984" lon="11.643097880772203"><ele>771.0</ele><time>2026-04-14T08:25:54Z</time></trkpt><trkpt lat="43.93180893715182" lon="11.642963229867012"><ele>771.0</ele><time>2026-04-14T08:25:56Z</time></trkpt><trkpt lat="43.93186937941405" lon="11.64290174592854"><ele>771.0</ele><time>2026-04-14T08:25:58Z</time></trkpt><trkpt lat="43.931925008563795" lon="11.643003219208227"><ele>771.0</ele><time>2026-04-14T08:26:00Z</time></trkpt><trkpt lat="43.931958580106944" lon="11.643094186242152"><ele>771.0</ele><time>2026-04-14T08:26:01Z</time></trkpt><trkpt lat="43.9320075751565" lon="11.643180654687027"><ele>771.0</ele><time>2026-04-14T08:26:02Z</time></trkpt><trkpt lat="43.93204448728997" lon="11.643289218875083"><ele>771.0</ele><time>2026-04-14T08:26:03Z</time></trkpt><trkpt lat="43.93208234882425" lon="11.643398231195816"><ele>771.0</ele><time>2026-04-14T08:26:04Z</time></trkpt><trkpt lat="43.932095587129005" lon="11.643521285913332"><ele>771.0</ele><time>2026-04-14T08:26:05Z</time></trkpt><trkpt lat="43.93205511503738" lon="11.643641349642289"><ele>771.0</ele><time>2026-04-14T08:26:06Z</time></trkpt><trkpt lat="43.93202098286621" lon="11.643764168934334"><ele>772.1999999999999</ele><time>2026-04-14T08:26:07Z</time></trkpt><trkpt lat="43.93198369087265" lon="11.64389173199664"><ele>773.4</ele><time>2026-04-14T08:26:08Z</time></trkpt><trkpt lat="43.93198445015659" lon="11.644031607280604"><ele>774.6</ele><time>2026-04-14T08:26:09Z</time></trkpt><trkpt lat="43.932006689766766" lon="11.644167132585121"><ele>775.8</ele><time>2026-04-14T08:26:10Z</time></trkpt><trkpt lat="43.93199576525468" lon="11.644289967046795"><ele>777.0</ele><time>2026-04-14T08:26:11Z</time></trkpt><trkpt lat="43.93194271806451" lon="11.644379181827647"><ele>777.0</ele><time>2026-04-14T08:26:12Z</time></trkpt><trkpt lat="43.9318602790157" lon="11.644420978118566"><ele>777.0</ele><time>2026-04-14T08:26:13Z</time></trkpt><trkpt lat="43.931767169152536" lon="11.644458517694213"><ele>777.0</ele><time>2026-04-14T08:26:14Z</time></trkpt><trkpt lat="43.931665335060345" lon="11.64449349012703"><ele>777.0</ele><time>2026-04-14T08:26:15Z</time></trkpt><trkpt lat="43.931568683941485" lon="11.64451891334136"><ele>777.0</ele><time>2026-04-14T08:26:16Z</time></trkpt><trkpt lat="43.93148126062646" lon="11.64454182148578"><ele>773.5</ele><time>2026-04-14T08:26:17Z</time></trkpt><trkpt lat="43.931402458630544" lon="11.644573646686315"><ele>770.0</ele><time>2026-04-14T08:26:18Z</time></trkpt><trkpt lat="43.93133803194729" lon="11.644648427007004"><ele>766.5</ele><time>2026-04-14T08:26:19Z</time></trkpt><trkpt lat="43.93131708661822" lon="11.644758558296822"><ele>763.0</ele><time>2026-04-14T08:26:20Z</time></trkpt><trkpt lat="43.93133227789739" lon="11.644885133611604"><ele>759.5</ele><time>2026-04-14T08:26:21Z</time></trkpt><trkpt lat="43.93135064277457" lon="11.645022869095602"><ele>756.0</ele><time>2026-04-14T08:26:22Z</time></trkpt><trkpt lat="43.93135795041031" lon="11.645175948282533"><ele>755.5999999999999</ele><time>2026-04-14T08:26:23Z</time></trkpt><trkpt lat="43.93135283356081" lon="11.64533375416796"><ele>755.2</ele><time>2026-04-14T08:26:24Z</time></trkpt><trkpt lat="43.93134330634236" lon="11.64547544984205"><ele>754.8</ele><time>2026-04-14T08:26:25Z</time></trkpt><trkpt lat="43.931332410031246" lon="11.645597983898973"><ele>754.4000000000001</ele><time>2026-04-14T08:26:26Z</time></trkpt><trkpt lat="43.93133393487495" lon="11.64571903906023"><ele>754.0</ele><time>2026-04-14T08:26:27Z</time></trkpt><trkpt lat="43.93136584760594" lon="11.645825750709992"><ele>754.0</ele><time>2026-04-14T08:26:28Z</time></trkpt><trkpt lat="43.93143917351695" lon="11.645886891598158"><ele>754.0</ele><time>2026-04-14T08:26:29Z</time></trkpt><trkpt lat="43.93153041568391" lon="11.645898615626965"><ele>754.0</ele><time>2026-04-14T08:26:30Z</time></trkpt><trkpt lat="43.93163031407182" lon="11.645903105456677"><ele>754.0</ele><time>2026-04-14T08:26:31Z</time></trkpt><trkpt lat="43.931731962313734" lon="11.645932049340594"><ele>754.0</ele><time>2026-04-14T08:26:32Z</time></trkpt><trkpt lat="43.931831386803864" lon="11.646005705957613"><ele>756.5</ele><time>2026-04-14T08:26:33Z</time></trkpt><trkpt lat="43.93192995877647" lon="11.646098024322866"><ele>759.0</ele><time>2026-04-14T08:26:34Z</time></trkpt><trkpt lat="43.93204652036544" lon="11.646200293484036"><ele>761.5</ele><time>2026-04-14T08:26:35Z</time></trkpt><trkpt lat="43.93216114561985" lon="11.646282287460343"><ele>764.0</ele><time>2026-04-14T08:26:36Z</time></trkpt><trkpt lat="43.93228122943128" lon="11.64633615824043"><ele>764.0</ele><time>2026-04-14T08:26:37Z</time></trkpt><trkpt lat="43.932397779081725" lon="11.646347520108142"><ele>764.0</ele><time>2026-04-14T08:26:38Z</time></trkpt><trkpt lat="43.93249752878352" lon="11.646378837155522"><ele>764.0</ele><time>2026-04-14T08:26:39Z</time></trkpt><trkpt lat="43.93257859744463" lon="11.646449395191915"><ele>764.0</ele><time>2026-04-14T08:26:40Z</time></trkpt><trkpt lat="43.93262134857309" lon="11.646564376490876"><ele>764.0</ele><time>2026-04-14T08:26:41Z</time></trkpt><trkpt lat="43.9326177995389" lon="11.646680150850196"><ele>764.0</ele><time>2026-04-14T08:26:42Z</time></trkpt><trkpt lat="43.932566287532005" lon="11.646797101384221"><ele>764.0</ele><time>2026-04-14T08:26:43Z</time></trkpt><trkpt lat="43.93248603315724" lon="11.646891860591703"><ele>764.0</ele><time>2026-04-14T08:26:44Z</time></trkpt><trkpt lat="43.932386691371" lon="11.646974740410101"><ele>764.0</ele><time>2026-04-14T08:26:45Z</time></trkpt><trkpt lat="43.932304864349106" lon="11.647044269942656"><ele>764.0</ele><time>2026-04-14T08:26:46Z</time></trkpt><trkpt lat="43.932247858728466" lon="11.647136806124038"><ele>763.2</ele><time>2026-04-14T08:26:47Z</time></trkpt><trkpt lat="43.932225134472716" lon="11.647264991591932"><ele>762.4000000000001</ele><time>2026-04-14T08:26:48Z</time></trkpt><trkpt lat="43.93225544429409" lon="11.647393964119246"><ele>761.6</ele><time>2026-04-14T08:26:49Z</time></trkpt><trkpt lat="43.93233443148835" lon="11.647483073326864"><ele>760.8</ele><time>2026-04-14T08:26:50Z</time></trkpt><trkpt lat="43.93243088332153" lon="11.647514778038493"><ele>760.0</ele><time>2026-04-14T08:26:51Z</time></trkpt><trkpt lat="43.93253186664119" lon="11.647464525615652"><ele>763.6</ele><time>2026-04-14T08:26:52Z</time></trkpt><trkpt lat="43.93259689610157" lon="11.64734944653687"><ele>767.2</ele><time>2026-04-14T08:26:53Z</time></trkpt><trkpt lat="43.932624811268376" lon="11.647220635503288"><ele>770.8</ele><time>2026-04-14T08:26:54Z</time></trkpt><trkpt lat="43.9326493894012" lon="11.647066157962398"><ele>774.4</ele><time>2026-04-14T08:26:55Z</time></trkpt><trkpt lat="43.932697023283644" lon="11.646910033761017"><ele>778.0</ele><time>2026-04-14T08:26:56Z</time></trkpt><trkpt lat="43.9327717934536" lon="11.646771604018786"><ele>781.4</ele><time>2026-04-14T08:26:57Z</time></trkpt><trkpt lat="43.93285062158812" lon="11.646660711588884"><ele>784.8</ele><time>2026-04-14T08:26:58Z</time></trkpt><trkpt lat="43.93291237988297" lon="11.646553153935542"><ele>788.2</ele><time>2026-04-14T08:26:59Z</time></trkpt><trkpt lat="43.9329497695577" lon="11.64644325822754"><ele>791.6</ele><time>2026-04-14T08:27:00Z</time></trkpt><trkpt lat="43.93294980108086" lon="11.646330790072653"><ele>795.0</ele><time>2026-04-14T08:27:01Z</time></trkpt><trkpt lat="43.93289911753186" lon="11.646230772923557"><ele>795.0</ele><time>2026-04-14T08:27:02Z</time></trkpt><trkpt lat="43.93281918512681" lon="11.646156853609785"><ele>795.0</ele><time>2026-04-14T08:27:03Z</time></trkpt><trkpt lat="43.93271825447877" lon="11.646093544207124"><ele>795.0</ele><time>2026-04-14T08:27:04Z</time></trkpt><trkpt lat="43.9326124811214" lon="11.646027794109822"><ele>795.0</ele><time>2026-04-14T08:27:05Z</time></trkpt><trkpt lat="43.93250376748454" lon="11.645944645940856"><ele>795.0</ele><time>2026-04-14T08:27:06Z</time></trkpt><trkpt lat="43.932395058904106" lon="11.645851955947633"><ele>793.4</ele><time>2026-04-14T08:27:07Z</time></trkpt><trkpt lat="43.93229365191223" lon="11.645758052613328"><ele>791.8</ele><time>2026-04-14T08:27:08Z</time></trkpt><trkpt lat="43.93220315515997" lon="11.645676538684427"><ele>790.2</ele><time>2026-04-14T08:27:09Z</time></trkpt><trkpt lat="43.932122560438124" lon="11.645598831946664"><ele>788.6</ele><time>2026-04-14T08:27:10Z</time></trkpt><trkpt lat="43.93206349235075" lon="11.645518979031532"><ele>787.0</ele><time>2026-04-14T08:27:11Z</time></trkpt><trkpt lat="43.93204166371156" lon="11.645416947819369"><ele>787.0</ele><time>2026-04-14T08:27:12Z</time></trkpt><trkpt lat="43.932058353463496" lon="11.645305198467783"><ele>787.0</ele><time>2026-04-14T08:27:13Z</time></trkpt><trkpt lat="43.93211558164744" lon="11.645241336375362"><ele>787.0</ele><time>2026-04-14T08:27:14Z</time></trkpt><trkpt lat="43.93220613742166" lon="11.645198773096894"><ele>787.0</ele><time>2026-04-14T08:27:15Z</time></trkpt><trkpt lat="43.93231135859031" lon="11.645146989704251"><ele>787.0</ele><time>2026-04-14T08:27:16Z</time></trkpt><trkpt lat="43.93242592403494" lon="11.64508031615342"><ele>788.25</ele><time>2026-04-14T08:27:17Z</time></trkpt><trkpt lat="43.932548542677665" lon="11.64497975043665"><ele>789.5</ele><time>2026-04-14T08:27:18Z</time></trkpt><trkpt lat="43.93266574758918" lon="11.644850493629482"><ele>790.75</ele><time>2026-04-14T08:27:19Z</time></trkpt><trkpt lat="43.93275057803135" lon="11.644740712390746"><ele>792.0</ele><time>2026-04-14T08:27:20Z</time></trkpt><trkpt lat="43.9328280138112" lon="11.644623334836728"><ele>800.5</ele><time>2026-04-14T08:27:21Z</time></trkpt><trkpt lat="43.93286740954449" lon="11.644483773298925"><ele>809.0</ele><time>2026-04-14T08:27:22Z</time></trkpt><trkpt lat="43.932859431580965" lon="11.644329483818105"><ele>817.5</ele><time>2026-04-14T08:27:23Z</time></trkpt><trkpt lat="43.93284943693868" lon="11.64417457893346"><ele>826.0</ele><time>2026-04-14T08:27:24Z</time></trkpt><trkpt lat="43.93287933292957" lon="11.644011185249466"><ele>826.0</ele><time>2026-04-14T08:27:25Z</time></trkpt><trkpt lat="43.93294701116777" lon="11.643846751149063"><ele>826.0</ele><time>2026-04-14T08:27:26Z</time></trkpt><trkpt lat="43.933013781777355" lon="11.643671855755278"><ele>826.0</ele><time>2026-04-14T08:27:27Z</time></trkpt><trkpt lat="43.933049885244785" lon="11.643498565362133"><ele>826.0</ele><time>2026-04-14T08:27:28Z</time></trkpt><trkpt lat="43.93305404072799" lon="11.643315615563221"><ele>822.8</ele><time>2026-04-14T08:27:29Z</time></trkpt><trkpt lat="43.9330291902197" lon="11.643162249181083"><ele>819.5999999999999</ele><time>2026-04-14T08:27:30Z</time></trkpt><trkpt lat="43.932998802579725" lon="11.643021030550491"><ele>816.4</ele><time>2026-04-14T08:27:31Z</time></trkpt><trkpt lat="43.93297056569428" lon="11.642909581819714"><ele>813.2</ele><time>2026-04-14T08:27:32Z</time></trkpt><trkpt lat="43.93301198832711" lon="11.642766757549166"><ele>810.0</ele><time>2026-04-14T08:27:34Z</time></trkpt><trkpt lat="43.933139488095875" lon="11.642829293730985"><ele>810.0</ele><time>2026-04-14T08:27:36Z</time></trkpt><trkpt lat="43.933191280608625" lon="11.642951418944635"><ele>810.0</ele><time>2026-04-14T08:27:37Z</time></trkpt><trkpt lat="43.93325737525858" lon="11.643081706285926"><ele>810.0</ele><time>2026-04-14T08:27:38Z</time></trkpt><trkpt lat="43.93334403960236" lon="11.643225126477445"><ele>810.0</ele><time>2026-04-14T08:27:39Z</time></trkpt><trkpt lat="43.93344374727624" lon="11.643375914165818"><ele>808.3333333333333</ele><time>2026-04-14T08:27:40Z</time></trkpt><trkpt lat="43.933557813711175" lon="11.643526930010943"><ele>806.6666666666666</ele><time>2026-04-14T08:27:41Z</time></trkpt><trkpt lat="43.93369286986659" lon="11.643671795955468"><ele>805.0</ele><time>2026-04-14T08:27:42Z</time></trkpt><trkpt lat="43.933837739716665" lon="11.643812526255367"><ele>810.3333333333333</ele><time>2026-04-14T08:27:43Z</time></trkpt><trkpt lat="43.933979025936885" lon="11.643953872406106"><ele>815.6666666666667</ele><time>2026-04-14T08:27:44Z</time></trkpt><trkpt lat="43.934108377305165" lon="11.644092675132168"><ele>821.0</ele><time>2026-04-14T08:27:45Z</time></trkpt><trkpt lat="43.93422233651005" lon="11.644218262393853"><ele>821.0</ele><time>2026-04-14T08:27:46Z</time></trkpt><trkpt lat="43.93434475195718" lon="11.644334188552437"><ele>821.0</ele><time>2026-04-14T08:27:47Z</time></trkpt><trkpt lat="43.93447686860249" lon="11.644432281049623"><ele>821.0</ele><time>2026-04-14T08:27:48Z</time></trkpt><trkpt lat="43.93462532032819" lon="11.644497280597975"><ele>830.0</ele><time>2026-04-14T08:27:49Z</time></trkpt><trkpt lat="43.93477469677471" lon="11.644557398860627"><ele>839.0</ele><time>2026-04-14T08:27:50Z</time></trkpt><trkpt lat="43.93490878245388" lon="11.644619267111732"><ele>848.0</ele><time>2026-04-14T08:27:51Z</time></trkpt><trkpt lat="43.93502974605672" lon="11.644675358079425"><ele>857.0</ele><time>2026-04-14T08:27:52Z</time></trkpt><trkpt lat="43.93513612725711" lon="11.644717536196492"><ele>858.4000000000001</ele><time>2026-04-14T08:27:53Z</time></trkpt><trkpt lat="43.93523578104206" lon="11.644717370794345"><ele>859.8000000000001</ele><time>2026-04-14T08:27:54Z</time></trkpt><trkpt lat="43.935335039973154" lon="11.644669405017588"><ele>861.2</ele><time>2026-04-14T08:27:55Z</time></trkpt><trkpt lat="43.93541879664508" lon="11.644568968619579"><ele>862.6</ele><time>2026-04-14T08:27:56Z</time></trkpt><trkpt lat="43.9355043448288" lon="11.644497698153115"><ele>864.0</ele><time>2026-04-14T08:27:57Z</time></trkpt><trkpt lat="43.935610503611656" lon="11.64448218453627"><ele>864.0</ele><time>2026-04-14T08:27:58Z</time></trkpt><trkpt lat="43.93570875519449" lon="11.64452826404817"><ele>864.0000000000001</ele><time>2026-04-14T08:27:59Z</time></trkpt><trkpt lat="43.9357839958083" lon="11.644618522344844"><ele>864.0000000000001</ele><time>2026-04-14T08:28:00Z</time></trkpt><trkpt lat="43.93585124511378" lon="11.644710551110114"><ele>864.0</ele><time>2026-04-14T08:28:01Z</time></trkpt><trkpt lat="43.935953496281854" lon="11.644733237693858"><ele>864.0</ele><time>2026-04-14T08:28:02Z</time></trkpt><trkpt lat="43.936050650208486" lon="11.644726924658967"><ele>866.25</ele><time>2026-04-14T08:28:03Z</time></trkpt><trkpt lat="43.93611706372577" lon="11.644594936797354"><ele>868.5</ele><time>2026-04-14T08:28:04Z</time></trkpt><trkpt lat="43.9361484659241" lon="11.64445066604143"><ele>870.75</ele><time>2026-04-14T08:28:05Z</time></trkpt><trkpt lat="43.936181288534684" lon="11.644292967230085"><ele>873.0</ele><time>2026-04-14T08:28:06Z</time></trkpt><trkpt lat="43.936221360912455" lon="11.644122209246737"><ele>873.0</ele><time>2026-04-14T08:28:07Z</time></trkpt><trkpt lat="43.93626232241016" lon="11.643967811059268"><ele>873.0</ele><time>2026-04-14T08:28:08Z</time></trkpt><trkpt lat="43.93627596718109" lon="11.643828019783506"><ele>873.0</ele><time>2026-04-14T08:28:09Z</time></trkpt><trkpt lat="43.93624199630185" lon="11.64369133293035"><ele>873.0</ele><time>2026-04-14T08:28:10Z</time></trkpt><trkpt lat="43.93616270573111" lon="11.643565971257885"><ele>873.0</ele><time>2026-04-14T08:28:11Z</time></trkpt><trkpt lat="43.93606870358233" lon="11.643485808430054"><ele>870.6666666666666</ele><time>2026-04-14T08:28:12Z</time></trkpt><trkpt lat="43.93599328103356" lon="11.643424609425914"><ele>868.3333333333333</ele><time>2026-04-14T08:28:13Z</time></trkpt><trkpt lat="43.93593944523362" lon="11.643345108153683"><ele>866.0</ele><time>2026-04-14T08:28:14Z</time></trkpt><trkpt lat="43.935922834263074" lon="11.643238127171387"><ele>863.6666666666666</ele><time>2026-04-14T08:28:15Z</time></trkpt><trkpt lat="43.93594556911002" lon="11.643130894086017"><ele>861.3333333333333</ele><time>2026-04-14T08:28:16Z</time></trkpt><trkpt lat="43.936014238373744" lon="11.643068189347739"><ele>859.0</ele><time>2026-04-14T08:28:17Z</time></trkpt><trkpt lat="43.936098652117806" lon="11.643068753868908"><ele>859.0</ele><time>2026-04-14T08:28:18Z</time></trkpt><trkpt lat="43.93616773820603" lon="11.64313293862524"><ele>859.0000000000001</ele><time>2026-04-14T08:28:19Z</time></trkpt><trkpt lat="43.93622077067236" lon="11.643247698305709"><ele>859.0000000000001</ele><time>2026-04-14T08:28:20Z</time></trkpt><trkpt lat="43.93628242477743" lon="11.643386193479037"><ele>859.0</ele><time>2026-04-14T08:28:21Z</time></trkpt><trkpt lat="43.93634920154678" lon="11.643542704567256"><ele>859.0</ele><time>2026-04-14T08:28:22Z</time></trkpt><trkpt lat="43.936412846676276" lon="11.643723891584722"><ele>862.5</ele><time>2026-04-14T08:28:23Z</time></trkpt><trkpt lat="43.9364495033177" lon="11.643922000688724"><ele>866.0</ele><time>2026-04-14T08:28:24Z</time></trkpt><trkpt lat="43.936468429417616" lon="11.64413446806105"><ele>869.5</ele><time>2026-04-14T08:28:25Z</time></trkpt><trkpt lat="43.936504597188694" lon="11.644329663962495"><ele>873.0</ele><time>2026-04-14T08:28:26Z</time></trkpt><trkpt lat="43.936569713752455" lon="11.64451278014783"><ele>873.8</ele><time>2026-04-14T08:28:27Z</time></trkpt><trkpt lat="43.93662980271371" lon="11.644676164732818"><ele>874.5999999999999</ele><time>2026-04-14T08:28:28Z</time></trkpt><trkpt lat="43.936709333124824" lon="11.644800391406113"><ele>875.4000000000001</ele><time>2026-04-14T08:28:29Z</time></trkpt><trkpt lat="43.93673722789548" lon="11.64493190914898"><ele>876.2</ele><time>2026-04-14T08:28:30Z</time></trkpt><trkpt lat="43.93671855989159" lon="11.645046794624156"><ele>877.0</ele><time>2026-04-14T08:28:31Z</time></trkpt><trkpt lat="43.93665756506289" lon="11.645128156514877"><ele>877.0</ele><time>2026-04-14T08:28:32Z</time></trkpt><trkpt lat="43.93656812988617" lon="11.645176889867319"><ele>877.0</ele><time>2026-04-14T08:28:33Z</time></trkpt><trkpt lat="43.93645311177869" lon="11.645205695392724"><ele>877.0</ele><time>2026-04-14T08:28:34Z</time></trkpt><trkpt lat="43.93632793890331" lon="11.645239833970054"><ele>877.0</ele><time>2026-04-14T08:28:35Z</time></trkpt><trkpt lat="43.936197078006415" lon="11.645297919301154"><ele>880.3333333333333</ele><time>2026-04-14T08:28:36Z</time></trkpt><trkpt lat="43.936046498919254" lon="11.645361565227349"><ele>883.6666666666667</ele><time>2026-04-14T08:28:37Z</time></trkpt><trkpt lat="43.935895162309414" lon="11.645419677254779"><ele>887.0</ele><time>2026-04-14T08:28:38Z</time></trkpt><trkpt lat="43.93575735897708" lon="11.645483221765332"><ele>887.0</ele><time>2026-04-14T08:28:39Z</time></trkpt><trkpt lat="43.93563559684834" lon="11.645573018116911"><ele>887.0</ele><time>2026-04-14T08:28:40Z</time></trkpt><trkpt lat="43.93551946833424" lon="11.645639995331027"><ele>887.0</ele><time>2026-04-14T08:28:41Z</time></trkpt><trkpt lat="43.93540073876385" lon="11.645671893300289"><ele>887.0</ele><time>2026-04-14T08:28:42Z</time></trkpt><trkpt lat="43.93528265545245" lon="11.645673629931926"><ele>887.0000000000001</ele><time>2026-04-14T08:28:43Z</time></trkpt><trkpt lat="43.93516922159579" lon="11.645674475359558"><ele>887.0</ele><time>2026-04-14T08:28:44Z</time></trkpt><trkpt lat="43.935070461016345" lon="11.645674550913661"><ele>887.0</ele><time>2026-04-14T08:28:45Z</time></trkpt><trkpt lat="43.93498833660566" lon="11.645697371943445"><ele>887.0</ele><time>2026-04-14T08:28:46Z</time></trkpt><trkpt lat="43.93492910403228" lon="11.645763060884937"><ele>887.0000000000001</ele><time>2026-04-14T08:28:47Z</time></trkpt><trkpt lat="43.934907715864064" lon="11.645865517296913"><ele>887.0</ele><time>2026-04-14T08:28:48Z</time></trkpt><trkpt lat="43.9349378865145" lon="11.645969162141789"><ele>884.0</ele><time>2026-04-14T08:28:49Z</time></trkpt><trkpt lat="43.935011791780894" lon="11.646061808987373"><ele>881.0</ele><time>2026-04-14T08:28:50Z</time></trkpt><trkpt lat="43.935103376451124" lon="11.646179765588641"><ele>878.0</ele><time>2026-04-14T08:28:51Z</time></trkpt><trkpt lat="43.935204646959065" lon="11.646322128435079"><ele>875.0</ele><time>2026-04-14T08:28:52Z</time></trkpt><trkpt lat="43.93530867621599" lon="11.646440220889616"><ele>879.2</ele><time>2026-04-14T08:28:53Z</time></trkpt><trkpt lat="43.93541986458028" lon="11.646504761036361"><ele>883.4</ele><time>2026-04-14T08:28:54Z</time></trkpt><trkpt lat="43.93551300780886" lon="11.646574978398819"><ele>887.5999999999999</ele><time>2026-04-14T08:28:55Z</time></trkpt><trkpt lat="43.9355654624566" lon="11.646695175259081"><ele>891.8</ele><time>2026-04-14T08:28:56Z</time></trkpt><trkpt lat="43.93559415153089" lon="11.646855822424742"><ele>896.0</ele><time>2026-04-14T08:28:57Z</time></trkpt><trkpt lat="43.935617096322424" lon="11.647045640911058"><ele>896.0</ele><time>2026-04-14T08:28:58Z</time></trkpt><trkpt lat="43.93565680122533" lon="11.647226719384689"><ele>896.0</ele><time>2026-04-14T08:28:59Z</time></trkpt><trkpt lat="43.93573062653923" lon="11.6473908576186"><ele>896.0</ele><time>2026-04-14T08:29:00Z</time></trkpt><trkpt lat="43.93583434626216" lon="11.647548784034155"><ele>896.0</ele><time>2026-04-14T08:29:01Z</time></trkpt><trkpt lat="43.93594932487358" lon="11.647690304070926"><ele>905.75</ele><time>2026-04-14T08:29:02Z</time></trkpt><trkpt lat="43.93605220830256" lon="11.647829084877527"><ele>915.5</ele><time>2026-04-14T08:29:03Z</time></trkpt><trkpt lat="43.9361236700784" lon="11.647986680843706"><ele>925.25</ele><time>2026-04-14T08:29:04Z</time></trkpt><trkpt lat="43.93616878532566" lon="11.648150701163964"><ele>935.0</ele><time>2026-04-14T08:29:05Z</time></trkpt><trkpt lat="43.93617037305577" lon="11.648303643569141"><ele>935.0</ele><time>2026-04-14T08:29:06Z</time></trkpt><trkpt lat="43.9361331415245" lon="11.648432586180817"><ele>935.0</ele><time>2026-04-14T08:29:07Z</time></trkpt><trkpt lat="43.936071820668765" lon="11.648552283705692"><ele>935.0</ele><time>2026-04-14T08:29:08Z</time></trkpt><trkpt lat="43.936064552522026" lon="11.648678556526072"><ele>935.0</ele><time>2026-04-14T08:29:09Z</time></trkpt><trkpt lat="43.93610320505415" lon="11.648798632449987"><ele>935.0</ele><time>2026-04-14T08:29:10Z</time></trkpt><trkpt lat="43.93617354159852" lon="11.648916006067582"><ele>936.0</ele><time>2026-04-14T08:29:11Z</time></trkpt><trkpt lat="43.93621678676367" lon="11.649068233204781"><ele>937.0</ele><time>2026-04-14T08:29:12Z</time></trkpt><trkpt lat="43.93625896600242" lon="11.649228919702503"><ele>938.0</ele><time>2026-04-14T08:29:13Z</time></trkpt><trkpt lat="43.936264388355895" lon="11.649398492622778"><ele>939.0</ele><time>2026-04-14T08:29:14Z</time></trkpt><trkpt lat="43.93626030295797" lon="11.649566073525849"><ele>940.0</ele><time>2026-04-14T08:29:15Z</time></trkpt><trkpt lat="43.93622194087049" lon="11.649724564786576"><ele>941.0000000000001</ele><time>2026-04-14T08:29:16Z</time></trkpt><trkpt lat="43.936161408020574" lon="11.649854599855127"><ele>942.0000000000001</ele><time>2026-04-14T08:29:17Z</time></trkpt><trkpt lat="43.936074702924984" lon="11.649950062753703"><ele>943.0</ele><time>2026-04-14T08:29:18Z</time></trkpt><trkpt lat="43.9359785795765" lon="11.650001413567304"><ele>944.0</ele><time>2026-04-14T08:29:19Z</time></trkpt><trkpt lat="43.935891186883666" lon="11.65004769114567"><ele>934.75</ele><time>2026-04-14T08:29:20Z</time></trkpt><trkpt lat="43.93581246832285" lon="11.650155326667"><ele>925.5</ele><time>2026-04-14T08:29:21Z</time></trkpt><trkpt lat="43.93576405619574" lon="11.650316528212098"><ele>916.25</ele><time>2026-04-14T08:29:22Z</time></trkpt><trkpt lat="43.93571299067835" lon="11.650482068811751"><ele>907.0</ele><time>2026-04-14T08:29:23Z</time></trkpt><trkpt lat="43.93566462654003" lon="11.650637019580122"><ele>907.0</ele><time>2026-04-14T08:29:24Z</time></trkpt><trkpt lat="43.93563274565502" lon="11.650806187834466"><ele>907.0</ele><time>2026-04-14T08:29:25Z</time></trkpt><trkpt lat="43.935625616972104" lon="11.650975165923454"><ele>907.0</ele><time>2026-04-14T08:29:26Z</time></trkpt><trkpt lat="43.93559100907279" lon="11.65114089127254"><ele>907.0</ele><time>2026-04-14T08:29:27Z</time></trkpt><trkpt lat="43.93551721090495" lon="11.651296849366481"><ele>913.25</ele><time>2026-04-14T08:29:28Z</time></trkpt><trkpt lat="43.93543271850086" lon="11.651450790942665"><ele>919.5</ele><time>2026-04-14T08:29:29Z</time></trkpt><trkpt lat="43.93534755874246" lon="11.65160268170732"><ele>925.75</ele><time>2026-04-14T08:29:30Z</time></trkpt><trkpt lat="43.935267369883775" lon="11.65175871535588"><ele>932.0</ele><time>2026-04-14T08:29:31Z</time></trkpt><trkpt lat="43.93518948797583" lon="11.651908754592458"><ele>932.75</ele><time>2026-04-14T08:29:32Z</time></trkpt><trkpt lat="43.9351159391667" lon="11.652049212791201"><ele>933.5</ele><time>2026-04-14T08:29:33Z</time></trkpt><trkpt lat="43.9350448103718" lon="11.652179506605695"><ele>934.25</ele><time>2026-04-14T08:29:34Z</time></trkpt><trkpt lat="43.93496878949725" lon="11.652295557627898"><ele>935.0</ele><time>2026-04-14T08:29:35Z</time></trkpt><trkpt lat="43.93486873061286" lon="11.652389200204006"><ele>930.25</ele><time>2026-04-14T08:29:36Z</time></trkpt><trkpt lat="43.93474845788995" lon="11.652470201419002"><ele>925.5</ele><time>2026-04-14T08:29:37Z</time></trkpt><trkpt lat="43.9346276792723" lon="11.652548097208685"><ele>920.75</ele><time>2026-04-14T08:29:38Z</time></trkpt><trkpt lat="43.93452090814444" lon="11.652610331856307"><ele>916.0</ele><time>2026-04-14T08:29:39Z</time></trkpt><trkpt lat="43.934414151151294" lon="11.652653191718986"><ele>916.0</ele><time>2026-04-14T08:29:40Z</time></trkpt><trkpt lat="43.93431110029409" lon="11.652686837898887"><ele>916.0</ele><time>2026-04-14T08:29:41Z</time></trkpt><trkpt lat="43.93422258140569" lon="11.652759497164887"><ele>916.0</ele><time>2026-04-14T08:29:42Z</time></trkpt><trkpt lat="43.9341432582505" lon="11.652880103272837"><ele>916.0</ele><time>2026-04-14T08:29:43Z</time></trkpt><trkpt lat="43.93407497726354" lon="11.65304409747591"><ele>915.75</ele><time>2026-04-14T08:29:44Z</time></trkpt><trkpt lat="43.9340008330751" lon="11.653213197614027"><ele>915.5</ele><time>2026-04-14T08:29:45Z</time></trkpt><trkpt lat="43.93392563827993" lon="11.653372690893628"><ele>915.25</ele><time>2026-04-14T08:29:46Z</time></trkpt><trkpt lat="43.933856649063024" lon="11.653519545179256"><ele>915.0</ele><time>2026-04-14T08:29:47Z</time></trkpt><trkpt lat="43.933777902004536" lon="11.653648598820212"><ele>912.5</ele><time>2026-04-14T08:29:48Z</time></trkpt><trkpt lat="43.933667960607934" lon="11.65373898633853"><ele>910.0</ele><time>2026-04-14T08:29:49Z</time></trkpt><trkpt lat="43.93354454865721" lon="11.653820615417658"><ele>907.5</ele><time>2026-04-14T08:29:50Z</time></trkpt><trkpt lat="43.9334288355021" lon="11.653906513660846"><ele>905.0</ele><time>2026-04-14T08:29:51Z</time></trkpt><trkpt lat="43.93332435892223" lon="11.654002941039618"><ele>905.0</ele><time>2026-04-14T08:29:52Z</time></trkpt><trkpt lat="43.93323457233738" lon="11.654132404575568"><ele>905.0</ele><time>2026-04-14T08:29:53Z</time></trkpt><trkpt lat="43.93316802644454" lon="11.654279081916787"><ele>905.0</ele><time>2026-04-14T08:29:54Z</time></trkpt><trkpt lat="43.933101712277924" lon="11.654416390154807"><ele>905.0</ele><time>2026-04-14T08:29:55Z</time></trkpt><trkpt lat="43.933037920196384" lon="11.65454579159456"><ele>906.2</ele><time>2026-04-14T08:29:56Z</time></trkpt><trkpt lat="43.932973029664424" lon="11.654666687882655"><ele>907.4</ele><time>2026-04-14T08:29:57Z</time></trkpt><trkpt lat="43.932909636603064" lon="11.654780214521546"><ele>908.5999999999999</ele><time>2026-04-14T08:29:58Z</time></trkpt><trkpt lat="43.93284726395736" lon="11.654882407390314"><ele>909.8</ele><time>2026-04-14T08:29:59Z</time></trkpt><trkpt lat="43.93279263525746" lon="11.65496506454759"><ele>911.0</ele><time>2026-04-14T08:30:00Z</time></trkpt><trkpt lat="43.93274624721042" lon="11.6550307554064"><ele>911.0000000000001</ele><time>2026-04-14T08:30:01Z</time></trkpt><trkpt lat="43.932666689665055" lon="11.655126882106833"><ele>911.0</ele><time>2026-04-14T08:30:03Z</time></trkpt><trkpt lat="43.93261332446338" lon="11.655205914372056"><ele>911.0</ele><time>2026-04-14T08:30:05Z</time></trkpt><trkpt lat="43.932612884476285" lon="11.655303179876208"><ele>911.0</ele><time>2026-04-14T08:32:18Z</time></trkpt><trkpt lat="43.93264113201616" lon="11.655392904381099"><ele>911.0000000000001</ele><time>2026-04-14T08:38:14Z</time></trkpt><trkpt lat="43.93269066629416" lon="11.65549470677784"><ele>911.0</ele><time>2026-04-14T08:39:24Z</time></trkpt><trkpt lat="43.93264252901976" lon="11.65536735568512"><ele>911.0</ele><time>2026-04-14T08:41:24.897Z</time></trkpt><trkpt lat="43.932638501589416" lon="11.655456790184553"><ele>911.0</ele><time>2026-04-14T08:44:12Z</time></trkpt><trkpt lat="43.93259658049602" lon="11.655387286112155"><ele>911.0</ele><time>2026-04-14T08:47:20Z</time></trkpt><trkpt lat="43.9325946137775" lon="11.655294410648617"><ele>911.0</ele><time>2026-04-14T08:48:00.999Z</time></trkpt><trkpt lat="43.93266285116688" lon="11.655251418610847"><ele>911.0</ele><time>2026-04-14T08:50:29Z</time></trkpt><trkpt lat="43.932603441275184" lon="11.655327153824553"><ele>911.0</ele><time>2026-04-14T08:52:38Z</time></trkpt><trkpt lat="43.9325768966934" lon="11.655432632842027"><ele>911.0</ele><time>2026-04-14T08:52:40Z</time></trkpt><trkpt lat="43.93252365401575" lon="11.655555682204179"><ele>910.0</ele><time>2026-04-14T08:52:42Z</time></trkpt><trkpt lat="43.93244713369644" lon="11.655699080181094"><ele>908.9999999999999</ele><time>2026-04-14T08:52:44Z</time></trkpt><trkpt lat="43.93240968284454" lon="11.655793172859843"><ele>907.9999999999999</ele><time>2026-04-14T08:52:45Z</time></trkpt><trkpt lat="43.932387011504545" lon="11.65590621288354"><ele>907.0</ele><time>2026-04-14T08:52:46Z</time></trkpt><trkpt lat="43.93238238134698" lon="11.656037262439003"><ele>906.0</ele><time>2026-04-14T08:52:47Z</time></trkpt><trkpt lat="43.93239087639256" lon="11.656170068932802"><ele>905.5999999999999</ele><time>2026-04-14T08:52:48Z</time></trkpt><trkpt lat="43.93241022078592" lon="11.656307889718647"><ele>905.1999999999999</ele><time>2026-04-14T08:52:49Z</time></trkpt><trkpt lat="43.932441841134384" lon="11.65644450511885"><ele>904.8000000000001</ele><time>2026-04-14T08:52:50Z</time></trkpt><trkpt lat="43.93248895278606" lon="11.656563005304179"><ele>904.4000000000001</ele><time>2026-04-14T08:52:51Z</time></trkpt><trkpt lat="43.9325579935718" lon="11.656657468963731"><ele>904.0</ele><time>2026-04-14T08:52:52Z</time></trkpt><trkpt lat="43.93265715644293" lon="11.656715489996284"><ele>904.0</ele><time>2026-04-14T08:52:53Z</time></trkpt><trkpt lat="43.93276269655338" lon="11.65675274018234"><ele>904.0</ele><time>2026-04-14T08:52:54Z</time></trkpt><trkpt lat="43.93288013198928" lon="11.656777042843878"><ele>904.0</ele><time>2026-04-14T08:52:55Z</time></trkpt><trkpt lat="43.93300376527588" lon="11.656798754194545"><ele>904.0</ele><time>2026-04-14T08:52:56Z</time></trkpt><trkpt lat="43.93313024693983" lon="11.656816729856775"><ele>904.0</ele><time>2026-04-14T08:52:57Z</time></trkpt><trkpt lat="43.933252141269726" lon="11.656843611766442"><ele>904.0</ele><time>2026-04-14T08:52:58Z</time></trkpt><trkpt lat="43.93335539324062" lon="11.65688985476288"><ele>904.0</ele><time>2026-04-14T08:52:59Z</time></trkpt><trkpt lat="43.93346957624818" lon="11.656949663997695"><ele>904.0</ele><time>2026-04-14T08:53:00Z</time></trkpt><trkpt lat="43.933573575546056" lon="11.657021960425853"><ele>903.75</ele><time>2026-04-14T08:53:01Z</time></trkpt><trkpt lat="43.93367455013307" lon="11.65709067705981"><ele>903.5</ele><time>2026-04-14T08:53:02Z</time></trkpt><trkpt lat="43.93377538580558" lon="11.657166858067999"><ele>903.25</ele><time>2026-04-14T08:53:03Z</time></trkpt><trkpt lat="43.93387495994649" lon="11.657264956932673"><ele>903.0</ele><time>2026-04-14T08:53:04Z</time></trkpt><trkpt lat="43.93395454112659" lon="11.657373966841678"><ele>903.0</ele><time>2026-04-14T08:53:05Z</time></trkpt><trkpt lat="43.93399887744129" lon="11.657523473620499"><ele>903.0</ele><time>2026-04-14T08:53:06Z</time></trkpt><trkpt lat="43.93404788938425" lon="11.657648257157742"><ele>903.0</ele><time>2026-04-14T08:53:07Z</time></trkpt><trkpt lat="43.934140482204995" lon="11.657747842847362"><ele>903.0</ele><time>2026-04-14T08:53:08Z</time></trkpt><trkpt lat="43.93421539756604" lon="11.657799261160692"><ele>903.0</ele><time>2026-04-14T08:53:09Z</time></trkpt><trkpt lat="43.9343121970349" lon="11.657846141897123"><ele>906.0</ele><time>2026-04-14T08:53:10Z</time></trkpt><trkpt lat="43.93443044407704" lon="11.65783984454091"><ele>909.0</ele><time>2026-04-14T08:53:11Z</time></trkpt><trkpt lat="43.934546318572245" lon="11.657816221153885"><ele>912.0</ele><time>2026-04-14T08:53:12Z</time></trkpt><trkpt lat="43.93466109355236" lon="11.657792064143845"><ele>915.0</ele><time>2026-04-14T08:53:13Z</time></trkpt><trkpt lat="43.93477654867367" lon="11.657782105874546"><ele>915.0</ele><time>2026-04-14T08:53:14Z</time></trkpt><trkpt lat="43.93488592164113" lon="11.65778461388844"><ele>915.0</ele><time>2026-04-14T08:53:15Z</time></trkpt><trkpt lat="43.93499266291887" lon="11.657802944508076"><ele>915.0</ele><time>2026-04-14T08:53:16Z</time></trkpt><trkpt lat="43.935092764963706" lon="11.657839861123072"><ele>915.0</ele><time>2026-04-14T08:53:17Z</time></trkpt><trkpt lat="43.93518339667201" lon="11.657894741590688"><ele>915.0</ele><time>2026-04-14T08:53:18Z</time></trkpt><trkpt lat="43.93526743068471" lon="11.657971055863348"><ele>912.8</ele><time>2026-04-14T08:53:19Z</time></trkpt><trkpt lat="43.935342378539794" lon="11.658047953079388"><ele>910.6</ele><time>2026-04-14T08:53:20Z</time></trkpt><trkpt lat="43.93543421889823" lon="11.658099358352901"><ele>908.4000000000001</ele><time>2026-04-14T08:53:21Z</time></trkpt><trkpt lat="43.935540946153914" lon="11.65810619503039"><ele>906.2</ele><time>2026-04-14T08:53:22Z</time></trkpt><trkpt lat="43.93564834444964" lon="11.65808142590981"><ele>904.0</ele><time>2026-04-14T08:53:23Z</time></trkpt><trkpt lat="43.9357448194358" lon="11.658027750960903"><ele>904.0</ele><time>2026-04-14T08:53:24Z</time></trkpt><trkpt lat="43.935840567369695" lon="11.65797463979081"><ele>904.0000000000001</ele><time>2026-04-14T08:53:25Z</time></trkpt><trkpt lat="43.93594484712266" lon="11.657940952415144"><ele>904.0000000000001</ele><time>2026-04-14T08:53:26Z</time></trkpt><trkpt lat="43.93605965769744" lon="11.657930003210806"><ele>904.0</ele><time>2026-04-14T08:53:27Z</time></trkpt><trkpt lat="43.93617540929415" lon="11.65793219191277"><ele>904.0</ele><time>2026-04-14T08:53:28Z</time></trkpt><trkpt lat="43.93629139825699" lon="11.657946222550853"><ele>903.5</ele><time>2026-04-14T08:53:29Z</time></trkpt><trkpt lat="43.936401373709515" lon="11.6579787052883"><ele>903.0</ele><time>2026-04-14T08:53:30Z</time></trkpt><trkpt lat="43.93651425074521" lon="11.658013207719018"><ele>902.5</ele><time>2026-04-14T08:53:31Z</time></trkpt><trkpt lat="43.93662702533102" lon="11.658038826740624"><ele>902.0</ele><time>2026-04-14T08:53:32Z</time></trkpt><trkpt lat="43.93673764781462" lon="11.658058419993127"><ele>900.2</ele><time>2026-04-14T08:53:33Z</time></trkpt><trkpt lat="43.93684410594396" lon="11.658079486426653"><ele>898.4000000000001</ele><time>2026-04-14T08:53:34Z</time></trkpt><trkpt lat="43.93695142508341" lon="11.658102542111402"><ele>896.5999999999999</ele><time>2026-04-14T08:53:35Z</time></trkpt><trkpt lat="43.93705974269255" lon="11.658134110294807"><ele>894.8</ele><time>2026-04-14T08:53:36Z</time></trkpt><trkpt lat="43.93716525516515" lon="11.658182794468743"><ele>893.0</ele><time>2026-04-14T08:53:37Z</time></trkpt><trkpt lat="43.9372589042642" lon="11.658252606475775"><ele>893.0</ele><time>2026-04-14T08:53:38Z</time></trkpt><trkpt lat="43.937338094481795" lon="11.658340790438217"><ele>893.0</ele><time>2026-04-14T08:53:39Z</time></trkpt><trkpt lat="43.937417677654544" lon="11.658421841811084"><ele>893.0</ele><time>2026-04-14T08:53:40Z</time></trkpt><trkpt lat="43.93751121522279" lon="11.658458768904637"><ele>893.0</ele><time>2026-04-14T08:53:41Z</time></trkpt><trkpt lat="43.93761735823013" lon="11.658447416554448"><ele>893.0</ele><time>2026-04-14T08:53:42Z</time></trkpt><trkpt lat="43.93772640505937" lon="11.6583965408005"><ele>892.25</ele><time>2026-04-14T08:53:43Z</time></trkpt><trkpt lat="43.93783895115311" lon="11.65833421940762"><ele>891.5</ele><time>2026-04-14T08:53:44Z</time></trkpt><trkpt lat="43.93795315933076" lon="11.65827996363894"><ele>890.75</ele><time>2026-04-14T08:53:45Z</time></trkpt><trkpt lat="43.93807102482058" lon="11.658245363129383"><ele>890.0</ele><time>2026-04-14T08:53:46Z</time></trkpt><trkpt lat="43.93818746403537" lon="11.658240401376819"><ele>890.0</ele><time>2026-04-14T08:53:47Z</time></trkpt><trkpt lat="43.93830430008767" lon="11.65826916970543"><ele>890.0</ele><time>2026-04-14T08:53:48Z</time></trkpt><trkpt lat="43.93842170919723" lon="11.658323104515308"><ele>890.0</ele><time>2026-04-14T08:53:49Z</time></trkpt><trkpt lat="43.93853151941227" lon="11.658384687576229"><ele>890.0</ele><time>2026-04-14T08:53:50Z</time></trkpt><trkpt lat="43.93863521129419" lon="11.658448467027807"><ele>892.25</ele><time>2026-04-14T08:53:51Z</time></trkpt><trkpt lat="43.93874134941954" lon="11.658510555905087"><ele>894.5</ele><time>2026-04-14T08:53:52.001Z</time></trkpt><trkpt lat="43.938843792372325" lon="11.658567954561708"><ele>896.75</ele><time>2026-04-14T08:53:53.001Z</time></trkpt><trkpt lat="43.93895182444897" lon="11.658617182901805"><ele>899.0</ele><time>2026-04-14T08:53:54.001Z</time></trkpt><trkpt lat="43.93906853966377" lon="11.65865533270973"><ele>899.0</ele><time>2026-04-14T08:53:55.001Z</time></trkpt><trkpt lat="43.9391927297384" lon="11.658675027665875"><ele>899.0</ele><time>2026-04-14T08:53:56.001Z</time></trkpt><trkpt lat="43.93931723129045" lon="11.658677472829384"><ele>899.0</ele><time>2026-04-14T08:53:57.001Z</time></trkpt><trkpt lat="43.93944665774616" lon="11.658656862082744"><ele>899.0</ele><time>2026-04-14T08:53:58.001Z</time></trkpt><trkpt lat="43.93957981036763" lon="11.658609318672879"><ele>892.75</ele><time>2026-04-14T08:53:59.001Z</time></trkpt><trkpt lat="43.93971293523147" lon="11.65854850009264"><ele>886.5</ele><time>2026-04-14T08:54:00.001Z</time></trkpt><trkpt lat="43.93984179027989" lon="11.658479541843345"><ele>880.25</ele><time>2026-04-14T08:54:01.001Z</time></trkpt><trkpt lat="43.93997228808505" lon="11.658413342939276"><ele>874.0</ele><time>2026-04-14T08:54:02.001Z</time></trkpt><trkpt lat="43.94009982643598" lon="11.658350970014393"><ele>872.75</ele><time>2026-04-14T08:54:03.001Z</time></trkpt><trkpt lat="43.94022328046177" lon="11.658296592620406"><ele>871.5</ele><time>2026-04-14T08:54:04.001Z</time></trkpt><trkpt lat="43.940340516138654" lon="11.658244515118918"><ele>870.25</ele><time>2026-04-14T08:54:05.001Z</time></trkpt><trkpt lat="43.940453287241226" lon="11.658195887277378"><ele>869.0</ele><time>2026-04-14T08:54:06.001Z</time></trkpt><trkpt lat="43.94055709955696" lon="11.658167609433862"><ele>869.0</ele><time>2026-04-14T08:54:07Z</time></trkpt><trkpt lat="43.94066382098427" lon="11.658173114273461"><ele>869.0000000000001</ele><time>2026-04-14T08:54:08Z</time></trkpt><trkpt lat="43.94076386082431" lon="11.65823241170318"><ele>869.0000000000001</ele><time>2026-04-14T08:54:09Z</time></trkpt><trkpt lat="43.94084072981554" lon="11.658338890057339"><ele>869.0</ele><time>2026-04-14T08:54:10Z</time></trkpt><trkpt lat="43.94089263872756" lon="11.658478361445374"><ele>869.0</ele><time>2026-04-14T08:54:11Z</time></trkpt><trkpt lat="43.940928971548175" lon="11.65863086992917"><ele>863.6</ele><time>2026-04-14T08:54:12Z</time></trkpt><trkpt lat="43.9409809081824" lon="11.658764517066496"><ele>858.2</ele><time>2026-04-14T08:54:13Z</time></trkpt><trkpt lat="43.941056208341635" lon="11.658879592573319"><ele>852.8000000000001</ele><time>2026-04-14T08:54:14Z</time></trkpt><trkpt lat="43.9411317888819" lon="11.658993453848666"><ele>847.4000000000001</ele><time>2026-04-14T08:54:15Z</time></trkpt><trkpt lat="43.94116847676483" lon="11.65913695784657"><ele>842.0</ele><time>2026-04-14T08:54:16Z</time></trkpt><trkpt lat="43.94116821487059" lon="11.659294295729387"><ele>844.8</ele><time>2026-04-14T08:54:17Z</time></trkpt><trkpt lat="43.9411537759526" lon="11.659455102829314"><ele>847.6</ele><time>2026-04-14T08:54:18Z</time></trkpt><trkpt lat="43.94114702975762" lon="11.659615289166458"><ele>850.3999999999999</ele><time>2026-04-14T08:54:19Z</time></trkpt><trkpt lat="43.94115657105112" lon="11.65976567114794"><ele>853.1999999999999</ele><time>2026-04-14T08:54:20Z</time></trkpt><trkpt lat="43.94117533938369" lon="11.659912303312167"><ele>856.0</ele><time>2026-04-14T08:54:21Z</time></trkpt><trkpt lat="43.94120172884891" lon="11.660052086232591"><ele>856.0</ele><time>2026-04-14T08:54:22Z</time></trkpt><trkpt lat="43.941258952420554" lon="11.66017286563396"><ele>855.9999999999999</ele><time>2026-04-14T08:54:23Z</time></trkpt><trkpt lat="43.94133860355668" lon="11.660269485416224"><ele>855.9999999999999</ele><time>2026-04-14T08:54:24Z</time></trkpt><trkpt lat="43.941434775994914" lon="11.660354994968603"><ele>856.0</ele><time>2026-04-14T08:54:25Z</time></trkpt><trkpt lat="43.94153342078944" lon="11.660427817237615"><ele>856.0</ele><time>2026-04-14T08:54:26Z</time></trkpt><trkpt lat="43.94164050620032" lon="11.660461182239793"><ele>855.0</ele><time>2026-04-14T08:54:27Z</time></trkpt><trkpt lat="43.94175886072486" lon="11.660455805049345"><ele>854.0</ele><time>2026-04-14T08:54:28Z</time></trkpt><trkpt lat="43.941882688011304" lon="11.660439118385883"><ele>853.0</ele><time>2026-04-14T08:54:29Z</time></trkpt><trkpt lat="43.94200950000532" lon="11.660429270223974"><ele>852.0</ele><time>2026-04-14T08:54:30Z</time></trkpt><trkpt lat="43.94213975624355" lon="11.660415824513562"><ele>852.0</ele><time>2026-04-14T08:54:31Z</time></trkpt><trkpt lat="43.94227077288151" lon="11.660392380597472"><ele>852.0</ele><time>2026-04-14T08:54:32Z</time></trkpt><trkpt lat="43.942398118623196" lon="11.66035413047569"><ele>852.0</ele><time>2026-04-14T08:54:33Z</time></trkpt><trkpt lat="43.94252849783702" lon="11.660311746282412"><ele>852.0</ele><time>2026-04-14T08:54:34Z</time></trkpt><trkpt lat="43.942659063773796" lon="11.66027161281955"><ele>848.25</ele><time>2026-04-14T08:54:35Z</time></trkpt><trkpt lat="43.94279091756095" lon="11.660231488323141"><ele>844.5</ele><time>2026-04-14T08:54:36Z</time></trkpt><trkpt lat="43.942913460782314" lon="11.66019280681161"><ele>840.75</ele><time>2026-04-14T08:54:37Z</time></trkpt><trkpt lat="43.943023803694835" lon="11.66015719905567"><ele>837.0</ele><time>2026-04-14T08:54:38Z</time></trkpt><trkpt lat="43.943114458726875" lon="11.660126569221632"><ele>837.0</ele><time>2026-04-14T08:54:39Z</time></trkpt><trkpt lat="43.943185685107764" lon="11.660089190738418"><ele>837.0</ele><time>2026-04-14T08:54:40Z</time></trkpt><trkpt lat="43.943244447794456" lon="11.660033361534511"><ele>837.0</ele><time>2026-04-14T08:54:41Z</time></trkpt><trkpt lat="43.94326952807723" lon="11.659939842149258"><ele>837.0</ele><time>2026-04-14T08:54:42Z</time></trkpt><trkpt lat="43.94325486762569" lon="11.65983814283145"><ele>837.0</ele><time>2026-04-14T08:54:43Z</time></trkpt><trkpt lat="43.943200860391855" lon="11.659770174782183"><ele>837.0</ele><time>2026-04-14T08:54:44Z</time></trkpt><trkpt lat="43.94312093984555" lon="11.659758330102335"><ele>837.0</ele><time>2026-04-14T08:54:45Z</time></trkpt><trkpt lat="43.94303131247822" lon="11.659790408277388"><ele>837.0</ele><time>2026-04-14T08:54:46Z</time></trkpt><trkpt lat="43.94292766847161" lon="11.659838253703567"><ele>837.0</ele><time>2026-04-14T08:54:47Z</time></trkpt><trkpt lat="43.942813142477355" lon="11.659882492062156"><ele>837.0</ele><time>2026-04-14T08:54:48Z</time></trkpt><trkpt lat="43.94268906577954" lon="11.659913620141973"><ele>837.0</ele><time>2026-04-14T08:54:49Z</time></trkpt><trkpt lat="43.9425614464129" lon="11.659929135058032"><ele>838.5</ele><time>2026-04-14T08:54:50Z</time></trkpt><trkpt lat="43.94243300249095" lon="11.659935038871193"><ele>840.0</ele><time>2026-04-14T08:54:51Z</time></trkpt><trkpt lat="43.942303973420785" lon="11.659937698636794"><ele>841.5</ele><time>2026-04-14T08:54:52Z</time></trkpt><trkpt lat="43.94217477293631" lon="11.659944988494301"><ele>843.0</ele><time>2026-04-14T08:54:53Z</time></trkpt><trkpt lat="43.942046962074855" lon="11.659954929069679"><ele>843.0</ele><time>2026-04-14T08:54:54Z</time></trkpt><trkpt lat="43.941939947373825" lon="11.659966134725762"><ele>843.0</ele><time>2026-04-14T08:54:55Z</time></trkpt><trkpt lat="43.94185311344265" lon="11.65998028482173"><ele>843.0</ele><time>2026-04-14T08:54:56Z</time></trkpt><trkpt lat="43.94178557150171" lon="11.659984692383834"><ele>843.0</ele><time>2026-04-14T08:54:57Z</time></trkpt><trkpt lat="43.941705373807046" lon="11.659896115996231"><ele>843.0</ele><time>2026-04-14T08:54:59Z</time></trkpt><trkpt lat="43.94176265753025" lon="11.65974495064656"><ele>843.0</ele><time>2026-04-14T08:55:01Z</time></trkpt><trkpt lat="43.94184612632604" lon="11.659756576980271"><ele>843.0</ele><time>2026-04-14T08:55:02Z</time></trkpt><trkpt lat="43.941939791065536" lon="11.659730462974071"><ele>843.0</ele><time>2026-04-14T08:55:03Z</time></trkpt><trkpt lat="43.94205366139581" lon="11.659721398465802"><ele>843.0</ele><time>2026-04-14T08:55:04Z</time></trkpt><trkpt lat="43.94217520066114" lon="11.659704880694303"><ele>843.0</ele><time>2026-04-14T08:55:05Z</time></trkpt><trkpt lat="43.94229324798026" lon="11.659680458073305"><ele>843.0</ele><time>2026-04-14T08:55:06Z</time></trkpt><trkpt lat="43.942403632754406" lon="11.659655592026265"><ele>843.0</ele><time>2026-04-14T08:55:07Z</time></trkpt><trkpt lat="43.94251358945208" lon="11.65961989743524"><ele>843.0</ele><time>2026-04-14T08:55:08Z</time></trkpt><trkpt lat="43.94261778442092" lon="11.659567644088934"><ele>843.0</ele><time>2026-04-14T08:55:09Z</time></trkpt><trkpt lat="43.94271728215279" lon="11.659497632266747"><ele>843.0</ele><time>2026-04-14T08:55:10Z</time></trkpt><trkpt lat="43.94281806889374" lon="11.659437616282531"><ele>837.5999999999999</ele><time>2026-04-14T08:55:11Z</time></trkpt><trkpt lat="43.94291172343418" lon="11.659355933046681"><ele>832.1999999999999</ele><time>2026-04-14T08:55:12Z</time></trkpt><trkpt lat="43.94299532186108" lon="11.659256895814314"><ele>826.8</ele><time>2026-04-14T08:55:13Z</time></trkpt><trkpt lat="43.94308118216422" lon="11.659187485337007"><ele>821.4</ele><time>2026-04-14T08:55:14Z</time></trkpt><trkpt lat="43.94314695590986" lon="11.659127334511828"><ele>816.0</ele><time>2026-04-14T08:55:15Z</time></trkpt><trkpt lat="43.943174201415104" lon="11.659040434398943"><ele>816.0</ele><time>2026-04-14T08:55:16Z</time></trkpt><trkpt lat="43.943159949095055" lon="11.658938651461163"><ele>816.0</ele><time>2026-04-14T08:55:17Z</time></trkpt><trkpt lat="43.9431174877458" lon="11.658858361862341"><ele>816.0</ele><time>2026-04-14T08:55:18Z</time></trkpt><trkpt lat="43.943046542781886" lon="11.658823682637948"><ele>816.0</ele><time>2026-04-14T08:55:19Z</time></trkpt><trkpt lat="43.942956195778656" lon="11.658853141101192"><ele>816.0</ele><time>2026-04-14T08:55:20Z</time></trkpt><trkpt lat="43.942867766531904" lon="11.658926219919524"><ele>816.0</ele><time>2026-04-14T08:55:21Z</time></trkpt><trkpt lat="43.94276669097305" lon="11.659002904135145"><ele>816.0</ele><time>2026-04-14T08:55:22Z</time></trkpt><trkpt lat="43.94265481732937" lon="11.6590655548906"><ele>816.0</ele><time>2026-04-14T08:55:23Z</time></trkpt><trkpt lat="43.94254372717255" lon="11.659117807061092"><ele>816.0</ele><time>2026-04-14T08:55:24Z</time></trkpt><trkpt lat="43.94243656299571" lon="11.659167909904847"><ele>816.0</ele><time>2026-04-14T08:55:25Z</time></trkpt><trkpt lat="43.942329498262126" lon="11.65919622353035"><ele>816.5</ele><time>2026-04-14T08:55:26Z</time></trkpt><trkpt lat="43.94223248460513" lon="11.659201170879516"><ele>817.0</ele><time>2026-04-14T08:55:27Z</time></trkpt><trkpt lat="43.942151157869" lon="11.65919488037589"><ele>817.5</ele><time>2026-04-14T08:55:28Z</time></trkpt><trkpt lat="43.942087952252066" lon="11.659173790098922"><ele>818.0</ele><time>2026-04-14T08:55:29Z</time></trkpt><trkpt lat="43.94204237560323" lon="11.65903782730673"><ele>818.5</ele><time>2026-04-14T08:55:31Z</time></trkpt><trkpt lat="43.94208428287309" lon="11.658970392273359"><ele>819.0</ele><time>2026-04-14T08:55:32Z</time></trkpt><trkpt lat="43.942160635498105" lon="11.658916656598247"><ele>819.0</ele><time>2026-04-14T08:55:33Z</time></trkpt><trkpt lat="43.94226070791421" lon="11.658875647452371"><ele>819.0</ele><time>2026-04-14T08:55:34Z</time></trkpt><trkpt lat="43.94237038597923" lon="11.65882188162171"><ele>819.0</ele><time>2026-04-14T08:55:35Z</time></trkpt><trkpt lat="43.94247752651743" lon="11.658759550880808"><ele>819.0</ele><time>2026-04-14T08:55:36Z</time></trkpt><trkpt lat="43.9425881470458" lon="11.658694911409935"><ele>818.4000000000001</ele><time>2026-04-14T08:55:37Z</time></trkpt><trkpt lat="43.942695790869394" lon="11.6586308898681"><ele>817.8</ele><time>2026-04-14T08:55:38Z</time></trkpt><trkpt lat="43.942804961967155" lon="11.658601386832848"><ele>817.2</ele><time>2026-04-14T08:55:39Z</time></trkpt><trkpt lat="43.94291310087104" lon="11.658568953473134"><ele>816.5999999999999</ele><time>2026-04-14T08:55:40Z</time></trkpt><trkpt lat="43.943017160227996" lon="11.658533054194242"><ele>816.0</ele><time>2026-04-14T08:55:41Z</time></trkpt><trkpt lat="43.943120957706554" lon="11.658554578455748"><ele>816.0</ele><time>2026-04-14T08:55:42Z</time></trkpt><trkpt lat="43.943214088477355" lon="11.658619043465201"><ele>816.0</ele><time>2026-04-14T08:55:43Z</time></trkpt><trkpt lat="43.943291464396104" lon="11.658723569627325"><ele>816.0</ele><time>2026-04-14T08:55:44Z</time></trkpt><trkpt lat="43.943349779915195" lon="11.658867589588237"><ele>816.0</ele><time>2026-04-14T08:55:45Z</time></trkpt><trkpt lat="43.94340499135979" lon="11.659020741810465"><ele>813.75</ele><time>2026-04-14T08:55:46Z</time></trkpt><trkpt lat="43.943459723679595" lon="11.659172357025597"><ele>811.5</ele><time>2026-04-14T08:55:47Z</time></trkpt><trkpt lat="43.94351689601291" lon="11.659313291140867"><ele>809.25</ele><time>2026-04-14T08:55:48Z</time></trkpt><trkpt lat="43.943582240805455" lon="11.659442268703708"><ele>807.0</ele><time>2026-04-14T08:55:49Z</time></trkpt><trkpt lat="43.943668956278295" lon="11.659551476926895"><ele>807.0</ele><time>2026-04-14T08:55:50Z</time></trkpt><trkpt lat="43.943773407079156" lon="11.659630703222591"><ele>807.0</ele><time>2026-04-14T08:55:51Z</time></trkpt><trkpt lat="43.94388790055358" lon="11.6596880974334"><ele>807.0</ele><time>2026-04-14T08:55:52Z</time></trkpt><trkpt lat="43.94400777708028" lon="11.659720825543411"><ele>807.0</ele><time>2026-04-14T08:55:53Z</time></trkpt><trkpt lat="43.9441194115987" lon="11.659746294311999"><ele>802.4000000000001</ele><time>2026-04-14T08:55:54Z</time></trkpt><trkpt lat="43.94422638999311" lon="11.659773319902735"><ele>797.8000000000001</ele><time>2026-04-14T08:55:55Z</time></trkpt><trkpt lat="43.944325397450605" lon="11.659800012666269"><ele>793.2</ele><time>2026-04-14T08:55:56Z</time></trkpt><trkpt lat="43.944401331809544" lon="11.659820501816917"><ele>788.6</ele><time>2026-04-14T08:55:57Z</time></trkpt><trkpt lat="43.94450862892275" lon="11.659754186417642"><ele>784.0</ele><time>2026-04-14T08:55:59.001Z</time></trkpt><trkpt lat="43.94451384280051" lon="11.659654575569355"><ele>784.0</ele><time>2026-04-14T08:56:00.001Z</time></trkpt><trkpt lat="43.94448023488993" lon="11.659564348274197"><ele>784.0</ele><time>2026-04-14T08:56:01.001Z</time></trkpt><trkpt lat="43.944411072298564" lon="11.659489217737676"><ele>784.0</ele><time>2026-04-14T08:56:02.001Z</time></trkpt><trkpt lat="43.9443184183127" lon="11.659415982585276"><ele>784.0</ele><time>2026-04-14T08:56:03.001Z</time></trkpt><trkpt lat="43.94424367747143" lon="11.65932041813587"><ele>784.0</ele><time>2026-04-14T08:56:04.001Z</time></trkpt><trkpt lat="43.944159551828946" lon="11.65924089139203"><ele>782.8000000000001</ele><time>2026-04-14T08:56:05.001Z</time></trkpt><trkpt lat="43.94410641009107" lon="11.659111052162253"><ele>781.6</ele><time>2026-04-14T08:56:06Z</time></trkpt><trkpt lat="43.944109183616575" lon="11.658952102438967"><ele>780.4</ele><time>2026-04-14T08:56:07Z</time></trkpt><trkpt lat="43.944088063530145" lon="11.658808767832182"><ele>779.2</ele><time>2026-04-14T08:56:08Z</time></trkpt><trkpt lat="43.944057548617366" lon="11.658670037262064"><ele>778.0</ele><time>2026-04-14T08:56:09Z</time></trkpt><trkpt lat="43.94399394538937" lon="11.65855403918902"><ele>778.0</ele><time>2026-04-14T08:56:10Z</time></trkpt><trkpt lat="43.94391037171793" lon="11.658461906480825"><ele>778.0</ele><time>2026-04-14T08:56:11Z</time></trkpt><trkpt lat="43.943805944057864" lon="11.65841147718875"><ele>778.0</ele><time>2026-04-14T08:56:12Z</time></trkpt><trkpt lat="43.94369574302178" lon="11.658400289104922"><ele>778.0</ele><time>2026-04-14T08:56:13Z</time></trkpt><trkpt lat="43.943590187338074" lon="11.658399539029137"><ele>778.0</ele><time>2026-04-14T08:56:14Z</time></trkpt><trkpt lat="43.94349220368725" lon="11.65836554978385"><ele>778.0</ele><time>2026-04-14T08:56:15Z</time></trkpt><trkpt lat="43.94340877556054" lon="11.658295725039304"><ele>778.0</ele><time>2026-04-14T08:56:16Z</time></trkpt><trkpt lat="43.94333939480059" lon="11.658212207515904"><ele>778.0</ele><time>2026-04-14T08:56:17Z</time></trkpt><trkpt lat="43.94328536926202" lon="11.658113111243368"><ele>778.0</ele><time>2026-04-14T08:56:18Z</time></trkpt><trkpt lat="43.943258490720055" lon="11.657997947196233"><ele>778.0</ele><time>2026-04-14T08:56:19Z</time></trkpt><trkpt lat="43.94328582988583" lon="11.657886873954531"><ele>778.0</ele><time>2026-04-14T08:56:20Z</time></trkpt><trkpt lat="43.94335858966345" lon="11.65781723102884"><ele>778.0</ele><time>2026-04-14T08:56:21Z</time></trkpt><trkpt lat="43.94345157268098" lon="11.657780481990391"><ele>778.0</ele><time>2026-04-14T08:56:22Z</time></trkpt><trkpt lat="43.94355829835657" lon="11.657787192956462"><ele>778.0</ele><time>2026-04-14T08:56:23Z</time></trkpt><trkpt lat="43.943669065933" lon="11.657843554324685"><ele>778.0</ele><time>2026-04-14T08:56:24Z</time></trkpt><trkpt lat="43.943760162901064" lon="11.65793031173482"><ele>778.0</ele><time>2026-04-14T08:56:25Z</time></trkpt><trkpt lat="43.943849108145834" lon="11.658017972926745"><ele>778.0</ele><time>2026-04-14T08:56:26Z</time></trkpt><trkpt lat="43.94394411003369" lon="11.658086821164806"><ele>778.0</ele><time>2026-04-14T08:56:27Z</time></trkpt><trkpt lat="43.94403324484663" lon="11.658166190410215"><ele>778.0</ele><time>2026-04-14T08:56:28Z</time></trkpt><trkpt lat="43.944108544276105" lon="11.658272917605098"><ele>778.0</ele><time>2026-04-14T08:56:29Z</time></trkpt><trkpt lat="43.94417910625975" lon="11.65839159476721"><ele>776.0</ele><time>2026-04-14T08:56:30Z</time></trkpt><trkpt lat="43.94424628442874" lon="11.658522967886725"><ele>774.0</ele><time>2026-04-14T08:56:31Z</time></trkpt><trkpt lat="43.944314577341785" lon="11.658651431439182"><ele>772.0</ele><time>2026-04-14T08:56:32Z</time></trkpt><trkpt lat="43.94438881978861" lon="11.658769943485844"><ele>770.0</ele><time>2026-04-14T08:56:33Z</time></trkpt><trkpt lat="43.94447770001138" lon="11.658863880691618"><ele>770.0</ele><time>2026-04-14T08:56:34Z</time></trkpt><trkpt lat="43.94457223020454" lon="11.658944989162787"><ele>770.0</ele><time>2026-04-14T08:56:35Z</time></trkpt><trkpt lat="43.94467459224703" lon="11.659010185653642"><ele>770.0</ele><time>2026-04-14T08:56:36Z</time></trkpt><trkpt lat="43.94477884073371" lon="11.659063041718337"><ele>770.0</ele><time>2026-04-14T08:56:37Z</time></trkpt><trkpt lat="43.94486936762199" lon="11.659129274807535"><ele>770.0</ele><time>2026-04-14T08:56:38Z</time></trkpt><trkpt lat="43.94493608800566" lon="11.659215131312628"><ele>770.0000000000001</ele><time>2026-04-14T08:56:39Z</time></trkpt><trkpt lat="43.94498284030403" lon="11.659301956278219"><ele>770.0</ele><time>2026-04-14T08:56:40Z</time></trkpt><trkpt lat="43.94503608491853" lon="11.659366881164857"><ele>770.0</ele><time>2026-04-14T08:56:41Z</time></trkpt><trkpt lat="43.94510017220689" lon="11.659377453274335"><ele>770.0</ele><time>2026-04-14T08:56:42Z</time></trkpt><trkpt lat="43.945160949407615" lon="11.659315713780874"><ele>770.0000000000001</ele><time>2026-04-14T08:56:43Z</time></trkpt><trkpt lat="43.94518396862048" lon="11.659199578253817"><ele>770.0</ele><time>2026-04-14T08:56:44Z</time></trkpt><trkpt lat="43.94515948179248" lon="11.659086013944233"><ele>770.0</ele><time>2026-04-14T08:56:45Z</time></trkpt><trkpt lat="43.94509454166256" lon="11.658985161902942"><ele>770.0</ele><time>2026-04-14T08:56:46Z</time></trkpt><trkpt lat="43.945000885867486" lon="11.65891212061511"><ele>770.0</ele><time>2026-04-14T08:56:47Z</time></trkpt><trkpt lat="43.944892137911324" lon="11.658859713729216"><ele>770.0</ele><time>2026-04-14T08:56:48Z</time></trkpt><trkpt lat="43.94479976343373" lon="11.658778651168625"><ele>770.0</ele><time>2026-04-14T08:56:49Z</time></trkpt><trkpt lat="43.944706533442755" lon="11.658702731394007"><ele>768.0</ele><time>2026-04-14T08:56:50Z</time></trkpt><trkpt lat="43.94461797175842" lon="11.658616818932577"><ele>766.0</ele><time>2026-04-14T08:56:51Z</time></trkpt><trkpt lat="43.94455461051355" lon="11.658498814871237"><ele>764.0</ele><time>2026-04-14T08:56:52Z</time></trkpt><trkpt lat="43.944504026841344" lon="11.658369779182056"><ele>762.0</ele><time>2026-04-14T08:56:53Z</time></trkpt><trkpt lat="43.94448368401805" lon="11.658234756578663"><ele>760.0</ele><time>2026-04-14T08:56:54Z</time></trkpt><trkpt lat="43.94449163015598" lon="11.658111516974504"><ele>760.0</ele><time>2026-04-14T08:56:55Z</time></trkpt><trkpt lat="43.94453007402435" lon="11.658000759890491"><ele>760.0</ele><time>2026-04-14T08:56:56Z</time></trkpt><trkpt lat="43.944597542916384" lon="11.65789157309742"><ele>760.0</ele><time>2026-04-14T08:56:57Z</time></trkpt><trkpt lat="43.944675402532134" lon="11.657791912848909"><ele>760.0</ele><time>2026-04-14T08:56:58Z</time></trkpt><trkpt lat="43.94475059031865" lon="11.657707766273079"><ele>760.0</ele><time>2026-04-14T08:56:59Z</time></trkpt><trkpt lat="43.94483758233648" lon="11.65764764946622"><ele>760.8</ele><time>2026-04-14T08:57:00Z</time></trkpt><trkpt lat="43.9449348756979" lon="11.657624811532486"><ele>761.6</ele><time>2026-04-14T08:57:01Z</time></trkpt><trkpt lat="43.94503118975215" lon="11.657659403124958"><ele>762.4000000000001</ele><time>2026-04-14T08:57:02Z</time></trkpt><trkpt lat="43.945121726924704" lon="11.65774517970611"><ele>763.2</ele><time>2026-04-14T08:57:03Z</time></trkpt><trkpt lat="43.94521592564865" lon="11.657849167506532"><ele>764.0</ele><time>2026-04-14T08:57:04Z</time></trkpt><trkpt lat="43.945320558179" lon="11.657949827881065"><ele>764.0</ele><time>2026-04-14T08:57:05Z</time></trkpt><trkpt lat="43.94543204702349" lon="11.658059074587095"><ele>764.0</ele><time>2026-04-14T08:57:06Z</time></trkpt><trkpt lat="43.94554890282724" lon="11.658172389824152"><ele>764.0</ele><time>2026-04-14T08:57:07Z</time></trkpt><trkpt lat="43.94566621184622" lon="11.658294521964399"><ele>764.0</ele><time>2026-04-14T08:57:08Z</time></trkpt><trkpt lat="43.945783111092055" lon="11.658424980202502"><ele>763.5</ele><time>2026-04-14T08:57:09Z</time></trkpt><trkpt lat="43.94589751243813" lon="11.658555671490488"><ele>763.0</ele><time>2026-04-14T08:57:10Z</time></trkpt><trkpt lat="43.946002673202464" lon="11.658684232925557"><ele>762.5</ele><time>2026-04-14T08:57:11Z</time></trkpt><trkpt lat="43.946099896728015" lon="11.65880651193881"><ele>762.0</ele><time>2026-04-14T08:57:12Z</time></trkpt><trkpt lat="43.946179454500516" lon="11.658935457028075"><ele>762.0</ele><time>2026-04-14T08:57:13Z</time></trkpt><trkpt lat="43.946240209105135" lon="11.659071488387939"><ele>762.0</ele><time>2026-04-14T08:57:14Z</time></trkpt><trkpt lat="43.946295273357514" lon="11.659195614423568"><ele>762.0</ele><time>2026-04-14T08:57:15Z</time></trkpt><trkpt lat="43.94636675004863" lon="11.659298032558814"><ele>762.0</ele><time>2026-04-14T08:57:16Z</time></trkpt><trkpt lat="43.94646270773955" lon="11.65935208870526"><ele>762.0</ele><time>2026-04-14T08:57:17Z</time></trkpt><trkpt lat="43.94657603377054" lon="11.659359837086102"><ele>762.0</ele><time>2026-04-14T08:57:18Z</time></trkpt><trkpt lat="43.94669763868161" lon="11.659326737812718"><ele>762.0</ele><time>2026-04-14T08:57:19Z</time></trkpt><trkpt lat="43.94681697795296" lon="11.65927886139623"><ele>762.0</ele><time>2026-04-14T08:57:20Z</time></trkpt><trkpt lat="43.94693685951234" lon="11.659281410565871"><ele>762.0</ele><time>2026-04-14T08:57:21Z</time></trkpt><trkpt lat="43.94705663499871" lon="11.659344892292662"><ele>762.75</ele><time>2026-04-14T08:57:22Z</time></trkpt><trkpt lat="43.9471759633512" lon="11.65941994149965"><ele>763.5</ele><time>2026-04-14T08:57:23Z</time></trkpt><trkpt lat="43.9472956954892" lon="11.659481558695315"><ele>764.25</ele><time>2026-04-14T08:57:24Z</time></trkpt><trkpt lat="43.9474106238021" lon="11.65952663276433"><ele>765.0</ele><time>2026-04-14T08:57:25Z</time></trkpt><trkpt lat="43.94752089009485" lon="11.659564621414324"><ele>764.2</ele><time>2026-04-14T08:57:26Z</time></trkpt><trkpt lat="43.94762828009897" lon="11.659558234179375"><ele>763.4</ele><time>2026-04-14T08:57:27Z</time></trkpt><trkpt lat="43.947725470405274" lon="11.659491355722762"><ele>762.5999999999999</ele><time>2026-04-14T08:57:28Z</time></trkpt><trkpt lat="43.947805282501726" lon="11.659378087412819"><ele>761.8</ele><time>2026-04-14T08:57:29Z</time></trkpt><trkpt lat="43.947877510584874" lon="11.659258730287233"><ele>761.0</ele><time>2026-04-14T08:57:30Z</time></trkpt><trkpt lat="43.947951984711594" lon="11.659157118946185"><ele>761.0</ele><time>2026-04-14T08:57:31Z</time></trkpt><trkpt lat="43.94804540678479" lon="11.659106228285873"><ele>761.0</ele><time>2026-04-14T08:57:32Z</time></trkpt><trkpt lat="43.94813265622885" lon="11.659096394360406"><ele>761.0</ele><time>2026-04-14T08:57:33Z</time></trkpt><trkpt lat="43.94821720327023" lon="11.659130470379488"><ele>761.0</ele><time>2026-04-14T08:57:34Z</time></trkpt><trkpt lat="43.94826517955612" lon="11.659217437181178"><ele>761.0</ele><time>2026-04-14T08:57:35Z</time></trkpt><trkpt lat="43.94828498532268" lon="11.659327294347863"><ele>761.0</ele><time>2026-04-14T08:57:36Z</time></trkpt><trkpt lat="43.94828311565337" lon="11.659446222768224"><ele>761.4</ele><time>2026-04-14T08:57:37Z</time></trkpt><trkpt lat="43.9482625532691" lon="11.659569434146695"><ele>761.8</ele><time>2026-04-14T08:57:38Z</time></trkpt><trkpt lat="43.948258427471714" lon="11.659700888357275"><ele>762.1999999999999</ele><time>2026-04-14T08:57:39Z</time></trkpt><trkpt lat="43.94828593431948" lon="11.659848570415283"><ele>762.5999999999999</ele><time>2026-04-14T08:57:40Z</time></trkpt><trkpt lat="43.94834366636998" lon="11.659994455697046"><ele>763.0</ele><time>2026-04-14T08:57:41Z</time></trkpt><trkpt lat="43.948410505427525" lon="11.660127977211802"><ele>763.0</ele><time>2026-04-14T08:57:42Z</time></trkpt><trkpt lat="43.94847099229704" lon="11.660254215754586"><ele>763.0</ele><time>2026-04-14T08:57:43Z</time></trkpt><trkpt lat="43.94853022664579" lon="11.6603762489812"><ele>763.0</ele><time>2026-04-14T08:57:44Z</time></trkpt><trkpt lat="43.94860527140602" lon="11.66047458421211"><ele>763.0</ele><time>2026-04-14T08:57:45Z</time></trkpt><trkpt lat="43.94870456852324" lon="11.660524504754815"><ele>763.0</ele><time>2026-04-14T08:57:46Z</time></trkpt><trkpt lat="43.948824622270486" lon="11.660535073499045"><ele>757.25</ele><time>2026-04-14T08:57:47Z</time></trkpt><trkpt lat="43.948945196494535" lon="11.660538889969944"><ele>751.5</ele><time>2026-04-14T08:57:48Z</time></trkpt><trkpt lat="43.949060926641145" lon="11.660534193006486"><ele>745.75</ele><time>2026-04-14T08:57:49Z</time></trkpt><trkpt lat="43.94918028159668" lon="11.660502176595408"><ele>740.0</ele><time>2026-04-14T08:57:50Z</time></trkpt><trkpt lat="43.94929511024829" lon="11.660434338280494"><ele>740.0</ele><time>2026-04-14T08:57:51Z</time></trkpt><trkpt lat="43.9494052190248" lon="11.660359877533667"><ele>740.0</ele><time>2026-04-14T08:57:52Z</time></trkpt><trkpt lat="43.94952012642301" lon="11.66032641257101"><ele>740.0</ele><time>2026-04-14T08:57:53Z</time></trkpt><trkpt lat="43.949638307981765" lon="11.660338728007961"><ele>740.0</ele><time>2026-04-14T08:57:54Z</time></trkpt><trkpt lat="43.949764452836575" lon="11.660344360870717"><ele>740.0</ele><time>2026-04-14T08:57:55Z</time></trkpt><trkpt lat="43.94987717695522" lon="11.66031499315838"><ele>740.0</ele><time>2026-04-14T08:57:56Z</time></trkpt><trkpt lat="43.949988582393566" lon="11.660282156744845"><ele>740.0</ele><time>2026-04-14T08:57:57Z</time></trkpt><trkpt lat="43.950097169450665" lon="11.6602956429995"><ele>740.0</ele><time>2026-04-14T08:57:58Z</time></trkpt><trkpt lat="43.95019521278538" lon="11.66036083655522"><ele>740.0</ele><time>2026-04-14T08:57:59Z</time></trkpt><trkpt lat="43.95028165813521" lon="11.660452846157371"><ele>743.4</ele><time>2026-04-14T08:58:00Z</time></trkpt><trkpt lat="43.950370271600576" lon="11.660529893259113"><ele>746.8</ele><time>2026-04-14T08:58:01Z</time></trkpt><trkpt lat="43.950463995332264" lon="11.660588513186058"><ele>750.2</ele><time>2026-04-14T08:58:02Z</time></trkpt><trkpt lat="43.95055717392456" lon="11.660636242782381"><ele>753.6</ele><time>2026-04-14T08:58:03Z</time></trkpt><trkpt lat="43.950638938507325" lon="11.660688286758022"><ele>757.0</ele><time>2026-04-14T08:58:04Z</time></trkpt><trkpt lat="43.950701100328715" lon="11.660774288270712"><ele>757.0</ele><time>2026-04-14T08:58:05Z</time></trkpt><trkpt lat="43.95073222454153" lon="11.660897539706234"><ele>757.0</ele><time>2026-04-14T08:58:06Z</time></trkpt><trkpt lat="43.95072487413293" lon="11.66103102213981"><ele>757.0</ele><time>2026-04-14T08:58:07Z</time></trkpt><trkpt lat="43.95067666988183" lon="11.661148712757619"><ele>757.0</ele><time>2026-04-14T08:58:08Z</time></trkpt><trkpt lat="43.95060837649416" lon="11.661264446419162"><ele>757.0</ele><time>2026-04-14T08:58:09Z</time></trkpt><trkpt lat="43.950558791185635" lon="11.661408337894494"><ele>757.25</ele><time>2026-04-14T08:58:10Z</time></trkpt><trkpt lat="43.95052721886617" lon="11.661572707305334"><ele>757.5</ele><time>2026-04-14T08:58:11Z</time></trkpt><trkpt lat="43.950503887657256" lon="11.661738333758702"><ele>757.75</ele><time>2026-04-14T08:58:12Z</time></trkpt><trkpt lat="43.95047915976718" lon="11.66189778685976"><ele>758.0</ele><time>2026-04-14T08:58:13Z</time></trkpt><trkpt lat="43.95045122724584" lon="11.6620459230217"><ele>755.8</ele><time>2026-04-14T08:58:14Z</time></trkpt><trkpt lat="43.950434311282486" lon="11.662193898886931"><ele>753.5999999999999</ele><time>2026-04-14T08:58:15Z</time></trkpt><trkpt lat="43.95044209124269" lon="11.662341569352273"><ele>751.4000000000001</ele><time>2026-04-14T08:58:16Z</time></trkpt><trkpt lat="43.950487317910785" lon="11.662473943077117"><ele>749.2</ele><time>2026-04-14T08:58:17Z</time></trkpt><trkpt lat="43.95056622514574" lon="11.662571198259304"><ele>747.0</ele><time>2026-04-14T08:58:18Z</time></trkpt><trkpt lat="43.9506708001742" lon="11.662637044316657"><ele>747.0</ele><time>2026-04-14T08:58:19Z</time></trkpt><trkpt lat="43.95079365767693" lon="11.662678007393717"><ele>747.0</ele><time>2026-04-14T08:58:20Z</time></trkpt><trkpt lat="43.95092421309562" lon="11.662695713460947"><ele>747.0</ele><time>2026-04-14T08:58:21Z</time></trkpt><trkpt lat="43.951051842997146" lon="11.662676648712353"><ele>747.0</ele><time>2026-04-14T08:58:22Z</time></trkpt><trkpt lat="43.95117702864666" lon="11.662659735046955"><ele>751.25</ele><time>2026-04-14T08:58:23Z</time></trkpt><trkpt lat="43.951292941876495" lon="11.662669478765844"><ele>755.5</ele><time>2026-04-14T08:58:24Z</time></trkpt><trkpt lat="43.95141038867292" lon="11.662699587170836"><ele>759.75</ele><time>2026-04-14T08:58:25Z</time></trkpt><trkpt lat="43.95152232771018" lon="11.662749179518677"><ele>764.0</ele><time>2026-04-14T08:58:26Z</time></trkpt><trkpt lat="43.9516249506374" lon="11.662838240123426"><ele>761.2</ele><time>2026-04-14T08:58:27Z</time></trkpt><trkpt lat="43.95170945711936" lon="11.662957045530616"><ele>758.4000000000001</ele><time>2026-04-14T08:58:28Z</time></trkpt><trkpt lat="43.9517915153313" lon="11.663063484202588"><ele>755.6</ele><time>2026-04-14T08:58:29Z</time></trkpt><trkpt lat="43.95187353434138" lon="11.663103726738017"><ele>752.8</ele><time>2026-04-14T08:58:30Z</time></trkpt><trkpt lat="43.95197759409105" lon="11.663121130204566"><ele>750.0</ele><time>2026-04-14T08:58:31Z</time></trkpt><trkpt lat="43.95208550708975" lon="11.66307124965275"><ele>750.0</ele><time>2026-04-14T08:58:32Z</time></trkpt><trkpt lat="43.95218984269162" lon="11.663008609980764"><ele>750.0</ele><time>2026-04-14T08:58:33Z</time></trkpt><trkpt lat="43.9522883732616" lon="11.66295171861401"><ele>750.0</ele><time>2026-04-14T08:58:34Z</time></trkpt><trkpt lat="43.95238067912888" lon="11.662903769999717"><ele>750.0</ele><time>2026-04-14T08:58:35Z</time></trkpt><trkpt lat="43.952465388071296" lon="11.662890780461138"><ele>750.0</ele><time>2026-04-14T08:58:36Z</time></trkpt><trkpt lat="43.95253103324233" lon="11.662935942256016"><ele>750.0</ele><time>2026-04-14T08:58:37Z</time></trkpt><trkpt lat="43.952575534338116" lon="11.663009732591059"><ele>750.0</ele><time>2026-04-14T08:58:38Z</time></trkpt><trkpt lat="43.95258959597395" lon="11.663110553785653"><ele>750.0</ele><time>2026-04-14T08:58:39Z</time></trkpt><trkpt lat="43.95256326797175" lon="11.663217537495088"><ele>750.0</ele><time>2026-04-14T08:58:40Z</time></trkpt><trkpt lat="43.952498903280286" lon="11.663317132867805"><ele>750.0</ele><time>2026-04-14T08:58:41Z</time></trkpt><trkpt lat="43.952427698395766" lon="11.663415784452283"><ele>750.0</ele><time>2026-04-14T08:58:42Z</time></trkpt><trkpt lat="43.95236669157353" lon="11.6635049772943"><ele>748.8</ele><time>2026-04-14T08:58:43Z</time></trkpt><trkpt lat="43.95230149648511" lon="11.663613738566514"><ele>747.6</ele><time>2026-04-14T08:58:44Z</time></trkpt><trkpt lat="43.95225563049809" lon="11.663724302321596"><ele>746.4000000000001</ele><time>2026-04-14T08:58:45Z</time></trkpt><trkpt lat="43.952212270492076" lon="11.66385384035277"><ele>745.2</ele><time>2026-04-14T08:58:46Z</time></trkpt><trkpt lat="43.95218633535347" lon="11.663997994596494"><ele>744.0</ele><time>2026-04-14T08:58:47Z</time></trkpt><trkpt lat="43.952172973031104" lon="11.664142800607843"><ele>744.0</ele><time>2026-04-14T08:58:48Z</time></trkpt><trkpt lat="43.9521919419924" lon="11.664285791891684"><ele>744.0</ele><time>2026-04-14T08:58:49Z</time></trkpt><trkpt lat="43.95224237519405" lon="11.664425581705972"><ele>744.0</ele><time>2026-04-14T08:58:50Z</time></trkpt><trkpt lat="43.9523093715997" lon="11.664582217531997"><ele>744.0</ele><time>2026-04-14T08:58:51Z</time></trkpt><trkpt lat="43.95238108598623" lon="11.66473093099633"><ele>742.75</ele><time>2026-04-14T08:58:52Z</time></trkpt><trkpt lat="43.95245146930047" lon="11.664868132174965"><ele>741.5</ele><time>2026-04-14T08:58:53Z</time></trkpt><trkpt lat="43.95253082343261" lon="11.664990724893975"><ele>740.25</ele><time>2026-04-14T08:58:54Z</time></trkpt><trkpt lat="43.9526255436021" lon="11.665079728404447"><ele>739.0</ele><time>2026-04-14T08:58:55Z</time></trkpt><trkpt lat="43.952736884269235" lon="11.66509868971275"><ele>739.0</ele><time>2026-04-14T08:58:56Z</time></trkpt><trkpt lat="43.95285181381929" lon="11.665065658583334"><ele>739.0</ele><time>2026-04-14T08:58:57Z</time></trkpt><trkpt lat="43.952972256989895" lon="11.664996371381354"><ele>739.0</ele><time>2026-04-14T08:58:58Z</time></trkpt><trkpt lat="43.953087924104366" lon="11.664937233798279"><ele>739.0</ele><time>2026-04-14T08:58:59Z</time></trkpt><trkpt lat="43.95320642465067" lon="11.664896614671271"><ele>739.0</ele><time>2026-04-14T08:59:00Z</time></trkpt><trkpt lat="43.95331913222837" lon="11.664874982539887"><ele>739.0</ele><time>2026-04-14T08:59:01Z</time></trkpt><trkpt lat="43.953424192141256" lon="11.66485055010295"><ele>739.0</ele><time>2026-04-14T08:59:02Z</time></trkpt><trkpt lat="43.953543696573206" lon="11.664801419692932"><ele>739.0</ele><time>2026-04-14T08:59:03Z</time></trkpt><trkpt lat="43.95365191511736" lon="11.66478508823868"><ele>741.8333333333334</ele><time>2026-04-14T08:59:04Z</time></trkpt><trkpt lat="43.95374849472122" lon="11.664769939899484"><ele>744.6666666666667</ele><time>2026-04-14T08:59:05Z</time></trkpt><trkpt lat="43.9538251677133" lon="11.664796563517578"><ele>747.5</ele><time>2026-04-14T08:59:06Z</time></trkpt><trkpt lat="43.95388636688067" lon="11.664884344995729"><ele>750.3333333333334</ele><time>2026-04-14T08:59:07Z</time></trkpt><trkpt lat="43.95388933320481" lon="11.664987255073026"><ele>753.1666666666666</ele><time>2026-04-14T08:59:08Z</time></trkpt><trkpt lat="43.953846445937685" lon="11.665104708176822"><ele>756.0</ele><time>2026-04-14T08:59:09Z</time></trkpt><trkpt lat="43.95377780354449" lon="11.66520069804313"><ele>758.8</ele><time>2026-04-14T08:59:10Z</time></trkpt><trkpt lat="43.953692199031494" lon="11.665299398147251"><ele>761.5999999999999</ele><time>2026-04-14T08:59:11Z</time></trkpt><trkpt lat="43.95360977697293" lon="11.665412750438595"><ele>764.4</ele><time>2026-04-14T08:59:12Z</time></trkpt><trkpt lat="43.95352920298856" lon="11.665517611681299"><ele>767.2</ele><time>2026-04-14T08:59:13Z</time></trkpt><trkpt lat="43.95345135029957" lon="11.665619782708255"><ele>770.0</ele><time>2026-04-14T08:59:14Z</time></trkpt><trkpt lat="43.95337504626304" lon="11.665717948981886"><ele>760.8</ele><time>2026-04-14T08:59:15Z</time></trkpt><trkpt lat="43.953309620240205" lon="11.665803776497036"><ele>751.6</ele><time>2026-04-14T08:59:16Z</time></trkpt><trkpt lat="43.95326181599606" lon="11.665908001171763"><ele>742.4000000000001</ele><time>2026-04-14T08:59:17Z</time></trkpt><trkpt lat="43.95323159887985" lon="11.6660394253646"><ele>733.2</ele><time>2026-04-14T08:59:18Z</time></trkpt><trkpt lat="43.953242810321306" lon="11.66619584623619"><ele>724.0</ele><time>2026-04-14T08:59:19Z</time></trkpt><trkpt lat="43.95327640439798" lon="11.666354603690342"><ele>722.6</ele><time>2026-04-14T08:59:20Z</time></trkpt><trkpt lat="43.953307527084675" lon="11.66650336262473"><ele>721.2</ele><time>2026-04-14T08:59:21Z</time></trkpt><trkpt lat="43.9533302261582" lon="11.666655033032772"><ele>719.8000000000001</ele><time>2026-04-14T08:59:22Z</time></trkpt><trkpt lat="43.95335199123908" lon="11.666794232262655"><ele>718.4000000000001</ele><time>2026-04-14T08:59:23Z</time></trkpt><trkpt lat="43.95338339042926" lon="11.66691508185558"><ele>717.0</ele><time>2026-04-14T08:59:24Z</time></trkpt><trkpt lat="43.953438474891186" lon="11.66701075879623"><ele>715.4000000000001</ele><time>2026-04-14T08:59:25Z</time></trkpt><trkpt lat="43.95352579327528" lon="11.667079183344471"><ele>713.8000000000001</ele><time>2026-04-14T08:59:26Z</time></trkpt><trkpt lat="43.953632734010256" lon="11.66713217940282"><ele>712.2</ele><time>2026-04-14T08:59:27Z</time></trkpt><trkpt lat="43.95374539341008" lon="11.667175436009739"><ele>710.6</ele><time>2026-04-14T08:59:28Z</time></trkpt><trkpt lat="43.953858544770874" lon="11.66722304877236"><ele>709.0</ele><time>2026-04-14T08:59:29Z</time></trkpt><trkpt lat="43.953965710286184" lon="11.667276379826077"><ele>709.0</ele><time>2026-04-14T08:59:30Z</time></trkpt><trkpt lat="43.954076951962705" lon="11.667294427317882"><ele>709.0</ele><time>2026-04-14T08:59:31Z</time></trkpt><trkpt lat="43.95419943771672" lon="11.667274726968259"><ele>709.0</ele><time>2026-04-14T08:59:32Z</time></trkpt><trkpt lat="43.95431944791174" lon="11.667235380812235"><ele>709.0</ele><time>2026-04-14T08:59:33Z</time></trkpt><trkpt lat="43.95443720951041" lon="11.66719773045062"><ele>708.25</ele><time>2026-04-14T08:59:34Z</time></trkpt><trkpt lat="43.9545565116978" lon="11.667165698518271"><ele>707.5</ele><time>2026-04-14T08:59:35Z</time></trkpt><trkpt lat="43.95467947118077" lon="11.66715081879924"><ele>706.75</ele><time>2026-04-14T08:59:36Z</time></trkpt><trkpt lat="43.954802374098406" lon="11.66716004018429"><ele>706.0</ele><time>2026-04-14T08:59:37Z</time></trkpt><trkpt lat="43.954922453874104" lon="11.667211083518731"><ele>706.0</ele><time>2026-04-14T08:59:38Z</time></trkpt><trkpt lat="43.95503221173584" lon="11.667290701372819"><ele>706.0</ele><time>2026-04-14T08:59:39Z</time></trkpt><trkpt lat="43.95513442426986" lon="11.667378177132258"><ele>706.0</ele><time>2026-04-14T08:59:40Z</time></trkpt><trkpt lat="43.9552331897249" lon="11.667463732765077"><ele>706.0</ele><time>2026-04-14T08:59:41Z</time></trkpt><trkpt lat="43.95533231147355" lon="11.66753651336011"><ele>704.25</ele><time>2026-04-14T08:59:42Z</time></trkpt><trkpt lat="43.955439044753085" lon="11.667571139234257"><ele>702.5</ele><time>2026-04-14T08:59:43Z</time></trkpt><trkpt lat="43.95554409883785" lon="11.667545023549469"><ele>700.75</ele><time>2026-04-14T08:59:44Z</time></trkpt><trkpt lat="43.95564383997645" lon="11.6674609882063"><ele>699.0</ele><time>2026-04-14T08:59:45Z</time></trkpt><trkpt lat="43.955732980876085" lon="11.667344976531941"><ele>699.0</ele><time>2026-04-14T08:59:46Z</time></trkpt><trkpt lat="43.95581714019431" lon="11.667217747499834"><ele>699.0</ele><time>2026-04-14T08:59:47Z</time></trkpt><trkpt lat="43.955904524075756" lon="11.667101166536082"><ele>699.0</ele><time>2026-04-14T08:59:48Z</time></trkpt><trkpt lat="43.955993333384626" lon="11.666998083422373"><ele>699.0</ele><time>2026-04-14T08:59:49Z</time></trkpt><trkpt lat="43.95607882853343" lon="11.666911459735903"><ele>698.5</ele><time>2026-04-14T08:59:50Z</time></trkpt><trkpt lat="43.95616003197897" lon="11.666839461918352"><ele>698.0</ele><time>2026-04-14T08:59:51Z</time></trkpt><trkpt lat="43.95624120340435" lon="11.66681888828701"><ele>697.5</ele><time>2026-04-14T08:59:52Z</time></trkpt><trkpt lat="43.9563184679244" lon="11.666853622839511"><ele>697.0</ele><time>2026-04-14T08:59:53Z</time></trkpt><trkpt lat="43.95636916179914" lon="11.666938722156097"><ele>696.5</ele><time>2026-04-14T08:59:54Z</time></trkpt><trkpt lat="43.95637343438658" lon="11.667046660812096"><ele>696.0</ele><time>2026-04-14T08:59:55Z</time></trkpt><trkpt lat="43.95635648695942" lon="11.667163533534215"><ele>696.0</ele><time>2026-04-14T08:59:56Z</time></trkpt><trkpt lat="43.95635739591922" lon="11.667292517565617"><ele>696.0</ele><time>2026-04-14T08:59:57Z</time></trkpt><trkpt lat="43.9563919103821" lon="11.667421282970684"><ele>696.0</ele><time>2026-04-14T08:59:58Z</time></trkpt><trkpt lat="43.956468581967336" lon="11.667536776963036"><ele>696.0</ele><time>2026-04-14T08:59:59Z</time></trkpt><trkpt lat="43.95656519817436" lon="11.66761117087969"><ele>696.0</ele><time>2026-04-14T09:00:00Z</time></trkpt><trkpt lat="43.95668316009187" lon="11.667641655969776"><ele>696.75</ele><time>2026-04-14T09:00:01Z</time></trkpt><trkpt lat="43.95681015911281" lon="11.667614182139447"><ele>697.5</ele><time>2026-04-14T09:00:02Z</time></trkpt><trkpt lat="43.95692462755409" lon="11.66755845285708"><ele>698.25</ele><time>2026-04-14T09:00:03Z</time></trkpt><trkpt lat="43.957036106287156" lon="11.66750560183487"><ele>699.0</ele><time>2026-04-14T09:00:04Z</time></trkpt><trkpt lat="43.95715322803312" lon="11.667497496893233"><ele>699.0</ele><time>2026-04-14T09:00:05Z</time></trkpt><trkpt lat="43.95728128965085" lon="11.667535180816497"><ele>699.0</ele><time>2026-04-14T09:00:06Z</time></trkpt><trkpt lat="43.95740872510877" lon="11.667591726147464"><ele>699.0</ele><time>2026-04-14T09:00:07Z</time></trkpt><trkpt lat="43.9575326000093" lon="11.667643653868844"><ele>699.0</ele><time>2026-04-14T09:00:08Z</time></trkpt><trkpt lat="43.957661111337025" lon="11.667682457936857"><ele>702.75</ele><time>2026-04-14T09:00:09Z</time></trkpt><trkpt lat="43.95778698670145" lon="11.667739571540013"><ele>706.5</ele><time>2026-04-14T09:00:10Z</time></trkpt><trkpt lat="43.957904130928995" lon="11.667822903168291"><ele>710.25</ele><time>2026-04-14T09:00:11Z</time></trkpt><trkpt lat="43.95800226785763" lon="11.667935636521612"><ele>714.0</ele><time>2026-04-14T09:00:12Z</time></trkpt><trkpt lat="43.958080625365156" lon="11.668059705275684"><ele>708.4000000000001</ele><time>2026-04-14T09:00:13Z</time></trkpt><trkpt lat="43.958153436595346" lon="11.6681713970478"><ele>702.8</ele><time>2026-04-14T09:00:14Z</time></trkpt><trkpt lat="43.95822671733971" lon="11.66827167889665"><ele>697.2</ele><time>2026-04-14T09:00:15Z</time></trkpt><trkpt lat="43.95830553649433" lon="11.66834530098623"><ele>691.5999999999999</ele><time>2026-04-14T09:00:16Z</time></trkpt><trkpt lat="43.95838892664601" lon="11.668394103903502"><ele>686.0</ele><time>2026-04-14T09:00:17Z</time></trkpt><trkpt lat="43.958484073192416" lon="11.668390127864956"><ele>686.0</ele><time>2026-04-14T09:00:18Z</time></trkpt><trkpt lat="43.958586856897234" lon="11.668344127164882"><ele>686.0</ele><time>2026-04-14T09:00:19Z</time></trkpt><trkpt lat="43.95869204458804" lon="11.668279280159107"><ele>686.0</ele><time>2026-04-14T09:00:20Z</time></trkpt><trkpt lat="43.95879762916959" lon="11.668232615129744"><ele>686.0</ele><time>2026-04-14T09:00:21Z</time></trkpt><trkpt lat="43.95891134169187" lon="11.66822541067459"><ele>686.0</ele><time>2026-04-14T09:00:22Z</time></trkpt><trkpt lat="43.95902500164317" lon="11.668275479326919"><ele>686.0</ele><time>2026-04-14T09:00:23Z</time></trkpt><trkpt lat="43.959124819427885" lon="11.668362727957598"><ele>686.0</ele><time>2026-04-14T09:00:24Z</time></trkpt><trkpt lat="43.95921764110793" lon="11.668479010991474"><ele>686.0</ele><time>2026-04-14T09:00:25Z</time></trkpt><trkpt lat="43.95931787212653" lon="11.668567024552958"><ele>686.0</ele><time>2026-04-14T09:00:26Z</time></trkpt><trkpt lat="43.959430339496116" lon="11.66865601663081"><ele>680.75</ele><time>2026-04-14T09:00:27Z</time></trkpt><trkpt lat="43.95954646043884" lon="11.66874070661339"><ele>675.5</ele><time>2026-04-14T09:00:28Z</time></trkpt><trkpt lat="43.959664060384874" lon="11.668817005071844"><ele>670.25</ele><time>2026-04-14T09:00:29Z</time></trkpt><trkpt lat="43.95978574112752" lon="11.668886308202461"><ele>665.0</ele><time>2026-04-14T09:00:30Z</time></trkpt><trkpt lat="43.9599055845798" lon="11.668954450040562"><ele>665.0</ele><time>2026-04-14T09:00:31Z</time></trkpt><trkpt lat="43.96002891365283" lon="11.669013159713796"><ele>665.0</ele><time>2026-04-14T09:00:32Z</time></trkpt><trkpt lat="43.96015539227298" lon="11.669050323761258"><ele>665.0</ele><time>2026-04-14T09:00:33Z</time></trkpt><trkpt lat="43.960281449166246" lon="11.669057854356401"><ele>665.0</ele><time>2026-04-14T09:00:34Z</time></trkpt><trkpt lat="43.96039788354212" lon="11.669049165624838"><ele>666.5</ele><time>2026-04-14T09:00:35Z</time></trkpt><trkpt lat="43.960513504345485" lon="11.66903007632972"><ele>668.0</ele><time>2026-04-14T09:00:36Z</time></trkpt><trkpt lat="43.960625052572915" lon="11.669022744889896"><ele>669.5</ele><time>2026-04-14T09:00:37Z</time></trkpt><trkpt lat="43.96073548883932" lon="11.669064387227419"><ele>671.0</ele><time>2026-04-14T09:00:38Z</time></trkpt><trkpt lat="43.96082663864313" lon="11.669154468769117"><ele>672.75</ele><time>2026-04-14T09:00:39Z</time></trkpt><trkpt lat="43.96090104031451" lon="11.669266061083947"><ele>674.5</ele><time>2026-04-14T09:00:40Z</time></trkpt><trkpt lat="43.960997544752786" lon="11.669367178929917"><ele>676.25</ele><time>2026-04-14T09:00:41Z</time></trkpt><trkpt lat="43.96111782096239" lon="11.669411824060816"><ele>678.0</ele><time>2026-04-14T09:00:42Z</time></trkpt><trkpt lat="43.96125641220034" lon="11.669414778289934"><ele>678.0</ele><time>2026-04-14T09:00:43Z</time></trkpt><trkpt lat="43.96138988492518" lon="11.669412312257187"><ele>678.0</ele><time>2026-04-14T09:00:44Z</time></trkpt><trkpt lat="43.96151567354002" lon="11.669412504781715"><ele>678.0</ele><time>2026-04-14T09:00:45Z</time></trkpt><trkpt lat="43.96164601273616" lon="11.669418539861393"><ele>678.0</ele><time>2026-04-14T09:00:46Z</time></trkpt><trkpt lat="43.96177877172032" lon="11.669430026467674"><ele>671.25</ele><time>2026-04-14T09:00:47Z</time></trkpt><trkpt lat="43.961909716713414" lon="11.669460310931298"><ele>664.5</ele><time>2026-04-14T09:00:48Z</time></trkpt><trkpt lat="43.962032906264604" lon="11.669532238723102"><ele>657.75</ele><time>2026-04-14T09:00:49Z</time></trkpt><trkpt lat="43.96215194346263" lon="11.669619597158325"><ele>651.0</ele><time>2026-04-14T09:00:50Z</time></trkpt><trkpt lat="43.962270998268984" lon="11.669706094412552"><ele>651.0</ele><time>2026-04-14T09:00:51Z</time></trkpt><trkpt lat="43.96239044309107" lon="11.669790062593338"><ele>651.0</ele><time>2026-04-14T09:00:52Z</time></trkpt><trkpt lat="43.96251168138039" lon="11.669875932742727"><ele>651.0</ele><time>2026-04-14T09:00:53Z</time></trkpt><trkpt lat="43.96262843886614" lon="11.669970651674776"><ele>651.0</ele><time>2026-04-14T09:00:54Z</time></trkpt><trkpt lat="43.96273168015879" lon="11.670079623895473"><ele>653.0</ele><time>2026-04-14T09:00:55Z</time></trkpt><trkpt lat="43.96281963732305" lon="11.670203330313136"><ele>655.0</ele><time>2026-04-14T09:00:56Z</time></trkpt><trkpt lat="43.96289222507251" lon="11.670336486546313"><ele>657.0</ele><time>2026-04-14T09:00:57Z</time></trkpt><trkpt lat="43.96295863454671" lon="11.670453920032859"><ele>659.0</ele><time>2026-04-14T09:00:58Z</time></trkpt><trkpt lat="43.96304614133426" lon="11.670521314248633"><ele>651.5</ele><time>2026-04-14T09:00:59Z</time></trkpt><trkpt lat="43.96315248978104" lon="11.6705401323634"><ele>644.0</ele><time>2026-04-14T09:01:00Z</time></trkpt><trkpt lat="43.963273908623044" lon="11.670513890068932"><ele>636.5</ele><time>2026-04-14T09:01:01Z</time></trkpt><trkpt lat="43.96339822947918" lon="11.67046040946313"><ele>629.0</ele><time>2026-04-14T09:01:02Z</time></trkpt><trkpt lat="43.96352364030738" lon="11.67038989180957"><ele>628.5</ele><time>2026-04-14T09:01:03Z</time></trkpt><trkpt lat="43.9636440149438" lon="11.670313460917898"><ele>628.0</ele><time>2026-04-14T09:01:04Z</time></trkpt><trkpt lat="43.963763701892276" lon="11.67023637439409"><ele>627.5</ele><time>2026-04-14T09:01:05Z</time></trkpt><trkpt lat="43.963884099237724" lon="11.670166629048031"><ele>627.0</ele><time>2026-04-14T09:01:06Z</time></trkpt><trkpt lat="43.96401073823969" lon="11.670113313822196"><ele>625.5</ele><time>2026-04-14T09:01:07Z</time></trkpt><trkpt lat="43.964139676085594" lon="11.670074616403472"><ele>624.0</ele><time>2026-04-14T09:01:08Z</time></trkpt><trkpt lat="43.96427303187986" lon="11.67006074824622"><ele>622.5</ele><time>2026-04-14T09:01:09Z</time></trkpt><trkpt lat="43.96440730407517" lon="11.670060421477453"><ele>621.0</ele><time>2026-04-14T09:01:10Z</time></trkpt><trkpt lat="43.964537325478965" lon="11.670072897673283"><ele>621.0</ele><time>2026-04-14T09:01:11Z</time></trkpt><trkpt lat="43.964660171885185" lon="11.670070365568911"><ele>621.0</ele><time>2026-04-14T09:01:12Z</time></trkpt><trkpt lat="43.96477639523474" lon="11.670026912167959"><ele>621.0</ele><time>2026-04-14T09:01:13Z</time></trkpt><trkpt lat="43.964882657735586" lon="11.669951990434663"><ele>621.0</ele><time>2026-04-14T09:01:14Z</time></trkpt><trkpt lat="43.9649706203828" lon="11.669844011202372"><ele>623.4</ele><time>2026-04-14T09:01:15Z</time></trkpt><trkpt lat="43.96504071173725" lon="11.669718108574019"><ele>625.8</ele><time>2026-04-14T09:01:16Z</time></trkpt><trkpt lat="43.965108787283896" lon="11.669589448884258"><ele>628.1999999999999</ele><time>2026-04-14T09:01:17Z</time></trkpt><trkpt lat="43.965180593185735" lon="11.669469629871495"><ele>630.6</ele><time>2026-04-14T09:01:18Z</time></trkpt><trkpt lat="43.96524978504418" lon="11.669367974137188"><ele>633.0</ele><time>2026-04-14T09:01:19Z</time></trkpt><trkpt lat="43.96534039759331" lon="11.669321431802985"><ele>633.0</ele><time>2026-04-14T09:01:20Z</time></trkpt><trkpt lat="43.96542636438183" lon="11.669338243010124"><ele>633.0</ele><time>2026-04-14T09:01:21Z</time></trkpt><trkpt lat="43.9655069717437" lon="11.669403694092676"><ele>633.0</ele><time>2026-04-14T09:01:22Z</time></trkpt><trkpt lat="43.96555873404355" lon="11.66951279910679"><ele>633.0</ele><time>2026-04-14T09:01:23Z</time></trkpt><trkpt lat="43.9655828032003" lon="11.66965057899072"><ele>633.0</ele><time>2026-04-14T09:01:24Z</time></trkpt><trkpt lat="43.96559195629721" lon="11.669805601680553"><ele>633.0</ele><time>2026-04-14T09:01:25Z</time></trkpt><trkpt lat="43.965603780384825" lon="11.669966788264444"><ele>633.0</ele><time>2026-04-14T09:01:26Z</time></trkpt><trkpt lat="43.9656202034701" lon="11.670119131769287"><ele>633.0</ele><time>2026-04-14T09:01:27Z</time></trkpt><trkpt lat="43.96564148813319" lon="11.670270917275223"><ele>633.0</ele><time>2026-04-14T09:01:28Z</time></trkpt><trkpt lat="43.96568614677966" lon="11.670419164608576"><ele>635.0</ele><time>2026-04-14T09:01:29Z</time></trkpt><trkpt lat="43.965763904192364" lon="11.670556706218187"><ele>637.0</ele><time>2026-04-14T09:01:30Z</time></trkpt><trkpt lat="43.96585413259092" lon="11.67069130468539"><ele>639.0</ele><time>2026-04-14T09:01:31Z</time></trkpt><trkpt lat="43.96595367253196" lon="11.670823485658417"><ele>641.0</ele><time>2026-04-14T09:01:32Z</time></trkpt><trkpt lat="43.96605893750271" lon="11.670959562472364"><ele>641.0</ele><time>2026-04-14T09:01:33Z</time></trkpt><trkpt lat="43.966161836640765" lon="11.671104207007978"><ele>641.0</ele><time>2026-04-14T09:01:34Z</time></trkpt><trkpt lat="43.96626807260871" lon="11.671252694458865"><ele>641.0</ele><time>2026-04-14T09:01:35Z</time></trkpt><trkpt lat="43.96637301933294" lon="11.671402079081158"><ele>641.0</ele><time>2026-04-14T09:01:36Z</time></trkpt><trkpt lat="43.96646984456436" lon="11.671555486609595"><ele>637.25</ele><time>2026-04-14T09:01:37Z</time></trkpt><trkpt lat="43.966549409404294" lon="11.671717080133234"><ele>633.5</ele><time>2026-04-14T09:01:38Z</time></trkpt><trkpt lat="43.96661774576737" lon="11.67188334783913"><ele>629.75</ele><time>2026-04-14T09:01:39Z</time></trkpt><trkpt lat="43.966669017177296" lon="11.672059906076061"><ele>626.0</ele><time>2026-04-14T09:01:40Z</time></trkpt><trkpt lat="43.96670194313222" lon="11.672227719813156"><ele>629.25</ele><time>2026-04-14T09:01:41Z</time></trkpt><trkpt lat="43.966711843773545" lon="11.672392069273634"><ele>632.5</ele><time>2026-04-14T09:01:42Z</time></trkpt><trkpt lat="43.96671027754462" lon="11.67255953070773"><ele>635.75</ele><time>2026-04-14T09:01:43Z</time></trkpt><trkpt lat="43.96670628397478" lon="11.67273081723295"><ele>639.0</ele><time>2026-04-14T09:01:44Z</time></trkpt><trkpt lat="43.96670300364638" lon="11.672898166206533"><ele>639.0</ele><time>2026-04-14T09:01:45Z</time></trkpt><trkpt lat="43.96671615379323" lon="11.673057992951714"><ele>639.0</ele><time>2026-04-14T09:01:46Z</time></trkpt><trkpt lat="43.966751298672484" lon="11.673213868748842"><ele>639.0</ele><time>2026-04-14T09:01:47Z</time></trkpt><trkpt lat="43.96679625131404" lon="11.673355810088184"><ele>639.0</ele><time>2026-04-14T09:01:48Z</time></trkpt><trkpt lat="43.96685278703959" lon="11.673473219679591"><ele>639.0</ele><time>2026-04-14T09:01:49Z</time></trkpt><trkpt lat="43.966936211032525" lon="11.673551885486816"><ele>636.2</ele><time>2026-04-14T09:01:50Z</time></trkpt><trkpt lat="43.967037223571474" lon="11.673614332573294"><ele>633.4</ele><time>2026-04-14T09:01:51Z</time></trkpt><trkpt lat="43.96713391537994" lon="11.673683559893119"><ele>630.6</ele><time>2026-04-14T09:01:52Z</time></trkpt><trkpt lat="43.96720882337413" lon="11.673781088791575"><ele>627.8</ele><time>2026-04-14T09:01:53Z</time></trkpt><trkpt lat="43.96725517188795" lon="11.67392035080414"><ele>625.0</ele><time>2026-04-14T09:01:54Z</time></trkpt><trkpt lat="43.9672768405188" lon="11.67407543685942"><ele>625.0</ele><time>2026-04-14T09:01:55Z</time></trkpt><trkpt lat="43.967286908831284" lon="11.67423026581063"><ele>625.0</ele><time>2026-04-14T09:01:56Z</time></trkpt><trkpt lat="43.96730205965583" lon="11.674374245580218"><ele>625.0</ele><time>2026-04-14T09:01:57Z</time></trkpt><trkpt lat="43.967337388295206" lon="11.674506478851448"><ele>625.0</ele><time>2026-04-14T09:01:58Z</time></trkpt><trkpt lat="43.967411214453804" lon="11.67461654665862"><ele>625.0</ele><time>2026-04-14T09:01:59Z</time></trkpt><trkpt lat="43.967511321146446" lon="11.674703865683805"><ele>622.0</ele><time>2026-04-14T09:02:00Z</time></trkpt><trkpt lat="43.96762335217468" lon="11.674788598356288"><ele>619.0</ele><time>2026-04-14T09:02:01Z</time></trkpt><trkpt lat="43.96772156270591" lon="11.674873855901243"><ele>616.0</ele><time>2026-04-14T09:02:02Z</time></trkpt><trkpt lat="43.96781320921586" lon="11.674953608481308"><ele>613.0</ele><time>2026-04-14T09:02:03Z</time></trkpt><trkpt lat="43.967899661314675" lon="11.675029750340228"><ele>613.0</ele><time>2026-04-14T09:02:04Z</time></trkpt><trkpt lat="43.96799101484728" lon="11.67507031597601"><ele>613.0</ele><time>2026-04-14T09:02:05Z</time></trkpt><trkpt lat="43.96808660582233" lon="11.675046141970899"><ele>613.0</ele><time>2026-04-14T09:02:06Z</time></trkpt><trkpt lat="43.968180242576324" lon="11.674966860541543"><ele>613.0</ele><time>2026-04-14T09:02:07Z</time></trkpt><trkpt lat="43.968287502699255" lon="11.674890143908845"><ele>613.0</ele><time>2026-04-14T09:02:08Z</time></trkpt><trkpt lat="43.96840561568877" lon="11.674843062619045"><ele>614.25</ele><time>2026-04-14T09:02:09Z</time></trkpt><trkpt lat="43.9685318898084" lon="11.674815895902762"><ele>615.5</ele><time>2026-04-14T09:02:10Z</time></trkpt><trkpt lat="43.96866285413355" lon="11.67480063160353"><ele>616.75</ele><time>2026-04-14T09:02:11Z</time></trkpt><trkpt lat="43.96879260954064" lon="11.674788538271669"><ele>618.0</ele><time>2026-04-14T09:02:12Z</time></trkpt><trkpt lat="43.96891568991665" lon="11.674781852534277"><ele>618.0</ele><time>2026-04-14T09:02:13Z</time></trkpt><trkpt lat="43.96903369495029" lon="11.67480012935909"><ele>618.0</ele><time>2026-04-14T09:02:14Z</time></trkpt><trkpt lat="43.96914749539225" lon="11.6748643600426"><ele>618.0</ele><time>2026-04-14T09:02:15Z</time></trkpt><trkpt lat="43.96925508913777" lon="11.674970153380245"><ele>618.0</ele><time>2026-04-14T09:02:16Z</time></trkpt><trkpt lat="43.96935487351692" lon="11.675066752392276"><ele>618.0</ele><time>2026-04-14T09:02:17Z</time></trkpt><trkpt lat="43.9694507201752" lon="11.675146361613876"><ele>618.0</ele><time>2026-04-14T09:02:18Z</time></trkpt><trkpt lat="43.969558055554394" lon="11.675183858218267"><ele>618.0</ele><time>2026-04-14T09:02:19Z</time></trkpt><trkpt lat="43.969679804957806" lon="11.675181042224795"><ele>618.0</ele><time>2026-04-14T09:02:20Z</time></trkpt><trkpt lat="43.96980592038309" lon="11.675166204964214"><ele>618.0</ele><time>2026-04-14T09:02:21Z</time></trkpt><trkpt lat="43.96992470686197" lon="11.675154198909544"><ele>618.0</ele><time>2026-04-14T09:02:22Z</time></trkpt><trkpt lat="43.97003284436623" lon="11.675135698502439"><ele>618.0</ele><time>2026-04-14T09:02:23Z</time></trkpt><trkpt lat="43.97013284421767" lon="11.675084769177552"><ele>618.0</ele><time>2026-04-14T09:02:24Z</time></trkpt><trkpt lat="43.970225314554014" lon="11.674990258088295"><ele>618.0</ele><time>2026-04-14T09:02:25Z</time></trkpt><trkpt lat="43.97031016918626" lon="11.674878873475397"><ele>618.0</ele><time>2026-04-14T09:02:26Z</time></trkpt><trkpt lat="43.97039015627056" lon="11.674776436812534"><ele>618.0</ele><time>2026-04-14T09:02:27Z</time></trkpt><trkpt lat="43.970474886499964" lon="11.674688480119576"><ele>618.0</ele><time>2026-04-14T09:02:28Z</time></trkpt><trkpt lat="43.97056580498239" lon="11.674655694560048"><ele>618.0</ele><time>2026-04-14T09:02:29Z</time></trkpt><trkpt lat="43.97064907251336" lon="11.674690065280833"><ele>618.0</ele><time>2026-04-14T09:02:30Z</time></trkpt><trkpt lat="43.97070477330655" lon="11.674784002840322"><ele>618.0</ele><time>2026-04-14T09:02:31Z</time></trkpt><trkpt lat="43.97073363395788" lon="11.674898270904002"><ele>618.0</ele><time>2026-04-14T09:02:32Z</time></trkpt><trkpt lat="43.97076394547545" lon="11.675037294815958"><ele>618.0</ele><time>2026-04-14T09:02:33Z</time></trkpt><trkpt lat="43.970805545265684" lon="11.675179787504883"><ele>618.0</ele><time>2026-04-14T09:02:34Z</time></trkpt><trkpt lat="43.97087325705225" lon="11.675305887728026"><ele>618.0</ele><time>2026-04-14T09:02:35Z</time></trkpt><trkpt lat="43.97097360337125" lon="11.67541398205513"><ele>616.0</ele><time>2026-04-14T09:02:36Z</time></trkpt><trkpt lat="43.971089723314215" lon="11.67550578058186"><ele>614.0</ele><time>2026-04-14T09:02:37Z</time></trkpt><trkpt lat="43.971192221587664" lon="11.675592824440619"><ele>612.0</ele><time>2026-04-14T09:02:38Z</time></trkpt><trkpt lat="43.97129051245662" lon="11.675675459961656"><ele>610.0</ele><time>2026-04-14T09:02:39Z</time></trkpt><trkpt lat="43.97140563545935" lon="11.67572531992975"><ele>610.0</ele><time>2026-04-14T09:02:40Z</time></trkpt><trkpt lat="43.9715316270487" lon="11.675733229515998"><ele>610.0</ele><time>2026-04-14T09:02:41Z</time></trkpt><trkpt lat="43.97165292745333" lon="11.675748380752422"><ele>610.0</ele><time>2026-04-14T09:02:42Z</time></trkpt><trkpt lat="43.97176158993223" lon="11.675789988291822"><ele>610.0</ele><time>2026-04-14T09:02:43Z</time></trkpt><trkpt lat="43.97186251581774" lon="11.675847128796093"><ele>609.4</ele><time>2026-04-14T09:02:44Z</time></trkpt><trkpt lat="43.97195673329561" lon="11.675889939954345"><ele>608.8</ele><time>2026-04-14T09:02:45Z</time></trkpt><trkpt lat="43.9720417535126" lon="11.675874513203228"><ele>608.2</ele><time>2026-04-14T09:02:46Z</time></trkpt><trkpt lat="43.97212248764659" lon="11.675799409665968"><ele>607.6</ele><time>2026-04-14T09:02:47Z</time></trkpt><trkpt lat="43.97219316259797" lon="11.675693256113115"><ele>607.0</ele><time>2026-04-14T09:02:48Z</time></trkpt><trkpt lat="43.97227390482395" lon="11.675574819985975"><ele>607.0</ele><time>2026-04-14T09:02:49Z</time></trkpt><trkpt lat="43.97237047537737" lon="11.675497144363847"><ele>607.0</ele><time>2026-04-14T09:02:50Z</time></trkpt><trkpt lat="43.97248396386794" lon="11.675455557882747"><ele>607.0</ele><time>2026-04-14T09:02:51Z</time></trkpt><trkpt lat="43.972593073247396" lon="11.675422897419454"><ele>607.0</ele><time>2026-04-14T09:02:52Z</time></trkpt><trkpt lat="43.97269756072433" lon="11.675393352118"><ele>607.0</ele><time>2026-04-14T09:02:53Z</time></trkpt><trkpt lat="43.97278889633192" lon="11.675368485725574"><ele>610.8333333333334</ele><time>2026-04-14T09:02:54Z</time></trkpt><trkpt lat="43.9728744728796" lon="11.675379874069778"><ele>614.6666666666667</ele><time>2026-04-14T09:02:55Z</time></trkpt><trkpt lat="43.972942204959445" lon="11.675446473971366"><ele>618.5</ele><time>2026-04-14T09:02:56Z</time></trkpt><trkpt lat="43.97297060394544" lon="11.67555132407532"><ele>622.3333333333334</ele><time>2026-04-14T09:02:57Z</time></trkpt><trkpt lat="43.97296337383012" lon="11.675668484021003"><ele>626.1666666666666</ele><time>2026-04-14T09:02:58Z</time></trkpt><trkpt lat="43.9729349409159" lon="11.675804450190949"><ele>630.0</ele><time>2026-04-14T09:02:59Z</time></trkpt><trkpt lat="43.972928711663506" lon="11.675932112926"><ele>630.0</ele><time>2026-04-14T09:03:00Z</time></trkpt><trkpt lat="43.972949815398884" lon="11.676077145441699"><ele>630.0</ele><time>2026-04-14T09:03:01Z</time></trkpt><trkpt lat="43.97299651860848" lon="11.676207498331692"><ele>630.0</ele><time>2026-04-14T09:03:02Z</time></trkpt><trkpt lat="43.973042586510815" lon="11.676334519007392"><ele>630.0</ele><time>2026-04-14T09:03:03Z</time></trkpt><trkpt lat="43.973067774833694" lon="11.676472363272504"><ele>630.0</ele><time>2026-04-14T09:03:04Z</time></trkpt><trkpt lat="43.973073634668715" lon="11.67661365476827"><ele>631.5</ele><time>2026-04-14T09:03:05Z</time></trkpt><trkpt lat="43.973080244898455" lon="11.676748132496234"><ele>633.0</ele><time>2026-04-14T09:03:06Z</time></trkpt><trkpt lat="43.973100165258884" lon="11.676856123585969"><ele>634.5</ele><time>2026-04-14T09:03:07Z</time></trkpt><trkpt lat="43.973156644431306" lon="11.676930789058144"><ele>636.0</ele><time>2026-04-14T09:03:08Z</time></trkpt><trkpt lat="43.97324432655641" lon="11.676953302431155"><ele>637.5</ele><time>2026-04-14T09:03:09Z</time></trkpt><trkpt lat="43.97334825973116" lon="11.676935885666051"><ele>639.0</ele><time>2026-04-14T09:03:10Z</time></trkpt><trkpt lat="43.97345303358728" lon="11.676903246359402"><ele>639.0</ele><time>2026-04-14T09:03:11Z</time></trkpt><trkpt lat="43.973557271786575" lon="11.6769012762885"><ele>639.0</ele><time>2026-04-14T09:03:12Z</time></trkpt><trkpt lat="43.97365394112401" lon="11.676969301548462"><ele>639.0</ele><time>2026-04-14T09:03:13Z</time></trkpt><trkpt lat="43.973719346728316" lon="11.677095936191872"><ele>639.0</ele><time>2026-04-14T09:03:14Z</time></trkpt><trkpt lat="43.97374966398861" lon="11.677231821027886"><ele>639.0</ele><time>2026-04-14T09:03:15Z</time></trkpt><trkpt lat="43.97379630121665" lon="11.677353913389567"><ele>628.75</ele><time>2026-04-14T09:03:16Z</time></trkpt><trkpt lat="43.97388357822064" lon="11.67744970953582"><ele>618.5</ele><time>2026-04-14T09:03:17Z</time></trkpt><trkpt lat="43.97399591474848" lon="11.677528468236103"><ele>608.25</ele><time>2026-04-14T09:03:18Z</time></trkpt><trkpt lat="43.97410575921326" lon="11.677595319942247"><ele>598.0</ele><time>2026-04-14T09:03:19Z</time></trkpt><trkpt lat="43.97421368402161" lon="11.677656384767424"><ele>597.4</ele><time>2026-04-14T09:03:20Z</time></trkpt><trkpt lat="43.97431662565136" lon="11.677704651763705"><ele>596.8</ele><time>2026-04-14T09:03:21Z</time></trkpt><trkpt lat="43.97441077088336" lon="11.677735737015604"><ele>596.2</ele><time>2026-04-14T09:03:22Z</time></trkpt><trkpt lat="43.97449824332267" lon="11.677718233618874"><ele>595.6</ele><time>2026-04-14T09:03:23Z</time></trkpt><trkpt lat="43.974579347624235" lon="11.67767775709462"><ele>595.0</ele><time>2026-04-14T09:03:24Z</time></trkpt><trkpt lat="43.97462505813055" lon="11.677553742328405"><ele>595.0</ele><time>2026-04-14T09:03:25Z</time></trkpt><trkpt lat="43.97470198929959" lon="11.677478337636517"><ele>595.0</ele><time>2026-04-14T09:03:26Z</time></trkpt><trkpt lat="43.97477154172679" lon="11.677382940829487"><ele>595.0</ele><time>2026-04-14T09:03:27Z</time></trkpt><trkpt lat="43.97487969231199" lon="11.677385593399029"><ele>595.0</ele><time>2026-04-14T09:03:28Z</time></trkpt><trkpt lat="43.97497711029862" lon="11.677447961996467"><ele>595.0</ele><time>2026-04-14T09:03:29Z</time></trkpt><trkpt lat="43.97506717497088" lon="11.677537244589958"><ele>596.2</ele><time>2026-04-14T09:03:30Z</time></trkpt><trkpt lat="43.97514836454861" lon="11.677635007995171"><ele>597.4</ele><time>2026-04-14T09:03:31Z</time></trkpt><trkpt lat="43.975210108562344" lon="11.677762416527951"><ele>598.6</ele><time>2026-04-14T09:03:32Z</time></trkpt><trkpt lat="43.97524226529451" lon="11.677909571939816"><ele>599.8</ele><time>2026-04-14T09:03:33Z</time></trkpt><trkpt lat="43.975233700801446" lon="11.678065877187695"><ele>601.0</ele><time>2026-04-14T09:03:34Z</time></trkpt><trkpt lat="43.9752065140574" lon="11.678209690796253"><ele>601.0</ele><time>2026-04-14T09:03:35Z</time></trkpt><trkpt lat="43.975192378819045" lon="11.678351804762192"><ele>601.0</ele><time>2026-04-14T09:03:36Z</time></trkpt><trkpt lat="43.97520950464063" lon="11.6784824225014"><ele>601.0</ele><time>2026-04-14T09:03:37Z</time></trkpt><trkpt lat="43.97525855878602" lon="11.678613924466847"><ele>601.0</ele><time>2026-04-14T09:03:38Z</time></trkpt><trkpt lat="43.97532474629826" lon="11.678740398799878"><ele>601.0</ele><time>2026-04-14T09:03:39Z</time></trkpt><trkpt lat="43.97539600977788" lon="11.67885785495948"><ele>593.6</ele><time>2026-04-14T09:03:40Z</time></trkpt><trkpt lat="43.975480537813056" lon="11.678934830564254"><ele>586.2</ele><time>2026-04-14T09:03:41Z</time></trkpt><trkpt lat="43.975571520188154" lon="11.67896992475484"><ele>578.8</ele><time>2026-04-14T09:03:42Z</time></trkpt><trkpt lat="43.97567257263427" lon="11.678944767952528"><ele>571.4</ele><time>2026-04-14T09:03:43Z</time></trkpt><trkpt lat="43.97576465079178" lon="11.67888013496928"><ele>564.0</ele><time>2026-04-14T09:03:44Z</time></trkpt><trkpt lat="43.975859947149104" lon="11.678814504888125"><ele>562.4</ele><time>2026-04-14T09:03:45Z</time></trkpt><trkpt lat="43.97596623972391" lon="11.678794569810307"><ele>560.8</ele><time>2026-04-14T09:03:46Z</time></trkpt><trkpt lat="43.97607771833884" lon="11.67882754391081"><ele>559.2</ele><time>2026-04-14T09:03:47Z</time></trkpt><trkpt lat="43.976184425796596" lon="11.67886726002321"><ele>557.6</ele><time>2026-04-14T09:03:48Z</time></trkpt><trkpt lat="43.976290203447334" lon="11.678856338342511"><ele>556.0</ele><time>2026-04-14T09:03:49Z</time></trkpt><trkpt lat="43.97640312412821" lon="11.678796246090652"><ele>556.0</ele><time>2026-04-14T09:03:50Z</time></trkpt><trkpt lat="43.97650801037703" lon="11.678702932005184"><ele>556.0</ele><time>2026-04-14T09:03:51Z</time></trkpt><trkpt lat="43.97661422643278" lon="11.678635126674905"><ele>556.0</ele><time>2026-04-14T09:03:52Z</time></trkpt><trkpt lat="43.97671113557007" lon="11.678569446298711"><ele>556.0</ele><time>2026-04-14T09:03:53Z</time></trkpt><trkpt lat="43.97681818401109" lon="11.678538526574945"><ele>559.75</ele><time>2026-04-14T09:03:54Z</time></trkpt><trkpt lat="43.976923858335404" lon="11.678600378039363"><ele>563.5</ele><time>2026-04-14T09:03:55Z</time></trkpt><trkpt lat="43.97701033722347" lon="11.678701481366915"><ele>567.25</ele><time>2026-04-14T09:03:56Z</time></trkpt><trkpt lat="43.97707217244512" lon="11.678842314295341"><ele>571.0</ele><time>2026-04-14T09:03:57Z</time></trkpt><trkpt lat="43.977137020749865" lon="11.678990234243273"><ele>571.0</ele><time>2026-04-14T09:03:58Z</time></trkpt><trkpt lat="43.97722660078566" lon="11.679120601372134"><ele>571.0</ele><time>2026-04-14T09:03:59Z</time></trkpt><trkpt lat="43.9773294132846" lon="11.679233573418223"><ele>571.0</ele><time>2026-04-14T09:04:00Z</time></trkpt><trkpt lat="43.97743310863394" lon="11.679342578542405"><ele>571.0</ele><time>2026-04-14T09:04:01Z</time></trkpt><trkpt lat="43.977510000317" lon="11.679485820309479"><ele>573.25</ele><time>2026-04-14T09:04:02Z</time></trkpt><trkpt lat="43.97755637418069" lon="11.679655441351196"><ele>575.5</ele><time>2026-04-14T09:04:03Z</time></trkpt><trkpt lat="43.977606777558705" lon="11.67981408851719"><ele>577.75</ele><time>2026-04-14T09:04:04Z</time></trkpt><trkpt lat="43.977692529064846" lon="11.67994975469675"><ele>580.0</ele><time>2026-04-14T09:04:05Z</time></trkpt><trkpt lat="43.977790932388515" lon="11.680082878580153"><ele>580.0</ele><time>2026-04-14T09:04:06Z</time></trkpt><trkpt lat="43.977886630322566" lon="11.680213138322319"><ele>580.0</ele><time>2026-04-14T09:04:07Z</time></trkpt><trkpt lat="43.97798727271774" lon="11.680337071450207"><ele>580.0</ele><time>2026-04-14T09:04:08Z</time></trkpt><trkpt lat="43.97808261855652" lon="11.680467606238677"><ele>580.0</ele><time>2026-04-14T09:04:09Z</time></trkpt><trkpt lat="43.978172587869835" lon="11.680591330967545"><ele>575.75</ele><time>2026-04-14T09:04:10Z</time></trkpt><trkpt lat="43.978243579684396" lon="11.680726746347457"><ele>571.5</ele><time>2026-04-14T09:04:11Z</time></trkpt><trkpt lat="43.97829251991944" lon="11.680873548858798"><ele>567.25</ele><time>2026-04-14T09:04:12Z</time></trkpt><trkpt lat="43.97830634873726" lon="11.681033924329547"><ele>563.0</ele><time>2026-04-14T09:04:13Z</time></trkpt><trkpt lat="43.97828649197033" lon="11.68118720083486"><ele>560.0</ele><time>2026-04-14T09:04:14Z</time></trkpt><trkpt lat="43.978266802290655" lon="11.681333465196722"><ele>557.0</ele><time>2026-04-14T09:04:15Z</time></trkpt><trkpt lat="43.97823896782772" lon="11.681463433381968"><ele>554.0</ele><time>2026-04-14T09:04:16Z</time></trkpt><trkpt lat="43.97824725970011" lon="11.681585082395818"><ele>551.0</ele><time>2026-04-14T09:04:17Z</time></trkpt><trkpt lat="43.97829731333098" lon="11.681682459379664"><ele>548.0</ele><time>2026-04-14T09:04:18Z</time></trkpt><trkpt lat="43.978379781758036" lon="11.68175226232464"><ele>551.0</ele><time>2026-04-14T09:04:19Z</time></trkpt><trkpt lat="43.978493274739726" lon="11.681796158365914"><ele>554.0</ele><time>2026-04-14T09:04:20Z</time></trkpt><trkpt lat="43.97860749458546" lon="11.681832746102078"><ele>557.0</ele><time>2026-04-14T09:04:21Z</time></trkpt><trkpt lat="43.97871230745822" lon="11.68187526216456"><ele>560.0</ele><time>2026-04-14T09:04:22Z</time></trkpt><trkpt lat="43.97881032720872" lon="11.68194346125727"><ele>560.0</ele><time>2026-04-14T09:04:23Z</time></trkpt><trkpt lat="43.97890106251181" lon="11.682038988429627"><ele>560.0</ele><time>2026-04-14T09:04:24Z</time></trkpt><trkpt lat="43.97898665425198" lon="11.682161626062085"><ele>560.0</ele><time>2026-04-14T09:04:25Z</time></trkpt><trkpt lat="43.97905998374449" lon="11.68231564651943"><ele>560.0</ele><time>2026-04-14T09:04:26Z</time></trkpt><trkpt lat="43.97911490215844" lon="11.682485006571016"><ele>560.0</ele><time>2026-04-14T09:04:27Z</time></trkpt><trkpt lat="43.979146674945035" lon="11.682663686804437"><ele>560.0</ele><time>2026-04-14T09:04:28Z</time></trkpt><trkpt lat="43.979157131901204" lon="11.682843065370612"><ele>560.0</ele><time>2026-04-14T09:04:29Z</time></trkpt><trkpt lat="43.97914803819648" lon="11.683015863470848"><ele>560.0</ele><time>2026-04-14T09:04:30Z</time></trkpt><trkpt lat="43.979110202734624" lon="11.683167353667578"><ele>557.2</ele><time>2026-04-14T09:04:31Z</time></trkpt><trkpt lat="43.97906930140943" lon="11.683311880173465"><ele>554.4</ele><time>2026-04-14T09:04:32Z</time></trkpt><trkpt lat="43.979039155216775" lon="11.683445303483365"><ele>551.6</ele><time>2026-04-14T09:04:33Z</time></trkpt><trkpt lat="43.9790376385964" lon="11.683577227545397"><ele>548.8</ele><time>2026-04-14T09:04:34Z</time></trkpt><trkpt lat="43.979066257460985" lon="11.68370420764597"><ele>546.0</ele><time>2026-04-14T09:04:35Z</time></trkpt><trkpt lat="43.97911856238318" lon="11.683820041452625"><ele>548.2</ele><time>2026-04-14T09:04:36Z</time></trkpt><trkpt lat="43.97918628119414" lon="11.6839387472015"><ele>550.4000000000001</ele><time>2026-04-14T09:04:37Z</time></trkpt><trkpt lat="43.97926223050636" lon="11.68404710920689"><ele>552.6</ele><time>2026-04-14T09:04:38Z</time></trkpt><trkpt lat="43.97932683067076" lon="11.684173404408433"><ele>554.8000000000001</ele><time>2026-04-14T09:04:39Z</time></trkpt><trkpt lat="43.97936973386254" lon="11.684319491420878"><ele>557.0</ele><time>2026-04-14T09:04:40Z</time></trkpt><trkpt lat="43.97940041784705" lon="11.684487023292322"><ele>557.0</ele><time>2026-04-14T09:04:41Z</time></trkpt><trkpt lat="43.97942378239927" lon="11.68466221245147"><ele>557.0</ele><time>2026-04-14T09:04:42Z</time></trkpt><trkpt lat="43.979445293714626" lon="11.68483478440493"><ele>557.0</ele><time>2026-04-14T09:04:43Z</time></trkpt><trkpt lat="43.97945804047821" lon="11.685012546730938"><ele>557.0</ele><time>2026-04-14T09:04:44Z</time></trkpt><trkpt lat="43.97945901555228" lon="11.685191566974567"><ele>555.0</ele><time>2026-04-14T09:04:45Z</time></trkpt><trkpt lat="43.97945177759968" lon="11.685370327505822"><ele>553.0</ele><time>2026-04-14T09:04:46Z</time></trkpt><trkpt lat="43.97944361148843" lon="11.685548866591644"><ele>551.0</ele><time>2026-04-14T09:04:47Z</time></trkpt><trkpt lat="43.97943576676526" lon="11.685727258985978"><ele>549.0</ele><time>2026-04-14T09:04:48Z</time></trkpt><trkpt lat="43.979426834660224" lon="11.685905945872285"><ele>549.0</ele><time>2026-04-14T09:04:49Z</time></trkpt><trkpt lat="43.979418044946286" lon="11.686085159605842"><ele>549.0</ele><time>2026-04-14T09:04:50Z</time></trkpt><trkpt lat="43.97940924786101" lon="11.686258981293877"><ele>549.0</ele><time>2026-04-14T09:04:51Z</time></trkpt><trkpt lat="43.97940109074548" lon="11.686414444102901"><ele>549.0</ele><time>2026-04-14T09:04:52Z</time></trkpt><trkpt lat="43.97939266899354" lon="11.68656161014969"><ele>546.2</ele><time>2026-04-14T09:04:53Z</time></trkpt><trkpt lat="43.979382373186645" lon="11.686709185881366"><ele>543.4</ele><time>2026-04-14T09:04:54Z</time></trkpt><trkpt lat="43.9793872673619" lon="11.68684923361444"><ele>540.6</ele><time>2026-04-14T09:04:55Z</time></trkpt><trkpt lat="43.97942570736012" lon="11.686956220966433"><ele>537.8</ele><time>2026-04-14T09:04:56Z</time></trkpt><trkpt lat="43.97949376787747" lon="11.687033751268665"><ele>535.0</ele><time>2026-04-14T09:04:57Z</time></trkpt><trkpt lat="43.979590520447665" lon="11.687071137362894"><ele>531.5</ele><time>2026-04-14T09:04:58Z</time></trkpt><trkpt lat="43.979703204333155" lon="11.687069530491394"><ele>528.0</ele><time>2026-04-14T09:04:59Z</time></trkpt><trkpt lat="43.979818783629625" lon="11.687059366684945"><ele>524.5</ele><time>2026-04-14T09:05:00Z</time></trkpt><trkpt lat="43.9799335819094" lon="11.68705966761053"><ele>521.0</ele><time>2026-04-14T09:05:01Z</time></trkpt><trkpt lat="43.98004630540807" lon="11.687055101442606"><ele>521.0</ele><time>2026-04-14T09:05:02Z</time></trkpt><trkpt lat="43.9801540411638" lon="11.687067405212325"><ele>521.0</ele><time>2026-04-14T09:05:03Z</time></trkpt><trkpt lat="43.98026287252443" lon="11.687104333811872"><ele>521.0</ele><time>2026-04-14T09:05:04Z</time></trkpt><trkpt lat="43.98036527623005" lon="11.68716918944201"><ele>521.0</ele><time>2026-04-14T09:05:05Z</time></trkpt><trkpt lat="43.98045519944966" lon="11.687255877547138"><ele>521.0</ele><time>2026-04-14T09:05:06Z</time></trkpt><trkpt lat="43.98053785484221" lon="11.687356536998015"><ele>521.0</ele><time>2026-04-14T09:05:07Z</time></trkpt><trkpt lat="43.98061643194171" lon="11.687461863737706"><ele>521.0</ele><time>2026-04-14T09:05:08Z</time></trkpt><trkpt lat="43.980683204377165" lon="11.6875848011283"><ele>521.0</ele><time>2026-04-14T09:05:09Z</time></trkpt><trkpt lat="43.98073321258762" lon="11.68772499943441"><ele>521.0</ele><time>2026-04-14T09:05:10Z</time></trkpt><trkpt lat="43.980769452292094" lon="11.687876802710548"><ele>521.0</ele><time>2026-04-14T09:05:11Z</time></trkpt><trkpt lat="43.98080583656054" lon="11.688026207382869"><ele>518.3333333333333</ele><time>2026-04-14T09:05:12Z</time></trkpt><trkpt lat="43.98084419089571" lon="11.688176178771732"><ele>515.6666666666666</ele><time>2026-04-14T09:05:13Z</time></trkpt><trkpt lat="43.980879684091406" lon="11.6883117442593"><ele>513.0</ele><time>2026-04-14T09:05:14Z</time></trkpt><trkpt lat="43.9809119734363" lon="11.688415118692008"><ele>510.33333333333337</ele><time>2026-04-14T09:05:15Z</time></trkpt><trkpt lat="43.980954673483446" lon="11.688486724117995"><ele>507.6666666666667</ele><time>2026-04-14T09:05:16Z</time></trkpt><trkpt lat="43.98102074548822" lon="11.688515132118845"><ele>505.0</ele><time>2026-04-14T09:05:17Z</time></trkpt><trkpt lat="43.9810886710473" lon="11.68848403503079"><ele>503.83333333333337</ele><time>2026-04-14T09:05:18Z</time></trkpt><trkpt lat="43.9811510480622" lon="11.688414583760414"><ele>502.6666666666667</ele><time>2026-04-14T09:05:19Z</time></trkpt><trkpt lat="43.9812086496308" lon="11.688346831009005"><ele>501.5</ele><time>2026-04-14T09:05:20Z</time></trkpt><trkpt lat="43.98127309771054" lon="11.688284027337797"><ele>500.33333333333337</ele><time>2026-04-14T09:05:21Z</time></trkpt><trkpt lat="43.98134109241293" lon="11.68822406704647"><ele>499.1666666666667</ele><time>2026-04-14T09:05:22Z</time></trkpt><trkpt lat="43.98141335623262" lon="11.688172872679315"><ele>498.0</ele><time>2026-04-14T09:05:23Z</time></trkpt><trkpt lat="43.98147935839647" lon="11.688134656415603"><ele>498.0</ele><time>2026-04-14T09:05:24Z</time></trkpt><trkpt lat="43.981575283435824" lon="11.68810057064813"><ele>497.99999999999994</ele><time>2026-04-14T09:05:26Z</time></trkpt><trkpt lat="43.981605129364894" lon="11.68795443246157"><ele>497.99999999999994</ele><time>2026-04-14T09:05:28Z</time></trkpt><trkpt lat="43.98165105055158" lon="11.68781515738289"><ele>498.0</ele><time>2026-04-14T09:05:30Z</time></trkpt><trkpt lat="43.98169140165661" lon="11.68774012877883"><ele>498.0</ele><time>2026-04-14T09:05:31Z</time></trkpt><trkpt lat="43.981731995795634" lon="11.687651204211498"><ele>501.1666666666667</ele><time>2026-04-14T09:05:32Z</time></trkpt><trkpt lat="43.98177399793942" lon="11.687554267935527"><ele>504.33333333333337</ele><time>2026-04-14T09:05:33Z</time></trkpt><trkpt lat="43.98181508925571" lon="11.687451882309425"><ele>507.5</ele><time>2026-04-14T09:05:34Z</time></trkpt><trkpt lat="43.98185275111792" lon="11.687348148675387"><ele>510.6666666666667</ele><time>2026-04-14T09:05:35Z</time></trkpt><trkpt lat="43.98188375542001" lon="11.687246772774518"><ele>513.8333333333334</ele><time>2026-04-14T09:05:36Z</time></trkpt><trkpt lat="43.98190427114693" lon="11.687146688812357"><ele>517.0</ele><time>2026-04-14T09:05:37Z</time></trkpt><trkpt lat="43.98191845390511" lon="11.687051273489207"><ele>517.0</ele><time>2026-04-14T09:05:38Z</time></trkpt><trkpt lat="43.981938467029615" lon="11.686960957578362"><ele>517.0</ele><time>2026-04-14T09:05:39Z</time></trkpt><trkpt lat="43.98195860395292" lon="11.686866704938728"><ele>517.0</ele><time>2026-04-14T09:05:40Z</time></trkpt><trkpt lat="43.98197823766426" lon="11.686768415910246"><ele>517.0</ele><time>2026-04-14T09:05:41Z</time></trkpt><trkpt lat="43.98200101668388" lon="11.686666031799364"><ele>517.0</ele><time>2026-04-14T09:05:42Z</time></trkpt><trkpt lat="43.982018493605736" lon="11.6865554305151"><ele>517.0</ele><time>2026-04-14T09:05:43Z</time></trkpt><trkpt lat="43.98203718634183" lon="11.686438078430482"><ele>518.5</ele><time>2026-04-14T09:05:44Z</time></trkpt><trkpt lat="43.98205540003185" lon="11.68632004807663"><ele>520.0</ele><time>2026-04-14T09:05:45Z</time></trkpt><trkpt lat="43.98206916001621" lon="11.68620070044685"><ele>521.5</ele><time>2026-04-14T09:05:46Z</time></trkpt><trkpt lat="43.98208706350306" lon="11.686095759146346"><ele>523.0</ele><time>2026-04-14T09:05:47Z</time></trkpt><trkpt lat="43.982165929586785" lon="11.686002973791384"><ele>524.5</ele><time>2026-04-14T09:05:49Z</time></trkpt><trkpt lat="43.9822170400147" lon="11.686089096138172"><ele>526.0</ele><time>2026-04-14T09:05:51Z</time></trkpt><trkpt lat="43.982210933542845" lon="11.686191685241562"><ele>526.6</ele><time>2026-04-14T09:05:52Z</time></trkpt><trkpt lat="43.98220368653878" lon="11.68630165984818"><ele>527.2</ele><time>2026-04-14T09:05:53Z</time></trkpt><trkpt lat="43.98221065791354" lon="11.686423051657455"><ele>527.8</ele><time>2026-04-14T09:05:54Z</time></trkpt><trkpt lat="43.9822205496414" lon="11.686570263162622"><ele>528.4</ele><time>2026-04-14T09:05:55Z</time></trkpt><trkpt lat="43.98223280923603" lon="11.686714745113724"><ele>529.0</ele><time>2026-04-14T09:05:56Z</time></trkpt><trkpt lat="43.98225990925939" lon="11.686854871895317"><ele>526.6</ele><time>2026-04-14T09:05:57Z</time></trkpt><trkpt lat="43.98230619194055" lon="11.68698464197651"><ele>524.2</ele><time>2026-04-14T09:05:58Z</time></trkpt><trkpt lat="43.9823577343907" lon="11.68709380954069"><ele>521.8000000000001</ele><time>2026-04-14T09:05:59Z</time></trkpt><trkpt lat="43.98239857607869" lon="11.687201104976257"><ele>519.4</ele><time>2026-04-14T09:06:00Z</time></trkpt><trkpt lat="43.982430979474955" lon="11.687298832446741"><ele>517.0</ele><time>2026-04-14T09:06:01Z</time></trkpt><trkpt lat="43.98249216985087" lon="11.687422530597846"><ele>517.0</ele><time>2026-04-14T09:06:03Z</time></trkpt><trkpt lat="43.98258326579707" lon="11.687375846386603"><ele>517.0</ele><time>2026-04-14T09:06:05Z</time></trkpt><trkpt lat="43.98257963177256" lon="11.687264792873"><ele>517.0</ele><time>2026-04-14T09:06:06Z</time></trkpt><trkpt lat="43.98251591263198" lon="11.687171029508873"><ele>517.0</ele><time>2026-04-14T09:06:07Z</time></trkpt><trkpt lat="43.98247324679176" lon="11.687071801817277"><ele>517.0</ele><time>2026-04-14T09:06:08Z</time></trkpt><trkpt lat="43.982458472523156" lon="11.686939426562995"><ele>517.0</ele><time>2026-04-14T09:06:09Z</time></trkpt><trkpt lat="43.98244424094349" lon="11.686814120686412"><ele>519.0</ele><time>2026-04-14T09:06:10Z</time></trkpt><trkpt lat="43.98243231216461" lon="11.68669098761218"><ele>521.0</ele><time>2026-04-14T09:06:11Z</time></trkpt><trkpt lat="43.98249168139185" lon="11.686571607806899"><ele>523.0</ele><time>2026-04-14T09:06:12Z</time></trkpt><trkpt lat="43.982539308197936" lon="11.686452936176737"><ele>525.0</ele><time>2026-04-14T09:06:13Z</time></trkpt><trkpt lat="43.98257624799697" lon="11.686380273842511"><ele>527.0</ele><time>2026-04-14T09:06:14Z</time></trkpt><trkpt lat="43.9826416847033" lon="11.686371277732023"><ele>529.0</ele><time>2026-04-14T09:06:16Z</time></trkpt><trkpt lat="43.982635826891936" lon="11.68650658030943"><ele>530.8</ele><time>2026-04-14T09:06:18Z</time></trkpt><trkpt lat="43.98258942700104" lon="11.686605949557492"><ele>532.5999999999999</ele><time>2026-04-14T09:06:19Z</time></trkpt><trkpt lat="43.98257596935949" lon="11.686728479016615"><ele>534.4</ele><time>2026-04-14T09:06:20Z</time></trkpt><trkpt lat="43.98257494117732" lon="11.686867981534022"><ele>536.1999999999999</ele><time>2026-04-14T09:06:21Z</time></trkpt><trkpt lat="43.98259332529412" lon="11.687001440446048"><ele>538.0</ele><time>2026-04-14T09:06:22Z</time></trkpt><trkpt lat="43.98263137433206" lon="11.687110906183818"><ele>538.0</ele><time>2026-04-14T09:06:23Z</time></trkpt><trkpt lat="43.98267965816488" lon="11.687192956200626"><ele>538.0</ele><time>2026-04-14T09:06:24Z</time></trkpt><trkpt lat="43.98274999048622" lon="11.687249128579392"><ele>538.0</ele><time>2026-04-14T09:06:25Z</time></trkpt><trkpt lat="43.982832027671996" lon="11.687265311653169"><ele>538.0</ele><time>2026-04-14T09:06:26Z</time></trkpt><trkpt lat="43.982924063369474" lon="11.68724478154949"><ele>538.0</ele><time>2026-04-14T09:06:27Z</time></trkpt><trkpt lat="43.98301921435052" lon="11.687209663935834"><ele>538.0</ele><time>2026-04-14T09:06:28Z</time></trkpt><trkpt lat="43.98312398515248" lon="11.687218115275954"><ele>538.0</ele><time>2026-04-14T09:06:29Z</time></trkpt><trkpt lat="43.983216836112824" lon="11.687190815646131"><ele>538.0</ele><time>2026-04-14T09:06:30Z</time></trkpt><trkpt lat="43.98331276925324" lon="11.687213783674682"><ele>538.0</ele><time>2026-04-14T09:06:31Z</time></trkpt><trkpt lat="43.98341183137009" lon="11.687266085290657"><ele>538.0</ele><time>2026-04-14T09:06:32Z</time></trkpt><trkpt lat="43.98350713739658" lon="11.687341199809046"><ele>538.0</ele><time>2026-04-14T09:06:33Z</time></trkpt><trkpt lat="43.98360068178138" lon="11.687419833812749"><ele>544.75</ele><time>2026-04-14T09:06:34Z</time></trkpt><trkpt lat="43.98369465444651" lon="11.687511638991944"><ele>551.5</ele><time>2026-04-14T09:06:35Z</time></trkpt><trkpt lat="43.98379767225835" lon="11.687593085368592"><ele>558.25</ele><time>2026-04-14T09:06:36Z</time></trkpt><trkpt lat="43.98389968094815" lon="11.687659804476613"><ele>565.0</ele><time>2026-04-14T09:06:37Z</time></trkpt><trkpt lat="43.98399302119479" lon="11.68773281180544"><ele>565.0</ele><time>2026-04-14T09:06:38Z</time></trkpt><trkpt lat="43.98408837159558" lon="11.687755870938293"><ele>565.0</ele><time>2026-04-14T09:06:39Z</time></trkpt><trkpt lat="43.98416649115327" lon="11.687805302470842"><ele>565.0</ele><time>2026-04-14T09:06:40Z</time></trkpt><trkpt lat="43.98423342252149" lon="11.687828354604473"><ele>565.0</ele><time>2026-04-14T09:06:41Z</time></trkpt><trkpt lat="43.98431223221147" lon="11.687798435180667"><ele>565.0</ele><time>2026-04-14T09:06:43Z</time></trkpt><trkpt lat="43.98425096020241" lon="11.687629743428165"><ele>565.0</ele><time>2026-04-14T09:06:46Z</time></trkpt><trkpt lat="43.98415584611239" lon="11.6876350065134"><ele>565.0</ele><time>2026-04-14T09:06:47Z</time></trkpt><trkpt lat="43.98408878987693" lon="11.68759614999543"><ele>565.0</ele><time>2026-04-14T09:06:48Z</time></trkpt><trkpt lat="43.984022637400216" lon="11.687519983977571"><ele>565.0</ele><time>2026-04-14T09:06:49Z</time></trkpt><trkpt lat="43.983965272960916" lon="11.687413298298079"><ele>565.0</ele><time>2026-04-14T09:06:50Z</time></trkpt><trkpt lat="43.98389780707931" lon="11.687293401981739"><ele>565.0</ele><time>2026-04-14T09:06:51Z</time></trkpt><trkpt lat="43.983837413273704" lon="11.6871826238625"><ele>565.0</ele><time>2026-04-14T09:06:52Z</time></trkpt><trkpt lat="43.983790771180296" lon="11.687087543793263"><ele>565.0</ele><time>2026-04-14T09:06:53Z</time></trkpt><trkpt lat="43.98375732324527" lon="11.687001859686573"><ele>565.0</ele><time>2026-04-14T09:06:54Z</time></trkpt><trkpt lat="43.983773656886264" lon="11.686827688719802"><ele>565.0</ele><time>2026-04-14T09:06:56Z</time></trkpt><trkpt lat="43.98382511073159" lon="11.68674222472948"><ele>568.5</ele><time>2026-04-14T09:06:57Z</time></trkpt><trkpt lat="43.983875667209205" lon="11.686614221363058"><ele>572.0</ele><time>2026-04-14T09:06:58Z</time></trkpt><trkpt lat="43.98395016945848" lon="11.686487339122872"><ele>575.5</ele><time>2026-04-14T09:06:59Z</time></trkpt><trkpt lat="43.98402145294553" lon="11.686350267002204"><ele>579.0</ele><time>2026-04-14T09:07:00Z</time></trkpt><trkpt lat="43.98408562399748" lon="11.686228454488058"><ele>578.6</ele><time>2026-04-14T09:07:01Z</time></trkpt><trkpt lat="43.98410099119627" lon="11.686072831374133"><ele>578.2</ele><time>2026-04-14T09:07:02Z</time></trkpt><trkpt lat="43.984115841041216" lon="11.685923497582268"><ele>577.8000000000001</ele><time>2026-04-14T09:07:03Z</time></trkpt><trkpt lat="43.984145366772374" lon="11.685772670015115"><ele>577.4</ele><time>2026-04-14T09:07:04Z</time></trkpt><trkpt lat="43.98415683897427" lon="11.685614004339044"><ele>577.0</ele><time>2026-04-14T09:07:05Z</time></trkpt><trkpt lat="43.98416740244995" lon="11.685467906768917"><ele>577.0</ele><time>2026-04-14T09:07:06Z</time></trkpt><trkpt lat="43.98417655971602" lon="11.685348085311148"><ele>577.0</ele><time>2026-04-14T09:07:07Z</time></trkpt><trkpt lat="43.98416946501471" lon="11.685242710629822"><ele>577.0</ele><time>2026-04-14T09:07:08Z</time></trkpt><trkpt lat="43.98418805933504" lon="11.685063817230402"><ele>577.0</ele><time>2026-04-14T09:07:10Z</time></trkpt><trkpt lat="43.98420370018454" lon="11.684954781223457"><ele>577.0</ele><time>2026-04-14T09:07:11Z</time></trkpt><trkpt lat="43.98419130003995" lon="11.684841904188472"><ele>577.2</ele><time>2026-04-14T09:07:12Z</time></trkpt><trkpt lat="43.98415034466272" lon="11.684726861131333"><ele>577.4000000000001</ele><time>2026-04-14T09:07:13Z</time></trkpt><trkpt lat="43.984115209535645" lon="11.684608099673474"><ele>577.5999999999999</ele><time>2026-04-14T09:07:14Z</time></trkpt><trkpt lat="43.98405985668198" lon="11.684483700146647"><ele>577.8</ele><time>2026-04-14T09:07:15Z</time></trkpt><trkpt lat="43.983998987160454" lon="11.684369723055168"><ele>578.0</ele><time>2026-04-14T09:07:16Z</time></trkpt><trkpt lat="43.983940001360175" lon="11.684269898541212"><ele>580.1666666666666</ele><time>2026-04-14T09:07:17Z</time></trkpt><trkpt lat="43.98387149558864" lon="11.68418877642237"><ele>582.3333333333333</ele><time>2026-04-14T09:07:18Z</time></trkpt><trkpt lat="43.983815654608875" lon="11.684113851861735"><ele>584.5</ele><time>2026-04-14T09:07:19Z</time></trkpt><trkpt lat="43.983765454266205" lon="11.684033225414147"><ele>586.6666666666666</ele><time>2026-04-14T09:07:20Z</time></trkpt><trkpt lat="43.98374269224824" lon="11.683935529568052"><ele>588.8333333333334</ele><time>2026-04-14T09:07:21Z</time></trkpt><trkpt lat="43.983754025848775" lon="11.683809045421608"><ele>591.0</ele><time>2026-04-14T09:07:22Z</time></trkpt><trkpt lat="43.98377424921093" lon="11.683656948694571"><ele>593.4</ele><time>2026-04-14T09:07:23Z</time></trkpt><trkpt lat="43.983793381040186" lon="11.683483559249773"><ele>595.8</ele><time>2026-04-14T09:07:24Z</time></trkpt><trkpt lat="43.98378980973768" lon="11.68332962122552"><ele>598.1999999999999</ele><time>2026-04-14T09:07:25Z</time></trkpt><trkpt lat="43.98376599237892" lon="11.683190802782072"><ele>600.6</ele><time>2026-04-14T09:07:26Z</time></trkpt><trkpt lat="43.98372851747481" lon="11.683057529242095"><ele>603.0</ele><time>2026-04-14T09:07:27Z</time></trkpt><trkpt lat="43.98368380871178" lon="11.682932876854524"><ele>603.0</ele><time>2026-04-14T09:07:28Z</time></trkpt><trkpt lat="43.983652057832316" lon="11.6828179507082"><ele>603.0</ele><time>2026-04-14T09:07:29Z</time></trkpt><trkpt lat="43.983645604646874" lon="11.682714417645014"><ele>603.0</ele><time>2026-04-14T09:07:30Z</time></trkpt><trkpt lat="43.98367125843823" lon="11.682612645692103"><ele>603.0</ele><time>2026-04-14T09:07:31Z</time></trkpt><trkpt lat="43.98372220331465" lon="11.682512055164834"><ele>603.0</ele><time>2026-04-14T09:07:32Z</time></trkpt><trkpt lat="43.983772485856285" lon="11.682407832718098"><ele>603.0</ele><time>2026-04-14T09:07:33Z</time></trkpt><trkpt lat="43.98377736511553" lon="11.682287879179308"><ele>602.6</ele><time>2026-04-14T09:07:34Z</time></trkpt><trkpt lat="43.98375750118487" lon="11.68215534434212"><ele>602.1999999999999</ele><time>2026-04-14T09:07:35Z</time></trkpt><trkpt lat="43.98373767346934" lon="11.682010869274137"><ele>601.8</ele><time>2026-04-14T09:07:36Z</time></trkpt><trkpt lat="43.98372576734884" lon="11.681856328421254"><ele>601.4</ele><time>2026-04-14T09:07:37Z</time></trkpt><trkpt lat="43.9837158487885" lon="11.681698575176918"><ele>601.0</ele><time>2026-04-14T09:07:38Z</time></trkpt><trkpt lat="43.98371327322622" lon="11.681550069047988"><ele>601.8333333333334</ele><time>2026-04-14T09:07:39Z</time></trkpt><trkpt lat="43.983709178502046" lon="11.681419556428233"><ele>602.6666666666667</ele><time>2026-04-14T09:07:40Z</time></trkpt><trkpt lat="43.98371166150311" lon="11.681293890947403"><ele>603.5</ele><time>2026-04-14T09:07:41Z</time></trkpt><trkpt lat="43.98371331164706" lon="11.681184347497505"><ele>604.3333333333334</ele><time>2026-04-14T09:07:42Z</time></trkpt><trkpt lat="43.983722602511534" lon="11.681083250354183"><ele>605.1666666666666</ele><time>2026-04-14T09:07:43Z</time></trkpt><trkpt lat="43.98375094922401" lon="11.680979120068896"><ele>606.0</ele><time>2026-04-14T09:07:44Z</time></trkpt><trkpt lat="43.9837957460508" lon="11.680865830113195"><ele>606.0</ele><time>2026-04-14T09:07:45Z</time></trkpt><trkpt lat="43.983848545961735" lon="11.680743805608829"><ele>606.0</ele><time>2026-04-14T09:07:46Z</time></trkpt><trkpt lat="43.98390462901365" lon="11.680616457072004"><ele>606.0</ele><time>2026-04-14T09:07:47Z</time></trkpt><trkpt lat="43.98395916222472" lon="11.680493984476778"><ele>606.0</ele><time>2026-04-14T09:07:48Z</time></trkpt><trkpt lat="43.98400981323519" lon="11.680386990522086"><ele>606.0</ele><time>2026-04-14T09:07:49Z</time></trkpt><trkpt lat="43.984053399000786" lon="11.680276712597049"><ele>604.6666666666666</ele><time>2026-04-14T09:07:50Z</time></trkpt><trkpt lat="43.98407574748548" lon="11.680149556581384"><ele>603.3333333333334</ele><time>2026-04-14T09:07:51Z</time></trkpt><trkpt lat="43.98407377097796" lon="11.680013342836546"><ele>602.0</ele><time>2026-04-14T09:07:52Z</time></trkpt><trkpt lat="43.98406714421847" lon="11.679888328350167"><ele>600.6666666666667</ele><time>2026-04-14T09:07:53Z</time></trkpt><trkpt lat="43.984061148650056" lon="11.679774617323812"><ele>599.3333333333334</ele><time>2026-04-14T09:07:54Z</time></trkpt><trkpt lat="43.98406077057482" lon="11.679660161811208"><ele>598.0</ele><time>2026-04-14T09:07:55Z</time></trkpt><trkpt lat="43.98408778020011" lon="11.679548933978547"><ele>598.0</ele><time>2026-04-14T09:07:56Z</time></trkpt><trkpt lat="43.98413752318655" lon="11.67944484948744"><ele>598.0</ele><time>2026-04-14T09:07:57Z</time></trkpt><trkpt lat="43.98421434712735" lon="11.679351095373894"><ele>598.0</ele><time>2026-04-14T09:07:58Z</time></trkpt><trkpt lat="43.98430769560237" lon="11.679271837813952"><ele>598.0</ele><time>2026-04-14T09:07:59Z</time></trkpt><trkpt lat="43.98440616630412" lon="11.679194036697423"><ele>598.0</ele><time>2026-04-14T09:08:00Z</time></trkpt><trkpt lat="43.984499961251835" lon="11.6791210992332"><ele>599.1999999999999</ele><time>2026-04-14T09:08:01Z</time></trkpt><trkpt lat="43.98458779653841" lon="11.679045489539682"><ele>600.4</ele><time>2026-04-14T09:08:02Z</time></trkpt><trkpt lat="43.98466764514637" lon="11.678949414831456"><ele>601.5999999999999</ele><time>2026-04-14T09:08:03Z</time></trkpt><trkpt lat="43.984725883144876" lon="11.678827637947492"><ele>602.8</ele><time>2026-04-14T09:08:04Z</time></trkpt><trkpt lat="43.98476222289968" lon="11.678689908180074"><ele>604.0</ele><time>2026-04-14T09:08:05Z</time></trkpt><trkpt lat="43.98478211507528" lon="11.678555337366824"><ele>604.0</ele><time>2026-04-14T09:08:06Z</time></trkpt><trkpt lat="43.984804891092885" lon="11.678438536017334"><ele>604.0</ele><time>2026-04-14T09:08:07Z</time></trkpt><trkpt lat="43.984852095554665" lon="11.67833411647479"><ele>604.0</ele><time>2026-04-14T09:08:08Z</time></trkpt><trkpt lat="43.98492597204059" lon="11.678276018883473"><ele>604.0</ele><time>2026-04-14T09:08:09Z</time></trkpt><trkpt lat="43.985015341494794" lon="11.678259542789206"><ele>604.0</ele><time>2026-04-14T09:08:10Z</time></trkpt><trkpt lat="43.98509332495692" lon="11.678336641031061"><ele>604.0</ele><time>2026-04-14T09:08:11Z</time></trkpt><trkpt lat="43.98517368712377" lon="11.6783393734764"><ele>609.2857142857143</ele><time>2026-04-14T09:08:12Z</time></trkpt><trkpt lat="43.98524375756783" lon="11.678353547866546"><ele>614.5714285714286</ele><time>2026-04-14T09:08:13Z</time></trkpt><trkpt lat="43.985311279744955" lon="11.678317269877658"><ele>619.8571428571429</ele><time>2026-04-14T09:08:14Z</time></trkpt><trkpt lat="43.98535344536402" lon="11.678245935141497"><ele>625.1428571428571</ele><time>2026-04-14T09:08:15Z</time></trkpt><trkpt lat="43.98536342598601" lon="11.678148990594652"><ele>630.4285714285714</ele><time>2026-04-14T09:08:16Z</time></trkpt><trkpt lat="43.98533985903939" lon="11.678051838441112"><ele>635.7142857142858</ele><time>2026-04-14T09:08:17Z</time></trkpt><trkpt lat="43.98528408820621" lon="11.67796776065256"><ele>641.0</ele><time>2026-04-14T09:08:18Z</time></trkpt><trkpt lat="43.985209726012855" lon="11.677888769356201"><ele>641.0</ele><time>2026-04-14T09:08:19Z</time></trkpt><trkpt lat="43.9851275903008" lon="11.6777918906592"><ele>641.0</ele><time>2026-04-14T09:08:20Z</time></trkpt><trkpt lat="43.9850457496431" lon="11.677690434118121"><ele>641.0</ele><time>2026-04-14T09:08:21Z</time></trkpt><trkpt lat="43.984962006056385" lon="11.677595790567588"><ele>641.0</ele><time>2026-04-14T09:08:22Z</time></trkpt><trkpt lat="43.98488021019167" lon="11.677496472624778"><ele>641.0</ele><time>2026-04-14T09:08:23Z</time></trkpt><trkpt lat="43.98479991414989" lon="11.67740557372037"><ele>637.8</ele><time>2026-04-14T09:08:24Z</time></trkpt><trkpt lat="43.984739657329705" lon="11.677312427118142"><ele>634.5999999999999</ele><time>2026-04-14T09:08:25Z</time></trkpt><trkpt lat="43.98470350806097" lon="11.67719436693748"><ele>631.4</ele><time>2026-04-14T09:08:26Z</time></trkpt><trkpt lat="43.98468611527381" lon="11.677057037297812"><ele>628.2</ele><time>2026-04-14T09:08:27Z</time></trkpt><trkpt lat="43.98468384547314" lon="11.676911373167165"><ele>625.0</ele><time>2026-04-14T09:08:28Z</time></trkpt><trkpt lat="43.98469254319691" lon="11.676761008536657"><ele>625.0</ele><time>2026-04-14T09:08:29Z</time></trkpt><trkpt lat="43.98470519117947" lon="11.676619063434945"><ele>625.0</ele><time>2026-04-14T09:08:30Z</time></trkpt><trkpt lat="43.98472975118886" lon="11.6764799910814"><ele>625.0</ele><time>2026-04-14T09:08:31Z</time></trkpt><trkpt lat="43.98478343576182" lon="11.676345740235783"><ele>625.0</ele><time>2026-04-14T09:08:32Z</time></trkpt><trkpt lat="43.984853527696394" lon="11.676229940736128"><ele>625.0</ele><time>2026-04-14T09:08:33Z</time></trkpt><trkpt lat="43.98492181315361" lon="11.676103982741248"><ele>625.25</ele><time>2026-04-14T09:08:34Z</time></trkpt><trkpt lat="43.984968826550805" lon="11.675957363215636"><ele>625.5</ele><time>2026-04-14T09:08:35Z</time></trkpt><trkpt lat="43.98500013827154" lon="11.675796679120179"><ele>625.75</ele><time>2026-04-14T09:08:36Z</time></trkpt><trkpt lat="43.98502082363019" lon="11.675637245573613"><ele>626.0</ele><time>2026-04-14T09:08:37Z</time></trkpt><trkpt lat="43.98502565569862" lon="11.675493236577267"><ele>626.0</ele><time>2026-04-14T09:08:38Z</time></trkpt><trkpt lat="43.98500619791375" lon="11.675349352365648"><ele>626.0</ele><time>2026-04-14T09:08:39Z</time></trkpt><trkpt lat="43.98496138467264" lon="11.67520394716703"><ele>626.0</ele><time>2026-04-14T09:08:40Z</time></trkpt><trkpt lat="43.98490171081899" lon="11.675051127911043"><ele>626.0</ele><time>2026-04-14T09:08:41Z</time></trkpt><trkpt lat="43.98483985267469" lon="11.674891262269606"><ele>629.6</ele><time>2026-04-14T09:08:42Z</time></trkpt><trkpt lat="43.98477359257303" lon="11.674746429328508"><ele>633.2</ele><time>2026-04-14T09:08:43Z</time></trkpt><trkpt lat="43.98469745662265" lon="11.674623280343708"><ele>636.8000000000001</ele><time>2026-04-14T09:08:44Z</time></trkpt><trkpt lat="43.984619289069954" lon="11.674518977828615"><ele>640.4000000000001</ele><time>2026-04-14T09:08:45Z</time></trkpt><trkpt lat="43.98454184052712" lon="11.67444469797593"><ele>644.0</ele><time>2026-04-14T09:08:46Z</time></trkpt><trkpt lat="43.98447136943951" lon="11.674378085659978"><ele>646.1666666666666</ele><time>2026-04-14T09:08:47Z</time></trkpt><trkpt lat="43.98441652183358" lon="11.674298645408502"><ele>648.3333333333333</ele><time>2026-04-14T09:08:48Z</time></trkpt><trkpt lat="43.98438542064634" lon="11.674195096009793"><ele>650.5</ele><time>2026-04-14T09:08:49Z</time></trkpt><trkpt lat="43.98439463552482" lon="11.67408023649736"><ele>652.6666666666666</ele><time>2026-04-14T09:08:50Z</time></trkpt><trkpt lat="43.984432026670525" lon="11.673970427755826"><ele>654.8333333333334</ele><time>2026-04-14T09:08:51Z</time></trkpt><trkpt lat="43.984512775556176" lon="11.673885560276277"><ele>657.0</ele><time>2026-04-14T09:08:52Z</time></trkpt><trkpt lat="43.98457448231835" lon="11.673766982844999"><ele>657.0</ele><time>2026-04-14T09:08:53Z</time></trkpt><trkpt lat="43.9846347441986" lon="11.673647721732042"><ele>657.0</ele><time>2026-04-14T09:08:54Z</time></trkpt><trkpt lat="43.98466564971347" lon="11.673503296132756"><ele>657.0</ele><time>2026-04-14T09:08:55Z</time></trkpt><trkpt lat="43.9846705418142" lon="11.673360732991481"><ele>657.0</ele><time>2026-04-14T09:08:56Z</time></trkpt><trkpt lat="43.9846737719004" lon="11.673241110993414"><ele>657.0</ele><time>2026-04-14T09:08:57Z</time></trkpt><trkpt lat="43.98470178368646" lon="11.673140710510499"><ele>655.4000000000001</ele><time>2026-04-14T09:08:58Z</time></trkpt><trkpt lat="43.98472366865438" lon="11.673041280920234"><ele>653.8000000000001</ele><time>2026-04-14T09:08:59Z</time></trkpt><trkpt lat="43.98479341570055" lon="11.672969623498501"><ele>652.2</ele><time>2026-04-14T09:09:00Z</time></trkpt><trkpt lat="43.984884025777504" lon="11.672947537144974"><ele>650.6</ele><time>2026-04-14T09:09:01Z</time></trkpt><trkpt lat="43.9849757958879" lon="11.672890741549944"><ele>649.0</ele><time>2026-04-14T09:09:02Z</time></trkpt><trkpt lat="43.98507454586572" lon="11.67284330144569"><ele>650.2</ele><time>2026-04-14T09:09:03Z</time></trkpt><trkpt lat="43.9851645562263" lon="11.672760043704312"><ele>651.4000000000001</ele><time>2026-04-14T09:09:04Z</time></trkpt><trkpt lat="43.98525622735797" lon="11.672675552036223"><ele>652.6</ele><time>2026-04-14T09:09:05Z</time></trkpt><trkpt lat="43.985336098708316" lon="11.672575473823454"><ele>653.8</ele><time>2026-04-14T09:09:06Z</time></trkpt><trkpt lat="43.98540830439492" lon="11.672470809694063"><ele>655.0</ele><time>2026-04-14T09:09:07Z</time></trkpt><trkpt lat="43.985511547137435" lon="11.672427488607012"><ele>655.0</ele><time>2026-04-14T09:09:08Z</time></trkpt><trkpt lat="43.98561516866368" lon="11.6723964798604"><ele>655.0</ele><time>2026-04-14T09:09:09Z</time></trkpt><trkpt lat="43.98572667999343" lon="11.672363644849288"><ele>655.0</ele><time>2026-04-14T09:09:10Z</time></trkpt><trkpt lat="43.98584691390268" lon="11.67233037087746"><ele>655.0</ele><time>2026-04-14T09:09:11Z</time></trkpt><trkpt lat="43.9859706065163" lon="11.672272866980677"><ele>658.25</ele><time>2026-04-14T09:09:12Z</time></trkpt><trkpt lat="43.986101703284014" lon="11.672242747249246"><ele>661.5</ele><time>2026-04-14T09:09:13Z</time></trkpt><trkpt lat="43.986237654190994" lon="11.67220640306017"><ele>664.75</ele><time>2026-04-14T09:09:14Z</time></trkpt><trkpt lat="43.986374506732304" lon="11.672170912900445"><ele>668.0</ele><time>2026-04-14T09:09:15Z</time></trkpt><trkpt lat="43.98651390425924" lon="11.672130093906416"><ele>668.0</ele><time>2026-04-14T09:09:16Z</time></trkpt><trkpt lat="43.986648058905" lon="11.672089593438924"><ele>668.0</ele><time>2026-04-14T09:09:17Z</time></trkpt><trkpt lat="43.98678016891654" lon="11.672051854273848"><ele>668.0</ele><time>2026-04-14T09:09:18Z</time></trkpt><trkpt lat="43.98691150422888" lon="11.672016062043497"><ele>668.0</ele><time>2026-04-14T09:09:19Z</time></trkpt><trkpt lat="43.987041405950066" lon="11.671981658279341"><ele>666.75</ele><time>2026-04-14T09:09:20Z</time></trkpt><trkpt lat="43.98716993261618" lon="11.67194617943678"><ele>665.5</ele><time>2026-04-14T09:09:21Z</time></trkpt><trkpt lat="43.987301019487695" lon="11.67190864451213"><ele>664.25</ele><time>2026-04-14T09:09:22Z</time></trkpt><trkpt lat="43.987431836627515" lon="11.671874312926676"><ele>663.0</ele><time>2026-04-14T09:09:23Z</time></trkpt><trkpt lat="43.9875629591748" lon="11.671834736392386"><ele>665.75</ele><time>2026-04-14T09:09:24Z</time></trkpt><trkpt lat="43.98769666367992" lon="11.671795084163644"><ele>668.5</ele><time>2026-04-14T09:09:25Z</time></trkpt><trkpt lat="43.98783204214437" lon="11.671756119436617"><ele>671.25</ele><time>2026-04-14T09:09:26Z</time></trkpt><trkpt lat="43.987966986723784" lon="11.671716274577165"><ele>674.0</ele><time>2026-04-14T09:09:27Z</time></trkpt><trkpt lat="43.98810227983949" lon="11.671671773572795"><ele>674.0</ele><time>2026-04-14T09:09:28Z</time></trkpt><trkpt lat="43.988239083233594" lon="11.671625668168659"><ele>674.0</ele><time>2026-04-14T09:09:29Z</time></trkpt><trkpt lat="43.98837876714852" lon="11.671586237230132"><ele>674.0</ele><time>2026-04-14T09:09:30Z</time></trkpt><trkpt lat="43.98851709893251" lon="11.671540493202146"><ele>674.0</ele><time>2026-04-14T09:09:31Z</time></trkpt><trkpt lat="43.98865538001014" lon="11.671488510843687"><ele>678.25</ele><time>2026-04-14T09:09:32Z</time></trkpt><trkpt lat="43.98879187933696" lon="11.671429850580488"><ele>682.5</ele><time>2026-04-14T09:09:33Z</time></trkpt><trkpt lat="43.98892782219149" lon="11.67136166717494"><ele>686.75</ele><time>2026-04-14T09:09:34Z</time></trkpt><trkpt lat="43.98906458293977" lon="11.671296992131658"><ele>691.0</ele><time>2026-04-14T09:09:35Z</time></trkpt><trkpt lat="43.98920259881018" lon="11.671242886820766"><ele>689.75</ele><time>2026-04-14T09:09:36Z</time></trkpt><trkpt lat="43.98933359765042" lon="11.671186714269433"><ele>688.5</ele><time>2026-04-14T09:09:37Z</time></trkpt><trkpt lat="43.98944897538745" lon="11.671126168497208"><ele>687.25</ele><time>2026-04-14T09:09:38Z</time></trkpt><trkpt lat="43.9895512936689" lon="11.671059825131753"><ele>686.0</ele><time>2026-04-14T09:09:39Z</time></trkpt><trkpt lat="43.989649336485265" lon="11.671008862387021"><ele>686.0</ele><time>2026-04-14T09:09:40Z</time></trkpt><trkpt lat="43.989731059545036" lon="11.67098777325765"><ele>686.0</ele><time>2026-04-14T09:09:41Z</time></trkpt><trkpt lat="43.989831292431525" lon="11.671023039513884"><ele>686.0</ele><time>2026-04-14T09:09:42Z</time></trkpt><trkpt lat="43.98991340193929" lon="11.671084956565384"><ele>686.0</ele><time>2026-04-14T09:09:43Z</time></trkpt><trkpt lat="43.98997249005946" lon="11.671133802798908"><ele>686.0</ele><time>2026-04-14T09:09:44Z</time></trkpt><trkpt lat="43.99004401105544" lon="11.671150050750617"><ele>686.0</ele><time>2026-04-14T09:09:45Z</time></trkpt><trkpt lat="43.99011197431216" lon="11.671122979089112"><ele>693.4</ele><time>2026-04-14T09:09:46Z</time></trkpt><trkpt lat="43.99016531555706" lon="11.67105210671214"><ele>700.8</ele><time>2026-04-14T09:09:47Z</time></trkpt><trkpt lat="43.99019980946433" lon="11.670948097526148"><ele>708.1999999999999</ele><time>2026-04-14T09:09:48Z</time></trkpt><trkpt lat="43.99022043473854" lon="11.670819727007034"><ele>715.5999999999999</ele><time>2026-04-14T09:09:49Z</time></trkpt><trkpt lat="43.99023175345264" lon="11.670666824290386"><ele>723.0</ele><time>2026-04-14T09:09:50Z</time></trkpt><trkpt lat="43.99023614525641" lon="11.670520612810748"><ele>723.0</ele><time>2026-04-14T09:09:51Z</time></trkpt><trkpt lat="43.990234338479375" lon="11.67037791280505"><ele>723.0</ele><time>2026-04-14T09:09:52Z</time></trkpt><trkpt lat="43.990225603768174" lon="11.67023695055635"><ele>723.0</ele><time>2026-04-14T09:09:53Z</time></trkpt><trkpt lat="43.99020857182102" lon="11.670098690092471"><ele>723.0</ele><time>2026-04-14T09:09:54Z</time></trkpt><trkpt lat="43.99020326735105" lon="11.669962754712575"><ele>723.0</ele><time>2026-04-14T09:09:55Z</time></trkpt><trkpt lat="43.99017819242313" lon="11.669844566054744"><ele>721.1666666666666</ele><time>2026-04-14T09:09:56Z</time></trkpt><trkpt lat="43.99013740336868" lon="11.669748620019401"><ele>719.3333333333334</ele><time>2026-04-14T09:09:57Z</time></trkpt><trkpt lat="43.990138812297076" lon="11.669644279656701"><ele>717.5</ele><time>2026-04-14T09:09:58Z</time></trkpt><trkpt lat="43.99017738699192" lon="11.669552225844829"><ele>715.6666666666667</ele><time>2026-04-14T09:09:59Z</time></trkpt><trkpt lat="43.99024718340694" lon="11.669492932392465"><ele>713.8333333333334</ele><time>2026-04-14T09:10:00Z</time></trkpt><trkpt lat="43.99033276093041" lon="11.669441316045885"><ele>712.0</ele><time>2026-04-14T09:10:01Z</time></trkpt><trkpt lat="43.99042849915687" lon="11.669383528702783"><ele>708.5</ele><time>2026-04-14T09:10:02Z</time></trkpt><trkpt lat="43.99053024121215" lon="11.66931207304692"><ele>705.0</ele><time>2026-04-14T09:10:03Z</time></trkpt><trkpt lat="43.990626136536164" lon="11.669225560982232"><ele>701.5</ele><time>2026-04-14T09:10:04Z</time></trkpt><trkpt lat="43.99071287001343" lon="11.669113687216946"><ele>698.0</ele><time>2026-04-14T09:10:05Z</time></trkpt><trkpt lat="43.99078760543442" lon="11.668984701265698"><ele>699.4</ele><time>2026-04-14T09:10:06Z</time></trkpt><trkpt lat="43.99085391504337" lon="11.668858072928225"><ele>700.8</ele><time>2026-04-14T09:10:07Z</time></trkpt><trkpt lat="43.99092416917476" lon="11.668752887438016"><ele>702.2</ele><time>2026-04-14T09:10:08Z</time></trkpt><trkpt lat="43.991028661900756" lon="11.668707701465317"><ele>703.6</ele><time>2026-04-14T09:10:09Z</time></trkpt><trkpt lat="43.99113404661873" lon="11.668626293008888"><ele>705.0</ele><time>2026-04-14T09:10:10Z</time></trkpt><trkpt lat="43.991253228303975" lon="11.668574128488553"><ele>705.0</ele><time>2026-04-14T09:10:11Z</time></trkpt><trkpt lat="43.99136013517791" lon="11.668519306836496"><ele>705.0</ele><time>2026-04-14T09:10:12Z</time></trkpt><trkpt lat="43.991452020862305" lon="11.668460034862232"><ele>705.0</ele><time>2026-04-14T09:10:13Z</time></trkpt><trkpt lat="43.991523525897136" lon="11.668368376922643"><ele>705.0</ele><time>2026-04-14T09:10:14Z</time></trkpt><trkpt lat="43.99158107020878" lon="11.668246028657581"><ele>705.0</ele><time>2026-04-14T09:10:15Z</time></trkpt><trkpt lat="43.99161974290818" lon="11.668118352101633"><ele>705.0</ele><time>2026-04-14T09:10:16Z</time></trkpt><trkpt lat="43.991658072761446" lon="11.66799972064818"><ele>705.0</ele><time>2026-04-14T09:10:17Z</time></trkpt><trkpt lat="43.99171694660328" lon="11.66789958605815"><ele>705.0</ele><time>2026-04-14T09:10:18Z</time></trkpt><trkpt lat="43.99180003973774" lon="11.667823016357914"><ele>705.0</ele><time>2026-04-14T09:10:19Z</time></trkpt><trkpt lat="43.99190688884516" lon="11.667774037505222"><ele>705.0</ele><time>2026-04-14T09:10:20Z</time></trkpt><trkpt lat="43.99202527787183" lon="11.667762453012633"><ele>704.75</ele><time>2026-04-14T09:10:21Z</time></trkpt><trkpt lat="43.992150803082495" lon="11.66771488340133"><ele>704.5</ele><time>2026-04-14T09:10:22Z</time></trkpt><trkpt lat="43.99229062002923" lon="11.66769299958186"><ele>704.25</ele><time>2026-04-14T09:10:23Z</time></trkpt><trkpt lat="43.99242265573622" lon="11.667670404567202"><ele>704.0</ele><time>2026-04-14T09:10:24Z</time></trkpt><trkpt lat="43.99254970154476" lon="11.667644143546546"><ele>707.5</ele><time>2026-04-14T09:10:25Z</time></trkpt><trkpt lat="43.99267177272661" lon="11.66762102481656"><ele>711.0</ele><time>2026-04-14T09:10:26Z</time></trkpt><trkpt lat="43.99279308113367" lon="11.66759582336758"><ele>714.5</ele><time>2026-04-14T09:10:27Z</time></trkpt><trkpt lat="43.99291392526302" lon="11.667562790362897"><ele>718.0</ele><time>2026-04-14T09:10:28Z</time></trkpt><trkpt lat="43.99303566140255" lon="11.667529223180338"><ele>718.0</ele><time>2026-04-14T09:10:29Z</time></trkpt><trkpt lat="43.99315667126615" lon="11.6674899569679"><ele>718.0</ele><time>2026-04-14T09:10:30Z</time></trkpt><trkpt lat="43.99327988248716" lon="11.667457736393297"><ele>718.0</ele><time>2026-04-14T09:10:31Z</time></trkpt><trkpt lat="43.99340470355307" lon="11.66742804028047"><ele>718.0</ele><time>2026-04-14T09:10:32Z</time></trkpt><trkpt lat="43.99353056372545" lon="11.667399046122824"><ele>720.25</ele><time>2026-04-14T09:10:33Z</time></trkpt><trkpt lat="43.99365738454554" lon="11.667377517660915"><ele>722.5</ele><time>2026-04-14T09:10:34Z</time></trkpt><trkpt lat="43.99378399737956" lon="11.667366716054659"><ele>724.75</ele><time>2026-04-14T09:10:35Z</time></trkpt><trkpt lat="43.9939107142251" lon="11.667363886604695"><ele>727.0</ele><time>2026-04-14T09:10:36Z</time></trkpt><trkpt lat="43.99404041290828" lon="11.66737745156469"><ele>727.0</ele><time>2026-04-14T09:10:37Z</time></trkpt><trkpt lat="43.99416744804976" lon="11.667407278455146"><ele>727.0</ele><time>2026-04-14T09:10:38Z</time></trkpt><trkpt lat="43.99429061320985" lon="11.667446277302036"><ele>727.0</ele><time>2026-04-14T09:10:39Z</time></trkpt><trkpt lat="43.99439320358007" lon="11.667509854320242"><ele>727.0</ele><time>2026-04-14T09:10:40Z</time></trkpt><trkpt lat="43.994495954507066" lon="11.667572445770816"><ele>727.3333333333334</ele><time>2026-04-14T09:10:41Z</time></trkpt><trkpt lat="43.994600458352274" lon="11.667606212583085"><ele>727.6666666666667</ele><time>2026-04-14T09:10:42Z</time></trkpt><trkpt lat="43.99469147668667" lon="11.66760789680134"><ele>728.0</ele><time>2026-04-14T09:10:43Z</time></trkpt><trkpt lat="43.99477315785231" lon="11.667594935872946"><ele>728.3333333333334</ele><time>2026-04-14T09:10:44Z</time></trkpt><trkpt lat="43.99485209018233" lon="11.66759319428063"><ele>728.6666666666666</ele><time>2026-04-14T09:10:45Z</time></trkpt><trkpt lat="43.99491778719997" lon="11.667567983417802"><ele>729.0</ele><time>2026-04-14T09:10:46Z</time></trkpt><trkpt lat="43.995006240377855" lon="11.667447051849901"><ele>729.25</ele><time>2026-04-14T09:10:47Z</time></trkpt><trkpt lat="43.9951414764034" lon="11.667429670923203"><ele>729.5</ele><time>2026-04-14T09:10:48Z</time></trkpt><trkpt lat="43.995283898429356" lon="11.667477624499229"><ele>729.75</ele><time>2026-04-14T09:10:49Z</time></trkpt><trkpt lat="43.99539145447566" lon="11.667540621246893"><ele>730.0</ele><time>2026-04-14T09:10:50Z</time></trkpt><trkpt lat="43.99548427096876" lon="11.667595967083862"><ele>730.0</ele><time>2026-04-14T09:10:51Z</time></trkpt><trkpt lat="43.99557717351019" lon="11.667647046748531"><ele>730.0</ele><time>2026-04-14T09:10:52Z</time></trkpt><trkpt lat="43.99566404099987" lon="11.667694808542565"><ele>730.0</ele><time>2026-04-14T09:10:53Z</time></trkpt><trkpt lat="43.99574017974273" lon="11.667713631589818"><ele>730.0</ele><time>2026-04-14T09:10:54Z</time></trkpt><trkpt lat="43.99585102784361" lon="11.667698060638894"><ele>730.0</ele><time>2026-04-14T09:10:55Z</time></trkpt><trkpt lat="43.995953100942515" lon="11.667808644773775"><ele>731.0</ele><time>2026-04-14T09:10:56Z</time></trkpt><trkpt lat="43.99605453343204" lon="11.667827128212398"><ele>732.0</ele><time>2026-04-14T09:10:57Z</time></trkpt><trkpt lat="43.996163408642" lon="11.667812597317605"><ele>733.0</ele><time>2026-04-14T09:10:58Z</time></trkpt><trkpt lat="43.99627069445141" lon="11.667770739765775"><ele>734.0</ele><time>2026-04-14T09:10:59Z</time></trkpt><trkpt lat="43.99636639810245" lon="11.667725763246084"><ele>735.0</ele><time>2026-04-14T09:11:00Z</time></trkpt><trkpt lat="43.996468468468585" lon="11.667701144949106"><ele>735.0</ele><time>2026-04-14T09:11:01Z</time></trkpt><trkpt lat="43.99657848623646" lon="11.667706172608487"><ele>735.0</ele><time>2026-04-14T09:11:02Z</time></trkpt><trkpt lat="43.99669025512448" lon="11.667730920500434"><ele>735.0</ele><time>2026-04-14T09:11:03Z</time></trkpt><trkpt lat="43.99679769118301" lon="11.66776503167144"><ele>735.0</ele><time>2026-04-14T09:11:04Z</time></trkpt><trkpt lat="43.9968956239792" lon="11.667781595226348"><ele>735.0</ele><time>2026-04-14T09:11:05Z</time></trkpt><trkpt lat="43.996997291769866" lon="11.667758883614756"><ele>737.0</ele><time>2026-04-14T09:11:06Z</time></trkpt><trkpt lat="43.99709351605797" lon="11.667685830710411"><ele>739.0</ele><time>2026-04-14T09:11:07Z</time></trkpt><trkpt lat="43.997188855076125" lon="11.667600069349259"><ele>741.0</ele><time>2026-04-14T09:11:08Z</time></trkpt><trkpt lat="43.997286489424965" lon="11.667519993291409"><ele>743.0</ele><time>2026-04-14T09:11:09Z</time></trkpt><trkpt lat="43.99738214608368" lon="11.667461902528371"><ele>745.0</ele><time>2026-04-14T09:11:10Z</time></trkpt><trkpt lat="43.99748854987892" lon="11.667421783761807"><ele>747.25</ele><time>2026-04-14T09:11:11Z</time></trkpt><trkpt lat="43.997599996013335" lon="11.6674132228879"><ele>749.5</ele><time>2026-04-14T09:11:12Z</time></trkpt><trkpt lat="43.99771243287465" lon="11.667401705039687"><ele>751.75</ele><time>2026-04-14T09:11:13Z</time></trkpt><trkpt lat="43.99782735239712" lon="11.667368500602027"><ele>754.0</ele><time>2026-04-14T09:11:14Z</time></trkpt><trkpt lat="43.997941801276255" lon="11.667321620941522"><ele>754.0</ele><time>2026-04-14T09:11:15Z</time></trkpt><trkpt lat="43.998060257173606" lon="11.667285180116847"><ele>754.0</ele><time>2026-04-14T09:11:16Z</time></trkpt><trkpt lat="43.99818182878755" lon="11.667273064641504"><ele>754.0</ele><time>2026-04-14T09:11:17Z</time></trkpt><trkpt lat="43.99830504820008" lon="11.667264868591221"><ele>754.0</ele><time>2026-04-14T09:11:18Z</time></trkpt><trkpt lat="43.99842765139266" lon="11.667243546281266"><ele>753.5</ele><time>2026-04-14T09:11:19Z</time></trkpt><trkpt lat="43.998548817326586" lon="11.667222540767726"><ele>753.0</ele><time>2026-04-14T09:11:20Z</time></trkpt><trkpt lat="43.998668545613505" lon="11.667210100380657"><ele>752.5</ele><time>2026-04-14T09:11:21Z</time></trkpt><trkpt lat="43.99878905263189" lon="11.667217677831863"><ele>752.0</ele><time>2026-04-14T09:11:22Z</time></trkpt><trkpt lat="43.99891741350146" lon="11.667243119067704"><ele>752.0</ele><time>2026-04-14T09:11:23Z</time></trkpt><trkpt lat="43.99903255529138" lon="11.667271241386633"><ele>752.0</ele><time>2026-04-14T09:11:24Z</time></trkpt><trkpt lat="43.999136797595675" lon="11.667301940315886"><ele>752.0</ele><time>2026-04-14T09:11:25Z</time></trkpt><trkpt lat="43.99923074395816" lon="11.667337014960413"><ele>752.0</ele><time>2026-04-14T09:11:26Z</time></trkpt><trkpt lat="43.99931644213788" lon="11.667400804432047"><ele>752.0</ele><time>2026-04-14T09:11:27Z</time></trkpt><trkpt lat="43.99937062989104" lon="11.667532854899925"><ele>753.75</ele><time>2026-04-14T09:11:28Z</time></trkpt><trkpt lat="43.9994525529966" lon="11.667646807063035"><ele>755.5</ele><time>2026-04-14T09:11:29Z</time></trkpt><trkpt lat="43.99956725864553" lon="11.667721534837655"><ele>757.25</ele><time>2026-04-14T09:11:30Z</time></trkpt><trkpt lat="43.99968193645979" lon="11.667788422824094"><ele>759.0</ele><time>2026-04-14T09:11:31Z</time></trkpt><trkpt lat="43.99977314622969" lon="11.66789640237378"><ele>759.0</ele><time>2026-04-14T09:11:32Z</time></trkpt><trkpt lat="43.999859851119645" lon="11.66799783583049"><ele>759.0</ele><time>2026-04-14T09:11:33Z</time></trkpt><trkpt lat="43.999953682211114" lon="11.668059711833447"><ele>759.0</ele><time>2026-04-14T09:11:34Z</time></trkpt><trkpt lat="44.000026751746006" lon="11.66815337210071"><ele>759.0</ele><time>2026-04-14T09:11:35Z</time></trkpt><trkpt lat="44.0001084702583" lon="11.668215043874865"><ele>759.0</ele><time>2026-04-14T09:11:36Z</time></trkpt><trkpt lat="44.00014610829561" lon="11.66832280124996"><ele>759.0</ele><time>2026-04-14T09:11:37Z</time></trkpt><trkpt lat="44.00012754002922" lon="11.668451858005872"><ele>759.0</ele><time>2026-04-14T09:11:38Z</time></trkpt><trkpt lat="44.00014070385784" lon="11.668599214788399"><ele>759.0</ele><time>2026-04-14T09:11:39Z</time></trkpt><trkpt lat="44.00014234440984" lon="11.66875530504351"><ele>759.0</ele><time>2026-04-14T09:11:40Z</time></trkpt><trkpt lat="44.00014571967009" lon="11.66892804409217"><ele>759.0</ele><time>2026-04-14T09:11:41Z</time></trkpt><trkpt lat="44.00015047637452" lon="11.669103736076337"><ele>761.2</ele><time>2026-04-14T09:11:42Z</time></trkpt><trkpt lat="44.00013104327695" lon="11.669269539010127"><ele>763.4000000000001</ele><time>2026-04-14T09:11:43Z</time></trkpt><trkpt lat="44.000141766131925" lon="11.669422129669101"><ele>765.6</ele><time>2026-04-14T09:11:44Z</time></trkpt><trkpt lat="44.00013328817735" lon="11.669571215632093"><ele>767.8</ele><time>2026-04-14T09:11:45Z</time></trkpt><trkpt lat="44.00013161610503" lon="11.669715180157597"><ele>770.0</ele><time>2026-04-14T09:11:46Z</time></trkpt><trkpt lat="44.00012781671413" lon="11.66985232676978"><ele>771.1666666666667</ele><time>2026-04-14T09:11:47Z</time></trkpt><trkpt lat="44.00011507393158" lon="11.669973629903616"><ele>772.3333333333334</ele><time>2026-04-14T09:11:48Z</time></trkpt><trkpt lat="44.000105735375655" lon="11.670087217829321"><ele>773.5</ele><time>2026-04-14T09:11:49Z</time></trkpt><trkpt lat="44.00011634251966" lon="11.670194386548474"><ele>774.6666666666667</ele><time>2026-04-14T09:11:50Z</time></trkpt><trkpt lat="44.00013199587167" lon="11.67029521969668"><ele>775.8333333333334</ele><time>2026-04-14T09:11:51Z</time></trkpt><trkpt lat="44.00022065131143" lon="11.67032160606053"><ele>777.0</ele><time>2026-04-14T09:11:52Z</time></trkpt><trkpt lat="44.00028504773363" lon="11.670307258703216"><ele>777.0</ele><time>2026-04-14T09:11:53Z</time></trkpt><trkpt lat="44.00034467232549" lon="11.67023382929842"><ele>777.0</ele><time>2026-04-14T09:11:54Z</time></trkpt><trkpt lat="44.00040308871671" lon="11.670142905715581"><ele>777.0</ele><time>2026-04-14T09:11:55Z</time></trkpt><trkpt lat="44.0004862423861" lon="11.670063237561846"><ele>777.0</ele><time>2026-04-14T09:11:56Z</time></trkpt><trkpt lat="44.00057344034078" lon="11.669975763729342"><ele>777.0</ele><time>2026-04-14T09:11:57Z</time></trkpt><trkpt lat="44.000654189891456" lon="11.669869332447545"><ele>777.0</ele><time>2026-04-14T09:11:58Z</time></trkpt><trkpt lat="44.000742551638886" lon="11.669793653035551"><ele>777.0</ele><time>2026-04-14T09:11:59Z</time></trkpt><trkpt lat="44.00081575615083" lon="11.669713117967817"><ele>777.0</ele><time>2026-04-14T09:12:00Z</time></trkpt><trkpt lat="44.000884204357945" lon="11.669615252938248"><ele>777.0</ele><time>2026-04-14T09:12:01Z</time></trkpt><trkpt lat="44.000964151971765" lon="11.669517298049334"><ele>777.0</ele><time>2026-04-14T09:12:02Z</time></trkpt><trkpt lat="44.00100069965867" lon="11.669376463569566"><ele>771.0</ele><time>2026-04-14T09:12:03Z</time></trkpt><trkpt lat="44.00103162164235" lon="11.6692439952207"><ele>765.0</ele><time>2026-04-14T09:12:04Z</time></trkpt><trkpt lat="44.00105517855756" lon="11.66911002984586"><ele>759.0</ele><time>2026-04-14T09:12:05Z</time></trkpt><trkpt lat="44.0010797987679" lon="11.668981235180539"><ele>753.0</ele><time>2026-04-14T09:12:06Z</time></trkpt><trkpt lat="44.001089353182216" lon="11.668851779591682"><ele>747.0</ele><time>2026-04-14T09:12:07Z</time></trkpt><trkpt lat="44.00111150305921" lon="11.668729957301448"><ele>747.0</ele><time>2026-04-14T09:12:08Z</time></trkpt><trkpt lat="44.00115654042363" lon="11.668612383771583"><ele>747.0</ele><time>2026-04-14T09:12:09Z</time></trkpt><trkpt lat="44.001225931069676" lon="11.668508955105168"><ele>747.0</ele><time>2026-04-14T09:12:10Z</time></trkpt><trkpt lat="44.001294707099504" lon="11.66841593981707"><ele>747.0</ele><time>2026-04-14T09:12:11Z</time></trkpt><trkpt lat="44.0013630198355" lon="11.66833030492917"><ele>747.0</ele><time>2026-04-14T09:12:12Z</time></trkpt><trkpt lat="44.00142989026706" lon="11.668250931936226"><ele>745.2</ele><time>2026-04-14T09:12:13Z</time></trkpt><trkpt lat="44.001491440641495" lon="11.668154375046273"><ele>743.4000000000001</ele><time>2026-04-14T09:12:14Z</time></trkpt><trkpt lat="44.001538373634304" lon="11.668031164781095"><ele>741.5999999999999</ele><time>2026-04-14T09:12:15Z</time></trkpt><trkpt lat="44.00156657710451" lon="11.667901318609667"><ele>739.8</ele><time>2026-04-14T09:12:16Z</time></trkpt><trkpt lat="44.00157317355097" lon="11.667771652975665"><ele>738.0</ele><time>2026-04-14T09:12:17Z</time></trkpt><trkpt lat="44.00156180978505" lon="11.667634029649054"><ele>736.8</ele><time>2026-04-14T09:12:18Z</time></trkpt><trkpt lat="44.00153010727528" lon="11.6675012414411"><ele>735.5999999999999</ele><time>2026-04-14T09:12:19Z</time></trkpt><trkpt lat="44.0014783477665" lon="11.667388702660359"><ele>734.4000000000001</ele><time>2026-04-14T09:12:20Z</time></trkpt><trkpt lat="44.00141728613389" lon="11.667288323091997"><ele>733.2</ele><time>2026-04-14T09:12:21Z</time></trkpt><trkpt lat="44.00135687239159" lon="11.66719832160441"><ele>732.0</ele><time>2026-04-14T09:12:22Z</time></trkpt><trkpt lat="44.001309067480236" lon="11.667101150436322"><ele>732.0</ele><time>2026-04-14T09:12:23Z</time></trkpt><trkpt lat="44.00128755060222" lon="11.66700050321789"><ele>732.0</ele><time>2026-04-14T09:12:24Z</time></trkpt><trkpt lat="44.001308129217854" lon="11.666901995481227"><ele>732.0</ele><time>2026-04-14T09:12:25Z</time></trkpt><trkpt lat="44.001363472567036" lon="11.666822368901482"><ele>732.0</ele><time>2026-04-14T09:12:26Z</time></trkpt><trkpt lat="44.00144584566555" lon="11.666749802248042"><ele>732.0</ele><time>2026-04-14T09:12:27Z</time></trkpt><trkpt lat="44.00153166164808" lon="11.666661005802801"><ele>732.0</ele><time>2026-04-14T09:12:28Z</time></trkpt><trkpt lat="44.001612998048955" lon="11.666547467322909"><ele>733.2</ele><time>2026-04-14T09:12:29Z</time></trkpt><trkpt lat="44.00168035932401" lon="11.666420109196231"><ele>734.4000000000001</ele><time>2026-04-14T09:12:30Z</time></trkpt><trkpt lat="44.00173799369665" lon="11.666286116431781"><ele>735.5999999999999</ele><time>2026-04-14T09:12:31Z</time></trkpt><trkpt lat="44.001781660464715" lon="11.66614190442112"><ele>736.8</ele><time>2026-04-14T09:12:32Z</time></trkpt><trkpt lat="44.00181412177058" lon="11.665997980509088"><ele>738.0</ele><time>2026-04-14T09:12:33Z</time></trkpt><trkpt lat="44.001837598732415" lon="11.665857631166775"><ele>738.0</ele><time>2026-04-14T09:12:34Z</time></trkpt><trkpt lat="44.00185892374841" lon="11.665721724258598"><ele>738.0</ele><time>2026-04-14T09:12:35Z</time></trkpt><trkpt lat="44.0018920296949" lon="11.665612515487966"><ele>738.0</ele><time>2026-04-14T09:12:36Z</time></trkpt><trkpt lat="44.00194845654843" lon="11.665528584349614"><ele>738.0</ele><time>2026-04-14T09:12:37Z</time></trkpt><trkpt lat="44.00203330820948" lon="11.665473210339005"><ele>738.0</ele><time>2026-04-14T09:12:38Z</time></trkpt><trkpt lat="44.0021269430312" lon="11.665504175042932"><ele>738.0</ele><time>2026-04-14T09:12:39Z</time></trkpt><trkpt lat="44.002219629567364" lon="11.665498303695323"><ele>738.0</ele><time>2026-04-14T09:12:40Z</time></trkpt><trkpt lat="44.00231314390464" lon="11.665449491292517"><ele>738.0</ele><time>2026-04-14T09:12:41Z</time></trkpt><trkpt lat="44.002405524169454" lon="11.665427853126168"><ele>738.0</ele><time>2026-04-14T09:12:42Z</time></trkpt><trkpt lat="44.002503067833274" lon="11.665438342884974"><ele>738.0</ele><time>2026-04-14T09:12:43Z</time></trkpt><trkpt lat="44.00258608063327" lon="11.665507583270966"><ele>741.4</ele><time>2026-04-14T09:12:44Z</time></trkpt><trkpt lat="44.002676507246" lon="11.665558398948903"><ele>744.8</ele><time>2026-04-14T09:12:45Z</time></trkpt><trkpt lat="44.00276777618498" lon="11.665631329488113"><ele>748.2</ele><time>2026-04-14T09:12:46Z</time></trkpt><trkpt lat="44.00287271589085" lon="11.665681652796748"><ele>751.6</ele><time>2026-04-14T09:12:47Z</time></trkpt><trkpt lat="44.00298490818733" lon="11.665713209535719"><ele>755.0</ele><time>2026-04-14T09:12:48Z</time></trkpt><trkpt lat="44.003094960213595" lon="11.665743504132195"><ele>755.0</ele><time>2026-04-14T09:12:49Z</time></trkpt><trkpt lat="44.003200920470775" lon="11.665779347581617"><ele>755.0</ele><time>2026-04-14T09:12:50Z</time></trkpt><trkpt lat="44.00330500594017" lon="11.665821146497192"><ele>755.0</ele><time>2026-04-14T09:12:51Z</time></trkpt><trkpt lat="44.003412084123404" lon="11.665848343312161"><ele>755.0</ele><time>2026-04-14T09:12:52Z</time></trkpt><trkpt lat="44.003528156684396" lon="11.665848838945774"><ele>755.0</ele><time>2026-04-14T09:12:53Z</time></trkpt><trkpt lat="44.00364808810219" lon="11.665838023115384"><ele>754.25</ele><time>2026-04-14T09:12:54Z</time></trkpt><trkpt lat="44.00377125189101" lon="11.665815800083463"><ele>753.5</ele><time>2026-04-14T09:12:55Z</time></trkpt><trkpt lat="44.00389595907983" lon="11.66578513048398"><ele>752.75</ele><time>2026-04-14T09:12:56Z</time></trkpt><trkpt lat="44.00401674279681" lon="11.665743453593286"><ele>752.0</ele><time>2026-04-14T09:12:57Z</time></trkpt><trkpt lat="44.00413361460571" lon="11.66569226206461"><ele>753.0</ele><time>2026-04-14T09:12:58Z</time></trkpt><trkpt lat="44.004241116583934" lon="11.665634611005071"><ele>754.0</ele><time>2026-04-14T09:12:59Z</time></trkpt><trkpt lat="44.00434542684257" lon="11.665576004747482"><ele>755.0</ele><time>2026-04-14T09:13:00Z</time></trkpt><trkpt lat="44.00444068451004" lon="11.665536478044583"><ele>756.0</ele><time>2026-04-14T09:13:01Z</time></trkpt><trkpt lat="44.00453461247141" lon="11.66552258546595"><ele>757.0</ele><time>2026-04-14T09:13:02Z</time></trkpt><trkpt lat="44.00463182549117" lon="11.665543611720091"><ele>757.0</ele><time>2026-04-14T09:13:03Z</time></trkpt><trkpt lat="44.00472305632384" lon="11.66559774374202"><ele>757.0</ele><time>2026-04-14T09:13:04Z</time></trkpt><trkpt lat="44.00481176754063" lon="11.665641831551234"><ele>757.0</ele><time>2026-04-14T09:13:05Z</time></trkpt><trkpt lat="44.00490268197886" lon="11.6656400941741"><ele>757.0</ele><time>2026-04-14T09:13:06Z</time></trkpt><trkpt lat="44.004992872361925" lon="11.66560145926928"><ele>757.0</ele><time>2026-04-14T09:13:07Z</time></trkpt><trkpt lat="44.00508290957269" lon="11.665573476120368"><ele>756.8</ele><time>2026-04-14T09:13:08Z</time></trkpt><trkpt lat="44.00517116615933" lon="11.66558482117856"><ele>756.6</ele><time>2026-04-14T09:13:09Z</time></trkpt><trkpt lat="44.005266016538876" lon="11.665626205822193"><ele>756.4</ele><time>2026-04-14T09:13:10Z</time></trkpt><trkpt lat="44.00536297121773" lon="11.665686789020683"><ele>756.1999999999999</ele><time>2026-04-14T09:13:11Z</time></trkpt><trkpt lat="44.005459050065184" lon="11.665757608882487"><ele>756.0</ele><time>2026-04-14T09:13:12Z</time></trkpt><trkpt lat="44.00554657693931" lon="11.665833701099404"><ele>756.0</ele><time>2026-04-14T09:13:13Z</time></trkpt><trkpt lat="44.00561666529301" lon="11.665928007796074"><ele>756.0</ele><time>2026-04-14T09:13:14Z</time></trkpt><trkpt lat="44.00567625741128" lon="11.666051438559577"><ele>756.0</ele><time>2026-04-14T09:13:15Z</time></trkpt><trkpt lat="44.00574915129037" lon="11.666167343971907"><ele>756.0</ele><time>2026-04-14T09:13:16Z</time></trkpt><trkpt lat="44.005828180718105" lon="11.666265700004226"><ele>756.0</ele><time>2026-04-14T09:13:17Z</time></trkpt><trkpt lat="44.00591389000658" lon="11.666338887482217"><ele>758.1999999999999</ele><time>2026-04-14T09:13:18Z</time></trkpt><trkpt lat="44.005985931764215" lon="11.66642144562015"><ele>760.4</ele><time>2026-04-14T09:13:19Z</time></trkpt><trkpt lat="44.0060413358688" lon="11.66651483543196"><ele>762.6</ele><time>2026-04-14T09:13:20Z</time></trkpt><trkpt lat="44.006071816304946" lon="11.666630568524486"><ele>764.8</ele><time>2026-04-14T09:13:21Z</time></trkpt><trkpt lat="44.006090363989856" lon="11.666770631819727"><ele>767.0</ele><time>2026-04-14T09:13:22Z</time></trkpt><trkpt lat="44.006109440778964" lon="11.666916926112004"><ele>769.4000000000001</ele><time>2026-04-14T09:13:23Z</time></trkpt><trkpt lat="44.00613922156655" lon="11.667059699159429"><ele>771.8000000000001</ele><time>2026-04-14T09:13:24Z</time></trkpt><trkpt lat="44.006195980787545" lon="11.667184500006138"><ele>774.2</ele><time>2026-04-14T09:13:25Z</time></trkpt><trkpt lat="44.006264254735605" lon="11.667300206420393"><ele>776.6</ele><time>2026-04-14T09:13:26Z</time></trkpt><trkpt lat="44.00633433929635" lon="11.667412356103993"><ele>779.0</ele><time>2026-04-14T09:13:27Z</time></trkpt><trkpt lat="44.00639943889025" lon="11.667522328312446"><ele>779.0000000000001</ele><time>2026-04-14T09:13:28Z</time></trkpt><trkpt lat="44.006453686191804" lon="11.667632534658269"><ele>779.0</ele><time>2026-04-14T09:13:29Z</time></trkpt><trkpt lat="44.00650319363806" lon="11.667735942636678"><ele>779.0</ele><time>2026-04-14T09:13:30Z</time></trkpt><trkpt lat="44.00654153838144" lon="11.66782605220994"><ele>779.0</ele><time>2026-04-14T09:13:31Z</time></trkpt><trkpt lat="44.00658048792004" lon="11.667915662950486"><ele>779.0000000000001</ele><time>2026-04-14T09:13:32Z</time></trkpt><trkpt lat="44.00662602387976" lon="11.667986930431047"><ele>779.0</ele><time>2026-04-14T09:13:33Z</time></trkpt><trkpt lat="44.00672686558328" lon="11.66803123392588"><ele>776.6666666666667</ele><time>2026-04-14T09:13:35Z</time></trkpt><trkpt lat="44.006821799553805" lon="11.668022395679973"><ele>774.3333333333334</ele><time>2026-04-14T09:13:37Z</time></trkpt><trkpt lat="44.00688562184422" lon="11.668001582461489"><ele>772.0</ele><time>2026-04-14T09:13:38Z</time></trkpt><trkpt lat="44.00695852202514" lon="11.667992574289935"><ele>769.6666666666667</ele><time>2026-04-14T09:13:39Z</time></trkpt><trkpt lat="44.007034134041554" lon="11.66795488269687"><ele>767.3333333333334</ele><time>2026-04-14T09:13:40Z</time></trkpt><trkpt lat="44.00710963401545" lon="11.667874457636687"><ele>765.0</ele><time>2026-04-14T09:13:41Z</time></trkpt><trkpt lat="44.0071592775863" lon="11.667749909686588"><ele>763.0</ele><time>2026-04-14T09:13:42Z</time></trkpt><trkpt lat="44.007210253387775" lon="11.667621654275809"><ele>761.0</ele><time>2026-04-14T09:13:43Z</time></trkpt><trkpt lat="44.00724411630088" lon="11.667484069618707"><ele>759.0</ele><time>2026-04-14T09:13:44Z</time></trkpt><trkpt lat="44.00725227113781" lon="11.667347736936346"><ele>757.0</ele><time>2026-04-14T09:13:45Z</time></trkpt><trkpt lat="44.007236578436746" lon="11.667235568726555"><ele>755.0</ele><time>2026-04-14T09:13:46Z</time></trkpt><trkpt lat="44.0072071746841" lon="11.667084689827057"><ele>754.4</ele><time>2026-04-14T09:13:48Z</time></trkpt><trkpt lat="44.00719369450784" lon="11.666934985373315"><ele>753.8</ele><time>2026-04-14T09:13:50Z</time></trkpt><trkpt lat="44.007180653927676" lon="11.666749883890967"><ele>753.2</ele><time>2026-04-14T09:13:52Z</time></trkpt><trkpt lat="44.00717510720345" lon="11.666649388217648"><ele>752.6</ele><time>2026-04-14T09:13:53Z</time></trkpt><trkpt lat="44.007175039543554" lon="11.666537400303678"><ele>752.0</ele><time>2026-04-14T09:13:54Z</time></trkpt><trkpt lat="44.0071683946421" lon="11.666410849865787"><ele>752.0</ele><time>2026-04-14T09:13:55Z</time></trkpt><trkpt lat="44.007187983803426" lon="11.666287161565236"><ele>752.0</ele><time>2026-04-14T09:13:56Z</time></trkpt><trkpt lat="44.00721500997635" lon="11.666169975825145"><ele>752.0</ele><time>2026-04-14T09:13:57Z</time></trkpt><trkpt lat="44.00723276770831" lon="11.666056588644437"><ele>752.0</ele><time>2026-04-14T09:13:58Z</time></trkpt><trkpt lat="44.00723499168864" lon="11.665946649451698"><ele>752.0</ele><time>2026-04-14T09:13:59Z</time></trkpt><trkpt lat="44.00722100737429" lon="11.665840250135355"><ele>752.0</ele><time>2026-04-14T09:14:00Z</time></trkpt><trkpt lat="44.00719532198371" lon="11.665732621931102"><ele>752.0</ele><time>2026-04-14T09:14:01Z</time></trkpt><trkpt lat="44.00715200283402" lon="11.665615343139486"><ele>752.0</ele><time>2026-04-14T09:14:02Z</time></trkpt><trkpt lat="44.00710753384856" lon="11.665497441639431"><ele>752.0</ele><time>2026-04-14T09:14:03Z</time></trkpt><trkpt lat="44.00706673732734" lon="11.665392324796326"><ele>752.0</ele><time>2026-04-14T09:14:04Z</time></trkpt><trkpt lat="44.00703823320848" lon="11.665289261547159"><ele>752.0</ele><time>2026-04-14T09:14:05Z</time></trkpt><trkpt lat="44.007047295420364" lon="11.665187478510989"><ele>752.0</ele><time>2026-04-14T09:14:06Z</time></trkpt><trkpt lat="44.00708418203334" lon="11.66507797881459"><ele>753.0</ele><time>2026-04-14T09:14:07Z</time></trkpt><trkpt lat="44.007144681682036" lon="11.66499378827383"><ele>754.0</ele><time>2026-04-14T09:14:08Z</time></trkpt><trkpt lat="44.00719514859865" lon="11.664904813789265"><ele>755.0</ele><time>2026-04-14T09:14:09Z</time></trkpt><trkpt lat="44.00723922912406" lon="11.664804364586885"><ele>756.0</ele><time>2026-04-14T09:14:10Z</time></trkpt><trkpt lat="44.00729873255978" lon="11.664717574555606"><ele>757.0</ele><time>2026-04-14T09:14:11Z</time></trkpt><trkpt lat="44.00736641254948" lon="11.664627711383996"><ele>758.0</ele><time>2026-04-14T09:14:12Z</time></trkpt><trkpt lat="44.007441799905784" lon="11.664543477070291"><ele>760.5</ele><time>2026-04-14T09:14:13Z</time></trkpt><trkpt lat="44.00751818680274" lon="11.664481310329908"><ele>763.0</ele><time>2026-04-14T09:14:14Z</time></trkpt><trkpt lat="44.00759245048163" lon="11.664438549616333"><ele>765.5</ele><time>2026-04-14T09:14:15Z</time></trkpt><trkpt lat="44.00767351956768" lon="11.664403614054907"><ele>768.0</ele><time>2026-04-14T09:14:16Z</time></trkpt><trkpt lat="44.00776472709765" lon="11.664376272342269"><ele>770.5000000000001</ele><time>2026-04-14T09:14:17Z</time></trkpt><trkpt lat="44.00786320203026" lon="11.66435878620652"><ele>773.0</ele><time>2026-04-14T09:14:18Z</time></trkpt><trkpt lat="44.00796625753478" lon="11.664330262476213"><ele>773.0</ele><time>2026-04-14T09:14:19Z</time></trkpt><trkpt lat="44.00807688909837" lon="11.66430965238287"><ele>773.0</ele><time>2026-04-14T09:14:20Z</time></trkpt><trkpt lat="44.008187431519396" lon="11.664270408476744"><ele>773.0</ele><time>2026-04-14T09:14:21Z</time></trkpt><trkpt lat="44.00829934331009" lon="11.664230678455272"><ele>773.0</ele><time>2026-04-14T09:14:22Z</time></trkpt><trkpt lat="44.00838865431451" lon="11.664070710307001"><ele>777.0</ele><time>2026-04-14T09:14:23Z</time></trkpt><trkpt lat="44.00848735275257" lon="11.66396560074812"><ele>781.0</ele><time>2026-04-14T09:14:24Z</time></trkpt><trkpt lat="44.008584392388904" lon="11.66385376328794"><ele>785.0</ele><time>2026-04-14T09:14:25Z</time></trkpt><trkpt lat="44.008683573554514" lon="11.663740553633874"><ele>789.0</ele><time>2026-04-14T09:14:26Z</time></trkpt><trkpt lat="44.00878401036366" lon="11.663625479607228"><ele>785.75</ele><time>2026-04-14T09:14:27Z</time></trkpt><trkpt lat="44.00888322968375" lon="11.663511943786943"><ele>782.5</ele><time>2026-04-14T09:14:28Z</time></trkpt><trkpt lat="44.0089799441297" lon="11.663402118584765"><ele>779.25</ele><time>2026-04-14T09:14:29Z</time></trkpt><trkpt lat="44.00906859219847" lon="11.663303722060807"><ele>776.0</ele><time>2026-04-14T09:14:30Z</time></trkpt><trkpt lat="44.009150983427055" lon="11.66321771384164"><ele>779.5999999999999</ele><time>2026-04-14T09:14:31Z</time></trkpt><trkpt lat="44.00923275401674" lon="11.663147268045497"><ele>783.2</ele><time>2026-04-14T09:14:32Z</time></trkpt><trkpt lat="44.00932239839383" lon="11.663090013378364"><ele>786.8</ele><time>2026-04-14T09:14:33Z</time></trkpt><trkpt lat="44.009419960281505" lon="11.663056576754474"><ele>790.4000000000001</ele><time>2026-04-14T09:14:34Z</time></trkpt><trkpt lat="44.00952381536368" lon="11.663052171644482"><ele>794.0</ele><time>2026-04-14T09:14:35Z</time></trkpt><trkpt lat="44.00963364050721" lon="11.663061074486452"><ele>794.0</ele><time>2026-04-14T09:14:36Z</time></trkpt><trkpt lat="44.009750882805825" lon="11.66307255123879"><ele>794.0</ele><time>2026-04-14T09:14:37Z</time></trkpt><trkpt lat="44.0098744758636" lon="11.663078829490471"><ele>794.0</ele><time>2026-04-14T09:14:38Z</time></trkpt><trkpt lat="44.009994389279825" lon="11.663078039152596"><ele>794.0</ele><time>2026-04-14T09:14:39Z</time></trkpt><trkpt lat="44.01011550646323" lon="11.663074922327965"><ele>797.5</ele><time>2026-04-14T09:14:40Z</time></trkpt><trkpt lat="44.010231022186545" lon="11.663070538549212"><ele>801.0</ele><time>2026-04-14T09:14:41Z</time></trkpt><trkpt lat="44.01034124931614" lon="11.663067588787221"><ele>804.5</ele><time>2026-04-14T09:14:42Z</time></trkpt><trkpt lat="44.01044848234706" lon="11.663079360178322"><ele>808.0</ele><time>2026-04-14T09:14:43Z</time></trkpt><trkpt lat="44.010562115081534" lon="11.663117864221812"><ele>808.0</ele><time>2026-04-14T09:14:44Z</time></trkpt><trkpt lat="44.010681396394425" lon="11.663172560772635"><ele>808.0</ele><time>2026-04-14T09:14:45Z</time></trkpt><trkpt lat="44.01080393501669" lon="11.663242319629573"><ele>808.0</ele><time>2026-04-14T09:14:46Z</time></trkpt><trkpt lat="44.01092479293231" lon="11.663310310813216"><ele>808.0</ele><time>2026-04-14T09:14:47Z</time></trkpt><trkpt lat="44.01104500615946" lon="11.663385575289219"><ele>807.0</ele><time>2026-04-14T09:14:48Z</time></trkpt><trkpt lat="44.011160835572326" lon="11.663476454961769"><ele>806.0</ele><time>2026-04-14T09:14:49Z</time></trkpt><trkpt lat="44.01126905137214" lon="11.663576582200575"><ele>805.0</ele><time>2026-04-14T09:14:50Z</time></trkpt><trkpt lat="44.011378887597736" lon="11.663665156718986"><ele>804.0</ele><time>2026-04-14T09:14:51Z</time></trkpt><trkpt lat="44.01149197173542" lon="11.663739431521456"><ele>806.0</ele><time>2026-04-14T09:14:52Z</time></trkpt><trkpt lat="44.01160302515245" lon="11.663781484471244"><ele>808.0</ele><time>2026-04-14T09:14:53Z</time></trkpt><trkpt lat="44.011708337754435" lon="11.663814016453314"><ele>810.0</ele><time>2026-04-14T09:14:54Z</time></trkpt><trkpt lat="44.0117870397214" lon="11.663887099493476"><ele>812.0</ele><time>2026-04-14T09:14:55Z</time></trkpt><trkpt lat="44.01184593185507" lon="11.663992164743847"><ele>814.0</ele><time>2026-04-14T09:14:56Z</time></trkpt><trkpt lat="44.01189131029795" lon="11.664115511153245"><ele>814.0</ele><time>2026-04-14T09:14:57Z</time></trkpt><trkpt lat="44.011928508069374" lon="11.664261090801027"><ele>814.0</ele><time>2026-04-14T09:14:58Z</time></trkpt><trkpt lat="44.01196519082999" lon="11.66439601483428"><ele>814.0</ele><time>2026-04-14T09:14:59Z</time></trkpt><trkpt lat="44.01200786509407" lon="11.664512740178848"><ele>814.0</ele><time>2026-04-14T09:15:00Z</time></trkpt><trkpt lat="44.01204118206745" lon="11.664618195468934"><ele>814.0</ele><time>2026-04-14T09:15:01Z</time></trkpt><trkpt lat="44.01208980010511" lon="11.664729220202608"><ele>819.8000000000001</ele><time>2026-04-14T09:15:02Z</time></trkpt><trkpt lat="44.01214491743863" lon="11.664819624366348"><ele>825.6</ele><time>2026-04-14T09:15:03Z</time></trkpt><trkpt lat="44.01221942241368" lon="11.664894649785746"><ele>831.4</ele><time>2026-04-14T09:15:04Z</time></trkpt><trkpt lat="44.01230106972368" lon="11.664967865513237"><ele>837.2</ele><time>2026-04-14T09:15:05Z</time></trkpt><trkpt lat="44.012385551446386" lon="11.665054761738938"><ele>843.0</ele><time>2026-04-14T09:15:06Z</time></trkpt><trkpt lat="44.012469659923234" lon="11.66516139074665"><ele>841.5999999999999</ele><time>2026-04-14T09:15:07Z</time></trkpt><trkpt lat="44.0125485887713" lon="11.66526962513838"><ele>840.1999999999999</ele><time>2026-04-14T09:15:08Z</time></trkpt><trkpt lat="44.01261523080853" lon="11.665376284684516"><ele>838.8</ele><time>2026-04-14T09:15:09Z</time></trkpt><trkpt lat="44.01268118726555" lon="11.665483275440879"><ele>837.4</ele><time>2026-04-14T09:15:10Z</time></trkpt><trkpt lat="44.01272711578168" lon="11.66559770268602"><ele>836.0</ele><time>2026-04-14T09:15:11Z</time></trkpt><trkpt lat="44.01277415824717" lon="11.665697318913434"><ele>836.0000000000001</ele><time>2026-04-14T09:15:12Z</time></trkpt><trkpt lat="44.01281728410084" lon="11.665783547635325"><ele>836.0</ele><time>2026-04-14T09:15:13Z</time></trkpt><trkpt lat="44.01292727207909" lon="11.665860142093216"><ele>836.0</ele><time>2026-04-14T09:15:15Z</time></trkpt><trkpt lat="44.01299394316103" lon="11.665820113082448"><ele>836.0</ele><time>2026-04-14T09:15:16Z</time></trkpt><trkpt lat="44.01304843643271" lon="11.665770864706836"><ele>836.0000000000001</ele><time>2026-04-14T09:15:17Z</time></trkpt><trkpt lat="44.013090802192" lon="11.665684720772113"><ele>836.0</ele><time>2026-04-14T09:15:18Z</time></trkpt><trkpt lat="44.01310918245691" lon="11.665568788440277"><ele>836.0</ele><time>2026-04-14T09:15:19Z</time></trkpt><trkpt lat="44.01309757873552" lon="11.665433317546778"><ele>836.0</ele><time>2026-04-14T09:15:20Z</time></trkpt><trkpt lat="44.01306999736071" lon="11.665296460379013"><ele>836.0</ele><time>2026-04-14T09:15:21Z</time></trkpt><trkpt lat="44.01302497268963" lon="11.665160612521683"><ele>836.0</ele><time>2026-04-14T09:15:22Z</time></trkpt><trkpt lat="44.012979930312625" lon="11.665027246262083"><ele>836.0</ele><time>2026-04-14T09:15:23Z</time></trkpt><trkpt lat="44.012943226093896" lon="11.66490377040476"><ele>832.4</ele><time>2026-04-14T09:15:24Z</time></trkpt><trkpt lat="44.01291332768332" lon="11.664780389291005"><ele>828.8</ele><time>2026-04-14T09:15:25Z</time></trkpt><trkpt lat="44.012901217452225" lon="11.664637913454753"><ele>825.1999999999999</ele><time>2026-04-14T09:15:26Z</time></trkpt><trkpt lat="44.01290042757058" lon="11.664495651542973"><ele>821.5999999999999</ele><time>2026-04-14T09:15:27Z</time></trkpt><trkpt lat="44.01291119548281" lon="11.664363030994313"><ele>818.0</ele><time>2026-04-14T09:15:28Z</time></trkpt><trkpt lat="44.012939615241926" lon="11.664226814528936"><ele>815.0</ele><time>2026-04-14T09:15:29Z</time></trkpt><trkpt lat="44.01298357933257" lon="11.664089924625303"><ele>812.0</ele><time>2026-04-14T09:15:30Z</time></trkpt><trkpt lat="44.01303690769305" lon="11.663955168649363"><ele>809.0</ele><time>2026-04-14T09:15:31Z</time></trkpt><trkpt lat="44.013088375594066" lon="11.663833528897818"><ele>806.0</ele><time>2026-04-14T09:15:32Z</time></trkpt><trkpt lat="44.01313741699353" lon="11.6637167986318"><ele>803.0</ele><time>2026-04-14T09:15:33Z</time></trkpt><trkpt lat="44.01319526663118" lon="11.663615012882335"><ele>801.4</ele><time>2026-04-14T09:15:34Z</time></trkpt><trkpt lat="44.01327505857769" lon="11.663533422199281"><ele>799.8</ele><time>2026-04-14T09:15:35Z</time></trkpt><trkpt lat="44.01337377197933" lon="11.663475157536702"><ele>798.2</ele><time>2026-04-14T09:15:36Z</time></trkpt><trkpt lat="44.013484632834505" lon="11.663436345714707"><ele>796.6</ele><time>2026-04-14T09:15:37Z</time></trkpt><trkpt lat="44.013603563067925" lon="11.663394309915367"><ele>795.0</ele><time>2026-04-14T09:15:38Z</time></trkpt><trkpt lat="44.01372087429378" lon="11.6633508431852"><ele>799.4</ele><time>2026-04-14T09:15:39Z</time></trkpt><trkpt lat="44.01382217041061" lon="11.663306472924"><ele>803.8</ele><time>2026-04-14T09:15:40Z</time></trkpt><trkpt lat="44.01392443859589" lon="11.663262121305848"><ele>808.2</ele><time>2026-04-14T09:15:41Z</time></trkpt><trkpt lat="44.01401897326034" lon="11.66323811408587"><ele>812.6</ele><time>2026-04-14T09:15:42Z</time></trkpt><trkpt lat="44.01411674140858" lon="11.663234104986213"><ele>817.0</ele><time>2026-04-14T09:15:43Z</time></trkpt><trkpt lat="44.01421510413384" lon="11.663273936384588"><ele>819.8</ele><time>2026-04-14T09:15:44Z</time></trkpt><trkpt lat="44.014304327269805" lon="11.663348995747622"><ele>822.6</ele><time>2026-04-14T09:15:45Z</time></trkpt><trkpt lat="44.01439281637889" lon="11.663448844205877"><ele>825.4</ele><time>2026-04-14T09:15:46Z</time></trkpt><trkpt lat="44.01447750444739" lon="11.663547515826638"><ele>828.1999999999999</ele><time>2026-04-14T09:15:47Z</time></trkpt><trkpt lat="44.0145747666887" lon="11.663622228849365"><ele>831.0</ele><time>2026-04-14T09:15:48Z</time></trkpt><trkpt lat="44.014680180096725" lon="11.663669456937201"><ele>836.75</ele><time>2026-04-14T09:15:49Z</time></trkpt><trkpt lat="44.01478965472025" lon="11.66369746911426"><ele>842.5</ele><time>2026-04-14T09:15:50Z</time></trkpt><trkpt lat="44.01490011422015" lon="11.66372283330085"><ele>848.25</ele><time>2026-04-14T09:15:51Z</time></trkpt><trkpt lat="44.015013289951185" lon="11.663756600192087"><ele>854.0</ele><time>2026-04-14T09:15:52Z</time></trkpt><trkpt lat="44.01513262037317" lon="11.66380658562706"><ele>855.0</ele><time>2026-04-14T09:15:53Z</time></trkpt><trkpt lat="44.015250742413805" lon="11.663851686527298"><ele>856.0</ele><time>2026-04-14T09:15:54Z</time></trkpt><trkpt lat="44.01536539384645" lon="11.663903046580733"><ele>857.0</ele><time>2026-04-14T09:15:55Z</time></trkpt><trkpt lat="44.015489304713924" lon="11.663958089071624"><ele>858.0</ele><time>2026-04-14T09:15:56Z</time></trkpt><trkpt lat="44.0156108483379" lon="11.664016404004805"><ele>858.0</ele><time>2026-04-14T09:15:57Z</time></trkpt><trkpt lat="44.01573129928882" lon="11.664066170665349"><ele>858.0</ele><time>2026-04-14T09:15:58Z</time></trkpt><trkpt lat="44.015853413273284" lon="11.664116095075206"><ele>858.0</ele><time>2026-04-14T09:15:59Z</time></trkpt><trkpt lat="44.01596537043427" lon="11.66416351173856"><ele>858.0</ele><time>2026-04-14T09:16:00Z</time></trkpt><trkpt lat="44.01606525175864" lon="11.664208536158489"><ele>856.4</ele><time>2026-04-14T09:16:01Z</time></trkpt><trkpt lat="44.01615903761295" lon="11.664259955532971"><ele>854.8</ele><time>2026-04-14T09:16:02Z</time></trkpt><trkpt lat="44.01625255905682" lon="11.664327948121572"><ele>853.2</ele><time>2026-04-14T09:16:03Z</time></trkpt><trkpt lat="44.01634382824767" lon="11.66441270450641"><ele>851.6</ele><time>2026-04-14T09:16:04Z</time></trkpt><trkpt lat="44.01643777428373" lon="11.664503997334336"><ele>850.0</ele><time>2026-04-14T09:16:05Z</time></trkpt><trkpt lat="44.01654068892863" lon="11.664587901785131"><ele>853.4</ele><time>2026-04-14T09:16:06Z</time></trkpt><trkpt lat="44.01664561652581" lon="11.66467605600905"><ele>856.8</ele><time>2026-04-14T09:16:07Z</time></trkpt><trkpt lat="44.0167389984887" lon="11.66475877421468"><ele>860.2</ele><time>2026-04-14T09:16:08Z</time></trkpt><trkpt lat="44.016822017244095" lon="11.664836913901336"><ele>863.6</ele><time>2026-04-14T09:16:09Z</time></trkpt><trkpt lat="44.01690660096326" lon="11.664903488619698"><ele>867.0</ele><time>2026-04-14T09:16:10Z</time></trkpt><trkpt lat="44.01699129106822" lon="11.664949112499137"><ele>867.0</ele><time>2026-04-14T09:16:11Z</time></trkpt><trkpt lat="44.01707482525413" lon="11.66495944800496"><ele>867.0</ele><time>2026-04-14T09:16:12Z</time></trkpt><trkpt lat="44.017149300600735" lon="11.664924409283463"><ele>867.0</ele><time>2026-04-14T09:16:13Z</time></trkpt><trkpt lat="44.01720106991484" lon="11.66485786380262"><ele>867.0</ele><time>2026-04-14T09:16:14Z</time></trkpt><trkpt lat="44.0172243591061" lon="11.664754810420357"><ele>867.0</ele><time>2026-04-14T09:16:15Z</time></trkpt><trkpt lat="44.017217742384986" lon="11.66464757843589"><ele>867.0</ele><time>2026-04-14T09:16:16Z</time></trkpt><trkpt lat="44.01717769783288" lon="11.66453725246024"><ele>863.8</ele><time>2026-04-14T09:16:17Z</time></trkpt><trkpt lat="44.01711796418069" lon="11.664422611328822"><ele>860.6</ele><time>2026-04-14T09:16:18Z</time></trkpt><trkpt lat="44.017053557219775" lon="11.664308617304966"><ele>857.4</ele><time>2026-04-14T09:16:19Z</time></trkpt><trkpt lat="44.01700167611176" lon="11.664189209385514"><ele>854.1999999999999</ele><time>2026-04-14T09:16:20Z</time></trkpt><trkpt lat="44.016988333465534" lon="11.664075103619547"><ele>851.0</ele><time>2026-04-14T09:16:21Z</time></trkpt><trkpt lat="44.01701953082016" lon="11.663958261520726"><ele>851.0</ele><time>2026-04-14T09:16:22Z</time></trkpt><trkpt lat="44.01706465414354" lon="11.663838756146475"><ele>851.0</ele><time>2026-04-14T09:16:23Z</time></trkpt><trkpt lat="44.01711649602167" lon="11.663705724404968"><ele>851.0</ele><time>2026-04-14T09:16:24Z</time></trkpt><trkpt lat="44.017154776017435" lon="11.663552982739596"><ele>851.0</ele><time>2026-04-14T09:16:25Z</time></trkpt><trkpt lat="44.017169097731994" lon="11.663379750485499"><ele>851.0</ele><time>2026-04-14T09:16:26Z</time></trkpt><trkpt lat="44.01717431176286" lon="11.663200804570197"><ele>852.0</ele><time>2026-04-14T09:16:27Z</time></trkpt><trkpt lat="44.017174659226406" lon="11.663033214539425"><ele>853.0</ele><time>2026-04-14T09:16:28Z</time></trkpt><trkpt lat="44.01717861464997" lon="11.662870969093008"><ele>853.9999999999999</ele><time>2026-04-14T09:16:29Z</time></trkpt><trkpt lat="44.01718874581754" lon="11.662722899540967"><ele>855.0</ele><time>2026-04-14T09:16:30Z</time></trkpt><trkpt lat="44.01720434566951" lon="11.662594576802768"><ele>856.0</ele><time>2026-04-14T09:16:31Z</time></trkpt><trkpt lat="44.01721873635542" lon="11.6624728797362"><ele>858.9999999999999</ele><time>2026-04-14T09:16:32Z</time></trkpt><trkpt lat="44.0172231164318" lon="11.662364944501638"><ele>862.0</ele><time>2026-04-14T09:16:33Z</time></trkpt><trkpt lat="44.01720979008904" lon="11.662258487405165"><ele>865.0</ele><time>2026-04-14T09:16:34Z</time></trkpt><trkpt lat="44.01716499167772" lon="11.662176009579625"><ele>868.0</ele><time>2026-04-14T09:16:35Z</time></trkpt><trkpt lat="44.01710198249367" lon="11.662117766534875"><ele>870.9999999999999</ele><time>2026-04-14T09:16:36Z</time></trkpt><trkpt lat="44.01702383397013" lon="11.662089444721426"><ele>874.0</ele><time>2026-04-14T09:16:37Z</time></trkpt><trkpt lat="44.01694030154934" lon="11.662084893359674"><ele>873.9999999999999</ele><time>2026-04-14T09:16:38Z</time></trkpt><trkpt lat="44.016866283229334" lon="11.662123002592844"><ele>874.0</ele><time>2026-04-14T09:16:39Z</time></trkpt><trkpt lat="44.016808834585376" lon="11.662203978928558"><ele>874.0</ele><time>2026-04-14T09:16:40Z</time></trkpt><trkpt lat="44.01676489067273" lon="11.66230672375531"><ele>874.0</ele><time>2026-04-14T09:16:41Z</time></trkpt><trkpt lat="44.01672308959558" lon="11.66242574026871"><ele>873.9999999999999</ele><time>2026-04-14T09:16:42Z</time></trkpt><trkpt lat="44.01667476627852" lon="11.662541853498992"><ele>874.0</ele><time>2026-04-14T09:16:43Z</time></trkpt><trkpt lat="44.01661683909317" lon="11.66264890946524"><ele>872.2</ele><time>2026-04-14T09:16:44Z</time></trkpt><trkpt lat="44.01654543570148" lon="11.662742088833957"><ele>870.4000000000001</ele><time>2026-04-14T09:16:45Z</time></trkpt><trkpt lat="44.016469973723936" lon="11.662800173836459"><ele>868.6</ele><time>2026-04-14T09:16:46Z</time></trkpt><trkpt lat="44.01639579136525" lon="11.662831729150671"><ele>866.8</ele><time>2026-04-14T09:16:47Z</time></trkpt><trkpt lat="44.016330570997056" lon="11.662834001442523"><ele>865.0</ele><time>2026-04-14T09:16:48Z</time></trkpt><trkpt lat="44.01624720385642" lon="11.662706183503937"><ele>865.0</ele><time>2026-04-14T09:16:50Z</time></trkpt><trkpt lat="44.01624370275693" lon="11.662600263554461"><ele>865.0</ele><time>2026-04-14T09:16:51Z</time></trkpt><trkpt lat="44.01625060572982" lon="11.662487750626296"><ele>865.0</ele><time>2026-04-14T09:16:52Z</time></trkpt><trkpt lat="44.016256522141795" lon="11.66235331860433"><ele>865.0</ele><time>2026-04-14T09:16:53Z</time></trkpt><trkpt lat="44.01624489286966" lon="11.662206226856707"><ele>865.0</ele><time>2026-04-14T09:16:54Z</time></trkpt><trkpt lat="44.0162139458296" lon="11.662046290237416"><ele>870.75</ele><time>2026-04-14T09:16:55Z</time></trkpt><trkpt lat="44.01615992718527" lon="11.661890186608172"><ele>876.5</ele><time>2026-04-14T09:16:56Z</time></trkpt><trkpt lat="44.0160872599405" lon="11.661737050916127"><ele>882.25</ele><time>2026-04-14T09:16:57Z</time></trkpt><trkpt lat="44.01602911620704" lon="11.661606669503911"><ele>888.0</ele><time>2026-04-14T09:16:58Z</time></trkpt><trkpt lat="44.015984982092505" lon="11.661483591406693"><ele>888.0</ele><time>2026-04-14T09:16:59Z</time></trkpt><trkpt lat="44.01592876690924" lon="11.661373813845445"><ele>888.0</ele><time>2026-04-14T09:17:00Z</time></trkpt><trkpt lat="44.01584270528645" lon="11.661308907943871"><ele>888.0</ele><time>2026-04-14T09:17:01Z</time></trkpt><trkpt lat="44.01574282979401" lon="11.661283684139173"><ele>888.0</ele><time>2026-04-14T09:17:02Z</time></trkpt><trkpt lat="44.01565311599027" lon="11.661256136633861"><ele>888.0</ele><time>2026-04-14T09:17:03Z</time></trkpt><trkpt lat="44.01558568037411" lon="11.661168815557723"><ele>887.2</ele><time>2026-04-14T09:17:04Z</time></trkpt><trkpt lat="44.0155125608597" lon="11.6610597344997"><ele>886.4</ele><time>2026-04-14T09:17:05Z</time></trkpt><trkpt lat="44.01541601387943" lon="11.66098727124076"><ele>885.6000000000001</ele><time>2026-04-14T09:17:06Z</time></trkpt><trkpt lat="44.01532404592219" lon="11.660954531252852"><ele>884.8000000000001</ele><time>2026-04-14T09:17:07Z</time></trkpt><trkpt lat="44.015256980251905" lon="11.660898701390975"><ele>884.0</ele><time>2026-04-14T09:17:08Z</time></trkpt><trkpt lat="44.015232189675366" lon="11.660801343013249"><ele>884.0</ele><time>2026-04-14T09:17:09Z</time></trkpt><trkpt lat="44.01525373187863" lon="11.660713413006679"><ele>884.0000000000001</ele><time>2026-04-14T09:17:10Z</time></trkpt><trkpt lat="44.0153110122475" lon="11.660648750314436"><ele>884.0000000000001</ele><time>2026-04-14T09:17:11Z</time></trkpt><trkpt lat="44.01539737679397" lon="11.660585045405925"><ele>884.0</ele><time>2026-04-14T09:17:12Z</time></trkpt><trkpt lat="44.01550983565609" lon="11.660519134251237"><ele>884.0</ele><time>2026-04-14T09:17:13Z</time></trkpt><trkpt lat="44.01562195905184" lon="11.66044529021219"><ele>884.0</ele><time>2026-04-14T09:17:14Z</time></trkpt><trkpt lat="44.015723295483575" lon="11.660377026515944"><ele>884.0000000000001</ele><time>2026-04-14T09:17:15Z</time></trkpt><trkpt lat="44.01582000836634" lon="11.660315795839324"><ele>884.0000000000001</ele><time>2026-04-14T09:17:16Z</time></trkpt><trkpt lat="44.01589902424182" lon="11.660256066407216"><ele>884.0</ele><time>2026-04-14T09:17:17Z</time></trkpt><trkpt lat="44.01596505602905" lon="11.660179734618449"><ele>884.0</ele><time>2026-04-14T09:17:18Z</time></trkpt><trkpt lat="44.016008029005285" lon="11.660088779770604"><ele>886.1666666666667</ele><time>2026-04-14T09:17:19Z</time></trkpt><trkpt lat="44.01602509667982" lon="11.659992867372814"><ele>888.3333333333334</ele><time>2026-04-14T09:17:20Z</time></trkpt><trkpt lat="44.016023420588986" lon="11.659879751250394"><ele>890.5</ele><time>2026-04-14T09:17:21Z</time></trkpt><trkpt lat="44.016011145364125" lon="11.659748462066974"><ele>892.6666666666667</ele><time>2026-04-14T09:17:22Z</time></trkpt><trkpt lat="44.01600900898587" lon="11.659623699945358"><ele>894.8333333333334</ele><time>2026-04-14T09:17:23Z</time></trkpt><trkpt lat="44.016019263042985" lon="11.659505613262816"><ele>897.0</ele><time>2026-04-14T09:17:24Z</time></trkpt><trkpt lat="44.01605238987094" lon="11.659395081990121"><ele>897.0</ele><time>2026-04-14T09:17:25Z</time></trkpt><trkpt lat="44.01612139636714" lon="11.659312915601616"><ele>897.0</ele><time>2026-04-14T09:17:26Z</time></trkpt><trkpt lat="44.01621969476733" lon="11.659256457774013"><ele>897.0</ele><time>2026-04-14T09:17:27Z</time></trkpt><trkpt lat="44.016335910024644" lon="11.659195145113518"><ele>897.0</ele><time>2026-04-14T09:17:28Z</time></trkpt><trkpt lat="44.01644700979807" lon="11.659135143233483"><ele>897.0</ele><time>2026-04-14T09:17:29Z</time></trkpt><trkpt lat="44.016543179388066" lon="11.659074202468295"><ele>897.0</ele><time>2026-04-14T09:17:30Z</time></trkpt><trkpt lat="44.01663154733314" lon="11.658996135051957"><ele>897.0</ele><time>2026-04-14T09:17:31Z</time></trkpt><trkpt lat="44.0166855868801" lon="11.658886176316514"><ele>897.0</ele><time>2026-04-14T09:17:32Z</time></trkpt><trkpt lat="44.01670862883134" lon="11.658749108895044"><ele>897.0</ele><time>2026-04-14T09:17:33Z</time></trkpt><trkpt lat="44.01670264276788" lon="11.658609646438295"><ele>897.0</ele><time>2026-04-14T09:17:34Z</time></trkpt><trkpt lat="44.01668114391875" lon="11.658466405049342"><ele>900.4000000000001</ele><time>2026-04-14T09:17:35Z</time></trkpt><trkpt lat="44.0166820321795" lon="11.658317521110916"><ele>903.8000000000001</ele><time>2026-04-14T09:17:36Z</time></trkpt><trkpt lat="44.01672979742128" lon="11.658177684146937"><ele>907.2</ele><time>2026-04-14T09:17:37Z</time></trkpt><trkpt lat="44.01680519705464" lon="11.658065657263313"><ele>910.6</ele><time>2026-04-14T09:17:38Z</time></trkpt><trkpt lat="44.016890485156544" lon="11.657962646712384"><ele>914.0</ele><time>2026-04-14T09:17:39Z</time></trkpt><trkpt lat="44.01697198484545" lon="11.657849384659034"><ele>913.0</ele><time>2026-04-14T09:17:40Z</time></trkpt><trkpt lat="44.01704772025359" lon="11.657742947851354"><ele>912.0000000000001</ele><time>2026-04-14T09:17:41Z</time></trkpt><trkpt lat="44.017115442972056" lon="11.657625740769225"><ele>911.0000000000001</ele><time>2026-04-14T09:17:42Z</time></trkpt><trkpt lat="44.01717057778963" lon="11.657502127128382"><ele>910.0</ele><time>2026-04-14T09:17:43Z</time></trkpt><trkpt lat="44.017211071537986" lon="11.657381494663918"><ele>909.0</ele><time>2026-04-14T09:17:44Z</time></trkpt><trkpt lat="44.017246594511015" lon="11.657270169740142"><ele>909.0</ele><time>2026-04-14T09:17:45Z</time></trkpt><trkpt lat="44.01727100774631" lon="11.657174591867081"><ele>909.0</ele><time>2026-04-14T09:17:46Z</time></trkpt><trkpt lat="44.017294474875825" lon="11.657061050365717"><ele>909.0</ele><time>2026-04-14T09:17:48Z</time></trkpt><trkpt lat="44.01729995367745" lon="11.656946969133195"><ele>909.0</ele><time>2026-04-14T09:18:54Z</time></trkpt><trkpt lat="44.017287483263715" lon="11.656794662599875"><ele>909.0</ele><time>2026-04-14T09:18:56Z</time></trkpt><trkpt lat="44.01727704623685" lon="11.656705536766054"><ele>909.0</ele><time>2026-04-14T09:18:57Z</time></trkpt><trkpt lat="44.01725153071451" lon="11.6565573506994"><ele>910.2857142857142</ele><time>2026-04-14T09:18:59Z</time></trkpt><trkpt lat="44.01722272195169" lon="11.656454469212415"><ele>911.5714285714287</ele><time>2026-04-14T09:19:01Z</time></trkpt><trkpt lat="44.01720925843952" lon="11.656367046535015"><ele>912.8571428571429</ele><time>2026-04-14T09:19:04Z</time></trkpt><trkpt lat="44.01720955796733" lon="11.656270836660033"><ele>914.1428571428571</ele><time>2026-04-14T09:23:56Z</time></trkpt><trkpt lat="44.017264744503784" lon="11.656187239518987"><ele>915.4285714285713</ele><time>2026-04-14T09:23:58Z</time></trkpt><trkpt lat="44.017310236533646" lon="11.65612037677129"><ele>916.7142857142858</ele><time>2026-04-14T09:23:59Z</time></trkpt><trkpt lat="44.01736412397593" lon="11.656047861343087"><ele>918.0</ele><time>2026-04-14T09:24:00Z</time></trkpt><trkpt lat="44.01740777492842" lon="11.655966108066316"><ele>918.3333333333334</ele><time>2026-04-14T09:24:01Z</time></trkpt><trkpt lat="44.01744197902421" lon="11.655882437868694"><ele>918.6666666666667</ele><time>2026-04-14T09:24:02Z</time></trkpt><trkpt lat="44.017486936193215" lon="11.65580163664508"><ele>919.0</ele><time>2026-04-14T09:24:03Z</time></trkpt><trkpt lat="44.01754438213122" lon="11.655731305276198"><ele>919.3333333333334</ele><time>2026-04-14T09:24:04Z</time></trkpt><trkpt lat="44.01761159011967" lon="11.655679008869031"><ele>919.6666666666667</ele><time>2026-04-14T09:24:05Z</time></trkpt><trkpt lat="44.017689236277185" lon="11.655648069368045"><ele>920.0</ele><time>2026-04-14T09:24:06Z</time></trkpt><trkpt lat="44.01776847245008" lon="11.65568969338458"><ele>920.0</ele><time>2026-04-14T09:24:07Z</time></trkpt><trkpt lat="44.01784886879028" lon="11.655700010086512"><ele>920.0</ele><time>2026-04-14T09:24:08Z</time></trkpt><trkpt lat="44.017935676235325" lon="11.655758336067047"><ele>920.0</ele><time>2026-04-14T09:24:09Z</time></trkpt><trkpt lat="44.01802747919997" lon="11.655817569827661"><ele>920.0</ele><time>2026-04-14T09:24:10Z</time></trkpt><trkpt lat="44.018123556756194" lon="11.655865999067988"><ele>920.0</ele><time>2026-04-14T09:24:11Z</time></trkpt><trkpt lat="44.01821795410779" lon="11.655917691517036"><ele>920.0</ele><time>2026-04-14T09:24:12Z</time></trkpt><trkpt lat="44.01831331087838" lon="11.655971229060832"><ele>920.0</ele><time>2026-04-14T09:24:13Z</time></trkpt><trkpt lat="44.01840946454165" lon="11.65602366212091"><ele>920.0</ele><time>2026-04-14T09:24:14Z</time></trkpt><trkpt lat="44.018503759032235" lon="11.65606914195258"><ele>920.0</ele><time>2026-04-14T09:24:15Z</time></trkpt><trkpt lat="44.01860019323959" lon="11.656110952895183"><ele>920.0</ele><time>2026-04-14T09:24:16Z</time></trkpt><trkpt lat="44.018705638430674" lon="11.656138466807166"><ele>918.0</ele><time>2026-04-14T09:24:17Z</time></trkpt><trkpt lat="44.018812650533555" lon="11.656114978613621"><ele>916.0</ele><time>2026-04-14T09:24:18Z</time></trkpt><trkpt lat="44.018913259085025" lon="11.656076350582115"><ele>914.0</ele><time>2026-04-14T09:24:19Z</time></trkpt><trkpt lat="44.019011845461" lon="11.656019387375315"><ele>912.0</ele><time>2026-04-14T09:24:20Z</time></trkpt><trkpt lat="44.019111426969346" lon="11.655962206769201"><ele>910.0</ele><time>2026-04-14T09:24:21Z</time></trkpt><trkpt lat="44.01921074551326" lon="11.655902597948415"><ele>908.8</ele><time>2026-04-14T09:24:22Z</time></trkpt><trkpt lat="44.01931543849239" lon="11.655852938998963"><ele>907.6</ele><time>2026-04-14T09:24:23Z</time></trkpt><trkpt lat="44.01941862558871" lon="11.65580515526846"><ele>906.4000000000001</ele><time>2026-04-14T09:24:24Z</time></trkpt><trkpt lat="44.019522978879266" lon="11.655747591250334"><ele>905.2</ele><time>2026-04-14T09:24:25Z</time></trkpt><trkpt lat="44.01962288467723" lon="11.655681295925318"><ele>904.0</ele><time>2026-04-14T09:24:26Z</time></trkpt><trkpt lat="44.019718132913724" lon="11.655601467069706"><ele>904.0</ele><time>2026-04-14T09:24:27Z</time></trkpt><trkpt lat="44.01980681948818" lon="11.655514574113457"><ele>904.0000000000001</ele><time>2026-04-14T09:24:28Z</time></trkpt><trkpt lat="44.01989395954482" lon="11.65541915930623"><ele>904.0000000000001</ele><time>2026-04-14T09:24:29Z</time></trkpt><trkpt lat="44.01998079486258" lon="11.655323839888617"><ele>904.0</ele><time>2026-04-14T09:24:30Z</time></trkpt><trkpt lat="44.020064124710565" lon="11.655237642930073"><ele>904.0</ele><time>2026-04-14T09:24:31Z</time></trkpt><trkpt lat="44.02014007268483" lon="11.655158528678363"><ele>902.4999999999999</ele><time>2026-04-14T09:24:32Z</time></trkpt><trkpt lat="44.020209564272925" lon="11.655082645125704"><ele>901.0</ele><time>2026-04-14T09:24:33Z</time></trkpt><trkpt lat="44.02026541695477" lon="11.65500435039393"><ele>899.5</ele><time>2026-04-14T09:24:34Z</time></trkpt><trkpt lat="44.02029992956249" lon="11.654913652077258"><ele>898.0</ele><time>2026-04-14T09:24:35Z</time></trkpt><trkpt lat="44.02031079440529" lon="11.65482399344855"><ele>896.4999999999999</ele><time>2026-04-14T09:24:36Z</time></trkpt><trkpt lat="44.020310085404915" lon="11.654730016804358"><ele>895.0</ele><time>2026-04-14T09:24:37Z</time></trkpt><trkpt lat="44.020245279231226" lon="11.65465962995184"><ele>895.0</ele><time>2026-04-14T09:24:38Z</time></trkpt><trkpt lat="44.020156801486884" lon="11.654662663196046"><ele>895.0</ele><time>2026-04-14T09:24:39Z</time></trkpt><trkpt lat="44.02006947214038" lon="11.654682850870827"><ele>895.0</ele><time>2026-04-14T09:24:40Z</time></trkpt><trkpt lat="44.01997701012253" lon="11.65473153030768"><ele>895.0</ele><time>2026-04-14T09:24:41Z</time></trkpt><trkpt lat="44.019877675155804" lon="11.65476759770184"><ele>895.0</ele><time>2026-04-14T09:24:42Z</time></trkpt><trkpt lat="44.019784221924624" lon="11.654815054842997"><ele>894.2</ele><time>2026-04-14T09:24:43Z</time></trkpt><trkpt lat="44.01969239644667" lon="11.654877004207604"><ele>893.4</ele><time>2026-04-14T09:24:44Z</time></trkpt><trkpt lat="44.01958926740997" lon="11.654900785889826"><ele>892.5999999999999</ele><time>2026-04-14T09:24:45Z</time></trkpt><trkpt lat="44.019485408460106" lon="11.654883667100133"><ele>891.8</ele><time>2026-04-14T09:24:46Z</time></trkpt><trkpt lat="44.01938678072828" lon="11.654858487494712"><ele>891.0</ele><time>2026-04-14T09:24:47Z</time></trkpt><trkpt lat="44.01928826388523" lon="11.654815372299451"><ele>891.0</ele><time>2026-04-14T09:24:48Z</time></trkpt><trkpt lat="44.01919078481591" lon="11.654756233954227"><ele>890.9999999999999</ele><time>2026-04-14T09:24:49Z</time></trkpt><trkpt lat="44.019087366864724" lon="11.65470854620026"><ele>890.9999999999999</ele><time>2026-04-14T09:24:50Z</time></trkpt><trkpt lat="44.01899193321969" lon="11.654636489415081"><ele>891.0</ele><time>2026-04-14T09:24:51Z</time></trkpt><trkpt lat="44.018904629067656" lon="11.654549002580962"><ele>891.0</ele><time>2026-04-14T09:24:52Z</time></trkpt><trkpt lat="44.01881004369952" lon="11.654475274469572"><ele>888.8</ele><time>2026-04-14T09:24:53Z</time></trkpt><trkpt lat="44.01871816590029" lon="11.654398034757241"><ele>886.5999999999999</ele><time>2026-04-14T09:24:54Z</time></trkpt><trkpt lat="44.01863115014179" lon="11.654310601158818"><ele>884.4</ele><time>2026-04-14T09:24:55Z</time></trkpt><trkpt lat="44.0185356852362" lon="11.65422463776748"><ele>882.2</ele><time>2026-04-14T09:24:56Z</time></trkpt><trkpt lat="44.01844948709054" lon="11.654138504744177"><ele>880.0</ele><time>2026-04-14T09:24:57Z</time></trkpt><trkpt lat="44.01836095912509" lon="11.65404679997392"><ele>883.0</ele><time>2026-04-14T09:24:58Z</time></trkpt><trkpt lat="44.018270586680295" lon="11.653953630894257"><ele>886.0</ele><time>2026-04-14T09:24:59Z</time></trkpt><trkpt lat="44.01817769489292" lon="11.653859172687515"><ele>889.0</ele><time>2026-04-14T09:25:00Z</time></trkpt><trkpt lat="44.018085426213965" lon="11.653761628130784"><ele>892.0</ele><time>2026-04-14T09:25:01Z</time></trkpt><trkpt lat="44.01799437441661" lon="11.653661884423853"><ele>889.0</ele><time>2026-04-14T09:25:02Z</time></trkpt><trkpt lat="44.017904339448364" lon="11.65356277470479"><ele>886.0</ele><time>2026-04-14T09:25:03Z</time></trkpt><trkpt lat="44.01781181247732" lon="11.653466087545818"><ele>883.0</ele><time>2026-04-14T09:25:04Z</time></trkpt><trkpt lat="44.01772186371571" lon="11.653369617029334"><ele>880.0</ele><time>2026-04-14T09:25:05Z</time></trkpt><trkpt lat="44.017643111670274" lon="11.65328035091686"><ele>877.0</ele><time>2026-04-14T09:25:06Z</time></trkpt><trkpt lat="44.01757474593501" lon="11.653194889556845"><ele>876.9999999999999</ele><time>2026-04-14T09:25:07Z</time></trkpt><trkpt lat="44.01753021670777" lon="11.653088641564825"><ele>877.0</ele><time>2026-04-14T09:25:08Z</time></trkpt><trkpt lat="44.01751321997593" lon="11.652969143849438"><ele>877.0</ele><time>2026-04-14T09:25:09Z</time></trkpt><trkpt lat="44.01754001533897" lon="11.652855375118925"><ele>877.0</ele><time>2026-04-14T09:25:10Z</time></trkpt><trkpt lat="44.017587873737874" lon="11.652753756371077"><ele>876.9999999999999</ele><time>2026-04-14T09:25:11Z</time></trkpt><trkpt lat="44.01766286145265" lon="11.652691781774553"><ele>877.0</ele><time>2026-04-14T09:25:12Z</time></trkpt><trkpt lat="44.01775091531184" lon="11.652689370643095"><ele>877.0</ele><time>2026-04-14T09:25:13Z</time></trkpt><trkpt lat="44.017840599978236" lon="11.652715205659286"><ele>877.0</ele><time>2026-04-14T09:25:14Z</time></trkpt><trkpt lat="44.01793723102534" lon="11.652746663566433"><ele>877.0</ele><time>2026-04-14T09:25:15Z</time></trkpt><trkpt lat="44.018039166241024" lon="11.652775569654947"><ele>877.0</ele><time>2026-04-14T09:25:16Z</time></trkpt><trkpt lat="44.0181387840223" lon="11.65280383228747"><ele>877.0</ele><time>2026-04-14T09:25:17Z</time></trkpt><trkpt lat="44.01823554916302" lon="11.652822033154616"><ele>876.6666666666666</ele><time>2026-04-14T09:25:18Z</time></trkpt><trkpt lat="44.0183303362289" lon="11.652822213107367"><ele>876.3333333333333</ele><time>2026-04-14T09:25:19Z</time></trkpt><trkpt lat="44.01842559072763" lon="11.652807208242471"><ele>876.0</ele><time>2026-04-14T09:25:20Z</time></trkpt><trkpt lat="44.018519584301345" lon="11.65277183909335"><ele>875.6666666666667</ele><time>2026-04-14T09:25:21Z</time></trkpt><trkpt lat="44.01859010024561" lon="11.652725334257884"><ele>875.3333333333334</ele><time>2026-04-14T09:25:22Z</time></trkpt><trkpt lat="44.01864470225585" lon="11.652657243358934"><ele>875.0</ele><time>2026-04-14T09:25:23Z</time></trkpt><trkpt lat="44.018685920206146" lon="11.652569681245977"><ele>875.0</ele><time>2026-04-14T09:25:24Z</time></trkpt><trkpt lat="44.018718865866134" lon="11.652460344707427"><ele>875.0</ele><time>2026-04-14T09:25:25Z</time></trkpt><trkpt lat="44.01874961953274" lon="11.652334785642843"><ele>875.0</ele><time>2026-04-14T09:25:26Z</time></trkpt><trkpt lat="44.01877130713759" lon="11.652211660455125"><ele>875.0</ele><time>2026-04-14T09:25:27Z</time></trkpt><trkpt lat="44.0187964115382" lon="11.652083135858966"><ele>875.0</ele><time>2026-04-14T09:25:28Z</time></trkpt><trkpt lat="44.018828679750726" lon="11.651956812931866"><ele>870.8</ele><time>2026-04-14T09:25:29Z</time></trkpt><trkpt lat="44.018872305687296" lon="11.65183572589296"><ele>866.6</ele><time>2026-04-14T09:25:30Z</time></trkpt><trkpt lat="44.01893142431587" lon="11.65172411742866"><ele>862.4000000000001</ele><time>2026-04-14T09:25:31Z</time></trkpt><trkpt lat="44.01900754812062" lon="11.651625120647992"><ele>858.2</ele><time>2026-04-14T09:25:32Z</time></trkpt><trkpt lat="44.01909754922879" lon="11.651549279069359"><ele>854.0</ele><time>2026-04-14T09:25:33Z</time></trkpt><trkpt lat="44.01919165567902" lon="11.651482035448897"><ele>854.0</ele><time>2026-04-14T09:25:34Z</time></trkpt><trkpt lat="44.019280750086025" lon="11.65139808548336"><ele>854.0000000000001</ele><time>2026-04-14T09:25:35Z</time></trkpt><trkpt lat="44.019357080294206" lon="11.651291147122405"><ele>854.0000000000001</ele><time>2026-04-14T09:25:36Z</time></trkpt><trkpt lat="44.01942278328763" lon="11.651168930065573"><ele>854.0</ele><time>2026-04-14T09:25:37Z</time></trkpt><trkpt lat="44.01948884888261" lon="11.651046781750159"><ele>854.0</ele><time>2026-04-14T09:25:38Z</time></trkpt><trkpt lat="44.019574606178374" lon="11.650945809540318"><ele>851.4000000000001</ele><time>2026-04-14T09:25:39Z</time></trkpt><trkpt lat="44.01968085382728" lon="11.650893881888264"><ele>848.8000000000001</ele><time>2026-04-14T09:25:40Z</time></trkpt><trkpt lat="44.019778104671246" lon="11.650880826809928"><ele>846.2</ele><time>2026-04-14T09:25:41Z</time></trkpt><trkpt lat="44.019861612998774" lon="11.650877814608412"><ele>843.5999999999999</ele><time>2026-04-14T09:25:42Z</time></trkpt><trkpt lat="44.01993467270548" lon="11.650853368170177"><ele>841.0</ele><time>2026-04-14T09:25:43Z</time></trkpt><trkpt lat="44.020005495699124" lon="11.6507842499788"><ele>841.0</ele><time>2026-04-14T09:25:44Z</time></trkpt><trkpt lat="44.020060883389164" lon="11.650690313020835"><ele>841.0</ele><time>2026-04-14T09:25:45Z</time></trkpt><trkpt lat="44.02009448840315" lon="11.650576141129227"><ele>841.0</ele><time>2026-04-14T09:25:46Z</time></trkpt><trkpt lat="44.02011724315639" lon="11.650452090184949"><ele>841.0</ele><time>2026-04-14T09:25:47Z</time></trkpt><trkpt lat="44.02015011074503" lon="11.650330668288202"><ele>841.0</ele><time>2026-04-14T09:25:48Z</time></trkpt><trkpt lat="44.020218414017066" lon="11.65023876907623"><ele>846.8</ele><time>2026-04-14T09:25:49Z</time></trkpt><trkpt lat="44.02030806118276" lon="11.650191935236002"><ele>852.5999999999999</ele><time>2026-04-14T09:25:50Z</time></trkpt><trkpt lat="44.02039523413289" lon="11.650177700135522"><ele>858.4</ele><time>2026-04-14T09:25:51Z</time></trkpt><trkpt lat="44.02048625534616" lon="11.650144786858277"><ele>864.2</ele><time>2026-04-14T09:25:52Z</time></trkpt><trkpt lat="44.0205682130936" lon="11.650084231729346"><ele>870.0</ele><time>2026-04-14T09:25:53Z</time></trkpt><trkpt lat="44.020622699887994" lon="11.64996437839181"><ele>870.0</ele><time>2026-04-14T09:25:54Z</time></trkpt><trkpt lat="44.020676664993594" lon="11.649857003849515"><ele>870.0</ele><time>2026-04-14T09:25:55Z</time></trkpt><trkpt lat="44.0207318358712" lon="11.64975318208857"><ele>870.0</ele><time>2026-04-14T09:25:56Z</time></trkpt><trkpt lat="44.0207594673055" lon="11.649629648261824"><ele>870.0</ele><time>2026-04-14T09:25:57Z</time></trkpt><trkpt lat="44.02075601837841" lon="11.64949460078611"><ele>870.0</ele><time>2026-04-14T09:25:58Z</time></trkpt><trkpt lat="44.02069612454316" lon="11.64938041241087"><ele>870.8</ele><time>2026-04-14T09:25:59Z</time></trkpt><trkpt lat="44.02064721947999" lon="11.649262510868462"><ele>871.6</ele><time>2026-04-14T09:26:00Z</time></trkpt><trkpt lat="44.020593927405876" lon="11.649140835095713"><ele>872.4000000000001</ele><time>2026-04-14T09:26:01Z</time></trkpt><trkpt lat="44.02053939436508" lon="11.649015121217031"><ele>873.2</ele><time>2026-04-14T09:26:02Z</time></trkpt><trkpt lat="44.020489189483264" lon="11.648884503814921"><ele>874.0</ele><time>2026-04-14T09:26:03Z</time></trkpt><trkpt lat="44.02043866990722" lon="11.648753719274755"><ele>868.0</ele><time>2026-04-14T09:26:04Z</time></trkpt><trkpt lat="44.020390713628885" lon="11.648621575300348"><ele>862.0</ele><time>2026-04-14T09:26:05Z</time></trkpt><trkpt lat="44.02033938335609" lon="11.648487960477787"><ele>856.0</ele><time>2026-04-14T09:26:06Z</time></trkpt><trkpt lat="44.02027521110073" lon="11.648354219756486"><ele>850.0</ele><time>2026-04-14T09:26:07Z</time></trkpt><trkpt lat="44.02019530155432" lon="11.648226787376396"><ele>850.0</ele><time>2026-04-14T09:26:08Z</time></trkpt><trkpt lat="44.02011082891652" lon="11.648113715882188"><ele>850.0</ele><time>2026-04-14T09:26:09Z</time></trkpt><trkpt lat="44.0200242529651" lon="11.648015280678147"><ele>850.0</ele><time>2026-04-14T09:26:10Z</time></trkpt><trkpt lat="44.0199426550765" lon="11.647919681297282"><ele>850.0</ele><time>2026-04-14T09:26:11Z</time></trkpt><trkpt lat="44.01988474289749" lon="11.647822334740267"><ele>850.0</ele><time>2026-04-14T09:26:12Z</time></trkpt><trkpt lat="44.01985808417114" lon="11.647698277889255"><ele>849.0</ele><time>2026-04-14T09:26:13Z</time></trkpt><trkpt lat="44.01986568585004" lon="11.647573095389651"><ele>848.0</ele><time>2026-04-14T09:26:14Z</time></trkpt><trkpt lat="44.01990471238138" lon="11.647468748539424"><ele>847.0</ele><time>2026-04-14T09:26:15Z</time></trkpt><trkpt lat="44.01997084748991" lon="11.647384845146322"><ele>846.0</ele><time>2026-04-14T09:26:16Z</time></trkpt><trkpt lat="44.02005299625284" lon="11.647316988438241"><ele>845.0</ele><time>2026-04-14T09:26:17Z</time></trkpt><trkpt lat="44.02014660480533" lon="11.647258380706408"><ele>845.0</ele><time>2026-04-14T09:26:18Z</time></trkpt><trkpt lat="44.02024323597755" lon="11.647199878895865"><ele>845.0</ele><time>2026-04-14T09:26:19Z</time></trkpt><trkpt lat="44.020336682222805" lon="11.647148075815997"><ele>845.0</ele><time>2026-04-14T09:26:20Z</time></trkpt><trkpt lat="44.02042498321173" lon="11.647128458853148"><ele>845.0</ele><time>2026-04-14T09:26:21Z</time></trkpt><trkpt lat="44.02051851801344" lon="11.647148920033683"><ele>845.0</ele><time>2026-04-14T09:26:22Z</time></trkpt><trkpt lat="44.02061746514985" lon="11.647202140661848"><ele>845.0</ele><time>2026-04-14T09:26:23Z</time></trkpt><trkpt lat="44.02072469107934" lon="11.647260537648336"><ele>845.0</ele><time>2026-04-14T09:26:24Z</time></trkpt><trkpt lat="44.020836823302474" lon="11.647320312689434"><ele>845.0</ele><time>2026-04-14T09:26:25Z</time></trkpt><trkpt lat="44.02095709546668" lon="11.647387221680459"><ele>845.0</ele><time>2026-04-14T09:26:26Z</time></trkpt><trkpt lat="44.021066641446346" lon="11.64744655015524"><ele>843.6666666666667</ele><time>2026-04-14T09:26:27Z</time></trkpt><trkpt lat="44.0211611332771" lon="11.64749960938939"><ele>842.3333333333334</ele><time>2026-04-14T09:26:28Z</time></trkpt><trkpt lat="44.02124851668747" lon="11.647528215789926"><ele>841.0</ele><time>2026-04-14T09:26:29Z</time></trkpt><trkpt lat="44.02131893344504" lon="11.64749649982414"><ele>839.6666666666667</ele><time>2026-04-14T09:26:30Z</time></trkpt><trkpt lat="44.021365065313354" lon="11.647418336672532"><ele>838.3333333333334</ele><time>2026-04-14T09:26:31Z</time></trkpt><trkpt lat="44.0213986910834" lon="11.647306888892073"><ele>837.0</ele><time>2026-04-14T09:26:32Z</time></trkpt><trkpt lat="44.021444371777385" lon="11.647197507367057"><ele>837.0</ele><time>2026-04-14T09:26:33Z</time></trkpt><trkpt lat="44.02149305750059" lon="11.647110729561065"><ele>837.0</ele><time>2026-04-14T09:26:34Z</time></trkpt><trkpt lat="44.021560143935815" lon="11.647046428726034"><ele>837.0</ele><time>2026-04-14T09:26:35Z</time></trkpt><trkpt lat="44.021647298397916" lon="11.647055803773753"><ele>837.0</ele><time>2026-04-14T09:26:36Z</time></trkpt><trkpt lat="44.021732212653156" lon="11.647092069002166"><ele>837.0</ele><time>2026-04-14T09:26:37Z</time></trkpt><trkpt lat="44.02182040865214" lon="11.647132990142484"><ele>837.0</ele><time>2026-04-14T09:26:38Z</time></trkpt><trkpt lat="44.021930457226" lon="11.647142067138201"><ele>839.75</ele><time>2026-04-14T09:26:39Z</time></trkpt><trkpt lat="44.02205666841386" lon="11.647122515231416"><ele>842.5</ele><time>2026-04-14T09:26:40Z</time></trkpt><trkpt lat="44.02217976809883" lon="11.647101549339823"><ele>845.25</ele><time>2026-04-14T09:26:41Z</time></trkpt><trkpt lat="44.0222910946259" lon="11.647081230985902"><ele>848.0</ele><time>2026-04-14T09:26:42Z</time></trkpt><trkpt lat="44.02238871731743" lon="11.647058201558663"><ele>848.0</ele><time>2026-04-14T09:26:43Z</time></trkpt><trkpt lat="44.02247810178409" lon="11.647027425726192"><ele>848.0</ele><time>2026-04-14T09:26:44Z</time></trkpt><trkpt lat="44.022557405370726" lon="11.646964856814616"><ele>848.0</ele><time>2026-04-14T09:26:45Z</time></trkpt><trkpt lat="44.02261976388898" lon="11.646869873996431"><ele>848.0</ele><time>2026-04-14T09:26:46Z</time></trkpt><trkpt lat="44.02269902665302" lon="11.646797708204627"><ele>848.0</ele><time>2026-04-14T09:26:47Z</time></trkpt><trkpt lat="44.02278039745646" lon="11.646728820007771"><ele>854.4</ele><time>2026-04-14T09:26:48Z</time></trkpt><trkpt lat="44.02287153925112" lon="11.646689338427946"><ele>860.8</ele><time>2026-04-14T09:26:49Z</time></trkpt><trkpt lat="44.02296887001306" lon="11.646648212377052"><ele>867.2</ele><time>2026-04-14T09:26:50Z</time></trkpt><trkpt lat="44.02304369381552" lon="11.646531515346714"><ele>873.6</ele><time>2026-04-14T09:26:51Z</time></trkpt><trkpt lat="44.023103876874245" lon="11.646404491327736"><ele>880.0</ele><time>2026-04-14T09:26:52Z</time></trkpt><trkpt lat="44.023149497811104" lon="11.646265540728617"><ele>881.0</ele><time>2026-04-14T09:26:53Z</time></trkpt><trkpt lat="44.023183361739164" lon="11.646128280721245"><ele>882.0</ele><time>2026-04-14T09:26:54Z</time></trkpt><trkpt lat="44.02320634498521" lon="11.645995960249238"><ele>883.0</ele><time>2026-04-14T09:26:55Z</time></trkpt><trkpt lat="44.02323802691359" lon="11.645889174155998"><ele>884.0</ele><time>2026-04-14T09:26:56Z</time></trkpt><trkpt lat="44.02328568373538" lon="11.645777853785471"><ele>885.0</ele><time>2026-04-14T09:26:57Z</time></trkpt><trkpt lat="44.02338358819552" lon="11.645729609483027"><ele>885.0</ele><time>2026-04-14T09:26:58Z</time></trkpt><trkpt lat="44.023482559652955" lon="11.645680420993134"><ele>885.0</ele><time>2026-04-14T09:26:59Z</time></trkpt><trkpt lat="44.02358981899849" lon="11.645614323131756"><ele>885.0</ele><time>2026-04-14T09:27:00Z</time></trkpt><trkpt lat="44.0237058459268" lon="11.645561944380168"><ele>885.0</ele><time>2026-04-14T09:27:01Z</time></trkpt><trkpt lat="44.02381873776069" lon="11.645502472474291"><ele>885.0</ele><time>2026-04-14T09:27:02Z</time></trkpt><trkpt lat="44.023915052253436" lon="11.645450943379162"><ele>885.0</ele><time>2026-04-14T09:27:03Z</time></trkpt><trkpt lat="44.02400721119621" lon="11.64543414469278"><ele>885.0</ele><time>2026-04-14T09:27:04Z</time></trkpt><trkpt lat="44.024080757813145" lon="11.645394786701107"><ele>885.0</ele><time>2026-04-14T09:27:05Z</time></trkpt><trkpt lat="44.024209553820604" lon="11.645649621556954"><ele>885.8</ele><time>2026-04-14T09:27:07Z</time></trkpt><trkpt lat="44.02423459046934" lon="11.64577309049552"><ele>886.6</ele><time>2026-04-14T09:27:08Z</time></trkpt><trkpt lat="44.024250899686116" lon="11.645914495896863"><ele>887.4000000000001</ele><time>2026-04-14T09:27:09Z</time></trkpt><trkpt lat="44.02426661513827" lon="11.646062961791214"><ele>888.2</ele><time>2026-04-14T09:27:10Z</time></trkpt><trkpt lat="44.024285486915836" lon="11.646201015052768"><ele>889.0</ele><time>2026-04-14T09:27:11Z</time></trkpt><trkpt lat="44.024312418502355" lon="11.646336130332505"><ele>885.4000000000001</ele><time>2026-04-14T09:27:12Z</time></trkpt><trkpt lat="44.024351232073734" lon="11.646464370941048"><ele>881.8000000000001</ele><time>2026-04-14T09:27:13Z</time></trkpt><trkpt lat="44.02439886131983" lon="11.646589167493069"><ele>878.1999999999999</ele><time>2026-04-14T09:27:14Z</time></trkpt><trkpt lat="44.02444502424055" lon="11.646706295581891"><ele>874.5999999999999</ele><time>2026-04-14T09:27:15Z</time></trkpt><trkpt lat="44.02449013204566" lon="11.646813360829707"><ele>871.0</ele><time>2026-04-14T09:27:16Z</time></trkpt><trkpt lat="44.024539274969996" lon="11.646904789334899"><ele>870.9999999999999</ele><time>2026-04-14T09:27:17Z</time></trkpt><trkpt lat="44.024595890350945" lon="11.646969963937314"><ele>871.0</ele><time>2026-04-14T09:27:18Z</time></trkpt><trkpt lat="44.02465928166886" lon="11.646996694105768"><ele>871.0</ele><time>2026-04-14T09:27:19Z</time></trkpt><trkpt lat="44.02472463207776" lon="11.646985821868327"><ele>871.0</ele><time>2026-04-14T09:27:20Z</time></trkpt><trkpt lat="44.02478840744781" lon="11.646917351896347"><ele>870.9999999999999</ele><time>2026-04-14T09:27:21Z</time></trkpt><trkpt lat="44.02485007294441" lon="11.646823603148148"><ele>871.0</ele><time>2026-04-14T09:27:22Z</time></trkpt><trkpt lat="44.02492158061231" lon="11.64670293673429"><ele>875.4</ele><time>2026-04-14T09:27:23Z</time></trkpt><trkpt lat="44.02499998681329" lon="11.64658681178547"><ele>879.8</ele><time>2026-04-14T09:27:24Z</time></trkpt><trkpt lat="44.025079273008245" lon="11.646489294704814"><ele>884.1999999999999</ele><time>2026-04-14T09:27:25Z</time></trkpt><trkpt lat="44.025166027417846" lon="11.64642501240573"><ele>888.5999999999999</ele><time>2026-04-14T09:27:26Z</time></trkpt><trkpt lat="44.0252497305618" lon="11.646362484855013"><ele>893.0</ele><time>2026-04-14T09:27:27Z</time></trkpt><trkpt lat="44.025320524908956" lon="11.646273821309357"><ele>893.0</ele><time>2026-04-14T09:27:28Z</time></trkpt><trkpt lat="44.02538228888256" lon="11.646169410516693"><ele>893.0</ele><time>2026-04-14T09:27:29Z</time></trkpt><trkpt lat="44.02546273956413" lon="11.646079127420753"><ele>893.0</ele><time>2026-04-14T09:27:30Z</time></trkpt><trkpt lat="44.025558243131755" lon="11.646023595202161"><ele>893.0</ele><time>2026-04-14T09:27:31Z</time></trkpt><trkpt lat="44.02565771822038" lon="11.646018989189008"><ele>893.0</ele><time>2026-04-14T09:27:32Z</time></trkpt><trkpt lat="44.025751677960926" lon="11.646056511046712"><ele>896.0000000000001</ele><time>2026-04-14T09:27:33Z</time></trkpt><trkpt lat="44.02584711976323" lon="11.646090706654427"><ele>899.0</ele><time>2026-04-14T09:27:34Z</time></trkpt><trkpt lat="44.02593564187779" lon="11.646108366821732"><ele>902.0</ele><time>2026-04-14T09:27:35Z</time></trkpt><trkpt lat="44.02600950806706" lon="11.646103243472876"><ele>905.0</ele><time>2026-04-14T09:27:36Z</time></trkpt><trkpt lat="44.026076506738086" lon="11.64607720847302"><ele>908.0000000000001</ele><time>2026-04-14T09:27:37Z</time></trkpt><trkpt lat="44.02612957782162" lon="11.646011772687128"><ele>911.0</ele><time>2026-04-14T09:27:38Z</time></trkpt><trkpt lat="44.0261666284769" lon="11.645912852759844"><ele>911.0000000000001</ele><time>2026-04-14T09:27:39Z</time></trkpt><trkpt lat="44.02618383700885" lon="11.645796794804703"><ele>911.0</ele><time>2026-04-14T09:27:40Z</time></trkpt><trkpt lat="44.02620326989829" lon="11.645673122855518"><ele>911.0</ele><time>2026-04-14T09:27:41Z</time></trkpt><trkpt lat="44.0262404678852" lon="11.64556599091082"><ele>911.0</ele><time>2026-04-14T09:27:42Z</time></trkpt><trkpt lat="44.026307960797155" lon="11.64548335438613"><ele>911.0000000000001</ele><time>2026-04-14T09:27:43Z</time></trkpt><trkpt lat="44.02639534943494" lon="11.645424263401084"><ele>911.0</ele><time>2026-04-14T09:27:44Z</time></trkpt><trkpt lat="44.02648261739078" lon="11.645370599870065"><ele>910.1999999999999</ele><time>2026-04-14T09:27:45Z</time></trkpt><trkpt lat="44.026547017434055" lon="11.645292296780857"><ele>909.3999999999999</ele><time>2026-04-14T09:27:46Z</time></trkpt><trkpt lat="44.02658654152886" lon="11.645171670867644"><ele>908.6</ele><time>2026-04-14T09:27:47Z</time></trkpt><trkpt lat="44.026618096390365" lon="11.6450445128556"><ele>907.8</ele><time>2026-04-14T09:27:48Z</time></trkpt><trkpt lat="44.02666729259721" lon="11.644928574669759"><ele>907.0</ele><time>2026-04-14T09:27:49Z</time></trkpt><trkpt lat="44.026744767350415" lon="11.644842564257035"><ele>907.0</ele><time>2026-04-14T09:27:50Z</time></trkpt><trkpt lat="44.02683578199127" lon="11.644785476998416"><ele>907.0</ele><time>2026-04-14T09:27:51Z</time></trkpt><trkpt lat="44.02693527582952" lon="11.644746000802096"><ele>907.0</ele><time>2026-04-14T09:27:52Z</time></trkpt><trkpt lat="44.02703656614774" lon="11.64471436183217"><ele>907.0</ele><time>2026-04-14T09:27:53Z</time></trkpt><trkpt lat="44.02713508042677" lon="11.644686064987651"><ele>907.0</ele><time>2026-04-14T09:27:54Z</time></trkpt><trkpt lat="44.02723358392849" lon="11.64465833058095"><ele>907.0</ele><time>2026-04-14T09:27:55Z</time></trkpt><trkpt lat="44.02733046668438" lon="11.644628882329393"><ele>907.0</ele><time>2026-04-14T09:27:56Z</time></trkpt><trkpt lat="44.027422830447" lon="11.644603661489272"><ele>907.0</ele><time>2026-04-14T09:27:57Z</time></trkpt><trkpt lat="44.02751663840145" lon="11.644564650207066"><ele>907.0</ele><time>2026-04-14T09:27:58Z</time></trkpt><trkpt lat="44.02761307784889" lon="11.644507413210114"><ele>907.0</ele><time>2026-04-14T09:27:59Z</time></trkpt><trkpt lat="44.02771388613932" lon="11.644449460092511"><ele>910.2</ele><time>2026-04-14T09:28:00Z</time></trkpt><trkpt lat="44.02781058151588" lon="11.644405671745295"><ele>913.4000000000001</ele><time>2026-04-14T09:28:01Z</time></trkpt><trkpt lat="44.02791161006213" lon="11.644396575851133"><ele>916.5999999999999</ele><time>2026-04-14T09:28:02Z</time></trkpt><trkpt lat="44.02800962358704" lon="11.644408839938723"><ele>919.8</ele><time>2026-04-14T09:28:03Z</time></trkpt><trkpt lat="44.02810630228503" lon="11.644421944838907"><ele>923.0</ele><time>2026-04-14T09:28:04Z</time></trkpt><trkpt lat="44.02820571683788" lon="11.644431510315153"><ele>923.0</ele><time>2026-04-14T09:28:05Z</time></trkpt><trkpt lat="44.028304812593056" lon="11.644438222328567"><ele>923.0</ele><time>2026-04-14T09:28:06Z</time></trkpt><trkpt lat="44.028401499174684" lon="11.644446818981923"><ele>923.0</ele><time>2026-04-14T09:28:07Z</time></trkpt><trkpt lat="44.02849484839408" lon="11.644491244623033"><ele>923.0</ele><time>2026-04-14T09:28:08Z</time></trkpt><trkpt lat="44.02856944521477" lon="11.644574135587392"><ele>923.0</ele><time>2026-04-14T09:28:09Z</time></trkpt><trkpt lat="44.028641405418504" lon="11.644671525800211"><ele>921.8</ele><time>2026-04-14T09:28:10Z</time></trkpt><trkpt lat="44.02871921896294" lon="11.644754584803609"><ele>920.5999999999999</ele><time>2026-04-14T09:28:11Z</time></trkpt><trkpt lat="44.02880672491389" lon="11.64480309891284"><ele>919.4000000000001</ele><time>2026-04-14T09:28:12Z</time></trkpt><trkpt lat="44.028909699928974" lon="11.644813225753515"><ele>918.2</ele><time>2026-04-14T09:28:13Z</time></trkpt><trkpt lat="44.02902086886249" lon="11.644798747017699"><ele>917.0</ele><time>2026-04-14T09:28:14Z</time></trkpt><trkpt lat="44.029134945380456" lon="11.644768313339965"><ele>918.2</ele><time>2026-04-14T09:28:15Z</time></trkpt><trkpt lat="44.02925022329827" lon="11.644746743470217"><ele>919.4000000000001</ele><time>2026-04-14T09:28:16Z</time></trkpt><trkpt lat="44.02935721060216" lon="11.644731892755514"><ele>920.5999999999999</ele><time>2026-04-14T09:28:17Z</time></trkpt><trkpt lat="44.02945824208513" lon="11.644712371320251"><ele>921.8</ele><time>2026-04-14T09:28:18Z</time></trkpt><trkpt lat="44.029556685328515" lon="11.644688246934392"><ele>923.0</ele><time>2026-04-14T09:28:19Z</time></trkpt><trkpt lat="44.02965839946619" lon="11.644641374373126"><ele>923.0</ele><time>2026-04-14T09:28:20Z</time></trkpt><trkpt lat="44.02976102435943" lon="11.644561900587782"><ele>923.0</ele><time>2026-04-14T09:28:21Z</time></trkpt><trkpt lat="44.029862454142545" lon="11.6444752419623"><ele>923.0</ele><time>2026-04-14T09:28:22Z</time></trkpt><trkpt lat="44.029957927217446" lon="11.64437898246716"><ele>923.0</ele><time>2026-04-14T09:28:23Z</time></trkpt><trkpt lat="44.030048430317244" lon="11.64428350624436"><ele>923.2</ele><time>2026-04-14T09:28:24Z</time></trkpt><trkpt lat="44.03013346307231" lon="11.644188290791385"><ele>923.4</ele><time>2026-04-14T09:28:25Z</time></trkpt><trkpt lat="44.030217663243484" lon="11.644098195462155"><ele>923.6000000000001</ele><time>2026-04-14T09:28:26Z</time></trkpt><trkpt lat="44.03030037606499" lon="11.644007936776836"><ele>923.8000000000001</ele><time>2026-04-14T09:28:27Z</time></trkpt><trkpt lat="44.030385358222766" lon="11.64391108356978"><ele>924.0</ele><time>2026-04-14T09:28:28Z</time></trkpt><trkpt lat="44.030462931546104" lon="11.64379612389083"><ele>924.0</ele><time>2026-04-14T09:28:29Z</time></trkpt><trkpt lat="44.030521482845344" lon="11.643652316057842"><ele>924.0</ele><time>2026-04-14T09:28:30Z</time></trkpt><trkpt lat="44.03056035060613" lon="11.643501273701052"><ele>924.0</ele><time>2026-04-14T09:28:31Z</time></trkpt><trkpt lat="44.03057939677716" lon="11.643340735757285"><ele>924.0</ele><time>2026-04-14T09:28:32Z</time></trkpt><trkpt lat="44.03057947389875" lon="11.643179708388436"><ele>921.8000000000001</ele><time>2026-04-14T09:28:33Z</time></trkpt><trkpt lat="44.03057022169211" lon="11.643022562287067"><ele>919.6000000000001</ele><time>2026-04-14T09:28:34Z</time></trkpt><trkpt lat="44.030564737192435" lon="11.642868949445766"><ele>917.4</ele><time>2026-04-14T09:28:35Z</time></trkpt><trkpt lat="44.03056069280901" lon="11.642713933448144"><ele>915.2</ele><time>2026-04-14T09:28:36Z</time></trkpt><trkpt lat="44.03055688900014" lon="11.642557332027918"><ele>913.0</ele><time>2026-04-14T09:28:37Z</time></trkpt><trkpt lat="44.03055011138098" lon="11.642407295648667"><ele>912.2</ele><time>2026-04-14T09:28:38Z</time></trkpt><trkpt lat="44.030536150958206" lon="11.642260509541323"><ele>911.4</ele><time>2026-04-14T09:28:39Z</time></trkpt><trkpt lat="44.030512727209484" lon="11.642114077100203"><ele>910.6000000000001</ele><time>2026-04-14T09:28:40Z</time></trkpt><trkpt lat="44.03048464679698" lon="11.64196644470732"><ele>909.8000000000001</ele><time>2026-04-14T09:28:41Z</time></trkpt><trkpt lat="44.03044793207177" lon="11.641824091056826"><ele>909.0</ele><time>2026-04-14T09:28:42Z</time></trkpt><trkpt lat="44.03040393660784" lon="11.641691428904194"><ele>909.0</ele><time>2026-04-14T09:28:43Z</time></trkpt><trkpt lat="44.03035282606757" lon="11.641557629344534"><ele>909.0000000000001</ele><time>2026-04-14T09:28:44Z</time></trkpt><trkpt lat="44.03029520064485" lon="11.64142905935369"><ele>909.0000000000001</ele><time>2026-04-14T09:28:45Z</time></trkpt><trkpt lat="44.030233196386305" lon="11.641312340459905"><ele>909.0</ele><time>2026-04-14T09:28:46Z</time></trkpt><trkpt lat="44.03018803475124" lon="11.64122455327811"><ele>909.0</ele><time>2026-04-14T09:28:47Z</time></trkpt><trkpt lat="44.03014078276223" lon="11.641117834861236"><ele>909.0</ele><time>2026-04-14T09:28:49Z</time></trkpt><trkpt lat="44.030084768190235" lon="11.64116710377896"><ele>909.0</ele><time>2026-04-14T09:30:19Z</time></trkpt><trkpt lat="44.03010157292947" lon="11.641055957975704"><ele>909.0</ele><time>2026-04-14T09:31:34Z</time></trkpt><trkpt lat="44.03006450696677" lon="11.640942705368118"><ele>909.0</ele><time>2026-04-14T09:31:36Z</time></trkpt><trkpt lat="44.03011845127177" lon="11.640812088539171"><ele>909.0</ele><time>2026-04-14T09:31:38Z</time></trkpt><trkpt lat="44.03017568727706" lon="11.640770650859508"><ele>909.0</ele><time>2026-04-14T09:31:39Z</time></trkpt><trkpt lat="44.03023958060398" lon="11.64078006616645"><ele>909.0</ele><time>2026-04-14T09:31:40Z</time></trkpt><trkpt lat="44.030298163385105" lon="11.640822841981924"><ele>909.0</ele><time>2026-04-14T09:31:41Z</time></trkpt><trkpt lat="44.030355813947835" lon="11.640914514748987"><ele>909.0</ele><time>2026-04-14T09:31:42Z</time></trkpt><trkpt lat="44.03040088106488" lon="11.641022688572034"><ele>909.0</ele><time>2026-04-14T09:31:43Z</time></trkpt><trkpt lat="44.03044019190447" lon="11.641141038267584"><ele>909.0</ele><time>2026-04-14T09:31:44Z</time></trkpt><trkpt lat="44.03047962705566" lon="11.64125554266419"><ele>909.0</ele><time>2026-04-14T09:31:45Z</time></trkpt><trkpt lat="44.03053055299436" lon="11.64136349150325"><ele>909.0</ele><time>2026-04-14T09:31:46Z</time></trkpt><trkpt lat="44.030578598784615" lon="11.641464759240742"><ele>909.0000000000001</ele><time>2026-04-14T09:31:47Z</time></trkpt><trkpt lat="44.03065878113025" lon="11.64153448376844"><ele>909.0000000000001</ele><time>2026-04-14T09:31:48Z</time></trkpt><trkpt lat="44.03075729906806" lon="11.641573238776154"><ele>909.0</ele><time>2026-04-14T09:31:49Z</time></trkpt><trkpt lat="44.0308686783098" lon="11.64158878386491"><ele>909.0</ele><time>2026-04-14T09:31:50Z</time></trkpt><trkpt lat="44.03098579987442" lon="11.641596884063524"><ele>911.0</ele><time>2026-04-14T09:31:51Z</time></trkpt><trkpt lat="44.03110756220303" lon="11.641603690166795"><ele>913.0</ele><time>2026-04-14T09:31:52Z</time></trkpt><trkpt lat="44.03123413668683" lon="11.64161061151128"><ele>915.0</ele><time>2026-04-14T09:31:53Z</time></trkpt><trkpt lat="44.03136342712062" lon="11.641616928586897"><ele>917.0</ele><time>2026-04-14T09:31:54Z</time></trkpt><trkpt lat="44.03148558567275" lon="11.641626907396217"><ele>917.0000000000001</ele><time>2026-04-14T09:31:55Z</time></trkpt><trkpt lat="44.03158930977954" lon="11.641626690977567"><ele>917.0</ele><time>2026-04-14T09:31:56Z</time></trkpt><trkpt lat="44.03168344117951" lon="11.641625163002184"><ele>917.0</ele><time>2026-04-14T09:31:57Z</time></trkpt><trkpt lat="44.03175670207512" lon="11.641587636932064"><ele>917.0</ele><time>2026-04-14T09:31:58Z</time></trkpt><trkpt lat="44.03181129592361" lon="11.641514349469604"><ele>917.0000000000001</ele><time>2026-04-14T09:31:59Z</time></trkpt><trkpt lat="44.03184527357744" lon="11.641401466548544"><ele>917.0</ele><time>2026-04-14T09:32:00Z</time></trkpt><trkpt lat="44.031880056571104" lon="11.64126401196286"><ele>911.6</ele><time>2026-04-14T09:32:01Z</time></trkpt><trkpt lat="44.031920922335665" lon="11.641126076123754"><ele>906.2</ele><time>2026-04-14T09:32:02Z</time></trkpt><trkpt lat="44.03196539571269" lon="11.640990088099453"><ele>900.8</ele><time>2026-04-14T09:32:03Z</time></trkpt><trkpt lat="44.032009873435435" lon="11.640851081579818"><ele>895.4</ele><time>2026-04-14T09:32:04Z</time></trkpt><trkpt lat="44.032054211861436" lon="11.640705573080028"><ele>890.0</ele><time>2026-04-14T09:32:05Z</time></trkpt><trkpt lat="44.032107618024135" lon="11.640563014963595"><ele>890.0</ele><time>2026-04-14T09:32:06Z</time></trkpt><trkpt lat="44.03217413870179" lon="11.64043257591087"><ele>890.0</ele><time>2026-04-14T09:32:07Z</time></trkpt><trkpt lat="44.03224291149851" lon="11.640302935445954"><ele>890.0</ele><time>2026-04-14T09:32:08Z</time></trkpt><trkpt lat="44.03232217831717" lon="11.640191488544524"><ele>890.0</ele><time>2026-04-14T09:32:09Z</time></trkpt><trkpt lat="44.032414925618454" lon="11.640112882872542"><ele>888.25</ele><time>2026-04-14T09:32:10Z</time></trkpt><trkpt lat="44.032518761860224" lon="11.640057595793976"><ele>886.5</ele><time>2026-04-14T09:32:11Z</time></trkpt><trkpt lat="44.03263430695116" lon="11.640029707288473"><ele>884.75</ele><time>2026-04-14T09:32:12Z</time></trkpt><trkpt lat="44.03274835928593" lon="11.640008154032735"><ele>883.0</ele><time>2026-04-14T09:32:13Z</time></trkpt><trkpt lat="44.03286056738932" lon="11.639988599440537"><ele>883.0</ele><time>2026-04-14T09:32:14Z</time></trkpt><trkpt lat="44.03297151848653" lon="11.639967300422839"><ele>883.0</ele><time>2026-04-14T09:32:15Z</time></trkpt><trkpt lat="44.03308256938611" lon="11.639940678882592"><ele>883.0</ele><time>2026-04-14T09:32:16Z</time></trkpt><trkpt lat="44.033198868909146" lon="11.639922018242688"><ele>883.0</ele><time>2026-04-14T09:32:17Z</time></trkpt><trkpt lat="44.033310910847085" lon="11.639903105539329"><ele>883.4999999999999</ele><time>2026-04-14T09:32:18Z</time></trkpt><trkpt lat="44.03341580200087" lon="11.639885945617529"><ele>884.0</ele><time>2026-04-14T09:32:19Z</time></trkpt><trkpt lat="44.03350672332982" lon="11.639868894559736"><ele>884.5</ele><time>2026-04-14T09:32:20Z</time></trkpt><trkpt lat="44.0335868289927" lon="11.639832068698894"><ele>885.0</ele><time>2026-04-14T09:32:21Z</time></trkpt><trkpt lat="44.03364451869234" lon="11.639759763601969"><ele>885.4999999999999</ele><time>2026-04-14T09:32:22Z</time></trkpt><trkpt lat="44.03366816602945" lon="11.639658498721111"><ele>886.0</ele><time>2026-04-14T09:32:23Z</time></trkpt><trkpt lat="44.03368368368513" lon="11.639552866293673"><ele>882.1999999999999</ele><time>2026-04-14T09:32:24Z</time></trkpt><trkpt lat="44.0336393169214" lon="11.639445604564221"><ele>878.3999999999999</ele><time>2026-04-14T09:32:25Z</time></trkpt><trkpt lat="44.0335466007484" lon="11.639383201860614"><ele>874.6</ele><time>2026-04-14T09:32:26Z</time></trkpt><trkpt lat="44.033445158662595" lon="11.63938169414785"><ele>870.8</ele><time>2026-04-14T09:32:27Z</time></trkpt><trkpt lat="44.03333794198641" lon="11.639380148269506"><ele>867.0</ele><time>2026-04-14T09:32:28Z</time></trkpt><trkpt lat="44.03322239856586" lon="11.639377723435535"><ele>864.75</ele><time>2026-04-14T09:32:29Z</time></trkpt><trkpt lat="44.033103723705096" lon="11.639373749719402"><ele>862.5</ele><time>2026-04-14T09:32:30Z</time></trkpt><trkpt lat="44.032992643353" lon="11.639365707388787"><ele>860.25</ele><time>2026-04-14T09:32:31Z</time></trkpt><trkpt lat="44.032880927221875" lon="11.639359732804802"><ele>858.0</ele><time>2026-04-14T09:32:32Z</time></trkpt><trkpt lat="44.03277270479977" lon="11.639356389314676"><ele>858.0</ele><time>2026-04-14T09:32:33Z</time></trkpt><trkpt lat="44.0326642608381" lon="11.639362484704824"><ele>858.0</ele><time>2026-04-14T09:32:34Z</time></trkpt><trkpt lat="44.03255575583246" lon="11.639367910471154"><ele>858.0</ele><time>2026-04-14T09:32:35Z</time></trkpt><trkpt lat="44.032448071525856" lon="11.639370735823142"><ele>858.0</ele><time>2026-04-14T09:32:36Z</time></trkpt><trkpt lat="44.03235095616215" lon="11.63937480749574"><ele>858.0</ele><time>2026-04-14T09:32:37Z</time></trkpt><trkpt lat="44.032270267567206" lon="11.63936885414977"><ele>857.3333333333334</ele><time>2026-04-14T09:32:38Z</time></trkpt><trkpt lat="44.03220158596723" lon="11.639329891586817"><ele>856.6666666666667</ele><time>2026-04-14T09:32:39Z</time></trkpt><trkpt lat="44.03215546441657" lon="11.639260099533812"><ele>856.0</ele><time>2026-04-14T09:32:40Z</time></trkpt><trkpt lat="44.03214039254523" lon="11.63915850266704"><ele>855.3333333333334</ele><time>2026-04-14T09:32:41Z</time></trkpt><trkpt lat="44.03216798084748" lon="11.639056006301528"><ele>854.6666666666667</ele><time>2026-04-14T09:32:42Z</time></trkpt><trkpt lat="44.032234865429174" lon="11.638996469810504"><ele>854.0</ele><time>2026-04-14T09:32:43Z</time></trkpt><trkpt lat="44.03231586509294" lon="11.639008055578627"><ele>854.0</ele><time>2026-04-14T09:32:44Z</time></trkpt><trkpt lat="44.032400968453686" lon="11.638997340571752"><ele>854.0000000000001</ele><time>2026-04-14T09:32:45Z</time></trkpt><trkpt lat="44.03250258962796" lon="11.639004706101336"><ele>854.0000000000001</ele><time>2026-04-14T09:32:46Z</time></trkpt><trkpt lat="44.03260554200153" lon="11.638998785788973"><ele>854.0</ele><time>2026-04-14T09:32:47Z</time></trkpt><trkpt lat="44.032707228357886" lon="11.638975841346328"><ele>854.0</ele><time>2026-04-14T09:32:48Z</time></trkpt><trkpt lat="44.03280831644959" lon="11.638933545053913"><ele>854.8000000000001</ele><time>2026-04-14T09:32:49Z</time></trkpt><trkpt lat="44.03290823328366" lon="11.638881735754671"><ele>855.6000000000001</ele><time>2026-04-14T09:32:50Z</time></trkpt><trkpt lat="44.0330096247647" lon="11.638824157887674"><ele>856.4</ele><time>2026-04-14T09:32:51Z</time></trkpt><trkpt lat="44.03310831985957" lon="11.638758424980407"><ele>857.2</ele><time>2026-04-14T09:32:52Z</time></trkpt><trkpt lat="44.033201225201545" lon="11.638675122595274"><ele>858.0</ele><time>2026-04-14T09:32:53Z</time></trkpt><trkpt lat="44.03327807362032" lon="11.638559143335309"><ele>856.0</ele><time>2026-04-14T09:32:54Z</time></trkpt><trkpt lat="44.03335401850699" lon="11.638442770815718"><ele>854.0</ele><time>2026-04-14T09:32:55Z</time></trkpt><trkpt lat="44.03340114854664" lon="11.638298134887116"><ele>852.0</ele><time>2026-04-14T09:32:56Z</time></trkpt><trkpt lat="44.03343637970645" lon="11.638143540493626"><ele>850.0</ele><time>2026-04-14T09:32:57Z</time></trkpt><trkpt lat="44.033467703285126" lon="11.637989921656047"><ele>850.0</ele><time>2026-04-14T09:32:58Z</time></trkpt><trkpt lat="44.03349667662339" lon="11.63783266417324"><ele>850.0</ele><time>2026-04-14T09:32:59Z</time></trkpt><trkpt lat="44.033524747589816" lon="11.637677892612096"><ele>850.0</ele><time>2026-04-14T09:33:00Z</time></trkpt><trkpt lat="44.03353895801702" lon="11.637516157311603"><ele>850.0</ele><time>2026-04-14T09:33:01Z</time></trkpt><trkpt lat="44.03357077557241" lon="11.637360503581359"><ele>846.25</ele><time>2026-04-14T09:33:02Z</time></trkpt><trkpt lat="44.03360193981546" lon="11.63720552787493"><ele>842.5</ele><time>2026-04-14T09:33:03Z</time></trkpt><trkpt lat="44.03363562735635" lon="11.637050894272145"><ele>838.75</ele><time>2026-04-14T09:33:04Z</time></trkpt><trkpt lat="44.03367350105548" lon="11.636897774721618"><ele>835.0</ele><time>2026-04-14T09:33:05Z</time></trkpt><trkpt lat="44.03371679370995" lon="11.636745806403093"><ele>831.75</ele><time>2026-04-14T09:33:06Z</time></trkpt><trkpt lat="44.033764550930854" lon="11.636597436209094"><ele>828.5</ele><time>2026-04-14T09:33:07Z</time></trkpt><trkpt lat="44.03381183047322" lon="11.636449442387388"><ele>825.25</ele><time>2026-04-14T09:33:08Z</time></trkpt><trkpt lat="44.03385692259934" lon="11.636301658302886"><ele>822.0</ele><time>2026-04-14T09:33:09Z</time></trkpt><trkpt lat="44.03390087383187" lon="11.636154481256346"><ele>824.25</ele><time>2026-04-14T09:33:10Z</time></trkpt><trkpt lat="44.033964658714396" lon="11.636022453825895"><ele>826.5</ele><time>2026-04-14T09:33:11Z</time></trkpt><trkpt lat="44.03400992287427" lon="11.635879377333456"><ele>828.75</ele><time>2026-04-14T09:33:12Z</time></trkpt><trkpt lat="44.03408579190441" lon="11.635759370185902"><ele>831.0</ele><time>2026-04-14T09:33:13Z</time></trkpt><trkpt lat="44.03416549799541" lon="11.63564656777157"><ele>831.0</ele><time>2026-04-14T09:33:14Z</time></trkpt><trkpt lat="44.034241882256175" lon="11.635559749253938"><ele>831.0</ele><time>2026-04-14T09:33:15Z</time></trkpt><trkpt lat="44.03432024399325" lon="11.63550026888358"><ele>831.0</ele><time>2026-04-14T09:33:16Z</time></trkpt><trkpt lat="44.03440021832093" lon="11.635468893685209"><ele>831.0</ele><time>2026-04-14T09:33:17Z</time></trkpt><trkpt lat="44.034483658176875" lon="11.635505850645327"><ele>831.0</ele><time>2026-04-14T09:33:18Z</time></trkpt><trkpt lat="44.03454366354225" lon="11.635585162623684"><ele>831.0</ele><time>2026-04-14T09:33:19Z</time></trkpt><trkpt lat="44.03460050340716" lon="11.635707529508974"><ele>831.0</ele><time>2026-04-14T09:33:20Z</time></trkpt><trkpt lat="44.03464667888689" lon="11.63583780620921"><ele>831.0</ele><time>2026-04-14T09:33:21Z</time></trkpt><trkpt lat="44.03470232406023" lon="11.635960290266725"><ele>831.0</ele><time>2026-04-14T09:33:22Z</time></trkpt><trkpt lat="44.034756357260456" lon="11.636065526441428"><ele>831.0</ele><time>2026-04-14T09:33:23Z</time></trkpt><trkpt lat="44.03482100560496" lon="11.636153478219281"><ele>831.0</ele><time>2026-04-14T09:33:24Z</time></trkpt><trkpt lat="44.03490052112327" lon="11.636206568640963"><ele>828.8</ele><time>2026-04-14T09:33:25Z</time></trkpt><trkpt lat="44.03498281549268" lon="11.636212422011498"><ele>826.5999999999999</ele><time>2026-04-14T09:33:26Z</time></trkpt><trkpt lat="44.03507308188807" lon="11.636166298264225"><ele>824.4</ele><time>2026-04-14T09:33:27Z</time></trkpt><trkpt lat="44.03516324148465" lon="11.636090977088992"><ele>822.2</ele><time>2026-04-14T09:33:28Z</time></trkpt><trkpt lat="44.03525647799168" lon="11.636028048632948"><ele>820.0</ele><time>2026-04-14T09:33:29Z</time></trkpt><trkpt lat="44.03535887551301" lon="11.636014556455757"><ele>820.0</ele><time>2026-04-14T09:33:30Z</time></trkpt><trkpt lat="44.03546110172584" lon="11.636043092483892"><ele>820.0</ele><time>2026-04-14T09:33:31Z</time></trkpt><trkpt lat="44.03555693841996" lon="11.636084224522026"><ele>820.0</ele><time>2026-04-14T09:33:32Z</time></trkpt><trkpt lat="44.03566114769854" lon="11.636106869749646"><ele>820.0</ele><time>2026-04-14T09:33:33Z</time></trkpt><trkpt lat="44.03576571595206" lon="11.63609574345821"><ele>820.0</ele><time>2026-04-14T09:33:34Z</time></trkpt><trkpt lat="44.03586883887553" lon="11.636057649358975"><ele>817.6</ele><time>2026-04-14T09:33:35Z</time></trkpt><trkpt lat="44.035966606157686" lon="11.635996628419058"><ele>815.2</ele><time>2026-04-14T09:33:36Z</time></trkpt><trkpt lat="44.03606105341536" lon="11.635923042695715"><ele>812.8</ele><time>2026-04-14T09:33:37Z</time></trkpt><trkpt lat="44.036151501280486" lon="11.63586252134762"><ele>810.4</ele><time>2026-04-14T09:33:38Z</time></trkpt><trkpt lat="44.03624349114273" lon="11.635842393835317"><ele>808.0</ele><time>2026-04-14T09:33:39Z</time></trkpt><trkpt lat="44.03633745139645" lon="11.635875063722949"><ele>808.0</ele><time>2026-04-14T09:33:40Z</time></trkpt><trkpt lat="44.03642187106105" lon="11.635954994610572"><ele>808.0</ele><time>2026-04-14T09:33:41Z</time></trkpt><trkpt lat="44.036498148849" lon="11.63604515003596"><ele>808.0</ele><time>2026-04-14T09:33:42Z</time></trkpt><trkpt lat="44.03659076355683" lon="11.636101700788581"><ele>808.0</ele><time>2026-04-14T09:33:43Z</time></trkpt><trkpt lat="44.03670913894948" lon="11.636121445573401"><ele>808.0</ele><time>2026-04-14T09:33:44Z</time></trkpt><trkpt lat="44.03683288301855" lon="11.636127342744178"><ele>806.0</ele><time>2026-04-14T09:33:45Z</time></trkpt><trkpt lat="44.0369546926454" lon="11.63612128010533"><ele>804.0</ele><time>2026-04-14T09:33:46Z</time></trkpt><trkpt lat="44.03707805299667" lon="11.636130672935796"><ele>802.0</ele><time>2026-04-14T09:33:47Z</time></trkpt><trkpt lat="44.037194273806094" lon="11.63616689321284"><ele>800.0</ele><time>2026-04-14T09:33:48Z</time></trkpt><trkpt lat="44.0372901578083" lon="11.636223912486644"><ele>800.3333333333334</ele><time>2026-04-14T09:33:49Z</time></trkpt><trkpt lat="44.03737117522824" lon="11.636266610045558"><ele>800.6666666666667</ele><time>2026-04-14T09:33:50Z</time></trkpt><trkpt lat="44.0374578854253" lon="11.636287961123232"><ele>801.0</ele><time>2026-04-14T09:33:51Z</time></trkpt><trkpt lat="44.03754316245561" lon="11.63625433043412"><ele>801.3333333333333</ele><time>2026-04-14T09:33:52Z</time></trkpt><trkpt lat="44.03761285421042" lon="11.636177459504"><ele>801.6666666666666</ele><time>2026-04-14T09:33:53Z</time></trkpt><trkpt lat="44.03765464568627" lon="11.636073985882124"><ele>802.0</ele><time>2026-04-14T09:33:54Z</time></trkpt><trkpt lat="44.03766152032297" lon="11.635953729796483"><ele>802.0</ele><time>2026-04-14T09:33:55Z</time></trkpt><trkpt lat="44.03763569391069" lon="11.63580970766809"><ele>802.0</ele><time>2026-04-14T09:33:56Z</time></trkpt><trkpt lat="44.03760150628403" lon="11.635665548083997"><ele>802.0</ele><time>2026-04-14T09:33:57Z</time></trkpt><trkpt lat="44.03754358626386" lon="11.635527924291049"><ele>802.0</ele><time>2026-04-14T09:33:58Z</time></trkpt><trkpt lat="44.037469180619674" lon="11.63540936894481"><ele>802.0</ele><time>2026-04-14T09:33:59Z</time></trkpt><trkpt lat="44.037385881328724" lon="11.635319564902955"><ele>798.8</ele><time>2026-04-14T09:34:00Z</time></trkpt><trkpt lat="44.03730095416874" lon="11.635248252332623"><ele>795.6</ele><time>2026-04-14T09:34:01Z</time></trkpt><trkpt lat="44.03722743227621" lon="11.635168576522883"><ele>792.4</ele><time>2026-04-14T09:34:02Z</time></trkpt><trkpt lat="44.0371668722257" lon="11.635059431864542"><ele>789.1999999999999</ele><time>2026-04-14T09:34:03Z</time></trkpt><trkpt lat="44.03713531973718" lon="11.634919636644584"><ele>786.0</ele><time>2026-04-14T09:34:04Z</time></trkpt><trkpt lat="44.03710965303659" lon="11.634771102422288"><ele>786.0</ele><time>2026-04-14T09:34:05Z</time></trkpt><trkpt lat="44.037077843619095" lon="11.634620158776746"><ele>786.0</ele><time>2026-04-14T09:34:06Z</time></trkpt><trkpt lat="44.03704935975213" lon="11.63446427906234"><ele>786.0</ele><time>2026-04-14T09:34:07Z</time></trkpt><trkpt lat="44.03700645631776" lon="11.634309519877805"><ele>786.0</ele><time>2026-04-14T09:34:08Z</time></trkpt><trkpt lat="44.03697721839512" lon="11.634144729741873"><ele>786.5999999999999</ele><time>2026-04-14T09:34:09Z</time></trkpt><trkpt lat="44.036951845320786" lon="11.63398405314015"><ele>787.2</ele><time>2026-04-14T09:34:10Z</time></trkpt><trkpt lat="44.036928823693636" lon="11.63383945527618"><ele>787.8</ele><time>2026-04-14T09:34:11Z</time></trkpt><trkpt lat="44.03689711206283" lon="11.633704349572401"><ele>788.4000000000001</ele><time>2026-04-14T09:34:12Z</time></trkpt><trkpt lat="44.0368727296598" lon="11.633569920980237"><ele>789.0</ele><time>2026-04-14T09:34:13Z</time></trkpt><trkpt lat="44.03685218650792" lon="11.63343156308891"><ele>788.8000000000001</ele><time>2026-04-14T09:34:14Z</time></trkpt><trkpt lat="44.03684266114467" lon="11.633288803984835"><ele>788.6</ele><time>2026-04-14T09:34:15Z</time></trkpt><trkpt lat="44.03685486762643" lon="11.633149862113166"><ele>788.4</ele><time>2026-04-14T09:34:16Z</time></trkpt><trkpt lat="44.036901796000926" lon="11.633013610589401"><ele>788.2</ele><time>2026-04-14T09:34:17Z</time></trkpt><trkpt lat="44.03694287102524" lon="11.632870025624028"><ele>788.0</ele><time>2026-04-14T09:34:18Z</time></trkpt><trkpt lat="44.03697772742089" lon="11.632709929989355"><ele>788.0</ele><time>2026-04-14T09:34:19Z</time></trkpt><trkpt lat="44.03702689241982" lon="11.632555718545598"><ele>788.0</ele><time>2026-04-14T09:34:20Z</time></trkpt><trkpt lat="44.03707767203304" lon="11.632402911962068"><ele>788.0</ele><time>2026-04-14T09:34:21Z</time></trkpt><trkpt lat="44.037126303625584" lon="11.632241722133097"><ele>788.0</ele><time>2026-04-14T09:34:22Z</time></trkpt><trkpt lat="44.03717548404673" lon="11.632079618414"><ele>784.75</ele><time>2026-04-14T09:34:23Z</time></trkpt><trkpt lat="44.03722663276477" lon="11.631918717993162"><ele>781.5</ele><time>2026-04-14T09:34:24Z</time></trkpt><trkpt lat="44.03728405725614" lon="11.631761259191993"><ele>778.25</ele><time>2026-04-14T09:34:25Z</time></trkpt><trkpt lat="44.03733336193209" lon="11.631600689897212"><ele>775.0</ele><time>2026-04-14T09:34:26Z</time></trkpt><trkpt lat="44.03739055946824" lon="11.63143428354265"><ele>775.0</ele><time>2026-04-14T09:34:27Z</time></trkpt><trkpt lat="44.03744069883175" lon="11.63126567991879"><ele>775.0</ele><time>2026-04-14T09:34:28Z</time></trkpt><trkpt lat="44.03748146537464" lon="11.63109312794919"><ele>775.0</ele><time>2026-04-14T09:34:29Z</time></trkpt><trkpt lat="44.03751893414063" lon="11.630922829979669"><ele>775.0</ele><time>2026-04-14T09:34:30Z</time></trkpt><trkpt lat="44.0375540167714" lon="11.630765699264401"><ele>773.5</ele><time>2026-04-14T09:34:31Z</time></trkpt><trkpt lat="44.037600990360936" lon="11.630616165660085"><ele>772.0</ele><time>2026-04-14T09:34:32Z</time></trkpt><trkpt lat="44.03766253581127" lon="11.630471077107272"><ele>770.5</ele><time>2026-04-14T09:34:33Z</time></trkpt><trkpt lat="44.037742779898956" lon="11.630340666745035"><ele>769.0</ele><time>2026-04-14T09:34:34Z</time></trkpt><trkpt lat="44.03783591874103" lon="11.630223037029138"><ele>769.0</ele><time>2026-04-14T09:34:35Z</time></trkpt><trkpt lat="44.037935185408955" lon="11.630120814990711"><ele>769.0</ele><time>2026-04-14T09:34:36Z</time></trkpt><trkpt lat="44.038037632389425" lon="11.630026379188012"><ele>769.0</ele><time>2026-04-14T09:34:37Z</time></trkpt><trkpt lat="44.03815096370002" lon="11.629956888590387"><ele>769.0</ele><time>2026-04-14T09:34:38Z</time></trkpt><trkpt lat="44.03827076315836" lon="11.629917149739635"><ele>772.0</ele><time>2026-04-14T09:34:39Z</time></trkpt><trkpt lat="44.03838778400976" lon="11.629899910154558"><ele>775.0</ele><time>2026-04-14T09:34:40Z</time></trkpt><trkpt lat="44.03850732503401" lon="11.629891044027604"><ele>778.0</ele><time>2026-04-14T09:34:41Z</time></trkpt><trkpt lat="44.038625954738436" lon="11.629878395806525"><ele>781.0</ele><time>2026-04-14T09:34:42Z</time></trkpt><trkpt lat="44.03874083429746" lon="11.629860370358651"><ele>781.0</ele><time>2026-04-14T09:34:43Z</time></trkpt><trkpt lat="44.03885466514554" lon="11.629834438238907"><ele>781.0</ele><time>2026-04-14T09:34:44Z</time></trkpt><trkpt lat="44.03896052950749" lon="11.629771946011134"><ele>781.0</ele><time>2026-04-14T09:34:45Z</time></trkpt><trkpt lat="44.039039025094134" lon="11.629660214140655"><ele>781.0</ele><time>2026-04-14T09:34:46Z</time></trkpt><trkpt lat="44.03908679581974" lon="11.629519134141079"><ele>777.8</ele><time>2026-04-14T09:34:47Z</time></trkpt><trkpt lat="44.039122154482826" lon="11.629374794184985"><ele>774.5999999999999</ele><time>2026-04-14T09:34:48Z</time></trkpt><trkpt lat="44.03917790333693" lon="11.629238660680969"><ele>771.4</ele><time>2026-04-14T09:34:49Z</time></trkpt><trkpt lat="44.03926496504429" lon="11.62913006563179"><ele>768.2</ele><time>2026-04-14T09:34:50Z</time></trkpt><trkpt lat="44.03935954034543" lon="11.629063492101348"><ele>765.0</ele><time>2026-04-14T09:34:51Z</time></trkpt><trkpt lat="44.03945994302393" lon="11.62901654627411"><ele>765.0</ele><time>2026-04-14T09:34:52Z</time></trkpt><trkpt lat="44.03956697030853" lon="11.628996518763158"><ele>765.0</ele><time>2026-04-14T09:34:53Z</time></trkpt><trkpt lat="44.03966889748341" lon="11.62901277806748"><ele>765.0</ele><time>2026-04-14T09:34:54Z</time></trkpt><trkpt lat="44.03976993040434" lon="11.629061896668858"><ele>765.0</ele><time>2026-04-14T09:34:55Z</time></trkpt><trkpt lat="44.039863821399834" lon="11.629118116014475"><ele>765.0</ele><time>2026-04-14T09:34:56Z</time></trkpt><trkpt lat="44.0399608874653" lon="11.629159301589318"><ele>765.1666666666666</ele><time>2026-04-14T09:34:57Z</time></trkpt><trkpt lat="44.04005056839007" lon="11.62916748576479"><ele>765.3333333333334</ele><time>2026-04-14T09:34:58Z</time></trkpt><trkpt lat="44.040136164646704" lon="11.62914066315729"><ele>765.5</ele><time>2026-04-14T09:34:59Z</time></trkpt><trkpt lat="44.04021510742195" lon="11.629102022112114"><ele>765.6666666666667</ele><time>2026-04-14T09:35:00Z</time></trkpt><trkpt lat="44.0402787565134" lon="11.629042192842546"><ele>765.8333333333334</ele><time>2026-04-14T09:35:01Z</time></trkpt><trkpt lat="44.040305793084144" lon="11.628923761652434"><ele>766.0</ele><time>2026-04-14T09:35:02Z</time></trkpt><trkpt lat="44.040290702328996" lon="11.62878910499339"><ele>766.0</ele><time>2026-04-14T09:35:03Z</time></trkpt><trkpt lat="44.04023863344668" lon="11.628668534881022"><ele>766.0</ele><time>2026-04-14T09:35:04Z</time></trkpt><trkpt lat="44.04015989904946" lon="11.628572348553472"><ele>766.0</ele><time>2026-04-14T09:35:05Z</time></trkpt><trkpt lat="44.040056361707414" lon="11.628494133789319"><ele>766.0</ele><time>2026-04-14T09:35:06Z</time></trkpt><trkpt lat="44.03995801281463" lon="11.62841639811894"><ele>766.0</ele><time>2026-04-14T09:35:07Z</time></trkpt><trkpt lat="44.03985921719623" lon="11.62834702240716"><ele>762.0</ele><time>2026-04-14T09:35:08Z</time></trkpt><trkpt lat="44.03975812937861" lon="11.628286163944091"><ele>758.0</ele><time>2026-04-14T09:35:09Z</time></trkpt><trkpt lat="44.03965373390744" lon="11.62824584888767"><ele>754.0</ele><time>2026-04-14T09:35:10Z</time></trkpt><trkpt lat="44.03955202727228" lon="11.628243605323574"><ele>750.0</ele><time>2026-04-14T09:35:11Z</time></trkpt><trkpt lat="44.039432025024745" lon="11.628282233767784"><ele>746.0</ele><time>2026-04-14T09:35:12Z</time></trkpt><trkpt lat="44.03931122277103" lon="11.628344913740774"><ele>746.0</ele><time>2026-04-14T09:35:13Z</time></trkpt><trkpt lat="44.03919439455173" lon="11.628412209299025"><ele>746.0</ele><time>2026-04-14T09:35:14Z</time></trkpt><trkpt lat="44.03907620460752" lon="11.62847757463639"><ele>746.0</ele><time>2026-04-14T09:35:15Z</time></trkpt><trkpt lat="44.03897087102302" lon="11.628533698428704"><ele>746.0</ele><time>2026-04-14T09:35:16Z</time></trkpt><trkpt lat="44.03888733407641" lon="11.62857762941566"><ele>744.1666666666666</ele><time>2026-04-14T09:35:17Z</time></trkpt><trkpt lat="44.03881315190729" lon="11.628617821880658"><ele>742.3333333333333</ele><time>2026-04-14T09:35:18Z</time></trkpt><trkpt lat="44.03872894583805" lon="11.628610033817054"><ele>740.5</ele><time>2026-04-14T09:35:19Z</time></trkpt><trkpt lat="44.03866544903941" lon="11.628567952735533"><ele>738.6666666666666</ele><time>2026-04-14T09:35:20Z</time></trkpt><trkpt lat="44.038645907659635" lon="11.628469187675167"><ele>736.8333333333334</ele><time>2026-04-14T09:35:21Z</time></trkpt><trkpt lat="44.03868774437842" lon="11.628287026649538"><ele>735.0</ele><time>2026-04-14T09:35:23Z</time></trkpt><trkpt lat="44.03877383338765" lon="11.628234583465982"><ele>735.0</ele><time>2026-04-14T09:35:24Z</time></trkpt><trkpt lat="44.03887793601945" lon="11.628209477583953"><ele>735.0</ele><time>2026-04-14T09:35:25Z</time></trkpt><trkpt lat="44.038986685148636" lon="11.628190577904995"><ele>735.0</ele><time>2026-04-14T09:35:26Z</time></trkpt><trkpt lat="44.03910056056472" lon="11.628156220074114"><ele>735.0</ele><time>2026-04-14T09:35:27Z</time></trkpt><trkpt lat="44.03920626832858" lon="11.628113931946803"><ele>735.0</ele><time>2026-04-14T09:35:28Z</time></trkpt><trkpt lat="44.03930382703456" lon="11.628049263310016"><ele>737.75</ele><time>2026-04-14T09:35:29Z</time></trkpt><trkpt lat="44.039393585502786" lon="11.62796013417863"><ele>740.5</ele><time>2026-04-14T09:35:30Z</time></trkpt><trkpt lat="44.03947941053867" lon="11.627857994712906"><ele>743.25</ele><time>2026-04-14T09:35:31Z</time></trkpt><trkpt lat="44.03956326857645" lon="11.627751867971376"><ele>746.0</ele><time>2026-04-14T09:35:32Z</time></trkpt><trkpt lat="44.039649683109694" lon="11.627648701496375"><ele>742.0</ele><time>2026-04-14T09:35:33Z</time></trkpt><trkpt lat="44.039742646394366" lon="11.627552255293413"><ele>738.0</ele><time>2026-04-14T09:35:34Z</time></trkpt><trkpt lat="44.03984842939714" lon="11.627472522028793"><ele>734.0</ele><time>2026-04-14T09:35:35Z</time></trkpt><trkpt lat="44.03995597631746" lon="11.627405494454505"><ele>730.0</ele><time>2026-04-14T09:35:36Z</time></trkpt><trkpt lat="44.04007019789984" lon="11.627361635963114"><ele>730.0</ele><time>2026-04-14T09:35:37Z</time></trkpt><trkpt lat="44.040187025619225" lon="11.627319009297453"><ele>730.0</ele><time>2026-04-14T09:35:38Z</time></trkpt><trkpt lat="44.040298470464876" lon="11.627272117555002"><ele>730.0</ele><time>2026-04-14T09:35:39Z</time></trkpt><trkpt lat="44.04041829912131" lon="11.627230361325445"><ele>730.0</ele><time>2026-04-14T09:35:40Z</time></trkpt><trkpt lat="44.04053642266611" lon="11.627188034903542"><ele>730.0</ele><time>2026-04-14T09:35:41Z</time></trkpt><trkpt lat="44.04065296619117" lon="11.627145645379741"><ele>730.0</ele><time>2026-04-14T09:35:42Z</time></trkpt><trkpt lat="44.040772050114796" lon="11.62710531253056"><ele>730.0</ele><time>2026-04-14T09:35:43Z</time></trkpt><trkpt lat="44.04089085803512" lon="11.627059208718261"><ele>730.0</ele><time>2026-04-14T09:35:44Z</time></trkpt><trkpt lat="44.041008507850364" lon="11.62700715524556"><ele>726.25</ele><time>2026-04-14T09:35:45Z</time></trkpt><trkpt lat="44.041126867868996" lon="11.62695796784516"><ele>722.5</ele><time>2026-04-14T09:35:46Z</time></trkpt><trkpt lat="44.04124096081212" lon="11.626907212820797"><ele>718.75</ele><time>2026-04-14T09:35:47Z</time></trkpt><trkpt lat="44.04135750913423" lon="11.626869802810857"><ele>715.0</ele><time>2026-04-14T09:35:48Z</time></trkpt><trkpt lat="44.04146016971289" lon="11.626828451383437"><ele>715.0</ele><time>2026-04-14T09:35:49Z</time></trkpt><trkpt lat="44.04153433528101" lon="11.626791326134056"><ele>715.0</ele><time>2026-04-14T09:35:50Z</time></trkpt><trkpt lat="44.041602000338834" lon="11.626722416586686"><ele>715.0</ele><time>2026-04-14T09:35:51Z</time></trkpt><trkpt lat="44.04163861077208" lon="11.62661335251772"><ele>715.0</ele><time>2026-04-14T09:35:52Z</time></trkpt><trkpt lat="44.04163741712267" lon="11.626490581811304"><ele>715.0</ele><time>2026-04-14T09:35:53Z</time></trkpt><trkpt lat="44.04160307351673" lon="11.626373498122692"><ele>715.0</ele><time>2026-04-14T09:35:54Z</time></trkpt><trkpt lat="44.041528879866185" lon="11.626274237899532"><ele>715.0</ele><time>2026-04-14T09:35:55Z</time></trkpt><trkpt lat="44.04143595206334" lon="11.626212109288119"><ele>715.0</ele><time>2026-04-14T09:35:56Z</time></trkpt><trkpt lat="44.04134351650432" lon="11.62619279122482"><ele>715.0</ele><time>2026-04-14T09:35:57Z</time></trkpt><trkpt lat="44.04125778207425" lon="11.626180555609862"><ele>715.0</ele><time>2026-04-14T09:35:58Z</time></trkpt><trkpt lat="44.04119122388575" lon="11.6261158935275"><ele>715.0</ele><time>2026-04-14T09:35:59Z</time></trkpt><trkpt lat="44.041128281981806" lon="11.626058282276135"><ele>715.0</ele><time>2026-04-14T09:36:00Z</time></trkpt><trkpt lat="44.04110872650539" lon="11.625938956692469"><ele>712.6</ele><time>2026-04-14T09:36:01Z</time></trkpt><trkpt lat="44.041136170149784" lon="11.625831717667584"><ele>710.2</ele><time>2026-04-14T09:36:02Z</time></trkpt><trkpt lat="44.04119929032582" lon="11.62575446473558"><ele>707.8</ele><time>2026-04-14T09:36:03Z</time></trkpt><trkpt lat="44.04129897651507" lon="11.625722216070729"><ele>705.4</ele><time>2026-04-14T09:36:04Z</time></trkpt><trkpt lat="44.04140360272014" lon="11.62574254028692"><ele>703.0</ele><time>2026-04-14T09:36:05Z</time></trkpt><trkpt lat="44.041514906091315" lon="11.625804948119505"><ele>703.0</ele><time>2026-04-14T09:36:06Z</time></trkpt><trkpt lat="44.041624182869185" lon="11.625884435141812"><ele>703.0</ele><time>2026-04-14T09:36:07Z</time></trkpt><trkpt lat="44.04172700836745" lon="11.625958505147677"><ele>703.0</ele><time>2026-04-14T09:36:08Z</time></trkpt><trkpt lat="44.04182617080228" lon="11.626040696449074"><ele>703.0</ele><time>2026-04-14T09:36:09Z</time></trkpt><trkpt lat="44.041918405493796" lon="11.626144556839078"><ele>704.4</ele><time>2026-04-14T09:36:10Z</time></trkpt><trkpt lat="44.0419949747694" lon="11.62626096278732"><ele>705.8</ele><time>2026-04-14T09:36:11Z</time></trkpt><trkpt lat="44.04206250362579" lon="11.626391676414753"><ele>707.2</ele><time>2026-04-14T09:36:12Z</time></trkpt><trkpt lat="44.04212147279638" lon="11.626526203628043"><ele>708.6</ele><time>2026-04-14T09:36:13Z</time></trkpt><trkpt lat="44.042168119042756" lon="11.626655307301398"><ele>710.0</ele><time>2026-04-14T09:36:14Z</time></trkpt><trkpt lat="44.0422036951051" lon="11.626789072774592"><ele>710.0</ele><time>2026-04-14T09:36:15Z</time></trkpt><trkpt lat="44.04224506089076" lon="11.626906768391567"><ele>710.0</ele><time>2026-04-14T09:36:16Z</time></trkpt><trkpt lat="44.04228756732683" lon="11.62700702873667"><ele>710.0</ele><time>2026-04-14T09:36:17Z</time></trkpt><trkpt lat="44.042348740201405" lon="11.62707215072004"><ele>710.0</ele><time>2026-04-14T09:36:18Z</time></trkpt><trkpt lat="44.04243539956205" lon="11.62707690023546"><ele>710.0</ele><time>2026-04-14T09:36:19Z</time></trkpt><trkpt lat="44.04251431860439" lon="11.627042121879906"><ele>710.0</ele><time>2026-04-14T09:36:20Z</time></trkpt><trkpt lat="44.04257240037918" lon="11.626958203761326"><ele>710.0</ele><time>2026-04-14T09:36:21Z</time></trkpt><trkpt lat="44.042597210192206" lon="11.626838658478603"><ele>710.0</ele><time>2026-04-14T09:36:22Z</time></trkpt><trkpt lat="44.04261127801456" lon="11.626713476856402"><ele>710.0</ele><time>2026-04-14T09:36:23Z</time></trkpt><trkpt lat="44.04254375035267" lon="11.626588314269785"><ele>710.0</ele><time>2026-04-14T09:36:24Z</time></trkpt><trkpt lat="44.042466191251286" lon="11.626475366627256"><ele>710.0</ele><time>2026-04-14T09:36:25Z</time></trkpt><trkpt lat="44.042378723404944" lon="11.626371629129798"><ele>710.0</ele><time>2026-04-14T09:36:26Z</time></trkpt><trkpt lat="44.04231689476636" lon="11.626238513550136"><ele>710.0</ele><time>2026-04-14T09:36:27Z</time></trkpt><trkpt lat="44.042269017854586" lon="11.626112469998729"><ele>710.0</ele><time>2026-04-14T09:36:28Z</time></trkpt><trkpt lat="44.042227660218344" lon="11.62597736650128"><ele>710.0</ele><time>2026-04-14T09:36:29Z</time></trkpt><trkpt lat="44.04219276026966" lon="11.625839850315321"><ele>710.0</ele><time>2026-04-14T09:36:30Z</time></trkpt><trkpt lat="44.042177955897785" lon="11.625696590624305"><ele>708.0</ele><time>2026-04-14T09:36:31Z</time></trkpt><trkpt lat="44.042180521449374" lon="11.625557491295703"><ele>706.0</ele><time>2026-04-14T09:36:32Z</time></trkpt><trkpt lat="44.0422151192022" lon="11.625437105223174"><ele>704.0</ele><time>2026-04-14T09:36:33Z</time></trkpt><trkpt lat="44.04227555735762" lon="11.625344703588443"><ele>702.0</ele><time>2026-04-14T09:36:34Z</time></trkpt><trkpt lat="44.04236205877278" lon="11.625315924230623"><ele>700.0</ele><time>2026-04-14T09:36:35Z</time></trkpt><trkpt lat="44.042443023834934" lon="11.625351657523527"><ele>697.0</ele><time>2026-04-14T09:36:36Z</time></trkpt><trkpt lat="44.04250128928999" lon="11.625436670462465"><ele>694.0</ele><time>2026-04-14T09:36:37Z</time></trkpt><trkpt lat="44.042560735378146" lon="11.625551516252676"><ele>691.0</ele><time>2026-04-14T09:36:38Z</time></trkpt><trkpt lat="44.04263126004105" lon="11.62567823325417"><ele>688.0</ele><time>2026-04-14T09:36:39Z</time></trkpt><trkpt lat="44.04271731608499" lon="11.625813366209938"><ele>685.0</ele><time>2026-04-14T09:36:40Z</time></trkpt><trkpt lat="44.04281092936057" lon="11.625936652890422"><ele>685.0</ele><time>2026-04-14T09:36:41Z</time></trkpt><trkpt lat="44.04290314637038" lon="11.626035665829335"><ele>685.0</ele><time>2026-04-14T09:36:42Z</time></trkpt><trkpt lat="44.04301211168357" lon="11.626117769739587"><ele>685.0</ele><time>2026-04-14T09:36:43Z</time></trkpt><trkpt lat="44.04311737558652" lon="11.626200947234587"><ele>685.0</ele><time>2026-04-14T09:36:44Z</time></trkpt><trkpt lat="44.04322740405376" lon="11.62628461822516"><ele>682.5</ele><time>2026-04-14T09:36:45Z</time></trkpt><trkpt lat="44.04334153504764" lon="11.626375277153471"><ele>680.0</ele><time>2026-04-14T09:36:46Z</time></trkpt><trkpt lat="44.0434553287638" lon="11.626466486710965"><ele>677.5</ele><time>2026-04-14T09:36:47Z</time></trkpt><trkpt lat="44.04357380455608" lon="11.626553408930134"><ele>675.0</ele><time>2026-04-14T09:36:48Z</time></trkpt><trkpt lat="44.04369563595264" lon="11.626633846392776"><ele>675.0</ele><time>2026-04-14T09:36:49Z</time></trkpt><trkpt lat="44.043813136791265" lon="11.62670862053751"><ele>675.0</ele><time>2026-04-14T09:36:50Z</time></trkpt><trkpt lat="44.043923463795686" lon="11.626783028098481"><ele>675.0</ele><time>2026-04-14T09:36:51Z</time></trkpt><trkpt lat="44.04402917445805" lon="11.626864474903154"><ele>675.0</ele><time>2026-04-14T09:36:52Z</time></trkpt><trkpt lat="44.044125878836496" lon="11.62696197855642"><ele>672.75</ele><time>2026-04-14T09:36:53Z</time></trkpt><trkpt lat="44.04420108662519" lon="11.627094434223942"><ele>670.5</ele><time>2026-04-14T09:36:54Z</time></trkpt><trkpt lat="44.044238744021115" lon="11.62726122913741"><ele>668.25</ele><time>2026-04-14T09:36:55Z</time></trkpt><trkpt lat="44.04429421401988" lon="11.627407150132008"><ele>666.0</ele><time>2026-04-14T09:36:56Z</time></trkpt><trkpt lat="44.0443199489343" lon="11.627567882802834"><ele>666.0</ele><time>2026-04-14T09:36:57Z</time></trkpt><trkpt lat="44.04438157398612" lon="11.627707138014099"><ele>666.0</ele><time>2026-04-14T09:36:58Z</time></trkpt><trkpt lat="44.04445677588846" lon="11.627830225168875"><ele>666.0</ele><time>2026-04-14T09:36:59Z</time></trkpt><trkpt lat="44.044539416359214" lon="11.627938395851714"><ele>666.0</ele><time>2026-04-14T09:37:00Z</time></trkpt><trkpt lat="44.044631245047775" lon="11.628031973176808"><ele>665.0</ele><time>2026-04-14T09:37:01Z</time></trkpt><trkpt lat="44.044723713143256" lon="11.628103980283619"><ele>664.0</ele><time>2026-04-14T09:37:02Z</time></trkpt><trkpt lat="44.04485405242232" lon="11.628123665894346"><ele>663.0</ele><time>2026-04-14T09:37:03Z</time></trkpt><trkpt lat="44.04496280768603" lon="11.628138284857927"><ele>662.0</ele><time>2026-04-14T09:37:04Z</time></trkpt><trkpt lat="44.045076587503964" lon="11.628173246158392"><ele>662.0</ele><time>2026-04-14T09:37:05Z</time></trkpt><trkpt lat="44.045160096299405" lon="11.628287331474608"><ele>662.0</ele><time>2026-04-14T09:37:06Z</time></trkpt><trkpt lat="44.04524086692747" lon="11.62841285292471"><ele>662.0</ele><time>2026-04-14T09:37:07Z</time></trkpt><trkpt lat="44.04534303786263" lon="11.62847729004045"><ele>662.0</ele><time>2026-04-14T09:37:08Z</time></trkpt><trkpt lat="44.04545710977669" lon="11.628504256034976"><ele>662.0</ele><time>2026-04-14T09:37:09Z</time></trkpt><trkpt lat="44.04556795214746" lon="11.62852978569676"><ele>662.0</ele><time>2026-04-14T09:37:10Z</time></trkpt><trkpt lat="44.04566459999011" lon="11.628616720254648"><ele>662.0</ele><time>2026-04-14T09:37:11Z</time></trkpt><trkpt lat="44.04576052894085" lon="11.628705011918255"><ele>662.0</ele><time>2026-04-14T09:37:12Z</time></trkpt><trkpt lat="44.04586074852747" lon="11.628789803940327"><ele>658.25</ele><time>2026-04-14T09:37:13Z</time></trkpt><trkpt lat="44.04595438517279" lon="11.628888569692284"><ele>654.5</ele><time>2026-04-14T09:37:14Z</time></trkpt><trkpt lat="44.04604925886291" lon="11.628983815481394"><ele>650.75</ele><time>2026-04-14T09:37:15Z</time></trkpt><trkpt lat="44.046145731251436" lon="11.629077751946069"><ele>647.0</ele><time>2026-04-14T09:37:16Z</time></trkpt><trkpt lat="44.04624362279775" lon="11.629160651313839"><ele>647.0</ele><time>2026-04-14T09:37:17Z</time></trkpt><trkpt lat="44.046338384251385" lon="11.629258376763788"><ele>647.0</ele><time>2026-04-14T09:37:18Z</time></trkpt><trkpt lat="44.046420545996035" lon="11.629366499809601"><ele>647.0</ele><time>2026-04-14T09:37:19Z</time></trkpt><trkpt lat="44.04650482095244" lon="11.629482567935572"><ele>647.0</ele><time>2026-04-14T09:37:20Z</time></trkpt><trkpt lat="44.04657984324184" lon="11.629602421405124"><ele>644.4</ele><time>2026-04-14T09:37:21Z</time></trkpt><trkpt lat="44.04664611776085" lon="11.629712054213295"><ele>641.8000000000001</ele><time>2026-04-14T09:37:22Z</time></trkpt><trkpt lat="44.04671068218007" lon="11.629815983476494"><ele>639.2</ele><time>2026-04-14T09:37:23Z</time></trkpt><trkpt lat="44.046787420731604" lon="11.629891023732599"><ele>636.6</ele><time>2026-04-14T09:37:24Z</time></trkpt><trkpt lat="44.04687183262266" lon="11.629942315656368"><ele>634.0</ele><time>2026-04-14T09:37:25Z</time></trkpt><trkpt lat="44.04695932563592" lon="11.629955177137553"><ele>634.0</ele><time>2026-04-14T09:37:26Z</time></trkpt><trkpt lat="44.04707626864495" lon="11.629907187368888"><ele>634.0</ele><time>2026-04-14T09:37:27Z</time></trkpt><trkpt lat="44.047161196005504" lon="11.629842606886237"><ele>634.0</ele><time>2026-04-14T09:37:28Z</time></trkpt><trkpt lat="44.04725375375349" lon="11.629738229324609"><ele>634.0</ele><time>2026-04-14T09:37:29Z</time></trkpt><trkpt lat="44.047349166251536" lon="11.629660974494819"><ele>634.0</ele><time>2026-04-14T09:37:30Z</time></trkpt><trkpt lat="44.04744368997887" lon="11.62954518992195"><ele>633.0</ele><time>2026-04-14T09:37:31Z</time></trkpt><trkpt lat="44.04754094042436" lon="11.629455915877939"><ele>632.0</ele><time>2026-04-14T09:37:32Z</time></trkpt><trkpt lat="44.047643946823385" lon="11.629374324393531"><ele>631.0</ele><time>2026-04-14T09:37:33Z</time></trkpt><trkpt lat="44.04773695117069" lon="11.629281786687498"><ele>630.0</ele><time>2026-04-14T09:37:34Z</time></trkpt><trkpt lat="44.04784327553608" lon="11.629216910676035"><ele>630.0</ele><time>2026-04-14T09:37:35Z</time></trkpt><trkpt lat="44.04795427572455" lon="11.629176744687495"><ele>630.0</ele><time>2026-04-14T09:37:36Z</time></trkpt><trkpt lat="44.048069205759596" lon="11.62914222628726"><ele>630.0</ele><time>2026-04-14T09:37:37Z</time></trkpt><trkpt lat="44.04818188835254" lon="11.629123743409899"><ele>630.0</ele><time>2026-04-14T09:37:38Z</time></trkpt><trkpt lat="44.04829531795243" lon="11.629147191096566"><ele>627.25</ele><time>2026-04-14T09:37:39Z</time></trkpt><trkpt lat="44.04839693559333" lon="11.629227032617804"><ele>624.5</ele><time>2026-04-14T09:37:40Z</time></trkpt><trkpt lat="44.048468946043684" lon="11.629339086056644"><ele>621.75</ele><time>2026-04-14T09:37:41Z</time></trkpt><trkpt lat="44.04855023829338" lon="11.629462025988838"><ele>619.0</ele><time>2026-04-14T09:37:42Z</time></trkpt><trkpt lat="44.04863362085715" lon="11.629583517625896"><ele>617.25</ele><time>2026-04-14T09:37:43Z</time></trkpt><trkpt lat="44.048710088363556" lon="11.629706357049658"><ele>615.5</ele><time>2026-04-14T09:37:44Z</time></trkpt><trkpt lat="44.048788414728385" lon="11.629831549716847"><ele>613.75</ele><time>2026-04-14T09:37:45Z</time></trkpt><trkpt lat="44.04886394169519" lon="11.62995610911098"><ele>612.0</ele><time>2026-04-14T09:37:46Z</time></trkpt><trkpt lat="44.04894131568652" lon="11.63008096384206"><ele>612.0</ele><time>2026-04-14T09:37:47Z</time></trkpt><trkpt lat="44.04902271256012" lon="11.630199005246714"><ele>612.0</ele><time>2026-04-14T09:37:48Z</time></trkpt><trkpt lat="44.04911976985423" lon="11.630304427587152"><ele>612.0</ele><time>2026-04-14T09:37:49Z</time></trkpt><trkpt lat="44.04923120361379" lon="11.630395863648403"><ele>612.0</ele><time>2026-04-14T09:37:50Z</time></trkpt><trkpt lat="44.04934319800079" lon="11.630475001989073"><ele>608.75</ele><time>2026-04-14T09:37:51Z</time></trkpt><trkpt lat="44.04944626672945" lon="11.630555877854416"><ele>605.5</ele><time>2026-04-14T09:37:52Z</time></trkpt><trkpt lat="44.0495443032373" lon="11.630658355683156"><ele>602.25</ele><time>2026-04-14T09:37:53Z</time></trkpt><trkpt lat="44.04964198052803" lon="11.630778599206335"><ele>599.0</ele><time>2026-04-14T09:37:54Z</time></trkpt><trkpt lat="44.04974355721062" lon="11.630904740250077"><ele>599.0</ele><time>2026-04-14T09:37:55Z</time></trkpt><trkpt lat="44.04984141921088" lon="11.631027489586138"><ele>599.0</ele><time>2026-04-14T09:37:56Z</time></trkpt><trkpt lat="44.049940612484065" lon="11.631149254428282"><ele>599.0</ele><time>2026-04-14T09:37:57Z</time></trkpt><trkpt lat="44.05003631350374" lon="11.631271732758364"><ele>599.0</ele><time>2026-04-14T09:37:58Z</time></trkpt><trkpt lat="44.05012565546928" lon="11.631402071934126"><ele>597.75</ele><time>2026-04-14T09:37:59Z</time></trkpt><trkpt lat="44.050216663689234" lon="11.63153468060626"><ele>596.5</ele><time>2026-04-14T09:38:00Z</time></trkpt><trkpt lat="44.05030218638375" lon="11.63166785690706"><ele>595.25</ele><time>2026-04-14T09:38:01Z</time></trkpt><trkpt lat="44.05038184789001" lon="11.631796115672694"><ele>594.0</ele><time>2026-04-14T09:38:02Z</time></trkpt><trkpt lat="44.05045668986055" lon="11.631909900316137"><ele>593.0</ele><time>2026-04-14T09:38:03Z</time></trkpt><trkpt lat="44.050549936837655" lon="11.632004556239076"><ele>592.0</ele><time>2026-04-14T09:38:04Z</time></trkpt><trkpt lat="44.050664967140186" lon="11.63207810866024"><ele>591.0</ele><time>2026-04-14T09:38:05Z</time></trkpt><trkpt lat="44.05078912939445" lon="11.63215542330217"><ele>590.0</ele><time>2026-04-14T09:38:06Z</time></trkpt><trkpt lat="44.05091109781326" lon="11.632258394577997"><ele>589.0</ele><time>2026-04-14T09:38:07Z</time></trkpt><trkpt lat="44.051029408406805" lon="11.632374151085644"><ele>588.0</ele><time>2026-04-14T09:38:08Z</time></trkpt><trkpt lat="44.051149114935825" lon="11.632483273027818"><ele>587.0</ele><time>2026-04-14T09:38:09Z</time></trkpt><trkpt lat="44.05126335628371" lon="11.632586641715024"><ele>586.0</ele><time>2026-04-14T09:38:10Z</time></trkpt><trkpt lat="44.05137212623237" lon="11.632691699576336"><ele>586.0</ele><time>2026-04-14T09:38:11Z</time></trkpt><trkpt lat="44.051475371167925" lon="11.632794908271313"><ele>586.0</ele><time>2026-04-14T09:38:12Z</time></trkpt><trkpt lat="44.05156582839051" lon="11.632900948295891"><ele>586.0</ele><time>2026-04-14T09:38:13Z</time></trkpt><trkpt lat="44.05164358260736" lon="11.633012726726351"><ele>586.0</ele><time>2026-04-14T09:38:14Z</time></trkpt><trkpt lat="44.05171610168213" lon="11.633105743714506"><ele>584.2</ele><time>2026-04-14T09:38:15Z</time></trkpt><trkpt lat="44.051798813175296" lon="11.633165233870354"><ele>582.4000000000001</ele><time>2026-04-14T09:38:16Z</time></trkpt><trkpt lat="44.051904335040774" lon="11.633184319236209"><ele>580.6</ele><time>2026-04-14T09:38:17Z</time></trkpt><trkpt lat="44.05201645857867" lon="11.633188700589443"><ele>578.8000000000001</ele><time>2026-04-14T09:38:18Z</time></trkpt><trkpt lat="44.05212958717711" lon="11.633195203067723"><ele>577.0</ele><time>2026-04-14T09:38:19Z</time></trkpt><trkpt lat="44.0522457784171" lon="11.63320439469195"><ele>577.0</ele><time>2026-04-14T09:38:20Z</time></trkpt><trkpt lat="44.05236071319988" lon="11.63322250011856"><ele>577.0</ele><time>2026-04-14T09:38:21Z</time></trkpt><trkpt lat="44.05247070714209" lon="11.63326338497586"><ele>577.0</ele><time>2026-04-14T09:38:22Z</time></trkpt><trkpt lat="44.05257802911381" lon="11.63332211024564"><ele>577.0</ele><time>2026-04-14T09:38:23Z</time></trkpt><trkpt lat="44.05267619310911" lon="11.633412115181608"><ele>578.25</ele><time>2026-04-14T09:38:24Z</time></trkpt><trkpt lat="44.05276765425411" lon="11.633511668142459"><ele>579.5</ele><time>2026-04-14T09:38:25Z</time></trkpt><trkpt lat="44.052852769822536" lon="11.633623125526325"><ele>580.75</ele><time>2026-04-14T09:38:26Z</time></trkpt><trkpt lat="44.052933035908254" lon="11.633747512910858"><ele>582.0</ele><time>2026-04-14T09:38:27Z</time></trkpt><trkpt lat="44.052994933338894" lon="11.633884277233143"><ele>577.25</ele><time>2026-04-14T09:38:28Z</time></trkpt><trkpt lat="44.05304861433949" lon="11.634026932093995"><ele>572.5</ele><time>2026-04-14T09:38:29Z</time></trkpt><trkpt lat="44.05310683785917" lon="11.634162430892273"><ele>567.75</ele><time>2026-04-14T09:38:30Z</time></trkpt><trkpt lat="44.053161973642084" lon="11.634299300817506"><ele>563.0</ele><time>2026-04-14T09:38:31Z</time></trkpt><trkpt lat="44.05321183738786" lon="11.634438238854859"><ele>563.8</ele><time>2026-04-14T09:38:32Z</time></trkpt><trkpt lat="44.05326940025618" lon="11.634568938941277"><ele>564.5999999999999</ele><time>2026-04-14T09:38:33Z</time></trkpt><trkpt lat="44.0533488443693" lon="11.63465454367096"><ele>565.4000000000001</ele><time>2026-04-14T09:38:34Z</time></trkpt><trkpt lat="44.053442624366646" lon="11.63472316866324"><ele>566.2</ele><time>2026-04-14T09:38:35Z</time></trkpt><trkpt lat="44.05354420451191" lon="11.634780414909127"><ele>567.0</ele><time>2026-04-14T09:38:36Z</time></trkpt><trkpt lat="44.053651635642154" lon="11.634844446714977"><ele>564.75</ele><time>2026-04-14T09:38:37Z</time></trkpt><trkpt lat="44.053757516446744" lon="11.63491489096837"><ele>562.5</ele><time>2026-04-14T09:38:38Z</time></trkpt><trkpt lat="44.05387374337948" lon="11.63499578294474"><ele>560.25</ele><time>2026-04-14T09:38:39Z</time></trkpt><trkpt lat="44.05399145147375" lon="11.63509181497901"><ele>558.0</ele><time>2026-04-14T09:38:40Z</time></trkpt><trkpt lat="44.054106016813314" lon="11.635190891840235"><ele>556.5</ele><time>2026-04-14T09:38:41Z</time></trkpt><trkpt lat="44.054225025060205" lon="11.635294284285317"><ele>555.0</ele><time>2026-04-14T09:38:42Z</time></trkpt><trkpt lat="44.054344619932834" lon="11.63540101259318"><ele>553.5</ele><time>2026-04-14T09:38:43Z</time></trkpt><trkpt lat="44.05446356367737" lon="11.635505342490733"><ele>552.0</ele><time>2026-04-14T09:38:44Z</time></trkpt><trkpt lat="44.05458372403383" lon="11.635602012512036"><ele>552.0</ele><time>2026-04-14T09:38:45Z</time></trkpt><trkpt lat="44.05470071456711" lon="11.635705443033668"><ele>552.0</ele><time>2026-04-14T09:38:46Z</time></trkpt><trkpt lat="44.054819617915875" lon="11.635812625543677"><ele>552.0</ele><time>2026-04-14T09:38:47Z</time></trkpt><trkpt lat="44.054942470840615" lon="11.63591491843527"><ele>552.0</ele><time>2026-04-14T09:38:48Z</time></trkpt><trkpt lat="44.05507408020317" lon="11.63600687359325"><ele>551.5</ele><time>2026-04-14T09:38:49Z</time></trkpt><trkpt lat="44.05521373937205" lon="11.636068875753086"><ele>551.0</ele><time>2026-04-14T09:38:50Z</time></trkpt><trkpt lat="44.05535575051852" lon="11.636111296348364"><ele>550.5</ele><time>2026-04-14T09:38:51Z</time></trkpt><trkpt lat="44.05549978982526" lon="11.636155118126705"><ele>550.0</ele><time>2026-04-14T09:38:52Z</time></trkpt><trkpt lat="44.055638417806" lon="11.63619512889177"><ele>548.75</ele><time>2026-04-14T09:38:53Z</time></trkpt><trkpt lat="44.05577633954881" lon="11.63623644536634"><ele>547.5</ele><time>2026-04-14T09:38:54Z</time></trkpt><trkpt lat="44.05590888690119" lon="11.636279236353378"><ele>546.25</ele><time>2026-04-14T09:38:55Z</time></trkpt><trkpt lat="44.05603347869711" lon="11.636344287611774"><ele>545.0</ele><time>2026-04-14T09:38:56Z</time></trkpt><trkpt lat="44.05614486451223" lon="11.636440178111739"><ele>543.75</ele><time>2026-04-14T09:38:57Z</time></trkpt><trkpt lat="44.056235777488446" lon="11.636570358476508"><ele>542.5</ele><time>2026-04-14T09:38:58Z</time></trkpt><trkpt lat="44.0563101014559" lon="11.636715082974543"><ele>541.25</ele><time>2026-04-14T09:38:59Z</time></trkpt><trkpt lat="44.05637858931774" lon="11.636852688075065"><ele>540.0</ele><time>2026-04-14T09:39:00Z</time></trkpt><trkpt lat="44.05646794664836" lon="11.636964934196662"><ele>539.5</ele><time>2026-04-14T09:39:01Z</time></trkpt><trkpt lat="44.05657922653575" lon="11.637053737718487"><ele>539.0</ele><time>2026-04-14T09:39:02Z</time></trkpt><trkpt lat="44.056703102422674" lon="11.637130151986891"><ele>538.5</ele><time>2026-04-14T09:39:03Z</time></trkpt><trkpt lat="44.05682196327234" lon="11.637204663218501"><ele>538.0</ele><time>2026-04-14T09:39:04Z</time></trkpt><trkpt lat="44.056935272756924" lon="11.637279406550538"><ele>538.0</ele><time>2026-04-14T09:39:05Z</time></trkpt><trkpt lat="44.057039355207365" lon="11.63736064884195"><ele>538.0</ele><time>2026-04-14T09:39:06Z</time></trkpt><trkpt lat="44.05713519004671" lon="11.637462315268134"><ele>538.0</ele><time>2026-04-14T09:39:07Z</time></trkpt><trkpt lat="44.05722072949296" lon="11.63758856653476"><ele>538.0</ele><time>2026-04-14T09:39:08Z</time></trkpt><trkpt lat="44.057286439112865" lon="11.637743119165858"><ele>537.5</ele><time>2026-04-14T09:39:09Z</time></trkpt><trkpt lat="44.057340693384624" lon="11.637905903466542"><ele>537.0</ele><time>2026-04-14T09:39:10Z</time></trkpt><trkpt lat="44.05739826366872" lon="11.63807156676053"><ele>536.5</ele><time>2026-04-14T09:39:11Z</time></trkpt><trkpt lat="44.05745761181273" lon="11.638235383368993"><ele>536.0</ele><time>2026-04-14T09:39:12Z</time></trkpt><trkpt lat="44.057517375209684" lon="11.638402854193643"><ele>536.0</ele><time>2026-04-14T09:39:13Z</time></trkpt><trkpt lat="44.05757375102237" lon="11.638566414144535"><ele>536.0</ele><time>2026-04-14T09:39:14Z</time></trkpt><trkpt lat="44.05763197714181" lon="11.638721691739624"><ele>536.0</ele><time>2026-04-14T09:39:15Z</time></trkpt><trkpt lat="44.057694337138855" lon="11.638870667444946"><ele>536.0</ele><time>2026-04-14T09:39:16Z</time></trkpt><trkpt lat="44.057772478928825" lon="11.639004214730756"><ele>533.75</ele><time>2026-04-14T09:39:17Z</time></trkpt><trkpt lat="44.05786790523201" lon="11.639126557393608"><ele>531.5</ele><time>2026-04-14T09:39:18Z</time></trkpt><trkpt lat="44.057965672724094" lon="11.639240992216449"><ele>529.25</ele><time>2026-04-14T09:39:19Z</time></trkpt><trkpt lat="44.0580607530606" lon="11.639357175548154"><ele>527.0</ele><time>2026-04-14T09:39:20Z</time></trkpt><trkpt lat="44.05815798159374" lon="11.639471168371763"><ele>527.0</ele><time>2026-04-14T09:39:21Z</time></trkpt><trkpt lat="44.05825264168291" lon="11.639581537034566"><ele>527.0</ele><time>2026-04-14T09:39:22Z</time></trkpt><trkpt lat="44.05834277537749" lon="11.63969045000313"><ele>527.0</ele><time>2026-04-14T09:39:23Z</time></trkpt><trkpt lat="44.05843411877116" lon="11.639793242223922"><ele>527.0</ele><time>2026-04-14T09:39:24Z</time></trkpt><trkpt lat="44.0585292244258" lon="11.639884994939584"><ele>524.5</ele><time>2026-04-14T09:39:25Z</time></trkpt><trkpt lat="44.05863553935619" lon="11.639950727859866"><ele>522.0</ele><time>2026-04-14T09:39:26Z</time></trkpt><trkpt lat="44.05874302965568" lon="11.64001234698714"><ele>519.5</ele><time>2026-04-14T09:39:27Z</time></trkpt><trkpt lat="44.05885073590794" lon="11.640086890247979"><ele>517.0</ele><time>2026-04-14T09:39:28Z</time></trkpt><trkpt lat="44.058961708985755" lon="11.640177543376165"><ele>517.0</ele><time>2026-04-14T09:39:29Z</time></trkpt><trkpt lat="44.059074738507626" lon="11.64028118920959"><ele>517.0</ele><time>2026-04-14T09:39:30Z</time></trkpt><trkpt lat="44.059188816861685" lon="11.640390514573108"><ele>517.0</ele><time>2026-04-14T09:39:31Z</time></trkpt><trkpt lat="44.0593116613431" lon="11.640493091952699"><ele>517.0</ele><time>2026-04-14T09:39:32Z</time></trkpt><trkpt lat="44.05944384982212" lon="11.640582884359672"><ele>516.0</ele><time>2026-04-14T09:39:33Z</time></trkpt><trkpt lat="44.05957384130128" lon="11.640667277876805"><ele>515.0</ele><time>2026-04-14T09:39:34Z</time></trkpt><trkpt lat="44.0597026547455" lon="11.640749258664437"><ele>514.0</ele><time>2026-04-14T09:39:35Z</time></trkpt><trkpt lat="44.059834313358294" lon="11.640835347927364"><ele>513.0</ele><time>2026-04-14T09:39:36Z</time></trkpt><trkpt lat="44.05995915247932" lon="11.640923069288824"><ele>511.75</ele><time>2026-04-14T09:39:37Z</time></trkpt><trkpt lat="44.06008322416081" lon="11.64100062947388"><ele>510.5</ele><time>2026-04-14T09:39:38Z</time></trkpt><trkpt lat="44.06021106911009" lon="11.64108075550281"><ele>509.25</ele><time>2026-04-14T09:39:39Z</time></trkpt><trkpt lat="44.06034361109478" lon="11.641159695526001"><ele>508.0</ele><time>2026-04-14T09:39:40Z</time></trkpt><trkpt lat="44.06048542284746" lon="11.641217325067645"><ele>508.0</ele><time>2026-04-14T09:39:41Z</time></trkpt><trkpt lat="44.06063332825886" lon="11.641257194476832"><ele>508.0</ele><time>2026-04-14T09:39:42Z</time></trkpt><trkpt lat="44.06078079808896" lon="11.641296923879569"><ele>508.0</ele><time>2026-04-14T09:39:43Z</time></trkpt><trkpt lat="44.060926335103694" lon="11.64133442101044"><ele>508.0</ele><time>2026-04-14T09:39:44Z</time></trkpt><trkpt lat="44.061067039245046" lon="11.641364742726966"><ele>506.75</ele><time>2026-04-14T09:39:45Z</time></trkpt><trkpt lat="44.06120581551575" lon="11.641391839493632"><ele>505.5</ele><time>2026-04-14T09:39:46Z</time></trkpt><trkpt lat="44.06134820319249" lon="11.641419971339186"><ele>504.25</ele><time>2026-04-14T09:39:47Z</time></trkpt><trkpt lat="44.06148899486593" lon="11.64145190670308"><ele>503.0</ele><time>2026-04-14T09:39:48Z</time></trkpt><trkpt lat="44.06162924777929" lon="11.64147840653149"><ele>502.5</ele><time>2026-04-14T09:39:49Z</time></trkpt><trkpt lat="44.06176666806121" lon="11.641500767831502"><ele>502.0</ele><time>2026-04-14T09:39:50Z</time></trkpt><trkpt lat="44.061901195715656" lon="11.641527329915695"><ele>501.5</ele><time>2026-04-14T09:39:51Z</time></trkpt><trkpt lat="44.062026508126024" lon="11.641543281722612"><ele>501.0</ele><time>2026-04-14T09:39:52Z</time></trkpt><trkpt lat="44.062144334856306" lon="11.641560038849397"><ele>501.0</ele><time>2026-04-14T09:39:53Z</time></trkpt><trkpt lat="44.062256200518775" lon="11.641563954667005"><ele>501.0</ele><time>2026-04-14T09:39:54Z</time></trkpt><trkpt lat="44.062363660664644" lon="11.641543260233904"><ele>501.0</ele><time>2026-04-14T09:39:55Z</time></trkpt><trkpt lat="44.06247168982248" lon="11.641507296940416"><ele>501.0</ele><time>2026-04-14T09:39:56Z</time></trkpt><trkpt lat="44.062570309600595" lon="11.641454989792992"><ele>501.0</ele><time>2026-04-14T09:39:57Z</time></trkpt><trkpt lat="44.06266621277412" lon="11.641386379818353"><ele>500.6</ele><time>2026-04-14T09:39:58Z</time></trkpt><trkpt lat="44.062766923807764" lon="11.64132907340677"><ele>500.20000000000005</ele><time>2026-04-14T09:39:59Z</time></trkpt><trkpt lat="44.06286725222624" lon="11.641286415831493"><ele>499.79999999999995</ele><time>2026-04-14T09:40:00Z</time></trkpt><trkpt lat="44.062966769115" lon="11.641267755393173"><ele>499.4</ele><time>2026-04-14T09:40:01Z</time></trkpt><trkpt lat="44.063071909480655" lon="11.641248338182477"><ele>499.0</ele><time>2026-04-14T09:40:02Z</time></trkpt><trkpt lat="44.063180795075695" lon="11.641219590168198"><ele>497.6</ele><time>2026-04-14T09:40:03Z</time></trkpt><trkpt lat="44.06329039908394" lon="11.641186253485218"><ele>496.2</ele><time>2026-04-14T09:40:04Z</time></trkpt><trkpt lat="44.06340087876207" lon="11.641156935274623"><ele>494.80000000000007</ele><time>2026-04-14T09:40:05Z</time></trkpt><trkpt lat="44.06350999373045" lon="11.641144418684812"><ele>493.40000000000003</ele><time>2026-04-14T09:40:06Z</time></trkpt><trkpt lat="44.06361816849281" lon="11.641155332347891"><ele>492.0</ele><time>2026-04-14T09:40:07Z</time></trkpt><trkpt lat="44.063725125254074" lon="11.641182472282809"><ele>492.0</ele><time>2026-04-14T09:40:08Z</time></trkpt><trkpt lat="44.063829702643076" lon="11.64120601418885"><ele>492.0</ele><time>2026-04-14T09:40:09Z</time></trkpt><trkpt lat="44.06394325078393" lon="11.641208182957783"><ele>492.0</ele><time>2026-04-14T09:40:10Z</time></trkpt><trkpt lat="44.064062575305535" lon="11.641179184642606"><ele>492.0</ele><time>2026-04-14T09:40:11Z</time></trkpt><trkpt lat="44.064203524535586" lon="11.641146591456991"><ele>494.0</ele><time>2026-04-14T09:40:12Z</time></trkpt><trkpt lat="44.064337639704554" lon="11.641116131435755"><ele>496.0</ele><time>2026-04-14T09:40:13Z</time></trkpt><trkpt lat="44.06446685429303" lon="11.641086397811852"><ele>498.0</ele><time>2026-04-14T09:40:14Z</time></trkpt><trkpt lat="44.06459954806974" lon="11.64106101411008"><ele>500.0</ele><time>2026-04-14T09:40:15Z</time></trkpt><trkpt lat="44.06473092955619" lon="11.641026691156815"><ele>500.0</ele><time>2026-04-14T09:40:16Z</time></trkpt><trkpt lat="44.06486185424739" lon="11.641010298733708"><ele>500.0</ele><time>2026-04-14T09:40:17Z</time></trkpt><trkpt lat="44.064985053141704" lon="11.641005209982032"><ele>500.0</ele><time>2026-04-14T09:40:18Z</time></trkpt><trkpt lat="44.06510181579725" lon="11.64103817509539"><ele>500.0</ele><time>2026-04-14T09:40:19Z</time></trkpt><trkpt lat="44.06520324437849" lon="11.641122999986841"><ele>494.75</ele><time>2026-04-14T09:40:20Z</time></trkpt><trkpt lat="44.06531013876268" lon="11.641207432216996"><ele>489.5</ele><time>2026-04-14T09:40:21Z</time></trkpt><trkpt lat="44.065418540495706" lon="11.641263467192768"><ele>484.25</ele><time>2026-04-14T09:40:22Z</time></trkpt><trkpt lat="44.06554819754621" lon="11.641298499564941"><ele>479.0</ele><time>2026-04-14T09:40:23Z</time></trkpt><trkpt lat="44.06569085597351" lon="11.641307811930456"><ele>480.25</ele><time>2026-04-14T09:40:24Z</time></trkpt><trkpt lat="44.065830187982684" lon="11.641323242036352"><ele>481.5</ele><time>2026-04-14T09:40:25Z</time></trkpt><trkpt lat="44.06597268563408" lon="11.641345579583398"><ele>482.75</ele><time>2026-04-14T09:40:26Z</time></trkpt><trkpt lat="44.06611439663311" lon="11.641366615250492"><ele>484.0</ele><time>2026-04-14T09:40:27Z</time></trkpt><trkpt lat="44.06625394360687" lon="11.64138693041875"><ele>484.0</ele><time>2026-04-14T09:40:28Z</time></trkpt><trkpt lat="44.06639247738307" lon="11.641414001505758"><ele>484.0</ele><time>2026-04-14T09:40:29Z</time></trkpt><trkpt lat="44.066530811760394" lon="11.641443799825531"><ele>484.0</ele><time>2026-04-14T09:40:30Z</time></trkpt><trkpt lat="44.06666666738986" lon="11.641464958621691"><ele>484.0</ele><time>2026-04-14T09:40:31Z</time></trkpt><trkpt lat="44.066806296170434" lon="11.641471798846508"><ele>484.0</ele><time>2026-04-14T09:40:32Z</time></trkpt><trkpt lat="44.06695026852691" lon="11.64146938251616"><ele>484.0</ele><time>2026-04-14T09:40:33Z</time></trkpt><trkpt lat="44.06710182389446" lon="11.641459870050982"><ele>484.0</ele><time>2026-04-14T09:40:34Z</time></trkpt><trkpt lat="44.06725472877876" lon="11.641444104671157"><ele>484.0</ele><time>2026-04-14T09:40:35Z</time></trkpt><trkpt lat="44.067402634941196" lon="11.641421143794517"><ele>482.0</ele><time>2026-04-14T09:40:36Z</time></trkpt><trkpt lat="44.06754660488438" lon="11.641383430071398"><ele>480.0</ele><time>2026-04-14T09:40:37Z</time></trkpt><trkpt lat="44.06769174620234" lon="11.641348507115197"><ele>478.0</ele><time>2026-04-14T09:40:38Z</time></trkpt><trkpt lat="44.06783828191082" lon="11.641308382957309"><ele>476.0</ele><time>2026-04-14T09:40:39Z</time></trkpt><trkpt lat="44.0679828157024" lon="11.641260981916451"><ele>476.0</ele><time>2026-04-14T09:40:40Z</time></trkpt><trkpt lat="44.06811837348134" lon="11.641195861974671"><ele>476.0</ele><time>2026-04-14T09:40:41Z</time></trkpt><trkpt lat="44.06824117113901" lon="11.64113083317478"><ele>476.0</ele><time>2026-04-14T09:40:42Z</time></trkpt><trkpt lat="44.06837132710849" lon="11.641074305378"><ele>476.0</ele><time>2026-04-14T09:40:43Z</time></trkpt><trkpt lat="44.06850479923093" lon="11.641039408029808"><ele>479.0</ele><time>2026-04-14T09:40:44Z</time></trkpt><trkpt lat="44.06863553952538" lon="11.640993713909621"><ele>482.0</ele><time>2026-04-14T09:40:45Z</time></trkpt><trkpt lat="44.06876031144954" lon="11.640924286411767"><ele>485.0</ele><time>2026-04-14T09:40:46Z</time></trkpt><trkpt lat="44.06888276923694" lon="11.640845882711073"><ele>488.0</ele><time>2026-04-14T09:40:47Z</time></trkpt><trkpt lat="44.06900314033683" lon="11.64076448908416"><ele>483.5</ele><time>2026-04-14T09:40:48Z</time></trkpt><trkpt lat="44.06912901963791" lon="11.640696022099027"><ele>479.0</ele><time>2026-04-14T09:40:49Z</time></trkpt><trkpt lat="44.06926200969684" lon="11.640639477779676"><ele>474.5</ele><time>2026-04-14T09:40:50Z</time></trkpt><trkpt lat="44.06940016294406" lon="11.64059716932432"><ele>470.0</ele><time>2026-04-14T09:40:51Z</time></trkpt><trkpt lat="44.069540410575556" lon="11.640562631076813"><ele>470.0</ele><time>2026-04-14T09:40:52Z</time></trkpt><trkpt lat="44.069684391776356" lon="11.640525902633657"><ele>470.0</ele><time>2026-04-14T09:40:53Z</time></trkpt><trkpt lat="44.06983045354049" lon="11.640479921452489"><ele>470.0</ele><time>2026-04-14T09:40:54Z</time></trkpt><trkpt lat="44.06997651333737" lon="11.640438737114259"><ele>470.0</ele><time>2026-04-14T09:40:55Z</time></trkpt><trkpt lat="44.0701262556548" lon="11.640395884601045"><ele>472.0</ele><time>2026-04-14T09:40:56Z</time></trkpt><trkpt lat="44.070277703900665" lon="11.6403508323528"><ele>474.0</ele><time>2026-04-14T09:40:57Z</time></trkpt><trkpt lat="44.070428288261425" lon="11.640302379182708"><ele>476.0</ele><time>2026-04-14T09:40:58Z</time></trkpt><trkpt lat="44.07057011442278" lon="11.640256975602734"><ele>476.0</ele><time>2026-04-14T09:40:59Z</time></trkpt><trkpt lat="44.07070394010821" lon="11.64021624916186"><ele>476.0</ele><time>2026-04-14T09:41:00Z</time></trkpt><trkpt lat="44.07082411697878" lon="11.640179947268845"><ele>476.0</ele><time>2026-04-14T09:41:01Z</time></trkpt><trkpt lat="44.07093063972276" lon="11.64015821756654"><ele>476.0</ele><time>2026-04-14T09:41:02Z</time></trkpt><trkpt lat="44.07103813567524" lon="11.640140436572155"><ele>472.5</ele><time>2026-04-14T09:41:03Z</time></trkpt><trkpt lat="44.07115141746677" lon="11.640127534715965"><ele>469.0</ele><time>2026-04-14T09:41:04Z</time></trkpt><trkpt lat="44.07127776652813" lon="11.640107049760452"><ele>465.5</ele><time>2026-04-14T09:41:05Z</time></trkpt><trkpt lat="44.07141355666035" lon="11.64009742476209"><ele>462.0</ele><time>2026-04-14T09:41:06Z</time></trkpt><trkpt lat="44.07155249885338" lon="11.64008388287705"><ele>458.0</ele><time>2026-04-14T09:41:07Z</time></trkpt><trkpt lat="44.07169056682447" lon="11.640073905707187"><ele>454.0</ele><time>2026-04-14T09:41:08Z</time></trkpt><trkpt lat="44.071833547488346" lon="11.640057714184406"><ele>450.0</ele><time>2026-04-14T09:41:09Z</time></trkpt><trkpt lat="44.07198247906716" lon="11.640028393159286"><ele>446.0</ele><time>2026-04-14T09:41:10Z</time></trkpt><trkpt lat="44.07213510945675" lon="11.639971689315816"><ele>446.0</ele><time>2026-04-14T09:41:11Z</time></trkpt><trkpt lat="44.07228347931996" lon="11.639888211740702"><ele>446.0</ele><time>2026-04-14T09:41:12Z</time></trkpt><trkpt lat="44.07242511881667" lon="11.639801004181443"><ele>446.0</ele><time>2026-04-14T09:41:13Z</time></trkpt><trkpt lat="44.072561614584586" lon="11.639725173416991"><ele>445.75</ele><time>2026-04-14T09:41:14Z</time></trkpt><trkpt lat="44.072692118185685" lon="11.639640483112043"><ele>445.5</ele><time>2026-04-14T09:41:15Z</time></trkpt><trkpt lat="44.0728115032996" lon="11.63952530540387"><ele>445.25</ele><time>2026-04-14T09:41:16Z</time></trkpt><trkpt lat="44.072923119035856" lon="11.639388062125759"><ele>445.0</ele><time>2026-04-14T09:41:17Z</time></trkpt><trkpt lat="44.073026240648204" lon="11.639231934260474"><ele>445.0</ele><time>2026-04-14T09:41:18Z</time></trkpt><trkpt lat="44.07312665199531" lon="11.639064044369267"><ele>445.0</ele><time>2026-04-14T09:41:19Z</time></trkpt><trkpt lat="44.07321472876186" lon="11.638893428112933"><ele>445.0</ele><time>2026-04-14T09:41:20Z</time></trkpt><trkpt lat="44.07329453515304" lon="11.638728074930304"><ele>443.75</ele><time>2026-04-14T09:41:21Z</time></trkpt><trkpt lat="44.07337323904771" lon="11.638569488787306"><ele>442.5</ele><time>2026-04-14T09:41:22Z</time></trkpt><trkpt lat="44.07345394930437" lon="11.638418879156857"><ele>441.25</ele><time>2026-04-14T09:41:23Z</time></trkpt><trkpt lat="44.07352216526217" lon="11.638260800478301"><ele>440.0</ele><time>2026-04-14T09:41:24Z</time></trkpt><trkpt lat="44.07356829460784" lon="11.638083700276006"><ele>440.0</ele><time>2026-04-14T09:41:25Z</time></trkpt><trkpt lat="44.07360898034077" lon="11.637895842296277"><ele>440.0</ele><time>2026-04-14T09:41:26Z</time></trkpt><trkpt lat="44.07365017762426" lon="11.637717750710022"><ele>440.0</ele><time>2026-04-14T09:41:27Z</time></trkpt><trkpt lat="44.073700762225194" lon="11.637546571316964"><ele>440.0</ele><time>2026-04-14T09:41:28Z</time></trkpt><trkpt lat="44.07377292440296" lon="11.637391434595008"><ele>438.25</ele><time>2026-04-14T09:41:29Z</time></trkpt><trkpt lat="44.07382052623742" lon="11.637225855291687"><ele>436.5</ele><time>2026-04-14T09:41:30Z</time></trkpt><trkpt lat="44.073891546433345" lon="11.637089395926985"><ele>434.75</ele><time>2026-04-14T09:41:31Z</time></trkpt><trkpt lat="44.07398216623009" lon="11.63696120238577"><ele>433.0</ele><time>2026-04-14T09:41:32Z</time></trkpt><trkpt lat="44.074089915580636" lon="11.636831353293113"><ele>433.25</ele><time>2026-04-14T09:41:33Z</time></trkpt><trkpt lat="44.07419776334316" lon="11.63669352060299"><ele>433.5</ele><time>2026-04-14T09:41:34Z</time></trkpt><trkpt lat="44.07430868518257" lon="11.636556509710898"><ele>433.75</ele><time>2026-04-14T09:41:35Z</time></trkpt><trkpt lat="44.074415997769265" lon="11.636408502953966"><ele>434.0</ele><time>2026-04-14T09:41:36Z</time></trkpt><trkpt lat="44.07452569473451" lon="11.636261102269835"><ele>431.3333333333333</ele><time>2026-04-14T09:41:37Z</time></trkpt><trkpt lat="44.07463521700147" lon="11.636110027644477"><ele>428.66666666666663</ele><time>2026-04-14T09:41:38Z</time></trkpt><trkpt lat="44.07474346418396" lon="11.635953463352434"><ele>426.0</ele><time>2026-04-14T09:41:39Z</time></trkpt><trkpt lat="44.074852353620926" lon="11.635799989058729"><ele>425.5</ele><time>2026-04-14T09:41:40Z</time></trkpt><trkpt lat="44.074957315350154" lon="11.635656249575543"><ele>425.0</ele><time>2026-04-14T09:41:41Z</time></trkpt><trkpt lat="44.07506001185099" lon="11.63551731782201"><ele>424.5</ele><time>2026-04-14T09:41:42Z</time></trkpt><trkpt lat="44.075160976638806" lon="11.635379905092643"><ele>424.0</ele><time>2026-04-14T09:41:43Z</time></trkpt><trkpt lat="44.075263692913204" lon="11.635241050436903"><ele>424.0</ele><time>2026-04-14T09:41:44Z</time></trkpt><trkpt lat="44.07536514374064" lon="11.635103503300309"><ele>424.0</ele><time>2026-04-14T09:41:45Z</time></trkpt><trkpt lat="44.07546587385626" lon="11.634966073656571"><ele>424.0</ele><time>2026-04-14T09:41:46Z</time></trkpt><trkpt lat="44.07556511685475" lon="11.634828953524206"><ele>424.0</ele><time>2026-04-14T09:41:47Z</time></trkpt><trkpt lat="44.075660594040244" lon="11.634692047459987"><ele>424.0</ele><time>2026-04-14T09:41:48Z</time></trkpt><trkpt lat="44.07576396644561" lon="11.634563198761455"><ele>424.0</ele><time>2026-04-14T09:41:49Z</time></trkpt><trkpt lat="44.07587079239443" lon="11.63444384535844"><ele>424.0</ele><time>2026-04-14T09:41:50Z</time></trkpt><trkpt lat="44.075979952052585" lon="11.634332272495374"><ele>424.0</ele><time>2026-04-14T09:41:51Z</time></trkpt><trkpt lat="44.076087888381615" lon="11.634209950860019"><ele>423.75</ele><time>2026-04-14T09:41:52Z</time></trkpt><trkpt lat="44.07619393714604" lon="11.634064495318807"><ele>423.5</ele><time>2026-04-14T09:41:53Z</time></trkpt><trkpt lat="44.076293205048266" lon="11.633909152316777"><ele>423.25</ele><time>2026-04-14T09:41:54Z</time></trkpt><trkpt lat="44.07638540985485" lon="11.633751986464118"><ele>423.0</ele><time>2026-04-14T09:41:55Z</time></trkpt><trkpt lat="44.0764782105909" lon="11.633591690454558"><ele>423.0</ele><time>2026-04-14T09:41:56Z</time></trkpt><trkpt lat="44.07657053305716" lon="11.633444381274362"><ele>423.0</ele><time>2026-04-14T09:41:57Z</time></trkpt><trkpt lat="44.076654570945465" lon="11.633307694002069"><ele>423.0</ele><time>2026-04-14T09:41:58Z</time></trkpt><trkpt lat="44.076728914033055" lon="11.633171652395287"><ele>423.0</ele><time>2026-04-14T09:41:59Z</time></trkpt><trkpt lat="44.07678206061606" lon="11.633011135146273"><ele>422.25</ele><time>2026-04-14T09:42:00Z</time></trkpt><trkpt lat="44.076810269526696" lon="11.632835181991965"><ele>421.5</ele><time>2026-04-14T09:42:01Z</time></trkpt><trkpt lat="44.07681926367133" lon="11.63265076853674"><ele>420.75</ele><time>2026-04-14T09:42:02Z</time></trkpt><trkpt lat="44.07682368076127" lon="11.632476726937897"><ele>420.0</ele><time>2026-04-14T09:42:03Z</time></trkpt><trkpt lat="44.07680537213115" lon="11.63230032257132"><ele>420.0</ele><time>2026-04-14T09:42:04Z</time></trkpt><trkpt lat="44.0767620941235" lon="11.63212103098933"><ele>420.0</ele><time>2026-04-14T09:42:05Z</time></trkpt><trkpt lat="44.07670263436043" lon="11.631942911546444"><ele>420.0</ele><time>2026-04-14T09:42:06Z</time></trkpt><trkpt lat="44.076651694210426" lon="11.631769311931832"><ele>420.0</ele><time>2026-04-14T09:42:07Z</time></trkpt><trkpt lat="44.07660324855154" lon="11.631602411814184"><ele>421.0</ele><time>2026-04-14T09:42:08Z</time></trkpt><trkpt lat="44.076560548658634" lon="11.631431187863138"><ele>422.0</ele><time>2026-04-14T09:42:09Z</time></trkpt><trkpt lat="44.07653237001415" lon="11.63124800932067"><ele>423.0</ele><time>2026-04-14T09:42:10Z</time></trkpt><trkpt lat="44.07652839832893" lon="11.631064052170618"><ele>424.0</ele><time>2026-04-14T09:42:11Z</time></trkpt><trkpt lat="44.07652930350566" lon="11.630883237815663"><ele>421.25</ele><time>2026-04-14T09:42:12Z</time></trkpt><trkpt lat="44.076516285415586" lon="11.630690885801547"><ele>418.5</ele><time>2026-04-14T09:42:13Z</time></trkpt><trkpt lat="44.07649603120573" lon="11.630501975293923"><ele>415.75</ele><time>2026-04-14T09:42:14Z</time></trkpt><trkpt lat="44.07646185518968" lon="11.630315118683862"><ele>413.0</ele><time>2026-04-14T09:42:15Z</time></trkpt><trkpt lat="44.076408477267556" lon="11.630152890606883"><ele>412.75</ele><time>2026-04-14T09:42:16Z</time></trkpt><trkpt lat="44.076351803559334" lon="11.630009686891688"><ele>412.5</ele><time>2026-04-14T09:42:17Z</time></trkpt><trkpt lat="44.076276146041714" lon="11.629877708748948"><ele>412.25</ele><time>2026-04-14T09:42:18Z</time></trkpt><trkpt lat="44.076145901296485" lon="11.629813616410559"><ele>412.0</ele><time>2026-04-14T09:42:19Z</time></trkpt><trkpt lat="44.07602973141684" lon="11.62972980047889"><ele>412.0</ele><time>2026-04-14T09:42:20Z</time></trkpt><trkpt lat="44.07591984563211" lon="11.629683640036424"><ele>412.0</ele><time>2026-04-14T09:42:21Z</time></trkpt><trkpt lat="44.07581429789624" lon="11.629640114926874"><ele>412.0</ele><time>2026-04-14T09:42:22Z</time></trkpt><trkpt lat="44.07572897792273" lon="11.629587154213759"><ele>412.0</ele><time>2026-04-14T09:42:23Z</time></trkpt><trkpt lat="44.07570105001428" lon="11.629467607302232"><ele>412.0</ele><time>2026-04-14T09:42:24Z</time></trkpt><trkpt lat="44.07571837316654" lon="11.629329450828871"><ele>410.0</ele><time>2026-04-14T09:42:25Z</time></trkpt><trkpt lat="44.07571683492278" lon="11.629166725204467"><ele>408.0</ele><time>2026-04-14T09:42:26Z</time></trkpt><trkpt lat="44.07571920684747" lon="11.628993770839715"><ele>406.0</ele><time>2026-04-14T09:42:27Z</time></trkpt><trkpt lat="44.07572020961727" lon="11.62883887312685"><ele>404.0</ele><time>2026-04-14T09:42:28Z</time></trkpt><trkpt lat="44.075718387886866" lon="11.628695363752508"><ele>407.25</ele><time>2026-04-14T09:42:29Z</time></trkpt><trkpt lat="44.07568625389972" lon="11.628571488617453"><ele>410.5</ele><time>2026-04-14T09:42:30Z</time></trkpt><trkpt lat="44.07562254189476" lon="11.62845057563897"><ele>413.75</ele><time>2026-04-14T09:42:31Z</time></trkpt><trkpt lat="44.075520423817444" lon="11.628339128382018"><ele>417.0</ele><time>2026-04-14T09:42:32Z</time></trkpt><trkpt lat="44.07540083488187" lon="11.628244901314023"><ele>417.0</ele><time>2026-04-14T09:42:33Z</time></trkpt><trkpt lat="44.075298904926896" lon="11.628179621218493"><ele>417.0</ele><time>2026-04-14T09:42:34Z</time></trkpt><trkpt lat="44.075200968159415" lon="11.628112928463516"><ele>417.0</ele><time>2026-04-14T09:42:35Z</time></trkpt><trkpt lat="44.07509909312483" lon="11.62805206115595"><ele>417.0</ele><time>2026-04-14T09:42:36Z</time></trkpt><trkpt lat="44.07499160165565" lon="11.627993030088152"><ele>417.0</ele><time>2026-04-14T09:42:37Z</time></trkpt><trkpt lat="44.07488089276323" lon="11.627965704033414"><ele>414.0</ele><time>2026-04-14T09:42:38Z</time></trkpt><trkpt lat="44.07476925288608" lon="11.627941401609448"><ele>411.0</ele><time>2026-04-14T09:42:39Z</time></trkpt><trkpt lat="44.07465435553465" lon="11.627932266754327"><ele>408.0</ele><time>2026-04-14T09:42:40Z</time></trkpt><trkpt lat="44.074540497631645" lon="11.627937291252167"><ele>405.0</ele><time>2026-04-14T09:42:41Z</time></trkpt><trkpt lat="44.074434621818384" lon="11.62794221134558"><ele>402.0</ele><time>2026-04-14T09:42:42Z</time></trkpt><trkpt lat="44.07434124486482" lon="11.627922497226077"><ele>402.0</ele><time>2026-04-14T09:42:43Z</time></trkpt><trkpt lat="44.074257200607505" lon="11.627863991286425"><ele>402.0</ele><time>2026-04-14T09:42:44Z</time></trkpt><trkpt lat="44.074165213871936" lon="11.627789072777368"><ele>402.0</ele><time>2026-04-14T09:42:45Z</time></trkpt><trkpt lat="44.074078735064845" lon="11.627712633473914"><ele>402.0</ele><time>2026-04-14T09:42:46Z</time></trkpt><trkpt lat="44.073982346470345" lon="11.627623487037912"><ele>402.0</ele><time>2026-04-14T09:42:47Z</time></trkpt><trkpt lat="44.07389569540897" lon="11.627514261113204"><ele>399.8</ele><time>2026-04-14T09:42:48Z</time></trkpt><trkpt lat="44.073833515106465" lon="11.627389138941979"><ele>397.6</ele><time>2026-04-14T09:42:49Z</time></trkpt><trkpt lat="44.073775981702475" lon="11.627257277269832"><ele>395.40000000000003</ele><time>2026-04-14T09:42:50Z</time></trkpt><trkpt lat="44.073723471370926" lon="11.6271303247271"><ele>393.20000000000005</ele><time>2026-04-14T09:42:51Z</time></trkpt><trkpt lat="44.073723988829165" lon="11.626987586435687"><ele>391.0</ele><time>2026-04-14T09:42:52Z</time></trkpt><trkpt lat="44.07373756061667" lon="11.626858569731436"><ele>391.00000000000006</ele><time>2026-04-14T09:42:53Z</time></trkpt><trkpt lat="44.07374605715463" lon="11.626742230221616"><ele>391.0</ele><time>2026-04-14T09:42:54Z</time></trkpt><trkpt lat="44.073741237851515" lon="11.626622833640706"><ele>391.0</ele><time>2026-04-14T09:42:55Z</time></trkpt><trkpt lat="44.07370737750283" lon="11.62652464194451"><ele>391.0</ele><time>2026-04-14T09:42:56Z</time></trkpt><trkpt lat="44.07364321536092" lon="11.626443465307831"><ele>391.00000000000006</ele><time>2026-04-14T09:42:57Z</time></trkpt><trkpt lat="44.073562483214" lon="11.62638283144888"><ele>391.0</ele><time>2026-04-14T09:42:58Z</time></trkpt><trkpt lat="44.073488479871365" lon="11.626317877676884"><ele>391.0</ele><time>2026-04-14T09:42:59Z</time></trkpt><trkpt lat="44.073425663492856" lon="11.626226284729666"><ele>391.0</ele><time>2026-04-14T09:43:00Z</time></trkpt><trkpt lat="44.073368596781144" lon="11.62611595492381"><ele>391.0</ele><time>2026-04-14T09:43:01Z</time></trkpt><trkpt lat="44.073311469282" lon="11.626003239866018"><ele>391.0</ele><time>2026-04-14T09:43:02Z</time></trkpt><trkpt lat="44.07325007077696" lon="11.625887141478676"><ele>391.0</ele><time>2026-04-14T09:43:03Z</time></trkpt><trkpt lat="44.07318916280874" lon="11.625770893831547"><ele>392.0</ele><time>2026-04-14T09:43:04Z</time></trkpt><trkpt lat="44.07313843515071" lon="11.625639908679785"><ele>393.0</ele><time>2026-04-14T09:43:05Z</time></trkpt><trkpt lat="44.073107646033485" lon="11.625491409321528"><ele>394.0</ele><time>2026-04-14T09:43:06Z</time></trkpt><trkpt lat="44.07308517221013" lon="11.625323194191697"><ele>395.0</ele><time>2026-04-14T09:43:07Z</time></trkpt><trkpt lat="44.07305440019761" lon="11.625158021699926"><ele>393.0</ele><time>2026-04-14T09:43:08Z</time></trkpt><trkpt lat="44.073007826970155" lon="11.624995022661269"><ele>391.0</ele><time>2026-04-14T09:43:09Z</time></trkpt><trkpt lat="44.072958386308486" lon="11.624844489042113"><ele>389.0</ele><time>2026-04-14T09:43:10Z</time></trkpt><trkpt lat="44.072918084828075" lon="11.624676106393677"><ele>387.0</ele><time>2026-04-14T09:43:11Z</time></trkpt><trkpt lat="44.07289749613175" lon="11.624497349448022"><ele>385.75</ele><time>2026-04-14T09:43:12Z</time></trkpt><trkpt lat="44.07288864929229" lon="11.62431911163175"><ele>384.5</ele><time>2026-04-14T09:43:13Z</time></trkpt><trkpt lat="44.0728785727265" lon="11.624141254676795"><ele>383.25</ele><time>2026-04-14T09:43:14Z</time></trkpt><trkpt lat="44.0728648513913" lon="11.623960694785266"><ele>382.0</ele><time>2026-04-14T09:43:15Z</time></trkpt><trkpt lat="44.072825323707484" lon="11.62378467256938"><ele>381.5</ele><time>2026-04-14T09:43:16Z</time></trkpt><trkpt lat="44.07278736255909" lon="11.623606428156554"><ele>381.0</ele><time>2026-04-14T09:43:17Z</time></trkpt><trkpt lat="44.072746858028886" lon="11.623427867562878"><ele>380.5</ele><time>2026-04-14T09:43:18Z</time></trkpt><trkpt lat="44.072707481605434" lon="11.623246237013154"><ele>380.0</ele><time>2026-04-14T09:43:19Z</time></trkpt><trkpt lat="44.07267545746376" lon="11.623055074269148"><ele>380.0</ele><time>2026-04-14T09:43:20Z</time></trkpt><trkpt lat="44.07264276460199" lon="11.622869954369257"><ele>380.0</ele><time>2026-04-14T09:43:21Z</time></trkpt><trkpt lat="44.07261705384301" lon="11.622685586616644"><ele>380.0</ele><time>2026-04-14T09:43:22Z</time></trkpt><trkpt lat="44.072601093133756" lon="11.62248957392609"><ele>380.0</ele><time>2026-04-14T09:43:23Z</time></trkpt><trkpt lat="44.072598576857594" lon="11.622294267785344"><ele>377.75</ele><time>2026-04-14T09:43:24Z</time></trkpt><trkpt lat="44.07260244495569" lon="11.622105427062833"><ele>375.5</ele><time>2026-04-14T09:43:25Z</time></trkpt><trkpt lat="44.07261209485402" lon="11.621914521162967"><ele>373.25</ele><time>2026-04-14T09:43:26Z</time></trkpt><trkpt lat="44.07261719885669" lon="11.621728587797618"><ele>371.0</ele><time>2026-04-14T09:43:27Z</time></trkpt><trkpt lat="44.07261403422189" lon="11.62154870034311"><ele>371.25</ele><time>2026-04-14T09:43:28Z</time></trkpt><trkpt lat="44.07260375790734" lon="11.621374252378802"><ele>371.5</ele><time>2026-04-14T09:43:29Z</time></trkpt><trkpt lat="44.07253097198545" lon="11.62123210859858"><ele>371.75</ele><time>2026-04-14T09:43:30Z</time></trkpt><trkpt lat="44.07245408317492" lon="11.621102840364278"><ele>372.0</ele><time>2026-04-14T09:43:31Z</time></trkpt><trkpt lat="44.0723662512215" lon="11.620981410187841"><ele>369.75</ele><time>2026-04-14T09:43:32Z</time></trkpt><trkpt lat="44.072302844827824" lon="11.620835242794055"><ele>367.5</ele><time>2026-04-14T09:43:33Z</time></trkpt><trkpt lat="44.07226135688735" lon="11.620677869933647"><ele>365.25</ele><time>2026-04-14T09:43:34Z</time></trkpt><trkpt lat="44.07220472094656" lon="11.620516107617979"><ele>363.0</ele><time>2026-04-14T09:43:35Z</time></trkpt><trkpt lat="44.07212925317771" lon="11.620376157341173"><ele>362.0</ele><time>2026-04-14T09:43:36Z</time></trkpt><trkpt lat="44.072033214938315" lon="11.620259498993187"><ele>361.0</ele><time>2026-04-14T09:43:37Z</time></trkpt><trkpt lat="44.07192518021771" lon="11.620153837704045"><ele>360.0</ele><time>2026-04-14T09:43:38Z</time></trkpt><trkpt lat="44.07182122879227" lon="11.620048952399104"><ele>359.0</ele><time>2026-04-14T09:43:39Z</time></trkpt><trkpt lat="44.071716346641665" lon="11.619949745577744"><ele>359.0</ele><time>2026-04-14T09:43:40Z</time></trkpt><trkpt lat="44.07161690152331" lon="11.619857793270311"><ele>359.0</ele><time>2026-04-14T09:43:41Z</time></trkpt><trkpt lat="44.07152948088264" lon="11.619760957569408"><ele>359.0</ele><time>2026-04-14T09:43:42Z</time></trkpt><trkpt lat="44.07146237512956" lon="11.619640266885161"><ele>359.0</ele><time>2026-04-14T09:43:43Z</time></trkpt><trkpt lat="44.071414867468" lon="11.619496064592857"><ele>361.25</ele><time>2026-04-14T09:43:44Z</time></trkpt><trkpt lat="44.071384273921254" lon="11.619339684745864"><ele>363.5</ele><time>2026-04-14T09:43:45Z</time></trkpt><trkpt lat="44.071382647765994" lon="11.6191696334549"><ele>365.75</ele><time>2026-04-14T09:43:46Z</time></trkpt><trkpt lat="44.071414335089784" lon="11.619001377651184"><ele>368.0</ele><time>2026-04-14T09:43:47Z</time></trkpt><trkpt lat="44.07146776285548" lon="11.618832712066569"><ele>368.0</ele><time>2026-04-14T09:43:48Z</time></trkpt><trkpt lat="44.07153774054731" lon="11.618662167119433"><ele>368.0</ele><time>2026-04-14T09:43:49Z</time></trkpt><trkpt lat="44.07161078808465" lon="11.618486325972526"><ele>368.0</ele><time>2026-04-14T09:43:50Z</time></trkpt><trkpt lat="44.071685216124074" lon="11.618301548682442"><ele>368.0</ele><time>2026-04-14T09:43:51Z</time></trkpt><trkpt lat="44.07175743812538" lon="11.618116741249882"><ele>365.25</ele><time>2026-04-14T09:43:52Z</time></trkpt><trkpt lat="44.071827491792945" lon="11.617934465583861"><ele>362.5</ele><time>2026-04-14T09:43:53Z</time></trkpt><trkpt lat="44.07189831140961" lon="11.617759323130871"><ele>359.75</ele><time>2026-04-14T09:43:54Z</time></trkpt><trkpt lat="44.071971636394125" lon="11.617588539030175"><ele>357.0</ele><time>2026-04-14T09:43:55Z</time></trkpt><trkpt lat="44.07204852458912" lon="11.617417416410726"><ele>357.0</ele><time>2026-04-14T09:43:56Z</time></trkpt><trkpt lat="44.07212614212966" lon="11.617246436227955"><ele>357.0</ele><time>2026-04-14T09:43:57Z</time></trkpt><trkpt lat="44.0722056673445" lon="11.61706830061345"><ele>357.0</ele><time>2026-04-14T09:43:58Z</time></trkpt><trkpt lat="44.072284309258016" lon="11.616902058244497"><ele>357.0</ele><time>2026-04-14T09:43:59Z</time></trkpt><trkpt lat="44.07236235542755" lon="11.616729298874366"><ele>355.75</ele><time>2026-04-14T09:44:00Z</time></trkpt><trkpt lat="44.07244341955988" lon="11.616557389972412"><ele>354.5</ele><time>2026-04-14T09:44:01Z</time></trkpt><trkpt lat="44.07252301253181" lon="11.616385069432377"><ele>353.25</ele><time>2026-04-14T09:44:02Z</time></trkpt><trkpt lat="44.07260015606598" lon="11.616208251406125"><ele>352.0</ele><time>2026-04-14T09:44:03Z</time></trkpt><trkpt lat="44.07267949304418" lon="11.616030347532678"><ele>352.0</ele><time>2026-04-14T09:44:04Z</time></trkpt><trkpt lat="44.07276151643742" lon="11.615853941769027"><ele>352.0</ele><time>2026-04-14T09:44:05Z</time></trkpt><trkpt lat="44.07284222926788" lon="11.61568493876052"><ele>352.0</ele><time>2026-04-14T09:44:06Z</time></trkpt><trkpt lat="44.07292027203033" lon="11.615521440649635"><ele>352.0</ele><time>2026-04-14T09:44:07Z</time></trkpt><trkpt lat="44.072997153002724" lon="11.615358160599516"><ele>354.25</ele><time>2026-04-14T09:44:08Z</time></trkpt><trkpt lat="44.073070075507054" lon="11.61520244302515"><ele>356.5</ele><time>2026-04-14T09:44:09Z</time></trkpt><trkpt lat="44.07313967340882" lon="11.61505102341664"><ele>358.75</ele><time>2026-04-14T09:44:10Z</time></trkpt><trkpt lat="44.07320581518232" lon="11.614903650483825"><ele>361.0</ele><time>2026-04-14T09:44:11Z</time></trkpt><trkpt lat="44.07326837027233" lon="11.614759066154395"><ele>357.8</ele><time>2026-04-14T09:44:12Z</time></trkpt><trkpt lat="44.07333084546978" lon="11.614625603340972"><ele>354.6</ele><time>2026-04-14T09:44:13Z</time></trkpt><trkpt lat="44.073392334122765" lon="11.614500909641501"><ele>351.4</ele><time>2026-04-14T09:44:14Z</time></trkpt><trkpt lat="44.07344415347615" lon="11.614380522858701"><ele>348.2</ele><time>2026-04-14T09:44:15Z</time></trkpt><trkpt lat="44.07348003768619" lon="11.61425050005633"><ele>345.0</ele><time>2026-04-14T09:44:16Z</time></trkpt><trkpt lat="44.0735187466032" lon="11.61412560131087"><ele>345.0</ele><time>2026-04-14T09:44:17Z</time></trkpt><trkpt lat="44.07354101821424" lon="11.61399543739523"><ele>345.0</ele><time>2026-04-14T09:44:18Z</time></trkpt><trkpt lat="44.07356048547702" lon="11.613872629383199"><ele>345.0</ele><time>2026-04-14T09:44:19Z</time></trkpt><trkpt lat="44.07356732658427" lon="11.61374279763712"><ele>345.0</ele><time>2026-04-14T09:44:20Z</time></trkpt><trkpt lat="44.07359831544277" lon="11.61362035797621"><ele>345.0</ele><time>2026-04-14T09:44:21Z</time></trkpt><trkpt lat="44.07362717894018" lon="11.61349534687947"><ele>345.8</ele><time>2026-04-14T09:44:22Z</time></trkpt><trkpt lat="44.07365838758777" lon="11.613367558299924"><ele>346.6</ele><time>2026-04-14T09:44:23Z</time></trkpt><trkpt lat="44.07369319546046" lon="11.613236665388053"><ele>347.4</ele><time>2026-04-14T09:44:24Z</time></trkpt><trkpt lat="44.07372496427297" lon="11.613104610270597"><ele>348.2</ele><time>2026-04-14T09:44:25Z</time></trkpt><trkpt lat="44.07377127380228" lon="11.612976831700294"><ele>349.0</ele><time>2026-04-14T09:44:26Z</time></trkpt><trkpt lat="44.07381082125934" lon="11.612835077554616"><ele>349.79999999999995</ele><time>2026-04-14T09:44:27Z</time></trkpt><trkpt lat="44.07385127774337" lon="11.612701575603674"><ele>350.59999999999997</ele><time>2026-04-14T09:44:28Z</time></trkpt><trkpt lat="44.073895746731644" lon="11.612572280332406"><ele>351.4</ele><time>2026-04-14T09:44:29Z</time></trkpt><trkpt lat="44.073936400270576" lon="11.612442892083559"><ele>352.2</ele><time>2026-04-14T09:44:30Z</time></trkpt><trkpt lat="44.07397934820083" lon="11.612300851727873"><ele>353.0</ele><time>2026-04-14T09:44:31Z</time></trkpt><trkpt lat="44.07401792213925" lon="11.612147635330675"><ele>353.0</ele><time>2026-04-14T09:44:32Z</time></trkpt><trkpt lat="44.074059561059805" lon="11.612002984254262"><ele>353.0</ele><time>2026-04-14T09:44:33Z</time></trkpt><trkpt lat="44.07410010489574" lon="11.611863491307696"><ele>353.0</ele><time>2026-04-14T09:44:34Z</time></trkpt><trkpt lat="44.07414983244694" lon="11.611728291004939"><ele>353.0</ele><time>2026-04-14T09:44:35Z</time></trkpt><trkpt lat="44.07421170818414" lon="11.6116032241037"><ele>353.0</ele><time>2026-04-14T09:44:36Z</time></trkpt><trkpt lat="44.07427687991634" lon="11.61151311283604"><ele>350.1666666666667</ele><time>2026-04-14T09:44:37Z</time></trkpt><trkpt lat="44.07434478573511" lon="11.611443165241628"><ele>347.33333333333337</ele><time>2026-04-14T09:44:38Z</time></trkpt><trkpt lat="44.07440431649221" lon="11.611368313331116"><ele>344.5</ele><time>2026-04-14T09:44:39Z</time></trkpt><trkpt lat="44.07445770234917" lon="11.611302840329882"><ele>341.6666666666667</ele><time>2026-04-14T09:44:40Z</time></trkpt><trkpt lat="44.07454463476332" lon="11.611210964393218"><ele>338.8333333333333</ele><time>2026-04-14T09:44:42Z</time></trkpt><trkpt lat="44.074622459913556" lon="11.611173942804585"><ele>336.0</ele><time>2026-04-14T09:44:45Z</time></trkpt><trkpt lat="44.07468867951249" lon="11.611237294809484"><ele>336.0</ele><time>2026-04-14T09:44:47Z</time></trkpt><trkpt lat="44.07478694516846" lon="11.611342737539"><ele>336.0</ele><time>2026-04-14T09:44:49Z</time></trkpt><trkpt lat="44.07483794799736" lon="11.61139575770682"><ele>336.0</ele><time>2026-04-14T09:44:50Z</time></trkpt><trkpt lat="44.07493542427239" lon="11.611491562614349"><ele>336.0</ele><time>2026-04-14T09:44:52Z</time></trkpt><trkpt lat="44.07504643347589" lon="11.611517965054436"><ele>336.0</ele><time>2026-04-14T09:44:54Z</time></trkpt><trkpt lat="44.07515272816558" lon="11.611522162417845"><ele>335.3333333333333</ele><time>2026-04-14T09:44:56Z</time></trkpt><trkpt lat="44.075270557230816" lon="11.611552023120739"><ele>334.6666666666667</ele><time>2026-04-14T09:44:58Z</time></trkpt><trkpt lat="44.07533637481037" lon="11.611579219947206"><ele>334.0</ele><time>2026-04-14T09:44:59Z</time></trkpt><trkpt lat="44.07540387957628" lon="11.611622904064706"><ele>333.33333333333337</ele><time>2026-04-14T09:45:00Z</time></trkpt><trkpt lat="44.07546283590913" lon="11.611673683510537"><ele>332.6666666666667</ele><time>2026-04-14T09:45:01Z</time></trkpt><trkpt lat="44.07551697392578" lon="11.611744370766703"><ele>332.0</ele><time>2026-04-14T09:45:02Z</time></trkpt><trkpt lat="44.07557314956768" lon="11.611818575497905"><ele>332.0</ele><time>2026-04-14T09:45:03Z</time></trkpt><trkpt lat="44.07562601500198" lon="11.611893218681873"><ele>332.0</ele><time>2026-04-14T09:45:04Z</time></trkpt><trkpt lat="44.075685210807166" lon="11.611966874956924"><ele>332.0</ele><time>2026-04-14T09:45:05Z</time></trkpt><trkpt lat="44.07574643085478" lon="11.612050315099724"><ele>332.0</ele><time>2026-04-14T09:45:06Z</time></trkpt><trkpt lat="44.075813920687544" lon="11.612133797590763"><ele>332.0</ele><time>2026-04-14T09:45:07Z</time></trkpt><trkpt lat="44.07587601215282" lon="11.612220548140327"><ele>332.0</ele><time>2026-04-14T09:45:08Z</time></trkpt><trkpt lat="44.075943175909245" lon="11.612304628421393"><ele>331.0</ele><time>2026-04-14T09:45:09Z</time></trkpt><trkpt lat="44.0760100904669" lon="11.612390817808675"><ele>330.0</ele><time>2026-04-14T09:45:10Z</time></trkpt><trkpt lat="44.07607700707461" lon="11.61247796931625"><ele>329.0</ele><time>2026-04-14T09:45:11Z</time></trkpt><trkpt lat="44.07614250160816" lon="11.612567759017864"><ele>328.0</ele><time>2026-04-14T09:45:12Z</time></trkpt><trkpt lat="44.076202111657196" lon="11.612668114471715"><ele>327.0</ele><time>2026-04-14T09:45:13Z</time></trkpt><trkpt lat="44.076250335117024" lon="11.612768999084954"><ele>327.0</ele><time>2026-04-14T09:45:14Z</time></trkpt><trkpt lat="44.07628734947497" lon="11.612853448475951"><ele>327.0</ele><time>2026-04-14T09:45:15Z</time></trkpt><trkpt lat="44.076315496212395" lon="11.612941723743631"><ele>327.0</ele><time>2026-04-14T09:45:16Z</time></trkpt><trkpt lat="44.07633861609232" lon="11.613023325100821"><ele>327.0</ele><time>2026-04-14T09:45:17Z</time></trkpt><trkpt lat="44.07637174774452" lon="11.61317459865739"><ele>327.0</ele><time>2026-04-14T09:45:19Z</time></trkpt><trkpt lat="44.07638793705958" lon="11.613290988635029"><ele>327.0</ele><time>2026-04-14T09:45:21Z</time></trkpt><trkpt lat="44.07637085234594" lon="11.61339635079506"><ele>327.0</ele><time>2026-04-14T09:45:24Z</time></trkpt></trkseg></trk></gpx>